<?xml version='1.0' encoding='UTF-8'?><gpx version="1.1" creator="JPX - https://github.com/jenetics/jpx" xmlns="http://www.topografix.com/GPX/1/1"><trk><trkseg><trkpt lat="42.9504517" lon="13.872585"><ele>31.0</ele><time>2026-04-04T08:05:02.819Z</time></trkpt><trkpt lat="42.950465" lon="13.87245"><ele>31.0</ele><time>2026-04-04T08:05:04.819Z</time></trkpt><trkpt lat="42.95045" lon="13.8722883"><ele>31.0</ele><time>2026-04-04T08:05:06.82Z</time></trkpt><trkpt lat="42.95044" lon="13.8721467"><ele>31.0</ele><time>2026-04-04T08:05:08.819Z</time></trkpt><trkpt lat="42.950445" lon="13.871995"><ele>31.0</ele><time>2026-04-04T08:05:10.819Z</time></trkpt><trkpt lat="42.9504583" lon="13.8718917"><ele>31.0</ele><time>2026-04-04T08:05:11.819Z</time></trkpt><trkpt lat="42.9504733" lon="13.8717667"><ele>31.0</ele><time>2026-04-04T08:05:12.819Z</time></trkpt><trkpt lat="42.950485" lon="13.8716483"><ele>31.0</ele><time>2026-04-04T08:05:13.819Z</time></trkpt><trkpt lat="42.95049" lon="13.8715267"><ele>31.0</ele><time>2026-04-04T08:05:14.819Z</time></trkpt><trkpt lat="42.95049" lon="13.8713883"><ele>31.0</ele><time>2026-04-04T08:05:15.82Z</time></trkpt><trkpt lat="42.9504733" lon="13.8712483"><ele>31.0</ele><time>2026-04-04T08:05:16.82Z</time></trkpt><trkpt lat="42.950455" lon="13.8711167"><ele>31.0</ele><time>2026-04-04T08:05:17.819Z</time></trkpt><trkpt lat="42.95043" lon="13.8709967"><ele>31.0</ele><time>2026-04-04T08:05:18.819Z</time></trkpt><trkpt lat="42.9504133" lon="13.8708717"><ele>31.0</ele><time>2026-04-04T08:05:19.819Z</time></trkpt><trkpt lat="42.95039" lon="13.8707283"><ele>31.0</ele><time>2026-04-04T08:05:20.819Z</time></trkpt><trkpt lat="42.95037" lon="13.8705867"><ele>31.333333333333336</ele><time>2026-04-04T08:05:21.82Z</time></trkpt><trkpt lat="42.9503467" lon="13.8704683"><ele>31.666666666666668</ele><time>2026-04-04T08:05:22.82Z</time></trkpt><trkpt lat="42.9503267" lon="13.8703483"><ele>32.0</ele><time>2026-04-04T08:05:23.819Z</time></trkpt><trkpt lat="42.9503083" lon="13.8702517"><ele>32.333333333333336</ele><time>2026-04-04T08:05:24.819Z</time></trkpt><trkpt lat="42.9502883" lon="13.8701667"><ele>32.666666666666664</ele><time>2026-04-04T08:05:25.82Z</time></trkpt><trkpt lat="42.95027" lon="13.8700717"><ele>33.0</ele><time>2026-04-04T08:05:26.819Z</time></trkpt><trkpt lat="42.9502467" lon="13.869965"><ele>34.199999999999996</ele><time>2026-04-04T08:05:27.819Z</time></trkpt><trkpt lat="42.9502267" lon="13.8698317"><ele>35.4</ele><time>2026-04-04T08:05:28.819Z</time></trkpt><trkpt lat="42.9502167" lon="13.8696867"><ele>36.599999999999994</ele><time>2026-04-04T08:05:29.819Z</time></trkpt><trkpt lat="42.9502167" lon="13.8695283"><ele>37.8</ele><time>2026-04-04T08:05:30.82Z</time></trkpt><trkpt lat="42.9502017" lon="13.8693683"><ele>39.0</ele><time>2026-04-04T08:05:31.82Z</time></trkpt><trkpt lat="42.950185" lon="13.8692083"><ele>41.25</ele><time>2026-04-04T08:05:32.82Z</time></trkpt><trkpt lat="42.950175" lon="13.86904"><ele>43.5</ele><time>2026-04-04T08:05:33.819Z</time></trkpt><trkpt lat="42.9501717" lon="13.8688733"><ele>45.75</ele><time>2026-04-04T08:05:34.819Z</time></trkpt><trkpt lat="42.950175" lon="13.8687167"><ele>48.0</ele><time>2026-04-04T08:05:35.819Z</time></trkpt><trkpt lat="42.950185" lon="13.8685817"><ele>48.0</ele><time>2026-04-04T08:05:36.82Z</time></trkpt><trkpt lat="42.9501967" lon="13.8684567"><ele>48.0</ele><time>2026-04-04T08:05:37.819Z</time></trkpt><trkpt lat="42.9502067" lon="13.86834"><ele>48.0</ele><time>2026-04-04T08:05:38.819Z</time></trkpt><trkpt lat="42.950205" lon="13.8682167"><ele>48.0</ele><time>2026-04-04T08:05:39.819Z</time></trkpt><trkpt lat="42.9502083" lon="13.8681133"><ele>48.0</ele><time>2026-04-04T08:05:40.82Z</time></trkpt><trkpt lat="42.9502167" lon="13.8680167"><ele>48.0</ele><time>2026-04-04T08:05:41.82Z</time></trkpt><trkpt lat="42.95024" lon="13.8678533"><ele>47.666666666666664</ele><time>2026-04-04T08:05:43.819Z</time></trkpt><trkpt lat="42.9502683" lon="13.8676933"><ele>47.333333333333336</ele><time>2026-04-04T08:05:45.819Z</time></trkpt><trkpt lat="42.9503133" lon="13.8676183"><ele>47.0</ele><time>2026-04-04T08:05:46.819Z</time></trkpt><trkpt lat="42.9503483" lon="13.8675383"><ele>46.66666666666667</ele><time>2026-04-04T08:05:47.819Z</time></trkpt><trkpt lat="42.9504017" lon="13.8674633"><ele>46.333333333333336</ele><time>2026-04-04T08:05:48.82Z</time></trkpt><trkpt lat="42.9504433" lon="13.867375"><ele>46.0</ele><time>2026-04-04T08:05:49.819Z</time></trkpt><trkpt lat="42.9504833" lon="13.867285"><ele>44.333333333333336</ele><time>2026-04-04T08:05:50.82Z</time></trkpt><trkpt lat="42.9505217" lon="13.86719"><ele>42.66666666666667</ele><time>2026-04-04T08:05:51.82Z</time></trkpt><trkpt lat="42.9505533" lon="13.8670783"><ele>41.0</ele><time>2026-04-04T08:05:52.819Z</time></trkpt><trkpt lat="42.9505783" lon="13.8669733"><ele>39.333333333333336</ele><time>2026-04-04T08:05:53.819Z</time></trkpt><trkpt lat="42.950605" lon="13.8668533"><ele>37.666666666666664</ele><time>2026-04-04T08:05:54.82Z</time></trkpt><trkpt lat="42.9506317" lon="13.86673"><ele>36.0</ele><time>2026-04-04T08:05:55.819Z</time></trkpt><trkpt lat="42.95066" lon="13.8666133"><ele>35.0</ele><time>2026-04-04T08:05:56.82Z</time></trkpt><trkpt lat="42.9506883" lon="13.8665017"><ele>34.0</ele><time>2026-04-04T08:05:57.819Z</time></trkpt><trkpt lat="42.950705" lon="13.86639"><ele>33.0</ele><time>2026-04-04T08:05:58.819Z</time></trkpt><trkpt lat="42.950735" lon="13.86629"><ele>32.0</ele><time>2026-04-04T08:05:59.819Z</time></trkpt><trkpt lat="42.9507583" lon="13.866185"><ele>31.0</ele><time>2026-04-04T08:06:00.82Z</time></trkpt><trkpt lat="42.95078" lon="13.8660817"><ele>30.0</ele><time>2026-04-04T08:06:01.82Z</time></trkpt><trkpt lat="42.9507867" lon="13.8659867"><ele>29.833333333333332</ele><time>2026-04-04T08:06:02.819Z</time></trkpt><trkpt lat="42.9508183" lon="13.8658233"><ele>29.666666666666664</ele><time>2026-04-04T08:06:04.819Z</time></trkpt><trkpt lat="42.9508467" lon="13.8657433"><ele>29.5</ele><time>2026-04-04T08:06:05.819Z</time></trkpt><trkpt lat="42.9508783" lon="13.86566"><ele>29.333333333333332</ele><time>2026-04-04T08:06:06.819Z</time></trkpt><trkpt lat="42.950905" lon="13.8655683"><ele>29.166666666666664</ele><time>2026-04-04T08:06:07.819Z</time></trkpt><trkpt lat="42.9509317" lon="13.865465"><ele>29.0</ele><time>2026-04-04T08:06:08.819Z</time></trkpt><trkpt lat="42.9509633" lon="13.86536"><ele>29.833333333333332</ele><time>2026-04-04T08:06:09.819Z</time></trkpt><trkpt lat="42.95099" lon="13.865265"><ele>30.666666666666664</ele><time>2026-04-04T08:06:10.819Z</time></trkpt><trkpt lat="42.9510133" lon="13.8651717"><ele>31.5</ele><time>2026-04-04T08:06:11.819Z</time></trkpt><trkpt lat="42.95105" lon="13.865085"><ele>32.333333333333336</ele><time>2026-04-04T08:06:12.819Z</time></trkpt><trkpt lat="42.951085" lon="13.8650017"><ele>33.16666666666667</ele><time>2026-04-04T08:06:13.82Z</time></trkpt><trkpt lat="42.9511467" lon="13.8648583"><ele>34.0</ele><time>2026-04-04T08:06:15.819Z</time></trkpt><trkpt lat="42.95119" lon="13.8647117"><ele>34.0</ele><time>2026-04-04T08:06:17.819Z</time></trkpt><trkpt lat="42.9511767" lon="13.86458"><ele>34.0</ele><time>2026-04-04T08:06:19.82Z</time></trkpt><trkpt lat="42.9511" lon="13.864515"><ele>34.0</ele><time>2026-04-04T08:06:21.819Z</time></trkpt><trkpt lat="42.95099" lon="13.86444"><ele>34.0</ele><time>2026-04-04T08:06:23.819Z</time></trkpt><trkpt lat="42.9508783" lon="13.864395"><ele>34.0</ele><time>2026-04-04T08:06:25.819Z</time></trkpt><trkpt lat="42.9508033" lon="13.8643433"><ele>34.0</ele><time>2026-04-04T08:06:27.819Z</time></trkpt><trkpt lat="42.95083" lon="13.8642483"><ele>34.0</ele><time>2026-04-04T08:06:38.819Z</time></trkpt><trkpt lat="42.9508917" lon="13.8641167"><ele>34.0</ele><time>2026-04-04T08:06:40.82Z</time></trkpt><trkpt lat="42.9509683" lon="13.8639733"><ele>34.0</ele><time>2026-04-04T08:06:41.82Z</time></trkpt><trkpt lat="42.9510767" lon="13.8637683"><ele>34.0</ele><time>2026-04-04T08:06:42.82Z</time></trkpt><trkpt lat="42.951195" lon="13.8635867"><ele>34.0</ele><time>2026-04-04T08:06:43.819Z</time></trkpt><trkpt lat="42.9512817" lon="13.8634233"><ele>34.0</ele><time>2026-04-04T08:06:44.819Z</time></trkpt><trkpt lat="42.95135" lon="13.863275"><ele>34.25</ele><time>2026-04-04T08:06:45.82Z</time></trkpt><trkpt lat="42.9514" lon="13.8631417"><ele>34.5</ele><time>2026-04-04T08:06:46.819Z</time></trkpt><trkpt lat="42.95143" lon="13.86299"><ele>34.75</ele><time>2026-04-04T08:06:47.819Z</time></trkpt><trkpt lat="42.9514517" lon="13.8628283"><ele>35.0</ele><time>2026-04-04T08:06:48.819Z</time></trkpt><trkpt lat="42.9514583" lon="13.8626717"><ele>34.6</ele><time>2026-04-04T08:06:49.819Z</time></trkpt><trkpt lat="42.95148" lon="13.86254"><ele>34.2</ele><time>2026-04-04T08:06:50.819Z</time></trkpt><trkpt lat="42.9514967" lon="13.8624217"><ele>33.8</ele><time>2026-04-04T08:06:51.819Z</time></trkpt><trkpt lat="42.9514867" lon="13.86233"><ele>33.4</ele><time>2026-04-04T08:06:52.819Z</time></trkpt><trkpt lat="42.95147" lon="13.8622267"><ele>33.0</ele><time>2026-04-04T08:06:54.82Z</time></trkpt><trkpt lat="42.9514367" lon="13.8620667"><ele>33.0</ele><time>2026-04-04T08:07:33.82Z</time></trkpt><trkpt lat="42.9514133" lon="13.8619167"><ele>33.0</ele><time>2026-04-04T08:07:35.82Z</time></trkpt><trkpt lat="42.9514517" lon="13.861735"><ele>33.0</ele><time>2026-04-04T08:07:37.82Z</time></trkpt><trkpt lat="42.95149" lon="13.8616433"><ele>33.0</ele><time>2026-04-04T08:07:38.819Z</time></trkpt><trkpt lat="42.9515267" lon="13.8615683"><ele>33.0</ele><time>2026-04-04T08:07:39.82Z</time></trkpt><trkpt lat="42.95157" lon="13.8614617"><ele>33.0</ele><time>2026-04-04T08:07:41.819Z</time></trkpt><trkpt lat="42.9516667" lon="13.8614117"><ele>33.0</ele><time>2026-04-04T08:07:53.82Z</time></trkpt><trkpt lat="42.9517333" lon="13.8614217"><ele>33.0</ele><time>2026-04-04T08:07:54.82Z</time></trkpt><trkpt lat="42.9518067" lon="13.8614333"><ele>33.0</ele><time>2026-04-04T08:07:55.82Z</time></trkpt><trkpt lat="42.9518917" lon="13.861455"><ele>33.0</ele><time>2026-04-04T08:07:56.819Z</time></trkpt><trkpt lat="42.9519867" lon="13.8614817"><ele>33.0</ele><time>2026-04-04T08:07:57.82Z</time></trkpt><trkpt lat="42.9520867" lon="13.8614967"><ele>35.25</ele><time>2026-04-04T08:07:58.819Z</time></trkpt><trkpt lat="42.952195" lon="13.8615067"><ele>37.5</ele><time>2026-04-04T08:07:59.82Z</time></trkpt><trkpt lat="42.952305" lon="13.861525"><ele>39.75</ele><time>2026-04-04T08:08:00.819Z</time></trkpt><trkpt lat="42.95242" lon="13.8615333"><ele>42.0</ele><time>2026-04-04T08:08:01.819Z</time></trkpt><trkpt lat="42.9525383" lon="13.86159"><ele>44.75</ele><time>2026-04-04T08:08:02.819Z</time></trkpt><trkpt lat="42.952655" lon="13.8615983"><ele>47.5</ele><time>2026-04-04T08:08:03.819Z</time></trkpt><trkpt lat="42.9527683" lon="13.8616183"><ele>50.25</ele><time>2026-04-04T08:08:04.82Z</time></trkpt><trkpt lat="42.95288" lon="13.8616367"><ele>53.0</ele><time>2026-04-04T08:08:05.82Z</time></trkpt><trkpt lat="42.952995" lon="13.8616483"><ele>53.0</ele><time>2026-04-04T08:08:06.819Z</time></trkpt><trkpt lat="42.9531033" lon="13.8616633"><ele>53.0</ele><time>2026-04-04T08:08:07.819Z</time></trkpt><trkpt lat="42.953195" lon="13.8616883"><ele>53.0</ele><time>2026-04-04T08:08:08.82Z</time></trkpt><trkpt lat="42.953295" lon="13.861705"><ele>53.0</ele><time>2026-04-04T08:08:09.819Z</time></trkpt><trkpt lat="42.95342" lon="13.861725"><ele>53.0</ele><time>2026-04-04T08:08:10.82Z</time></trkpt><trkpt lat="42.9535267" lon="13.8617217"><ele>56.0</ele><time>2026-04-04T08:08:11.82Z</time></trkpt><trkpt lat="42.9536333" lon="13.8617067"><ele>59.0</ele><time>2026-04-04T08:08:12.819Z</time></trkpt><trkpt lat="42.953755" lon="13.8617067"><ele>62.0</ele><time>2026-04-04T08:08:13.819Z</time></trkpt><trkpt lat="42.9538883" lon="13.8617"><ele>65.0</ele><time>2026-04-04T08:08:14.82Z</time></trkpt><trkpt lat="42.95405" lon="13.8617033"><ele>69.33333333333334</ele><time>2026-04-04T08:08:15.819Z</time></trkpt><trkpt lat="42.954215" lon="13.861705"><ele>73.66666666666667</ele><time>2026-04-04T08:08:16.82Z</time></trkpt><trkpt lat="42.954375" lon="13.8616917"><ele>78.0</ele><time>2026-04-04T08:08:17.819Z</time></trkpt><trkpt lat="42.9545217" lon="13.8616767"><ele>78.0</ele><time>2026-04-04T08:08:18.82Z</time></trkpt><trkpt lat="42.9546717" lon="13.8616617"><ele>78.0</ele><time>2026-04-04T08:08:19.819Z</time></trkpt><trkpt lat="42.9548133" lon="13.86166"><ele>78.0</ele><time>2026-04-04T08:08:20.82Z</time></trkpt><trkpt lat="42.9549367" lon="13.8616483"><ele>78.0</ele><time>2026-04-04T08:08:21.819Z</time></trkpt><trkpt lat="42.9550533" lon="13.8616467"><ele>78.4</ele><time>2026-04-04T08:08:22.819Z</time></trkpt><trkpt lat="42.9551683" lon="13.86165"><ele>78.8</ele><time>2026-04-04T08:08:23.82Z</time></trkpt><trkpt lat="42.9552683" lon="13.8616483"><ele>79.2</ele><time>2026-04-04T08:08:24.82Z</time></trkpt><trkpt lat="42.9553717" lon="13.8616167"><ele>79.6</ele><time>2026-04-04T08:08:25.819Z</time></trkpt><trkpt lat="42.9554633" lon="13.8615517"><ele>80.0</ele><time>2026-04-04T08:08:26.819Z</time></trkpt><trkpt lat="42.955555" lon="13.8615083"><ele>80.0</ele><time>2026-04-04T08:08:27.819Z</time></trkpt><trkpt lat="42.9556383" lon="13.8614783"><ele>80.0</ele><time>2026-04-04T08:08:28.82Z</time></trkpt><trkpt lat="42.955705" lon="13.861465"><ele>80.0</ele><time>2026-04-04T08:08:29.82Z</time></trkpt><trkpt lat="42.955775" lon="13.861475"><ele>80.0</ele><time>2026-04-04T08:08:30.82Z</time></trkpt><trkpt lat="42.9558583" lon="13.8615433"><ele>80.0</ele><time>2026-04-04T08:08:31.82Z</time></trkpt><trkpt lat="42.95595" lon="13.8616317"><ele>80.0</ele><time>2026-04-04T08:08:32.819Z</time></trkpt><trkpt lat="42.956055" lon="13.8617167"><ele>81.0</ele><time>2026-04-04T08:08:33.819Z</time></trkpt><trkpt lat="42.9561783" lon="13.8617767"><ele>82.0</ele><time>2026-04-04T08:08:34.82Z</time></trkpt><trkpt lat="42.9562983" lon="13.8618217"><ele>83.0</ele><time>2026-04-04T08:08:35.819Z</time></trkpt><trkpt lat="42.9564467" lon="13.861835"><ele>84.0</ele><time>2026-04-04T08:08:36.819Z</time></trkpt><trkpt lat="42.95659" lon="13.8618467"><ele>88.5</ele><time>2026-04-04T08:08:37.819Z</time></trkpt><trkpt lat="42.9567383" lon="13.861865"><ele>93.0</ele><time>2026-04-04T08:08:38.82Z</time></trkpt><trkpt lat="42.95688" lon="13.861885"><ele>97.5</ele><time>2026-04-04T08:08:39.819Z</time></trkpt><trkpt lat="42.957005" lon="13.8618967"><ele>102.0</ele><time>2026-04-04T08:08:40.819Z</time></trkpt><trkpt lat="42.957125" lon="13.8619"><ele>102.0</ele><time>2026-04-04T08:08:41.82Z</time></trkpt><trkpt lat="42.9572517" lon="13.86191"><ele>102.0</ele><time>2026-04-04T08:08:42.819Z</time></trkpt><trkpt lat="42.9573783" lon="13.861935"><ele>102.0</ele><time>2026-04-04T08:08:43.819Z</time></trkpt><trkpt lat="42.9574983" lon="13.8619533"><ele>102.0</ele><time>2026-04-04T08:08:44.82Z</time></trkpt><trkpt lat="42.9576217" lon="13.86197"><ele>105.5</ele><time>2026-04-04T08:08:45.82Z</time></trkpt><trkpt lat="42.957735" lon="13.8619933"><ele>109.0</ele><time>2026-04-04T08:08:46.819Z</time></trkpt><trkpt lat="42.9578417" lon="13.8620417"><ele>112.5</ele><time>2026-04-04T08:08:47.82Z</time></trkpt><trkpt lat="42.957945" lon="13.8620967"><ele>116.0</ele><time>2026-04-04T08:08:48.819Z</time></trkpt><trkpt lat="42.9580483" lon="13.86217"><ele>116.0</ele><time>2026-04-04T08:08:49.819Z</time></trkpt><trkpt lat="42.9581517" lon="13.8622517"><ele>116.0</ele><time>2026-04-04T08:08:50.819Z</time></trkpt><trkpt lat="42.9582567" lon="13.862345"><ele>116.0</ele><time>2026-04-04T08:08:51.819Z</time></trkpt><trkpt lat="42.9583583" lon="13.86243"><ele>116.0</ele><time>2026-04-04T08:08:52.82Z</time></trkpt><trkpt lat="42.9584533" lon="13.8625017"><ele>119.99999999999999</ele><time>2026-04-04T08:08:53.819Z</time></trkpt><trkpt lat="42.9585417" lon="13.8625617"><ele>124.0</ele><time>2026-04-04T08:08:54.82Z</time></trkpt><trkpt lat="42.9586117" lon="13.86262"><ele>128.0</ele><time>2026-04-04T08:08:55.819Z</time></trkpt><trkpt lat="42.9586667" lon="13.862705"><ele>132.0</ele><time>2026-04-04T08:08:56.82Z</time></trkpt><trkpt lat="42.9586983" lon="13.8628133"><ele>136.0</ele><time>2026-04-04T08:08:57.82Z</time></trkpt><trkpt lat="42.958705" lon="13.8629217"><ele>140.0</ele><time>2026-04-04T08:08:58.82Z</time></trkpt><trkpt lat="42.9587267" lon="13.863065"><ele>140.0</ele><time>2026-04-04T08:09:00.819Z</time></trkpt><trkpt lat="42.9587933" lon="13.863095"><ele>140.0</ele><time>2026-04-04T08:09:02.819Z</time></trkpt><trkpt lat="42.958885" lon="13.8629183"><ele>140.0</ele><time>2026-04-04T08:09:04.82Z</time></trkpt><trkpt lat="42.9589267" lon="13.86279"><ele>140.0</ele><time>2026-04-04T08:09:05.82Z</time></trkpt><trkpt lat="42.95895" lon="13.862685"><ele>140.0</ele><time>2026-04-04T08:09:06.819Z</time></trkpt><trkpt lat="42.9589667" lon="13.86256"><ele>140.83333333333331</ele><time>2026-04-04T08:09:07.819Z</time></trkpt><trkpt lat="42.9589483" lon="13.86247"><ele>141.66666666666666</ele><time>2026-04-04T08:09:08.819Z</time></trkpt><trkpt lat="42.9589117" lon="13.8623833"><ele>142.5</ele><time>2026-04-04T08:09:09.82Z</time></trkpt><trkpt lat="42.958855" lon="13.862305"><ele>143.33333333333334</ele><time>2026-04-04T08:09:10.82Z</time></trkpt><trkpt lat="42.9587683" lon="13.8622417"><ele>144.16666666666669</ele><time>2026-04-04T08:09:11.82Z</time></trkpt><trkpt lat="42.95869" lon="13.8621917"><ele>145.0</ele><time>2026-04-04T08:09:12.819Z</time></trkpt><trkpt lat="42.9586233" lon="13.8621117"><ele>145.0</ele><time>2026-04-04T08:09:13.819Z</time></trkpt><trkpt lat="42.9585767" lon="13.862"><ele>145.0</ele><time>2026-04-04T08:09:14.819Z</time></trkpt><trkpt lat="42.9585567" lon="13.8618767"><ele>145.0</ele><time>2026-04-04T08:09:15.819Z</time></trkpt><trkpt lat="42.9585617" lon="13.861745"><ele>145.0</ele><time>2026-04-04T08:09:16.819Z</time></trkpt><trkpt lat="42.958595" lon="13.8616083"><ele>145.0</ele><time>2026-04-04T08:09:17.819Z</time></trkpt><trkpt lat="42.9586783" lon="13.8613633"><ele>144.8</ele><time>2026-04-04T08:09:19.82Z</time></trkpt><trkpt lat="42.9587383" lon="13.861285"><ele>144.6</ele><time>2026-04-04T08:09:20.819Z</time></trkpt><trkpt lat="42.9588133" lon="13.86123"><ele>144.4</ele><time>2026-04-04T08:09:21.819Z</time></trkpt><trkpt lat="42.9588933" lon="13.8611883"><ele>144.2</ele><time>2026-04-04T08:09:22.82Z</time></trkpt><trkpt lat="42.958995" lon="13.8611733"><ele>144.0</ele><time>2026-04-04T08:09:23.819Z</time></trkpt><trkpt lat="42.9591067" lon="13.86116"><ele>145.8</ele><time>2026-04-04T08:09:24.82Z</time></trkpt><trkpt lat="42.9592117" lon="13.861115"><ele>147.60000000000002</ele><time>2026-04-04T08:09:25.819Z</time></trkpt><trkpt lat="42.9593133" lon="13.8610367"><ele>149.4</ele><time>2026-04-04T08:09:26.819Z</time></trkpt><trkpt lat="42.95941" lon="13.8609817"><ele>151.20000000000002</ele><time>2026-04-04T08:09:27.82Z</time></trkpt><trkpt lat="42.9594967" lon="13.8609633"><ele>153.0</ele><time>2026-04-04T08:09:28.819Z</time></trkpt><trkpt lat="42.959565" lon="13.8609467"><ele>153.0</ele><time>2026-04-04T08:09:29.819Z</time></trkpt><trkpt lat="42.95964" lon="13.8608267"><ele>153.0</ele><time>2026-04-04T08:09:31.819Z</time></trkpt><trkpt lat="42.9596583" lon="13.860735"><ele>153.0</ele><time>2026-04-04T08:09:32.819Z</time></trkpt><trkpt lat="42.95966" lon="13.8606367"><ele>153.0</ele><time>2026-04-04T08:09:33.819Z</time></trkpt><trkpt lat="42.9596267" lon="13.860495"><ele>153.0</ele><time>2026-04-04T08:09:34.82Z</time></trkpt><trkpt lat="42.9595433" lon="13.8603467"><ele>153.0</ele><time>2026-04-04T08:09:35.82Z</time></trkpt><trkpt lat="42.9594667" lon="13.8602267"><ele>153.0</ele><time>2026-04-04T08:09:36.819Z</time></trkpt><trkpt lat="42.9594133" lon="13.8601217"><ele>153.0</ele><time>2026-04-04T08:09:37.819Z</time></trkpt><trkpt lat="42.9593983" lon="13.8600283"><ele>153.0</ele><time>2026-04-04T08:09:38.819Z</time></trkpt><trkpt lat="42.9594233" lon="13.85988"><ele>153.0</ele><time>2026-04-04T08:09:40.819Z</time></trkpt><trkpt lat="42.9594667" lon="13.8598067"><ele>152.4</ele><time>2026-04-04T08:09:41.82Z</time></trkpt><trkpt lat="42.9595333" lon="13.859755"><ele>151.8</ele><time>2026-04-04T08:09:42.819Z</time></trkpt><trkpt lat="42.9596133" lon="13.85971"><ele>151.2</ele><time>2026-04-04T08:09:43.82Z</time></trkpt><trkpt lat="42.9596883" lon="13.85965"><ele>150.6</ele><time>2026-04-04T08:09:44.82Z</time></trkpt><trkpt lat="42.9597683" lon="13.8595533"><ele>150.0</ele><time>2026-04-04T08:09:45.819Z</time></trkpt><trkpt lat="42.9598533" lon="13.8593933"><ele>149.2</ele><time>2026-04-04T08:09:46.82Z</time></trkpt><trkpt lat="42.959925" lon="13.8592533"><ele>148.4</ele><time>2026-04-04T08:09:47.819Z</time></trkpt><trkpt lat="42.95994" lon="13.8591383"><ele>147.6</ele><time>2026-04-04T08:09:48.819Z</time></trkpt><trkpt lat="42.959935" lon="13.8590317"><ele>146.8</ele><time>2026-04-04T08:09:49.82Z</time></trkpt><trkpt lat="42.959895" lon="13.8589283"><ele>146.0</ele><time>2026-04-04T08:09:50.819Z</time></trkpt><trkpt lat="42.9598233" lon="13.8588233"><ele>146.0</ele><time>2026-04-04T08:09:51.82Z</time></trkpt><trkpt lat="42.95974" lon="13.8587183"><ele>146.0</ele><time>2026-04-04T08:09:52.82Z</time></trkpt><trkpt lat="42.9596333" lon="13.8586233"><ele>146.0</ele><time>2026-04-04T08:09:53.82Z</time></trkpt><trkpt lat="42.959535" lon="13.85851"><ele>146.0</ele><time>2026-04-04T08:09:54.819Z</time></trkpt><trkpt lat="42.95944" lon="13.8583967"><ele>145.2</ele><time>2026-04-04T08:09:55.819Z</time></trkpt><trkpt lat="42.9593467" lon="13.8582833"><ele>144.39999999999998</ele><time>2026-04-04T08:09:56.819Z</time></trkpt><trkpt lat="42.95927" lon="13.8582017"><ele>143.6</ele><time>2026-04-04T08:09:57.819Z</time></trkpt><trkpt lat="42.959215" lon="13.858135"><ele>142.79999999999998</ele><time>2026-04-04T08:09:58.819Z</time></trkpt><trkpt lat="42.95915" lon="13.8580033"><ele>142.0</ele><time>2026-04-04T08:10:00.819Z</time></trkpt><trkpt lat="42.95919" lon="13.8578817"><ele>144.2</ele><time>2026-04-04T08:10:02.82Z</time></trkpt><trkpt lat="42.9592983" lon="13.8578883"><ele>146.39999999999998</ele><time>2026-04-04T08:10:04.82Z</time></trkpt><trkpt lat="42.959365" lon="13.8579433"><ele>148.60000000000002</ele><time>2026-04-04T08:10:05.82Z</time></trkpt><trkpt lat="42.959445" lon="13.858035"><ele>150.8</ele><time>2026-04-04T08:10:06.819Z</time></trkpt><trkpt lat="42.9595633" lon="13.8581533"><ele>153.0</ele><time>2026-04-04T08:10:07.819Z</time></trkpt><trkpt lat="42.9597083" lon="13.858265"><ele>153.0</ele><time>2026-04-04T08:10:08.819Z</time></trkpt><trkpt lat="42.9598433" lon="13.8583433"><ele>153.0</ele><time>2026-04-04T08:10:09.82Z</time></trkpt><trkpt lat="42.959975" lon="13.8584033"><ele>153.0</ele><time>2026-04-04T08:10:10.819Z</time></trkpt><trkpt lat="42.96009" lon="13.85846"><ele>153.0</ele><time>2026-04-04T08:10:11.819Z</time></trkpt><trkpt lat="42.9601967" lon="13.8585033"><ele>156.8</ele><time>2026-04-04T08:10:12.819Z</time></trkpt><trkpt lat="42.960295" lon="13.8585433"><ele>160.60000000000002</ele><time>2026-04-04T08:10:13.819Z</time></trkpt><trkpt lat="42.9603767" lon="13.8585683"><ele>164.39999999999998</ele><time>2026-04-04T08:10:14.819Z</time></trkpt><trkpt lat="42.9604733" lon="13.8585667"><ele>168.2</ele><time>2026-04-04T08:10:15.819Z</time></trkpt><trkpt lat="42.9605683" lon="13.8585583"><ele>172.0</ele><time>2026-04-04T08:10:16.82Z</time></trkpt><trkpt lat="42.9606617" lon="13.858535"><ele>172.0</ele><time>2026-04-04T08:10:17.819Z</time></trkpt><trkpt lat="42.9607467" lon="13.8584733"><ele>172.0</ele><time>2026-04-04T08:10:18.819Z</time></trkpt><trkpt lat="42.960825" lon="13.858405"><ele>172.0</ele><time>2026-04-04T08:10:19.819Z</time></trkpt><trkpt lat="42.96089" lon="13.858325"><ele>172.0</ele><time>2026-04-04T08:10:20.819Z</time></trkpt><trkpt lat="42.9609367" lon="13.8582183"><ele>172.0</ele><time>2026-04-04T08:10:21.82Z</time></trkpt><trkpt lat="42.9609717" lon="13.858095"><ele>170.2</ele><time>2026-04-04T08:10:22.819Z</time></trkpt><trkpt lat="42.96098" lon="13.8579567"><ele>168.39999999999998</ele><time>2026-04-04T08:10:23.819Z</time></trkpt><trkpt lat="42.9609767" lon="13.8578183"><ele>166.60000000000002</ele><time>2026-04-04T08:10:24.819Z</time></trkpt><trkpt lat="42.9609383" lon="13.8576833"><ele>164.8</ele><time>2026-04-04T08:10:25.82Z</time></trkpt><trkpt lat="42.9608717" lon="13.8575367"><ele>163.0</ele><time>2026-04-04T08:10:26.819Z</time></trkpt><trkpt lat="42.9607917" lon="13.8573983"><ele>163.0</ele><time>2026-04-04T08:10:27.82Z</time></trkpt><trkpt lat="42.9607383" lon="13.857275"><ele>163.0</ele><time>2026-04-04T08:10:28.819Z</time></trkpt><trkpt lat="42.960715" lon="13.8571667"><ele>163.0</ele><time>2026-04-04T08:10:29.819Z</time></trkpt><trkpt lat="42.9607217" lon="13.8570633"><ele>163.0</ele><time>2026-04-04T08:10:30.82Z</time></trkpt><trkpt lat="42.9607483" lon="13.8569583"><ele>163.0</ele><time>2026-04-04T08:10:31.819Z</time></trkpt><trkpt lat="42.9607917" lon="13.856865"><ele>163.0</ele><time>2026-04-04T08:10:32.82Z</time></trkpt><trkpt lat="42.9608367" lon="13.8567883"><ele>166.2</ele><time>2026-04-04T08:10:33.82Z</time></trkpt><trkpt lat="42.96096" lon="13.8567383"><ele>169.4</ele><time>2026-04-04T08:10:35.82Z</time></trkpt><trkpt lat="42.96104" lon="13.856755"><ele>172.6</ele><time>2026-04-04T08:10:36.819Z</time></trkpt><trkpt lat="42.96114" lon="13.8567583"><ele>175.79999999999998</ele><time>2026-04-04T08:10:37.82Z</time></trkpt><trkpt lat="42.9612267" lon="13.8567333"><ele>179.0</ele><time>2026-04-04T08:10:38.819Z</time></trkpt><trkpt lat="42.9612833" lon="13.85664"><ele>179.0</ele><time>2026-04-04T08:10:39.819Z</time></trkpt><trkpt lat="42.9613283" lon="13.8565217"><ele>179.0</ele><time>2026-04-04T08:10:40.819Z</time></trkpt><trkpt lat="42.9613683" lon="13.8563983"><ele>179.0</ele><time>2026-04-04T08:10:41.819Z</time></trkpt><trkpt lat="42.9613917" lon="13.8562883"><ele>179.0</ele><time>2026-04-04T08:10:42.819Z</time></trkpt><trkpt lat="42.9614167" lon="13.85619"><ele>179.0</ele><time>2026-04-04T08:10:43.819Z</time></trkpt><trkpt lat="42.9614817" lon="13.8560683"><ele>179.0</ele><time>2026-04-04T08:10:45.819Z</time></trkpt><trkpt lat="42.96157" lon="13.856055"><ele>179.0</ele><time>2026-04-04T08:10:47.82Z</time></trkpt><trkpt lat="42.9616317" lon="13.856075"><ele>179.0</ele><time>2026-04-04T08:10:48.82Z</time></trkpt><trkpt lat="42.96172" lon="13.8560933"><ele>179.0</ele><time>2026-04-04T08:10:49.819Z</time></trkpt><trkpt lat="42.9618217" lon="13.8561083"><ele>179.0</ele><time>2026-04-04T08:10:50.82Z</time></trkpt><trkpt lat="42.96192" lon="13.856115"><ele>179.0</ele><time>2026-04-04T08:10:51.82Z</time></trkpt><trkpt lat="42.9620083" lon="13.85612"><ele>179.66666666666666</ele><time>2026-04-04T08:10:52.82Z</time></trkpt><trkpt lat="42.9620867" lon="13.8561217"><ele>180.33333333333331</ele><time>2026-04-04T08:10:53.82Z</time></trkpt><trkpt lat="42.96216" lon="13.8561217"><ele>181.0</ele><time>2026-04-04T08:10:54.819Z</time></trkpt><trkpt lat="42.9622767" lon="13.856075"><ele>181.66666666666666</ele><time>2026-04-04T08:10:56.82Z</time></trkpt><trkpt lat="42.9623333" lon="13.8560133"><ele>182.33333333333334</ele><time>2026-04-04T08:10:57.819Z</time></trkpt><trkpt lat="42.9623767" lon="13.8559283"><ele>183.0</ele><time>2026-04-04T08:10:58.819Z</time></trkpt><trkpt lat="42.9624067" lon="13.855825"><ele>183.0</ele><time>2026-04-04T08:10:59.819Z</time></trkpt><trkpt lat="42.962425" lon="13.8557117"><ele>183.0</ele><time>2026-04-04T08:11:00.82Z</time></trkpt><trkpt lat="42.9624483" lon="13.855605"><ele>183.0</ele><time>2026-04-04T08:11:01.819Z</time></trkpt><trkpt lat="42.96245" lon="13.8554833"><ele>183.0</ele><time>2026-04-04T08:11:02.82Z</time></trkpt><trkpt lat="42.96246" lon="13.8553533"><ele>183.0</ele><time>2026-04-04T08:11:03.819Z</time></trkpt><trkpt lat="42.9624517" lon="13.8551983"><ele>184.0</ele><time>2026-04-04T08:11:04.819Z</time></trkpt><trkpt lat="42.9624333" lon="13.8550467"><ele>185.0</ele><time>2026-04-04T08:11:05.819Z</time></trkpt><trkpt lat="42.962405" lon="13.8549183"><ele>186.0</ele><time>2026-04-04T08:11:06.819Z</time></trkpt><trkpt lat="42.9623667" lon="13.854805"><ele>187.0</ele><time>2026-04-04T08:11:07.818Z</time></trkpt><trkpt lat="42.9623317" lon="13.8546817"><ele>188.0</ele><time>2026-04-04T08:11:08.819Z</time></trkpt><trkpt lat="42.9623083" lon="13.8545633"><ele>188.0</ele><time>2026-04-04T08:11:09.819Z</time></trkpt><trkpt lat="42.962295" lon="13.8544483"><ele>188.0</ele><time>2026-04-04T08:11:10.818Z</time></trkpt><trkpt lat="42.9622983" lon="13.8543033"><ele>188.0</ele><time>2026-04-04T08:11:11.819Z</time></trkpt><trkpt lat="42.96229" lon="13.8541583"><ele>188.0</ele><time>2026-04-04T08:11:12.818Z</time></trkpt><trkpt lat="42.96226" lon="13.854"><ele>188.0</ele><time>2026-04-04T08:11:13.818Z</time></trkpt><trkpt lat="42.9622183" lon="13.85385"><ele>189.2</ele><time>2026-04-04T08:11:14.818Z</time></trkpt><trkpt lat="42.9621533" lon="13.8537217"><ele>190.4</ele><time>2026-04-04T08:11:15.819Z</time></trkpt><trkpt lat="42.9620933" lon="13.8536283"><ele>191.6</ele><time>2026-04-04T08:11:16.819Z</time></trkpt><trkpt lat="42.9620383" lon="13.853555"><ele>192.79999999999998</ele><time>2026-04-04T08:11:17.818Z</time></trkpt><trkpt lat="42.961995" lon="13.8534833"><ele>194.0</ele><time>2026-04-04T08:11:18.818Z</time></trkpt><trkpt lat="42.9619783" lon="13.8533267"><ele>196.39999999999998</ele><time>2026-04-04T08:11:20.819Z</time></trkpt><trkpt lat="42.962005" lon="13.8532417"><ele>198.8</ele><time>2026-04-04T08:11:21.818Z</time></trkpt><trkpt lat="42.9620567" lon="13.85317"><ele>201.2</ele><time>2026-04-04T08:11:22.819Z</time></trkpt><trkpt lat="42.9621383" lon="13.8530967"><ele>203.60000000000002</ele><time>2026-04-04T08:11:23.819Z</time></trkpt><trkpt lat="42.9622333" lon="13.8530067"><ele>206.0</ele><time>2026-04-04T08:11:24.819Z</time></trkpt><trkpt lat="42.9623183" lon="13.8529033"><ele>206.0</ele><time>2026-04-04T08:11:25.819Z</time></trkpt><trkpt lat="42.9623717" lon="13.852785"><ele>206.0</ele><time>2026-04-04T08:11:26.818Z</time></trkpt><trkpt lat="42.9623983" lon="13.8526667"><ele>206.0</ele><time>2026-04-04T08:11:27.819Z</time></trkpt><trkpt lat="42.9624183" lon="13.8525467"><ele>206.0</ele><time>2026-04-04T08:11:28.819Z</time></trkpt><trkpt lat="42.9624417" lon="13.85243"><ele>206.0</ele><time>2026-04-04T08:11:29.818Z</time></trkpt><trkpt lat="42.9624767" lon="13.8523017"><ele>205.20000000000002</ele><time>2026-04-04T08:11:30.818Z</time></trkpt><trkpt lat="42.9625067" lon="13.8521733"><ele>204.4</ele><time>2026-04-04T08:11:31.818Z</time></trkpt><trkpt lat="42.9625317" lon="13.8520483"><ele>203.6</ele><time>2026-04-04T08:11:32.818Z</time></trkpt><trkpt lat="42.96256" lon="13.8519217"><ele>202.8</ele><time>2026-04-04T08:11:33.818Z</time></trkpt><trkpt lat="42.9625833" lon="13.8518083"><ele>202.0</ele><time>2026-04-04T08:11:34.818Z</time></trkpt><trkpt lat="42.9626017" lon="13.8517"><ele>199.83333333333331</ele><time>2026-04-04T08:11:35.819Z</time></trkpt><trkpt lat="42.9626217" lon="13.8515133"><ele>197.66666666666666</ele><time>2026-04-04T08:11:37.818Z</time></trkpt><trkpt lat="42.9626183" lon="13.851405"><ele>195.5</ele><time>2026-04-04T08:11:38.818Z</time></trkpt><trkpt lat="42.9626" lon="13.851315"><ele>193.33333333333331</ele><time>2026-04-04T08:11:39.819Z</time></trkpt><trkpt lat="42.9625883" lon="13.851215"><ele>191.16666666666666</ele><time>2026-04-04T08:11:40.819Z</time></trkpt><trkpt lat="42.9625817" lon="13.851125"><ele>189.0</ele><time>2026-04-04T08:11:41.818Z</time></trkpt><trkpt lat="42.9625883" lon="13.85103"><ele>188.83333333333334</ele><time>2026-04-04T08:11:42.819Z</time></trkpt><trkpt lat="42.96261" lon="13.85093"><ele>188.66666666666666</ele><time>2026-04-04T08:11:43.818Z</time></trkpt><trkpt lat="42.962645" lon="13.8508417"><ele>188.5</ele><time>2026-04-04T08:11:44.819Z</time></trkpt><trkpt lat="42.96269" lon="13.8507483"><ele>188.33333333333331</ele><time>2026-04-04T08:11:45.818Z</time></trkpt><trkpt lat="42.9627383" lon="13.850605"><ele>188.16666666666666</ele><time>2026-04-04T08:11:47.818Z</time></trkpt><trkpt lat="42.962715" lon="13.8504717"><ele>188.0</ele><time>2026-04-04T08:11:49.819Z</time></trkpt><trkpt lat="42.9626767" lon="13.8503183"><ele>188.0</ele><time>2026-04-04T08:11:51.818Z</time></trkpt><trkpt lat="42.962675" lon="13.850155"><ele>188.0</ele><time>2026-04-04T08:11:53.818Z</time></trkpt><trkpt lat="42.9626717" lon="13.8500133"><ele>188.0</ele><time>2026-04-04T08:11:55.818Z</time></trkpt><trkpt lat="42.96265" lon="13.8499183"><ele>188.0</ele><time>2026-04-04T08:11:57.818Z</time></trkpt><trkpt lat="42.9626583" lon="13.849825"><ele>188.0</ele><time>2026-04-04T08:11:59.819Z</time></trkpt><trkpt lat="42.962715" lon="13.8496617"><ele>188.2</ele><time>2026-04-04T08:12:01.819Z</time></trkpt><trkpt lat="42.9627767" lon="13.84955"><ele>188.4</ele><time>2026-04-04T08:12:02.819Z</time></trkpt><trkpt lat="42.96283" lon="13.8494633"><ele>188.6</ele><time>2026-04-04T08:12:03.819Z</time></trkpt><trkpt lat="42.9628617" lon="13.8493783"><ele>188.79999999999998</ele><time>2026-04-04T08:12:04.818Z</time></trkpt><trkpt lat="42.962885" lon="13.8492167"><ele>189.0</ele><time>2026-04-04T08:12:06.818Z</time></trkpt><trkpt lat="42.9628717" lon="13.849035"><ele>189.5</ele><time>2026-04-04T08:12:08.818Z</time></trkpt><trkpt lat="42.9628233" lon="13.84888"><ele>190.0</ele><time>2026-04-04T08:12:10.819Z</time></trkpt><trkpt lat="42.9627817" lon="13.8488117"><ele>190.5</ele><time>2026-04-04T08:12:11.818Z</time></trkpt><trkpt lat="42.9627333" lon="13.84874"><ele>191.0</ele><time>2026-04-04T08:12:12.818Z</time></trkpt><trkpt lat="42.962685" lon="13.8486717"><ele>191.5</ele><time>2026-04-04T08:12:13.818Z</time></trkpt><trkpt lat="42.9626383" lon="13.8486033"><ele>192.0</ele><time>2026-04-04T08:12:14.819Z</time></trkpt><trkpt lat="42.9626117" lon="13.8485183"><ele>192.16666666666666</ele><time>2026-04-04T08:12:15.818Z</time></trkpt><trkpt lat="42.9625733" lon="13.84841"><ele>192.33333333333331</ele><time>2026-04-04T08:12:16.819Z</time></trkpt><trkpt lat="42.9625783" lon="13.84831"><ele>192.5</ele><time>2026-04-04T08:12:17.818Z</time></trkpt><trkpt lat="42.9626" lon="13.8481983"><ele>192.66666666666666</ele><time>2026-04-04T08:12:18.818Z</time></trkpt><trkpt lat="42.9626283" lon="13.8480833"><ele>192.83333333333331</ele><time>2026-04-04T08:12:19.818Z</time></trkpt><trkpt lat="42.96265" lon="13.8479733"><ele>193.0</ele><time>2026-04-04T08:12:20.818Z</time></trkpt><trkpt lat="42.962655" lon="13.84788"><ele>193.0</ele><time>2026-04-04T08:12:21.818Z</time></trkpt><trkpt lat="42.9626417" lon="13.8477933"><ele>193.0</ele><time>2026-04-04T08:12:22.818Z</time></trkpt><trkpt lat="42.96264" lon="13.8476967"><ele>193.0</ele><time>2026-04-04T08:12:23.819Z</time></trkpt><trkpt lat="42.9626367" lon="13.8475383"><ele>193.0</ele><time>2026-04-04T08:12:25.819Z</time></trkpt><trkpt lat="42.9625533" lon="13.847335"><ele>193.0</ele><time>2026-04-04T08:12:28.819Z</time></trkpt><trkpt lat="42.9624917" lon="13.84729"><ele>193.8</ele><time>2026-04-04T08:12:29.818Z</time></trkpt><trkpt lat="42.9624283" lon="13.84724"><ele>194.60000000000002</ele><time>2026-04-04T08:12:30.819Z</time></trkpt><trkpt lat="42.96237" lon="13.84719"><ele>195.39999999999998</ele><time>2026-04-04T08:12:31.818Z</time></trkpt><trkpt lat="42.9623233" lon="13.8470267"><ele>196.2</ele><time>2026-04-04T08:12:33.818Z</time></trkpt><trkpt lat="42.9623567" lon="13.8468833"><ele>197.0</ele><time>2026-04-04T08:12:34.819Z</time></trkpt><trkpt lat="42.9624033" lon="13.8467233"><ele>197.00000000000003</ele><time>2026-04-04T08:12:35.819Z</time></trkpt><trkpt lat="42.962465" lon="13.8465933"><ele>197.0</ele><time>2026-04-04T08:12:36.818Z</time></trkpt><trkpt lat="42.962525" lon="13.846485"><ele>197.0</ele><time>2026-04-04T08:12:37.819Z</time></trkpt><trkpt lat="42.9625633" lon="13.8464167"><ele>197.0</ele><time>2026-04-04T08:12:38.819Z</time></trkpt><trkpt lat="42.9625983" lon="13.8463433"><ele>197.00000000000003</ele><time>2026-04-04T08:12:40.819Z</time></trkpt><trkpt lat="42.9626133" lon="13.846235"><ele>197.0</ele><time>2026-04-04T08:12:43.818Z</time></trkpt><trkpt lat="42.96257" lon="13.8460817"><ele>197.00000000000003</ele><time>2026-04-04T08:12:45.819Z</time></trkpt><trkpt lat="42.9625267" lon="13.8459967"><ele>197.0</ele><time>2026-04-04T08:12:46.818Z</time></trkpt><trkpt lat="42.9624883" lon="13.8459017"><ele>197.0</ele><time>2026-04-04T08:12:47.819Z</time></trkpt><trkpt lat="42.9624617" lon="13.8458017"><ele>197.0</ele><time>2026-04-04T08:12:48.818Z</time></trkpt><trkpt lat="42.9624417" lon="13.8457117"><ele>197.00000000000003</ele><time>2026-04-04T08:12:49.819Z</time></trkpt><trkpt lat="42.9624267" lon="13.8455683"><ele>197.0</ele><time>2026-04-04T08:12:51.818Z</time></trkpt><trkpt lat="42.9624333" lon="13.8454117"><ele>196.16666666666669</ele><time>2026-04-04T08:12:53.818Z</time></trkpt><trkpt lat="42.9624367" lon="13.845315"><ele>195.33333333333334</ele><time>2026-04-04T08:12:54.819Z</time></trkpt><trkpt lat="42.9624417" lon="13.845225"><ele>194.5</ele><time>2026-04-04T08:12:55.818Z</time></trkpt><trkpt lat="42.9624567" lon="13.8450883"><ele>193.66666666666669</ele><time>2026-04-04T08:12:57.818Z</time></trkpt><trkpt lat="42.9624733" lon="13.8449967"><ele>192.83333333333334</ele><time>2026-04-04T08:12:59.819Z</time></trkpt><trkpt lat="42.9625217" lon="13.8449233"><ele>192.0</ele><time>2026-04-04T08:13:02.819Z</time></trkpt><trkpt lat="42.9626167" lon="13.844885"><ele>187.39999999999998</ele><time>2026-04-04T08:13:05.818Z</time></trkpt><trkpt lat="42.9626983" lon="13.8448333"><ele>182.79999999999998</ele><time>2026-04-04T08:13:07.818Z</time></trkpt><trkpt lat="42.9627967" lon="13.8447833"><ele>178.2</ele><time>2026-04-04T08:13:09.818Z</time></trkpt><trkpt lat="42.962935" lon="13.8447333"><ele>173.6</ele><time>2026-04-04T08:13:11.818Z</time></trkpt><trkpt lat="42.963015" lon="13.844705"><ele>169.0</ele><time>2026-04-04T08:13:12.819Z</time></trkpt><trkpt lat="42.9631" lon="13.8446833"><ele>169.0</ele><time>2026-04-04T08:13:13.819Z</time></trkpt><trkpt lat="42.9631817" lon="13.8446633"><ele>169.0</ele><time>2026-04-04T08:13:14.818Z</time></trkpt><trkpt lat="42.9632633" lon="13.8446517"><ele>169.0</ele><time>2026-04-04T08:13:15.819Z</time></trkpt><trkpt lat="42.9633383" lon="13.8446333"><ele>169.0</ele><time>2026-04-04T08:13:16.818Z</time></trkpt><trkpt lat="42.963425" lon="13.8446117"><ele>169.0</ele><time>2026-04-04T08:13:17.819Z</time></trkpt><trkpt lat="42.963515" lon="13.8445917"><ele>169.0</ele><time>2026-04-04T08:13:18.818Z</time></trkpt><trkpt lat="42.963605" lon="13.84457"><ele>168.79999999999998</ele><time>2026-04-04T08:13:19.818Z</time></trkpt><trkpt lat="42.9636983" lon="13.844545"><ele>168.6</ele><time>2026-04-04T08:13:20.819Z</time></trkpt><trkpt lat="42.9637967" lon="13.8445183"><ele>168.4</ele><time>2026-04-04T08:13:21.818Z</time></trkpt><trkpt lat="42.9638983" lon="13.8445"><ele>168.2</ele><time>2026-04-04T08:13:22.819Z</time></trkpt><trkpt lat="42.9639933" lon="13.84448"><ele>168.0</ele><time>2026-04-04T08:13:23.819Z</time></trkpt><trkpt lat="42.9640883" lon="13.844455"><ele>168.0</ele><time>2026-04-04T08:13:24.818Z</time></trkpt><trkpt lat="42.96419" lon="13.8444283"><ele>168.0</ele><time>2026-04-04T08:13:25.818Z</time></trkpt><trkpt lat="42.964285" lon="13.844405"><ele>168.0</ele><time>2026-04-04T08:13:26.819Z</time></trkpt><trkpt lat="42.9643783" lon="13.844385"><ele>168.0</ele><time>2026-04-04T08:13:27.819Z</time></trkpt><trkpt lat="42.96447" lon="13.8443567"><ele>168.0</ele><time>2026-04-04T08:13:28.818Z</time></trkpt><trkpt lat="42.9645467" lon="13.8443217"><ele>172.0</ele><time>2026-04-04T08:13:29.818Z</time></trkpt><trkpt lat="42.964605" lon="13.8442883"><ele>176.0</ele><time>2026-04-04T08:13:30.818Z</time></trkpt><trkpt lat="42.9646633" lon="13.8442267"><ele>180.0</ele><time>2026-04-04T08:13:32.818Z</time></trkpt><trkpt lat="42.9646917" lon="13.8440667"><ele>184.0</ele><time>2026-04-04T08:13:34.818Z</time></trkpt><trkpt lat="42.9646833" lon="13.8439567"><ele>188.0</ele><time>2026-04-04T08:13:35.819Z</time></trkpt><trkpt lat="42.9646617" lon="13.8438283"><ele>192.0</ele><time>2026-04-04T08:13:36.818Z</time></trkpt><trkpt lat="42.9646433" lon="13.843675"><ele>192.0</ele><time>2026-04-04T08:13:37.818Z</time></trkpt><trkpt lat="42.9646333" lon="13.84351"><ele>192.0</ele><time>2026-04-04T08:13:38.818Z</time></trkpt><trkpt lat="42.964625" lon="13.84335"><ele>192.0</ele><time>2026-04-04T08:13:39.819Z</time></trkpt><trkpt lat="42.9646117" lon="13.8431817"><ele>192.0</ele><time>2026-04-04T08:13:40.819Z</time></trkpt><trkpt lat="42.9646" lon="13.843005"><ele>195.0</ele><time>2026-04-04T08:13:41.819Z</time></trkpt><trkpt lat="42.9645817" lon="13.8428367"><ele>198.0</ele><time>2026-04-04T08:13:42.819Z</time></trkpt><trkpt lat="42.964545" lon="13.84267"><ele>201.0</ele><time>2026-04-04T08:13:43.819Z</time></trkpt><trkpt lat="42.9645117" lon="13.8424967"><ele>204.0</ele><time>2026-04-04T08:13:44.818Z</time></trkpt><trkpt lat="42.96449" lon="13.84234"><ele>207.25</ele><time>2026-04-04T08:13:45.818Z</time></trkpt><trkpt lat="42.9644817" lon="13.8421983"><ele>210.5</ele><time>2026-04-04T08:13:46.818Z</time></trkpt><trkpt lat="42.9644833" lon="13.842045"><ele>213.75</ele><time>2026-04-04T08:13:47.818Z</time></trkpt><trkpt lat="42.9644933" lon="13.841875"><ele>217.0</ele><time>2026-04-04T08:13:48.818Z</time></trkpt><trkpt lat="42.964505" lon="13.8417117"><ele>218.39999999999998</ele><time>2026-04-04T08:13:49.819Z</time></trkpt><trkpt lat="42.964525" lon="13.841545"><ele>219.79999999999998</ele><time>2026-04-04T08:13:50.819Z</time></trkpt><trkpt lat="42.9645317" lon="13.8413817"><ele>221.2</ele><time>2026-04-04T08:13:51.818Z</time></trkpt><trkpt lat="42.9645433" lon="13.8412333"><ele>222.6</ele><time>2026-04-04T08:13:52.818Z</time></trkpt><trkpt lat="42.9645517" lon="13.8411017"><ele>224.0</ele><time>2026-04-04T08:13:53.818Z</time></trkpt><trkpt lat="42.964555" lon="13.8410117"><ele>224.0</ele><time>2026-04-04T08:13:54.818Z</time></trkpt><trkpt lat="42.964595" lon="13.840885"><ele>223.99999999999997</ele><time>2026-04-04T08:13:56.819Z</time></trkpt><trkpt lat="42.9646883" lon="13.8409217"><ele>223.99999999999997</ele><time>2026-04-04T08:13:59.819Z</time></trkpt><trkpt lat="42.9647617" lon="13.8410633"><ele>224.0</ele><time>2026-04-04T08:14:01.819Z</time></trkpt><trkpt lat="42.964795" lon="13.8411567"><ele>224.0</ele><time>2026-04-04T08:14:02.818Z</time></trkpt><trkpt lat="42.96484" lon="13.8412667"><ele>224.0</ele><time>2026-04-04T08:14:03.818Z</time></trkpt><trkpt lat="42.964895" lon="13.8413817"><ele>223.99999999999997</ele><time>2026-04-04T08:14:04.818Z</time></trkpt><trkpt lat="42.9649617" lon="13.8414883"><ele>223.99999999999997</ele><time>2026-04-04T08:14:05.818Z</time></trkpt><trkpt lat="42.9650367" lon="13.8415817"><ele>224.0</ele><time>2026-04-04T08:14:06.819Z</time></trkpt><trkpt lat="42.9651" lon="13.84167"><ele>224.0</ele><time>2026-04-04T08:14:07.818Z</time></trkpt><trkpt lat="42.9651367" lon="13.8417683"><ele>225.2</ele><time>2026-04-04T08:14:08.818Z</time></trkpt><trkpt lat="42.965155" lon="13.841885"><ele>226.39999999999998</ele><time>2026-04-04T08:14:09.819Z</time></trkpt><trkpt lat="42.96517" lon="13.8420233"><ele>227.6</ele><time>2026-04-04T08:14:10.819Z</time></trkpt><trkpt lat="42.96519" lon="13.842145"><ele>228.8</ele><time>2026-04-04T08:14:11.819Z</time></trkpt><trkpt lat="42.9652317" lon="13.8422333"><ele>230.0</ele><time>2026-04-04T08:14:12.819Z</time></trkpt><trkpt lat="42.9653033" lon="13.8423117"><ele>230.00000000000003</ele><time>2026-04-04T08:14:13.818Z</time></trkpt><trkpt lat="42.96538" lon="13.8423567"><ele>230.0</ele><time>2026-04-04T08:14:14.819Z</time></trkpt><trkpt lat="42.965465" lon="13.8423767"><ele>230.0</ele><time>2026-04-04T08:14:15.819Z</time></trkpt><trkpt lat="42.9655483" lon="13.8423767"><ele>230.0</ele><time>2026-04-04T08:14:16.818Z</time></trkpt><trkpt lat="42.9656283" lon="13.84236"><ele>230.00000000000003</ele><time>2026-04-04T08:14:17.818Z</time></trkpt><trkpt lat="42.9656883" lon="13.8423133"><ele>230.0</ele><time>2026-04-04T08:14:18.818Z</time></trkpt><trkpt lat="42.9657267" lon="13.8421733"><ele>230.00000000000003</ele><time>2026-04-04T08:14:20.819Z</time></trkpt><trkpt lat="42.9657083" lon="13.8420717"><ele>230.0</ele><time>2026-04-04T08:14:21.818Z</time></trkpt><trkpt lat="42.96568" lon="13.8419583"><ele>230.0</ele><time>2026-04-04T08:14:22.819Z</time></trkpt><trkpt lat="42.9656533" lon="13.841835"><ele>230.0</ele><time>2026-04-04T08:14:23.819Z</time></trkpt><trkpt lat="42.965635" lon="13.841715"><ele>230.00000000000003</ele><time>2026-04-04T08:14:24.819Z</time></trkpt><trkpt lat="42.965615" lon="13.8415883"><ele>230.0</ele><time>2026-04-04T08:14:25.818Z</time></trkpt><trkpt lat="42.965605" lon="13.8414467"><ele>231.0</ele><time>2026-04-04T08:14:26.818Z</time></trkpt><trkpt lat="42.965605" lon="13.8413083"><ele>232.0</ele><time>2026-04-04T08:14:27.818Z</time></trkpt><trkpt lat="42.96561" lon="13.84116"><ele>233.0</ele><time>2026-04-04T08:14:28.819Z</time></trkpt><trkpt lat="42.9656233" lon="13.8409967"><ele>234.0</ele><time>2026-04-04T08:14:29.818Z</time></trkpt><trkpt lat="42.9656517" lon="13.840815"><ele>235.33333333333331</ele><time>2026-04-04T08:14:30.819Z</time></trkpt><trkpt lat="42.9657083" lon="13.8406167"><ele>236.66666666666666</ele><time>2026-04-04T08:14:31.819Z</time></trkpt><trkpt lat="42.9657717" lon="13.8403983"><ele>238.0</ele><time>2026-04-04T08:14:32.818Z</time></trkpt><trkpt lat="42.9658267" lon="13.8402167"><ele>240.25</ele><time>2026-04-04T08:14:33.819Z</time></trkpt><trkpt lat="42.965865" lon="13.84005"><ele>242.5</ele><time>2026-04-04T08:14:34.818Z</time></trkpt><trkpt lat="42.9658983" lon="13.839885"><ele>244.75</ele><time>2026-04-04T08:14:35.818Z</time></trkpt><trkpt lat="42.9659233" lon="13.8397317"><ele>247.0</ele><time>2026-04-04T08:14:36.819Z</time></trkpt><trkpt lat="42.9659417" lon="13.8396083"><ele>246.99999999999997</ele><time>2026-04-04T08:14:37.818Z</time></trkpt><trkpt lat="42.96595" lon="13.8394983"><ele>247.0</ele><time>2026-04-04T08:14:38.819Z</time></trkpt><trkpt lat="42.96597" lon="13.8394067"><ele>247.0</ele><time>2026-04-04T08:14:39.818Z</time></trkpt><trkpt lat="42.9660367" lon="13.8393283"><ele>247.0</ele><time>2026-04-04T08:14:41.818Z</time></trkpt><trkpt lat="42.96612" lon="13.8393817"><ele>246.99999999999997</ele><time>2026-04-04T08:14:43.819Z</time></trkpt><trkpt lat="42.966205" lon="13.83948"><ele>247.0</ele><time>2026-04-04T08:14:45.818Z</time></trkpt><trkpt lat="42.966265" lon="13.8395333"><ele>246.99999999999997</ele><time>2026-04-04T08:14:46.818Z</time></trkpt><trkpt lat="42.9663317" lon="13.8395867"><ele>247.0</ele><time>2026-04-04T08:14:47.819Z</time></trkpt><trkpt lat="42.9663983" lon="13.8396533"><ele>247.0</ele><time>2026-04-04T08:14:48.819Z</time></trkpt><trkpt lat="42.9664633" lon="13.8397083"><ele>247.0</ele><time>2026-04-04T08:14:49.818Z</time></trkpt><trkpt lat="42.9665233" lon="13.8397667"><ele>246.99999999999997</ele><time>2026-04-04T08:14:50.818Z</time></trkpt><trkpt lat="42.9665883" lon="13.839825"><ele>247.0</ele><time>2026-04-04T08:14:51.818Z</time></trkpt><trkpt lat="42.9666433" lon="13.8398767"><ele>245.83333333333331</ele><time>2026-04-04T08:14:52.819Z</time></trkpt><trkpt lat="42.96674" lon="13.8399767"><ele>244.66666666666666</ele><time>2026-04-04T08:14:54.818Z</time></trkpt><trkpt lat="42.9668267" lon="13.8400633"><ele>243.5</ele><time>2026-04-04T08:14:56.819Z</time></trkpt><trkpt lat="42.9668817" lon="13.8401117"><ele>242.33333333333331</ele><time>2026-04-04T08:14:57.818Z</time></trkpt><trkpt lat="42.966935" lon="13.8401667"><ele>241.16666666666666</ele><time>2026-04-04T08:14:58.818Z</time></trkpt><trkpt lat="42.9669933" lon="13.8402283"><ele>240.0</ele><time>2026-04-04T08:14:59.818Z</time></trkpt><trkpt lat="42.9670583" lon="13.8402817"><ele>240.0</ele><time>2026-04-04T08:15:00.818Z</time></trkpt><trkpt lat="42.9671117" lon="13.8403367"><ele>240.0</ele><time>2026-04-04T08:15:01.818Z</time></trkpt><trkpt lat="42.96717" lon="13.84038"><ele>240.0</ele><time>2026-04-04T08:15:02.818Z</time></trkpt><trkpt lat="42.9672717" lon="13.840425"><ele>240.0</ele><time>2026-04-04T08:15:04.818Z</time></trkpt><trkpt lat="42.9673467" lon="13.8403483"><ele>240.0</ele><time>2026-04-04T08:15:06.818Z</time></trkpt><trkpt lat="42.9674" lon="13.840205"><ele>240.0</ele><time>2026-04-04T08:15:08.818Z</time></trkpt><trkpt lat="42.96746" lon="13.8400283"><ele>240.0</ele><time>2026-04-04T08:15:10.818Z</time></trkpt><trkpt lat="42.9674917" lon="13.8399183"><ele>240.0</ele><time>2026-04-04T08:15:11.819Z</time></trkpt><trkpt lat="42.96752" lon="13.8397983"><ele>240.0</ele><time>2026-04-04T08:15:12.819Z</time></trkpt><trkpt lat="42.96753" lon="13.8396883"><ele>240.0</ele><time>2026-04-04T08:15:13.818Z</time></trkpt><trkpt lat="42.9675417" lon="13.8395717"><ele>237.0</ele><time>2026-04-04T08:15:14.818Z</time></trkpt><trkpt lat="42.9675567" lon="13.839465"><ele>234.0</ele><time>2026-04-04T08:15:15.818Z</time></trkpt><trkpt lat="42.96757" lon="13.8392983"><ele>231.0</ele><time>2026-04-04T08:15:17.819Z</time></trkpt><trkpt lat="42.9676033" lon="13.83913"><ele>228.0</ele><time>2026-04-04T08:15:19.819Z</time></trkpt><trkpt lat="42.96763" lon="13.8390433"><ele>225.0</ele><time>2026-04-04T08:15:20.818Z</time></trkpt><trkpt lat="42.9676467" lon="13.8389417"><ele>223.8</ele><time>2026-04-04T08:15:21.818Z</time></trkpt><trkpt lat="42.967655" lon="13.83882"><ele>222.6</ele><time>2026-04-04T08:15:22.819Z</time></trkpt><trkpt lat="42.9676433" lon="13.83868"><ele>221.39999999999998</ele><time>2026-04-04T08:15:23.819Z</time></trkpt><trkpt lat="42.96762" lon="13.8385433"><ele>220.2</ele><time>2026-04-04T08:15:24.818Z</time></trkpt><trkpt lat="42.9675817" lon="13.8383933"><ele>219.0</ele><time>2026-04-04T08:15:25.818Z</time></trkpt><trkpt lat="42.967535" lon="13.8382383"><ele>221.5</ele><time>2026-04-04T08:15:26.819Z</time></trkpt><trkpt lat="42.9674833" lon="13.838065"><ele>224.0</ele><time>2026-04-04T08:15:27.818Z</time></trkpt><trkpt lat="42.967425" lon="13.837905"><ele>226.5</ele><time>2026-04-04T08:15:28.819Z</time></trkpt><trkpt lat="42.9673667" lon="13.8377567"><ele>229.0</ele><time>2026-04-04T08:15:29.819Z</time></trkpt><trkpt lat="42.96733" lon="13.83762"><ele>229.0</ele><time>2026-04-04T08:15:30.818Z</time></trkpt><trkpt lat="42.9672933" lon="13.8375017"><ele>228.99999999999997</ele><time>2026-04-04T08:15:31.818Z</time></trkpt><trkpt lat="42.96726" lon="13.8373917"><ele>228.99999999999997</ele><time>2026-04-04T08:15:32.818Z</time></trkpt><trkpt lat="42.9672283" lon="13.8372767"><ele>229.0</ele><time>2026-04-04T08:15:33.818Z</time></trkpt><trkpt lat="42.967185" lon="13.83716"><ele>229.0</ele><time>2026-04-04T08:15:34.818Z</time></trkpt><trkpt lat="42.9671367" lon="13.83704"><ele>229.0</ele><time>2026-04-04T08:15:35.819Z</time></trkpt><trkpt lat="42.967105" lon="13.8369317"><ele>228.99999999999997</ele><time>2026-04-04T08:15:36.818Z</time></trkpt><trkpt lat="42.9670717" lon="13.8368"><ele>228.99999999999997</ele><time>2026-04-04T08:15:37.819Z</time></trkpt><trkpt lat="42.96704" lon="13.8366733"><ele>229.0</ele><time>2026-04-04T08:15:38.818Z</time></trkpt><trkpt lat="42.967015" lon="13.836555"><ele>229.0</ele><time>2026-04-04T08:15:39.818Z</time></trkpt><trkpt lat="42.9669883" lon="13.83643"><ele>229.33333333333331</ele><time>2026-04-04T08:15:40.818Z</time></trkpt><trkpt lat="42.9669633" lon="13.836315"><ele>229.66666666666666</ele><time>2026-04-04T08:15:41.818Z</time></trkpt><trkpt lat="42.9669517" lon="13.8361983"><ele>230.0</ele><time>2026-04-04T08:15:42.818Z</time></trkpt><trkpt lat="42.966935" lon="13.8360933"><ele>230.33333333333331</ele><time>2026-04-04T08:15:43.818Z</time></trkpt><trkpt lat="42.9669217" lon="13.8359733"><ele>230.66666666666666</ele><time>2026-04-04T08:15:44.819Z</time></trkpt><trkpt lat="42.9668983" lon="13.83586"><ele>231.0</ele><time>2026-04-04T08:15:45.818Z</time></trkpt><trkpt lat="42.9668833" lon="13.8357383"><ele>231.8</ele><time>2026-04-04T08:15:46.818Z</time></trkpt><trkpt lat="42.96688" lon="13.8356167"><ele>232.60000000000002</ele><time>2026-04-04T08:15:47.818Z</time></trkpt><trkpt lat="42.9668867" lon="13.8354933"><ele>233.4</ele><time>2026-04-04T08:15:48.818Z</time></trkpt><trkpt lat="42.9669083" lon="13.8353533"><ele>234.2</ele><time>2026-04-04T08:15:49.818Z</time></trkpt><trkpt lat="42.96693" lon="13.8352133"><ele>235.0</ele><time>2026-04-04T08:15:50.818Z</time></trkpt><trkpt lat="42.9669567" lon="13.8350733"><ele>235.75</ele><time>2026-04-04T08:15:51.818Z</time></trkpt><trkpt lat="42.9669783" lon="13.8349333"><ele>236.5</ele><time>2026-04-04T08:15:52.819Z</time></trkpt><trkpt lat="42.966995" lon="13.8347783"><ele>237.25</ele><time>2026-04-04T08:15:53.818Z</time></trkpt><trkpt lat="42.9670117" lon="13.8346183"><ele>238.0</ele><time>2026-04-04T08:15:54.819Z</time></trkpt><trkpt lat="42.9670317" lon="13.8344633"><ele>238.0</ele><time>2026-04-04T08:15:55.818Z</time></trkpt><trkpt lat="42.9670517" lon="13.8343083"><ele>238.0</ele><time>2026-04-04T08:15:56.819Z</time></trkpt><trkpt lat="42.967065" lon="13.8341517"><ele>238.0</ele><time>2026-04-04T08:15:57.819Z</time></trkpt><trkpt lat="42.9670783" lon="13.8340033"><ele>238.0</ele><time>2026-04-04T08:15:58.819Z</time></trkpt><trkpt lat="42.9670917" lon="13.8338433"><ele>238.75</ele><time>2026-04-04T08:15:59.818Z</time></trkpt><trkpt lat="42.9671083" lon="13.8336833"><ele>239.5</ele><time>2026-04-04T08:16:00.819Z</time></trkpt><trkpt lat="42.96712" lon="13.83352"><ele>240.25</ele><time>2026-04-04T08:16:01.819Z</time></trkpt><trkpt lat="42.9671333" lon="13.8333633"><ele>241.0</ele><time>2026-04-04T08:16:02.818Z</time></trkpt><trkpt lat="42.9671417" lon="13.833205"><ele>242.0</ele><time>2026-04-04T08:16:03.819Z</time></trkpt><trkpt lat="42.9671617" lon="13.8330567"><ele>243.0</ele><time>2026-04-04T08:16:04.818Z</time></trkpt><trkpt lat="42.9671717" lon="13.8329017"><ele>244.0</ele><time>2026-04-04T08:16:05.819Z</time></trkpt><trkpt lat="42.9671883" lon="13.8327383"><ele>245.0</ele><time>2026-04-04T08:16:06.819Z</time></trkpt><trkpt lat="42.9672117" lon="13.8325717"><ele>247.5</ele><time>2026-04-04T08:16:07.818Z</time></trkpt><trkpt lat="42.9672467" lon="13.832405"><ele>250.0</ele><time>2026-04-04T08:16:08.819Z</time></trkpt><trkpt lat="42.967295" lon="13.8322383"><ele>252.5</ele><time>2026-04-04T08:16:09.819Z</time></trkpt><trkpt lat="42.9673433" lon="13.8320667"><ele>255.0</ele><time>2026-04-04T08:16:10.818Z</time></trkpt><trkpt lat="42.96739" lon="13.83189"><ele>255.0</ele><time>2026-04-04T08:16:11.818Z</time></trkpt><trkpt lat="42.96744" lon="13.8317067"><ele>255.0</ele><time>2026-04-04T08:16:12.818Z</time></trkpt><trkpt lat="42.9674883" lon="13.8315117"><ele>255.0</ele><time>2026-04-04T08:16:13.819Z</time></trkpt><trkpt lat="42.9675317" lon="13.8313183"><ele>255.0</ele><time>2026-04-04T08:16:14.818Z</time></trkpt><trkpt lat="42.96758" lon="13.83113"><ele>257.75</ele><time>2026-04-04T08:16:15.818Z</time></trkpt><trkpt lat="42.9676183" lon="13.8309333"><ele>260.5</ele><time>2026-04-04T08:16:16.819Z</time></trkpt><trkpt lat="42.9676617" lon="13.8307517"><ele>263.25</ele><time>2026-04-04T08:16:17.819Z</time></trkpt><trkpt lat="42.9676933" lon="13.8305883"><ele>266.0</ele><time>2026-04-04T08:16:18.818Z</time></trkpt><trkpt lat="42.9677283" lon="13.83043"><ele>266.0</ele><time>2026-04-04T08:16:19.818Z</time></trkpt><trkpt lat="42.9677633" lon="13.8302933"><ele>266.0</ele><time>2026-04-04T08:16:20.819Z</time></trkpt><trkpt lat="42.9677883" lon="13.8301683"><ele>266.0</ele><time>2026-04-04T08:16:21.819Z</time></trkpt><trkpt lat="42.9678283" lon="13.8300467"><ele>266.0</ele><time>2026-04-04T08:16:22.819Z</time></trkpt><trkpt lat="42.9678683" lon="13.8299167"><ele>266.0</ele><time>2026-04-04T08:16:23.819Z</time></trkpt><trkpt lat="42.96793" lon="13.8297867"><ele>268.75</ele><time>2026-04-04T08:16:24.818Z</time></trkpt><trkpt lat="42.96798" lon="13.82964"><ele>271.5</ele><time>2026-04-04T08:16:25.818Z</time></trkpt><trkpt lat="42.9680283" lon="13.82949"><ele>274.25</ele><time>2026-04-04T08:16:26.819Z</time></trkpt><trkpt lat="42.9680733" lon="13.82934"><ele>277.0</ele><time>2026-04-04T08:16:27.818Z</time></trkpt><trkpt lat="42.968115" lon="13.82921"><ele>278.0</ele><time>2026-04-04T08:16:28.819Z</time></trkpt><trkpt lat="42.968155" lon="13.82907"><ele>279.0</ele><time>2026-04-04T08:16:29.818Z</time></trkpt><trkpt lat="42.9681917" lon="13.828925"><ele>280.0</ele><time>2026-04-04T08:16:30.818Z</time></trkpt><trkpt lat="42.9682267" lon="13.8287717"><ele>281.0</ele><time>2026-04-04T08:16:31.819Z</time></trkpt><trkpt lat="42.9682567" lon="13.82861"><ele>281.5</ele><time>2026-04-04T08:16:32.818Z</time></trkpt><trkpt lat="42.96828" lon="13.8284567"><ele>282.0</ele><time>2026-04-04T08:16:33.818Z</time></trkpt><trkpt lat="42.9683" lon="13.8283"><ele>282.5</ele><time>2026-04-04T08:16:34.819Z</time></trkpt><trkpt lat="42.968325" lon="13.8281367"><ele>283.0</ele><time>2026-04-04T08:16:35.818Z</time></trkpt><trkpt lat="42.96836" lon="13.827975"><ele>279.8</ele><time>2026-04-04T08:16:36.818Z</time></trkpt><trkpt lat="42.9683933" lon="13.8278217"><ele>276.6</ele><time>2026-04-04T08:16:37.818Z</time></trkpt><trkpt lat="42.968425" lon="13.8276817"><ele>273.4</ele><time>2026-04-04T08:16:38.818Z</time></trkpt><trkpt lat="42.9684517" lon="13.8275517"><ele>270.2</ele><time>2026-04-04T08:16:39.818Z</time></trkpt><trkpt lat="42.968465" lon="13.8274233"><ele>267.0</ele><time>2026-04-04T08:16:40.819Z</time></trkpt><trkpt lat="42.968465" lon="13.8272683"><ele>265.75</ele><time>2026-04-04T08:16:41.818Z</time></trkpt><trkpt lat="42.96845" lon="13.8271067"><ele>264.5</ele><time>2026-04-04T08:16:42.818Z</time></trkpt><trkpt lat="42.9684233" lon="13.8269517"><ele>263.25</ele><time>2026-04-04T08:16:43.818Z</time></trkpt><trkpt lat="42.9683817" lon="13.8267783"><ele>262.0</ele><time>2026-04-04T08:16:44.818Z</time></trkpt><trkpt lat="42.9683367" lon="13.826615"><ele>265.75</ele><time>2026-04-04T08:16:45.818Z</time></trkpt><trkpt lat="42.9682933" lon="13.8264733"><ele>269.5</ele><time>2026-04-04T08:16:46.819Z</time></trkpt><trkpt lat="42.9682267" lon="13.82634"><ele>273.25</ele><time>2026-04-04T08:16:47.818Z</time></trkpt><trkpt lat="42.96815" lon="13.82623"><ele>277.0</ele><time>2026-04-04T08:16:48.819Z</time></trkpt><trkpt lat="42.96806" lon="13.8261433"><ele>277.0</ele><time>2026-04-04T08:16:49.818Z</time></trkpt><trkpt lat="42.9679767" lon="13.8260567"><ele>277.0</ele><time>2026-04-04T08:16:50.818Z</time></trkpt><trkpt lat="42.9678867" lon="13.82597"><ele>277.0</ele><time>2026-04-04T08:16:51.818Z</time></trkpt><trkpt lat="42.9678117" lon="13.8258933"><ele>277.0</ele><time>2026-04-04T08:16:52.818Z</time></trkpt><trkpt lat="42.9677533" lon="13.825805"><ele>277.0</ele><time>2026-04-04T08:16:53.819Z</time></trkpt><trkpt lat="42.9677033" lon="13.8257033"><ele>278.8</ele><time>2026-04-04T08:16:54.818Z</time></trkpt><trkpt lat="42.9676883" lon="13.8255767"><ele>280.6</ele><time>2026-04-04T08:16:55.818Z</time></trkpt><trkpt lat="42.9676883" lon="13.8254433"><ele>282.40000000000003</ele><time>2026-04-04T08:16:56.818Z</time></trkpt><trkpt lat="42.9677017" lon="13.82531"><ele>284.2</ele><time>2026-04-04T08:16:57.818Z</time></trkpt><trkpt lat="42.96772" lon="13.8251733"><ele>286.0</ele><time>2026-04-04T08:16:58.819Z</time></trkpt><trkpt lat="42.967745" lon="13.82502"><ele>287.75</ele><time>2026-04-04T08:16:59.818Z</time></trkpt><trkpt lat="42.96778" lon="13.8248717"><ele>289.5</ele><time>2026-04-04T08:17:00.818Z</time></trkpt><trkpt lat="42.9678283" lon="13.8247267"><ele>291.25</ele><time>2026-04-04T08:17:01.818Z</time></trkpt><trkpt lat="42.9678833" lon="13.8245883"><ele>293.0</ele><time>2026-04-04T08:17:02.818Z</time></trkpt><trkpt lat="42.96795" lon="13.8244517"><ele>293.0</ele><time>2026-04-04T08:17:03.819Z</time></trkpt><trkpt lat="42.9680233" lon="13.824315"><ele>293.0</ele><time>2026-04-04T08:17:04.818Z</time></trkpt><trkpt lat="42.9680983" lon="13.82417"><ele>293.0</ele><time>2026-04-04T08:17:05.819Z</time></trkpt><trkpt lat="42.9681833" lon="13.824035"><ele>293.0</ele><time>2026-04-04T08:17:06.818Z</time></trkpt><trkpt lat="42.9682667" lon="13.82388"><ele>292.5</ele><time>2026-04-04T08:17:07.819Z</time></trkpt><trkpt lat="42.9683517" lon="13.8237267"><ele>292.0</ele><time>2026-04-04T08:17:08.819Z</time></trkpt><trkpt lat="42.96843" lon="13.823585"><ele>291.5</ele><time>2026-04-04T08:17:09.818Z</time></trkpt><trkpt lat="42.9685" lon="13.823455"><ele>291.0</ele><time>2026-04-04T08:17:10.818Z</time></trkpt><trkpt lat="42.968565" lon="13.8233317"><ele>290.40000000000003</ele><time>2026-04-04T08:17:11.818Z</time></trkpt><trkpt lat="42.96862" lon="13.8232133"><ele>289.8</ele><time>2026-04-04T08:17:12.818Z</time></trkpt><trkpt lat="42.9686783" lon="13.8230983"><ele>289.20000000000005</ele><time>2026-04-04T08:17:13.819Z</time></trkpt><trkpt lat="42.9687367" lon="13.8229733"><ele>288.6</ele><time>2026-04-04T08:17:14.818Z</time></trkpt><trkpt lat="42.96879" lon="13.822845"><ele>288.0</ele><time>2026-04-04T08:17:15.819Z</time></trkpt><trkpt lat="42.9688433" lon="13.8227183"><ele>288.2</ele><time>2026-04-04T08:17:16.819Z</time></trkpt><trkpt lat="42.96889" lon="13.8226233"><ele>288.4</ele><time>2026-04-04T08:17:17.818Z</time></trkpt><trkpt lat="42.9689433" lon="13.82251"><ele>288.59999999999997</ele><time>2026-04-04T08:17:19.818Z</time></trkpt><trkpt lat="42.9689883" lon="13.8224233"><ele>288.8</ele><time>2026-04-04T08:17:22.818Z</time></trkpt><trkpt lat="42.969035" lon="13.82233"><ele>289.0</ele><time>2026-04-04T08:17:24.818Z</time></trkpt><trkpt lat="42.9691017" lon="13.8222017"><ele>289.0</ele><time>2026-04-04T08:17:26.818Z</time></trkpt><trkpt lat="42.96913" lon="13.822115"><ele>289.0</ele><time>2026-04-04T08:17:27.818Z</time></trkpt><trkpt lat="42.9691483" lon="13.82201"><ele>289.0</ele><time>2026-04-04T08:17:28.818Z</time></trkpt><trkpt lat="42.9691533" lon="13.8218983"><ele>289.0</ele><time>2026-04-04T08:17:29.818Z</time></trkpt><trkpt lat="42.9691583" lon="13.8217833"><ele>289.0</ele><time>2026-04-04T08:17:30.818Z</time></trkpt><trkpt lat="42.9691617" lon="13.8216617"><ele>289.0</ele><time>2026-04-04T08:17:31.818Z</time></trkpt><trkpt lat="42.96917" lon="13.8215283"><ele>289.0</ele><time>2026-04-04T08:17:32.819Z</time></trkpt><trkpt lat="42.96919" lon="13.8213833"><ele>289.0</ele><time>2026-04-04T08:17:33.818Z</time></trkpt><trkpt lat="42.9691967" lon="13.8212633"><ele>289.0</ele><time>2026-04-04T08:17:34.818Z</time></trkpt><trkpt lat="42.9692067" lon="13.821155"><ele>289.0</ele><time>2026-04-04T08:17:35.818Z</time></trkpt><trkpt lat="42.96922" lon="13.821045"><ele>289.0</ele><time>2026-04-04T08:17:36.819Z</time></trkpt><trkpt lat="42.9692267" lon="13.8209517"><ele>289.0</ele><time>2026-04-04T08:17:37.819Z</time></trkpt><trkpt lat="42.9692417" lon="13.8208267"><ele>287.8333333333333</ele><time>2026-04-04T08:17:39.818Z</time></trkpt><trkpt lat="42.96928" lon="13.82075"><ele>286.66666666666663</ele><time>2026-04-04T08:17:41.818Z</time></trkpt><trkpt lat="42.9693483" lon="13.8207233"><ele>285.5</ele><time>2026-04-04T08:17:43.818Z</time></trkpt><trkpt lat="42.9694633" lon="13.8207433"><ele>284.3333333333333</ele><time>2026-04-04T08:17:45.818Z</time></trkpt><trkpt lat="42.9695333" lon="13.82076"><ele>283.1666666666667</ele><time>2026-04-04T08:17:46.819Z</time></trkpt><trkpt lat="42.9696017" lon="13.82077"><ele>282.0</ele><time>2026-04-04T08:17:47.819Z</time></trkpt><trkpt lat="42.9696683" lon="13.82077"><ele>282.0</ele><time>2026-04-04T08:17:48.819Z</time></trkpt><trkpt lat="42.9697333" lon="13.8207533"><ele>282.0</ele><time>2026-04-04T08:17:49.818Z</time></trkpt><trkpt lat="42.9698" lon="13.8207283"><ele>282.0</ele><time>2026-04-04T08:17:50.818Z</time></trkpt><trkpt lat="42.96986" lon="13.8206883"><ele>282.0</ele><time>2026-04-04T08:17:51.818Z</time></trkpt><trkpt lat="42.9699533" lon="13.8206083"><ele>282.0</ele><time>2026-04-04T08:17:53.818Z</time></trkpt><trkpt lat="42.9700283" lon="13.8205217"><ele>282.0</ele><time>2026-04-04T08:17:55.819Z</time></trkpt><trkpt lat="42.9700967" lon="13.8204367"><ele>279.1666666666667</ele><time>2026-04-04T08:17:57.819Z</time></trkpt><trkpt lat="42.9701617" lon="13.8203533"><ele>276.3333333333333</ele><time>2026-04-04T08:17:59.818Z</time></trkpt><trkpt lat="42.97024" lon="13.8202467"><ele>273.5</ele><time>2026-04-04T08:18:01.818Z</time></trkpt><trkpt lat="42.9702967" lon="13.8201617"><ele>270.66666666666663</ele><time>2026-04-04T08:18:03.818Z</time></trkpt><trkpt lat="42.97034" lon="13.8200817"><ele>267.8333333333333</ele><time>2026-04-04T08:18:05.818Z</time></trkpt><trkpt lat="42.970395" lon="13.82002"><ele>265.0</ele><time>2026-04-04T08:18:07.818Z</time></trkpt><trkpt lat="42.970455" lon="13.8199583"><ele>265.0</ele><time>2026-04-04T08:18:09.817Z</time></trkpt><trkpt lat="42.9705217" lon="13.8198867"><ele>265.0</ele><time>2026-04-04T08:18:11.817Z</time></trkpt><trkpt lat="42.9705817" lon="13.81983"><ele>265.0</ele><time>2026-04-04T08:18:13.817Z</time></trkpt><trkpt lat="42.9706567" lon="13.819765"><ele>265.0</ele><time>2026-04-04T08:18:15.818Z</time></trkpt><trkpt lat="42.970755" lon="13.81969"><ele>265.0</ele><time>2026-04-04T08:18:17.818Z</time></trkpt><trkpt lat="42.9708683" lon="13.8196633"><ele>261.0</ele><time>2026-04-04T08:18:19.818Z</time></trkpt><trkpt lat="42.9709667" lon="13.8196233"><ele>257.0</ele><time>2026-04-04T08:18:21.817Z</time></trkpt><trkpt lat="42.971055" lon="13.819595"><ele>253.0</ele><time>2026-04-04T08:18:24.817Z</time></trkpt><trkpt lat="42.9711383" lon="13.8195367"><ele>249.0</ele><time>2026-04-04T08:18:27.818Z</time></trkpt><trkpt lat="42.9711817" lon="13.819445"><ele>245.0</ele><time>2026-04-04T08:18:29.817Z</time></trkpt><trkpt lat="42.9712167" lon="13.8193133"><ele>245.00000000000003</ele><time>2026-04-04T08:18:31.817Z</time></trkpt><trkpt lat="42.97124" lon="13.8191683"><ele>245.0</ele><time>2026-04-04T08:18:33.818Z</time></trkpt><trkpt lat="42.971245" lon="13.8190817"><ele>245.0</ele><time>2026-04-04T08:18:34.818Z</time></trkpt><trkpt lat="42.9712633" lon="13.81899"><ele>245.0</ele><time>2026-04-04T08:18:35.817Z</time></trkpt><trkpt lat="42.971275" lon="13.8188817"><ele>245.00000000000003</ele><time>2026-04-04T08:18:36.817Z</time></trkpt><trkpt lat="42.9712767" lon="13.8187667"><ele>245.0</ele><time>2026-04-04T08:18:37.818Z</time></trkpt><trkpt lat="42.9712867" lon="13.8186683"><ele>245.00000000000003</ele><time>2026-04-04T08:18:38.818Z</time></trkpt><trkpt lat="42.9712933" lon="13.81856"><ele>245.0</ele><time>2026-04-04T08:18:39.818Z</time></trkpt><trkpt lat="42.9712817" lon="13.8184383"><ele>245.0</ele><time>2026-04-04T08:18:40.818Z</time></trkpt><trkpt lat="42.971275" lon="13.8183133"><ele>245.0</ele><time>2026-04-04T08:18:41.817Z</time></trkpt><trkpt lat="42.9712733" lon="13.8182017"><ele>245.00000000000003</ele><time>2026-04-04T08:18:42.818Z</time></trkpt><trkpt lat="42.9712667" lon="13.8180767"><ele>245.0</ele><time>2026-04-04T08:18:43.817Z</time></trkpt><trkpt lat="42.9712683" lon="13.8179583"><ele>244.66666666666669</ele><time>2026-04-04T08:18:44.817Z</time></trkpt><trkpt lat="42.9712783" lon="13.81784"><ele>244.33333333333334</ele><time>2026-04-04T08:18:45.817Z</time></trkpt><trkpt lat="42.971285" lon="13.8177233"><ele>244.0</ele><time>2026-04-04T08:18:46.818Z</time></trkpt><trkpt lat="42.9712917" lon="13.81762"><ele>243.66666666666669</ele><time>2026-04-04T08:18:47.817Z</time></trkpt><trkpt lat="42.9712867" lon="13.817525"><ele>243.33333333333334</ele><time>2026-04-04T08:18:48.817Z</time></trkpt><trkpt lat="42.9712767" lon="13.81744"><ele>243.0</ele><time>2026-04-04T08:18:49.818Z</time></trkpt><trkpt lat="42.9712533" lon="13.8172983"><ele>242.33333333333334</ele><time>2026-04-04T08:18:51.817Z</time></trkpt><trkpt lat="42.97122" lon="13.8171617"><ele>241.66666666666669</ele><time>2026-04-04T08:18:53.818Z</time></trkpt><trkpt lat="42.9711783" lon="13.8170817"><ele>241.0</ele><time>2026-04-04T08:18:54.817Z</time></trkpt><trkpt lat="42.971135" lon="13.8170067"><ele>240.33333333333334</ele><time>2026-04-04T08:18:55.818Z</time></trkpt><trkpt lat="42.9710867" lon="13.8168867"><ele>239.66666666666669</ele><time>2026-04-04T08:18:57.817Z</time></trkpt><trkpt lat="42.97114" lon="13.8168283"><ele>239.0</ele><time>2026-04-04T08:19:00.817Z</time></trkpt><trkpt lat="42.97125" lon="13.8169067"><ele>239.0</ele><time>2026-04-04T08:19:02.817Z</time></trkpt><trkpt lat="42.9713133" lon="13.81697"><ele>238.99999999999997</ele><time>2026-04-04T08:19:03.817Z</time></trkpt><trkpt lat="42.9713883" lon="13.8170333"><ele>238.99999999999997</ele><time>2026-04-04T08:19:04.817Z</time></trkpt><trkpt lat="42.9714867" lon="13.817105"><ele>239.0</ele><time>2026-04-04T08:19:05.817Z</time></trkpt><trkpt lat="42.97158" lon="13.8171817"><ele>239.0</ele><time>2026-04-04T08:19:06.817Z</time></trkpt><trkpt lat="42.9716717" lon="13.8172517"><ele>235.39999999999998</ele><time>2026-04-04T08:19:07.817Z</time></trkpt><trkpt lat="42.9717517" lon="13.8173217"><ele>231.79999999999998</ele><time>2026-04-04T08:19:08.817Z</time></trkpt><trkpt lat="42.9718217" lon="13.817395"><ele>228.20000000000002</ele><time>2026-04-04T08:19:09.817Z</time></trkpt><trkpt lat="42.9718917" lon="13.8174733"><ele>224.60000000000002</ele><time>2026-04-04T08:19:10.817Z</time></trkpt><trkpt lat="42.9719633" lon="13.8175533"><ele>221.0</ele><time>2026-04-04T08:19:11.818Z</time></trkpt><trkpt lat="42.97204" lon="13.8176317"><ele>220.60000000000002</ele><time>2026-04-04T08:19:12.818Z</time></trkpt><trkpt lat="42.9721133" lon="13.8177167"><ele>220.20000000000002</ele><time>2026-04-04T08:19:13.818Z</time></trkpt><trkpt lat="42.97219" lon="13.8177883"><ele>219.79999999999998</ele><time>2026-04-04T08:19:14.818Z</time></trkpt><trkpt lat="42.97227" lon="13.8178667"><ele>219.39999999999998</ele><time>2026-04-04T08:19:15.817Z</time></trkpt><trkpt lat="42.9723517" lon="13.8179467"><ele>219.0</ele><time>2026-04-04T08:19:16.817Z</time></trkpt><trkpt lat="42.9724317" lon="13.8180283"><ele>219.0</ele><time>2026-04-04T08:19:17.818Z</time></trkpt><trkpt lat="42.9725083" lon="13.8181117"><ele>219.0</ele><time>2026-04-04T08:19:18.818Z</time></trkpt><trkpt lat="42.9725667" lon="13.81818"><ele>219.0</ele><time>2026-04-04T08:19:19.817Z</time></trkpt><trkpt lat="42.972615" lon="13.8182383"><ele>219.0</ele><time>2026-04-04T08:19:20.817Z</time></trkpt><trkpt lat="42.972675" lon="13.8182683"><ele>219.0</ele><time>2026-04-04T08:19:21.817Z</time></trkpt><trkpt lat="42.9727683" lon="13.818185"><ele>219.0</ele><time>2026-04-04T08:19:23.817Z</time></trkpt><trkpt lat="42.9727883" lon="13.8180867"><ele>214.6</ele><time>2026-04-04T08:19:24.817Z</time></trkpt><trkpt lat="42.9727983" lon="13.8179633"><ele>210.2</ele><time>2026-04-04T08:19:25.817Z</time></trkpt><trkpt lat="42.9727933" lon="13.81782"><ele>205.79999999999998</ele><time>2026-04-04T08:19:26.818Z</time></trkpt><trkpt lat="42.9727983" lon="13.81768"><ele>201.39999999999998</ele><time>2026-04-04T08:19:27.817Z</time></trkpt><trkpt lat="42.9728017" lon="13.8175367"><ele>197.0</ele><time>2026-04-04T08:19:28.817Z</time></trkpt><trkpt lat="42.972815" lon="13.8174217"><ele>197.00000000000003</ele><time>2026-04-04T08:19:29.817Z</time></trkpt><trkpt lat="42.972845" lon="13.81731"><ele>197.0</ele><time>2026-04-04T08:19:30.817Z</time></trkpt><trkpt lat="42.9728733" lon="13.81722"><ele>197.0</ele><time>2026-04-04T08:19:31.817Z</time></trkpt><trkpt lat="42.9729183" lon="13.8171517"><ele>197.0</ele><time>2026-04-04T08:19:32.818Z</time></trkpt><trkpt lat="42.9730217" lon="13.817075"><ele>197.00000000000003</ele><time>2026-04-04T08:19:34.817Z</time></trkpt><trkpt lat="42.9731133" lon="13.8170783"><ele>197.0</ele><time>2026-04-04T08:19:35.817Z</time></trkpt><trkpt lat="42.973225" lon="13.81709"><ele>197.0</ele><time>2026-04-04T08:19:36.818Z</time></trkpt><trkpt lat="42.9733267" lon="13.8170783"><ele>197.0</ele><time>2026-04-04T08:19:37.818Z</time></trkpt><trkpt lat="42.973425" lon="13.8170517"><ele>197.0</ele><time>2026-04-04T08:19:38.817Z</time></trkpt><trkpt lat="42.973505" lon="13.8170083"><ele>197.0</ele><time>2026-04-04T08:19:39.817Z</time></trkpt><trkpt lat="42.9735983" lon="13.81695"><ele>197.0</ele><time>2026-04-04T08:19:41.818Z</time></trkpt><trkpt lat="42.97366" lon="13.8169233"><ele>194.57142857142858</ele><time>2026-04-04T08:19:44.817Z</time></trkpt><trkpt lat="42.9737217" lon="13.8168683"><ele>192.14285714285717</ele><time>2026-04-04T08:19:48.817Z</time></trkpt><trkpt lat="42.9738067" lon="13.81685"><ele>189.71428571428572</ele><time>2026-04-04T08:19:51.818Z</time></trkpt><trkpt lat="42.97387" lon="13.8168567"><ele>187.28571428571428</ele><time>2026-04-04T08:19:54.818Z</time></trkpt><trkpt lat="42.9739367" lon="13.81687"><ele>184.85714285714286</ele><time>2026-04-04T08:19:56.817Z</time></trkpt><trkpt lat="42.9740133" lon="13.8168783"><ele>182.42857142857142</ele><time>2026-04-04T08:19:58.817Z</time></trkpt><trkpt lat="42.974085" lon="13.8168833"><ele>180.0</ele><time>2026-04-04T08:20:00.818Z</time></trkpt><trkpt lat="42.9741617" lon="13.8168683"><ele>176.83333333333334</ele><time>2026-04-04T08:20:02.817Z</time></trkpt><trkpt lat="42.9742383" lon="13.8168217"><ele>173.66666666666666</ele><time>2026-04-04T08:20:04.817Z</time></trkpt><trkpt lat="42.9743233" lon="13.816795"><ele>170.5</ele><time>2026-04-04T08:20:06.817Z</time></trkpt><trkpt lat="42.9744117" lon="13.81682"><ele>167.33333333333331</ele><time>2026-04-04T08:20:08.818Z</time></trkpt><trkpt lat="42.9744933" lon="13.81686"><ele>164.16666666666666</ele><time>2026-04-04T08:20:10.817Z</time></trkpt><trkpt lat="42.9745783" lon="13.81691"><ele>161.0</ele><time>2026-04-04T08:20:12.818Z</time></trkpt><trkpt lat="42.9746567" lon="13.81694"><ele>161.0</ele><time>2026-04-04T08:20:14.817Z</time></trkpt><trkpt lat="42.9747617" lon="13.8169733"><ele>161.0</ele><time>2026-04-04T08:20:16.817Z</time></trkpt><trkpt lat="42.974895" lon="13.8169533"><ele>161.0</ele><time>2026-04-04T08:20:18.817Z</time></trkpt><trkpt lat="42.974965" lon="13.816935"><ele>161.0</ele><time>2026-04-04T08:20:19.817Z</time></trkpt><trkpt lat="42.9750433" lon="13.8169217"><ele>161.0</ele><time>2026-04-04T08:20:20.817Z</time></trkpt><trkpt lat="42.975125" lon="13.81693"><ele>157.83333333333331</ele><time>2026-04-04T08:20:21.817Z</time></trkpt><trkpt lat="42.9752083" lon="13.8169583"><ele>154.66666666666666</ele><time>2026-04-04T08:20:22.818Z</time></trkpt><trkpt lat="42.9752817" lon="13.817"><ele>151.5</ele><time>2026-04-04T08:20:23.818Z</time></trkpt><trkpt lat="42.9753633" lon="13.8170633"><ele>148.33333333333334</ele><time>2026-04-04T08:20:24.817Z</time></trkpt><trkpt lat="42.9754383" lon="13.8171433"><ele>145.16666666666669</ele><time>2026-04-04T08:20:25.817Z</time></trkpt><trkpt lat="42.97547" lon="13.817265"><ele>142.0</ele><time>2026-04-04T08:20:26.818Z</time></trkpt><trkpt lat="42.9755083" lon="13.8174083"><ele>142.0</ele><time>2026-04-04T08:20:27.818Z</time></trkpt><trkpt lat="42.97555" lon="13.8175683"><ele>142.0</ele><time>2026-04-04T08:20:28.817Z</time></trkpt><trkpt lat="42.975575" lon="13.8177283"><ele>142.0</ele><time>2026-04-04T08:20:29.817Z</time></trkpt><trkpt lat="42.9755867" lon="13.8178933"><ele>142.0</ele><time>2026-04-04T08:20:30.817Z</time></trkpt><trkpt lat="42.975595" lon="13.81805"><ele>141.4</ele><time>2026-04-04T08:20:31.817Z</time></trkpt><trkpt lat="42.9755883" lon="13.818205"><ele>140.79999999999998</ele><time>2026-04-04T08:20:32.817Z</time></trkpt><trkpt lat="42.975575" lon="13.8183533"><ele>140.2</ele><time>2026-04-04T08:20:33.817Z</time></trkpt><trkpt lat="42.97556" lon="13.8184983"><ele>139.6</ele><time>2026-04-04T08:20:34.818Z</time></trkpt><trkpt lat="42.9755483" lon="13.818635"><ele>139.0</ele><time>2026-04-04T08:20:35.817Z</time></trkpt><trkpt lat="42.975535" lon="13.8187683"><ele>138.16666666666669</ele><time>2026-04-04T08:20:36.817Z</time></trkpt><trkpt lat="42.97553" lon="13.8188917"><ele>137.33333333333334</ele><time>2026-04-04T08:20:37.818Z</time></trkpt><trkpt lat="42.9755283" lon="13.8190067"><ele>136.5</ele><time>2026-04-04T08:20:38.817Z</time></trkpt><trkpt lat="42.9755333" lon="13.8191017"><ele>135.66666666666666</ele><time>2026-04-04T08:20:39.818Z</time></trkpt><trkpt lat="42.9755883" lon="13.8192167"><ele>134.83333333333331</ele><time>2026-04-04T08:20:41.817Z</time></trkpt><trkpt lat="42.9756567" lon="13.8192583"><ele>134.0</ele><time>2026-04-04T08:20:42.817Z</time></trkpt><trkpt lat="42.9757367" lon="13.8192767"><ele>134.0</ele><time>2026-04-04T08:20:43.817Z</time></trkpt><trkpt lat="42.9758483" lon="13.8192517"><ele>134.0</ele><time>2026-04-04T08:20:44.818Z</time></trkpt><trkpt lat="42.97596" lon="13.8192083"><ele>134.0</ele><time>2026-04-04T08:20:45.817Z</time></trkpt><trkpt lat="42.9760583" lon="13.8191433"><ele>134.0</ele><time>2026-04-04T08:20:46.817Z</time></trkpt><trkpt lat="42.9761333" lon="13.819075"><ele>134.0</ele><time>2026-04-04T08:20:47.817Z</time></trkpt><trkpt lat="42.9761933" lon="13.8189833"><ele>131.4</ele><time>2026-04-04T08:20:48.818Z</time></trkpt><trkpt lat="42.9762317" lon="13.818875"><ele>128.8</ele><time>2026-04-04T08:20:49.817Z</time></trkpt><trkpt lat="42.9762617" lon="13.8187517"><ele>126.19999999999999</ele><time>2026-04-04T08:20:50.817Z</time></trkpt><trkpt lat="42.976265" lon="13.8186117"><ele>123.6</ele><time>2026-04-04T08:20:51.818Z</time></trkpt><trkpt lat="42.976265" lon="13.8184567"><ele>121.0</ele><time>2026-04-04T08:20:52.818Z</time></trkpt><trkpt lat="42.9762817" lon="13.8183083"><ele>121.0</ele><time>2026-04-04T08:20:53.817Z</time></trkpt><trkpt lat="42.97632" lon="13.8181783"><ele>121.0</ele><time>2026-04-04T08:20:54.817Z</time></trkpt><trkpt lat="42.9763667" lon="13.8180717"><ele>121.0</ele><time>2026-04-04T08:20:55.817Z</time></trkpt><trkpt lat="42.9764167" lon="13.8179617"><ele>121.0</ele><time>2026-04-04T08:20:56.818Z</time></trkpt><trkpt lat="42.9764633" lon="13.81785"><ele>121.0</ele><time>2026-04-04T08:20:57.817Z</time></trkpt><trkpt lat="42.97651" lon="13.8177467"><ele>121.0</ele><time>2026-04-04T08:20:58.818Z</time></trkpt><trkpt lat="42.9765567" lon="13.8176633"><ele>121.0</ele><time>2026-04-04T08:20:59.817Z</time></trkpt><trkpt lat="42.9766067" lon="13.817605"><ele>121.0</ele><time>2026-04-04T08:21:00.818Z</time></trkpt><trkpt lat="42.9766917" lon="13.81753"><ele>121.0</ele><time>2026-04-04T08:21:02.818Z</time></trkpt><trkpt lat="42.9767717" lon="13.817525"><ele>121.0</ele><time>2026-04-04T08:21:04.817Z</time></trkpt><trkpt lat="42.9768383" lon="13.8176733"><ele>114.5</ele><time>2026-04-04T08:21:06.817Z</time></trkpt><trkpt lat="42.9768767" lon="13.8178"><ele>108.0</ele><time>2026-04-04T08:21:07.817Z</time></trkpt><trkpt lat="42.9769167" lon="13.817965"><ele>101.5</ele><time>2026-04-04T08:21:08.817Z</time></trkpt><trkpt lat="42.9769633" lon="13.8181333"><ele>95.0</ele><time>2026-04-04T08:21:09.817Z</time></trkpt><trkpt lat="42.9770067" lon="13.8182917"><ele>95.0</ele><time>2026-04-04T08:21:10.817Z</time></trkpt><trkpt lat="42.9770433" lon="13.8184333"><ele>95.0</ele><time>2026-04-04T08:21:11.818Z</time></trkpt><trkpt lat="42.977075" lon="13.8185617"><ele>95.0</ele><time>2026-04-04T08:21:12.818Z</time></trkpt><trkpt lat="42.9771083" lon="13.818685"><ele>95.0</ele><time>2026-04-04T08:21:13.818Z</time></trkpt><trkpt lat="42.9771433" lon="13.8188017"><ele>95.0</ele><time>2026-04-04T08:21:14.818Z</time></trkpt><trkpt lat="42.9771867" lon="13.818925"><ele>94.6</ele><time>2026-04-04T08:21:15.818Z</time></trkpt><trkpt lat="42.9772233" lon="13.8190367"><ele>94.2</ele><time>2026-04-04T08:21:16.817Z</time></trkpt><trkpt lat="42.97725" lon="13.819145"><ele>93.80000000000001</ele><time>2026-04-04T08:21:17.818Z</time></trkpt><trkpt lat="42.9773133" lon="13.8192683"><ele>93.4</ele><time>2026-04-04T08:21:18.818Z</time></trkpt><trkpt lat="42.9773783" lon="13.8193883"><ele>93.0</ele><time>2026-04-04T08:21:19.818Z</time></trkpt><trkpt lat="42.977445" lon="13.8195083"><ele>90.80000000000001</ele><time>2026-04-04T08:21:20.817Z</time></trkpt><trkpt lat="42.9774983" lon="13.819625"><ele>88.6</ele><time>2026-04-04T08:21:21.817Z</time></trkpt><trkpt lat="42.977555" lon="13.8197383"><ele>86.4</ele><time>2026-04-04T08:21:22.817Z</time></trkpt><trkpt lat="42.9776183" lon="13.8198417"><ele>84.19999999999999</ele><time>2026-04-04T08:21:23.818Z</time></trkpt><trkpt lat="42.9776633" lon="13.8199283"><ele>82.0</ele><time>2026-04-04T08:21:24.818Z</time></trkpt><trkpt lat="42.9777133" lon="13.8200083"><ele>78.6</ele><time>2026-04-04T08:21:25.817Z</time></trkpt><trkpt lat="42.9777567" lon="13.82008"><ele>75.19999999999999</ele><time>2026-04-04T08:21:26.817Z</time></trkpt><trkpt lat="42.9778267" lon="13.8201667"><ele>71.8</ele><time>2026-04-04T08:21:27.818Z</time></trkpt><trkpt lat="42.97796" lon="13.8202983"><ele>68.4</ele><time>2026-04-04T08:21:29.818Z</time></trkpt><trkpt lat="42.978035" lon="13.8203533"><ele>65.0</ele><time>2026-04-04T08:21:30.818Z</time></trkpt><trkpt lat="42.9781183" lon="13.8204133"><ele>63.6</ele><time>2026-04-04T08:21:31.817Z</time></trkpt><trkpt lat="42.9782067" lon="13.820475"><ele>62.2</ele><time>2026-04-04T08:21:32.817Z</time></trkpt><trkpt lat="42.978305" lon="13.82054"><ele>60.8</ele><time>2026-04-04T08:21:33.817Z</time></trkpt><trkpt lat="42.9784117" lon="13.8206033"><ele>59.4</ele><time>2026-04-04T08:21:34.818Z</time></trkpt><trkpt lat="42.9785133" lon="13.8206717"><ele>58.0</ele><time>2026-04-04T08:21:35.817Z</time></trkpt><trkpt lat="42.9786167" lon="13.8207383"><ele>55.75</ele><time>2026-04-04T08:21:36.818Z</time></trkpt><trkpt lat="42.9787233" lon="13.8208117"><ele>53.5</ele><time>2026-04-04T08:21:37.818Z</time></trkpt><trkpt lat="42.9788433" lon="13.8208783"><ele>51.25</ele><time>2026-04-04T08:21:38.817Z</time></trkpt><trkpt lat="42.9789433" lon="13.8209633"><ele>49.0</ele><time>2026-04-04T08:21:39.817Z</time></trkpt><trkpt lat="42.9790333" lon="13.8210583"><ele>49.0</ele><time>2026-04-04T08:21:40.817Z</time></trkpt><trkpt lat="42.97913" lon="13.8211533"><ele>49.0</ele><time>2026-04-04T08:21:41.817Z</time></trkpt><trkpt lat="42.97923" lon="13.82123"><ele>49.0</ele><time>2026-04-04T08:21:42.817Z</time></trkpt><trkpt lat="42.9793217" lon="13.8212967"><ele>49.0</ele><time>2026-04-04T08:21:43.817Z</time></trkpt><trkpt lat="42.97939" lon="13.8213533"><ele>49.0</ele><time>2026-04-04T08:21:44.817Z</time></trkpt><trkpt lat="42.9794583" lon="13.8214017"><ele>46.25</ele><time>2026-04-04T08:21:45.818Z</time></trkpt><trkpt lat="42.9795433" lon="13.8214433"><ele>43.5</ele><time>2026-04-04T08:21:46.818Z</time></trkpt><trkpt lat="42.9796467" lon="13.82148"><ele>40.75</ele><time>2026-04-04T08:21:47.817Z</time></trkpt><trkpt lat="42.9797717" lon="13.8215217"><ele>38.0</ele><time>2026-04-04T08:21:48.817Z</time></trkpt><trkpt lat="42.9799133" lon="13.8215567"><ele>38.0</ele><time>2026-04-04T08:21:49.817Z</time></trkpt><trkpt lat="42.980015" lon="13.82157"><ele>38.0</ele><time>2026-04-04T08:21:50.817Z</time></trkpt><trkpt lat="42.98008" lon="13.8215767"><ele>38.0</ele><time>2026-04-04T08:21:51.817Z</time></trkpt><trkpt lat="42.9801633" lon="13.821585"><ele>38.0</ele><time>2026-04-04T08:21:53.817Z</time></trkpt><trkpt lat="42.980235" lon="13.8215883"><ele>38.0</ele><time>2026-04-04T08:21:56.818Z</time></trkpt><trkpt lat="42.980265" lon="13.8214883"><ele>38.0</ele><time>2026-04-04T08:21:59.817Z</time></trkpt><trkpt lat="42.9802533" lon="13.8213"><ele>37.75</ele><time>2026-04-04T08:22:01.818Z</time></trkpt><trkpt lat="42.9802417" lon="13.8211733"><ele>37.5</ele><time>2026-04-04T08:22:02.817Z</time></trkpt><trkpt lat="42.9802167" lon="13.82103"><ele>37.25</ele><time>2026-04-04T08:22:03.818Z</time></trkpt><trkpt lat="42.9801867" lon="13.8208617"><ele>37.0</ele><time>2026-04-04T08:22:04.817Z</time></trkpt><trkpt lat="42.9801433" lon="13.820665"><ele>37.0</ele><time>2026-04-04T08:22:05.817Z</time></trkpt><trkpt lat="42.9801117" lon="13.8204617"><ele>37.0</ele><time>2026-04-04T08:22:06.817Z</time></trkpt><trkpt lat="42.9800767" lon="13.8202517"><ele>37.0</ele><time>2026-04-04T08:22:07.817Z</time></trkpt><trkpt lat="42.9800433" lon="13.82005"><ele>37.66666666666667</ele><time>2026-04-04T08:22:08.818Z</time></trkpt><trkpt lat="42.980015" lon="13.8198467"><ele>38.333333333333336</ele><time>2026-04-04T08:22:09.817Z</time></trkpt><trkpt lat="42.97999" lon="13.81964"><ele>39.0</ele><time>2026-04-04T08:22:10.817Z</time></trkpt><trkpt lat="42.9799533" lon="13.8194383"><ele>38.75</ele><time>2026-04-04T08:22:11.817Z</time></trkpt><trkpt lat="42.9799233" lon="13.8192383"><ele>38.5</ele><time>2026-04-04T08:22:12.817Z</time></trkpt><trkpt lat="42.97989" lon="13.8190433"><ele>38.25</ele><time>2026-04-04T08:22:13.817Z</time></trkpt><trkpt lat="42.9798717" lon="13.8188667"><ele>38.0</ele><time>2026-04-04T08:22:14.817Z</time></trkpt><trkpt lat="42.9798517" lon="13.818705"><ele>38.0</ele><time>2026-04-04T08:22:15.818Z</time></trkpt><trkpt lat="42.97983" lon="13.81857"><ele>38.0</ele><time>2026-04-04T08:22:16.817Z</time></trkpt><trkpt lat="42.9798033" lon="13.81845"><ele>38.0</ele><time>2026-04-04T08:22:17.818Z</time></trkpt><trkpt lat="42.9797833" lon="13.8183433"><ele>38.0</ele><time>2026-04-04T08:22:18.818Z</time></trkpt><trkpt lat="42.9797667" lon="13.818245"><ele>38.0</ele><time>2026-04-04T08:22:19.817Z</time></trkpt><trkpt lat="42.9797567" lon="13.818155"><ele>38.0</ele><time>2026-04-04T08:22:20.817Z</time></trkpt><trkpt lat="42.9797483" lon="13.8179917"><ele>38.166666666666664</ele><time>2026-04-04T08:22:22.817Z</time></trkpt><trkpt lat="42.9797467" lon="13.8178983"><ele>38.33333333333333</ele><time>2026-04-04T08:22:23.818Z</time></trkpt><trkpt lat="42.9797317" lon="13.8178083"><ele>38.5</ele><time>2026-04-04T08:22:24.817Z</time></trkpt><trkpt lat="42.9797067" lon="13.8176883"><ele>38.666666666666664</ele><time>2026-04-04T08:22:25.817Z</time></trkpt><trkpt lat="42.9796883" lon="13.8175683"><ele>38.833333333333336</ele><time>2026-04-04T08:22:26.817Z</time></trkpt><trkpt lat="42.9796733" lon="13.817425"><ele>39.0</ele><time>2026-04-04T08:22:27.818Z</time></trkpt><trkpt lat="42.9796533" lon="13.81727"><ele>39.5</ele><time>2026-04-04T08:22:28.818Z</time></trkpt><trkpt lat="42.9796317" lon="13.81711"><ele>40.0</ele><time>2026-04-04T08:22:29.817Z</time></trkpt><trkpt lat="42.9796133" lon="13.8169517"><ele>40.5</ele><time>2026-04-04T08:22:30.817Z</time></trkpt><trkpt lat="42.9795867" lon="13.8167683"><ele>41.0</ele><time>2026-04-04T08:22:31.818Z</time></trkpt><trkpt lat="42.9795683" lon="13.816605"><ele>41.0</ele><time>2026-04-04T08:22:32.818Z</time></trkpt><trkpt lat="42.979535" lon="13.8164517"><ele>41.0</ele><time>2026-04-04T08:22:33.817Z</time></trkpt><trkpt lat="42.97951" lon="13.8163017"><ele>41.0</ele><time>2026-04-04T08:22:34.817Z</time></trkpt><trkpt lat="42.9794967" lon="13.8161633"><ele>41.0</ele><time>2026-04-04T08:22:35.818Z</time></trkpt><trkpt lat="42.9794833" lon="13.8160133"><ele>41.0</ele><time>2026-04-04T08:22:36.817Z</time></trkpt><trkpt lat="42.9794517" lon="13.815835"><ele>41.25</ele><time>2026-04-04T08:22:37.818Z</time></trkpt><trkpt lat="42.97944" lon="13.8156617"><ele>41.5</ele><time>2026-04-04T08:22:38.818Z</time></trkpt><trkpt lat="42.9794517" lon="13.8154867"><ele>41.75</ele><time>2026-04-04T08:22:39.818Z</time></trkpt><trkpt lat="42.9794367" lon="13.8152833"><ele>42.0</ele><time>2026-04-04T08:22:40.818Z</time></trkpt><trkpt lat="42.97944" lon="13.8151067"><ele>42.25</ele><time>2026-04-04T08:22:41.818Z</time></trkpt><trkpt lat="42.979455" lon="13.814935"><ele>42.5</ele><time>2026-04-04T08:22:42.817Z</time></trkpt><trkpt lat="42.9794633" lon="13.8147733"><ele>42.75</ele><time>2026-04-04T08:22:43.817Z</time></trkpt><trkpt lat="42.979465" lon="13.814615"><ele>43.0</ele><time>2026-04-04T08:22:44.817Z</time></trkpt><trkpt lat="42.9794767" lon="13.814455"><ele>43.5</ele><time>2026-04-04T08:22:45.817Z</time></trkpt><trkpt lat="42.9794983" lon="13.8142733"><ele>44.0</ele><time>2026-04-04T08:22:46.817Z</time></trkpt><trkpt lat="42.97951" lon="13.8140717"><ele>44.5</ele><time>2026-04-04T08:22:47.817Z</time></trkpt><trkpt lat="42.9795333" lon="13.8138767"><ele>45.0</ele><time>2026-04-04T08:22:48.818Z</time></trkpt><trkpt lat="42.9795417" lon="13.8136767"><ele>44.666666666666664</ele><time>2026-04-04T08:22:49.817Z</time></trkpt><trkpt lat="42.97956" lon="13.81348"><ele>44.33333333333333</ele><time>2026-04-04T08:22:50.817Z</time></trkpt><trkpt lat="42.9795733" lon="13.813275"><ele>44.0</ele><time>2026-04-04T08:22:51.817Z</time></trkpt><trkpt lat="42.9795733" lon="13.8130517"><ele>44.0</ele><time>2026-04-04T08:22:52.818Z</time></trkpt><trkpt lat="42.9795833" lon="13.8128433"><ele>44.0</ele><time>2026-04-04T08:22:53.817Z</time></trkpt><trkpt lat="42.9795933" lon="13.8126333"><ele>44.0</ele><time>2026-04-04T08:22:54.818Z</time></trkpt><trkpt lat="42.9796133" lon="13.8124233"><ele>44.0</ele><time>2026-04-04T08:22:55.817Z</time></trkpt><trkpt lat="42.9796117" lon="13.8122217"><ele>44.0</ele><time>2026-04-04T08:22:56.818Z</time></trkpt><trkpt lat="42.979635" lon="13.812035"><ele>44.0</ele><time>2026-04-04T08:22:57.818Z</time></trkpt><trkpt lat="42.9796583" lon="13.811845"><ele>44.0</ele><time>2026-04-04T08:22:58.817Z</time></trkpt><trkpt lat="42.97968" lon="13.8116517"><ele>44.25</ele><time>2026-04-04T08:22:59.817Z</time></trkpt><trkpt lat="42.9797033" lon="13.8114533"><ele>44.5</ele><time>2026-04-04T08:23:00.817Z</time></trkpt><trkpt lat="42.9797333" lon="13.811255"><ele>44.75</ele><time>2026-04-04T08:23:01.817Z</time></trkpt><trkpt lat="42.979755" lon="13.8110567"><ele>45.0</ele><time>2026-04-04T08:23:02.817Z</time></trkpt><trkpt lat="42.9797717" lon="13.8108617"><ele>45.0</ele><time>2026-04-04T08:23:03.818Z</time></trkpt><trkpt lat="42.9797883" lon="13.8106683"><ele>45.0</ele><time>2026-04-04T08:23:04.817Z</time></trkpt><trkpt lat="42.9798083" lon="13.8104783"><ele>45.0</ele><time>2026-04-04T08:23:05.817Z</time></trkpt><trkpt lat="42.9798267" lon="13.8102917"><ele>45.0</ele><time>2026-04-04T08:23:06.817Z</time></trkpt><trkpt lat="42.9798383" lon="13.8101067"><ele>45.5</ele><time>2026-04-04T08:23:07.817Z</time></trkpt><trkpt lat="42.9798533" lon="13.809925"><ele>46.0</ele><time>2026-04-04T08:23:08.817Z</time></trkpt><trkpt lat="42.97988" lon="13.8097467"><ele>46.5</ele><time>2026-04-04T08:23:09.818Z</time></trkpt><trkpt lat="42.9799083" lon="13.8095617"><ele>47.0</ele><time>2026-04-04T08:23:10.818Z</time></trkpt><trkpt lat="42.9799267" lon="13.8093783"><ele>47.0</ele><time>2026-04-04T08:23:11.817Z</time></trkpt><trkpt lat="42.979945" lon="13.8091983"><ele>47.0</ele><time>2026-04-04T08:23:12.818Z</time></trkpt><trkpt lat="42.9799567" lon="13.809015"><ele>47.0</ele><time>2026-04-04T08:23:13.817Z</time></trkpt><trkpt lat="42.979975" lon="13.808835"><ele>47.0</ele><time>2026-04-04T08:23:14.817Z</time></trkpt><trkpt lat="42.9799917" lon="13.8086583"><ele>47.25</ele><time>2026-04-04T08:23:15.817Z</time></trkpt><trkpt lat="42.9800067" lon="13.80847"><ele>47.5</ele><time>2026-04-04T08:23:16.817Z</time></trkpt><trkpt lat="42.9800183" lon="13.8082733"><ele>47.75</ele><time>2026-04-04T08:23:17.817Z</time></trkpt><trkpt lat="42.9800367" lon="13.8080667"><ele>48.0</ele><time>2026-04-04T08:23:18.818Z</time></trkpt><trkpt lat="42.9800517" lon="13.8078683"><ele>48.33333333333333</ele><time>2026-04-04T08:23:19.817Z</time></trkpt><trkpt lat="42.9800467" lon="13.8076617"><ele>48.666666666666664</ele><time>2026-04-04T08:23:20.818Z</time></trkpt><trkpt lat="42.98004" lon="13.8074483"><ele>49.0</ele><time>2026-04-04T08:23:21.817Z</time></trkpt><trkpt lat="42.9800333" lon="13.80724"><ele>49.33333333333333</ele><time>2026-04-04T08:23:22.817Z</time></trkpt><trkpt lat="42.98002" lon="13.8070333"><ele>49.66666666666667</ele><time>2026-04-04T08:23:23.817Z</time></trkpt><trkpt lat="42.9800117" lon="13.8068183"><ele>50.0</ele><time>2026-04-04T08:23:24.818Z</time></trkpt><trkpt lat="42.9799983" lon="13.8066083"><ele>50.0</ele><time>2026-04-04T08:23:25.818Z</time></trkpt><trkpt lat="42.97998" lon="13.8064083"><ele>50.0</ele><time>2026-04-04T08:23:26.817Z</time></trkpt><trkpt lat="42.97996" lon="13.806215"><ele>50.0</ele><time>2026-04-04T08:23:27.817Z</time></trkpt><trkpt lat="42.9799617" lon="13.8060367"><ele>50.0</ele><time>2026-04-04T08:23:28.818Z</time></trkpt><trkpt lat="42.97995" lon="13.8058433"><ele>50.0</ele><time>2026-04-04T08:23:29.818Z</time></trkpt><trkpt lat="42.9799367" lon="13.80565"><ele>50.0</ele><time>2026-04-04T08:23:30.818Z</time></trkpt><trkpt lat="42.9799233" lon="13.8054517"><ele>50.0</ele><time>2026-04-04T08:23:31.818Z</time></trkpt><trkpt lat="42.9798867" lon="13.80525"><ele>50.0</ele><time>2026-04-04T08:23:32.818Z</time></trkpt><trkpt lat="42.9798517" lon="13.805055"><ele>50.0</ele><time>2026-04-04T08:23:33.817Z</time></trkpt><trkpt lat="42.9798183" lon="13.8048583"><ele>50.0</ele><time>2026-04-04T08:23:34.818Z</time></trkpt><trkpt lat="42.9797817" lon="13.80467"><ele>50.0</ele><time>2026-04-04T08:23:35.817Z</time></trkpt><trkpt lat="42.9797417" lon="13.80449"><ele>50.0</ele><time>2026-04-04T08:23:36.818Z</time></trkpt><trkpt lat="42.9797067" lon="13.8043217"><ele>50.25</ele><time>2026-04-04T08:23:37.817Z</time></trkpt><trkpt lat="42.979685" lon="13.8041633"><ele>50.5</ele><time>2026-04-04T08:23:38.817Z</time></trkpt><trkpt lat="42.9796617" lon="13.8040083"><ele>50.75</ele><time>2026-04-04T08:23:39.817Z</time></trkpt><trkpt lat="42.9796333" lon="13.8038517"><ele>51.0</ele><time>2026-04-04T08:23:40.817Z</time></trkpt><trkpt lat="42.9796167" lon="13.8036967"><ele>51.0</ele><time>2026-04-04T08:23:41.817Z</time></trkpt><trkpt lat="42.9795933" lon="13.80354"><ele>51.0</ele><time>2026-04-04T08:23:42.817Z</time></trkpt><trkpt lat="42.979565" lon="13.8033967"><ele>51.0</ele><time>2026-04-04T08:23:43.817Z</time></trkpt><trkpt lat="42.9795383" lon="13.8032533"><ele>51.0</ele><time>2026-04-04T08:23:44.817Z</time></trkpt><trkpt lat="42.9795183" lon="13.8031217"><ele>51.0</ele><time>2026-04-04T08:23:45.817Z</time></trkpt><trkpt lat="42.9794983" lon="13.8029817"><ele>51.199999999999996</ele><time>2026-04-04T08:23:46.818Z</time></trkpt><trkpt lat="42.9794733" lon="13.802845"><ele>51.4</ele><time>2026-04-04T08:23:47.818Z</time></trkpt><trkpt lat="42.979455" lon="13.802705"><ele>51.6</ele><time>2026-04-04T08:23:48.817Z</time></trkpt><trkpt lat="42.97943" lon="13.8025683"><ele>51.8</ele><time>2026-04-04T08:23:49.817Z</time></trkpt><trkpt lat="42.9794033" lon="13.8024083"><ele>52.0</ele><time>2026-04-04T08:23:50.817Z</time></trkpt><trkpt lat="42.9793667" lon="13.80225"><ele>52.25</ele><time>2026-04-04T08:23:51.818Z</time></trkpt><trkpt lat="42.9793283" lon="13.8020833"><ele>52.5</ele><time>2026-04-04T08:23:52.818Z</time></trkpt><trkpt lat="42.9793" lon="13.8019167"><ele>52.75</ele><time>2026-04-04T08:23:53.817Z</time></trkpt><trkpt lat="42.97926" lon="13.8017567"><ele>53.0</ele><time>2026-04-04T08:23:54.817Z</time></trkpt><trkpt lat="42.9792333" lon="13.8016017"><ele>53.0</ele><time>2026-04-04T08:23:55.818Z</time></trkpt><trkpt lat="42.9792033" lon="13.8014367"><ele>53.0</ele><time>2026-04-04T08:23:56.818Z</time></trkpt><trkpt lat="42.9791767" lon="13.8012617"><ele>53.0</ele><time>2026-04-04T08:23:57.818Z</time></trkpt><trkpt lat="42.97916" lon="13.801065"><ele>53.0</ele><time>2026-04-04T08:23:58.817Z</time></trkpt><trkpt lat="42.9791333" lon="13.8008767"><ele>53.5</ele><time>2026-04-04T08:23:59.818Z</time></trkpt><trkpt lat="42.9791" lon="13.800685"><ele>54.0</ele><time>2026-04-04T08:24:00.817Z</time></trkpt><trkpt lat="42.979075" lon="13.8005017"><ele>54.5</ele><time>2026-04-04T08:24:01.818Z</time></trkpt><trkpt lat="42.9790483" lon="13.800325"><ele>55.0</ele><time>2026-04-04T08:24:02.817Z</time></trkpt><trkpt lat="42.979005" lon="13.8001383"><ele>55.0</ele><time>2026-04-04T08:24:03.817Z</time></trkpt><trkpt lat="42.9789917" lon="13.7999633"><ele>55.0</ele><time>2026-04-04T08:24:04.817Z</time></trkpt><trkpt lat="42.9789583" lon="13.7997767"><ele>55.0</ele><time>2026-04-04T08:24:05.818Z</time></trkpt><trkpt lat="42.978945" lon="13.7995967"><ele>55.0</ele><time>2026-04-04T08:24:06.818Z</time></trkpt><trkpt lat="42.9789217" lon="13.799415"><ele>54.75</ele><time>2026-04-04T08:24:07.817Z</time></trkpt><trkpt lat="42.9789017" lon="13.7992417"><ele>54.5</ele><time>2026-04-04T08:24:08.818Z</time></trkpt><trkpt lat="42.9788717" lon="13.7990767"><ele>54.25</ele><time>2026-04-04T08:24:09.817Z</time></trkpt><trkpt lat="42.9788433" lon="13.7989233"><ele>54.0</ele><time>2026-04-04T08:24:10.817Z</time></trkpt><trkpt lat="42.9788133" lon="13.7987733"><ele>54.0</ele><time>2026-04-04T08:24:11.818Z</time></trkpt><trkpt lat="42.9787833" lon="13.7986133"><ele>54.0</ele><time>2026-04-04T08:24:12.818Z</time></trkpt><trkpt lat="42.978755" lon="13.798465"><ele>54.0</ele><time>2026-04-04T08:24:13.818Z</time></trkpt><trkpt lat="42.97872" lon="13.798315"><ele>54.0</ele><time>2026-04-04T08:24:14.817Z</time></trkpt><trkpt lat="42.97867" lon="13.7981683"><ele>54.0</ele><time>2026-04-04T08:24:15.818Z</time></trkpt><trkpt lat="42.9786217" lon="13.7980333"><ele>54.0</ele><time>2026-04-04T08:24:16.817Z</time></trkpt><trkpt lat="42.9785783" lon="13.7978783"><ele>54.0</ele><time>2026-04-04T08:24:17.817Z</time></trkpt><trkpt lat="42.9785317" lon="13.7977167"><ele>54.0</ele><time>2026-04-04T08:24:18.818Z</time></trkpt><trkpt lat="42.9784817" lon="13.797545"><ele>54.0</ele><time>2026-04-04T08:24:19.817Z</time></trkpt><trkpt lat="42.9784333" lon="13.7973633"><ele>54.0</ele><time>2026-04-04T08:24:20.818Z</time></trkpt><trkpt lat="42.9783817" lon="13.7971733"><ele>54.0</ele><time>2026-04-04T08:24:21.818Z</time></trkpt><trkpt lat="42.9783333" lon="13.7969883"><ele>54.0</ele><time>2026-04-04T08:24:22.818Z</time></trkpt><trkpt lat="42.97829" lon="13.7967883"><ele>55.33333333333333</ele><time>2026-04-04T08:24:23.817Z</time></trkpt><trkpt lat="42.9782567" lon="13.7965767"><ele>56.666666666666664</ele><time>2026-04-04T08:24:24.818Z</time></trkpt><trkpt lat="42.9782183" lon="13.796345"><ele>58.0</ele><time>2026-04-04T08:24:25.818Z</time></trkpt><trkpt lat="42.9781883" lon="13.7961217"><ele>58.0</ele><time>2026-04-04T08:24:26.818Z</time></trkpt><trkpt lat="42.978155" lon="13.7959067"><ele>58.0</ele><time>2026-04-04T08:24:27.818Z</time></trkpt><trkpt lat="42.9781283" lon="13.79569"><ele>58.0</ele><time>2026-04-04T08:24:28.817Z</time></trkpt><trkpt lat="42.978095" lon="13.795495"><ele>58.0</ele><time>2026-04-04T08:24:29.817Z</time></trkpt><trkpt lat="42.97806" lon="13.7953167"><ele>58.0</ele><time>2026-04-04T08:24:30.817Z</time></trkpt><trkpt lat="42.97802" lon="13.79514"><ele>58.0</ele><time>2026-04-04T08:24:31.817Z</time></trkpt><trkpt lat="42.9779733" lon="13.79497"><ele>58.0</ele><time>2026-04-04T08:24:32.818Z</time></trkpt><trkpt lat="42.9778983" lon="13.79481"><ele>58.0</ele><time>2026-04-04T08:24:33.818Z</time></trkpt><trkpt lat="42.9778217" lon="13.7946517"><ele>58.0</ele><time>2026-04-04T08:24:34.817Z</time></trkpt><trkpt lat="42.9777317" lon="13.7944933"><ele>58.0</ele><time>2026-04-04T08:24:35.817Z</time></trkpt><trkpt lat="42.97764" lon="13.7943383"><ele>58.0</ele><time>2026-04-04T08:24:36.818Z</time></trkpt><trkpt lat="42.9775367" lon="13.7941817"><ele>59.33333333333333</ele><time>2026-04-04T08:24:37.817Z</time></trkpt><trkpt lat="42.977445" lon="13.7940417"><ele>60.66666666666667</ele><time>2026-04-04T08:24:38.817Z</time></trkpt><trkpt lat="42.9773333" lon="13.79389"><ele>62.0</ele><time>2026-04-04T08:24:39.817Z</time></trkpt><trkpt lat="42.977235" lon="13.7937233"><ele>62.0</ele><time>2026-04-04T08:24:40.818Z</time></trkpt><trkpt lat="42.9771533" lon="13.793545"><ele>62.0</ele><time>2026-04-04T08:24:41.817Z</time></trkpt><trkpt lat="42.9770783" lon="13.7933583"><ele>62.0</ele><time>2026-04-04T08:24:42.817Z</time></trkpt><trkpt lat="42.977015" lon="13.7931767"><ele>61.5</ele><time>2026-04-04T08:24:43.817Z</time></trkpt><trkpt lat="42.9769517" lon="13.793005"><ele>61.0</ele><time>2026-04-04T08:24:44.818Z</time></trkpt><trkpt lat="42.9768817" lon="13.792845"><ele>60.5</ele><time>2026-04-04T08:24:45.817Z</time></trkpt><trkpt lat="42.976815" lon="13.7926767"><ele>60.0</ele><time>2026-04-04T08:24:46.817Z</time></trkpt><trkpt lat="42.9767483" lon="13.7925167"><ele>61.0</ele><time>2026-04-04T08:24:47.817Z</time></trkpt><trkpt lat="42.97668" lon="13.7923683"><ele>62.0</ele><time>2026-04-04T08:24:48.818Z</time></trkpt><trkpt lat="42.9766017" lon="13.7922317"><ele>63.0</ele><time>2026-04-04T08:24:49.817Z</time></trkpt><trkpt lat="42.9765317" lon="13.7921133"><ele>64.0</ele><time>2026-04-04T08:24:50.817Z</time></trkpt><trkpt lat="42.97648" lon="13.7919967"><ele>64.0</ele><time>2026-04-04T08:24:51.817Z</time></trkpt><trkpt lat="42.9764417" lon="13.7918867"><ele>63.99999999999999</ele><time>2026-04-04T08:24:52.817Z</time></trkpt><trkpt lat="42.976395" lon="13.7917883"><ele>64.0</ele><time>2026-04-04T08:24:53.816Z</time></trkpt><trkpt lat="42.9763633" lon="13.7916933"><ele>64.0</ele><time>2026-04-04T08:24:54.816Z</time></trkpt><trkpt lat="42.9763367" lon="13.7916067"><ele>63.99999999999999</ele><time>2026-04-04T08:24:55.816Z</time></trkpt><trkpt lat="42.9763083" lon="13.7915267"><ele>64.0</ele><time>2026-04-04T08:24:56.816Z</time></trkpt><trkpt lat="42.9762783" lon="13.79145"><ele>64.0</ele><time>2026-04-04T08:24:57.816Z</time></trkpt><trkpt lat="42.9762483" lon="13.79132"><ele>63.6</ele><time>2026-04-04T08:24:59.816Z</time></trkpt><trkpt lat="42.9763183" lon="13.7912317"><ele>63.2</ele><time>2026-04-04T08:25:01.817Z</time></trkpt><trkpt lat="42.97639" lon="13.7912083"><ele>62.800000000000004</ele><time>2026-04-04T08:25:02.816Z</time></trkpt><trkpt lat="42.9764767" lon="13.7911883"><ele>62.400000000000006</ele><time>2026-04-04T08:25:03.816Z</time></trkpt><trkpt lat="42.976585" lon="13.7911567"><ele>62.0</ele><time>2026-04-04T08:25:04.816Z</time></trkpt><trkpt lat="42.9767033" lon="13.79112"><ele>61.75</ele><time>2026-04-04T08:25:05.816Z</time></trkpt><trkpt lat="42.976825" lon="13.791075"><ele>61.5</ele><time>2026-04-04T08:25:06.817Z</time></trkpt><trkpt lat="42.9769467" lon="13.7910333"><ele>61.25</ele><time>2026-04-04T08:25:07.817Z</time></trkpt><trkpt lat="42.977055" lon="13.7909917"><ele>61.0</ele><time>2026-04-04T08:25:08.817Z</time></trkpt><trkpt lat="42.9771517" lon="13.7909567"><ele>61.0</ele><time>2026-04-04T08:25:09.816Z</time></trkpt><trkpt lat="42.97723" lon="13.79092"><ele>60.99999999999999</ele><time>2026-04-04T08:25:10.817Z</time></trkpt><trkpt lat="42.977325" lon="13.7908133"><ele>60.99999999999999</ele><time>2026-04-04T08:25:12.817Z</time></trkpt><trkpt lat="42.9773617" lon="13.7907217"><ele>61.0</ele><time>2026-04-04T08:25:13.817Z</time></trkpt><trkpt lat="42.9773733" lon="13.7906067"><ele>61.0</ele><time>2026-04-04T08:25:14.817Z</time></trkpt><trkpt lat="42.9773733" lon="13.79046"><ele>61.0</ele><time>2026-04-04T08:25:15.817Z</time></trkpt><trkpt lat="42.9773433" lon="13.790295"><ele>61.0</ele><time>2026-04-04T08:25:16.817Z</time></trkpt><trkpt lat="42.9773117" lon="13.7901267"><ele>61.0</ele><time>2026-04-04T08:25:17.817Z</time></trkpt><trkpt lat="42.9772883" lon="13.7899517"><ele>61.0</ele><time>2026-04-04T08:25:18.816Z</time></trkpt><trkpt lat="42.9772617" lon="13.789765"><ele>61.0</ele><time>2026-04-04T08:25:19.817Z</time></trkpt><trkpt lat="42.97724" lon="13.789585"><ele>61.0</ele><time>2026-04-04T08:25:20.816Z</time></trkpt><trkpt lat="42.9772017" lon="13.7894167"><ele>61.0</ele><time>2026-04-04T08:25:21.816Z</time></trkpt><trkpt lat="42.9771733" lon="13.7892417"><ele>61.0</ele><time>2026-04-04T08:25:22.817Z</time></trkpt><trkpt lat="42.9771317" lon="13.7890533"><ele>61.0</ele><time>2026-04-04T08:25:23.816Z</time></trkpt><trkpt lat="42.977095" lon="13.7888617"><ele>61.0</ele><time>2026-04-04T08:25:24.816Z</time></trkpt><trkpt lat="42.9770517" lon="13.78867"><ele>61.0</ele><time>2026-04-04T08:25:25.817Z</time></trkpt><trkpt lat="42.977005" lon="13.788485"><ele>61.0</ele><time>2026-04-04T08:25:26.817Z</time></trkpt><trkpt lat="42.9769583" lon="13.788305"><ele>61.25</ele><time>2026-04-04T08:25:27.816Z</time></trkpt><trkpt lat="42.976915" lon="13.788135"><ele>61.5</ele><time>2026-04-04T08:25:28.816Z</time></trkpt><trkpt lat="42.9768617" lon="13.787955"><ele>61.75</ele><time>2026-04-04T08:25:29.816Z</time></trkpt><trkpt lat="42.9768133" lon="13.78778"><ele>62.0</ele><time>2026-04-04T08:25:30.816Z</time></trkpt><trkpt lat="42.9767617" lon="13.7876017"><ele>62.25</ele><time>2026-04-04T08:25:31.816Z</time></trkpt><trkpt lat="42.97672" lon="13.7874367"><ele>62.5</ele><time>2026-04-04T08:25:32.816Z</time></trkpt><trkpt lat="42.97668" lon="13.78727"><ele>62.75</ele><time>2026-04-04T08:25:33.816Z</time></trkpt><trkpt lat="42.97664" lon="13.7871117"><ele>63.0</ele><time>2026-04-04T08:25:34.816Z</time></trkpt><trkpt lat="42.9766117" lon="13.7869433"><ele>63.0</ele><time>2026-04-04T08:25:35.816Z</time></trkpt><trkpt lat="42.97659" lon="13.7867883"><ele>63.0</ele><time>2026-04-04T08:25:36.816Z</time></trkpt><trkpt lat="42.9765767" lon="13.7866433"><ele>63.0</ele><time>2026-04-04T08:25:37.816Z</time></trkpt><trkpt lat="42.9765567" lon="13.7865167"><ele>63.0</ele><time>2026-04-04T08:25:38.816Z</time></trkpt><trkpt lat="42.9765367" lon="13.7864067"><ele>63.0</ele><time>2026-04-04T08:25:39.816Z</time></trkpt><trkpt lat="42.9765183" lon="13.7862983"><ele>63.0</ele><time>2026-04-04T08:25:40.816Z</time></trkpt><trkpt lat="42.9765017" lon="13.7861883"><ele>63.0</ele><time>2026-04-04T08:25:41.816Z</time></trkpt><trkpt lat="42.97648" lon="13.7860767"><ele>63.0</ele><time>2026-04-04T08:25:42.816Z</time></trkpt><trkpt lat="42.9764583" lon="13.7859783"><ele>63.0</ele><time>2026-04-04T08:25:43.817Z</time></trkpt><trkpt lat="42.9764433" lon="13.7858833"><ele>63.0</ele><time>2026-04-04T08:25:44.817Z</time></trkpt><trkpt lat="42.976435" lon="13.7857917"><ele>63.0</ele><time>2026-04-04T08:25:45.816Z</time></trkpt><trkpt lat="42.9764233" lon="13.7856983"><ele>63.4</ele><time>2026-04-04T08:25:46.817Z</time></trkpt><trkpt lat="42.9764067" lon="13.7855983"><ele>63.8</ele><time>2026-04-04T08:25:47.816Z</time></trkpt><trkpt lat="42.976385" lon="13.7853817"><ele>64.2</ele><time>2026-04-04T08:25:49.817Z</time></trkpt><trkpt lat="42.9763683" lon="13.7852833"><ele>64.6</ele><time>2026-04-04T08:25:50.816Z</time></trkpt><trkpt lat="42.9763467" lon="13.7851683"><ele>65.0</ele><time>2026-04-04T08:25:52.817Z</time></trkpt><trkpt lat="42.97636" lon="13.78507"><ele>65.16666666666667</ele><time>2026-04-04T08:25:56.816Z</time></trkpt><trkpt lat="42.9763383" lon="13.78498"><ele>65.33333333333334</ele><time>2026-04-04T08:27:47.816Z</time></trkpt><trkpt lat="42.9763" lon="13.784905"><ele>65.5</ele><time>2026-04-04T08:27:49.817Z</time></trkpt><trkpt lat="42.9762617" lon="13.7847883"><ele>65.66666666666667</ele><time>2026-04-04T08:27:51.817Z</time></trkpt><trkpt lat="42.976245" lon="13.784705"><ele>65.83333333333333</ele><time>2026-04-04T08:27:52.817Z</time></trkpt><trkpt lat="42.9762317" lon="13.78459"><ele>66.0</ele><time>2026-04-04T08:27:53.817Z</time></trkpt><trkpt lat="42.976205" lon="13.7844483"><ele>65.75</ele><time>2026-04-04T08:27:54.817Z</time></trkpt><trkpt lat="42.97616" lon="13.7842767"><ele>65.5</ele><time>2026-04-04T08:27:55.816Z</time></trkpt><trkpt lat="42.9761017" lon="13.784105"><ele>65.25</ele><time>2026-04-04T08:27:56.816Z</time></trkpt><trkpt lat="42.97603" lon="13.7839317"><ele>65.0</ele><time>2026-04-04T08:27:57.817Z</time></trkpt><trkpt lat="42.9759617" lon="13.7837733"><ele>65.0</ele><time>2026-04-04T08:27:58.817Z</time></trkpt><trkpt lat="42.9759067" lon="13.783635"><ele>65.0</ele><time>2026-04-04T08:27:59.817Z</time></trkpt><trkpt lat="42.9758533" lon="13.7835117"><ele>65.0</ele><time>2026-04-04T08:28:00.817Z</time></trkpt><trkpt lat="42.9758083" lon="13.7833833"><ele>65.0</ele><time>2026-04-04T08:28:01.816Z</time></trkpt><trkpt lat="42.97576" lon="13.7832617"><ele>65.0</ele><time>2026-04-04T08:28:02.816Z</time></trkpt><trkpt lat="42.975715" lon="13.7831267"><ele>65.5</ele><time>2026-04-04T08:28:03.816Z</time></trkpt><trkpt lat="42.975675" lon="13.78298"><ele>66.0</ele><time>2026-04-04T08:28:04.817Z</time></trkpt><trkpt lat="42.9756383" lon="13.7828283"><ele>66.5</ele><time>2026-04-04T08:28:05.816Z</time></trkpt><trkpt lat="42.9756033" lon="13.7826867"><ele>67.0</ele><time>2026-04-04T08:28:06.817Z</time></trkpt><trkpt lat="42.9755717" lon="13.7825433"><ele>67.0</ele><time>2026-04-04T08:28:07.817Z</time></trkpt><trkpt lat="42.97554" lon="13.782395"><ele>67.0</ele><time>2026-04-04T08:28:08.816Z</time></trkpt><trkpt lat="42.975505" lon="13.7822433"><ele>67.0</ele><time>2026-04-04T08:28:09.816Z</time></trkpt><trkpt lat="42.9754683" lon="13.782095"><ele>67.0</ele><time>2026-04-04T08:28:10.817Z</time></trkpt><trkpt lat="42.9754383" lon="13.781955"><ele>67.2</ele><time>2026-04-04T08:28:11.817Z</time></trkpt><trkpt lat="42.9753983" lon="13.7818133"><ele>67.4</ele><time>2026-04-04T08:28:12.817Z</time></trkpt><trkpt lat="42.9753683" lon="13.7816733"><ele>67.6</ele><time>2026-04-04T08:28:13.816Z</time></trkpt><trkpt lat="42.9753417" lon="13.7815317"><ele>67.8</ele><time>2026-04-04T08:28:14.816Z</time></trkpt><trkpt lat="42.975315" lon="13.7813917"><ele>68.0</ele><time>2026-04-04T08:28:15.816Z</time></trkpt><trkpt lat="42.975285" lon="13.7812467"><ele>68.0</ele><time>2026-04-04T08:28:16.816Z</time></trkpt><trkpt lat="42.9752567" lon="13.7810967"><ele>68.0</ele><time>2026-04-04T08:28:17.816Z</time></trkpt><trkpt lat="42.9752217" lon="13.7809433"><ele>68.0</ele><time>2026-04-04T08:28:18.817Z</time></trkpt><trkpt lat="42.9751817" lon="13.7807867"><ele>68.0</ele><time>2026-04-04T08:28:19.817Z</time></trkpt><trkpt lat="42.9751283" lon="13.7806217"><ele>68.25</ele><time>2026-04-04T08:28:20.816Z</time></trkpt><trkpt lat="42.975075" lon="13.7804433"><ele>68.5</ele><time>2026-04-04T08:28:21.817Z</time></trkpt><trkpt lat="42.9750233" lon="13.780265"><ele>68.75</ele><time>2026-04-04T08:28:22.816Z</time></trkpt><trkpt lat="42.97498" lon="13.7800833"><ele>69.0</ele><time>2026-04-04T08:28:23.816Z</time></trkpt><trkpt lat="42.974925" lon="13.7798983"><ele>69.66666666666667</ele><time>2026-04-04T08:28:24.816Z</time></trkpt><trkpt lat="42.9748783" lon="13.779705"><ele>70.33333333333334</ele><time>2026-04-04T08:28:25.817Z</time></trkpt><trkpt lat="42.9748183" lon="13.7795033"><ele>71.0</ele><time>2026-04-04T08:28:26.816Z</time></trkpt><trkpt lat="42.97476" lon="13.77929"><ele>71.0</ele><time>2026-04-04T08:28:27.816Z</time></trkpt><trkpt lat="42.974685" lon="13.77907"><ele>71.0</ele><time>2026-04-04T08:28:28.816Z</time></trkpt><trkpt lat="42.9746083" lon="13.77886"><ele>71.0</ele><time>2026-04-04T08:28:29.816Z</time></trkpt><trkpt lat="42.9745333" lon="13.7786567"><ele>70.75</ele><time>2026-04-04T08:28:30.817Z</time></trkpt><trkpt lat="42.9744717" lon="13.7784633"><ele>70.5</ele><time>2026-04-04T08:28:31.817Z</time></trkpt><trkpt lat="42.974405" lon="13.77829"><ele>70.25</ele><time>2026-04-04T08:28:32.817Z</time></trkpt><trkpt lat="42.9743417" lon="13.7781183"><ele>70.0</ele><time>2026-04-04T08:28:33.816Z</time></trkpt><trkpt lat="42.9742817" lon="13.7779317"><ele>70.0</ele><time>2026-04-04T08:28:34.816Z</time></trkpt><trkpt lat="42.9742083" lon="13.7777433"><ele>70.0</ele><time>2026-04-04T08:28:35.817Z</time></trkpt><trkpt lat="42.974145" lon="13.7775467"><ele>70.0</ele><time>2026-04-04T08:28:36.816Z</time></trkpt><trkpt lat="42.9740833" lon="13.7773483"><ele>71.0</ele><time>2026-04-04T08:28:37.816Z</time></trkpt><trkpt lat="42.9740267" lon="13.7771517"><ele>72.0</ele><time>2026-04-04T08:28:38.816Z</time></trkpt><trkpt lat="42.97398" lon="13.7769617"><ele>73.0</ele><time>2026-04-04T08:28:39.817Z</time></trkpt><trkpt lat="42.9739267" lon="13.7767683"><ele>73.0</ele><time>2026-04-04T08:28:40.816Z</time></trkpt><trkpt lat="42.9738733" lon="13.776585"><ele>73.0</ele><time>2026-04-04T08:28:41.816Z</time></trkpt><trkpt lat="42.9738133" lon="13.77642"><ele>73.0</ele><time>2026-04-04T08:28:42.816Z</time></trkpt><trkpt lat="42.9737633" lon="13.77624"><ele>73.0</ele><time>2026-04-04T08:28:43.816Z</time></trkpt><trkpt lat="42.973705" lon="13.7760617"><ele>73.33333333333333</ele><time>2026-04-04T08:28:44.817Z</time></trkpt><trkpt lat="42.97365" lon="13.7758783"><ele>73.66666666666667</ele><time>2026-04-04T08:28:45.817Z</time></trkpt><trkpt lat="42.9735967" lon="13.7756783"><ele>74.0</ele><time>2026-04-04T08:28:46.817Z</time></trkpt><trkpt lat="42.97354" lon="13.7754783"><ele>74.0</ele><time>2026-04-04T08:28:47.816Z</time></trkpt><trkpt lat="42.97348" lon="13.7752883"><ele>74.0</ele><time>2026-04-04T08:28:48.816Z</time></trkpt><trkpt lat="42.9734317" lon="13.7750883"><ele>74.0</ele><time>2026-04-04T08:28:49.816Z</time></trkpt><trkpt lat="42.9734083" lon="13.77489"><ele>74.0</ele><time>2026-04-04T08:28:50.817Z</time></trkpt><trkpt lat="42.9733783" lon="13.7746917"><ele>74.0</ele><time>2026-04-04T08:28:51.817Z</time></trkpt><trkpt lat="42.9733417" lon="13.7744833"><ele>74.0</ele><time>2026-04-04T08:28:52.816Z</time></trkpt><trkpt lat="42.9732983" lon="13.7742683"><ele>74.33333333333334</ele><time>2026-04-04T08:28:53.817Z</time></trkpt><trkpt lat="42.9732483" lon="13.7740567"><ele>74.66666666666667</ele><time>2026-04-04T08:28:54.816Z</time></trkpt><trkpt lat="42.9731967" lon="13.7738333"><ele>75.0</ele><time>2026-04-04T08:28:55.817Z</time></trkpt><trkpt lat="42.973145" lon="13.7736267"><ele>75.33333333333333</ele><time>2026-04-04T08:28:56.816Z</time></trkpt><trkpt lat="42.9730933" lon="13.77341"><ele>75.66666666666666</ele><time>2026-04-04T08:28:57.817Z</time></trkpt><trkpt lat="42.9730433" lon="13.7731967"><ele>76.0</ele><time>2026-04-04T08:28:58.816Z</time></trkpt><trkpt lat="42.9729983" lon="13.7729933"><ele>76.0</ele><time>2026-04-04T08:28:59.816Z</time></trkpt><trkpt lat="42.9729567" lon="13.772795"><ele>76.0</ele><time>2026-04-04T08:29:00.817Z</time></trkpt><trkpt lat="42.9729233" lon="13.7725983"><ele>76.0</ele><time>2026-04-04T08:29:01.816Z</time></trkpt><trkpt lat="42.9728917" lon="13.7723967"><ele>76.0</ele><time>2026-04-04T08:29:02.816Z</time></trkpt><trkpt lat="42.9728567" lon="13.7721917"><ele>76.0</ele><time>2026-04-04T08:29:03.816Z</time></trkpt><trkpt lat="42.972815" lon="13.7719967"><ele>76.0</ele><time>2026-04-04T08:29:04.816Z</time></trkpt><trkpt lat="42.9727717" lon="13.771795"><ele>75.66666666666666</ele><time>2026-04-04T08:29:05.817Z</time></trkpt><trkpt lat="42.9727333" lon="13.7715983"><ele>75.33333333333333</ele><time>2026-04-04T08:29:06.816Z</time></trkpt><trkpt lat="42.972685" lon="13.7714033"><ele>75.0</ele><time>2026-04-04T08:29:07.817Z</time></trkpt><trkpt lat="42.972625" lon="13.7712"><ele>75.0</ele><time>2026-04-04T08:29:08.816Z</time></trkpt><trkpt lat="42.972575" lon="13.7709917"><ele>75.0</ele><time>2026-04-04T08:29:09.817Z</time></trkpt><trkpt lat="42.9725233" lon="13.7707867"><ele>75.0</ele><time>2026-04-04T08:29:10.816Z</time></trkpt><trkpt lat="42.97246" lon="13.7705817"><ele>75.33333333333333</ele><time>2026-04-04T08:29:11.816Z</time></trkpt><trkpt lat="42.9724117" lon="13.770375"><ele>75.66666666666666</ele><time>2026-04-04T08:29:12.817Z</time></trkpt><trkpt lat="42.972365" lon="13.77017"><ele>76.0</ele><time>2026-04-04T08:29:13.816Z</time></trkpt><trkpt lat="42.9723183" lon="13.76997"><ele>76.66666666666666</ele><time>2026-04-04T08:29:14.817Z</time></trkpt><trkpt lat="42.9722717" lon="13.769765"><ele>77.33333333333333</ele><time>2026-04-04T08:29:15.816Z</time></trkpt><trkpt lat="42.9722367" lon="13.769565"><ele>78.0</ele><time>2026-04-04T08:29:16.816Z</time></trkpt><trkpt lat="42.9722183" lon="13.7693667"><ele>78.33333333333333</ele><time>2026-04-04T08:29:17.816Z</time></trkpt><trkpt lat="42.9722" lon="13.7691517"><ele>78.66666666666666</ele><time>2026-04-04T08:29:18.817Z</time></trkpt><trkpt lat="42.97218" lon="13.7689367"><ele>79.0</ele><time>2026-04-04T08:29:19.817Z</time></trkpt><trkpt lat="42.97216" lon="13.768725"><ele>79.0</ele><time>2026-04-04T08:29:20.817Z</time></trkpt><trkpt lat="42.972135" lon="13.768505"><ele>79.0</ele><time>2026-04-04T08:29:21.817Z</time></trkpt><trkpt lat="42.9721017" lon="13.76828"><ele>79.0</ele><time>2026-04-04T08:29:22.816Z</time></trkpt><trkpt lat="42.9720667" lon="13.768055"><ele>79.0</ele><time>2026-04-04T08:29:23.817Z</time></trkpt><trkpt lat="42.97204" lon="13.7678233"><ele>79.0</ele><time>2026-04-04T08:29:24.816Z</time></trkpt><trkpt lat="42.9720117" lon="13.7675967"><ele>79.0</ele><time>2026-04-04T08:29:25.816Z</time></trkpt><trkpt lat="42.9719733" lon="13.7673683"><ele>79.0</ele><time>2026-04-04T08:29:26.817Z</time></trkpt><trkpt lat="42.9719317" lon="13.7671467"><ele>79.0</ele><time>2026-04-04T08:29:27.816Z</time></trkpt><trkpt lat="42.9718917" lon="13.7669283"><ele>79.0</ele><time>2026-04-04T08:29:28.817Z</time></trkpt><trkpt lat="42.9718583" lon="13.7667117"><ele>79.0</ele><time>2026-04-04T08:29:29.817Z</time></trkpt><trkpt lat="42.971825" lon="13.7665083"><ele>79.0</ele><time>2026-04-04T08:29:30.817Z</time></trkpt><trkpt lat="42.971785" lon="13.7662867"><ele>79.0</ele><time>2026-04-04T08:29:31.816Z</time></trkpt><trkpt lat="42.9717433" lon="13.766085"><ele>79.33333333333333</ele><time>2026-04-04T08:29:32.817Z</time></trkpt><trkpt lat="42.971705" lon="13.7658833"><ele>79.66666666666667</ele><time>2026-04-04T08:29:33.816Z</time></trkpt><trkpt lat="42.9716633" lon="13.76566"><ele>80.0</ele><time>2026-04-04T08:29:34.816Z</time></trkpt><trkpt lat="42.9716183" lon="13.7654433"><ele>80.0</ele><time>2026-04-04T08:29:35.816Z</time></trkpt><trkpt lat="42.9715867" lon="13.7652167"><ele>80.0</ele><time>2026-04-04T08:29:36.816Z</time></trkpt><trkpt lat="42.9715417" lon="13.7649883"><ele>80.0</ele><time>2026-04-04T08:29:37.816Z</time></trkpt><trkpt lat="42.9714883" lon="13.76477"><ele>80.66666666666667</ele><time>2026-04-04T08:29:38.816Z</time></trkpt><trkpt lat="42.9714433" lon="13.7645517"><ele>81.33333333333333</ele><time>2026-04-04T08:29:39.816Z</time></trkpt><trkpt lat="42.97139" lon="13.7643233"><ele>82.0</ele><time>2026-04-04T08:29:40.817Z</time></trkpt><trkpt lat="42.9713467" lon="13.7641"><ele>82.0</ele><time>2026-04-04T08:29:41.816Z</time></trkpt><trkpt lat="42.9713" lon="13.7638817"><ele>82.0</ele><time>2026-04-04T08:29:42.816Z</time></trkpt><trkpt lat="42.9712567" lon="13.7636583"><ele>82.0</ele><time>2026-04-04T08:29:43.817Z</time></trkpt><trkpt lat="42.97121" lon="13.76344"><ele>82.66666666666666</ele><time>2026-04-04T08:29:44.817Z</time></trkpt><trkpt lat="42.97116" lon="13.7632133"><ele>83.33333333333333</ele><time>2026-04-04T08:29:45.816Z</time></trkpt><trkpt lat="42.9711217" lon="13.763005"><ele>84.0</ele><time>2026-04-04T08:29:46.816Z</time></trkpt><trkpt lat="42.9710817" lon="13.7627883"><ele>83.33333333333333</ele><time>2026-04-04T08:29:47.816Z</time></trkpt><trkpt lat="42.971035" lon="13.7625733"><ele>82.66666666666666</ele><time>2026-04-04T08:29:48.817Z</time></trkpt><trkpt lat="42.9709883" lon="13.7623683"><ele>82.0</ele><time>2026-04-04T08:29:49.817Z</time></trkpt><trkpt lat="42.9709383" lon="13.76216"><ele>82.0</ele><time>2026-04-04T08:29:50.817Z</time></trkpt><trkpt lat="42.9708933" lon="13.7619467"><ele>82.0</ele><time>2026-04-04T08:29:51.816Z</time></trkpt><trkpt lat="42.97085" lon="13.7617433"><ele>82.0</ele><time>2026-04-04T08:29:52.816Z</time></trkpt><trkpt lat="42.9708067" lon="13.7615417"><ele>83.0</ele><time>2026-04-04T08:29:53.816Z</time></trkpt><trkpt lat="42.9707567" lon="13.7613433"><ele>84.0</ele><time>2026-04-04T08:29:54.817Z</time></trkpt><trkpt lat="42.9707133" lon="13.761135"><ele>85.0</ele><time>2026-04-04T08:29:55.816Z</time></trkpt><trkpt lat="42.9706717" lon="13.7609367"><ele>85.33333333333333</ele><time>2026-04-04T08:29:56.817Z</time></trkpt><trkpt lat="42.97063" lon="13.7607383"><ele>85.66666666666667</ele><time>2026-04-04T08:29:57.816Z</time></trkpt><trkpt lat="42.9705817" lon="13.760535"><ele>86.0</ele><time>2026-04-04T08:29:58.817Z</time></trkpt><trkpt lat="42.9705383" lon="13.7603233"><ele>86.0</ele><time>2026-04-04T08:29:59.816Z</time></trkpt><trkpt lat="42.9704883" lon="13.7601133"><ele>86.0</ele><time>2026-04-04T08:30:00.817Z</time></trkpt><trkpt lat="42.970435" lon="13.7598983"><ele>86.0</ele><time>2026-04-04T08:30:01.816Z</time></trkpt><trkpt lat="42.9703883" lon="13.7596817"><ele>86.0</ele><time>2026-04-04T08:30:02.816Z</time></trkpt><trkpt lat="42.9703483" lon="13.75947"><ele>86.0</ele><time>2026-04-04T08:30:03.816Z</time></trkpt><trkpt lat="42.9703083" lon="13.7592583"><ele>86.0</ele><time>2026-04-04T08:30:04.817Z</time></trkpt><trkpt lat="42.97027" lon="13.7590467"><ele>86.0</ele><time>2026-04-04T08:30:05.816Z</time></trkpt><trkpt lat="42.9702267" lon="13.7588383"><ele>86.0</ele><time>2026-04-04T08:30:06.816Z</time></trkpt><trkpt lat="42.97019" lon="13.7586333"><ele>86.0</ele><time>2026-04-04T08:30:07.816Z</time></trkpt><trkpt lat="42.9701483" lon="13.7584283"><ele>86.0</ele><time>2026-04-04T08:30:08.817Z</time></trkpt><trkpt lat="42.9701033" lon="13.7582333"><ele>86.0</ele><time>2026-04-04T08:30:09.817Z</time></trkpt><trkpt lat="42.9700633" lon="13.7580467"><ele>86.0</ele><time>2026-04-04T08:30:10.816Z</time></trkpt><trkpt lat="42.97003" lon="13.7578717"><ele>86.0</ele><time>2026-04-04T08:30:11.816Z</time></trkpt><trkpt lat="42.9700083" lon="13.7577117"><ele>86.6</ele><time>2026-04-04T08:30:12.817Z</time></trkpt><trkpt lat="42.970005" lon="13.7575383"><ele>87.19999999999999</ele><time>2026-04-04T08:30:13.816Z</time></trkpt><trkpt lat="42.9699967" lon="13.75738"><ele>87.80000000000001</ele><time>2026-04-04T08:30:14.816Z</time></trkpt><trkpt lat="42.9699683" lon="13.757225"><ele>88.4</ele><time>2026-04-04T08:30:15.817Z</time></trkpt><trkpt lat="42.969935" lon="13.75712"><ele>89.0</ele><time>2026-04-04T08:30:16.816Z</time></trkpt><trkpt lat="42.9698817" lon="13.757035"><ele>89.0</ele><time>2026-04-04T08:30:17.816Z</time></trkpt><trkpt lat="42.9698183" lon="13.7569717"><ele>89.0</ele><time>2026-04-04T08:30:18.817Z</time></trkpt><trkpt lat="42.9697367" lon="13.756925"><ele>89.0</ele><time>2026-04-04T08:30:19.816Z</time></trkpt><trkpt lat="42.9696417" lon="13.7568983"><ele>89.0</ele><time>2026-04-04T08:30:20.817Z</time></trkpt><trkpt lat="42.9695583" lon="13.7568733"><ele>89.0</ele><time>2026-04-04T08:30:21.816Z</time></trkpt><trkpt lat="42.9694933" lon="13.7568167"><ele>89.0</ele><time>2026-04-04T08:30:23.817Z</time></trkpt><trkpt lat="42.9696033" lon="13.7567617"><ele>89.2</ele><time>2026-04-04T08:30:26.816Z</time></trkpt><trkpt lat="42.9696867" lon="13.756765"><ele>89.4</ele><time>2026-04-04T08:30:27.816Z</time></trkpt><trkpt lat="42.96975" lon="13.7567583"><ele>89.6</ele><time>2026-04-04T08:30:28.816Z</time></trkpt><trkpt lat="42.9698333" lon="13.7566317"><ele>89.8</ele><time>2026-04-04T08:30:30.816Z</time></trkpt><trkpt lat="42.9698683" lon="13.7564983"><ele>90.0</ele><time>2026-04-04T08:30:31.817Z</time></trkpt><trkpt lat="42.9698917" lon="13.7563217"><ele>90.0</ele><time>2026-04-04T08:30:32.816Z</time></trkpt><trkpt lat="42.9699183" lon="13.756105"><ele>90.0</ele><time>2026-04-04T08:30:33.816Z</time></trkpt><trkpt lat="42.96995" lon="13.755855"><ele>90.0</ele><time>2026-04-04T08:30:34.816Z</time></trkpt><trkpt lat="42.96998" lon="13.7556083"><ele>90.33333333333333</ele><time>2026-04-04T08:30:35.816Z</time></trkpt><trkpt lat="42.9700083" lon="13.7553533"><ele>90.66666666666666</ele><time>2026-04-04T08:30:36.816Z</time></trkpt><trkpt lat="42.9700367" lon="13.7550967"><ele>91.0</ele><time>2026-04-04T08:30:37.817Z</time></trkpt><trkpt lat="42.9700483" lon="13.7548433"><ele>91.0</ele><time>2026-04-04T08:30:38.816Z</time></trkpt><trkpt lat="42.9700683" lon="13.7545867"><ele>91.0</ele><time>2026-04-04T08:30:39.817Z</time></trkpt><trkpt lat="42.970085" lon="13.7543417"><ele>91.0</ele><time>2026-04-04T08:30:40.817Z</time></trkpt><trkpt lat="42.9701033" lon="13.754105"><ele>91.0</ele><time>2026-04-04T08:30:41.817Z</time></trkpt><trkpt lat="42.9701183" lon="13.75388"><ele>91.0</ele><time>2026-04-04T08:30:42.817Z</time></trkpt><trkpt lat="42.97014" lon="13.7536567"><ele>91.0</ele><time>2026-04-04T08:30:43.816Z</time></trkpt><trkpt lat="42.9701683" lon="13.753425"><ele>91.0</ele><time>2026-04-04T08:30:44.817Z</time></trkpt><trkpt lat="42.970195" lon="13.7531983"><ele>91.0</ele><time>2026-04-04T08:30:45.816Z</time></trkpt><trkpt lat="42.9702233" lon="13.7529733"><ele>91.0</ele><time>2026-04-04T08:30:46.817Z</time></trkpt><trkpt lat="42.9702333" lon="13.7527433"><ele>91.33333333333333</ele><time>2026-04-04T08:30:47.817Z</time></trkpt><trkpt lat="42.9702433" lon="13.7525183"><ele>91.66666666666667</ele><time>2026-04-04T08:30:48.817Z</time></trkpt><trkpt lat="42.9702583" lon="13.7522917"><ele>92.0</ele><time>2026-04-04T08:30:49.815Z</time></trkpt><trkpt lat="42.9702733" lon="13.7520517"><ele>92.33333333333334</ele><time>2026-04-04T08:30:50.815Z</time></trkpt><trkpt lat="42.9702933" lon="13.7518217"><ele>92.66666666666667</ele><time>2026-04-04T08:30:51.816Z</time></trkpt><trkpt lat="42.970315" lon="13.7515983"><ele>93.0</ele><time>2026-04-04T08:30:52.816Z</time></trkpt><trkpt lat="42.97033" lon="13.75138"><ele>93.0</ele><time>2026-04-04T08:30:53.816Z</time></trkpt><trkpt lat="42.970335" lon="13.7511567"><ele>93.0</ele><time>2026-04-04T08:30:54.816Z</time></trkpt><trkpt lat="42.9703383" lon="13.7509417"><ele>93.0</ele><time>2026-04-04T08:30:55.816Z</time></trkpt><trkpt lat="42.97035" lon="13.7507417"><ele>93.33333333333333</ele><time>2026-04-04T08:30:56.815Z</time></trkpt><trkpt lat="42.970355" lon="13.75053"><ele>93.66666666666666</ele><time>2026-04-04T08:30:57.815Z</time></trkpt><trkpt lat="42.970355" lon="13.7503167"><ele>94.0</ele><time>2026-04-04T08:30:58.816Z</time></trkpt><trkpt lat="42.970365" lon="13.7501183"><ele>94.0</ele><time>2026-04-04T08:30:59.815Z</time></trkpt><trkpt lat="42.9703767" lon="13.7499317"><ele>94.0</ele><time>2026-04-04T08:31:00.816Z</time></trkpt><trkpt lat="42.9703833" lon="13.7497433"><ele>94.0</ele><time>2026-04-04T08:31:01.815Z</time></trkpt><trkpt lat="42.9703917" lon="13.7495517"><ele>94.0</ele><time>2026-04-04T08:31:02.815Z</time></trkpt><trkpt lat="42.9704067" lon="13.749365"><ele>94.25</ele><time>2026-04-04T08:31:03.815Z</time></trkpt><trkpt lat="42.9704217" lon="13.74917"><ele>94.5</ele><time>2026-04-04T08:31:04.816Z</time></trkpt><trkpt lat="42.9704333" lon="13.74899"><ele>94.75</ele><time>2026-04-04T08:31:05.815Z</time></trkpt><trkpt lat="42.9704367" lon="13.74882"><ele>95.0</ele><time>2026-04-04T08:31:06.815Z</time></trkpt><trkpt lat="42.9704383" lon="13.748645"><ele>95.25</ele><time>2026-04-04T08:31:07.816Z</time></trkpt><trkpt lat="42.970435" lon="13.7484767"><ele>95.5</ele><time>2026-04-04T08:31:08.815Z</time></trkpt><trkpt lat="42.9704333" lon="13.7483"><ele>95.75</ele><time>2026-04-04T08:31:09.815Z</time></trkpt><trkpt lat="42.9704433" lon="13.7481217"><ele>96.0</ele><time>2026-04-04T08:31:10.815Z</time></trkpt><trkpt lat="42.9704467" lon="13.7479383"><ele>96.0</ele><time>2026-04-04T08:31:11.816Z</time></trkpt><trkpt lat="42.9704517" lon="13.747765"><ele>96.0</ele><time>2026-04-04T08:31:12.816Z</time></trkpt><trkpt lat="42.9704533" lon="13.747615"><ele>96.0</ele><time>2026-04-04T08:31:13.815Z</time></trkpt><trkpt lat="42.9704617" lon="13.74747"><ele>96.0</ele><time>2026-04-04T08:31:14.815Z</time></trkpt><trkpt lat="42.9704717" lon="13.747325"><ele>96.4</ele><time>2026-04-04T08:31:15.815Z</time></trkpt><trkpt lat="42.9704817" lon="13.7471867"><ele>96.8</ele><time>2026-04-04T08:31:16.816Z</time></trkpt><trkpt lat="42.970485" lon="13.7470583"><ele>97.2</ele><time>2026-04-04T08:31:17.816Z</time></trkpt><trkpt lat="42.97049" lon="13.7469433"><ele>97.60000000000001</ele><time>2026-04-04T08:31:18.815Z</time></trkpt><trkpt lat="42.9704967" lon="13.7468283"><ele>98.0</ele><time>2026-04-04T08:31:19.815Z</time></trkpt><trkpt lat="42.9705033" lon="13.7467067"><ele>98.0</ele><time>2026-04-04T08:31:20.815Z</time></trkpt><trkpt lat="42.9705133" lon="13.7465767"><ele>98.0</ele><time>2026-04-04T08:31:21.815Z</time></trkpt><trkpt lat="42.9705233" lon="13.7464317"><ele>98.0</ele><time>2026-04-04T08:31:22.815Z</time></trkpt><trkpt lat="42.97054" lon="13.7462667"><ele>98.0</ele><time>2026-04-04T08:31:23.816Z</time></trkpt><trkpt lat="42.97057" lon="13.7460983"><ele>98.0</ele><time>2026-04-04T08:31:24.815Z</time></trkpt><trkpt lat="42.9705983" lon="13.7459183"><ele>98.0</ele><time>2026-04-04T08:31:25.815Z</time></trkpt><trkpt lat="42.9706167" lon="13.745735"><ele>98.0</ele><time>2026-04-04T08:31:26.816Z</time></trkpt><trkpt lat="42.9706233" lon="13.7455433"><ele>98.0</ele><time>2026-04-04T08:31:27.815Z</time></trkpt><trkpt lat="42.9706167" lon="13.74535"><ele>97.75</ele><time>2026-04-04T08:31:28.815Z</time></trkpt><trkpt lat="42.9706133" lon="13.7451567"><ele>97.5</ele><time>2026-04-04T08:31:29.816Z</time></trkpt><trkpt lat="42.9706183" lon="13.7449767"><ele>97.25</ele><time>2026-04-04T08:31:30.815Z</time></trkpt><trkpt lat="42.9706217" lon="13.7447967"><ele>97.0</ele><time>2026-04-04T08:31:31.815Z</time></trkpt><trkpt lat="42.970635" lon="13.7445867"><ele>97.66666666666667</ele><time>2026-04-04T08:31:32.815Z</time></trkpt><trkpt lat="42.9706583" lon="13.7443717"><ele>98.33333333333334</ele><time>2026-04-04T08:31:33.815Z</time></trkpt><trkpt lat="42.9706817" lon="13.7441583"><ele>99.0</ele><time>2026-04-04T08:31:34.816Z</time></trkpt><trkpt lat="42.9707033" lon="13.7439517"><ele>99.0</ele><time>2026-04-04T08:31:35.816Z</time></trkpt><trkpt lat="42.9707217" lon="13.7437433"><ele>99.0</ele><time>2026-04-04T08:31:36.816Z</time></trkpt><trkpt lat="42.9707417" lon="13.743555"><ele>99.0</ele><time>2026-04-04T08:31:37.815Z</time></trkpt><trkpt lat="42.97077" lon="13.7433667"><ele>99.0</ele><time>2026-04-04T08:31:38.815Z</time></trkpt><trkpt lat="42.9708017" lon="13.74317"><ele>99.25</ele><time>2026-04-04T08:31:39.815Z</time></trkpt><trkpt lat="42.9708283" lon="13.7429817"><ele>99.5</ele><time>2026-04-04T08:31:40.815Z</time></trkpt><trkpt lat="42.970855" lon="13.7427933"><ele>99.75</ele><time>2026-04-04T08:31:41.816Z</time></trkpt><trkpt lat="42.9708867" lon="13.74259"><ele>100.0</ele><time>2026-04-04T08:31:42.815Z</time></trkpt><trkpt lat="42.9709133" lon="13.742395"><ele>100.0</ele><time>2026-04-04T08:31:43.816Z</time></trkpt><trkpt lat="42.9709433" lon="13.74221"><ele>100.0</ele><time>2026-04-04T08:31:44.816Z</time></trkpt><trkpt lat="42.9709583" lon="13.742035"><ele>100.0</ele><time>2026-04-04T08:31:45.816Z</time></trkpt><trkpt lat="42.9709717" lon="13.7418617"><ele>100.0</ele><time>2026-04-04T08:31:46.816Z</time></trkpt><trkpt lat="42.9709883" lon="13.741705"><ele>100.4</ele><time>2026-04-04T08:31:47.816Z</time></trkpt><trkpt lat="42.9710017" lon="13.74157"><ele>100.8</ele><time>2026-04-04T08:31:48.816Z</time></trkpt><trkpt lat="42.9710133" lon="13.741455"><ele>101.19999999999999</ele><time>2026-04-04T08:31:49.816Z</time></trkpt><trkpt lat="42.97103" lon="13.7413067"><ele>101.6</ele><time>2026-04-04T08:31:51.815Z</time></trkpt><trkpt lat="42.97105" lon="13.7411867"><ele>102.0</ele><time>2026-04-04T08:31:53.816Z</time></trkpt><trkpt lat="42.9710583" lon="13.7410217"><ele>102.0</ele><time>2026-04-04T08:31:55.815Z</time></trkpt><trkpt lat="42.9710517" lon="13.7409033"><ele>102.0</ele><time>2026-04-04T08:31:56.815Z</time></trkpt><trkpt lat="42.9710417" lon="13.7407667"><ele>102.0</ele><time>2026-04-04T08:31:57.815Z</time></trkpt><trkpt lat="42.9710267" lon="13.7406217"><ele>102.0</ele><time>2026-04-04T08:31:58.815Z</time></trkpt><trkpt lat="42.9710133" lon="13.7404583"><ele>102.0</ele><time>2026-04-04T08:31:59.816Z</time></trkpt><trkpt lat="42.9709883" lon="13.7402917"><ele>102.0</ele><time>2026-04-04T08:32:00.816Z</time></trkpt><trkpt lat="42.9709733" lon="13.7401267"><ele>102.0</ele><time>2026-04-04T08:32:01.816Z</time></trkpt><trkpt lat="42.9709633" lon="13.7399633"><ele>102.0</ele><time>2026-04-04T08:32:02.815Z</time></trkpt><trkpt lat="42.970955" lon="13.7397933"><ele>102.0</ele><time>2026-04-04T08:32:03.815Z</time></trkpt><trkpt lat="42.970945" lon="13.7396167"><ele>102.0</ele><time>2026-04-04T08:32:04.815Z</time></trkpt><trkpt lat="42.9709333" lon="13.739435"><ele>102.0</ele><time>2026-04-04T08:32:05.816Z</time></trkpt><trkpt lat="42.97091" lon="13.739245"><ele>102.0</ele><time>2026-04-04T08:32:06.815Z</time></trkpt><trkpt lat="42.9708917" lon="13.7390417"><ele>102.0</ele><time>2026-04-04T08:32:07.815Z</time></trkpt><trkpt lat="42.9708733" lon="13.7388367"><ele>103.0</ele><time>2026-04-04T08:32:08.815Z</time></trkpt><trkpt lat="42.9708517" lon="13.73865"><ele>104.0</ele><time>2026-04-04T08:32:09.815Z</time></trkpt><trkpt lat="42.9708367" lon="13.73846"><ele>105.0</ele><time>2026-04-04T08:32:10.816Z</time></trkpt><trkpt lat="42.9708317" lon="13.7382767"><ele>106.0</ele><time>2026-04-04T08:32:11.815Z</time></trkpt><trkpt lat="42.97083" lon="13.7380983"><ele>106.25</ele><time>2026-04-04T08:32:12.816Z</time></trkpt><trkpt lat="42.9708317" lon="13.7379117"><ele>106.5</ele><time>2026-04-04T08:32:13.815Z</time></trkpt><trkpt lat="42.9708267" lon="13.7377317"><ele>106.75</ele><time>2026-04-04T08:32:14.815Z</time></trkpt><trkpt lat="42.97083" lon="13.7375483"><ele>107.0</ele><time>2026-04-04T08:32:15.816Z</time></trkpt><trkpt lat="42.9708283" lon="13.7373567"><ele>107.0</ele><time>2026-04-04T08:32:16.816Z</time></trkpt><trkpt lat="42.9708233" lon="13.7371567"><ele>107.0</ele><time>2026-04-04T08:32:17.815Z</time></trkpt><trkpt lat="42.9708133" lon="13.7369533"><ele>107.0</ele><time>2026-04-04T08:32:18.816Z</time></trkpt><trkpt lat="42.9708117" lon="13.7367433"><ele>107.0</ele><time>2026-04-04T08:32:19.815Z</time></trkpt><trkpt lat="42.9708033" lon="13.736535"><ele>107.0</ele><time>2026-04-04T08:32:20.816Z</time></trkpt><trkpt lat="42.9708033" lon="13.736345"><ele>107.0</ele><time>2026-04-04T08:32:21.816Z</time></trkpt><trkpt lat="42.970805" lon="13.7361417"><ele>107.0</ele><time>2026-04-04T08:32:22.815Z</time></trkpt><trkpt lat="42.970805" lon="13.7358983"><ele>107.33333333333333</ele><time>2026-04-04T08:32:23.816Z</time></trkpt><trkpt lat="42.9708033" lon="13.73566"><ele>107.66666666666666</ele><time>2026-04-04T08:32:24.815Z</time></trkpt><trkpt lat="42.9708" lon="13.735455"><ele>108.0</ele><time>2026-04-04T08:32:25.815Z</time></trkpt><trkpt lat="42.9708067" lon="13.7352533"><ele>108.66666666666666</ele><time>2026-04-04T08:32:26.816Z</time></trkpt><trkpt lat="42.9708083" lon="13.73501"><ele>109.33333333333333</ele><time>2026-04-04T08:32:27.815Z</time></trkpt><trkpt lat="42.9708083" lon="13.7347567"><ele>110.0</ele><time>2026-04-04T08:32:28.816Z</time></trkpt><trkpt lat="42.970815" lon="13.7345333"><ele>110.25</ele><time>2026-04-04T08:32:29.815Z</time></trkpt><trkpt lat="42.970825" lon="13.7343267"><ele>110.5</ele><time>2026-04-04T08:32:30.815Z</time></trkpt><trkpt lat="42.97082" lon="13.734125"><ele>110.75</ele><time>2026-04-04T08:32:31.816Z</time></trkpt><trkpt lat="42.9708083" lon="13.733935"><ele>111.0</ele><time>2026-04-04T08:32:32.815Z</time></trkpt><trkpt lat="42.9707983" lon="13.7337583"><ele>111.0</ele><time>2026-04-04T08:32:33.815Z</time></trkpt><trkpt lat="42.9707883" lon="13.73359"><ele>111.0</ele><time>2026-04-04T08:32:34.815Z</time></trkpt><trkpt lat="42.970785" lon="13.7334283"><ele>111.0</ele><time>2026-04-04T08:32:35.815Z</time></trkpt><trkpt lat="42.9707883" lon="13.7332567"><ele>111.0</ele><time>2026-04-04T08:32:36.816Z</time></trkpt><trkpt lat="42.97078" lon="13.7330917"><ele>110.75</ele><time>2026-04-04T08:32:37.815Z</time></trkpt><trkpt lat="42.9707683" lon="13.7329267"><ele>110.5</ele><time>2026-04-04T08:32:38.815Z</time></trkpt><trkpt lat="42.970745" lon="13.7327617"><ele>110.25</ele><time>2026-04-04T08:32:39.815Z</time></trkpt><trkpt lat="42.970725" lon="13.7326117"><ele>110.0</ele><time>2026-04-04T08:32:40.815Z</time></trkpt><trkpt lat="42.9707067" lon="13.7324783"><ele>109.99999999999999</ele><time>2026-04-04T08:32:41.815Z</time></trkpt><trkpt lat="42.9706883" lon="13.7323317"><ele>110.0</ele><time>2026-04-04T08:32:42.815Z</time></trkpt><trkpt lat="42.9706683" lon="13.7322067"><ele>110.0</ele><time>2026-04-04T08:32:43.816Z</time></trkpt><trkpt lat="42.970645" lon="13.7320917"><ele>110.0</ele><time>2026-04-04T08:32:44.815Z</time></trkpt><trkpt lat="42.9706367" lon="13.7319883"><ele>109.99999999999999</ele><time>2026-04-04T08:32:45.815Z</time></trkpt><trkpt lat="42.9706233" lon="13.7318883"><ele>110.0</ele><time>2026-04-04T08:32:46.815Z</time></trkpt><trkpt lat="42.9706083" lon="13.7317883"><ele>110.16666666666666</ele><time>2026-04-04T08:32:47.815Z</time></trkpt><trkpt lat="42.970595" lon="13.7317"><ele>110.33333333333333</ele><time>2026-04-04T08:32:48.815Z</time></trkpt><trkpt lat="42.9705717" lon="13.7315317"><ele>110.5</ele><time>2026-04-04T08:32:50.816Z</time></trkpt><trkpt lat="42.9705567" lon="13.73144"><ele>110.66666666666666</ele><time>2026-04-04T08:32:51.815Z</time></trkpt><trkpt lat="42.9705383" lon="13.7313367"><ele>110.83333333333333</ele><time>2026-04-04T08:32:52.816Z</time></trkpt><trkpt lat="42.9705267" lon="13.7312383"><ele>111.0</ele><time>2026-04-04T08:32:53.816Z</time></trkpt><trkpt lat="42.9705117" lon="13.731005"><ele>111.0</ele><time>2026-04-04T08:32:55.815Z</time></trkpt><trkpt lat="42.9705117" lon="13.73088"><ele>111.0</ele><time>2026-04-04T08:32:56.816Z</time></trkpt><trkpt lat="42.9704983" lon="13.73075"><ele>111.0</ele><time>2026-04-04T08:32:57.816Z</time></trkpt><trkpt lat="42.9704833" lon="13.7306133"><ele>111.0</ele><time>2026-04-04T08:32:58.815Z</time></trkpt><trkpt lat="42.970465" lon="13.7304733"><ele>111.0</ele><time>2026-04-04T08:32:59.815Z</time></trkpt><trkpt lat="42.97044" lon="13.73032"><ele>110.75</ele><time>2026-04-04T08:33:00.815Z</time></trkpt><trkpt lat="42.9704233" lon="13.73017"><ele>110.5</ele><time>2026-04-04T08:33:01.816Z</time></trkpt><trkpt lat="42.9704117" lon="13.730015"><ele>110.25</ele><time>2026-04-04T08:33:02.815Z</time></trkpt><trkpt lat="42.97039" lon="13.729845"><ele>110.0</ele><time>2026-04-04T08:33:03.815Z</time></trkpt><trkpt lat="42.9703683" lon="13.72968"><ele>110.0</ele><time>2026-04-04T08:33:04.816Z</time></trkpt><trkpt lat="42.9703533" lon="13.729515"><ele>110.0</ele><time>2026-04-04T08:33:05.815Z</time></trkpt><trkpt lat="42.97034" lon="13.7293517"><ele>110.0</ele><time>2026-04-04T08:33:06.816Z</time></trkpt><trkpt lat="42.9703233" lon="13.72918"><ele>110.0</ele><time>2026-04-04T08:33:07.816Z</time></trkpt><trkpt lat="42.9702983" lon="13.7290033"><ele>110.5</ele><time>2026-04-04T08:33:08.815Z</time></trkpt><trkpt lat="42.9702767" lon="13.7288283"><ele>111.0</ele><time>2026-04-04T08:33:09.815Z</time></trkpt><trkpt lat="42.97026" lon="13.7286517"><ele>111.5</ele><time>2026-04-04T08:33:10.816Z</time></trkpt><trkpt lat="42.9702383" lon="13.7284683"><ele>112.0</ele><time>2026-04-04T08:33:11.816Z</time></trkpt><trkpt lat="42.9702167" lon="13.7282867"><ele>112.0</ele><time>2026-04-04T08:33:12.815Z</time></trkpt><trkpt lat="42.9701967" lon="13.728105"><ele>112.0</ele><time>2026-04-04T08:33:13.816Z</time></trkpt><trkpt lat="42.9701733" lon="13.727915"><ele>112.0</ele><time>2026-04-04T08:33:14.815Z</time></trkpt><trkpt lat="42.97015" lon="13.727735"><ele>112.0</ele><time>2026-04-04T08:33:15.816Z</time></trkpt><trkpt lat="42.9701267" lon="13.72755"><ele>112.0</ele><time>2026-04-04T08:33:16.815Z</time></trkpt><trkpt lat="42.9701133" lon="13.72737"><ele>112.0</ele><time>2026-04-04T08:33:17.816Z</time></trkpt><trkpt lat="42.9700917" lon="13.7271817"><ele>112.0</ele><time>2026-04-04T08:33:18.815Z</time></trkpt><trkpt lat="42.97007" lon="13.726985"><ele>112.0</ele><time>2026-04-04T08:33:19.816Z</time></trkpt><trkpt lat="42.9700433" lon="13.7267883"><ele>113.0</ele><time>2026-04-04T08:33:20.815Z</time></trkpt><trkpt lat="42.9700167" lon="13.72659"><ele>114.0</ele><time>2026-04-04T08:33:21.816Z</time></trkpt><trkpt lat="42.9699883" lon="13.726395"><ele>115.0</ele><time>2026-04-04T08:33:22.816Z</time></trkpt><trkpt lat="42.96997" lon="13.7262033"><ele>116.0</ele><time>2026-04-04T08:33:23.815Z</time></trkpt><trkpt lat="42.9699533" lon="13.726015"><ele>116.25</ele><time>2026-04-04T08:33:24.816Z</time></trkpt><trkpt lat="42.9699383" lon="13.7258267"><ele>116.5</ele><time>2026-04-04T08:33:25.815Z</time></trkpt><trkpt lat="42.969915" lon="13.7256417"><ele>116.75</ele><time>2026-04-04T08:33:26.815Z</time></trkpt><trkpt lat="42.9698917" lon="13.72546"><ele>117.0</ele><time>2026-04-04T08:33:27.815Z</time></trkpt><trkpt lat="42.9698633" lon="13.7252633"><ele>117.0</ele><time>2026-04-04T08:33:28.815Z</time></trkpt><trkpt lat="42.9698317" lon="13.7250667"><ele>117.0</ele><time>2026-04-04T08:33:29.816Z</time></trkpt><trkpt lat="42.9697917" lon="13.7248717"><ele>117.0</ele><time>2026-04-04T08:33:30.816Z</time></trkpt><trkpt lat="42.969755" lon="13.7246683"><ele>117.0</ele><time>2026-04-04T08:33:31.816Z</time></trkpt><trkpt lat="42.9697167" lon="13.7244683"><ele>117.25</ele><time>2026-04-04T08:33:32.815Z</time></trkpt><trkpt lat="42.969685" lon="13.7242683"><ele>117.5</ele><time>2026-04-04T08:33:33.816Z</time></trkpt><trkpt lat="42.9696567" lon="13.724065"><ele>117.75</ele><time>2026-04-04T08:33:34.815Z</time></trkpt><trkpt lat="42.9696217" lon="13.7238767"><ele>118.0</ele><time>2026-04-04T08:33:35.816Z</time></trkpt><trkpt lat="42.9695867" lon="13.7236867"><ele>118.5</ele><time>2026-04-04T08:33:36.815Z</time></trkpt><trkpt lat="42.9695567" lon="13.7235"><ele>119.0</ele><time>2026-04-04T08:33:37.815Z</time></trkpt><trkpt lat="42.9695233" lon="13.7233017"><ele>119.5</ele><time>2026-04-04T08:33:38.815Z</time></trkpt><trkpt lat="42.9694917" lon="13.7230983"><ele>120.0</ele><time>2026-04-04T08:33:39.816Z</time></trkpt><trkpt lat="42.9694533" lon="13.722895"><ele>120.33333333333334</ele><time>2026-04-04T08:33:40.815Z</time></trkpt><trkpt lat="42.9694183" lon="13.7226983"><ele>120.66666666666667</ele><time>2026-04-04T08:33:41.815Z</time></trkpt><trkpt lat="42.9693767" lon="13.7224833"><ele>121.0</ele><time>2026-04-04T08:33:42.815Z</time></trkpt><trkpt lat="42.9693433" lon="13.7222717"><ele>121.0</ele><time>2026-04-04T08:33:43.815Z</time></trkpt><trkpt lat="42.969315" lon="13.7220717"><ele>121.0</ele><time>2026-04-04T08:33:44.815Z</time></trkpt><trkpt lat="42.9692817" lon="13.7218733"><ele>121.0</ele><time>2026-04-04T08:33:45.816Z</time></trkpt><trkpt lat="42.969245" lon="13.7216733"><ele>121.0</ele><time>2026-04-04T08:33:46.815Z</time></trkpt><trkpt lat="42.9692" lon="13.7214717"><ele>121.33333333333334</ele><time>2026-04-04T08:33:47.816Z</time></trkpt><trkpt lat="42.9691567" lon="13.721265"><ele>121.66666666666666</ele><time>2026-04-04T08:33:48.815Z</time></trkpt><trkpt lat="42.9691033" lon="13.72106"><ele>122.0</ele><time>2026-04-04T08:33:49.816Z</time></trkpt><trkpt lat="42.96906" lon="13.7208617"><ele>122.25</ele><time>2026-04-04T08:33:50.815Z</time></trkpt><trkpt lat="42.969015" lon="13.7206633"><ele>122.5</ele><time>2026-04-04T08:33:51.816Z</time></trkpt><trkpt lat="42.9689733" lon="13.7204717"><ele>122.75</ele><time>2026-04-04T08:33:52.816Z</time></trkpt><trkpt lat="42.9689417" lon="13.7202883"><ele>123.0</ele><time>2026-04-04T08:33:53.815Z</time></trkpt><trkpt lat="42.9689033" lon="13.7200917"><ele>123.25</ele><time>2026-04-04T08:33:54.815Z</time></trkpt><trkpt lat="42.9688717" lon="13.7199017"><ele>123.5</ele><time>2026-04-04T08:33:55.816Z</time></trkpt><trkpt lat="42.9688283" lon="13.7197117"><ele>123.75</ele><time>2026-04-04T08:33:56.815Z</time></trkpt><trkpt lat="42.9687933" lon="13.7195167"><ele>124.0</ele><time>2026-04-04T08:33:57.815Z</time></trkpt><trkpt lat="42.96875" lon="13.7193217"><ele>124.0</ele><time>2026-04-04T08:33:58.815Z</time></trkpt><trkpt lat="42.9687083" lon="13.7191267"><ele>124.0</ele><time>2026-04-04T08:33:59.816Z</time></trkpt><trkpt lat="42.968655" lon="13.7189417"><ele>124.0</ele><time>2026-04-04T08:34:00.815Z</time></trkpt><trkpt lat="42.9686083" lon="13.718755"><ele>124.0</ele><time>2026-04-04T08:34:01.815Z</time></trkpt><trkpt lat="42.968565" lon="13.71857"><ele>124.0</ele><time>2026-04-04T08:34:02.815Z</time></trkpt><trkpt lat="42.968525" lon="13.71839"><ele>124.0</ele><time>2026-04-04T08:34:03.815Z</time></trkpt><trkpt lat="42.9684967" lon="13.71821"><ele>124.0</ele><time>2026-04-04T08:34:04.815Z</time></trkpt><trkpt lat="42.9684667" lon="13.7180383"><ele>124.0</ele><time>2026-04-04T08:34:05.816Z</time></trkpt><trkpt lat="42.9684267" lon="13.7178617"><ele>123.75</ele><time>2026-04-04T08:34:06.815Z</time></trkpt><trkpt lat="42.9683917" lon="13.7176933"><ele>123.5</ele><time>2026-04-04T08:34:07.816Z</time></trkpt><trkpt lat="42.96836" lon="13.7175217"><ele>123.25</ele><time>2026-04-04T08:34:08.816Z</time></trkpt><trkpt lat="42.9683267" lon="13.7173483"><ele>123.0</ele><time>2026-04-04T08:34:09.816Z</time></trkpt><trkpt lat="42.9682883" lon="13.717175"><ele>123.75</ele><time>2026-04-04T08:34:10.815Z</time></trkpt><trkpt lat="42.9682467" lon="13.7169983"><ele>124.5</ele><time>2026-04-04T08:34:11.815Z</time></trkpt><trkpt lat="42.9682167" lon="13.7168233"><ele>125.25</ele><time>2026-04-04T08:34:12.815Z</time></trkpt><trkpt lat="42.9681767" lon="13.7166483"><ele>126.0</ele><time>2026-04-04T08:34:13.815Z</time></trkpt><trkpt lat="42.9681383" lon="13.716475"><ele>126.25</ele><time>2026-04-04T08:34:14.815Z</time></trkpt><trkpt lat="42.9680983" lon="13.7162917"><ele>126.5</ele><time>2026-04-04T08:34:15.816Z</time></trkpt><trkpt lat="42.968065" lon="13.7161167"><ele>126.75</ele><time>2026-04-04T08:34:16.815Z</time></trkpt><trkpt lat="42.9680283" lon="13.7159417"><ele>127.0</ele><time>2026-04-04T08:34:17.816Z</time></trkpt><trkpt lat="42.967995" lon="13.7157717"><ele>127.25</ele><time>2026-04-04T08:34:18.815Z</time></trkpt><trkpt lat="42.9679567" lon="13.7156033"><ele>127.5</ele><time>2026-04-04T08:34:19.816Z</time></trkpt><trkpt lat="42.9679233" lon="13.7154333"><ele>127.75</ele><time>2026-04-04T08:34:20.815Z</time></trkpt><trkpt lat="42.96789" lon="13.715265"><ele>128.0</ele><time>2026-04-04T08:34:21.815Z</time></trkpt><trkpt lat="42.9678467" lon="13.7150983"><ele>128.25</ele><time>2026-04-04T08:34:22.815Z</time></trkpt><trkpt lat="42.9678067" lon="13.7149317"><ele>128.5</ele><time>2026-04-04T08:34:23.816Z</time></trkpt><trkpt lat="42.9677683" lon="13.7147617"><ele>128.75</ele><time>2026-04-04T08:34:24.816Z</time></trkpt><trkpt lat="42.9677333" lon="13.71459"><ele>129.0</ele><time>2026-04-04T08:34:25.815Z</time></trkpt><trkpt lat="42.9677" lon="13.7144217"><ele>128.75</ele><time>2026-04-04T08:34:26.816Z</time></trkpt><trkpt lat="42.967675" lon="13.7142517"><ele>128.5</ele><time>2026-04-04T08:34:27.815Z</time></trkpt><trkpt lat="42.9676367" lon="13.71408"><ele>128.25</ele><time>2026-04-04T08:34:28.816Z</time></trkpt><trkpt lat="42.967595" lon="13.7139167"><ele>128.0</ele><time>2026-04-04T08:34:29.815Z</time></trkpt><trkpt lat="42.9675583" lon="13.71375"><ele>128.0</ele><time>2026-04-04T08:34:30.815Z</time></trkpt><trkpt lat="42.9675283" lon="13.7135817"><ele>128.0</ele><time>2026-04-04T08:34:31.816Z</time></trkpt><trkpt lat="42.9674983" lon="13.713405"><ele>128.0</ele><time>2026-04-04T08:34:32.816Z</time></trkpt><trkpt lat="42.9674633" lon="13.7132367"><ele>128.0</ele><time>2026-04-04T08:34:33.815Z</time></trkpt><trkpt lat="42.9674283" lon="13.713065"><ele>128.25</ele><time>2026-04-04T08:34:34.816Z</time></trkpt><trkpt lat="42.96739" lon="13.7128917"><ele>128.5</ele><time>2026-04-04T08:34:35.815Z</time></trkpt><trkpt lat="42.9673633" lon="13.7127233"><ele>128.75</ele><time>2026-04-04T08:34:36.816Z</time></trkpt><trkpt lat="42.9673317" lon="13.7125833"><ele>129.0</ele><time>2026-04-04T08:34:37.816Z</time></trkpt><trkpt lat="42.9673117" lon="13.7124433"><ele>129.16666666666666</ele><time>2026-04-04T08:34:38.815Z</time></trkpt><trkpt lat="42.9672867" lon="13.7123133"><ele>129.33333333333334</ele><time>2026-04-04T08:34:39.815Z</time></trkpt><trkpt lat="42.9672683" lon="13.7121833"><ele>129.5</ele><time>2026-04-04T08:34:40.816Z</time></trkpt><trkpt lat="42.9672533" lon="13.7120633"><ele>129.66666666666669</ele><time>2026-04-04T08:34:41.815Z</time></trkpt><trkpt lat="42.967255" lon="13.71196"><ele>129.83333333333334</ele><time>2026-04-04T08:34:42.815Z</time></trkpt><trkpt lat="42.9672517" lon="13.71185"><ele>130.0</ele><time>2026-04-04T08:34:43.815Z</time></trkpt><trkpt lat="42.9672433" lon="13.7117417"><ele>130.0</ele><time>2026-04-04T08:34:44.815Z</time></trkpt><trkpt lat="42.9672217" lon="13.7116317"><ele>130.0</ele><time>2026-04-04T08:34:45.816Z</time></trkpt><trkpt lat="42.9671817" lon="13.7115083"><ele>130.0</ele><time>2026-04-04T08:34:46.816Z</time></trkpt><trkpt lat="42.9671283" lon="13.7113883"><ele>130.0</ele><time>2026-04-04T08:34:47.816Z</time></trkpt><trkpt lat="42.967065" lon="13.71126"><ele>130.0</ele><time>2026-04-04T08:34:48.816Z</time></trkpt><trkpt lat="42.9670117" lon="13.71112"><ele>130.5</ele><time>2026-04-04T08:34:49.816Z</time></trkpt><trkpt lat="42.96697" lon="13.71097"><ele>131.0</ele><time>2026-04-04T08:34:50.816Z</time></trkpt><trkpt lat="42.966925" lon="13.710795"><ele>131.5</ele><time>2026-04-04T08:34:51.815Z</time></trkpt><trkpt lat="42.9668867" lon="13.710615"><ele>132.0</ele><time>2026-04-04T08:34:52.815Z</time></trkpt><trkpt lat="42.96684" lon="13.71043"><ele>131.66666666666666</ele><time>2026-04-04T08:34:53.815Z</time></trkpt><trkpt lat="42.9667983" lon="13.710225"><ele>131.33333333333331</ele><time>2026-04-04T08:34:54.816Z</time></trkpt><trkpt lat="42.9667567" lon="13.7100217"><ele>131.0</ele><time>2026-04-04T08:34:55.816Z</time></trkpt><trkpt lat="42.9667117" lon="13.7098083"><ele>132.0</ele><time>2026-04-04T08:34:56.815Z</time></trkpt><trkpt lat="42.9666617" lon="13.7096017"><ele>133.0</ele><time>2026-04-04T08:34:57.816Z</time></trkpt><trkpt lat="42.96661" lon="13.7093833"><ele>134.0</ele><time>2026-04-04T08:34:58.815Z</time></trkpt><trkpt lat="42.9665583" lon="13.7091767"><ele>134.0</ele><time>2026-04-04T08:34:59.816Z</time></trkpt><trkpt lat="42.9665133" lon="13.7089767"><ele>134.0</ele><time>2026-04-04T08:35:00.815Z</time></trkpt><trkpt lat="42.9664717" lon="13.708785"><ele>134.0</ele><time>2026-04-04T08:35:01.815Z</time></trkpt><trkpt lat="42.9664267" lon="13.7085867"><ele>134.66666666666666</ele><time>2026-04-04T08:35:02.815Z</time></trkpt><trkpt lat="42.966385" lon="13.7083833"><ele>135.33333333333334</ele><time>2026-04-04T08:35:03.815Z</time></trkpt><trkpt lat="42.9663383" lon="13.7081717"><ele>136.0</ele><time>2026-04-04T08:35:04.815Z</time></trkpt><trkpt lat="42.9662917" lon="13.7079583"><ele>136.0</ele><time>2026-04-04T08:35:05.815Z</time></trkpt><trkpt lat="42.9662533" lon="13.7077317"><ele>136.0</ele><time>2026-04-04T08:35:06.815Z</time></trkpt><trkpt lat="42.9662167" lon="13.7074967"><ele>136.0</ele><time>2026-04-04T08:35:07.816Z</time></trkpt><trkpt lat="42.9661717" lon="13.707275"><ele>136.0</ele><time>2026-04-04T08:35:08.816Z</time></trkpt><trkpt lat="42.9661283" lon="13.707055"><ele>136.0</ele><time>2026-04-04T08:35:09.815Z</time></trkpt><trkpt lat="42.9660883" lon="13.7068383"><ele>136.0</ele><time>2026-04-04T08:35:10.815Z</time></trkpt><trkpt lat="42.96604" lon="13.70663"><ele>136.0</ele><time>2026-04-04T08:35:11.815Z</time></trkpt><trkpt lat="42.9659933" lon="13.7064217"><ele>136.0</ele><time>2026-04-04T08:35:12.816Z</time></trkpt><trkpt lat="42.96595" lon="13.7062183"><ele>136.0</ele><time>2026-04-04T08:35:13.815Z</time></trkpt><trkpt lat="42.9659067" lon="13.7060133"><ele>136.33333333333334</ele><time>2026-04-04T08:35:14.815Z</time></trkpt><trkpt lat="42.96586" lon="13.7058133"><ele>136.66666666666666</ele><time>2026-04-04T08:35:15.816Z</time></trkpt><trkpt lat="42.9658183" lon="13.70561"><ele>137.0</ele><time>2026-04-04T08:35:16.815Z</time></trkpt><trkpt lat="42.9657667" lon="13.705405"><ele>137.0</ele><time>2026-04-04T08:35:17.815Z</time></trkpt><trkpt lat="42.965725" lon="13.7052017"><ele>137.0</ele><time>2026-04-04T08:35:18.815Z</time></trkpt><trkpt lat="42.9656783" lon="13.7049967"><ele>137.0</ele><time>2026-04-04T08:35:19.816Z</time></trkpt><trkpt lat="42.9656333" lon="13.7047917"><ele>137.0</ele><time>2026-04-04T08:35:20.815Z</time></trkpt><trkpt lat="42.965595" lon="13.70459"><ele>137.0</ele><time>2026-04-04T08:35:21.815Z</time></trkpt><trkpt lat="42.9655467" lon="13.70439"><ele>137.0</ele><time>2026-04-04T08:35:22.816Z</time></trkpt><trkpt lat="42.9654983" lon="13.7041833"><ele>137.33333333333331</ele><time>2026-04-04T08:35:23.816Z</time></trkpt><trkpt lat="42.96545" lon="13.7039767"><ele>137.66666666666666</ele><time>2026-04-04T08:35:24.815Z</time></trkpt><trkpt lat="42.9654117" lon="13.703775"><ele>138.0</ele><time>2026-04-04T08:35:25.815Z</time></trkpt><trkpt lat="42.9653733" lon="13.70358"><ele>138.25</ele><time>2026-04-04T08:35:26.815Z</time></trkpt><trkpt lat="42.965335" lon="13.7033833"><ele>138.5</ele><time>2026-04-04T08:35:27.815Z</time></trkpt><trkpt lat="42.9652967" lon="13.703185"><ele>138.75</ele><time>2026-04-04T08:35:28.815Z</time></trkpt><trkpt lat="42.965255" lon="13.7029883"><ele>139.0</ele><time>2026-04-04T08:35:29.815Z</time></trkpt><trkpt lat="42.965205" lon="13.7027883"><ele>138.75</ele><time>2026-04-04T08:35:30.815Z</time></trkpt><trkpt lat="42.9651667" lon="13.70259"><ele>138.5</ele><time>2026-04-04T08:35:31.815Z</time></trkpt><trkpt lat="42.9651217" lon="13.702395"><ele>138.25</ele><time>2026-04-04T08:35:32.815Z</time></trkpt><trkpt lat="42.96508" lon="13.7022"><ele>138.0</ele><time>2026-04-04T08:35:33.815Z</time></trkpt><trkpt lat="42.9650483" lon="13.7020133"><ele>138.75</ele><time>2026-04-04T08:35:34.815Z</time></trkpt><trkpt lat="42.9650133" lon="13.7018167"><ele>139.5</ele><time>2026-04-04T08:35:35.815Z</time></trkpt><trkpt lat="42.9649867" lon="13.70162"><ele>140.25</ele><time>2026-04-04T08:35:36.815Z</time></trkpt><trkpt lat="42.9649517" lon="13.7014233"><ele>141.0</ele><time>2026-04-04T08:35:37.816Z</time></trkpt><trkpt lat="42.9649167" lon="13.7012183"><ele>141.0</ele><time>2026-04-04T08:35:38.816Z</time></trkpt><trkpt lat="42.9648817" lon="13.70102"><ele>141.0</ele><time>2026-04-04T08:35:39.815Z</time></trkpt><trkpt lat="42.9648417" lon="13.700815"><ele>141.0</ele><time>2026-04-04T08:35:40.816Z</time></trkpt><trkpt lat="42.96481" lon="13.7006067"><ele>141.0</ele><time>2026-04-04T08:35:41.815Z</time></trkpt><trkpt lat="42.9647733" lon="13.7003967"><ele>141.0</ele><time>2026-04-04T08:35:42.815Z</time></trkpt><trkpt lat="42.9647367" lon="13.7001933"><ele>141.0</ele><time>2026-04-04T08:35:43.816Z</time></trkpt><trkpt lat="42.9646933" lon="13.69998"><ele>141.0</ele><time>2026-04-04T08:35:44.815Z</time></trkpt><trkpt lat="42.96465" lon="13.69978"><ele>141.0</ele><time>2026-04-04T08:35:45.816Z</time></trkpt><trkpt lat="42.9645883" lon="13.6995817"><ele>141.0</ele><time>2026-04-04T08:35:46.815Z</time></trkpt><trkpt lat="42.9645383" lon="13.6993867"><ele>141.0</ele><time>2026-04-04T08:35:47.815Z</time></trkpt><trkpt lat="42.9644967" lon="13.6992017"><ele>141.0</ele><time>2026-04-04T08:35:48.815Z</time></trkpt><trkpt lat="42.9644533" lon="13.69902"><ele>141.0</ele><time>2026-04-04T08:35:49.816Z</time></trkpt><trkpt lat="42.9643967" lon="13.6988367"><ele>141.0</ele><time>2026-04-04T08:35:50.815Z</time></trkpt><trkpt lat="42.96434" lon="13.6986567"><ele>141.25</ele><time>2026-04-04T08:35:51.815Z</time></trkpt><trkpt lat="42.964275" lon="13.6984867"><ele>141.5</ele><time>2026-04-04T08:35:52.815Z</time></trkpt><trkpt lat="42.964215" lon="13.6983067"><ele>141.75</ele><time>2026-04-04T08:35:53.815Z</time></trkpt><trkpt lat="42.9641633" lon="13.6981267"><ele>142.0</ele><time>2026-04-04T08:35:54.815Z</time></trkpt><trkpt lat="42.964105" lon="13.6979517"><ele>143.0</ele><time>2026-04-04T08:35:55.815Z</time></trkpt><trkpt lat="42.9640483" lon="13.6977817"><ele>144.0</ele><time>2026-04-04T08:35:56.815Z</time></trkpt><trkpt lat="42.963985" lon="13.6976183"><ele>145.0</ele><time>2026-04-04T08:35:57.816Z</time></trkpt><trkpt lat="42.9639267" lon="13.69745"><ele>146.0</ele><time>2026-04-04T08:35:58.816Z</time></trkpt><trkpt lat="42.9638717" lon="13.6972767"><ele>146.0</ele><time>2026-04-04T08:35:59.816Z</time></trkpt><trkpt lat="42.9638117" lon="13.6971"><ele>146.0</ele><time>2026-04-04T08:36:00.815Z</time></trkpt><trkpt lat="42.9637567" lon="13.69693"><ele>146.0</ele><time>2026-04-04T08:36:01.815Z</time></trkpt><trkpt lat="42.9636983" lon="13.6967567"><ele>146.0</ele><time>2026-04-04T08:36:02.816Z</time></trkpt><trkpt lat="42.9636433" lon="13.6965817"><ele>145.5</ele><time>2026-04-04T08:36:03.815Z</time></trkpt><trkpt lat="42.9635933" lon="13.6963983"><ele>145.0</ele><time>2026-04-04T08:36:04.816Z</time></trkpt><trkpt lat="42.9635467" lon="13.6962217"><ele>144.5</ele><time>2026-04-04T08:36:05.815Z</time></trkpt><trkpt lat="42.9635083" lon="13.6960467"><ele>144.0</ele><time>2026-04-04T08:36:06.815Z</time></trkpt><trkpt lat="42.96346" lon="13.6958817"><ele>143.75</ele><time>2026-04-04T08:36:07.815Z</time></trkpt><trkpt lat="42.9634083" lon="13.6957083"><ele>143.5</ele><time>2026-04-04T08:36:08.815Z</time></trkpt><trkpt lat="42.9633633" lon="13.695525"><ele>143.25</ele><time>2026-04-04T08:36:09.816Z</time></trkpt><trkpt lat="42.96332" lon="13.695345"><ele>143.0</ele><time>2026-04-04T08:36:10.814Z</time></trkpt><trkpt lat="42.9632783" lon="13.6951583"><ele>143.75</ele><time>2026-04-04T08:36:11.815Z</time></trkpt><trkpt lat="42.9632483" lon="13.6949767"><ele>144.5</ele><time>2026-04-04T08:36:12.814Z</time></trkpt><trkpt lat="42.9632117" lon="13.694805"><ele>145.25</ele><time>2026-04-04T08:36:13.814Z</time></trkpt><trkpt lat="42.963175" lon="13.6946233"><ele>146.0</ele><time>2026-04-04T08:36:14.814Z</time></trkpt><trkpt lat="42.96314" lon="13.69444"><ele>146.0</ele><time>2026-04-04T08:36:15.815Z</time></trkpt><trkpt lat="42.9631017" lon="13.6942583"><ele>146.0</ele><time>2026-04-04T08:36:16.814Z</time></trkpt><trkpt lat="42.9630683" lon="13.6940733"><ele>146.0</ele><time>2026-04-04T08:36:17.815Z</time></trkpt><trkpt lat="42.96305" lon="13.6938917"><ele>146.0</ele><time>2026-04-04T08:36:18.814Z</time></trkpt><trkpt lat="42.96303" lon="13.693705"><ele>146.5</ele><time>2026-04-04T08:36:19.815Z</time></trkpt><trkpt lat="42.96301" lon="13.6935133"><ele>147.0</ele><time>2026-04-04T08:36:20.814Z</time></trkpt><trkpt lat="42.9629867" lon="13.6933283"><ele>147.5</ele><time>2026-04-04T08:36:21.815Z</time></trkpt><trkpt lat="42.9629533" lon="13.6931567"><ele>148.0</ele><time>2026-04-04T08:36:22.814Z</time></trkpt><trkpt lat="42.9629283" lon="13.6929717"><ele>148.0</ele><time>2026-04-04T08:36:23.814Z</time></trkpt><trkpt lat="42.9629083" lon="13.69278"><ele>148.0</ele><time>2026-04-04T08:36:24.814Z</time></trkpt><trkpt lat="42.9628883" lon="13.6925967"><ele>148.0</ele><time>2026-04-04T08:36:25.814Z</time></trkpt><trkpt lat="42.9628533" lon="13.6924117"><ele>148.0</ele><time>2026-04-04T08:36:26.814Z</time></trkpt><trkpt lat="42.9628183" lon="13.6922233"><ele>148.25</ele><time>2026-04-04T08:36:27.814Z</time></trkpt><trkpt lat="42.9627917" lon="13.6920267"><ele>148.5</ele><time>2026-04-04T08:36:28.814Z</time></trkpt><trkpt lat="42.96276" lon="13.6918367"><ele>148.75</ele><time>2026-04-04T08:36:29.814Z</time></trkpt><trkpt lat="42.9627317" lon="13.6916383"><ele>149.0</ele><time>2026-04-04T08:36:30.814Z</time></trkpt><trkpt lat="42.96271" lon="13.6914383"><ele>149.0</ele><time>2026-04-04T08:36:31.814Z</time></trkpt><trkpt lat="42.9626917" lon="13.6912367"><ele>149.0</ele><time>2026-04-04T08:36:32.815Z</time></trkpt><trkpt lat="42.9626817" lon="13.6910333"><ele>149.0</ele><time>2026-04-04T08:36:33.814Z</time></trkpt><trkpt lat="42.9626667" lon="13.6908367"><ele>149.0</ele><time>2026-04-04T08:36:34.815Z</time></trkpt><trkpt lat="42.962645" lon="13.69064"><ele>149.0</ele><time>2026-04-04T08:36:35.814Z</time></trkpt><trkpt lat="42.96262" lon="13.69044"><ele>149.0</ele><time>2026-04-04T08:36:36.814Z</time></trkpt><trkpt lat="42.962585" lon="13.6902483"><ele>149.0</ele><time>2026-04-04T08:36:37.815Z</time></trkpt><trkpt lat="42.962555" lon="13.6900533"><ele>149.0</ele><time>2026-04-04T08:36:38.815Z</time></trkpt><trkpt lat="42.9625417" lon="13.6898767"><ele>149.0</ele><time>2026-04-04T08:36:39.814Z</time></trkpt><trkpt lat="42.9625367" lon="13.6897183"><ele>149.0</ele><time>2026-04-04T08:36:40.815Z</time></trkpt><trkpt lat="42.9625433" lon="13.6895967"><ele>149.0</ele><time>2026-04-04T08:36:41.815Z</time></trkpt><trkpt lat="42.96255" lon="13.6894867"><ele>149.0</ele><time>2026-04-04T08:36:43.814Z</time></trkpt><trkpt lat="42.9625467" lon="13.68935"><ele>149.0</ele><time>2026-04-04T08:39:46.814Z</time></trkpt><trkpt lat="42.9625233" lon="13.6891933"><ele>149.4</ele><time>2026-04-04T08:39:48.814Z</time></trkpt><trkpt lat="42.9625167" lon="13.6890917"><ele>149.8</ele><time>2026-04-04T08:39:49.814Z</time></trkpt><trkpt lat="42.9624983" lon="13.688965"><ele>150.2</ele><time>2026-04-04T08:39:50.814Z</time></trkpt><trkpt lat="42.9624817" lon="13.6888317"><ele>150.6</ele><time>2026-04-04T08:39:51.814Z</time></trkpt><trkpt lat="42.962455" lon="13.6886783"><ele>151.0</ele><time>2026-04-04T08:39:52.815Z</time></trkpt><trkpt lat="42.96243" lon="13.6885133"><ele>151.0</ele><time>2026-04-04T08:39:53.814Z</time></trkpt><trkpt lat="42.9624117" lon="13.6883367"><ele>151.0</ele><time>2026-04-04T08:39:54.814Z</time></trkpt><trkpt lat="42.9623933" lon="13.68817"><ele>151.0</ele><time>2026-04-04T08:39:55.814Z</time></trkpt><trkpt lat="42.962375" lon="13.6880083"><ele>151.0</ele><time>2026-04-04T08:39:56.815Z</time></trkpt><trkpt lat="42.9623583" lon="13.68783"><ele>151.25</ele><time>2026-04-04T08:39:57.815Z</time></trkpt><trkpt lat="42.9623283" lon="13.687645"><ele>151.5</ele><time>2026-04-04T08:39:58.814Z</time></trkpt><trkpt lat="42.9623033" lon="13.6874583"><ele>151.75</ele><time>2026-04-04T08:39:59.814Z</time></trkpt><trkpt lat="42.96228" lon="13.68727"><ele>152.0</ele><time>2026-04-04T08:40:00.814Z</time></trkpt><trkpt lat="42.9622567" lon="13.68708"><ele>152.25</ele><time>2026-04-04T08:40:01.814Z</time></trkpt><trkpt lat="42.9622183" lon="13.6869017"><ele>152.5</ele><time>2026-04-04T08:40:02.815Z</time></trkpt><trkpt lat="42.9621917" lon="13.6867233"><ele>152.75</ele><time>2026-04-04T08:40:03.814Z</time></trkpt><trkpt lat="42.96217" lon="13.6865483"><ele>153.0</ele><time>2026-04-04T08:40:04.814Z</time></trkpt><trkpt lat="42.9621383" lon="13.6863783"><ele>153.0</ele><time>2026-04-04T08:40:05.815Z</time></trkpt><trkpt lat="42.9621217" lon="13.68622"><ele>153.0</ele><time>2026-04-04T08:40:06.814Z</time></trkpt><trkpt lat="42.9620983" lon="13.6860617"><ele>153.0</ele><time>2026-04-04T08:40:07.815Z</time></trkpt><trkpt lat="42.9620817" lon="13.6859033"><ele>153.0</ele><time>2026-04-04T08:40:08.814Z</time></trkpt><trkpt lat="42.96207" lon="13.68572"><ele>153.25</ele><time>2026-04-04T08:40:09.815Z</time></trkpt><trkpt lat="42.9620667" lon="13.6855433"><ele>153.5</ele><time>2026-04-04T08:40:10.815Z</time></trkpt><trkpt lat="42.9620533" lon="13.6853683"><ele>153.75</ele><time>2026-04-04T08:40:11.815Z</time></trkpt><trkpt lat="42.9620517" lon="13.68518"><ele>154.0</ele><time>2026-04-04T08:40:12.814Z</time></trkpt><trkpt lat="42.9620567" lon="13.6850117"><ele>154.75</ele><time>2026-04-04T08:40:13.814Z</time></trkpt><trkpt lat="42.9620683" lon="13.6848317"><ele>155.5</ele><time>2026-04-04T08:40:14.814Z</time></trkpt><trkpt lat="42.9620767" lon="13.68466"><ele>156.25</ele><time>2026-04-04T08:40:15.814Z</time></trkpt><trkpt lat="42.9620683" lon="13.6844817"><ele>157.0</ele><time>2026-04-04T08:40:16.814Z</time></trkpt><trkpt lat="42.9620683" lon="13.68431"><ele>157.25</ele><time>2026-04-04T08:40:17.814Z</time></trkpt><trkpt lat="42.9620617" lon="13.6841283"><ele>157.5</ele><time>2026-04-04T08:40:18.815Z</time></trkpt><trkpt lat="42.9620467" lon="13.6839467"><ele>157.75</ele><time>2026-04-04T08:40:19.814Z</time></trkpt><trkpt lat="42.96204" lon="13.6837683"><ele>158.0</ele><time>2026-04-04T08:40:20.814Z</time></trkpt><trkpt lat="42.96204" lon="13.6836033"><ele>157.75</ele><time>2026-04-04T08:40:21.815Z</time></trkpt><trkpt lat="42.9620417" lon="13.6834317"><ele>157.5</ele><time>2026-04-04T08:40:22.815Z</time></trkpt><trkpt lat="42.9620317" lon="13.6832467"><ele>157.25</ele><time>2026-04-04T08:40:23.815Z</time></trkpt><trkpt lat="42.9620267" lon="13.6830567"><ele>157.0</ele><time>2026-04-04T08:40:24.814Z</time></trkpt><trkpt lat="42.9620167" lon="13.6828567"><ele>157.25</ele><time>2026-04-04T08:40:25.815Z</time></trkpt><trkpt lat="42.9620117" lon="13.6826617"><ele>157.5</ele><time>2026-04-04T08:40:26.814Z</time></trkpt><trkpt lat="42.9620017" lon="13.682465"><ele>157.75</ele><time>2026-04-04T08:40:27.815Z</time></trkpt><trkpt lat="42.961995" lon="13.6822633"><ele>158.0</ele><time>2026-04-04T08:40:28.815Z</time></trkpt><trkpt lat="42.961975" lon="13.6820583"><ele>158.75</ele><time>2026-04-04T08:40:29.815Z</time></trkpt><trkpt lat="42.9619533" lon="13.6818583"><ele>159.5</ele><time>2026-04-04T08:40:30.814Z</time></trkpt><trkpt lat="42.961955" lon="13.6816617"><ele>160.25</ele><time>2026-04-04T08:40:31.814Z</time></trkpt><trkpt lat="42.9619617" lon="13.68146"><ele>161.0</ele><time>2026-04-04T08:40:32.814Z</time></trkpt><trkpt lat="42.961955" lon="13.681245"><ele>161.5</ele><time>2026-04-04T08:40:33.815Z</time></trkpt><trkpt lat="42.9619367" lon="13.6810383"><ele>162.0</ele><time>2026-04-04T08:40:34.814Z</time></trkpt><trkpt lat="42.9619367" lon="13.6808317"><ele>162.5</ele><time>2026-04-04T08:40:35.814Z</time></trkpt><trkpt lat="42.9619583" lon="13.6806367"><ele>163.0</ele><time>2026-04-04T08:40:36.814Z</time></trkpt><trkpt lat="42.9619867" lon="13.6804433"><ele>163.0</ele><time>2026-04-04T08:40:37.814Z</time></trkpt><trkpt lat="42.9620067" lon="13.6802517"><ele>163.0</ele><time>2026-04-04T08:40:38.814Z</time></trkpt><trkpt lat="42.9620533" lon="13.6800533"><ele>163.0</ele><time>2026-04-04T08:40:39.815Z</time></trkpt><trkpt lat="42.9620683" lon="13.6798683"><ele>163.0</ele><time>2026-04-04T08:40:40.815Z</time></trkpt><trkpt lat="42.9621083" lon="13.6796717"><ele>163.0</ele><time>2026-04-04T08:40:41.814Z</time></trkpt><trkpt lat="42.962135" lon="13.67949"><ele>163.0</ele><time>2026-04-04T08:40:42.813Z</time></trkpt><trkpt lat="42.9621583" lon="13.6793233"><ele>163.0</ele><time>2026-04-04T08:40:43.814Z</time></trkpt><trkpt lat="42.9621917" lon="13.679175"><ele>163.0</ele><time>2026-04-04T08:40:44.813Z</time></trkpt><trkpt lat="42.9622167" lon="13.679"><ele>163.25</ele><time>2026-04-04T08:40:45.814Z</time></trkpt><trkpt lat="42.96222" lon="13.6788333"><ele>163.5</ele><time>2026-04-04T08:40:46.814Z</time></trkpt><trkpt lat="42.962205" lon="13.67865"><ele>163.75</ele><time>2026-04-04T08:40:47.814Z</time></trkpt><trkpt lat="42.96218" lon="13.6784667"><ele>164.0</ele><time>2026-04-04T08:40:48.813Z</time></trkpt><trkpt lat="42.9621383" lon="13.6782917"><ele>164.5</ele><time>2026-04-04T08:40:49.813Z</time></trkpt><trkpt lat="42.9620867" lon="13.6781217"><ele>165.0</ele><time>2026-04-04T08:40:50.813Z</time></trkpt><trkpt lat="42.9620267" lon="13.6779483"><ele>165.5</ele><time>2026-04-04T08:40:51.813Z</time></trkpt><trkpt lat="42.9619533" lon="13.67778"><ele>166.0</ele><time>2026-04-04T08:40:52.813Z</time></trkpt><trkpt lat="42.9618783" lon="13.6776133"><ele>166.0</ele><time>2026-04-04T08:40:53.814Z</time></trkpt><trkpt lat="42.9617883" lon="13.677445"><ele>166.0</ele><time>2026-04-04T08:40:54.814Z</time></trkpt><trkpt lat="42.9617033" lon="13.677295"><ele>166.0</ele><time>2026-04-04T08:40:55.813Z</time></trkpt><trkpt lat="42.9616083" lon="13.67713"><ele>166.0</ele><time>2026-04-04T08:40:56.814Z</time></trkpt><trkpt lat="42.9615217" lon="13.676975"><ele>167.0</ele><time>2026-04-04T08:40:57.814Z</time></trkpt><trkpt lat="42.961435" lon="13.6768233"><ele>168.0</ele><time>2026-04-04T08:40:58.813Z</time></trkpt><trkpt lat="42.96134" lon="13.676675"><ele>169.0</ele><time>2026-04-04T08:40:59.813Z</time></trkpt><trkpt lat="42.9612483" lon="13.67655"><ele>170.0</ele><time>2026-04-04T08:41:00.813Z</time></trkpt><trkpt lat="42.9611367" lon="13.67643"><ele>170.0</ele><time>2026-04-04T08:41:01.813Z</time></trkpt><trkpt lat="42.9610283" lon="13.6762983"><ele>170.0</ele><time>2026-04-04T08:41:02.813Z</time></trkpt><trkpt lat="42.9609433" lon="13.6761833"><ele>170.0</ele><time>2026-04-04T08:41:03.814Z</time></trkpt><trkpt lat="42.9608517" lon="13.67609"><ele>170.0</ele><time>2026-04-04T08:41:04.814Z</time></trkpt><trkpt lat="42.9607817" lon="13.6760117"><ele>171.33333333333331</ele><time>2026-04-04T08:41:05.813Z</time></trkpt><trkpt lat="42.9607183" lon="13.6759567"><ele>172.66666666666666</ele><time>2026-04-04T08:41:06.813Z</time></trkpt><trkpt lat="42.9606683" lon="13.6758983"><ele>174.0</ele><time>2026-04-04T08:41:07.813Z</time></trkpt><trkpt lat="42.9606167" lon="13.675825"><ele>175.33333333333334</ele><time>2026-04-04T08:41:08.813Z</time></trkpt><trkpt lat="42.9605767" lon="13.6757233"><ele>176.66666666666669</ele><time>2026-04-04T08:41:09.814Z</time></trkpt><trkpt lat="42.960525" lon="13.675595"><ele>178.0</ele><time>2026-04-04T08:41:10.814Z</time></trkpt><trkpt lat="42.9604717" lon="13.6754667"><ele>178.0</ele><time>2026-04-04T08:41:11.813Z</time></trkpt><trkpt lat="42.9604367" lon="13.675335"><ele>178.0</ele><time>2026-04-04T08:41:12.813Z</time></trkpt><trkpt lat="42.9604017" lon="13.6752233"><ele>178.0</ele><time>2026-04-04T08:41:13.814Z</time></trkpt><trkpt lat="42.9603667" lon="13.675125"><ele>178.0</ele><time>2026-04-04T08:41:14.813Z</time></trkpt><trkpt lat="42.9603317" lon="13.6750333"><ele>178.0</ele><time>2026-04-04T08:41:15.814Z</time></trkpt><trkpt lat="42.9602933" lon="13.6749333"><ele>178.0</ele><time>2026-04-04T08:41:16.813Z</time></trkpt><trkpt lat="42.9602717" lon="13.6748217"><ele>178.0</ele><time>2026-04-04T08:41:17.814Z</time></trkpt><trkpt lat="42.9602633" lon="13.6746833"><ele>178.0</ele><time>2026-04-04T08:41:18.813Z</time></trkpt><trkpt lat="42.960265" lon="13.6745267"><ele>178.0</ele><time>2026-04-04T08:41:19.814Z</time></trkpt><trkpt lat="42.96027" lon="13.6743633"><ele>178.0</ele><time>2026-04-04T08:41:20.813Z</time></trkpt><trkpt lat="42.9602917" lon="13.6741983"><ele>179.2</ele><time>2026-04-04T08:41:21.813Z</time></trkpt><trkpt lat="42.9603083" lon="13.674025"><ele>180.4</ele><time>2026-04-04T08:41:22.813Z</time></trkpt><trkpt lat="42.9603117" lon="13.67387"><ele>181.6</ele><time>2026-04-04T08:41:23.814Z</time></trkpt><trkpt lat="42.960305" lon="13.6737283"><ele>182.79999999999998</ele><time>2026-04-04T08:41:24.813Z</time></trkpt><trkpt lat="42.960295" lon="13.6735883"><ele>184.0</ele><time>2026-04-04T08:41:25.813Z</time></trkpt><trkpt lat="42.9602917" lon="13.6734483"><ele>184.39999999999998</ele><time>2026-04-04T08:41:26.814Z</time></trkpt><trkpt lat="42.96028" lon="13.6733017"><ele>184.8</ele><time>2026-04-04T08:41:27.814Z</time></trkpt><trkpt lat="42.9602517" lon="13.6731633"><ele>185.2</ele><time>2026-04-04T08:41:28.813Z</time></trkpt><trkpt lat="42.960195" lon="13.67304"><ele>185.60000000000002</ele><time>2026-04-04T08:41:29.813Z</time></trkpt><trkpt lat="42.9601033" lon="13.6729217"><ele>186.0</ele><time>2026-04-04T08:41:30.814Z</time></trkpt><trkpt lat="42.9600017" lon="13.672815"><ele>184.0</ele><time>2026-04-04T08:41:31.813Z</time></trkpt><trkpt lat="42.9598933" lon="13.672715"><ele>182.0</ele><time>2026-04-04T08:41:32.813Z</time></trkpt><trkpt lat="42.9597867" lon="13.6726267"><ele>180.0</ele><time>2026-04-04T08:41:33.813Z</time></trkpt><trkpt lat="42.9596933" lon="13.6725183"><ele>178.0</ele><time>2026-04-04T08:41:34.814Z</time></trkpt><trkpt lat="42.9596033" lon="13.6723767"><ele>178.0</ele><time>2026-04-04T08:41:35.814Z</time></trkpt><trkpt lat="42.9595067" lon="13.672205"><ele>178.0</ele><time>2026-04-04T08:41:36.813Z</time></trkpt><trkpt lat="42.959425" lon="13.67203"><ele>178.0</ele><time>2026-04-04T08:41:37.813Z</time></trkpt><trkpt lat="42.9593583" lon="13.6718583"><ele>178.25</ele><time>2026-04-04T08:41:38.813Z</time></trkpt><trkpt lat="42.9592933" lon="13.671695"><ele>178.5</ele><time>2026-04-04T08:41:39.813Z</time></trkpt><trkpt lat="42.9592067" lon="13.6715467"><ele>178.75</ele><time>2026-04-04T08:41:40.813Z</time></trkpt><trkpt lat="42.959115" lon="13.671405"><ele>179.0</ele><time>2026-04-04T08:41:41.813Z</time></trkpt><trkpt lat="42.9590217" lon="13.67129"><ele>179.0</ele><time>2026-04-04T08:41:42.813Z</time></trkpt><trkpt lat="42.9589317" lon="13.6711617"><ele>179.0</ele><time>2026-04-04T08:41:43.813Z</time></trkpt><trkpt lat="42.9588517" lon="13.67106"><ele>179.0</ele><time>2026-04-04T08:41:44.813Z</time></trkpt><trkpt lat="42.9587817" lon="13.6709467"><ele>179.0</ele><time>2026-04-04T08:41:45.813Z</time></trkpt><trkpt lat="42.9587133" lon="13.6708683"><ele>179.0</ele><time>2026-04-04T08:41:46.813Z</time></trkpt><trkpt lat="42.9586183" lon="13.6708233"><ele>178.79999999999998</ele><time>2026-04-04T08:41:47.814Z</time></trkpt><trkpt lat="42.9585183" lon="13.6707817"><ele>178.6</ele><time>2026-04-04T08:41:48.813Z</time></trkpt><trkpt lat="42.9584183" lon="13.6707667"><ele>178.4</ele><time>2026-04-04T08:41:49.813Z</time></trkpt><trkpt lat="42.95831" lon="13.670775"><ele>178.2</ele><time>2026-04-04T08:41:50.813Z</time></trkpt><trkpt lat="42.9581967" lon="13.67079"><ele>178.0</ele><time>2026-04-04T08:41:51.814Z</time></trkpt><trkpt lat="42.958095" lon="13.670795"><ele>178.0</ele><time>2026-04-04T08:41:52.814Z</time></trkpt><trkpt lat="42.9580033" lon="13.6707833"><ele>178.0</ele><time>2026-04-04T08:41:53.814Z</time></trkpt><trkpt lat="42.957905" lon="13.6707317"><ele>178.0</ele><time>2026-04-04T08:41:54.814Z</time></trkpt><trkpt lat="42.9578183" lon="13.6706717"><ele>178.0</ele><time>2026-04-04T08:41:55.813Z</time></trkpt><trkpt lat="42.9577483" lon="13.6706133"><ele>178.0</ele><time>2026-04-04T08:41:56.813Z</time></trkpt><trkpt lat="42.9576867" lon="13.6705333"><ele>178.0</ele><time>2026-04-04T08:41:57.814Z</time></trkpt><trkpt lat="42.9576467" lon="13.67044"><ele>178.0</ele><time>2026-04-04T08:41:58.814Z</time></trkpt><trkpt lat="42.9576183" lon="13.6703383"><ele>178.0</ele><time>2026-04-04T08:41:59.813Z</time></trkpt><trkpt lat="42.9576083" lon="13.670195"><ele>178.0</ele><time>2026-04-04T08:42:00.814Z</time></trkpt><trkpt lat="42.9575833" lon="13.6700333"><ele>178.0</ele><time>2026-04-04T08:42:01.813Z</time></trkpt><trkpt lat="42.95754" lon="13.6698633"><ele>178.5</ele><time>2026-04-04T08:42:02.813Z</time></trkpt><trkpt lat="42.957495" lon="13.669695"><ele>179.0</ele><time>2026-04-04T08:42:03.813Z</time></trkpt><trkpt lat="42.9574467" lon="13.669535"><ele>179.5</ele><time>2026-04-04T08:42:04.813Z</time></trkpt><trkpt lat="42.9574267" lon="13.6693867"><ele>180.0</ele><time>2026-04-04T08:42:05.813Z</time></trkpt><trkpt lat="42.95742" lon="13.6692367"><ele>180.25</ele><time>2026-04-04T08:42:06.813Z</time></trkpt><trkpt lat="42.95742" lon="13.6691"><ele>180.5</ele><time>2026-04-04T08:42:07.813Z</time></trkpt><trkpt lat="42.95744" lon="13.6689567"><ele>180.75</ele><time>2026-04-04T08:42:08.813Z</time></trkpt><trkpt lat="42.95747" lon="13.6688"><ele>181.0</ele><time>2026-04-04T08:42:09.813Z</time></trkpt><trkpt lat="42.9575083" lon="13.6686383"><ele>181.25</ele><time>2026-04-04T08:42:10.813Z</time></trkpt><trkpt lat="42.9575367" lon="13.668465"><ele>181.5</ele><time>2026-04-04T08:42:11.813Z</time></trkpt><trkpt lat="42.95754" lon="13.66827"><ele>181.75</ele><time>2026-04-04T08:42:12.813Z</time></trkpt><trkpt lat="42.95752" lon="13.6680767"><ele>182.0</ele><time>2026-04-04T08:42:13.813Z</time></trkpt><trkpt lat="42.9574967" lon="13.667895"><ele>182.5</ele><time>2026-04-04T08:42:14.814Z</time></trkpt><trkpt lat="42.9574683" lon="13.667715"><ele>183.0</ele><time>2026-04-04T08:42:15.813Z</time></trkpt><trkpt lat="42.9574433" lon="13.6675317"><ele>183.5</ele><time>2026-04-04T08:42:16.814Z</time></trkpt><trkpt lat="42.9574333" lon="13.6673433"><ele>184.0</ele><time>2026-04-04T08:42:17.813Z</time></trkpt><trkpt lat="42.95742" lon="13.6671417"><ele>184.0</ele><time>2026-04-04T08:42:18.813Z</time></trkpt><trkpt lat="42.9574083" lon="13.6669533"><ele>184.0</ele><time>2026-04-04T08:42:19.814Z</time></trkpt><trkpt lat="42.957395" lon="13.6667617"><ele>184.0</ele><time>2026-04-04T08:42:20.814Z</time></trkpt><trkpt lat="42.9573967" lon="13.6665983"><ele>184.0</ele><time>2026-04-04T08:42:21.814Z</time></trkpt><trkpt lat="42.9573833" lon="13.6664367"><ele>184.0</ele><time>2026-04-04T08:42:22.814Z</time></trkpt><trkpt lat="42.9573617" lon="13.6662717"><ele>184.0</ele><time>2026-04-04T08:42:23.813Z</time></trkpt><trkpt lat="42.957325" lon="13.666095"><ele>184.0</ele><time>2026-04-04T08:42:24.813Z</time></trkpt><trkpt lat="42.9572583" lon="13.66592"><ele>184.0</ele><time>2026-04-04T08:42:25.814Z</time></trkpt><trkpt lat="42.9571883" lon="13.6657417"><ele>185.25</ele><time>2026-04-04T08:42:26.814Z</time></trkpt><trkpt lat="42.9571067" lon="13.6655917"><ele>186.5</ele><time>2026-04-04T08:42:27.813Z</time></trkpt><trkpt lat="42.95701" lon="13.6654467"><ele>187.75</ele><time>2026-04-04T08:42:28.813Z</time></trkpt><trkpt lat="42.95692" lon="13.665315"><ele>189.0</ele><time>2026-04-04T08:42:29.813Z</time></trkpt><trkpt lat="42.9568083" lon="13.6652117"><ele>188.39999999999998</ele><time>2026-04-04T08:42:30.813Z</time></trkpt><trkpt lat="42.9567" lon="13.665125"><ele>187.8</ele><time>2026-04-04T08:42:31.814Z</time></trkpt><trkpt lat="42.956605" lon="13.6650433"><ele>187.2</ele><time>2026-04-04T08:42:32.813Z</time></trkpt><trkpt lat="42.95651" lon="13.66497"><ele>186.60000000000002</ele><time>2026-04-04T08:42:33.813Z</time></trkpt><trkpt lat="42.9564283" lon="13.6649117"><ele>186.0</ele><time>2026-04-04T08:42:34.814Z</time></trkpt><trkpt lat="42.95635" lon="13.6648433"><ele>186.0</ele><time>2026-04-04T08:42:35.813Z</time></trkpt><trkpt lat="42.956295" lon="13.664745"><ele>186.0</ele><time>2026-04-04T08:42:36.814Z</time></trkpt><trkpt lat="42.95625" lon="13.66461"><ele>186.0</ele><time>2026-04-04T08:42:37.814Z</time></trkpt><trkpt lat="42.9562133" lon="13.6644267"><ele>186.0</ele><time>2026-04-04T08:42:38.814Z</time></trkpt><trkpt lat="42.9561717" lon="13.6642283"><ele>187.0</ele><time>2026-04-04T08:42:39.813Z</time></trkpt><trkpt lat="42.9561417" lon="13.664035"><ele>188.0</ele><time>2026-04-04T08:42:40.813Z</time></trkpt><trkpt lat="42.9561217" lon="13.663865"><ele>189.0</ele><time>2026-04-04T08:42:41.813Z</time></trkpt><trkpt lat="42.956105" lon="13.6637133"><ele>190.0</ele><time>2026-04-04T08:42:42.813Z</time></trkpt><trkpt lat="42.95609" lon="13.66357"><ele>190.4</ele><time>2026-04-04T08:42:43.813Z</time></trkpt><trkpt lat="42.956055" lon="13.6634367"><ele>190.8</ele><time>2026-04-04T08:42:44.813Z</time></trkpt><trkpt lat="42.9560117" lon="13.6633267"><ele>191.2</ele><time>2026-04-04T08:42:45.814Z</time></trkpt><trkpt lat="42.9559617" lon="13.6632433"><ele>191.6</ele><time>2026-04-04T08:42:46.813Z</time></trkpt><trkpt lat="42.9559183" lon="13.66311"><ele>192.0</ele><time>2026-04-04T08:42:48.813Z</time></trkpt><trkpt lat="42.95599" lon="13.6629417"><ele>192.0</ele><time>2026-04-04T08:42:50.813Z</time></trkpt><trkpt lat="42.9560267" lon="13.6628483"><ele>192.0</ele><time>2026-04-04T08:42:51.813Z</time></trkpt><trkpt lat="42.9560567" lon="13.6627333"><ele>192.0</ele><time>2026-04-04T08:42:52.814Z</time></trkpt><trkpt lat="42.956045" lon="13.6626067"><ele>192.0</ele><time>2026-04-04T08:42:53.814Z</time></trkpt><trkpt lat="42.95599" lon="13.6624883"><ele>192.0</ele><time>2026-04-04T08:42:54.813Z</time></trkpt><trkpt lat="42.9559" lon="13.662375"><ele>191.5</ele><time>2026-04-04T08:42:55.814Z</time></trkpt><trkpt lat="42.95579" lon="13.6622667"><ele>191.0</ele><time>2026-04-04T08:42:56.813Z</time></trkpt><trkpt lat="42.9556767" lon="13.66214"><ele>190.5</ele><time>2026-04-04T08:42:57.813Z</time></trkpt><trkpt lat="42.955555" lon="13.662015"><ele>190.0</ele><time>2026-04-04T08:42:58.814Z</time></trkpt><trkpt lat="42.9554283" lon="13.661895"><ele>191.0</ele><time>2026-04-04T08:42:59.814Z</time></trkpt><trkpt lat="42.95529" lon="13.6617933"><ele>192.0</ele><time>2026-04-04T08:43:00.814Z</time></trkpt><trkpt lat="42.95516" lon="13.6617017"><ele>193.0</ele><time>2026-04-04T08:43:01.813Z</time></trkpt><trkpt lat="42.9550367" lon="13.6616017"><ele>194.0</ele><time>2026-04-04T08:43:02.813Z</time></trkpt><trkpt lat="42.9549167" lon="13.6614617"><ele>194.66666666666669</ele><time>2026-04-04T08:43:03.813Z</time></trkpt><trkpt lat="42.954805" lon="13.6613033"><ele>195.33333333333331</ele><time>2026-04-04T08:43:04.813Z</time></trkpt><trkpt lat="42.9546883" lon="13.661125"><ele>196.0</ele><time>2026-04-04T08:43:05.813Z</time></trkpt><trkpt lat="42.95457" lon="13.66091"><ele>197.33333333333331</ele><time>2026-04-04T08:43:06.813Z</time></trkpt><trkpt lat="42.9544617" lon="13.6607167"><ele>198.66666666666669</ele><time>2026-04-04T08:43:07.813Z</time></trkpt><trkpt lat="42.954355" lon="13.6605583"><ele>200.0</ele><time>2026-04-04T08:43:08.813Z</time></trkpt><trkpt lat="42.9542633" lon="13.660415"><ele>201.5</ele><time>2026-04-04T08:43:09.813Z</time></trkpt><trkpt lat="42.9541867" lon="13.6602867"><ele>203.0</ele><time>2026-04-04T08:43:10.814Z</time></trkpt><trkpt lat="42.9541017" lon="13.6601617"><ele>204.5</ele><time>2026-04-04T08:43:11.813Z</time></trkpt><trkpt lat="42.9540083" lon="13.6600383"><ele>206.0</ele><time>2026-04-04T08:43:12.813Z</time></trkpt><trkpt lat="42.9538967" lon="13.659915"><ele>206.66666666666669</ele><time>2026-04-04T08:43:13.813Z</time></trkpt><trkpt lat="42.9537767" lon="13.6598117"><ele>207.33333333333331</ele><time>2026-04-04T08:43:14.814Z</time></trkpt><trkpt lat="42.9536283" lon="13.6597183"><ele>208.0</ele><time>2026-04-04T08:43:15.813Z</time></trkpt><trkpt lat="42.9534783" lon="13.659625"><ele>210.66666666666666</ele><time>2026-04-04T08:43:16.813Z</time></trkpt><trkpt lat="42.9533333" lon="13.659535"><ele>213.33333333333331</ele><time>2026-04-04T08:43:17.814Z</time></trkpt><trkpt lat="42.9532017" lon="13.6594433"><ele>216.0</ele><time>2026-04-04T08:43:18.814Z</time></trkpt><trkpt lat="42.953055" lon="13.65935"><ele>216.0</ele><time>2026-04-04T08:43:19.813Z</time></trkpt><trkpt lat="42.9528867" lon="13.6592433"><ele>216.0</ele><time>2026-04-04T08:43:20.813Z</time></trkpt><trkpt lat="42.9527217" lon="13.6591433"><ele>216.0</ele><time>2026-04-04T08:43:21.814Z</time></trkpt><trkpt lat="42.952595" lon="13.6590633"><ele>220.0</ele><time>2026-04-04T08:43:22.813Z</time></trkpt><trkpt lat="42.95247" lon="13.658985"><ele>224.0</ele><time>2026-04-04T08:43:23.814Z</time></trkpt><trkpt lat="42.9523117" lon="13.6588967"><ele>228.0</ele><time>2026-04-04T08:43:24.813Z</time></trkpt><trkpt lat="42.9521217" lon="13.65881"><ele>228.0</ele><time>2026-04-04T08:43:25.813Z</time></trkpt><trkpt lat="42.9519483" lon="13.65874"><ele>228.0</ele><time>2026-04-04T08:43:26.813Z</time></trkpt><trkpt lat="42.951805" lon="13.6586967"><ele>228.0</ele><time>2026-04-04T08:43:27.814Z</time></trkpt><trkpt lat="42.95167" lon="13.6586617"><ele>228.0</ele><time>2026-04-04T08:43:28.813Z</time></trkpt><trkpt lat="42.951545" lon="13.6586283"><ele>228.0</ele><time>2026-04-04T08:43:29.813Z</time></trkpt><trkpt lat="42.9514283" lon="13.6585917"><ele>228.0</ele><time>2026-04-04T08:43:30.813Z</time></trkpt><trkpt lat="42.9513017" lon="13.6585533"><ele>228.0</ele><time>2026-04-04T08:43:31.813Z</time></trkpt><trkpt lat="42.9511783" lon="13.6584983"><ele>228.0</ele><time>2026-04-04T08:43:32.813Z</time></trkpt><trkpt lat="42.9510467" lon="13.6584433"><ele>228.0</ele><time>2026-04-04T08:43:33.813Z</time></trkpt><trkpt lat="42.95089" lon="13.6583733"><ele>228.0</ele><time>2026-04-04T08:43:34.813Z</time></trkpt><trkpt lat="42.95073" lon="13.6582967"><ele>228.75</ele><time>2026-04-04T08:43:35.813Z</time></trkpt><trkpt lat="42.9505867" lon="13.6582267"><ele>229.5</ele><time>2026-04-04T08:43:36.813Z</time></trkpt><trkpt lat="42.9504567" lon="13.6581667"><ele>230.25</ele><time>2026-04-04T08:43:37.814Z</time></trkpt><trkpt lat="42.9503383" lon="13.6581083"><ele>231.0</ele><time>2026-04-04T08:43:38.813Z</time></trkpt><trkpt lat="42.9502267" lon="13.658055"><ele>231.0</ele><time>2026-04-04T08:43:39.813Z</time></trkpt><trkpt lat="42.9501217" lon="13.6580017"><ele>231.00000000000003</ele><time>2026-04-04T08:43:40.813Z</time></trkpt><trkpt lat="42.9500133" lon="13.6579517"><ele>231.00000000000003</ele><time>2026-04-04T08:43:41.814Z</time></trkpt><trkpt lat="42.9499233" lon="13.657905"><ele>231.0</ele><time>2026-04-04T08:43:42.813Z</time></trkpt><trkpt lat="42.9498433" lon="13.6578717"><ele>231.0</ele><time>2026-04-04T08:43:43.814Z</time></trkpt><trkpt lat="42.9497617" lon="13.65784"><ele>231.60000000000002</ele><time>2026-04-04T08:43:44.813Z</time></trkpt><trkpt lat="42.949675" lon="13.6578"><ele>232.20000000000002</ele><time>2026-04-04T08:43:45.814Z</time></trkpt><trkpt lat="42.9495867" lon="13.6577617"><ele>232.79999999999998</ele><time>2026-04-04T08:43:46.813Z</time></trkpt><trkpt lat="42.9494933" lon="13.6577033"><ele>233.39999999999998</ele><time>2026-04-04T08:43:47.813Z</time></trkpt><trkpt lat="42.9494" lon="13.65766"><ele>234.0</ele><time>2026-04-04T08:43:48.814Z</time></trkpt><trkpt lat="42.94931" lon="13.6576117"><ele>234.0</ele><time>2026-04-04T08:43:49.813Z</time></trkpt><trkpt lat="42.9492317" lon="13.6575517"><ele>233.99999999999997</ele><time>2026-04-04T08:43:50.813Z</time></trkpt><trkpt lat="42.9491517" lon="13.6574733"><ele>233.99999999999997</ele><time>2026-04-04T08:43:51.813Z</time></trkpt><trkpt lat="42.9490717" lon="13.65738"><ele>234.0</ele><time>2026-04-04T08:43:52.813Z</time></trkpt><trkpt lat="42.9489817" lon="13.65728"><ele>234.0</ele><time>2026-04-04T08:43:53.814Z</time></trkpt><trkpt lat="42.9488983" lon="13.657175"><ele>236.5</ele><time>2026-04-04T08:43:54.814Z</time></trkpt><trkpt lat="42.94882" lon="13.6570517"><ele>239.0</ele><time>2026-04-04T08:43:55.813Z</time></trkpt><trkpt lat="42.948745" lon="13.6569333"><ele>241.5</ele><time>2026-04-04T08:43:56.814Z</time></trkpt><trkpt lat="42.9486683" lon="13.656815"><ele>244.0</ele><time>2026-04-04T08:43:57.814Z</time></trkpt><trkpt lat="42.9485867" lon="13.65669"><ele>244.0</ele><time>2026-04-04T08:43:58.814Z</time></trkpt><trkpt lat="42.9485033" lon="13.6565633"><ele>244.0</ele><time>2026-04-04T08:43:59.813Z</time></trkpt><trkpt lat="42.9484" lon="13.6564283"><ele>244.0</ele><time>2026-04-04T08:44:00.814Z</time></trkpt><trkpt lat="42.9483033" lon="13.6562783"><ele>244.0</ele><time>2026-04-04T08:44:01.813Z</time></trkpt><trkpt lat="42.9482083" lon="13.6561317"><ele>244.75</ele><time>2026-04-04T08:44:02.813Z</time></trkpt><trkpt lat="42.9481083" lon="13.6559833"><ele>245.5</ele><time>2026-04-04T08:44:03.813Z</time></trkpt><trkpt lat="42.948005" lon="13.6558417"><ele>246.25</ele><time>2026-04-04T08:44:04.814Z</time></trkpt><trkpt lat="42.9479033" lon="13.6557167"><ele>247.0</ele><time>2026-04-04T08:44:05.814Z</time></trkpt><trkpt lat="42.9477833" lon="13.655625"><ele>247.0</ele><time>2026-04-04T08:44:06.813Z</time></trkpt><trkpt lat="42.9476567" lon="13.6555533"><ele>247.0</ele><time>2026-04-04T08:44:07.813Z</time></trkpt><trkpt lat="42.9475083" lon="13.655505"><ele>247.0</ele><time>2026-04-04T08:44:08.813Z</time></trkpt><trkpt lat="42.9473667" lon="13.65547"><ele>247.0</ele><time>2026-04-04T08:44:09.814Z</time></trkpt><trkpt lat="42.9472333" lon="13.6554433"><ele>247.25</ele><time>2026-04-04T08:44:10.814Z</time></trkpt><trkpt lat="42.94711" lon="13.6554133"><ele>247.5</ele><time>2026-04-04T08:44:11.814Z</time></trkpt><trkpt lat="42.9469983" lon="13.655345"><ele>247.75</ele><time>2026-04-04T08:44:12.813Z</time></trkpt><trkpt lat="42.9468867" lon="13.6552333"><ele>248.0</ele><time>2026-04-04T08:44:13.813Z</time></trkpt><trkpt lat="42.946765" lon="13.6550917"><ele>253.0</ele><time>2026-04-04T08:44:14.813Z</time></trkpt><trkpt lat="42.9466367" lon="13.6549333"><ele>258.0</ele><time>2026-04-04T08:44:15.813Z</time></trkpt><trkpt lat="42.9465133" lon="13.654785"><ele>263.0</ele><time>2026-04-04T08:44:16.813Z</time></trkpt><trkpt lat="42.9464033" lon="13.6546683"><ele>263.0</ele><time>2026-04-04T08:44:17.813Z</time></trkpt><trkpt lat="42.9463083" lon="13.6545933"><ele>263.0</ele><time>2026-04-04T08:44:18.813Z</time></trkpt><trkpt lat="42.9461983" lon="13.6545483"><ele>263.0</ele><time>2026-04-04T08:44:19.813Z</time></trkpt><trkpt lat="42.9460767" lon="13.6545383"><ele>263.0</ele><time>2026-04-04T08:44:20.814Z</time></trkpt><trkpt lat="42.945955" lon="13.6545717"><ele>266.0</ele><time>2026-04-04T08:44:21.813Z</time></trkpt><trkpt lat="42.9458433" lon="13.6546417"><ele>269.0</ele><time>2026-04-04T08:44:22.813Z</time></trkpt><trkpt lat="42.9457433" lon="13.6547267"><ele>272.0</ele><time>2026-04-04T08:44:23.814Z</time></trkpt><trkpt lat="42.94565" lon="13.6548167"><ele>275.0</ele><time>2026-04-04T08:44:24.813Z</time></trkpt><trkpt lat="42.945555" lon="13.654905"><ele>275.0</ele><time>2026-04-04T08:44:25.813Z</time></trkpt><trkpt lat="42.9454483" lon="13.654995"><ele>275.0</ele><time>2026-04-04T08:44:26.814Z</time></trkpt><trkpt lat="42.9453167" lon="13.6550983"><ele>275.0</ele><time>2026-04-04T08:44:27.814Z</time></trkpt><trkpt lat="42.945175" lon="13.6552083"><ele>275.0</ele><time>2026-04-04T08:44:28.813Z</time></trkpt><trkpt lat="42.9450217" lon="13.655325"><ele>280.33333333333337</ele><time>2026-04-04T08:44:29.813Z</time></trkpt><trkpt lat="42.9448767" lon="13.6554367"><ele>285.6666666666667</ele><time>2026-04-04T08:44:30.814Z</time></trkpt><trkpt lat="42.94473" lon="13.65555"><ele>291.0</ele><time>2026-04-04T08:44:31.814Z</time></trkpt><trkpt lat="42.9446017" lon="13.65564"><ele>291.0</ele><time>2026-04-04T08:44:32.814Z</time></trkpt><trkpt lat="42.9444783" lon="13.6557033"><ele>291.0</ele><time>2026-04-04T08:44:33.813Z</time></trkpt><trkpt lat="42.9443533" lon="13.6557867"><ele>291.0</ele><time>2026-04-04T08:44:34.813Z</time></trkpt><trkpt lat="42.9442217" lon="13.655855"><ele>291.0</ele><time>2026-04-04T08:44:35.814Z</time></trkpt><trkpt lat="42.9440917" lon="13.655905"><ele>289.25</ele><time>2026-04-04T08:44:36.814Z</time></trkpt><trkpt lat="42.9439617" lon="13.6559433"><ele>287.5</ele><time>2026-04-04T08:44:37.813Z</time></trkpt><trkpt lat="42.9438533" lon="13.6559333"><ele>285.75</ele><time>2026-04-04T08:44:38.814Z</time></trkpt><trkpt lat="42.9437167" lon="13.6558767"><ele>284.0</ele><time>2026-04-04T08:44:39.813Z</time></trkpt><trkpt lat="42.9435633" lon="13.6557767"><ele>284.0</ele><time>2026-04-04T08:44:40.814Z</time></trkpt><trkpt lat="42.9434083" lon="13.6556417"><ele>284.0</ele><time>2026-04-04T08:44:41.814Z</time></trkpt><trkpt lat="42.9432683" lon="13.6555"><ele>284.0</ele><time>2026-04-04T08:44:42.814Z</time></trkpt><trkpt lat="42.9431567" lon="13.655365"><ele>284.0</ele><time>2026-04-04T08:44:43.814Z</time></trkpt><trkpt lat="42.94307" lon="13.6552417"><ele>284.0</ele><time>2026-04-04T08:44:44.814Z</time></trkpt><trkpt lat="42.9430183" lon="13.6551017"><ele>284.0</ele><time>2026-04-04T08:44:45.814Z</time></trkpt><trkpt lat="42.943005" lon="13.65493"><ele>284.0</ele><time>2026-04-04T08:44:46.814Z</time></trkpt><trkpt lat="42.9429983" lon="13.6547033"><ele>285.0</ele><time>2026-04-04T08:44:47.812Z</time></trkpt><trkpt lat="42.9429783" lon="13.6544333"><ele>286.0</ele><time>2026-04-04T08:44:48.812Z</time></trkpt><trkpt lat="42.9429633" lon="13.6541217"><ele>287.0</ele><time>2026-04-04T08:44:49.813Z</time></trkpt><trkpt lat="42.942955" lon="13.6538233"><ele>288.0</ele><time>2026-04-04T08:44:50.812Z</time></trkpt><trkpt lat="42.94294" lon="13.6536167"><ele>289.0</ele><time>2026-04-04T08:44:51.812Z</time></trkpt><trkpt lat="42.9429267" lon="13.6534733"><ele>290.0</ele><time>2026-04-04T08:44:52.813Z</time></trkpt><trkpt lat="42.9428883" lon="13.653355"><ele>291.0</ele><time>2026-04-04T08:44:53.813Z</time></trkpt><trkpt lat="42.94285" lon="13.6532733"><ele>292.0</ele><time>2026-04-04T08:44:54.812Z</time></trkpt><trkpt lat="42.9427733" lon="13.6532083"><ele>292.0</ele><time>2026-04-04T08:44:56.812Z</time></trkpt><trkpt lat="42.9427033" lon="13.6532233"><ele>292.0</ele><time>2026-04-04T08:45:06.813Z</time></trkpt><trkpt lat="42.9426567" lon="13.6533617"><ele>292.0</ele><time>2026-04-04T08:45:08.813Z</time></trkpt><trkpt lat="42.9426283" lon="13.6534867"><ele>292.0</ele><time>2026-04-04T08:45:09.812Z</time></trkpt><trkpt lat="42.9425933" lon="13.6536583"><ele>292.0</ele><time>2026-04-04T08:45:10.813Z</time></trkpt><trkpt lat="42.9425433" lon="13.6538617"><ele>296.5</ele><time>2026-04-04T08:45:11.813Z</time></trkpt><trkpt lat="42.9424717" lon="13.65402"><ele>301.0</ele><time>2026-04-04T08:45:12.813Z</time></trkpt><trkpt lat="42.9423783" lon="13.654175"><ele>305.5</ele><time>2026-04-04T08:45:13.812Z</time></trkpt><trkpt lat="42.9422483" lon="13.6543133"><ele>310.0</ele><time>2026-04-04T08:45:14.813Z</time></trkpt><trkpt lat="42.9421117" lon="13.654445"><ele>308.0</ele><time>2026-04-04T08:45:15.812Z</time></trkpt><trkpt lat="42.9419617" lon="13.6545817"><ele>306.0</ele><time>2026-04-04T08:45:16.812Z</time></trkpt><trkpt lat="42.94182" lon="13.65471"><ele>304.0</ele><time>2026-04-04T08:45:17.812Z</time></trkpt><trkpt lat="42.9417033" lon="13.6548117"><ele>308.0</ele><time>2026-04-04T08:45:18.813Z</time></trkpt><trkpt lat="42.9415983" lon="13.65493"><ele>312.0</ele><time>2026-04-04T08:45:19.812Z</time></trkpt><trkpt lat="42.9414933" lon="13.6550233"><ele>316.0</ele><time>2026-04-04T08:45:20.813Z</time></trkpt><trkpt lat="42.94139" lon="13.655105"><ele>320.0</ele><time>2026-04-04T08:45:21.813Z</time></trkpt><trkpt lat="42.9413033" lon="13.6551867"><ele>320.0</ele><time>2026-04-04T08:45:22.812Z</time></trkpt><trkpt lat="42.941205" lon="13.6552667"><ele>320.0</ele><time>2026-04-04T08:45:23.812Z</time></trkpt><trkpt lat="42.9410867" lon="13.65533"><ele>320.0</ele><time>2026-04-04T08:45:24.812Z</time></trkpt><trkpt lat="42.9409733" lon="13.6554133"><ele>320.0</ele><time>2026-04-04T08:45:25.813Z</time></trkpt><trkpt lat="42.9408683" lon="13.6554917"><ele>324.0</ele><time>2026-04-04T08:45:26.813Z</time></trkpt><trkpt lat="42.9407717" lon="13.655585"><ele>328.0</ele><time>2026-04-04T08:45:27.813Z</time></trkpt><trkpt lat="42.9406933" lon="13.6556967"><ele>332.0</ele><time>2026-04-04T08:45:28.812Z</time></trkpt><trkpt lat="42.9406117" lon="13.6558083"><ele>336.0</ele><time>2026-04-04T08:45:29.812Z</time></trkpt><trkpt lat="42.9405317" lon="13.655925"><ele>336.0</ele><time>2026-04-04T08:45:30.812Z</time></trkpt><trkpt lat="42.9404617" lon="13.656045"><ele>336.0</ele><time>2026-04-04T08:45:31.813Z</time></trkpt><trkpt lat="42.9404033" lon="13.65615"><ele>336.0</ele><time>2026-04-04T08:45:32.812Z</time></trkpt><trkpt lat="42.940355" lon="13.6562633"><ele>336.0</ele><time>2026-04-04T08:45:33.813Z</time></trkpt><trkpt lat="42.9403217" lon="13.6563683"><ele>336.0</ele><time>2026-04-04T08:45:34.812Z</time></trkpt><trkpt lat="42.94031" lon="13.6564767"><ele>336.6</ele><time>2026-04-04T08:45:35.812Z</time></trkpt><trkpt lat="42.940325" lon="13.6565883"><ele>337.20000000000005</ele><time>2026-04-04T08:45:36.812Z</time></trkpt><trkpt lat="42.94037" lon="13.6566983"><ele>337.79999999999995</ele><time>2026-04-04T08:45:37.812Z</time></trkpt><trkpt lat="42.9404317" lon="13.6568183"><ele>338.4</ele><time>2026-04-04T08:45:38.812Z</time></trkpt><trkpt lat="42.9405067" lon="13.6569583"><ele>339.0</ele><time>2026-04-04T08:45:39.813Z</time></trkpt><trkpt lat="42.9405933" lon="13.6571067"><ele>337.25</ele><time>2026-04-04T08:45:40.813Z</time></trkpt><trkpt lat="42.9406767" lon="13.6572633"><ele>335.5</ele><time>2026-04-04T08:45:41.812Z</time></trkpt><trkpt lat="42.94076" lon="13.6574233"><ele>333.75</ele><time>2026-04-04T08:45:42.812Z</time></trkpt><trkpt lat="42.94085" lon="13.6575667"><ele>332.0</ele><time>2026-04-04T08:45:43.813Z</time></trkpt><trkpt lat="42.9409333" lon="13.6577067"><ele>336.0</ele><time>2026-04-04T08:45:44.813Z</time></trkpt><trkpt lat="42.941005" lon="13.657815"><ele>340.0</ele><time>2026-04-04T08:45:45.812Z</time></trkpt><trkpt lat="42.9410633" lon="13.65791"><ele>344.0</ele><time>2026-04-04T08:45:46.812Z</time></trkpt><trkpt lat="42.941095" lon="13.657995"><ele>348.0</ele><time>2026-04-04T08:45:47.813Z</time></trkpt><trkpt lat="42.94108" lon="13.6581217"><ele>352.0</ele><time>2026-04-04T08:45:49.812Z</time></trkpt><trkpt lat="42.9409767" lon="13.6581217"><ele>352.0</ele><time>2026-04-04T08:45:51.812Z</time></trkpt><trkpt lat="42.9409067" lon="13.6580733"><ele>352.0</ele><time>2026-04-04T08:45:52.812Z</time></trkpt><trkpt lat="42.9408317" lon="13.6580133"><ele>352.0</ele><time>2026-04-04T08:45:53.813Z</time></trkpt><trkpt lat="42.940755" lon="13.657955"><ele>352.0</ele><time>2026-04-04T08:45:54.813Z</time></trkpt><trkpt lat="42.9406717" lon="13.6579217"><ele>352.0</ele><time>2026-04-04T08:45:55.812Z</time></trkpt><trkpt lat="42.940605" lon="13.6579183"><ele>352.0</ele><time>2026-04-04T08:45:56.812Z</time></trkpt><trkpt lat="42.9405067" lon="13.6579667"><ele>351.8</ele><time>2026-04-04T08:45:58.813Z</time></trkpt><trkpt lat="42.9403983" lon="13.6579383"><ele>351.6</ele><time>2026-04-04T08:46:00.813Z</time></trkpt><trkpt lat="42.9403317" lon="13.65787"><ele>351.40000000000003</ele><time>2026-04-04T08:46:01.812Z</time></trkpt><trkpt lat="42.9402517" lon="13.65778"><ele>351.20000000000005</ele><time>2026-04-04T08:46:02.813Z</time></trkpt><trkpt lat="42.940155" lon="13.6576833"><ele>351.0</ele><time>2026-04-04T08:46:03.812Z</time></trkpt><trkpt lat="42.9400483" lon="13.6575667"><ele>353.6666666666667</ele><time>2026-04-04T08:46:04.813Z</time></trkpt><trkpt lat="42.9399317" lon="13.6574433"><ele>356.33333333333337</ele><time>2026-04-04T08:46:05.812Z</time></trkpt><trkpt lat="42.939805" lon="13.65731"><ele>359.0</ele><time>2026-04-04T08:46:06.812Z</time></trkpt><trkpt lat="42.9396833" lon="13.6571817"><ele>359.0</ele><time>2026-04-04T08:46:07.812Z</time></trkpt><trkpt lat="42.93956" lon="13.6570617"><ele>359.0</ele><time>2026-04-04T08:46:08.812Z</time></trkpt><trkpt lat="42.9394533" lon="13.65696"><ele>359.0</ele><time>2026-04-04T08:46:09.813Z</time></trkpt><trkpt lat="42.9393517" lon="13.65685"><ele>359.0</ele><time>2026-04-04T08:46:10.812Z</time></trkpt><trkpt lat="42.9392383" lon="13.6567583"><ele>360.0</ele><time>2026-04-04T08:46:11.812Z</time></trkpt><trkpt lat="42.93915" lon="13.65667"><ele>361.0</ele><time>2026-04-04T08:46:12.813Z</time></trkpt><trkpt lat="42.9390583" lon="13.6565817"><ele>362.0</ele><time>2026-04-04T08:46:13.812Z</time></trkpt><trkpt lat="42.93898" lon="13.656515"><ele>363.0</ele><time>2026-04-04T08:46:14.812Z</time></trkpt><trkpt lat="42.9389083" lon="13.6564433"><ele>364.0</ele><time>2026-04-04T08:46:15.812Z</time></trkpt><trkpt lat="42.9388367" lon="13.6563683"><ele>364.0</ele><time>2026-04-04T08:46:16.813Z</time></trkpt><trkpt lat="42.938765" lon="13.6562983"><ele>364.0</ele><time>2026-04-04T08:46:17.813Z</time></trkpt><trkpt lat="42.9387017" lon="13.656235"><ele>364.0</ele><time>2026-04-04T08:46:18.812Z</time></trkpt><trkpt lat="42.9386333" lon="13.6561717"><ele>364.0</ele><time>2026-04-04T08:46:19.813Z</time></trkpt><trkpt lat="42.9385617" lon="13.656105"><ele>364.0</ele><time>2026-04-04T08:46:20.813Z</time></trkpt><trkpt lat="42.938485" lon="13.6560283"><ele>364.0</ele><time>2026-04-04T08:46:21.813Z</time></trkpt><trkpt lat="42.9384067" lon="13.6559567"><ele>365.66666666666663</ele><time>2026-04-04T08:46:22.813Z</time></trkpt><trkpt lat="42.9383383" lon="13.655885"><ele>367.3333333333333</ele><time>2026-04-04T08:46:23.812Z</time></trkpt><trkpt lat="42.938275" lon="13.6558317"><ele>369.0</ele><time>2026-04-04T08:46:24.812Z</time></trkpt><trkpt lat="42.9382167" lon="13.6557883"><ele>370.6666666666667</ele><time>2026-04-04T08:46:25.812Z</time></trkpt><trkpt lat="42.9381617" lon="13.6557383"><ele>372.33333333333337</ele><time>2026-04-04T08:46:26.812Z</time></trkpt><trkpt lat="42.938125" lon="13.655615"><ele>374.0</ele><time>2026-04-04T08:46:28.812Z</time></trkpt><trkpt lat="42.9382033" lon="13.65552"><ele>374.0</ele><time>2026-04-04T08:46:30.812Z</time></trkpt><trkpt lat="42.9382683" lon="13.6555133"><ele>374.0</ele><time>2026-04-04T08:46:31.813Z</time></trkpt><trkpt lat="42.9383517" lon="13.6555267"><ele>374.0</ele><time>2026-04-04T08:46:32.812Z</time></trkpt><trkpt lat="42.9384717" lon="13.6555667"><ele>374.0</ele><time>2026-04-04T08:46:33.813Z</time></trkpt><trkpt lat="42.9386" lon="13.6555783"><ele>374.0</ele><time>2026-04-04T08:46:34.812Z</time></trkpt><trkpt lat="42.9387183" lon="13.65557"><ele>372.75</ele><time>2026-04-04T08:46:35.812Z</time></trkpt><trkpt lat="42.938825" lon="13.6555083"><ele>371.5</ele><time>2026-04-04T08:46:36.813Z</time></trkpt><trkpt lat="42.9389183" lon="13.6554033"><ele>370.25</ele><time>2026-04-04T08:46:37.813Z</time></trkpt><trkpt lat="42.938995" lon="13.6552683"><ele>369.0</ele><time>2026-04-04T08:46:38.812Z</time></trkpt><trkpt lat="42.939065" lon="13.6551033"><ele>367.75</ele><time>2026-04-04T08:46:39.813Z</time></trkpt><trkpt lat="42.9391233" lon="13.654925"><ele>366.5</ele><time>2026-04-04T08:46:40.813Z</time></trkpt><trkpt lat="42.9391817" lon="13.654735"><ele>365.25</ele><time>2026-04-04T08:46:41.812Z</time></trkpt><trkpt lat="42.9392467" lon="13.6545617"><ele>364.0</ele><time>2026-04-04T08:46:42.812Z</time></trkpt><trkpt lat="42.9392933" lon="13.65439"><ele>364.0</ele><time>2026-04-04T08:46:43.812Z</time></trkpt><trkpt lat="42.939315" lon="13.6542467"><ele>364.0</ele><time>2026-04-04T08:46:44.812Z</time></trkpt><trkpt lat="42.939325" lon="13.6541033"><ele>364.0</ele><time>2026-04-04T08:46:45.813Z</time></trkpt><trkpt lat="42.9393117" lon="13.6539517"><ele>364.0</ele><time>2026-04-04T08:46:46.813Z</time></trkpt><trkpt lat="42.9392633" lon="13.653825"><ele>364.0</ele><time>2026-04-04T08:46:47.812Z</time></trkpt><trkpt lat="42.9391883" lon="13.65371"><ele>367.4</ele><time>2026-04-04T08:46:48.812Z</time></trkpt><trkpt lat="42.93909" lon="13.6536333"><ele>370.79999999999995</ele><time>2026-04-04T08:46:49.812Z</time></trkpt><trkpt lat="42.9390033" lon="13.6536017"><ele>374.20000000000005</ele><time>2026-04-04T08:46:50.812Z</time></trkpt><trkpt lat="42.9388867" lon="13.6536067"><ele>377.6</ele><time>2026-04-04T08:46:51.813Z</time></trkpt><trkpt lat="42.9387817" lon="13.6536633"><ele>381.0</ele><time>2026-04-04T08:46:52.812Z</time></trkpt><trkpt lat="42.93867" lon="13.6537167"><ele>382.4</ele><time>2026-04-04T08:46:53.813Z</time></trkpt><trkpt lat="42.9385583" lon="13.6537883"><ele>383.8</ele><time>2026-04-04T08:46:54.813Z</time></trkpt><trkpt lat="42.9384567" lon="13.65384"><ele>385.2</ele><time>2026-04-04T08:46:55.812Z</time></trkpt><trkpt lat="42.9383683" lon="13.6538567"><ele>386.59999999999997</ele><time>2026-04-04T08:46:56.812Z</time></trkpt><trkpt lat="42.9382883" lon="13.6538017"><ele>388.0</ele><time>2026-04-04T08:46:57.812Z</time></trkpt><trkpt lat="42.9382067" lon="13.653715"><ele>389.75</ele><time>2026-04-04T08:46:58.813Z</time></trkpt><trkpt lat="42.9381583" lon="13.65358"><ele>391.5</ele><time>2026-04-04T08:46:59.812Z</time></trkpt><trkpt lat="42.938125" lon="13.6534083"><ele>393.25</ele><time>2026-04-04T08:47:00.812Z</time></trkpt><trkpt lat="42.93808" lon="13.653225"><ele>395.0</ele><time>2026-04-04T08:47:01.813Z</time></trkpt><trkpt lat="42.9380033" lon="13.65306"><ele>395.0</ele><time>2026-04-04T08:47:02.812Z</time></trkpt><trkpt lat="42.9378967" lon="13.6529133"><ele>395.0</ele><time>2026-04-04T08:47:03.813Z</time></trkpt><trkpt lat="42.937765" lon="13.6527917"><ele>395.0</ele><time>2026-04-04T08:47:04.812Z</time></trkpt><trkpt lat="42.93762" lon="13.6526667"><ele>399.0</ele><time>2026-04-04T08:47:05.812Z</time></trkpt><trkpt lat="42.937495" lon="13.65254"><ele>403.0</ele><time>2026-04-04T08:47:06.812Z</time></trkpt><trkpt lat="42.93739" lon="13.6523967"><ele>407.0</ele><time>2026-04-04T08:47:07.813Z</time></trkpt><trkpt lat="42.9373017" lon="13.652235"><ele>407.0</ele><time>2026-04-04T08:47:08.813Z</time></trkpt><trkpt lat="42.937215" lon="13.6520717"><ele>407.0</ele><time>2026-04-04T08:47:09.812Z</time></trkpt><trkpt lat="42.9371267" lon="13.6519317"><ele>407.0</ele><time>2026-04-04T08:47:10.812Z</time></trkpt><trkpt lat="42.9370433" lon="13.651805"><ele>407.0</ele><time>2026-04-04T08:47:11.812Z</time></trkpt><trkpt lat="42.936945" lon="13.6516917"><ele>409.75</ele><time>2026-04-04T08:47:12.812Z</time></trkpt><trkpt lat="42.93684" lon="13.6515667"><ele>412.5</ele><time>2026-04-04T08:47:13.812Z</time></trkpt><trkpt lat="42.9367383" lon="13.6514367"><ele>415.25</ele><time>2026-04-04T08:47:14.813Z</time></trkpt><trkpt lat="42.9366467" lon="13.651295"><ele>418.0</ele><time>2026-04-04T08:47:15.812Z</time></trkpt><trkpt lat="42.9365617" lon="13.65113"><ele>416.0</ele><time>2026-04-04T08:47:16.812Z</time></trkpt><trkpt lat="42.9364883" lon="13.6509617"><ele>414.0</ele><time>2026-04-04T08:47:17.812Z</time></trkpt><trkpt lat="42.93642" lon="13.6507883"><ele>412.0</ele><time>2026-04-04T08:47:18.812Z</time></trkpt><trkpt lat="42.936355" lon="13.6506117"><ele>410.0</ele><time>2026-04-04T08:47:19.813Z</time></trkpt><trkpt lat="42.9362833" lon="13.6504517"><ele>407.5</ele><time>2026-04-04T08:47:20.812Z</time></trkpt><trkpt lat="42.93621" lon="13.6502833"><ele>405.0</ele><time>2026-04-04T08:47:21.812Z</time></trkpt><trkpt lat="42.9361283" lon="13.6501167"><ele>402.5</ele><time>2026-04-04T08:47:22.812Z</time></trkpt><trkpt lat="42.93604" lon="13.6499483"><ele>400.0</ele><time>2026-04-04T08:47:23.812Z</time></trkpt><trkpt lat="42.9359417" lon="13.649775"><ele>406.33333333333337</ele><time>2026-04-04T08:47:24.812Z</time></trkpt><trkpt lat="42.9358317" lon="13.6496183"><ele>412.66666666666663</ele><time>2026-04-04T08:47:25.813Z</time></trkpt><trkpt lat="42.9357067" lon="13.64948"><ele>419.0</ele><time>2026-04-04T08:47:26.812Z</time></trkpt><trkpt lat="42.9355867" lon="13.6493717"><ele>419.0</ele><time>2026-04-04T08:47:27.812Z</time></trkpt><trkpt lat="42.9354567" lon="13.6492683"><ele>419.0</ele><time>2026-04-04T08:47:28.812Z</time></trkpt><trkpt lat="42.9353317" lon="13.6491817"><ele>419.0</ele><time>2026-04-04T08:47:29.812Z</time></trkpt><trkpt lat="42.93521" lon="13.6491033"><ele>419.0</ele><time>2026-04-04T08:47:30.813Z</time></trkpt><trkpt lat="42.9351" lon="13.649025"><ele>420.79999999999995</ele><time>2026-04-04T08:47:31.812Z</time></trkpt><trkpt lat="42.9350067" lon="13.64896"><ele>422.59999999999997</ele><time>2026-04-04T08:47:32.812Z</time></trkpt><trkpt lat="42.93493" lon="13.6488917"><ele>424.4</ele><time>2026-04-04T08:47:33.813Z</time></trkpt><trkpt lat="42.9348717" lon="13.6487917"><ele>426.2</ele><time>2026-04-04T08:47:34.812Z</time></trkpt><trkpt lat="42.9348067" lon="13.6486533"><ele>428.0</ele><time>2026-04-04T08:47:35.812Z</time></trkpt><trkpt lat="42.9347367" lon="13.648495"><ele>428.0</ele><time>2026-04-04T08:47:36.812Z</time></trkpt><trkpt lat="42.9346667" lon="13.6483517"><ele>428.0</ele><time>2026-04-04T08:47:37.812Z</time></trkpt><trkpt lat="42.9346017" lon="13.648215"><ele>428.0</ele><time>2026-04-04T08:47:38.812Z</time></trkpt><trkpt lat="42.9345417" lon="13.6480783"><ele>428.0</ele><time>2026-04-04T08:47:39.812Z</time></trkpt><trkpt lat="42.9344967" lon="13.6479583"><ele>428.0</ele><time>2026-04-04T08:47:40.813Z</time></trkpt><trkpt lat="42.9344583" lon="13.64782"><ele>428.0</ele><time>2026-04-04T08:47:41.812Z</time></trkpt><trkpt lat="42.934425" lon="13.6476783"><ele>428.0</ele><time>2026-04-04T08:47:42.812Z</time></trkpt><trkpt lat="42.9343883" lon="13.6475167"><ele>428.0</ele><time>2026-04-04T08:47:43.812Z</time></trkpt><trkpt lat="42.9343517" lon="13.64735"><ele>426.0</ele><time>2026-04-04T08:47:44.812Z</time></trkpt><trkpt lat="42.9343167" lon="13.6471767"><ele>424.0</ele><time>2026-04-04T08:47:45.812Z</time></trkpt><trkpt lat="42.9342817" lon="13.6470017"><ele>422.0</ele><time>2026-04-04T08:47:46.812Z</time></trkpt><trkpt lat="42.9342617" lon="13.6468383"><ele>420.0</ele><time>2026-04-04T08:47:47.813Z</time></trkpt><trkpt lat="42.9342467" lon="13.6466667"><ele>419.75</ele><time>2026-04-04T08:47:48.812Z</time></trkpt><trkpt lat="42.934235" lon="13.6464933"><ele>419.5</ele><time>2026-04-04T08:47:49.812Z</time></trkpt><trkpt lat="42.9342217" lon="13.64631"><ele>419.25</ele><time>2026-04-04T08:47:50.812Z</time></trkpt><trkpt lat="42.93422" lon="13.6461483"><ele>419.0</ele><time>2026-04-04T08:47:51.812Z</time></trkpt><trkpt lat="42.9342183" lon="13.6460017"><ele>424.5</ele><time>2026-04-04T08:47:52.812Z</time></trkpt><trkpt lat="42.934215" lon="13.645855"><ele>430.0</ele><time>2026-04-04T08:47:53.813Z</time></trkpt><trkpt lat="42.9341933" lon="13.64569"><ele>435.5</ele><time>2026-04-04T08:47:54.812Z</time></trkpt><trkpt lat="42.9341783" lon="13.6455367"><ele>441.0</ele><time>2026-04-04T08:47:55.812Z</time></trkpt><trkpt lat="42.9341683" lon="13.6453867"><ele>441.5</ele><time>2026-04-04T08:47:56.812Z</time></trkpt><trkpt lat="42.93414" lon="13.6452117"><ele>442.0</ele><time>2026-04-04T08:47:57.812Z</time></trkpt><trkpt lat="42.9341067" lon="13.6450333"><ele>442.5</ele><time>2026-04-04T08:47:58.813Z</time></trkpt><trkpt lat="42.9340633" lon="13.6448617"><ele>443.0</ele><time>2026-04-04T08:47:59.813Z</time></trkpt><trkpt lat="42.9340217" lon="13.6446833"><ele>443.0</ele><time>2026-04-04T08:48:00.812Z</time></trkpt><trkpt lat="42.9340067" lon="13.6445333"><ele>442.99999999999994</ele><time>2026-04-04T08:48:01.813Z</time></trkpt><trkpt lat="42.9340067" lon="13.6443917"><ele>442.99999999999994</ele><time>2026-04-04T08:48:02.812Z</time></trkpt><trkpt lat="42.9340233" lon="13.6442433"><ele>443.0</ele><time>2026-04-04T08:48:03.813Z</time></trkpt><trkpt lat="42.9340583" lon="13.6440933"><ele>443.0</ele><time>2026-04-04T08:48:04.812Z</time></trkpt><trkpt lat="42.9341083" lon="13.64394"><ele>442.25</ele><time>2026-04-04T08:48:05.812Z</time></trkpt><trkpt lat="42.934165" lon="13.643795"><ele>441.5</ele><time>2026-04-04T08:48:06.813Z</time></trkpt><trkpt lat="42.9342267" lon="13.6436567"><ele>440.75</ele><time>2026-04-04T08:48:07.812Z</time></trkpt><trkpt lat="42.9342883" lon="13.6435267"><ele>440.0</ele><time>2026-04-04T08:48:08.813Z</time></trkpt><trkpt lat="42.9343467" lon="13.6433867"><ele>440.0</ele><time>2026-04-04T08:48:09.813Z</time></trkpt><trkpt lat="42.93441" lon="13.6432517"><ele>440.0</ele><time>2026-04-04T08:48:10.812Z</time></trkpt><trkpt lat="42.93447" lon="13.6430967"><ele>440.0</ele><time>2026-04-04T08:48:11.813Z</time></trkpt><trkpt lat="42.9345233" lon="13.6429183"><ele>440.0</ele><time>2026-04-04T08:48:12.812Z</time></trkpt><trkpt lat="42.9345833" lon="13.6427317"><ele>443.0</ele><time>2026-04-04T08:48:13.812Z</time></trkpt><trkpt lat="42.934635" lon="13.64255"><ele>446.0</ele><time>2026-04-04T08:48:14.813Z</time></trkpt><trkpt lat="42.9346833" lon="13.6423733"><ele>449.0</ele><time>2026-04-04T08:48:15.812Z</time></trkpt><trkpt lat="42.934735" lon="13.6421817"><ele>452.0</ele><time>2026-04-04T08:48:16.812Z</time></trkpt><trkpt lat="42.9348" lon="13.6419917"><ele>455.0</ele><time>2026-04-04T08:48:17.812Z</time></trkpt><trkpt lat="42.9348733" lon="13.6418017"><ele>458.0</ele><time>2026-04-04T08:48:18.813Z</time></trkpt><trkpt lat="42.9349517" lon="13.6416133"><ele>461.0</ele><time>2026-04-04T08:48:19.812Z</time></trkpt><trkpt lat="42.9350333" lon="13.6414433"><ele>460.25</ele><time>2026-04-04T08:48:20.812Z</time></trkpt><trkpt lat="42.93511" lon="13.6412933"><ele>459.5</ele><time>2026-04-04T08:48:21.812Z</time></trkpt><trkpt lat="42.9351933" lon="13.6411417"><ele>458.75</ele><time>2026-04-04T08:48:22.813Z</time></trkpt><trkpt lat="42.9352867" lon="13.6410033"><ele>458.0</ele><time>2026-04-04T08:48:23.812Z</time></trkpt><trkpt lat="42.935375" lon="13.6408783"><ele>458.0</ele><time>2026-04-04T08:48:24.812Z</time></trkpt><trkpt lat="42.9354517" lon="13.6407783"><ele>458.0</ele><time>2026-04-04T08:48:25.813Z</time></trkpt><trkpt lat="42.9355433" lon="13.64066"><ele>458.0</ele><time>2026-04-04T08:48:26.812Z</time></trkpt><trkpt lat="42.935635" lon="13.64053"><ele>458.0</ele><time>2026-04-04T08:48:27.813Z</time></trkpt><trkpt lat="42.9357433" lon="13.6404333"><ele>458.0</ele><time>2026-04-04T08:48:28.812Z</time></trkpt><trkpt lat="42.93586" lon="13.6403467"><ele>458.0</ele><time>2026-04-04T08:48:29.813Z</time></trkpt><trkpt lat="42.9359767" lon="13.64027"><ele>458.0</ele><time>2026-04-04T08:48:30.812Z</time></trkpt><trkpt lat="42.9360883" lon="13.6402117"><ele>458.0</ele><time>2026-04-04T08:48:31.812Z</time></trkpt><trkpt lat="42.936205" lon="13.64016"><ele>458.25</ele><time>2026-04-04T08:48:32.813Z</time></trkpt><trkpt lat="42.93633" lon="13.6401117"><ele>458.5</ele><time>2026-04-04T08:48:33.812Z</time></trkpt><trkpt lat="42.9364733" lon="13.6400617"><ele>458.75</ele><time>2026-04-04T08:48:34.813Z</time></trkpt><trkpt lat="42.9366067" lon="13.64002"><ele>459.0</ele><time>2026-04-04T08:48:35.813Z</time></trkpt><trkpt lat="42.9367267" lon="13.639955"><ele>459.0</ele><time>2026-04-04T08:48:36.813Z</time></trkpt><trkpt lat="42.9368367" lon="13.639885"><ele>459.0</ele><time>2026-04-04T08:48:37.813Z</time></trkpt><trkpt lat="42.9369467" lon="13.6398183"><ele>459.0</ele><time>2026-04-04T08:48:38.812Z</time></trkpt><trkpt lat="42.9370567" lon="13.6397567"><ele>459.0</ele><time>2026-04-04T08:48:39.813Z</time></trkpt><trkpt lat="42.9371617" lon="13.639705"><ele>459.0</ele><time>2026-04-04T08:48:40.813Z</time></trkpt><trkpt lat="42.9372733" lon="13.6396333"><ele>459.0</ele><time>2026-04-04T08:48:41.813Z</time></trkpt><trkpt lat="42.937385" lon="13.6395617"><ele>459.0</ele><time>2026-04-04T08:48:42.812Z</time></trkpt><trkpt lat="42.937495" lon="13.63949"><ele>459.0</ele><time>2026-04-04T08:48:43.813Z</time></trkpt><trkpt lat="42.9376067" lon="13.6394233"><ele>459.75</ele><time>2026-04-04T08:48:44.813Z</time></trkpt><trkpt lat="42.9377283" lon="13.639365"><ele>460.5</ele><time>2026-04-04T08:48:45.813Z</time></trkpt><trkpt lat="42.93786" lon="13.6393117"><ele>461.25</ele><time>2026-04-04T08:48:46.813Z</time></trkpt><trkpt lat="42.93799" lon="13.639255"><ele>462.0</ele><time>2026-04-04T08:48:47.812Z</time></trkpt><trkpt lat="42.9381133" lon="13.6391983"><ele>462.0</ele><time>2026-04-04T08:48:48.812Z</time></trkpt><trkpt lat="42.9382383" lon="13.6391433"><ele>462.0</ele><time>2026-04-04T08:48:49.812Z</time></trkpt><trkpt lat="42.9383667" lon="13.639105"><ele>462.0</ele><time>2026-04-04T08:48:50.813Z</time></trkpt><trkpt lat="42.9385067" lon="13.63908"><ele>462.0</ele><time>2026-04-04T08:48:51.813Z</time></trkpt><trkpt lat="42.93865" lon="13.6390567"><ele>461.0</ele><time>2026-04-04T08:48:52.812Z</time></trkpt><trkpt lat="42.9387883" lon="13.63904"><ele>460.0</ele><time>2026-04-04T08:48:53.813Z</time></trkpt><trkpt lat="42.938935" lon="13.6390233"><ele>459.0</ele><time>2026-04-04T08:48:54.813Z</time></trkpt><trkpt lat="42.9390833" lon="13.63897"><ele>458.0</ele><time>2026-04-04T08:48:55.812Z</time></trkpt><trkpt lat="42.93923" lon="13.638915"><ele>458.0</ele><time>2026-04-04T08:48:56.812Z</time></trkpt><trkpt lat="42.9393717" lon="13.63887"><ele>458.0</ele><time>2026-04-04T08:48:57.812Z</time></trkpt><trkpt lat="42.9395017" lon="13.638825"><ele>458.0</ele><time>2026-04-04T08:48:58.812Z</time></trkpt><trkpt lat="42.9396183" lon="13.63877"><ele>458.0</ele><time>2026-04-04T08:48:59.812Z</time></trkpt><trkpt lat="42.9397233" lon="13.638725"><ele>458.0</ele><time>2026-04-04T08:49:00.813Z</time></trkpt><trkpt lat="42.939825" lon="13.638705"><ele>457.99999999999994</ele><time>2026-04-04T08:49:01.812Z</time></trkpt><trkpt lat="42.9399233" lon="13.6387267"><ele>457.99999999999994</ele><time>2026-04-04T08:49:02.813Z</time></trkpt><trkpt lat="42.9400283" lon="13.6387833"><ele>458.0</ele><time>2026-04-04T08:49:03.813Z</time></trkpt><trkpt lat="42.9401233" lon="13.6388817"><ele>458.0</ele><time>2026-04-04T08:49:04.813Z</time></trkpt><trkpt lat="42.9402083" lon="13.638995"><ele>456.4</ele><time>2026-04-04T08:49:05.812Z</time></trkpt><trkpt lat="42.9402917" lon="13.6391217"><ele>454.79999999999995</ele><time>2026-04-04T08:49:06.812Z</time></trkpt><trkpt lat="42.94035" lon="13.639205"><ele>453.2</ele><time>2026-04-04T08:49:07.813Z</time></trkpt><trkpt lat="42.9404033" lon="13.6392667"><ele>451.6</ele><time>2026-04-04T08:49:08.812Z</time></trkpt><trkpt lat="42.940465" lon="13.63929"><ele>450.0</ele><time>2026-04-04T08:49:09.812Z</time></trkpt><trkpt lat="42.9405767" lon="13.6391867"><ele>450.0</ele><time>2026-04-04T08:49:11.812Z</time></trkpt><trkpt lat="42.94061" lon="13.6390783"><ele>450.0</ele><time>2026-04-04T08:49:12.812Z</time></trkpt><trkpt lat="42.9406233" lon="13.6389633"><ele>450.0</ele><time>2026-04-04T08:49:13.812Z</time></trkpt><trkpt lat="42.9406167" lon="13.6388333"><ele>450.0</ele><time>2026-04-04T08:49:14.813Z</time></trkpt><trkpt lat="42.9406033" lon="13.6386917"><ele>450.0</ele><time>2026-04-04T08:49:15.812Z</time></trkpt><trkpt lat="42.9405933" lon="13.638555"><ele>449.8</ele><time>2026-04-04T08:49:16.812Z</time></trkpt><trkpt lat="42.940595" lon="13.63842"><ele>449.6</ele><time>2026-04-04T08:49:17.812Z</time></trkpt><trkpt lat="42.9405867" lon="13.638265"><ele>449.4</ele><time>2026-04-04T08:49:18.812Z</time></trkpt><trkpt lat="42.940585" lon="13.63811"><ele>449.2</ele><time>2026-04-04T08:49:19.812Z</time></trkpt><trkpt lat="42.9405833" lon="13.6379517"><ele>449.0</ele><time>2026-04-04T08:49:20.812Z</time></trkpt><trkpt lat="42.9405717" lon="13.6377817"><ele>449.0</ele><time>2026-04-04T08:49:21.812Z</time></trkpt><trkpt lat="42.9405433" lon="13.6375917"><ele>449.0</ele><time>2026-04-04T08:49:22.812Z</time></trkpt><trkpt lat="42.94054" lon="13.637415"><ele>449.0</ele><time>2026-04-04T08:49:23.813Z</time></trkpt><trkpt lat="42.9405417" lon="13.63726"><ele>449.0</ele><time>2026-04-04T08:49:24.812Z</time></trkpt><trkpt lat="42.94053" lon="13.6371317"><ele>448.99999999999994</ele><time>2026-04-04T08:49:25.813Z</time></trkpt><trkpt lat="42.9405167" lon="13.6370317"><ele>449.0</ele><time>2026-04-04T08:49:26.813Z</time></trkpt><trkpt lat="42.9405117" lon="13.63687"><ele>449.0</ele><time>2026-04-04T08:49:28.812Z</time></trkpt><trkpt lat="42.9405267" lon="13.6367817"><ele>449.0</ele><time>2026-04-04T08:49:29.813Z</time></trkpt><trkpt lat="42.9405517" lon="13.6366817"><ele>448.99999999999994</ele><time>2026-04-04T08:49:30.813Z</time></trkpt><trkpt lat="42.94057" lon="13.6365783"><ele>449.0</ele><time>2026-04-04T08:49:31.812Z</time></trkpt><trkpt lat="42.94057" lon="13.636475"><ele>449.2</ele><time>2026-04-04T08:49:32.812Z</time></trkpt><trkpt lat="42.94054" lon="13.636375"><ele>449.4</ele><time>2026-04-04T08:49:33.812Z</time></trkpt><trkpt lat="42.9404817" lon="13.6362917"><ele>449.6</ele><time>2026-04-04T08:49:34.812Z</time></trkpt><trkpt lat="42.940405" lon="13.6362083"><ele>449.8</ele><time>2026-04-04T08:49:35.812Z</time></trkpt><trkpt lat="42.940315" lon="13.6361117"><ele>450.0</ele><time>2026-04-04T08:49:36.812Z</time></trkpt><trkpt lat="42.9402283" lon="13.6359967"><ele>450.25</ele><time>2026-04-04T08:49:37.812Z</time></trkpt><trkpt lat="42.9401567" lon="13.6358733"><ele>450.5</ele><time>2026-04-04T08:49:38.812Z</time></trkpt><trkpt lat="42.9400883" lon="13.6357417"><ele>450.75</ele><time>2026-04-04T08:49:39.813Z</time></trkpt><trkpt lat="42.9400267" lon="13.6356017"><ele>451.0</ele><time>2026-04-04T08:49:40.812Z</time></trkpt><trkpt lat="42.93997" lon="13.6354633"><ele>451.0</ele><time>2026-04-04T08:49:41.813Z</time></trkpt><trkpt lat="42.939925" lon="13.6353283"><ele>451.0</ele><time>2026-04-04T08:49:42.812Z</time></trkpt><trkpt lat="42.9398783" lon="13.6351967"><ele>451.0</ele><time>2026-04-04T08:49:43.813Z</time></trkpt><trkpt lat="42.93984" lon="13.6350617"><ele>451.0</ele><time>2026-04-04T08:49:44.813Z</time></trkpt><trkpt lat="42.9397967" lon="13.63493"><ele>451.0</ele><time>2026-04-04T08:49:45.812Z</time></trkpt><trkpt lat="42.939755" lon="13.6347933"><ele>449.8</ele><time>2026-04-04T08:49:46.812Z</time></trkpt><trkpt lat="42.939715" lon="13.63466"><ele>448.6</ele><time>2026-04-04T08:49:47.812Z</time></trkpt><trkpt lat="42.9396733" lon="13.63452"><ele>447.4</ele><time>2026-04-04T08:49:48.812Z</time></trkpt><trkpt lat="42.93963" lon="13.6343783"><ele>446.2</ele><time>2026-04-04T08:49:49.813Z</time></trkpt><trkpt lat="42.9395917" lon="13.6342367"><ele>445.0</ele><time>2026-04-04T08:49:50.812Z</time></trkpt><trkpt lat="42.93955" lon="13.6340983"><ele>445.0</ele><time>2026-04-04T08:49:51.813Z</time></trkpt><trkpt lat="42.9395" lon="13.633965"><ele>445.0</ele><time>2026-04-04T08:49:52.812Z</time></trkpt><trkpt lat="42.9394533" lon="13.6338433"><ele>445.0</ele><time>2026-04-04T08:49:53.813Z</time></trkpt><trkpt lat="42.93941" lon="13.6337183"><ele>445.0</ele><time>2026-04-04T08:49:54.812Z</time></trkpt><trkpt lat="42.9393667" lon="13.6335967"><ele>445.0</ele><time>2026-04-04T08:49:55.812Z</time></trkpt><trkpt lat="42.9393283" lon="13.6334683"><ele>446.2</ele><time>2026-04-04T08:49:56.812Z</time></trkpt><trkpt lat="42.9392917" lon="13.633345"><ele>447.4</ele><time>2026-04-04T08:49:57.813Z</time></trkpt><trkpt lat="42.9392533" lon="13.6332283"><ele>448.6</ele><time>2026-04-04T08:49:58.813Z</time></trkpt><trkpt lat="42.9392133" lon="13.633115"><ele>449.8</ele><time>2026-04-04T08:49:59.811Z</time></trkpt><trkpt lat="42.9391717" lon="13.633"><ele>451.0</ele><time>2026-04-04T08:50:00.811Z</time></trkpt><trkpt lat="42.93913" lon="13.6328917"><ele>447.75</ele><time>2026-04-04T08:50:01.811Z</time></trkpt><trkpt lat="42.939095" lon="13.6327833"><ele>444.5</ele><time>2026-04-04T08:50:02.811Z</time></trkpt><trkpt lat="42.9390267" lon="13.632575"><ele>441.25</ele><time>2026-04-04T08:50:04.811Z</time></trkpt><trkpt lat="42.9389617" lon="13.6324083"><ele>438.0</ele><time>2026-04-04T08:50:06.812Z</time></trkpt><trkpt lat="42.9389383" lon="13.6323117"><ele>438.0</ele><time>2026-04-04T08:50:07.812Z</time></trkpt><trkpt lat="42.9389133" lon="13.6322017"><ele>438.0</ele><time>2026-04-04T08:50:08.811Z</time></trkpt><trkpt lat="42.9389" lon="13.6320833"><ele>438.0</ele><time>2026-04-04T08:50:09.811Z</time></trkpt><trkpt lat="42.93889" lon="13.6319667"><ele>438.0</ele><time>2026-04-04T08:50:10.812Z</time></trkpt><trkpt lat="42.9388667" lon="13.6318517"><ele>438.0</ele><time>2026-04-04T08:50:11.811Z</time></trkpt><trkpt lat="42.938845" lon="13.6317317"><ele>438.0</ele><time>2026-04-04T08:50:12.811Z</time></trkpt><trkpt lat="42.9388267" lon="13.6316167"><ele>438.0</ele><time>2026-04-04T08:50:13.812Z</time></trkpt><trkpt lat="42.9387983" lon="13.6315067"><ele>438.0</ele><time>2026-04-04T08:50:14.812Z</time></trkpt><trkpt lat="42.938775" lon="13.6314033"><ele>438.0</ele><time>2026-04-04T08:50:15.811Z</time></trkpt><trkpt lat="42.9387483" lon="13.6313"><ele>438.0</ele><time>2026-04-04T08:50:16.811Z</time></trkpt><trkpt lat="42.9387317" lon="13.6312"><ele>438.0</ele><time>2026-04-04T08:50:17.812Z</time></trkpt><trkpt lat="42.93869" lon="13.631055"><ele>438.0</ele><time>2026-04-04T08:50:19.811Z</time></trkpt><trkpt lat="42.9386633" lon="13.6309533"><ele>437.59999999999997</ele><time>2026-04-04T08:50:21.811Z</time></trkpt><trkpt lat="42.9386433" lon="13.63084"><ele>437.19999999999993</ele><time>2026-04-04T08:50:24.811Z</time></trkpt><trkpt lat="42.93863" lon="13.6307267"><ele>436.8</ele><time>2026-04-04T08:50:26.812Z</time></trkpt><trkpt lat="42.938615" lon="13.630555"><ele>436.4</ele><time>2026-04-04T08:50:28.811Z</time></trkpt><trkpt lat="42.9386017" lon="13.630445"><ele>436.0</ele><time>2026-04-04T08:50:29.811Z</time></trkpt><trkpt lat="42.938585" lon="13.630325"><ele>435.0</ele><time>2026-04-04T08:50:30.812Z</time></trkpt><trkpt lat="42.938565" lon="13.6302017"><ele>434.0</ele><time>2026-04-04T08:50:31.811Z</time></trkpt><trkpt lat="42.938555" lon="13.6300783"><ele>433.0</ele><time>2026-04-04T08:50:32.811Z</time></trkpt><trkpt lat="42.9385467" lon="13.6299483"><ele>432.0</ele><time>2026-04-04T08:50:33.811Z</time></trkpt><trkpt lat="42.9385333" lon="13.6298167"><ele>431.0</ele><time>2026-04-04T08:50:34.812Z</time></trkpt><trkpt lat="42.9385167" lon="13.6296817"><ele>431.0</ele><time>2026-04-04T08:50:35.811Z</time></trkpt><trkpt lat="42.9385033" lon="13.629555"><ele>431.0</ele><time>2026-04-04T08:50:36.811Z</time></trkpt><trkpt lat="42.9384933" lon="13.6294483"><ele>431.0</ele><time>2026-04-04T08:50:37.812Z</time></trkpt><trkpt lat="42.9384967" lon="13.6292967"><ele>431.0</ele><time>2026-04-04T08:50:39.811Z</time></trkpt><trkpt lat="42.9385233" lon="13.6291733"><ele>431.0</ele><time>2026-04-04T08:50:41.811Z</time></trkpt><trkpt lat="42.9385617" lon="13.6290017"><ele>429.20000000000005</ele><time>2026-04-04T08:50:43.811Z</time></trkpt><trkpt lat="42.938605" lon="13.628905"><ele>427.40000000000003</ele><time>2026-04-04T08:50:44.811Z</time></trkpt><trkpt lat="42.9386783" lon="13.6288367"><ele>425.6</ele><time>2026-04-04T08:50:45.812Z</time></trkpt><trkpt lat="42.9387633" lon="13.62878"><ele>423.8</ele><time>2026-04-04T08:50:46.811Z</time></trkpt><trkpt lat="42.9388617" lon="13.6287283"><ele>422.0</ele><time>2026-04-04T08:50:47.811Z</time></trkpt><trkpt lat="42.93897" lon="13.6286817"><ele>422.40000000000003</ele><time>2026-04-04T08:50:48.811Z</time></trkpt><trkpt lat="42.9390833" lon="13.6286317"><ele>422.8</ele><time>2026-04-04T08:50:49.811Z</time></trkpt><trkpt lat="42.939195" lon="13.6285933"><ele>423.2</ele><time>2026-04-04T08:50:50.811Z</time></trkpt><trkpt lat="42.93929" lon="13.62855"><ele>423.6</ele><time>2026-04-04T08:50:51.811Z</time></trkpt><trkpt lat="42.9393833" lon="13.6285017"><ele>424.0</ele><time>2026-04-04T08:50:52.812Z</time></trkpt><trkpt lat="42.9394667" lon="13.6284567"><ele>424.00000000000006</ele><time>2026-04-04T08:50:53.811Z</time></trkpt><trkpt lat="42.9395367" lon="13.6284167"><ele>424.0</ele><time>2026-04-04T08:50:54.812Z</time></trkpt><trkpt lat="42.9395983" lon="13.628385"><ele>424.0</ele><time>2026-04-04T08:50:55.811Z</time></trkpt><trkpt lat="42.93968" lon="13.6283567"><ele>424.0</ele><time>2026-04-04T08:50:57.812Z</time></trkpt><trkpt lat="42.93972" lon="13.62825"><ele>424.00000000000006</ele><time>2026-04-04T08:51:01.812Z</time></trkpt><trkpt lat="42.9397" lon="13.6280733"><ele>424.0</ele><time>2026-04-04T08:51:03.812Z</time></trkpt><trkpt lat="42.9396683" lon="13.6279367"><ele>426.25</ele><time>2026-04-04T08:51:04.811Z</time></trkpt><trkpt lat="42.9396233" lon="13.627785"><ele>428.5</ele><time>2026-04-04T08:51:05.811Z</time></trkpt><trkpt lat="42.9395767" lon="13.62763"><ele>430.75</ele><time>2026-04-04T08:51:06.812Z</time></trkpt><trkpt lat="42.939525" lon="13.62747"><ele>433.0</ele><time>2026-04-04T08:51:07.811Z</time></trkpt><trkpt lat="42.9394667" lon="13.6273267"><ele>433.0</ele><time>2026-04-04T08:51:08.811Z</time></trkpt><trkpt lat="42.939405" lon="13.6271733"><ele>433.0</ele><time>2026-04-04T08:51:09.812Z</time></trkpt><trkpt lat="42.9393433" lon="13.6270283"><ele>433.0</ele><time>2026-04-04T08:51:10.811Z</time></trkpt><trkpt lat="42.9392883" lon="13.6268883"><ele>433.0</ele><time>2026-04-04T08:51:11.811Z</time></trkpt><trkpt lat="42.9392383" lon="13.6267383"><ele>433.2</ele><time>2026-04-04T08:51:12.811Z</time></trkpt><trkpt lat="42.9391883" lon="13.6266067"><ele>433.4</ele><time>2026-04-04T08:51:13.812Z</time></trkpt><trkpt lat="42.939135" lon="13.6264717"><ele>433.59999999999997</ele><time>2026-04-04T08:51:14.811Z</time></trkpt><trkpt lat="42.9390817" lon="13.62634"><ele>433.79999999999995</ele><time>2026-04-04T08:51:15.811Z</time></trkpt><trkpt lat="42.9390267" lon="13.626205"><ele>434.0</ele><time>2026-04-04T08:51:16.812Z</time></trkpt><trkpt lat="42.9389717" lon="13.626065"><ele>434.0</ele><time>2026-04-04T08:51:17.811Z</time></trkpt><trkpt lat="42.9389267" lon="13.6259383"><ele>434.0</ele><time>2026-04-04T08:51:18.811Z</time></trkpt><trkpt lat="42.9388817" lon="13.6258167"><ele>434.0</ele><time>2026-04-04T08:51:19.812Z</time></trkpt><trkpt lat="42.938845" lon="13.625705"><ele>434.0</ele><time>2026-04-04T08:51:20.812Z</time></trkpt><trkpt lat="42.9388017" lon="13.6255967"><ele>434.0</ele><time>2026-04-04T08:51:21.812Z</time></trkpt><trkpt lat="42.93876" lon="13.625495"><ele>434.0</ele><time>2026-04-04T08:51:22.812Z</time></trkpt><trkpt lat="42.938715" lon="13.6253967"><ele>434.0</ele><time>2026-04-04T08:51:23.811Z</time></trkpt><trkpt lat="42.9386733" lon="13.6252833"><ele>434.0</ele><time>2026-04-04T08:51:24.811Z</time></trkpt><trkpt lat="42.9386167" lon="13.6251617"><ele>434.0</ele><time>2026-04-04T08:51:25.811Z</time></trkpt><trkpt lat="42.9385567" lon="13.6250283"><ele>434.0</ele><time>2026-04-04T08:51:26.811Z</time></trkpt><trkpt lat="42.93851" lon="13.62489"><ele>434.2</ele><time>2026-04-04T08:51:27.811Z</time></trkpt><trkpt lat="42.9384583" lon="13.6247617"><ele>434.4</ele><time>2026-04-04T08:51:28.811Z</time></trkpt><trkpt lat="42.9384083" lon="13.6246383"><ele>434.6</ele><time>2026-04-04T08:51:29.811Z</time></trkpt><trkpt lat="42.9383583" lon="13.62453"><ele>434.8</ele><time>2026-04-04T08:51:30.811Z</time></trkpt><trkpt lat="42.9383" lon="13.624435"><ele>435.0</ele><time>2026-04-04T08:51:31.811Z</time></trkpt><trkpt lat="42.938245" lon="13.6243383"><ele>435.0</ele><time>2026-04-04T08:51:32.812Z</time></trkpt><trkpt lat="42.938175" lon="13.62424"><ele>435.0</ele><time>2026-04-04T08:51:33.811Z</time></trkpt><trkpt lat="42.9381017" lon="13.624155"><ele>435.0</ele><time>2026-04-04T08:51:34.811Z</time></trkpt><trkpt lat="42.9380383" lon="13.624065"><ele>435.0</ele><time>2026-04-04T08:51:35.811Z</time></trkpt><trkpt lat="42.9379717" lon="13.623975"><ele>435.0</ele><time>2026-04-04T08:51:36.812Z</time></trkpt><trkpt lat="42.9379083" lon="13.6238867"><ele>435.0</ele><time>2026-04-04T08:51:37.812Z</time></trkpt><trkpt lat="42.9378383" lon="13.623815"><ele>435.0</ele><time>2026-04-04T08:51:38.811Z</time></trkpt><trkpt lat="42.9377633" lon="13.6237333"><ele>435.0</ele><time>2026-04-04T08:51:39.812Z</time></trkpt><trkpt lat="42.9377083" lon="13.6236583"><ele>435.0</ele><time>2026-04-04T08:51:40.811Z</time></trkpt><trkpt lat="42.9376517" lon="13.6235933"><ele>435.0</ele><time>2026-04-04T08:51:41.812Z</time></trkpt><trkpt lat="42.937605" lon="13.6235317"><ele>435.0</ele><time>2026-04-04T08:51:42.811Z</time></trkpt><trkpt lat="42.9375217" lon="13.6234567"><ele>433.8333333333333</ele><time>2026-04-04T08:51:44.811Z</time></trkpt><trkpt lat="42.937465" lon="13.6233933"><ele>432.66666666666663</ele><time>2026-04-04T08:51:46.811Z</time></trkpt><trkpt lat="42.937475" lon="13.623305"><ele>431.5</ele><time>2026-04-04T08:51:49.811Z</time></trkpt><trkpt lat="42.9375667" lon="13.6232867"><ele>430.3333333333333</ele><time>2026-04-04T08:51:51.812Z</time></trkpt><trkpt lat="42.9376333" lon="13.6232867"><ele>429.16666666666663</ele><time>2026-04-04T08:51:52.811Z</time></trkpt><trkpt lat="42.93772" lon="13.623285"><ele>428.0</ele><time>2026-04-04T08:51:53.811Z</time></trkpt><trkpt lat="42.937805" lon="13.6232883"><ele>431.3333333333333</ele><time>2026-04-04T08:51:54.811Z</time></trkpt><trkpt lat="42.9378883" lon="13.6232733"><ele>434.66666666666663</ele><time>2026-04-04T08:51:55.811Z</time></trkpt><trkpt lat="42.937965" lon="13.6232467"><ele>438.0</ele><time>2026-04-04T08:51:56.811Z</time></trkpt><trkpt lat="42.9380433" lon="13.6231967"><ele>441.33333333333337</ele><time>2026-04-04T08:51:57.812Z</time></trkpt><trkpt lat="42.9381233" lon="13.6231583"><ele>444.6666666666667</ele><time>2026-04-04T08:51:58.811Z</time></trkpt><trkpt lat="42.93821" lon="13.6231433"><ele>448.0</ele><time>2026-04-04T08:51:59.812Z</time></trkpt><trkpt lat="42.9382867" lon="13.62313"><ele>448.0</ele><time>2026-04-04T08:52:00.811Z</time></trkpt><trkpt lat="42.9383917" lon="13.623125"><ele>447.99999999999994</ele><time>2026-04-04T08:52:02.811Z</time></trkpt><trkpt lat="42.9384433" lon="13.62304"><ele>447.99999999999994</ele><time>2026-04-04T08:52:05.812Z</time></trkpt><trkpt lat="42.938535" lon="13.6230633"><ele>448.0</ele><time>2026-04-04T08:52:09.811Z</time></trkpt><trkpt lat="42.9386267" lon="13.6231533"><ele>448.0</ele><time>2026-04-04T08:52:11.811Z</time></trkpt><trkpt lat="42.9386933" lon="13.623105"><ele>448.0</ele><time>2026-04-04T08:52:15.811Z</time></trkpt><trkpt lat="42.938695" lon="13.6229967"><ele>447.99999999999994</ele><time>2026-04-04T08:52:17.812Z</time></trkpt><trkpt lat="42.938675" lon="13.62291"><ele>447.99999999999994</ele><time>2026-04-04T08:52:18.812Z</time></trkpt><trkpt lat="42.93864" lon="13.6228067"><ele>448.0</ele><time>2026-04-04T08:52:19.812Z</time></trkpt><trkpt lat="42.9385867" lon="13.6226717"><ele>448.0</ele><time>2026-04-04T08:52:20.811Z</time></trkpt><trkpt lat="42.9385417" lon="13.6224983"><ele>446.25</ele><time>2026-04-04T08:52:21.811Z</time></trkpt><trkpt lat="42.9385" lon="13.6223183"><ele>444.5</ele><time>2026-04-04T08:52:22.812Z</time></trkpt><trkpt lat="42.9384833" lon="13.622145"><ele>442.75</ele><time>2026-04-04T08:52:23.811Z</time></trkpt><trkpt lat="42.9384817" lon="13.621975"><ele>441.0</ele><time>2026-04-04T08:52:24.812Z</time></trkpt><trkpt lat="42.9384867" lon="13.621805"><ele>438.5</ele><time>2026-04-04T08:52:25.811Z</time></trkpt><trkpt lat="42.9385" lon="13.6216317"><ele>436.0</ele><time>2026-04-04T08:52:26.811Z</time></trkpt><trkpt lat="42.938505" lon="13.62146"><ele>433.5</ele><time>2026-04-04T08:52:27.811Z</time></trkpt><trkpt lat="42.93852" lon="13.6212917"><ele>431.0</ele><time>2026-04-04T08:52:28.811Z</time></trkpt><trkpt lat="42.9385333" lon="13.6211267"><ele>427.0</ele><time>2026-04-04T08:52:29.811Z</time></trkpt><trkpt lat="42.9385417" lon="13.620965"><ele>423.0</ele><time>2026-04-04T08:52:30.811Z</time></trkpt><trkpt lat="42.938555" lon="13.620805"><ele>419.0</ele><time>2026-04-04T08:52:31.811Z</time></trkpt><trkpt lat="42.93857" lon="13.6206483"><ele>415.0</ele><time>2026-04-04T08:52:32.812Z</time></trkpt><trkpt lat="42.9385817" lon="13.620495"><ele>415.0</ele><time>2026-04-04T08:52:33.811Z</time></trkpt><trkpt lat="42.9385883" lon="13.6203583"><ele>415.0</ele><time>2026-04-04T08:52:34.811Z</time></trkpt><trkpt lat="42.9385733" lon="13.6202267"><ele>415.0</ele><time>2026-04-04T08:52:35.811Z</time></trkpt><trkpt lat="42.93853" lon="13.6201033"><ele>415.0</ele><time>2026-04-04T08:52:36.811Z</time></trkpt><trkpt lat="42.9384767" lon="13.62001"><ele>415.0</ele><time>2026-04-04T08:52:37.812Z</time></trkpt><trkpt lat="42.9383933" lon="13.61995"><ele>419.0</ele><time>2026-04-04T08:52:38.812Z</time></trkpt><trkpt lat="42.938285" lon="13.6199117"><ele>423.0</ele><time>2026-04-04T08:52:39.811Z</time></trkpt><trkpt lat="42.9381767" lon="13.619875"><ele>427.0</ele><time>2026-04-04T08:52:40.811Z</time></trkpt><trkpt lat="42.9380733" lon="13.6198483"><ele>431.0</ele><time>2026-04-04T08:52:41.811Z</time></trkpt><trkpt lat="42.9379717" lon="13.6198133"><ele>435.0</ele><time>2026-04-04T08:52:42.812Z</time></trkpt><trkpt lat="42.93788" lon="13.619775"><ele>435.0</ele><time>2026-04-04T08:52:43.811Z</time></trkpt><trkpt lat="42.9377833" lon="13.6197233"><ele>435.0</ele><time>2026-04-04T08:52:44.811Z</time></trkpt><trkpt lat="42.937725" lon="13.6196417"><ele>435.0</ele><time>2026-04-04T08:52:45.811Z</time></trkpt><trkpt lat="42.9376917" lon="13.61951"><ele>435.0</ele><time>2026-04-04T08:52:46.811Z</time></trkpt><trkpt lat="42.9376733" lon="13.61936"><ele>435.0</ele><time>2026-04-04T08:52:47.812Z</time></trkpt><trkpt lat="42.9376617" lon="13.6192083"><ele>431.4</ele><time>2026-04-04T08:52:48.811Z</time></trkpt><trkpt lat="42.937655" lon="13.6190683"><ele>427.8</ele><time>2026-04-04T08:52:49.812Z</time></trkpt><trkpt lat="42.9376467" lon="13.6189183"><ele>424.20000000000005</ele><time>2026-04-04T08:52:50.812Z</time></trkpt><trkpt lat="42.9376417" lon="13.61876"><ele>420.6</ele><time>2026-04-04T08:52:51.811Z</time></trkpt><trkpt lat="42.937645" lon="13.6186067"><ele>417.0</ele><time>2026-04-04T08:52:52.812Z</time></trkpt><trkpt lat="42.9376433" lon="13.6184583"><ele>416.25</ele><time>2026-04-04T08:52:53.812Z</time></trkpt><trkpt lat="42.9376417" lon="13.6183017"><ele>415.5</ele><time>2026-04-04T08:52:54.812Z</time></trkpt><trkpt lat="42.93764" lon="13.6181383"><ele>414.75</ele><time>2026-04-04T08:52:55.811Z</time></trkpt><trkpt lat="42.93764" lon="13.6179817"><ele>414.0</ele><time>2026-04-04T08:52:56.811Z</time></trkpt><trkpt lat="42.9376383" lon="13.61783"><ele>414.0</ele><time>2026-04-04T08:52:57.811Z</time></trkpt><trkpt lat="42.9376333" lon="13.6176683"><ele>414.0</ele><time>2026-04-04T08:52:58.811Z</time></trkpt><trkpt lat="42.9376367" lon="13.6175"><ele>414.0</ele><time>2026-04-04T08:52:59.811Z</time></trkpt><trkpt lat="42.9376467" lon="13.61734"><ele>414.0</ele><time>2026-04-04T08:53:00.811Z</time></trkpt><trkpt lat="42.937665" lon="13.6171783"><ele>414.0</ele><time>2026-04-04T08:53:01.811Z</time></trkpt><trkpt lat="42.93769" lon="13.61702"><ele>414.0</ele><time>2026-04-04T08:53:02.811Z</time></trkpt><trkpt lat="42.93771" lon="13.6168583"><ele>414.0</ele><time>2026-04-04T08:53:03.811Z</time></trkpt><trkpt lat="42.9377417" lon="13.6166967"><ele>414.0</ele><time>2026-04-04T08:53:04.812Z</time></trkpt><trkpt lat="42.9377717" lon="13.6165333"><ele>415.75</ele><time>2026-04-04T08:53:05.811Z</time></trkpt><trkpt lat="42.9378033" lon="13.6163767"><ele>417.5</ele><time>2026-04-04T08:53:06.811Z</time></trkpt><trkpt lat="42.9378317" lon="13.616215"><ele>419.25</ele><time>2026-04-04T08:53:07.811Z</time></trkpt><trkpt lat="42.9378633" lon="13.616065"><ele>421.0</ele><time>2026-04-04T08:53:08.812Z</time></trkpt><trkpt lat="42.9378983" lon="13.615905"><ele>422.0</ele><time>2026-04-04T08:53:09.811Z</time></trkpt><trkpt lat="42.9379283" lon="13.6157417"><ele>423.0</ele><time>2026-04-04T08:53:10.812Z</time></trkpt><trkpt lat="42.93796" lon="13.6155817"><ele>424.0</ele><time>2026-04-04T08:53:11.812Z</time></trkpt><trkpt lat="42.937995" lon="13.6154233"><ele>425.0</ele><time>2026-04-04T08:53:12.811Z</time></trkpt><trkpt lat="42.93802" lon="13.6152767"><ele>425.25</ele><time>2026-04-04T08:53:13.811Z</time></trkpt><trkpt lat="42.93806" lon="13.61511"><ele>425.5</ele><time>2026-04-04T08:53:14.811Z</time></trkpt><trkpt lat="42.9380967" lon="13.614955"><ele>425.75</ele><time>2026-04-04T08:53:15.811Z</time></trkpt><trkpt lat="42.9381267" lon="13.614805"><ele>426.0</ele><time>2026-04-04T08:53:16.812Z</time></trkpt><trkpt lat="42.9381967" lon="13.6144917"><ele>426.25</ele><time>2026-04-04T08:53:18.811Z</time></trkpt><trkpt lat="42.9382317" lon="13.6143417"><ele>426.5</ele><time>2026-04-04T08:53:19.812Z</time></trkpt><trkpt lat="42.93826" lon="13.6141933"><ele>426.75</ele><time>2026-04-04T08:53:20.811Z</time></trkpt><trkpt lat="42.938295" lon="13.6140333"><ele>427.0</ele><time>2026-04-04T08:53:21.811Z</time></trkpt><trkpt lat="42.9383383" lon="13.6138817"><ele>425.0</ele><time>2026-04-04T08:53:22.811Z</time></trkpt><trkpt lat="42.9383867" lon="13.61373"><ele>423.0</ele><time>2026-04-04T08:53:23.811Z</time></trkpt><trkpt lat="42.9384333" lon="13.6135917"><ele>421.0</ele><time>2026-04-04T08:53:24.811Z</time></trkpt><trkpt lat="42.9384883" lon="13.613455"><ele>419.0</ele><time>2026-04-04T08:53:25.812Z</time></trkpt><trkpt lat="42.9385417" lon="13.6133133"><ele>419.0</ele><time>2026-04-04T08:53:26.811Z</time></trkpt><trkpt lat="42.9385933" lon="13.6131717"><ele>419.0</ele><time>2026-04-04T08:53:27.811Z</time></trkpt><trkpt lat="42.9386533" lon="13.613035"><ele>419.0</ele><time>2026-04-04T08:53:28.811Z</time></trkpt><trkpt lat="42.93871" lon="13.6129017"><ele>419.0</ele><time>2026-04-04T08:53:29.811Z</time></trkpt><trkpt lat="42.938775" lon="13.6127617"><ele>422.0</ele><time>2026-04-04T08:53:30.812Z</time></trkpt><trkpt lat="42.9388383" lon="13.6126083"><ele>425.0</ele><time>2026-04-04T08:53:31.812Z</time></trkpt><trkpt lat="42.9389117" lon="13.6124517"><ele>428.0</ele><time>2026-04-04T08:53:32.811Z</time></trkpt><trkpt lat="42.9389733" lon="13.6123017"><ele>431.0</ele><time>2026-04-04T08:53:33.811Z</time></trkpt><trkpt lat="42.9390317" lon="13.61215"><ele>431.0</ele><time>2026-04-04T08:53:34.812Z</time></trkpt><trkpt lat="42.9390817" lon="13.612"><ele>431.0</ele><time>2026-04-04T08:53:35.811Z</time></trkpt><trkpt lat="42.9391133" lon="13.611845"><ele>431.0</ele><time>2026-04-04T08:53:36.811Z</time></trkpt><trkpt lat="42.9391467" lon="13.6116867"><ele>431.0</ele><time>2026-04-04T08:53:37.812Z</time></trkpt><trkpt lat="42.9391717" lon="13.6115217"><ele>432.75</ele><time>2026-04-04T08:53:38.812Z</time></trkpt><trkpt lat="42.9391867" lon="13.61136"><ele>434.5</ele><time>2026-04-04T08:53:39.812Z</time></trkpt><trkpt lat="42.939205" lon="13.61119"><ele>436.25</ele><time>2026-04-04T08:53:40.812Z</time></trkpt><trkpt lat="42.939225" lon="13.611025"><ele>438.0</ele><time>2026-04-04T08:53:41.811Z</time></trkpt><trkpt lat="42.9392583" lon="13.6108633"><ele>436.0</ele><time>2026-04-04T08:53:42.811Z</time></trkpt><trkpt lat="42.9392983" lon="13.6107233"><ele>433.99999999999994</ele><time>2026-04-04T08:53:43.812Z</time></trkpt><trkpt lat="42.939345" lon="13.6105933"><ele>431.99999999999994</ele><time>2026-04-04T08:53:44.811Z</time></trkpt><trkpt lat="42.939395" lon="13.6104583"><ele>430.0</ele><time>2026-04-04T08:53:45.811Z</time></trkpt><trkpt lat="42.939455" lon="13.6103183"><ele>428.0</ele><time>2026-04-04T08:53:46.811Z</time></trkpt><trkpt lat="42.9395233" lon="13.61017"><ele>428.0</ele><time>2026-04-04T08:53:47.812Z</time></trkpt><trkpt lat="42.9395967" lon="13.610025"><ele>428.0</ele><time>2026-04-04T08:53:48.812Z</time></trkpt><trkpt lat="42.9396833" lon="13.6098733"><ele>428.0</ele><time>2026-04-04T08:53:49.811Z</time></trkpt><trkpt lat="42.93977" lon="13.6097167"><ele>428.0</ele><time>2026-04-04T08:53:50.811Z</time></trkpt><trkpt lat="42.9398533" lon="13.6095583"><ele>427.0</ele><time>2026-04-04T08:53:51.811Z</time></trkpt><trkpt lat="42.93995" lon="13.6094117"><ele>426.0</ele><time>2026-04-04T08:53:52.811Z</time></trkpt><trkpt lat="42.94005" lon="13.609265"><ele>425.0</ele><time>2026-04-04T08:53:53.811Z</time></trkpt><trkpt lat="42.94016" lon="13.609115"><ele>424.0</ele><time>2026-04-04T08:53:54.811Z</time></trkpt><trkpt lat="42.94027" lon="13.6089633"><ele>424.0</ele><time>2026-04-04T08:53:55.811Z</time></trkpt><trkpt lat="42.9403767" lon="13.608815"><ele>424.0</ele><time>2026-04-04T08:53:56.811Z</time></trkpt><trkpt lat="42.94048" lon="13.6086583"><ele>424.0</ele><time>2026-04-04T08:53:57.811Z</time></trkpt><trkpt lat="42.940575" lon="13.6085083"><ele>426.25</ele><time>2026-04-04T08:53:58.811Z</time></trkpt><trkpt lat="42.940655" lon="13.6083517"><ele>428.5</ele><time>2026-04-04T08:53:59.811Z</time></trkpt><trkpt lat="42.9407183" lon="13.6081883"><ele>430.75</ele><time>2026-04-04T08:54:00.811Z</time></trkpt><trkpt lat="42.9407667" lon="13.6080133"><ele>433.0</ele><time>2026-04-04T08:54:01.811Z</time></trkpt><trkpt lat="42.9408033" lon="13.6078367"><ele>433.0</ele><time>2026-04-04T08:54:02.811Z</time></trkpt><trkpt lat="42.940835" lon="13.607645"><ele>433.0</ele><time>2026-04-04T08:54:03.811Z</time></trkpt><trkpt lat="42.94087" lon="13.6074583"><ele>433.0</ele><time>2026-04-04T08:54:04.811Z</time></trkpt><trkpt lat="42.9408967" lon="13.6072717"><ele>433.0</ele><time>2026-04-04T08:54:05.812Z</time></trkpt><trkpt lat="42.940925" lon="13.6070833"><ele>426.5</ele><time>2026-04-04T08:54:06.811Z</time></trkpt><trkpt lat="42.94095" lon="13.606895"><ele>420.0</ele><time>2026-04-04T08:54:07.812Z</time></trkpt><trkpt lat="42.9409733" lon="13.6067117"><ele>413.5</ele><time>2026-04-04T08:54:08.811Z</time></trkpt><trkpt lat="42.9409983" lon="13.606535"><ele>407.0</ele><time>2026-04-04T08:54:09.812Z</time></trkpt><trkpt lat="42.9410117" lon="13.606345"><ele>407.0</ele><time>2026-04-04T08:54:10.811Z</time></trkpt><trkpt lat="42.9410267" lon="13.6061617"><ele>407.0</ele><time>2026-04-04T08:54:11.811Z</time></trkpt><trkpt lat="42.941045" lon="13.605975"><ele>407.0</ele><time>2026-04-04T08:54:12.811Z</time></trkpt><trkpt lat="42.9410533" lon="13.605785"><ele>407.0</ele><time>2026-04-04T08:54:13.811Z</time></trkpt><trkpt lat="42.94106" lon="13.6056"><ele>407.5</ele><time>2026-04-04T08:54:14.812Z</time></trkpt><trkpt lat="42.941055" lon="13.6054183"><ele>408.0</ele><time>2026-04-04T08:54:15.811Z</time></trkpt><trkpt lat="42.9410467" lon="13.60523"><ele>408.5</ele><time>2026-04-04T08:54:16.811Z</time></trkpt><trkpt lat="42.9410417" lon="13.60505"><ele>409.0</ele><time>2026-04-04T08:54:17.811Z</time></trkpt><trkpt lat="42.9410267" lon="13.6048633"><ele>409.0</ele><time>2026-04-04T08:54:18.812Z</time></trkpt><trkpt lat="42.941005" lon="13.6046883"><ele>409.0</ele><time>2026-04-04T08:54:19.812Z</time></trkpt><trkpt lat="42.94099" lon="13.604515"><ele>409.0</ele><time>2026-04-04T08:54:20.811Z</time></trkpt><trkpt lat="42.9409783" lon="13.6043433"><ele>409.0</ele><time>2026-04-04T08:54:21.811Z</time></trkpt><trkpt lat="42.9409633" lon="13.6041633"><ele>409.75</ele><time>2026-04-04T08:54:22.811Z</time></trkpt><trkpt lat="42.9409517" lon="13.6039783"><ele>410.5</ele><time>2026-04-04T08:54:23.812Z</time></trkpt><trkpt lat="42.9409617" lon="13.6037983"><ele>411.25</ele><time>2026-04-04T08:54:24.811Z</time></trkpt><trkpt lat="42.9409783" lon="13.6036083"><ele>412.0</ele><time>2026-04-04T08:54:25.811Z</time></trkpt><trkpt lat="42.9410117" lon="13.60341"><ele>413.0</ele><time>2026-04-04T08:54:26.811Z</time></trkpt><trkpt lat="42.94105" lon="13.603205"><ele>414.0</ele><time>2026-04-04T08:54:27.811Z</time></trkpt><trkpt lat="42.9410783" lon="13.60301"><ele>415.0</ele><time>2026-04-04T08:54:28.811Z</time></trkpt><trkpt lat="42.9411133" lon="13.6028067"><ele>415.75</ele><time>2026-04-04T08:54:29.811Z</time></trkpt><trkpt lat="42.9411433" lon="13.6026167"><ele>416.5</ele><time>2026-04-04T08:54:30.812Z</time></trkpt><trkpt lat="42.94117" lon="13.602435"><ele>417.25</ele><time>2026-04-04T08:54:31.812Z</time></trkpt><trkpt lat="42.9411867" lon="13.60226"><ele>418.0</ele><time>2026-04-04T08:54:32.812Z</time></trkpt><trkpt lat="42.9411883" lon="13.6020917"><ele>418.75</ele><time>2026-04-04T08:54:33.812Z</time></trkpt><trkpt lat="42.9411767" lon="13.6019183"><ele>419.5</ele><time>2026-04-04T08:54:34.812Z</time></trkpt><trkpt lat="42.9411483" lon="13.601755"><ele>420.25</ele><time>2026-04-04T08:54:35.811Z</time></trkpt><trkpt lat="42.9411233" lon="13.601595"><ele>421.0</ele><time>2026-04-04T08:54:36.811Z</time></trkpt><trkpt lat="42.94108" lon="13.6014233"><ele>421.0</ele><time>2026-04-04T08:54:37.811Z</time></trkpt><trkpt lat="42.941045" lon="13.6012533"><ele>421.0</ele><time>2026-04-04T08:54:38.812Z</time></trkpt><trkpt lat="42.9410333" lon="13.6010817"><ele>421.0</ele><time>2026-04-04T08:54:39.811Z</time></trkpt><trkpt lat="42.9410433" lon="13.6009183"><ele>421.0</ele><time>2026-04-04T08:54:40.811Z</time></trkpt><trkpt lat="42.9410683" lon="13.6007667"><ele>421.5</ele><time>2026-04-04T08:54:41.811Z</time></trkpt><trkpt lat="42.9411067" lon="13.6006117"><ele>422.0</ele><time>2026-04-04T08:54:42.812Z</time></trkpt><trkpt lat="42.941155" lon="13.6004633"><ele>422.5</ele><time>2026-04-04T08:54:43.811Z</time></trkpt><trkpt lat="42.9412117" lon="13.6003183"><ele>423.0</ele><time>2026-04-04T08:54:44.812Z</time></trkpt><trkpt lat="42.9412617" lon="13.6001733"><ele>424.75</ele><time>2026-04-04T08:54:45.812Z</time></trkpt><trkpt lat="42.9413" lon="13.60003"><ele>426.5</ele><time>2026-04-04T08:54:46.812Z</time></trkpt><trkpt lat="42.9413367" lon="13.5998767"><ele>428.25</ele><time>2026-04-04T08:54:47.812Z</time></trkpt><trkpt lat="42.94136" lon="13.59972"><ele>430.0</ele><time>2026-04-04T08:54:48.812Z</time></trkpt><trkpt lat="42.9414" lon="13.599565"><ele>431.75</ele><time>2026-04-04T08:54:49.812Z</time></trkpt><trkpt lat="42.9414383" lon="13.5993983"><ele>433.5</ele><time>2026-04-04T08:54:50.811Z</time></trkpt><trkpt lat="42.9414783" lon="13.5992367"><ele>435.25</ele><time>2026-04-04T08:54:51.811Z</time></trkpt><trkpt lat="42.9415117" lon="13.599055"><ele>437.0</ele><time>2026-04-04T08:54:52.812Z</time></trkpt><trkpt lat="42.9415683" lon="13.59889"><ele>437.0</ele><time>2026-04-04T08:54:53.811Z</time></trkpt><trkpt lat="42.9416367" lon="13.5987167"><ele>437.0</ele><time>2026-04-04T08:54:54.812Z</time></trkpt><trkpt lat="42.9417117" lon="13.598555"><ele>437.0</ele><time>2026-04-04T08:54:55.811Z</time></trkpt><trkpt lat="42.94179" lon="13.598385"><ele>437.0</ele><time>2026-04-04T08:54:56.811Z</time></trkpt><trkpt lat="42.9418767" lon="13.5982167"><ele>435.0</ele><time>2026-04-04T08:54:57.811Z</time></trkpt><trkpt lat="42.9419617" lon="13.59805"><ele>433.0</ele><time>2026-04-04T08:54:58.811Z</time></trkpt><trkpt lat="42.9420467" lon="13.59788"><ele>431.0</ele><time>2026-04-04T08:54:59.811Z</time></trkpt><trkpt lat="42.9421333" lon="13.5977217"><ele>429.0</ele><time>2026-04-04T08:55:00.811Z</time></trkpt><trkpt lat="42.94223" lon="13.59757"><ele>432.75</ele><time>2026-04-04T08:55:01.811Z</time></trkpt><trkpt lat="42.942325" lon="13.5974117"><ele>436.5</ele><time>2026-04-04T08:55:02.812Z</time></trkpt><trkpt lat="42.942415" lon="13.59727"><ele>440.25</ele><time>2026-04-04T08:55:03.812Z</time></trkpt><trkpt lat="42.9425" lon="13.597135"><ele>444.0</ele><time>2026-04-04T08:55:04.811Z</time></trkpt><trkpt lat="42.9426" lon="13.5969983"><ele>444.0</ele><time>2026-04-04T08:55:05.811Z</time></trkpt><trkpt lat="42.9427017" lon="13.5968617"><ele>444.0</ele><time>2026-04-04T08:55:06.812Z</time></trkpt><trkpt lat="42.94279" lon="13.5967333"><ele>444.0</ele><time>2026-04-04T08:55:07.811Z</time></trkpt><trkpt lat="42.9428733" lon="13.5966067"><ele>444.0</ele><time>2026-04-04T08:55:08.811Z</time></trkpt><trkpt lat="42.9429467" lon="13.5964733"><ele>444.0</ele><time>2026-04-04T08:55:09.812Z</time></trkpt><trkpt lat="42.9430233" lon="13.5963267"><ele>444.0</ele><time>2026-04-04T08:55:10.811Z</time></trkpt><trkpt lat="42.9430783" lon="13.5961667"><ele>444.0</ele><time>2026-04-04T08:55:11.812Z</time></trkpt><trkpt lat="42.9431217" lon="13.5960033"><ele>444.0</ele><time>2026-04-04T08:55:12.812Z</time></trkpt><trkpt lat="42.943145" lon="13.5958333"><ele>447.0</ele><time>2026-04-04T08:55:13.812Z</time></trkpt><trkpt lat="42.943155" lon="13.5956683"><ele>450.0</ele><time>2026-04-04T08:55:14.811Z</time></trkpt><trkpt lat="42.9431517" lon="13.5954983"><ele>453.0</ele><time>2026-04-04T08:55:15.811Z</time></trkpt><trkpt lat="42.94313" lon="13.5953183"><ele>456.0</ele><time>2026-04-04T08:55:16.812Z</time></trkpt><trkpt lat="42.9430833" lon="13.5951383"><ele>456.75</ele><time>2026-04-04T08:55:17.811Z</time></trkpt><trkpt lat="42.9430183" lon="13.5949583"><ele>457.5</ele><time>2026-04-04T08:55:18.812Z</time></trkpt><trkpt lat="42.942955" lon="13.5947883"><ele>458.25</ele><time>2026-04-04T08:55:19.811Z</time></trkpt><trkpt lat="42.9428917" lon="13.594615"><ele>459.0</ele><time>2026-04-04T08:55:20.811Z</time></trkpt><trkpt lat="42.9428333" lon="13.5944467"><ele>459.33333333333337</ele><time>2026-04-04T08:55:21.811Z</time></trkpt><trkpt lat="42.9427783" lon="13.5942767"><ele>459.6666666666667</ele><time>2026-04-04T08:55:22.811Z</time></trkpt><trkpt lat="42.9427267" lon="13.5941083"><ele>460.0</ele><time>2026-04-04T08:55:23.811Z</time></trkpt><trkpt lat="42.9426167" lon="13.5937783"><ele>459.0</ele><time>2026-04-04T08:55:25.811Z</time></trkpt><trkpt lat="42.9425617" lon="13.593615"><ele>458.0</ele><time>2026-04-04T08:55:26.811Z</time></trkpt><trkpt lat="42.9425033" lon="13.5934583"><ele>457.0</ele><time>2026-04-04T08:55:27.811Z</time></trkpt><trkpt lat="42.9424433" lon="13.5932883"><ele>456.0</ele><time>2026-04-04T08:55:28.811Z</time></trkpt><trkpt lat="42.9423767" lon="13.5931267"><ele>459.25</ele><time>2026-04-04T08:55:29.811Z</time></trkpt><trkpt lat="42.9423" lon="13.5929717"><ele>462.5</ele><time>2026-04-04T08:55:30.811Z</time></trkpt><trkpt lat="42.9422083" lon="13.5928467"><ele>465.75</ele><time>2026-04-04T08:55:31.812Z</time></trkpt><trkpt lat="42.9420983" lon="13.5927317"><ele>469.0</ele><time>2026-04-04T08:55:32.811Z</time></trkpt><trkpt lat="42.94199" lon="13.59263"><ele>469.0</ele><time>2026-04-04T08:55:33.812Z</time></trkpt><trkpt lat="42.9418767" lon="13.5925367"><ele>469.0</ele><time>2026-04-04T08:55:34.812Z</time></trkpt><trkpt lat="42.9417617" lon="13.5924433"><ele>469.0</ele><time>2026-04-04T08:55:35.811Z</time></trkpt><trkpt lat="42.941645" lon="13.59235"><ele>469.0</ele><time>2026-04-04T08:55:36.811Z</time></trkpt><trkpt lat="42.9415217" lon="13.59226"><ele>471.6666666666667</ele><time>2026-04-04T08:55:37.812Z</time></trkpt><trkpt lat="42.9413917" lon="13.59215"><ele>474.33333333333337</ele><time>2026-04-04T08:55:38.812Z</time></trkpt><trkpt lat="42.9412567" lon="13.5920383"><ele>477.0</ele><time>2026-04-04T08:55:39.812Z</time></trkpt><trkpt lat="42.941125" lon="13.591935"><ele>477.0</ele><time>2026-04-04T08:55:40.811Z</time></trkpt><trkpt lat="42.9409833" lon="13.5918183"><ele>477.0</ele><time>2026-04-04T08:55:41.812Z</time></trkpt><trkpt lat="42.9408483" lon="13.5917"><ele>477.0</ele><time>2026-04-04T08:55:42.811Z</time></trkpt><trkpt lat="42.94071" lon="13.591595"><ele>477.0</ele><time>2026-04-04T08:55:43.811Z</time></trkpt><trkpt lat="42.940575" lon="13.591485"><ele>477.0</ele><time>2026-04-04T08:55:44.811Z</time></trkpt><trkpt lat="42.9404467" lon="13.59138"><ele>477.0</ele><time>2026-04-04T08:55:45.811Z</time></trkpt><trkpt lat="42.9403067" lon="13.5912783"><ele>477.0</ele><time>2026-04-04T08:55:46.811Z</time></trkpt><trkpt lat="42.9401767" lon="13.591175"><ele>477.0</ele><time>2026-04-04T08:55:47.811Z</time></trkpt><trkpt lat="42.940055" lon="13.5910767"><ele>477.0</ele><time>2026-04-04T08:55:48.811Z</time></trkpt><trkpt lat="42.9399317" lon="13.59097"><ele>477.0</ele><time>2026-04-04T08:55:49.811Z</time></trkpt><trkpt lat="42.939815" lon="13.5908617"><ele>475.25</ele><time>2026-04-04T08:55:50.811Z</time></trkpt><trkpt lat="42.9397033" lon="13.5907533"><ele>473.5</ele><time>2026-04-04T08:55:51.811Z</time></trkpt><trkpt lat="42.9395917" lon="13.5906417"><ele>471.75</ele><time>2026-04-04T08:55:52.812Z</time></trkpt><trkpt lat="42.939505" lon="13.5905083"><ele>470.0</ele><time>2026-04-04T08:55:53.812Z</time></trkpt><trkpt lat="42.9394333" lon="13.5903517"><ele>469.0</ele><time>2026-04-04T08:55:54.811Z</time></trkpt><trkpt lat="42.9393717" lon="13.5901683"><ele>468.0</ele><time>2026-04-04T08:55:55.811Z</time></trkpt><trkpt lat="42.9393183" lon="13.5899783"><ele>467.0</ele><time>2026-04-04T08:55:56.812Z</time></trkpt><trkpt lat="42.9392617" lon="13.5897867"><ele>466.0</ele><time>2026-04-04T08:55:57.811Z</time></trkpt><trkpt lat="42.9392133" lon="13.5896033"><ele>466.5</ele><time>2026-04-04T08:55:58.811Z</time></trkpt><trkpt lat="42.93917" lon="13.5894167"><ele>467.0</ele><time>2026-04-04T08:55:59.811Z</time></trkpt><trkpt lat="42.9391167" lon="13.5892333"><ele>467.5</ele><time>2026-04-04T08:56:00.811Z</time></trkpt><trkpt lat="42.9390683" lon="13.589055"><ele>468.0</ele><time>2026-04-04T08:56:01.811Z</time></trkpt><trkpt lat="42.939015" lon="13.5888717"><ele>468.0</ele><time>2026-04-04T08:56:02.81Z</time></trkpt><trkpt lat="42.93896" lon="13.5886917"><ele>468.0</ele><time>2026-04-04T08:56:03.81Z</time></trkpt><trkpt lat="42.9389033" lon="13.58852"><ele>468.0</ele><time>2026-04-04T08:56:04.81Z</time></trkpt><trkpt lat="42.9388333" lon="13.5883483"><ele>468.0</ele><time>2026-04-04T08:56:05.81Z</time></trkpt><trkpt lat="42.9387567" lon="13.588185"><ele>467.75</ele><time>2026-04-04T08:56:06.81Z</time></trkpt><trkpt lat="42.938665" lon="13.58804"><ele>467.5</ele><time>2026-04-04T08:56:07.811Z</time></trkpt><trkpt lat="42.9385617" lon="13.5879167"><ele>467.25</ele><time>2026-04-04T08:56:08.811Z</time></trkpt><trkpt lat="42.9384533" lon="13.5878017"><ele>467.0</ele><time>2026-04-04T08:56:09.81Z</time></trkpt><trkpt lat="42.9383267" lon="13.5877183"><ele>470.5</ele><time>2026-04-04T08:56:10.81Z</time></trkpt><trkpt lat="42.9381983" lon="13.5876567"><ele>474.0</ele><time>2026-04-04T08:56:11.811Z</time></trkpt><trkpt lat="42.9380617" lon="13.58762"><ele>477.5</ele><time>2026-04-04T08:56:12.81Z</time></trkpt><trkpt lat="42.9379217" lon="13.5875983"><ele>481.0</ele><time>2026-04-04T08:56:13.81Z</time></trkpt><trkpt lat="42.9377783" lon="13.5875867"><ele>481.0</ele><time>2026-04-04T08:56:14.81Z</time></trkpt><trkpt lat="42.9376383" lon="13.5875683"><ele>481.0</ele><time>2026-04-04T08:56:15.811Z</time></trkpt><trkpt lat="42.9374867" lon="13.5875667"><ele>481.0</ele><time>2026-04-04T08:56:16.81Z</time></trkpt><trkpt lat="42.9373233" lon="13.5875617"><ele>481.0</ele><time>2026-04-04T08:56:17.81Z</time></trkpt><trkpt lat="42.9371667" lon="13.5875567"><ele>481.0</ele><time>2026-04-04T08:56:18.811Z</time></trkpt><trkpt lat="42.9370067" lon="13.5875567"><ele>481.0</ele><time>2026-04-04T08:56:19.81Z</time></trkpt><trkpt lat="42.9368483" lon="13.5875483"><ele>481.0</ele><time>2026-04-04T08:56:20.811Z</time></trkpt><trkpt lat="42.9367033" lon="13.58754"><ele>481.0</ele><time>2026-04-04T08:56:21.81Z</time></trkpt><trkpt lat="42.936555" lon="13.5875283"><ele>481.0</ele><time>2026-04-04T08:56:22.811Z</time></trkpt><trkpt lat="42.9364083" lon="13.5874917"><ele>481.0</ele><time>2026-04-04T08:56:23.81Z</time></trkpt><trkpt lat="42.9362717" lon="13.587445"><ele>481.0</ele><time>2026-04-04T08:56:24.81Z</time></trkpt><trkpt lat="42.9361383" lon="13.5873867"><ele>481.0</ele><time>2026-04-04T08:56:25.811Z</time></trkpt><trkpt lat="42.9360033" lon="13.5873183"><ele>481.0</ele><time>2026-04-04T08:56:26.81Z</time></trkpt><trkpt lat="42.9358733" lon="13.5872417"><ele>481.0</ele><time>2026-04-04T08:56:27.81Z</time></trkpt><trkpt lat="42.935745" lon="13.5871533"><ele>480.5</ele><time>2026-04-04T08:56:28.81Z</time></trkpt><trkpt lat="42.93562" lon="13.58705"><ele>480.0</ele><time>2026-04-04T08:56:29.81Z</time></trkpt><trkpt lat="42.9354967" lon="13.5869517"><ele>479.5</ele><time>2026-04-04T08:56:30.811Z</time></trkpt><trkpt lat="42.9353667" lon="13.5868817"><ele>479.0</ele><time>2026-04-04T08:56:31.811Z</time></trkpt><trkpt lat="42.9352217" lon="13.5868583"><ele>483.0</ele><time>2026-04-04T08:56:32.81Z</time></trkpt><trkpt lat="42.9350717" lon="13.586845"><ele>487.0</ele><time>2026-04-04T08:56:33.81Z</time></trkpt><trkpt lat="42.9349167" lon="13.58683"><ele>491.0</ele><time>2026-04-04T08:56:34.811Z</time></trkpt><trkpt lat="42.9347717" lon="13.5868233"><ele>491.0</ele><time>2026-04-04T08:56:35.81Z</time></trkpt><trkpt lat="42.9346383" lon="13.58679"><ele>491.0</ele><time>2026-04-04T08:56:36.81Z</time></trkpt><trkpt lat="42.9345367" lon="13.586715"><ele>491.0</ele><time>2026-04-04T08:56:37.81Z</time></trkpt><trkpt lat="42.9344483" lon="13.5866117"><ele>491.0</ele><time>2026-04-04T08:56:38.811Z</time></trkpt><trkpt lat="42.9343883" lon="13.5864617"><ele>491.0</ele><time>2026-04-04T08:56:39.81Z</time></trkpt><trkpt lat="42.9343267" lon="13.5862917"><ele>491.0</ele><time>2026-04-04T08:56:40.811Z</time></trkpt><trkpt lat="42.9342517" lon="13.5861417"><ele>491.0</ele><time>2026-04-04T08:56:41.81Z</time></trkpt><trkpt lat="42.9341617" lon="13.5860267"><ele>491.0</ele><time>2026-04-04T08:56:42.81Z</time></trkpt><trkpt lat="42.9340617" lon="13.5859683"><ele>492.0</ele><time>2026-04-04T08:56:43.811Z</time></trkpt><trkpt lat="42.9339533" lon="13.5859567"><ele>493.0</ele><time>2026-04-04T08:56:44.811Z</time></trkpt><trkpt lat="42.9338433" lon="13.5859817"><ele>494.0</ele><time>2026-04-04T08:56:45.811Z</time></trkpt><trkpt lat="42.9337283" lon="13.5860417"><ele>495.0</ele><time>2026-04-04T08:56:46.81Z</time></trkpt><trkpt lat="42.93362" lon="13.58612"><ele>489.0</ele><time>2026-04-04T08:56:47.81Z</time></trkpt><trkpt lat="42.93351" lon="13.5861967"><ele>483.0</ele><time>2026-04-04T08:56:48.811Z</time></trkpt><trkpt lat="42.9334" lon="13.5862617"><ele>477.0</ele><time>2026-04-04T08:56:49.81Z</time></trkpt><trkpt lat="42.9332983" lon="13.58632"><ele>471.0</ele><time>2026-04-04T08:56:50.811Z</time></trkpt><trkpt lat="42.9331917" lon="13.5863583"><ele>469.0</ele><time>2026-04-04T08:56:51.81Z</time></trkpt><trkpt lat="42.93308" lon="13.586365"><ele>467.0</ele><time>2026-04-04T08:56:52.811Z</time></trkpt><trkpt lat="42.93296" lon="13.5863267"><ele>465.0</ele><time>2026-04-04T08:56:53.811Z</time></trkpt><trkpt lat="42.9328417" lon="13.5862633"><ele>463.0</ele><time>2026-04-04T08:56:54.811Z</time></trkpt><trkpt lat="42.9327117" lon="13.586205"><ele>467.25</ele><time>2026-04-04T08:56:55.81Z</time></trkpt><trkpt lat="42.9325683" lon="13.5861583"><ele>471.5</ele><time>2026-04-04T08:56:56.81Z</time></trkpt><trkpt lat="42.93243" lon="13.5861183"><ele>475.75</ele><time>2026-04-04T08:56:57.811Z</time></trkpt><trkpt lat="42.9322933" lon="13.5860733"><ele>480.0</ele><time>2026-04-04T08:56:58.81Z</time></trkpt><trkpt lat="42.932165" lon="13.5860333"><ele>480.0</ele><time>2026-04-04T08:56:59.81Z</time></trkpt><trkpt lat="42.9320333" lon="13.5859767"><ele>480.0</ele><time>2026-04-04T08:57:00.811Z</time></trkpt><trkpt lat="42.93191" lon="13.5859283"><ele>480.0</ele><time>2026-04-04T08:57:01.811Z</time></trkpt><trkpt lat="42.9317917" lon="13.5858733"><ele>480.0</ele><time>2026-04-04T08:57:02.81Z</time></trkpt><trkpt lat="42.93168" lon="13.585805"><ele>477.4</ele><time>2026-04-04T08:57:03.81Z</time></trkpt><trkpt lat="42.93158" lon="13.5857183"><ele>474.8</ele><time>2026-04-04T08:57:04.81Z</time></trkpt><trkpt lat="42.9314817" lon="13.5856383"><ele>472.20000000000005</ele><time>2026-04-04T08:57:05.81Z</time></trkpt><trkpt lat="42.9313817" lon="13.585585"><ele>469.6</ele><time>2026-04-04T08:57:06.81Z</time></trkpt><trkpt lat="42.931285" lon="13.5855567"><ele>467.0</ele><time>2026-04-04T08:57:07.81Z</time></trkpt><trkpt lat="42.9311867" lon="13.5855667"><ele>467.0</ele><time>2026-04-04T08:57:08.81Z</time></trkpt><trkpt lat="42.9310867" lon="13.5856067"><ele>467.0</ele><time>2026-04-04T08:57:09.811Z</time></trkpt><trkpt lat="42.9309883" lon="13.5856817"><ele>467.0</ele><time>2026-04-04T08:57:10.81Z</time></trkpt><trkpt lat="42.9308917" lon="13.5857733"><ele>467.0</ele><time>2026-04-04T08:57:11.81Z</time></trkpt><trkpt lat="42.93081" lon="13.5859"><ele>466.0</ele><time>2026-04-04T08:57:12.81Z</time></trkpt><trkpt lat="42.9307317" lon="13.58604"><ele>465.0</ele><time>2026-04-04T08:57:13.81Z</time></trkpt><trkpt lat="42.9306767" lon="13.58619"><ele>464.0</ele><time>2026-04-04T08:57:14.81Z</time></trkpt><trkpt lat="42.9306517" lon="13.58636"><ele>463.0</ele><time>2026-04-04T08:57:15.811Z</time></trkpt><trkpt lat="42.9306583" lon="13.5865317"><ele>462.0</ele><time>2026-04-04T08:57:16.811Z</time></trkpt><trkpt lat="42.930685" lon="13.5867017"><ele>461.0</ele><time>2026-04-04T08:57:17.81Z</time></trkpt><trkpt lat="42.9307217" lon="13.5868683"><ele>460.0</ele><time>2026-04-04T08:57:18.81Z</time></trkpt><trkpt lat="42.930755" lon="13.5870367"><ele>459.0</ele><time>2026-04-04T08:57:19.811Z</time></trkpt><trkpt lat="42.93078" lon="13.58721"><ele>459.0</ele><time>2026-04-04T08:57:20.811Z</time></trkpt><trkpt lat="42.9307967" lon="13.58738"><ele>459.0</ele><time>2026-04-04T08:57:21.81Z</time></trkpt><trkpt lat="42.9307917" lon="13.5875517"><ele>459.0</ele><time>2026-04-04T08:57:22.811Z</time></trkpt><trkpt lat="42.9307767" lon="13.587725"><ele>459.0</ele><time>2026-04-04T08:57:23.81Z</time></trkpt><trkpt lat="42.9307533" lon="13.5879"><ele>459.25</ele><time>2026-04-04T08:57:24.81Z</time></trkpt><trkpt lat="42.9307267" lon="13.5880767"><ele>459.5</ele><time>2026-04-04T08:57:25.81Z</time></trkpt><trkpt lat="42.9306967" lon="13.5882533"><ele>459.75</ele><time>2026-04-04T08:57:26.81Z</time></trkpt><trkpt lat="42.9306733" lon="13.588425"><ele>460.0</ele><time>2026-04-04T08:57:27.811Z</time></trkpt><trkpt lat="42.9306583" lon="13.588595"><ele>461.5</ele><time>2026-04-04T08:57:28.81Z</time></trkpt><trkpt lat="42.930675" lon="13.5887617"><ele>463.0</ele><time>2026-04-04T08:57:29.81Z</time></trkpt><trkpt lat="42.9307183" lon="13.5889267"><ele>464.5</ele><time>2026-04-04T08:57:30.81Z</time></trkpt><trkpt lat="42.9307817" lon="13.5890867"><ele>466.0</ele><time>2026-04-04T08:57:31.811Z</time></trkpt><trkpt lat="42.9308533" lon="13.5892317"><ele>461.8</ele><time>2026-04-04T08:57:32.81Z</time></trkpt><trkpt lat="42.930925" lon="13.5893633"><ele>457.6</ele><time>2026-04-04T08:57:33.811Z</time></trkpt><trkpt lat="42.9309717" lon="13.58949"><ele>453.4</ele><time>2026-04-04T08:57:34.81Z</time></trkpt><trkpt lat="42.9310067" lon="13.5896167"><ele>449.2</ele><time>2026-04-04T08:57:35.811Z</time></trkpt><trkpt lat="42.93103" lon="13.5897717"><ele>445.0</ele><time>2026-04-04T08:57:36.811Z</time></trkpt><trkpt lat="42.9310367" lon="13.5899367"><ele>445.0</ele><time>2026-04-04T08:57:37.81Z</time></trkpt><trkpt lat="42.9310267" lon="13.5900933"><ele>445.0</ele><time>2026-04-04T08:57:38.81Z</time></trkpt><trkpt lat="42.931015" lon="13.5902433"><ele>445.0</ele><time>2026-04-04T08:57:39.81Z</time></trkpt><trkpt lat="42.9309967" lon="13.590395"><ele>445.0</ele><time>2026-04-04T08:57:40.81Z</time></trkpt><trkpt lat="42.9309717" lon="13.5905383"><ele>445.0</ele><time>2026-04-04T08:57:41.81Z</time></trkpt><trkpt lat="42.930965" lon="13.5906867"><ele>445.8</ele><time>2026-04-04T08:57:42.811Z</time></trkpt><trkpt lat="42.9309583" lon="13.5908383"><ele>446.6</ele><time>2026-04-04T08:57:43.81Z</time></trkpt><trkpt lat="42.930975" lon="13.5909833"><ele>447.4</ele><time>2026-04-04T08:57:44.811Z</time></trkpt><trkpt lat="42.9310217" lon="13.5911233"><ele>448.2</ele><time>2026-04-04T08:57:45.811Z</time></trkpt><trkpt lat="42.9310917" lon="13.591245"><ele>449.0</ele><time>2026-04-04T08:57:46.81Z</time></trkpt><trkpt lat="42.9311767" lon="13.591355"><ele>452.0</ele><time>2026-04-04T08:57:47.811Z</time></trkpt><trkpt lat="42.9312633" lon="13.59145"><ele>455.0</ele><time>2026-04-04T08:57:48.81Z</time></trkpt><trkpt lat="42.931355" lon="13.591535"><ele>458.0</ele><time>2026-04-04T08:57:49.811Z</time></trkpt><trkpt lat="42.9314317" lon="13.5916367"><ele>461.0</ele><time>2026-04-04T08:57:50.81Z</time></trkpt><trkpt lat="42.93148" lon="13.591765"><ele>464.0</ele><time>2026-04-04T08:57:51.81Z</time></trkpt><trkpt lat="42.9315" lon="13.5918983"><ele>464.2</ele><time>2026-04-04T08:57:52.81Z</time></trkpt><trkpt lat="42.9314883" lon="13.5920333"><ele>464.4</ele><time>2026-04-04T08:57:53.811Z</time></trkpt><trkpt lat="42.931455" lon="13.592175"><ele>464.6</ele><time>2026-04-04T08:57:54.811Z</time></trkpt><trkpt lat="42.9314083" lon="13.592305"><ele>464.8</ele><time>2026-04-04T08:57:55.811Z</time></trkpt><trkpt lat="42.9313283" lon="13.5924283"><ele>465.0</ele><time>2026-04-04T08:57:56.81Z</time></trkpt><trkpt lat="42.93123" lon="13.5925167"><ele>465.0</ele><time>2026-04-04T08:57:57.81Z</time></trkpt><trkpt lat="42.9311233" lon="13.5925767"><ele>465.0</ele><time>2026-04-04T08:57:58.81Z</time></trkpt><trkpt lat="42.9310133" lon="13.592635"><ele>465.0</ele><time>2026-04-04T08:57:59.81Z</time></trkpt><trkpt lat="42.9309067" lon="13.5926933"><ele>465.0</ele><time>2026-04-04T08:58:00.81Z</time></trkpt><trkpt lat="42.9308" lon="13.5927617"><ele>466.25</ele><time>2026-04-04T08:58:01.811Z</time></trkpt><trkpt lat="42.9307017" lon="13.59285"><ele>467.5</ele><time>2026-04-04T08:58:02.811Z</time></trkpt><trkpt lat="42.9306133" lon="13.59296"><ele>468.75</ele><time>2026-04-04T08:58:03.81Z</time></trkpt><trkpt lat="42.9305233" lon="13.5930833"><ele>470.0</ele><time>2026-04-04T08:58:04.811Z</time></trkpt><trkpt lat="42.9304367" lon="13.593195"><ele>470.0</ele><time>2026-04-04T08:58:05.81Z</time></trkpt><trkpt lat="42.9303567" lon="13.5932983"><ele>470.0</ele><time>2026-04-04T08:58:06.811Z</time></trkpt><trkpt lat="42.9302833" lon="13.593395"><ele>470.0</ele><time>2026-04-04T08:58:07.81Z</time></trkpt><trkpt lat="42.9302017" lon="13.5934833"><ele>470.0</ele><time>2026-04-04T08:58:08.81Z</time></trkpt><trkpt lat="42.9301083" lon="13.5935517"><ele>470.0</ele><time>2026-04-04T08:58:09.81Z</time></trkpt><trkpt lat="42.9300083" lon="13.5936183"><ele>470.75</ele><time>2026-04-04T08:58:10.811Z</time></trkpt><trkpt lat="42.9299067" lon="13.593675"><ele>471.5</ele><time>2026-04-04T08:58:11.811Z</time></trkpt><trkpt lat="42.929795" lon="13.59372"><ele>472.25</ele><time>2026-04-04T08:58:12.81Z</time></trkpt><trkpt lat="42.92969" lon="13.5937683"><ele>473.0</ele><time>2026-04-04T08:58:13.811Z</time></trkpt><trkpt lat="42.929575" lon="13.5937983"><ele>473.0</ele><time>2026-04-04T08:58:14.81Z</time></trkpt><trkpt lat="42.9294667" lon="13.5938067"><ele>472.99999999999994</ele><time>2026-04-04T08:58:15.81Z</time></trkpt><trkpt lat="42.929375" lon="13.5937767"><ele>472.99999999999994</ele><time>2026-04-04T08:58:16.81Z</time></trkpt><trkpt lat="42.9292833" lon="13.5937183"><ele>473.0</ele><time>2026-04-04T08:58:17.811Z</time></trkpt><trkpt lat="42.9292033" lon="13.5936233"><ele>473.0</ele><time>2026-04-04T08:58:18.81Z</time></trkpt><trkpt lat="42.92912" lon="13.5935317"><ele>476.0</ele><time>2026-04-04T08:58:19.81Z</time></trkpt><trkpt lat="42.9290333" lon="13.5934567"><ele>478.99999999999994</ele><time>2026-04-04T08:58:20.81Z</time></trkpt><trkpt lat="42.9289433" lon="13.5934117"><ele>481.99999999999994</ele><time>2026-04-04T08:58:21.81Z</time></trkpt><trkpt lat="42.9288633" lon="13.5933917"><ele>485.0</ele><time>2026-04-04T08:58:22.81Z</time></trkpt><trkpt lat="42.9287883" lon="13.5933717"><ele>488.0</ele><time>2026-04-04T08:58:23.811Z</time></trkpt><trkpt lat="42.9286833" lon="13.593335"><ele>487.99999999999994</ele><time>2026-04-04T08:58:25.81Z</time></trkpt><trkpt lat="42.9286383" lon="13.593225"><ele>488.0</ele><time>2026-04-04T08:58:27.811Z</time></trkpt><trkpt lat="42.9286333" lon="13.5931383"><ele>488.0</ele><time>2026-04-04T08:58:28.81Z</time></trkpt><trkpt lat="42.9286383" lon="13.59303"><ele>488.0</ele><time>2026-04-04T08:58:29.811Z</time></trkpt><trkpt lat="42.9286417" lon="13.5929133"><ele>487.99999999999994</ele><time>2026-04-04T08:58:30.81Z</time></trkpt><trkpt lat="42.9286417" lon="13.592785"><ele>488.0</ele><time>2026-04-04T08:58:31.811Z</time></trkpt><trkpt lat="42.92864" lon="13.5926383"><ele>490.0</ele><time>2026-04-04T08:58:32.81Z</time></trkpt><trkpt lat="42.9286317" lon="13.5924817"><ele>491.99999999999994</ele><time>2026-04-04T08:58:33.811Z</time></trkpt><trkpt lat="42.9286233" lon="13.5923233"><ele>493.99999999999994</ele><time>2026-04-04T08:58:34.81Z</time></trkpt><trkpt lat="42.9286217" lon="13.5921733"><ele>496.0</ele><time>2026-04-04T08:58:35.81Z</time></trkpt><trkpt lat="42.9286083" lon="13.592035"><ele>498.0</ele><time>2026-04-04T08:58:36.811Z</time></trkpt><trkpt lat="42.9285817" lon="13.5919033"><ele>498.79999999999995</ele><time>2026-04-04T08:58:37.811Z</time></trkpt><trkpt lat="42.9285367" lon="13.5917833"><ele>499.59999999999997</ele><time>2026-04-04T08:58:38.811Z</time></trkpt><trkpt lat="42.9284883" lon="13.591655"><ele>500.40000000000003</ele><time>2026-04-04T08:58:39.81Z</time></trkpt><trkpt lat="42.9284383" lon="13.59154"><ele>501.20000000000005</ele><time>2026-04-04T08:58:40.81Z</time></trkpt><trkpt lat="42.9284033" lon="13.5914167"><ele>502.0</ele><time>2026-04-04T08:58:41.81Z</time></trkpt><trkpt lat="42.9283717" lon="13.5912783"><ele>504.20000000000005</ele><time>2026-04-04T08:58:42.81Z</time></trkpt><trkpt lat="42.92834" lon="13.591145"><ele>506.40000000000003</ele><time>2026-04-04T08:58:43.81Z</time></trkpt><trkpt lat="42.928315" lon="13.5910033"><ele>508.59999999999997</ele><time>2026-04-04T08:58:44.811Z</time></trkpt><trkpt lat="42.928285" lon="13.59086"><ele>510.79999999999995</ele><time>2026-04-04T08:58:45.81Z</time></trkpt><trkpt lat="42.9282517" lon="13.5907217"><ele>513.0</ele><time>2026-04-04T08:58:46.81Z</time></trkpt><trkpt lat="42.92822" lon="13.5905933"><ele>513.0</ele><time>2026-04-04T08:58:47.81Z</time></trkpt><trkpt lat="42.9281933" lon="13.5904733"><ele>513.0</ele><time>2026-04-04T08:58:48.811Z</time></trkpt><trkpt lat="42.9281617" lon="13.5903683"><ele>513.0</ele><time>2026-04-04T08:58:49.81Z</time></trkpt><trkpt lat="42.9281383" lon="13.5902717"><ele>513.0</ele><time>2026-04-04T08:58:50.81Z</time></trkpt><trkpt lat="42.92814" lon="13.590125"><ele>513.0</ele><time>2026-04-04T08:58:52.81Z</time></trkpt><trkpt lat="42.928225" lon="13.5900367"><ele>515.0</ele><time>2026-04-04T08:58:54.81Z</time></trkpt><trkpt lat="42.92831" lon="13.5900633"><ele>517.0</ele><time>2026-04-04T08:58:55.81Z</time></trkpt><trkpt lat="42.9284" lon="13.5901183"><ele>519.0</ele><time>2026-04-04T08:58:56.811Z</time></trkpt><trkpt lat="42.9284933" lon="13.5901567"><ele>521.0</ele><time>2026-04-04T08:58:57.81Z</time></trkpt><trkpt lat="42.9285783" lon="13.59019"><ele>523.0</ele><time>2026-04-04T08:58:58.81Z</time></trkpt><trkpt lat="42.9286633" lon="13.5902067"><ele>523.0</ele><time>2026-04-04T08:58:59.81Z</time></trkpt><trkpt lat="42.9287483" lon="13.59019"><ele>523.0</ele><time>2026-04-04T08:59:00.811Z</time></trkpt><trkpt lat="42.92883" lon="13.5901633"><ele>523.0</ele><time>2026-04-04T08:59:01.81Z</time></trkpt><trkpt lat="42.9289067" lon="13.5901283"><ele>523.0</ele><time>2026-04-04T08:59:02.81Z</time></trkpt><trkpt lat="42.928955" lon="13.5900667"><ele>523.0</ele><time>2026-04-04T08:59:03.811Z</time></trkpt><trkpt lat="42.92898" lon="13.5899133"><ele>523.0</ele><time>2026-04-04T08:59:05.81Z</time></trkpt><trkpt lat="42.9289517" lon="13.5898167"><ele>523.0</ele><time>2026-04-04T08:59:06.811Z</time></trkpt><trkpt lat="42.9288917" lon="13.5897067"><ele>523.0</ele><time>2026-04-04T08:59:07.81Z</time></trkpt><trkpt lat="42.92883" lon="13.58959"><ele>523.0</ele><time>2026-04-04T08:59:08.81Z</time></trkpt><trkpt lat="42.9287683" lon="13.5894717"><ele>523.0</ele><time>2026-04-04T08:59:09.811Z</time></trkpt><trkpt lat="42.9287067" lon="13.5893533"><ele>523.0</ele><time>2026-04-04T08:59:10.81Z</time></trkpt><trkpt lat="42.9286417" lon="13.5892417"><ele>522.6</ele><time>2026-04-04T08:59:11.81Z</time></trkpt><trkpt lat="42.92858" lon="13.5891283"><ele>522.1999999999999</ele><time>2026-04-04T08:59:12.811Z</time></trkpt><trkpt lat="42.9285167" lon="13.5890117"><ele>521.8</ele><time>2026-04-04T08:59:13.81Z</time></trkpt><trkpt lat="42.9284483" lon="13.5888983"><ele>521.4</ele><time>2026-04-04T08:59:14.81Z</time></trkpt><trkpt lat="42.9283817" lon="13.5887917"><ele>521.0</ele><time>2026-04-04T08:59:15.81Z</time></trkpt><trkpt lat="42.9283083" lon="13.5886733"><ele>525.5</ele><time>2026-04-04T08:59:16.81Z</time></trkpt><trkpt lat="42.9282317" lon="13.5885567"><ele>530.0</ele><time>2026-04-04T08:59:17.81Z</time></trkpt><trkpt lat="42.928145" lon="13.58845"><ele>534.5</ele><time>2026-04-04T08:59:18.811Z</time></trkpt><trkpt lat="42.9280467" lon="13.58836"><ele>539.0</ele><time>2026-04-04T08:59:19.81Z</time></trkpt><trkpt lat="42.9279467" lon="13.58829"><ele>539.0</ele><time>2026-04-04T08:59:20.811Z</time></trkpt><trkpt lat="42.927835" lon="13.5882367"><ele>539.0</ele><time>2026-04-04T08:59:21.81Z</time></trkpt><trkpt lat="42.9277233" lon="13.5881833"><ele>539.0</ele><time>2026-04-04T08:59:22.81Z</time></trkpt><trkpt lat="42.9275983" lon="13.5881183"><ele>539.0</ele><time>2026-04-04T08:59:23.811Z</time></trkpt><trkpt lat="42.9274767" lon="13.588055"><ele>541.25</ele><time>2026-04-04T08:59:24.811Z</time></trkpt><trkpt lat="42.927355" lon="13.5879917"><ele>543.5</ele><time>2026-04-04T08:59:25.81Z</time></trkpt><trkpt lat="42.9272367" lon="13.5879233"><ele>545.75</ele><time>2026-04-04T08:59:26.81Z</time></trkpt><trkpt lat="42.9271183" lon="13.587875"><ele>548.0</ele><time>2026-04-04T08:59:27.811Z</time></trkpt><trkpt lat="42.9270083" lon="13.5878467"><ele>548.0</ele><time>2026-04-04T08:59:28.811Z</time></trkpt><trkpt lat="42.9268917" lon="13.5878617"><ele>548.0</ele><time>2026-04-04T08:59:29.811Z</time></trkpt><trkpt lat="42.926785" lon="13.5879017"><ele>548.0</ele><time>2026-04-04T08:59:30.811Z</time></trkpt><trkpt lat="42.9266883" lon="13.5879533"><ele>548.0</ele><time>2026-04-04T08:59:31.811Z</time></trkpt><trkpt lat="42.9266017" lon="13.58799"><ele>548.0</ele><time>2026-04-04T08:59:32.81Z</time></trkpt><trkpt lat="42.9265267" lon="13.58799"><ele>549.0</ele><time>2026-04-04T08:59:33.811Z</time></trkpt><trkpt lat="42.9264533" lon="13.587865"><ele>550.0</ele><time>2026-04-04T08:59:35.81Z</time></trkpt><trkpt lat="42.9264467" lon="13.5877567"><ele>551.0</ele><time>2026-04-04T08:59:36.811Z</time></trkpt><trkpt lat="42.9264517" lon="13.5876317"><ele>552.0</ele><time>2026-04-04T08:59:37.81Z</time></trkpt><trkpt lat="42.9264483" lon="13.587485"><ele>553.0</ele><time>2026-04-04T08:59:38.81Z</time></trkpt><trkpt lat="42.9264483" lon="13.5873317"><ele>555.5</ele><time>2026-04-04T08:59:39.81Z</time></trkpt><trkpt lat="42.9264383" lon="13.5871617"><ele>558.0</ele><time>2026-04-04T08:59:40.81Z</time></trkpt><trkpt lat="42.9264433" lon="13.587005"><ele>560.5</ele><time>2026-04-04T08:59:41.81Z</time></trkpt><trkpt lat="42.9264417" lon="13.5868433"><ele>563.0</ele><time>2026-04-04T08:59:42.811Z</time></trkpt><trkpt lat="42.92644" lon="13.5866417"><ele>567.0</ele><time>2026-04-04T08:59:43.81Z</time></trkpt><trkpt lat="42.926455" lon="13.5864167"><ele>571.0</ele><time>2026-04-04T08:59:44.811Z</time></trkpt><trkpt lat="42.9264583" lon="13.586195"><ele>575.0</ele><time>2026-04-04T08:59:45.81Z</time></trkpt><trkpt lat="42.9264667" lon="13.5859817"><ele>577.25</ele><time>2026-04-04T08:59:46.81Z</time></trkpt><trkpt lat="42.9264717" lon="13.5857817"><ele>579.5</ele><time>2026-04-04T08:59:47.811Z</time></trkpt><trkpt lat="42.92646" lon="13.5855983"><ele>581.75</ele><time>2026-04-04T08:59:48.81Z</time></trkpt><trkpt lat="42.92645" lon="13.585425"><ele>584.0</ele><time>2026-04-04T08:59:49.81Z</time></trkpt><trkpt lat="42.926425" lon="13.58524"><ele>585.75</ele><time>2026-04-04T08:59:50.811Z</time></trkpt><trkpt lat="42.926405" lon="13.585055"><ele>587.5</ele><time>2026-04-04T08:59:51.81Z</time></trkpt><trkpt lat="42.9263867" lon="13.58488"><ele>589.25</ele><time>2026-04-04T08:59:52.81Z</time></trkpt><trkpt lat="42.9263733" lon="13.5847367"><ele>591.0</ele><time>2026-04-04T08:59:53.811Z</time></trkpt><trkpt lat="42.9263583" lon="13.5846183"><ele>591.0</ele><time>2026-04-04T08:59:54.811Z</time></trkpt><trkpt lat="42.9263333" lon="13.5845067"><ele>591.0</ele><time>2026-04-04T08:59:55.81Z</time></trkpt><trkpt lat="42.92629" lon="13.5844133"><ele>591.0</ele><time>2026-04-04T08:59:56.81Z</time></trkpt><trkpt lat="42.9261883" lon="13.5844083"><ele>591.0</ele><time>2026-04-04T08:59:58.81Z</time></trkpt><trkpt lat="42.92615" lon="13.5844817"><ele>591.0</ele><time>2026-04-04T08:59:59.81Z</time></trkpt><trkpt lat="42.9261117" lon="13.5845733"><ele>591.0</ele><time>2026-04-04T09:00:00.811Z</time></trkpt><trkpt lat="42.9260767" lon="13.584675"><ele>591.0</ele><time>2026-04-04T09:00:01.811Z</time></trkpt><trkpt lat="42.9260233" lon="13.584755"><ele>591.0</ele><time>2026-04-04T09:00:02.811Z</time></trkpt><trkpt lat="42.92596" lon="13.5848067"><ele>591.0</ele><time>2026-04-04T09:00:03.81Z</time></trkpt><trkpt lat="42.9258717" lon="13.584785"><ele>591.0</ele><time>2026-04-04T09:00:04.811Z</time></trkpt><trkpt lat="42.92579" lon="13.5847433"><ele>591.0</ele><time>2026-04-04T09:00:05.811Z</time></trkpt><trkpt lat="42.9257083" lon="13.5846833"><ele>591.0</ele><time>2026-04-04T09:00:06.81Z</time></trkpt><trkpt lat="42.9256317" lon="13.5846267"><ele>595.2</ele><time>2026-04-04T09:00:07.81Z</time></trkpt><trkpt lat="42.925575" lon="13.5845517"><ele>599.4000000000001</ele><time>2026-04-04T09:00:08.81Z</time></trkpt><trkpt lat="42.9255367" lon="13.58444"><ele>603.6</ele><time>2026-04-04T09:00:09.811Z</time></trkpt><trkpt lat="42.9255133" lon="13.58431"><ele>607.8000000000001</ele><time>2026-04-04T09:00:10.81Z</time></trkpt><trkpt lat="42.9254983" lon="13.58417"><ele>612.0</ele><time>2026-04-04T09:00:11.81Z</time></trkpt><trkpt lat="42.92548" lon="13.58403"><ele>615.0</ele><time>2026-04-04T09:00:12.81Z</time></trkpt><trkpt lat="42.92546" lon="13.5838867"><ele>618.0</ele><time>2026-04-04T09:00:13.811Z</time></trkpt><trkpt lat="42.92544" lon="13.5837367"><ele>621.0</ele><time>2026-04-04T09:00:14.811Z</time></trkpt><trkpt lat="42.9254267" lon="13.5835883"><ele>624.0</ele><time>2026-04-04T09:00:15.81Z</time></trkpt><trkpt lat="42.9254067" lon="13.5834383"><ele>627.0</ele><time>2026-04-04T09:00:16.81Z</time></trkpt><trkpt lat="42.92539" lon="13.58329"><ele>629.75</ele><time>2026-04-04T09:00:17.811Z</time></trkpt><trkpt lat="42.9253533" lon="13.58314"><ele>632.5</ele><time>2026-04-04T09:00:18.81Z</time></trkpt><trkpt lat="42.9252983" lon="13.58298"><ele>635.25</ele><time>2026-04-04T09:00:19.811Z</time></trkpt><trkpt lat="42.9252417" lon="13.5828217"><ele>638.0</ele><time>2026-04-04T09:00:20.81Z</time></trkpt><trkpt lat="42.925205" lon="13.5826667"><ele>642.0</ele><time>2026-04-04T09:00:21.81Z</time></trkpt><trkpt lat="42.9251867" lon="13.5824967"><ele>646.0</ele><time>2026-04-04T09:00:22.811Z</time></trkpt><trkpt lat="42.9251833" lon="13.5823233"><ele>650.0</ele><time>2026-04-04T09:00:23.811Z</time></trkpt><trkpt lat="42.92518" lon="13.5821467"><ele>654.0</ele><time>2026-04-04T09:00:24.81Z</time></trkpt><trkpt lat="42.9251667" lon="13.5819567"><ele>657.0</ele><time>2026-04-04T09:00:25.811Z</time></trkpt><trkpt lat="42.9251467" lon="13.5817683"><ele>660.0</ele><time>2026-04-04T09:00:26.81Z</time></trkpt><trkpt lat="42.9251233" lon="13.5815933"><ele>663.0</ele><time>2026-04-04T09:00:27.81Z</time></trkpt><trkpt lat="42.9251" lon="13.5814233"><ele>666.0</ele><time>2026-04-04T09:00:28.811Z</time></trkpt><trkpt lat="42.925065" lon="13.5812417"><ele>671.25</ele><time>2026-04-04T09:00:29.811Z</time></trkpt><trkpt lat="42.9250383" lon="13.58107"><ele>676.5</ele><time>2026-04-04T09:00:30.81Z</time></trkpt><trkpt lat="42.925" lon="13.5808933"><ele>681.75</ele><time>2026-04-04T09:00:31.81Z</time></trkpt><trkpt lat="42.92496" lon="13.580725"><ele>687.0</ele><time>2026-04-04T09:00:32.811Z</time></trkpt><trkpt lat="42.9249283" lon="13.580555"><ele>687.0</ele><time>2026-04-04T09:00:33.811Z</time></trkpt><trkpt lat="42.9249033" lon="13.5803867"><ele>687.0</ele><time>2026-04-04T09:00:34.811Z</time></trkpt><trkpt lat="42.9248833" lon="13.580225"><ele>687.0</ele><time>2026-04-04T09:00:35.81Z</time></trkpt><trkpt lat="42.924855" lon="13.5800633"><ele>687.0</ele><time>2026-04-04T09:00:36.81Z</time></trkpt><trkpt lat="42.9248133" lon="13.5799167"><ele>691.0</ele><time>2026-04-04T09:00:37.811Z</time></trkpt><trkpt lat="42.9247467" lon="13.5797817"><ele>695.0</ele><time>2026-04-04T09:00:38.81Z</time></trkpt><trkpt lat="42.9246767" lon="13.5796333"><ele>699.0</ele><time>2026-04-04T09:00:39.81Z</time></trkpt><trkpt lat="42.9246083" lon="13.5794783"><ele>703.0</ele><time>2026-04-04T09:00:40.81Z</time></trkpt><trkpt lat="42.9245617" lon="13.5793233"><ele>706.25</ele><time>2026-04-04T09:00:41.81Z</time></trkpt><trkpt lat="42.9245183" lon="13.5791767"><ele>709.5</ele><time>2026-04-04T09:00:42.811Z</time></trkpt><trkpt lat="42.924475" lon="13.579025"><ele>712.75</ele><time>2026-04-04T09:00:43.81Z</time></trkpt><trkpt lat="42.924415" lon="13.5789017"><ele>716.0</ele><time>2026-04-04T09:00:44.811Z</time></trkpt><trkpt lat="42.9243433" lon="13.5787717"><ele>716.1999999999999</ele><time>2026-04-04T09:00:45.81Z</time></trkpt><trkpt lat="42.9242667" lon="13.5786317"><ele>716.4</ele><time>2026-04-04T09:00:46.81Z</time></trkpt><trkpt lat="42.92421" lon="13.578505"><ele>716.6</ele><time>2026-04-04T09:00:47.811Z</time></trkpt><trkpt lat="42.9241633" lon="13.5783783"><ele>716.8</ele><time>2026-04-04T09:00:48.811Z</time></trkpt><trkpt lat="42.924135" lon="13.5782583"><ele>717.0</ele><time>2026-04-04T09:00:49.811Z</time></trkpt><trkpt lat="42.9241267" lon="13.5781317"><ele>717.0</ele><time>2026-04-04T09:00:50.81Z</time></trkpt><trkpt lat="42.9241283" lon="13.5779983"><ele>717.0</ele><time>2026-04-04T09:00:51.81Z</time></trkpt><trkpt lat="42.9241583" lon="13.577875"><ele>717.0</ele><time>2026-04-04T09:00:52.81Z</time></trkpt><trkpt lat="42.92421" lon="13.5777567"><ele>717.0</ele><time>2026-04-04T09:00:53.811Z</time></trkpt><trkpt lat="42.92427" lon="13.57764"><ele>717.0</ele><time>2026-04-04T09:00:54.811Z</time></trkpt><trkpt lat="42.924315" lon="13.57754"><ele>716.0</ele><time>2026-04-04T09:00:55.81Z</time></trkpt><trkpt lat="42.924335" lon="13.5774367"><ele>715.0</ele><time>2026-04-04T09:00:56.81Z</time></trkpt><trkpt lat="42.924335" lon="13.5773217"><ele>714.0</ele><time>2026-04-04T09:00:57.811Z</time></trkpt><trkpt lat="42.9243133" lon="13.5771917"><ele>713.0</ele><time>2026-04-04T09:00:58.811Z</time></trkpt><trkpt lat="42.924265" lon="13.57707"><ele>712.0</ele><time>2026-04-04T09:00:59.811Z</time></trkpt><trkpt lat="42.9242" lon="13.5769467"><ele>712.0</ele><time>2026-04-04T09:01:00.81Z</time></trkpt><trkpt lat="42.92414" lon="13.5768217"><ele>712.0</ele><time>2026-04-04T09:01:01.81Z</time></trkpt><trkpt lat="42.9240883" lon="13.57667"><ele>712.0</ele><time>2026-04-04T09:01:02.81Z</time></trkpt><trkpt lat="42.9240417" lon="13.57651"><ele>712.0</ele><time>2026-04-04T09:01:03.811Z</time></trkpt><trkpt lat="42.92401" lon="13.5763633"><ele>712.0</ele><time>2026-04-04T09:01:04.81Z</time></trkpt><trkpt lat="42.9239817" lon="13.5762417"><ele>712.0</ele><time>2026-04-04T09:01:05.811Z</time></trkpt><trkpt lat="42.9239567" lon="13.5761317"><ele>712.0</ele><time>2026-04-04T09:01:06.81Z</time></trkpt><trkpt lat="42.9239183" lon="13.5760283"><ele>712.0</ele><time>2026-04-04T09:01:07.81Z</time></trkpt><trkpt lat="42.9238767" lon="13.575925"><ele>712.0</ele><time>2026-04-04T09:01:08.811Z</time></trkpt><trkpt lat="42.9238117" lon="13.5758083"><ele>712.6</ele><time>2026-04-04T09:01:09.81Z</time></trkpt><trkpt lat="42.9237533" lon="13.5756833"><ele>713.2</ele><time>2026-04-04T09:01:10.811Z</time></trkpt><trkpt lat="42.9237183" lon="13.5755567"><ele>713.8</ele><time>2026-04-04T09:01:11.811Z</time></trkpt><trkpt lat="42.9237033" lon="13.5754233"><ele>714.4</ele><time>2026-04-04T09:01:12.81Z</time></trkpt><trkpt lat="42.9236833" lon="13.57528"><ele>715.0</ele><time>2026-04-04T09:01:13.81Z</time></trkpt><trkpt lat="42.9236417" lon="13.5751167"><ele>717.75</ele><time>2026-04-04T09:01:14.81Z</time></trkpt><trkpt lat="42.9236" lon="13.5749383"><ele>720.5</ele><time>2026-04-04T09:01:15.81Z</time></trkpt><trkpt lat="42.923575" lon="13.5747867"><ele>723.25</ele><time>2026-04-04T09:01:16.81Z</time></trkpt><trkpt lat="42.923575" lon="13.5746367"><ele>726.0</ele><time>2026-04-04T09:01:17.81Z</time></trkpt><trkpt lat="42.92358" lon="13.5744867"><ele>728.75</ele><time>2026-04-04T09:01:18.811Z</time></trkpt><trkpt lat="42.9235983" lon="13.5743333"><ele>731.5</ele><time>2026-04-04T09:01:19.81Z</time></trkpt><trkpt lat="42.9236117" lon="13.5741683"><ele>734.25</ele><time>2026-04-04T09:01:20.81Z</time></trkpt><trkpt lat="42.9236067" lon="13.5740067"><ele>737.0</ele><time>2026-04-04T09:01:21.811Z</time></trkpt><trkpt lat="42.923605" lon="13.57384"><ele>737.5</ele><time>2026-04-04T09:01:22.81Z</time></trkpt><trkpt lat="42.9236067" lon="13.5736767"><ele>738.0</ele><time>2026-04-04T09:01:23.811Z</time></trkpt><trkpt lat="42.9236117" lon="13.5735083"><ele>738.5</ele><time>2026-04-04T09:01:24.81Z</time></trkpt><trkpt lat="42.92362" lon="13.57336"><ele>739.0</ele><time>2026-04-04T09:01:25.81Z</time></trkpt><trkpt lat="42.9236183" lon="13.573225"><ele>739.0</ele><time>2026-04-04T09:01:26.81Z</time></trkpt><trkpt lat="42.9236033" lon="13.5730817"><ele>739.0</ele><time>2026-04-04T09:01:27.811Z</time></trkpt><trkpt lat="42.9235817" lon="13.57291"><ele>739.0</ele><time>2026-04-04T09:01:28.811Z</time></trkpt><trkpt lat="42.9235333" lon="13.5727367"><ele>739.0</ele><time>2026-04-04T09:01:29.811Z</time></trkpt><trkpt lat="42.923485" lon="13.5725533"><ele>741.0</ele><time>2026-04-04T09:01:30.81Z</time></trkpt><trkpt lat="42.9234517" lon="13.5723917"><ele>743.0</ele><time>2026-04-04T09:01:31.81Z</time></trkpt><trkpt lat="42.9234267" lon="13.5722267"><ele>745.0</ele><time>2026-04-04T09:01:32.81Z</time></trkpt><trkpt lat="42.9234083" lon="13.5720683"><ele>747.0</ele><time>2026-04-04T09:01:33.81Z</time></trkpt><trkpt lat="42.92339" lon="13.57192"><ele>747.5</ele><time>2026-04-04T09:01:34.81Z</time></trkpt><trkpt lat="42.9233983" lon="13.5717683"><ele>748.0</ele><time>2026-04-04T09:01:35.811Z</time></trkpt><trkpt lat="42.9234" lon="13.5715983"><ele>748.5</ele><time>2026-04-04T09:01:36.811Z</time></trkpt><trkpt lat="42.9234033" lon="13.57143"><ele>749.0</ele><time>2026-04-04T09:01:37.81Z</time></trkpt><trkpt lat="42.9234033" lon="13.5712883"><ele>749.0</ele><time>2026-04-04T09:01:38.811Z</time></trkpt><trkpt lat="42.92341" lon="13.571195"><ele>749.0</ele><time>2026-04-04T09:01:39.811Z</time></trkpt><trkpt lat="42.9233633" lon="13.5711017"><ele>749.0</ele><time>2026-04-04T09:01:41.81Z</time></trkpt><trkpt lat="42.9232133" lon="13.5711267"><ele>749.0</ele><time>2026-04-04T09:01:43.811Z</time></trkpt><trkpt lat="42.9231183" lon="13.57116"><ele>749.0</ele><time>2026-04-04T09:01:44.81Z</time></trkpt><trkpt lat="42.92303" lon="13.5711767"><ele>751.5714285714286</ele><time>2026-04-04T09:01:45.81Z</time></trkpt><trkpt lat="42.9229533" lon="13.571175"><ele>754.1428571428571</ele><time>2026-04-04T09:01:46.81Z</time></trkpt><trkpt lat="42.9228817" lon="13.5711767"><ele>756.7142857142858</ele><time>2026-04-04T09:01:47.811Z</time></trkpt><trkpt lat="42.922815" lon="13.5711667"><ele>759.2857142857142</ele><time>2026-04-04T09:01:48.81Z</time></trkpt><trkpt lat="42.9227483" lon="13.5711333"><ele>761.8571428571429</ele><time>2026-04-04T09:01:49.81Z</time></trkpt><trkpt lat="42.9226917" lon="13.5710817"><ele>764.4285714285714</ele><time>2026-04-04T09:01:50.81Z</time></trkpt><trkpt lat="42.9226367" lon="13.5710133"><ele>767.0</ele><time>2026-04-04T09:01:51.81Z</time></trkpt><trkpt lat="42.92258" lon="13.5709267"><ele>765.0</ele><time>2026-04-04T09:01:52.81Z</time></trkpt><trkpt lat="42.92253" lon="13.5708317"><ele>763.0</ele><time>2026-04-04T09:01:53.81Z</time></trkpt><trkpt lat="42.9224867" lon="13.5707217"><ele>761.0</ele><time>2026-04-04T09:01:54.81Z</time></trkpt><trkpt lat="42.9224417" lon="13.570595"><ele>759.0</ele><time>2026-04-04T09:01:55.81Z</time></trkpt><trkpt lat="42.9224083" lon="13.5704617"><ele>757.0</ele><time>2026-04-04T09:01:56.811Z</time></trkpt><trkpt lat="42.922375" lon="13.5703383"><ele>757.0</ele><time>2026-04-04T09:01:57.811Z</time></trkpt><trkpt lat="42.9223383" lon="13.5702133"><ele>757.0</ele><time>2026-04-04T09:01:58.811Z</time></trkpt><trkpt lat="42.9222933" lon="13.570095"><ele>757.0</ele><time>2026-04-04T09:01:59.81Z</time></trkpt><trkpt lat="42.92224" lon="13.5699883"><ele>757.0</ele><time>2026-04-04T09:02:00.81Z</time></trkpt><trkpt lat="42.9221767" lon="13.5699067"><ele>757.0</ele><time>2026-04-04T09:02:01.81Z</time></trkpt><trkpt lat="42.9221" lon="13.569855"><ele>757.0</ele><time>2026-04-04T09:02:02.81Z</time></trkpt><trkpt lat="42.9220083" lon="13.5698267"><ele>757.0</ele><time>2026-04-04T09:02:03.81Z</time></trkpt><trkpt lat="42.9218833" lon="13.56979"><ele>757.0</ele><time>2026-04-04T09:02:04.81Z</time></trkpt><trkpt lat="42.921765" lon="13.5697333"><ele>757.0</ele><time>2026-04-04T09:02:05.81Z</time></trkpt><trkpt lat="42.9216583" lon="13.5696417"><ele>753.2</ele><time>2026-04-04T09:02:06.81Z</time></trkpt><trkpt lat="42.921585" lon="13.569525"><ele>749.4000000000001</ele><time>2026-04-04T09:02:07.811Z</time></trkpt><trkpt lat="42.9215033" lon="13.5694017"><ele>745.5999999999999</ele><time>2026-04-04T09:02:08.81Z</time></trkpt><trkpt lat="42.9214333" lon="13.569295"><ele>741.8</ele><time>2026-04-04T09:02:09.81Z</time></trkpt><trkpt lat="42.921365" lon="13.5691917"><ele>738.0</ele><time>2026-04-04T09:02:10.81Z</time></trkpt><trkpt lat="42.9212967" lon="13.5690833"><ele>738.0</ele><time>2026-04-04T09:02:11.81Z</time></trkpt><trkpt lat="42.9212183" lon="13.5689917"><ele>738.0</ele><time>2026-04-04T09:02:12.81Z</time></trkpt><trkpt lat="42.9211267" lon="13.5689"><ele>738.0</ele><time>2026-04-04T09:02:13.81Z</time></trkpt><trkpt lat="42.9210367" lon="13.5688133"><ele>738.0</ele><time>2026-04-04T09:02:14.81Z</time></trkpt><trkpt lat="42.9209417" lon="13.5687083"><ele>738.0</ele><time>2026-04-04T09:02:15.81Z</time></trkpt><trkpt lat="42.92086" lon="13.5685817"><ele>733.4</ele><time>2026-04-04T09:02:16.81Z</time></trkpt><trkpt lat="42.9207833" lon="13.5684417"><ele>728.8</ele><time>2026-04-04T09:02:17.81Z</time></trkpt><trkpt lat="42.920745" lon="13.5683033"><ele>724.2</ele><time>2026-04-04T09:02:18.811Z</time></trkpt><trkpt lat="42.9207083" lon="13.56817"><ele>719.6</ele><time>2026-04-04T09:02:19.811Z</time></trkpt><trkpt lat="42.920685" lon="13.5680283"><ele>715.0</ele><time>2026-04-04T09:02:20.811Z</time></trkpt><trkpt lat="42.9206783" lon="13.56791"><ele>717.8</ele><time>2026-04-04T09:02:21.81Z</time></trkpt><trkpt lat="42.9206683" lon="13.567795"><ele>720.6</ele><time>2026-04-04T09:02:22.811Z</time></trkpt><trkpt lat="42.92065" lon="13.5676833"><ele>723.4000000000001</ele><time>2026-04-04T09:02:23.81Z</time></trkpt><trkpt lat="42.9206133" lon="13.5675767"><ele>726.2</ele><time>2026-04-04T09:02:24.81Z</time></trkpt><trkpt lat="42.92055" lon="13.567475"><ele>729.0</ele><time>2026-04-04T09:02:25.81Z</time></trkpt><trkpt lat="42.920455" lon="13.567365"><ele>729.0</ele><time>2026-04-04T09:02:26.81Z</time></trkpt><trkpt lat="42.9203517" lon="13.567275"><ele>729.0</ele><time>2026-04-04T09:02:27.81Z</time></trkpt><trkpt lat="42.9202217" lon="13.5672133"><ele>729.0</ele><time>2026-04-04T09:02:28.811Z</time></trkpt><trkpt lat="42.9200833" lon="13.5671533"><ele>729.0</ele><time>2026-04-04T09:02:29.811Z</time></trkpt><trkpt lat="42.9199483" lon="13.567105"><ele>730.4000000000001</ele><time>2026-04-04T09:02:30.81Z</time></trkpt><trkpt lat="42.919855" lon="13.567035"><ele>731.8</ele><time>2026-04-04T09:02:31.81Z</time></trkpt><trkpt lat="42.919775" lon="13.5669567"><ele>733.2</ele><time>2026-04-04T09:02:32.81Z</time></trkpt><trkpt lat="42.9197017" lon="13.5669067"><ele>734.5999999999999</ele><time>2026-04-04T09:02:33.811Z</time></trkpt><trkpt lat="42.9196183" lon="13.5668783"><ele>736.0</ele><time>2026-04-04T09:02:34.811Z</time></trkpt><trkpt lat="42.919505" lon="13.5669"><ele>736.0</ele><time>2026-04-04T09:02:35.81Z</time></trkpt><trkpt lat="42.91939" lon="13.5669517"><ele>736.0</ele><time>2026-04-04T09:02:36.811Z</time></trkpt><trkpt lat="42.9192967" lon="13.567025"><ele>736.0</ele><time>2026-04-04T09:02:37.81Z</time></trkpt><trkpt lat="42.9192083" lon="13.5671"><ele>736.0</ele><time>2026-04-04T09:02:38.81Z</time></trkpt><trkpt lat="42.9191133" lon="13.5671267"><ele>736.0</ele><time>2026-04-04T09:02:39.809Z</time></trkpt><trkpt lat="42.9190167" lon="13.5671067"><ele>734.0</ele><time>2026-04-04T09:02:40.81Z</time></trkpt><trkpt lat="42.9189183" lon="13.56704"><ele>732.0</ele><time>2026-04-04T09:02:41.81Z</time></trkpt><trkpt lat="42.9188217" lon="13.566955"><ele>730.0</ele><time>2026-04-04T09:02:42.81Z</time></trkpt><trkpt lat="42.9187217" lon="13.5668933"><ele>728.0</ele><time>2026-04-04T09:02:43.81Z</time></trkpt><trkpt lat="42.91862" lon="13.5668617"><ele>726.0</ele><time>2026-04-04T09:02:44.809Z</time></trkpt><trkpt lat="42.91852" lon="13.566835"><ele>726.0</ele><time>2026-04-04T09:02:45.809Z</time></trkpt><trkpt lat="42.9184017" lon="13.56684"><ele>726.0</ele><time>2026-04-04T09:02:46.809Z</time></trkpt><trkpt lat="42.9182533" lon="13.5668433"><ele>726.0</ele><time>2026-04-04T09:02:47.809Z</time></trkpt><trkpt lat="42.918085" lon="13.5668417"><ele>726.0</ele><time>2026-04-04T09:02:48.809Z</time></trkpt><trkpt lat="42.9179183" lon="13.5668367"><ele>727.25</ele><time>2026-04-04T09:02:49.809Z</time></trkpt><trkpt lat="42.9177583" lon="13.5668433"><ele>728.5</ele><time>2026-04-04T09:02:50.809Z</time></trkpt><trkpt lat="42.9176233" lon="13.56688"><ele>729.75</ele><time>2026-04-04T09:02:51.809Z</time></trkpt><trkpt lat="42.9174917" lon="13.5669267"><ele>731.0</ele><time>2026-04-04T09:02:52.809Z</time></trkpt><trkpt lat="42.9173733" lon="13.5669517"><ele>733.4</ele><time>2026-04-04T09:02:53.809Z</time></trkpt><trkpt lat="42.9172883" lon="13.56695"><ele>735.8</ele><time>2026-04-04T09:02:54.81Z</time></trkpt><trkpt lat="42.9172067" lon="13.5669267"><ele>738.1999999999999</ele><time>2026-04-04T09:02:55.809Z</time></trkpt><trkpt lat="42.9171133" lon="13.56687"><ele>740.5999999999999</ele><time>2026-04-04T09:02:56.81Z</time></trkpt><trkpt lat="42.9170233" lon="13.5668"><ele>743.0</ele><time>2026-04-04T09:02:57.81Z</time></trkpt><trkpt lat="42.91693" lon="13.5667233"><ele>743.0</ele><time>2026-04-04T09:02:58.81Z</time></trkpt><trkpt lat="42.9168467" lon="13.566635"><ele>743.0</ele><time>2026-04-04T09:02:59.809Z</time></trkpt><trkpt lat="42.9167583" lon="13.5665733"><ele>743.0</ele><time>2026-04-04T09:03:00.81Z</time></trkpt><trkpt lat="42.91667" lon="13.5665267"><ele>743.0</ele><time>2026-04-04T09:03:01.809Z</time></trkpt><trkpt lat="42.9165883" lon="13.56648"><ele>743.0</ele><time>2026-04-04T09:03:02.809Z</time></trkpt><trkpt lat="42.91653" lon="13.56642"><ele>744.5</ele><time>2026-04-04T09:03:03.81Z</time></trkpt><trkpt lat="42.9164867" lon="13.5663317"><ele>746.0</ele><time>2026-04-04T09:03:04.809Z</time></trkpt><trkpt lat="42.916455" lon="13.5662483"><ele>747.5</ele><time>2026-04-04T09:03:05.809Z</time></trkpt><trkpt lat="42.9164183" lon="13.56612"><ele>749.0</ele><time>2026-04-04T09:03:07.809Z</time></trkpt><trkpt lat="42.9163933" lon="13.5660317"><ele>750.5</ele><time>2026-04-04T09:03:09.809Z</time></trkpt><trkpt lat="42.916405" lon="13.5659317"><ele>752.0</ele><time>2026-04-04T09:07:43.809Z</time></trkpt><trkpt lat="42.9163983" lon="13.565815"><ele>752.5</ele><time>2026-04-04T09:07:45.81Z</time></trkpt><trkpt lat="42.9163767" lon="13.565645"><ele>753.0</ele><time>2026-04-04T09:07:47.809Z</time></trkpt><trkpt lat="42.9163767" lon="13.5655517"><ele>753.5</ele><time>2026-04-04T09:07:48.809Z</time></trkpt><trkpt lat="42.9163833" lon="13.565445"><ele>754.0</ele><time>2026-04-04T09:07:49.81Z</time></trkpt><trkpt lat="42.9163983" lon="13.5653417"><ele>754.5</ele><time>2026-04-04T09:07:50.809Z</time></trkpt><trkpt lat="42.91642" lon="13.5652367"><ele>755.0</ele><time>2026-04-04T09:07:51.81Z</time></trkpt><trkpt lat="42.9164383" lon="13.56513"><ele>756.5</ele><time>2026-04-04T09:07:52.809Z</time></trkpt><trkpt lat="42.9164483" lon="13.5650233"><ele>758.0</ele><time>2026-04-04T09:07:53.81Z</time></trkpt><trkpt lat="42.91646" lon="13.5649233"><ele>759.5</ele><time>2026-04-04T09:07:54.809Z</time></trkpt><trkpt lat="42.916475" lon="13.56483"><ele>761.0</ele><time>2026-04-04T09:07:55.809Z</time></trkpt><trkpt lat="42.9165167" lon="13.5646683"><ele>762.5</ele><time>2026-04-04T09:07:57.809Z</time></trkpt><trkpt lat="42.9165417" lon="13.5645867"><ele>764.0</ele><time>2026-04-04T09:07:58.809Z</time></trkpt><trkpt lat="42.9165683" lon="13.5644883"><ele>764.6</ele><time>2026-04-04T09:07:59.809Z</time></trkpt><trkpt lat="42.9165983" lon="13.5643667"><ele>765.2</ele><time>2026-04-04T09:08:00.809Z</time></trkpt><trkpt lat="42.916595" lon="13.5642283"><ele>765.8000000000001</ele><time>2026-04-04T09:08:01.809Z</time></trkpt><trkpt lat="42.91657" lon="13.5640967"><ele>766.4000000000001</ele><time>2026-04-04T09:08:02.81Z</time></trkpt><trkpt lat="42.91652" lon="13.5639817"><ele>767.0</ele><time>2026-04-04T09:08:03.81Z</time></trkpt><trkpt lat="42.9164683" lon="13.5639017"><ele>767.0</ele><time>2026-04-04T09:08:04.809Z</time></trkpt><trkpt lat="42.916415" lon="13.563845"><ele>767.0</ele><time>2026-04-04T09:08:05.809Z</time></trkpt><trkpt lat="42.9163" lon="13.563815"><ele>767.0</ele><time>2026-04-04T09:08:07.81Z</time></trkpt><trkpt lat="42.916235" lon="13.563835"><ele>767.0</ele><time>2026-04-04T09:08:08.809Z</time></trkpt><trkpt lat="42.9161683" lon="13.563845"><ele>767.0</ele><time>2026-04-04T09:08:09.81Z</time></trkpt><trkpt lat="42.9160917" lon="13.563835"><ele>767.0</ele><time>2026-04-04T09:08:10.809Z</time></trkpt><trkpt lat="42.9160183" lon="13.56381"><ele>767.0</ele><time>2026-04-04T09:08:11.809Z</time></trkpt><trkpt lat="42.9159583" lon="13.56376"><ele>767.0</ele><time>2026-04-04T09:08:12.809Z</time></trkpt><trkpt lat="42.9159067" lon="13.563685"><ele>767.0</ele><time>2026-04-04T09:08:13.809Z</time></trkpt><trkpt lat="42.9158617" lon="13.5635933"><ele>767.0</ele><time>2026-04-04T09:08:14.809Z</time></trkpt><trkpt lat="42.9158433" lon="13.5634933"><ele>767.0</ele><time>2026-04-04T09:08:15.809Z</time></trkpt><trkpt lat="42.9158517" lon="13.5633983"><ele>767.0</ele><time>2026-04-04T09:08:16.809Z</time></trkpt><trkpt lat="42.9158633" lon="13.5633083"><ele>767.0</ele><time>2026-04-04T09:08:17.809Z</time></trkpt><trkpt lat="42.9158583" lon="13.5631467"><ele>767.3333333333333</ele><time>2026-04-04T09:08:19.809Z</time></trkpt><trkpt lat="42.9158183" lon="13.56305"><ele>767.6666666666666</ele><time>2026-04-04T09:08:20.809Z</time></trkpt><trkpt lat="42.915755" lon="13.562985"><ele>768.0</ele><time>2026-04-04T09:08:21.809Z</time></trkpt><trkpt lat="42.915675" lon="13.562945"><ele>768.3333333333333</ele><time>2026-04-04T09:08:22.809Z</time></trkpt><trkpt lat="42.91559" lon="13.5628933"><ele>768.6666666666666</ele><time>2026-04-04T09:08:23.809Z</time></trkpt><trkpt lat="42.9155" lon="13.5628433"><ele>769.0</ele><time>2026-04-04T09:08:24.81Z</time></trkpt><trkpt lat="42.9154117" lon="13.5628017"><ele>769.0</ele><time>2026-04-04T09:08:25.81Z</time></trkpt><trkpt lat="42.9153333" lon="13.5627333"><ele>769.0</ele><time>2026-04-04T09:08:26.809Z</time></trkpt><trkpt lat="42.9152567" lon="13.5626533"><ele>769.0</ele><time>2026-04-04T09:08:27.81Z</time></trkpt><trkpt lat="42.9151817" lon="13.56258"><ele>769.0</ele><time>2026-04-04T09:08:28.809Z</time></trkpt><trkpt lat="42.9151" lon="13.5625083"><ele>769.0</ele><time>2026-04-04T09:08:29.809Z</time></trkpt><trkpt lat="42.9150217" lon="13.5624367"><ele>767.1666666666666</ele><time>2026-04-04T09:08:30.809Z</time></trkpt><trkpt lat="42.9149467" lon="13.5623467"><ele>765.3333333333333</ele><time>2026-04-04T09:08:31.809Z</time></trkpt><trkpt lat="42.9148817" lon="13.5622633"><ele>763.5</ele><time>2026-04-04T09:08:32.809Z</time></trkpt><trkpt lat="42.91482" lon="13.5622"><ele>761.6666666666666</ele><time>2026-04-04T09:08:33.809Z</time></trkpt><trkpt lat="42.9147583" lon="13.562165"><ele>759.8333333333333</ele><time>2026-04-04T09:08:34.81Z</time></trkpt><trkpt lat="42.9146817" lon="13.5621583"><ele>758.0</ele><time>2026-04-04T09:08:35.81Z</time></trkpt><trkpt lat="42.9146" lon="13.5622"><ele>758.0</ele><time>2026-04-04T09:08:36.81Z</time></trkpt><trkpt lat="42.9145267" lon="13.562265"><ele>758.0</ele><time>2026-04-04T09:08:37.81Z</time></trkpt><trkpt lat="42.9144683" lon="13.5623467"><ele>758.0</ele><time>2026-04-04T09:08:38.809Z</time></trkpt><trkpt lat="42.9144083" lon="13.5624317"><ele>758.0</ele><time>2026-04-04T09:08:39.809Z</time></trkpt><trkpt lat="42.91435" lon="13.5624983"><ele>758.0</ele><time>2026-04-04T09:08:40.809Z</time></trkpt><trkpt lat="42.91428" lon="13.5625533"><ele>758.0</ele><time>2026-04-04T09:08:41.809Z</time></trkpt><trkpt lat="42.9141983" lon="13.5625983"><ele>757.5999999999999</ele><time>2026-04-04T09:08:42.809Z</time></trkpt><trkpt lat="42.9140983" lon="13.5626533"><ele>757.1999999999999</ele><time>2026-04-04T09:08:43.809Z</time></trkpt><trkpt lat="42.914005" lon="13.5626983"><ele>756.8</ele><time>2026-04-04T09:08:44.809Z</time></trkpt><trkpt lat="42.9139017" lon="13.5627717"><ele>756.4</ele><time>2026-04-04T09:08:45.809Z</time></trkpt><trkpt lat="42.913805" lon="13.5628333"><ele>756.0</ele><time>2026-04-04T09:08:46.81Z</time></trkpt><trkpt lat="42.9137067" lon="13.5628567"><ele>756.0</ele><time>2026-04-04T09:08:47.81Z</time></trkpt><trkpt lat="42.91362" lon="13.56285"><ele>756.0</ele><time>2026-04-04T09:08:48.809Z</time></trkpt><trkpt lat="42.913535" lon="13.5628367"><ele>756.0</ele><time>2026-04-04T09:08:49.809Z</time></trkpt><trkpt lat="42.9134567" lon="13.562855"><ele>756.0</ele><time>2026-04-04T09:08:50.809Z</time></trkpt><trkpt lat="42.913385" lon="13.56291"><ele>756.0</ele><time>2026-04-04T09:08:51.809Z</time></trkpt><trkpt lat="42.9133183" lon="13.5629933"><ele>756.0</ele><time>2026-04-04T09:08:52.81Z</time></trkpt><trkpt lat="42.9132467" lon="13.5630767"><ele>751.4</ele><time>2026-04-04T09:08:53.809Z</time></trkpt><trkpt lat="42.91316" lon="13.5631667"><ele>746.8</ele><time>2026-04-04T09:08:54.81Z</time></trkpt><trkpt lat="42.9130633" lon="13.5632283"><ele>742.1999999999999</ele><time>2026-04-04T09:08:55.81Z</time></trkpt><trkpt lat="42.9129617" lon="13.5632483"><ele>737.5999999999999</ele><time>2026-04-04T09:08:56.809Z</time></trkpt><trkpt lat="42.9128667" lon="13.5632217"><ele>733.0</ele><time>2026-04-04T09:08:57.81Z</time></trkpt><trkpt lat="42.9127633" lon="13.5631833"><ele>733.0</ele><time>2026-04-04T09:08:58.81Z</time></trkpt><trkpt lat="42.9126533" lon="13.563155"><ele>733.0</ele><time>2026-04-04T09:08:59.809Z</time></trkpt><trkpt lat="42.9125533" lon="13.5631267"><ele>733.0</ele><time>2026-04-04T09:09:00.809Z</time></trkpt><trkpt lat="42.9124617" lon="13.563095"><ele>733.0</ele><time>2026-04-04T09:09:01.809Z</time></trkpt><trkpt lat="42.91237" lon="13.563075"><ele>733.0</ele><time>2026-04-04T09:09:02.81Z</time></trkpt><trkpt lat="42.9122683" lon="13.563055"><ele>730.5</ele><time>2026-04-04T09:09:03.81Z</time></trkpt><trkpt lat="42.9121633" lon="13.5630317"><ele>728.0</ele><time>2026-04-04T09:09:04.809Z</time></trkpt><trkpt lat="42.9120517" lon="13.563005"><ele>725.5</ele><time>2026-04-04T09:09:05.809Z</time></trkpt><trkpt lat="42.91193" lon="13.5629667"><ele>723.0</ele><time>2026-04-04T09:09:06.81Z</time></trkpt><trkpt lat="42.9118217" lon="13.5629217"><ele>723.2</ele><time>2026-04-04T09:09:07.809Z</time></trkpt><trkpt lat="42.9117117" lon="13.562875"><ele>723.4</ele><time>2026-04-04T09:09:08.81Z</time></trkpt><trkpt lat="42.9116067" lon="13.5628333"><ele>723.6</ele><time>2026-04-04T09:09:09.81Z</time></trkpt><trkpt lat="42.91151" lon="13.562785"><ele>723.8000000000001</ele><time>2026-04-04T09:09:10.81Z</time></trkpt><trkpt lat="42.9114133" lon="13.5627433"><ele>724.0</ele><time>2026-04-04T09:09:11.809Z</time></trkpt><trkpt lat="42.9113333" lon="13.562685"><ele>724.0</ele><time>2026-04-04T09:09:12.809Z</time></trkpt><trkpt lat="42.9112467" lon="13.5626217"><ele>724.0</ele><time>2026-04-04T09:09:13.809Z</time></trkpt><trkpt lat="42.911165" lon="13.5625483"><ele>724.0</ele><time>2026-04-04T09:09:14.808Z</time></trkpt><trkpt lat="42.9110967" lon="13.5624533"><ele>724.0</ele><time>2026-04-04T09:09:15.808Z</time></trkpt><trkpt lat="42.9110417" lon="13.5623267"><ele>724.0</ele><time>2026-04-04T09:09:16.809Z</time></trkpt><trkpt lat="42.9109967" lon="13.5621817"><ele>724.0</ele><time>2026-04-04T09:09:17.808Z</time></trkpt><trkpt lat="42.910955" lon="13.56204"><ele>724.0</ele><time>2026-04-04T09:09:18.809Z</time></trkpt><trkpt lat="42.910905" lon="13.5619"><ele>724.0</ele><time>2026-04-04T09:09:19.808Z</time></trkpt><trkpt lat="42.9108517" lon="13.5617683"><ele>724.0</ele><time>2026-04-04T09:09:20.808Z</time></trkpt><trkpt lat="42.9108017" lon="13.5616617"><ele>724.0</ele><time>2026-04-04T09:09:21.809Z</time></trkpt><trkpt lat="42.91075" lon="13.561585"><ele>719.8333333333334</ele><time>2026-04-04T09:09:22.808Z</time></trkpt><trkpt lat="42.9106683" lon="13.561545"><ele>715.6666666666667</ele><time>2026-04-04T09:09:24.809Z</time></trkpt><trkpt lat="42.910635" lon="13.5616467"><ele>711.5</ele><time>2026-04-04T09:09:26.808Z</time></trkpt><trkpt lat="42.91065" lon="13.56174"><ele>707.3333333333334</ele><time>2026-04-04T09:09:27.808Z</time></trkpt><trkpt lat="42.9106817" lon="13.5618517"><ele>703.1666666666666</ele><time>2026-04-04T09:09:28.808Z</time></trkpt><trkpt lat="42.91071" lon="13.5619867"><ele>699.0</ele><time>2026-04-04T09:09:29.808Z</time></trkpt><trkpt lat="42.9107283" lon="13.562125"><ele>697.0</ele><time>2026-04-04T09:09:30.808Z</time></trkpt><trkpt lat="42.9107433" lon="13.56227"><ele>695.0</ele><time>2026-04-04T09:09:31.808Z</time></trkpt><trkpt lat="42.9107433" lon="13.5624133"><ele>693.0</ele><time>2026-04-04T09:09:32.809Z</time></trkpt><trkpt lat="42.9107483" lon="13.5625533"><ele>691.0</ele><time>2026-04-04T09:09:33.808Z</time></trkpt><trkpt lat="42.9107583" lon="13.5626733"><ele>689.0</ele><time>2026-04-04T09:09:34.808Z</time></trkpt><trkpt lat="42.9107317" lon="13.562805"><ele>689.0</ele><time>2026-04-04T09:09:36.808Z</time></trkpt><trkpt lat="42.9106683" lon="13.5627567"><ele>689.0</ele><time>2026-04-04T09:09:38.808Z</time></trkpt><trkpt lat="42.9106467" lon="13.5626733"><ele>689.0</ele><time>2026-04-04T09:09:39.808Z</time></trkpt><trkpt lat="42.9106183" lon="13.562565"><ele>689.0</ele><time>2026-04-04T09:09:40.809Z</time></trkpt><trkpt lat="42.910575" lon="13.56244"><ele>689.0</ele><time>2026-04-04T09:09:41.809Z</time></trkpt><trkpt lat="42.9105" lon="13.5623067"><ele>689.0</ele><time>2026-04-04T09:09:42.808Z</time></trkpt><trkpt lat="42.91042" lon="13.5621883"><ele>689.0</ele><time>2026-04-04T09:09:43.808Z</time></trkpt><trkpt lat="42.9103517" lon="13.5620733"><ele>689.0</ele><time>2026-04-04T09:09:44.808Z</time></trkpt><trkpt lat="42.9102967" lon="13.5619667"><ele>689.0</ele><time>2026-04-04T09:09:45.809Z</time></trkpt><trkpt lat="42.910255" lon="13.5618767"><ele>689.0</ele><time>2026-04-04T09:09:46.808Z</time></trkpt><trkpt lat="42.91022" lon="13.5618"><ele>689.0</ele><time>2026-04-04T09:09:47.808Z</time></trkpt><trkpt lat="42.9101417" lon="13.5618033"><ele>689.0</ele><time>2026-04-04T09:09:49.808Z</time></trkpt><trkpt lat="42.9101167" lon="13.5619633"><ele>689.0</ele><time>2026-04-04T09:09:51.809Z</time></trkpt><trkpt lat="42.9101383" lon="13.5620933"><ele>689.0</ele><time>2026-04-04T09:09:52.808Z</time></trkpt><trkpt lat="42.910165" lon="13.5622367"><ele>689.0</ele><time>2026-04-04T09:09:53.809Z</time></trkpt><trkpt lat="42.91019" lon="13.562395"><ele>689.0</ele><time>2026-04-04T09:09:54.809Z</time></trkpt><trkpt lat="42.9102217" lon="13.5625617"><ele>689.0</ele><time>2026-04-04T09:09:55.809Z</time></trkpt><trkpt lat="42.9102617" lon="13.5627233"><ele>689.0</ele><time>2026-04-04T09:09:56.809Z</time></trkpt><trkpt lat="42.910275" lon="13.5628833"><ele>689.0</ele><time>2026-04-04T09:09:57.808Z</time></trkpt><trkpt lat="42.9102567" lon="13.563055"><ele>689.0</ele><time>2026-04-04T09:09:58.808Z</time></trkpt><trkpt lat="42.9102333" lon="13.5632133"><ele>684.5</ele><time>2026-04-04T09:09:59.808Z</time></trkpt><trkpt lat="42.9101983" lon="13.5633867"><ele>680.0</ele><time>2026-04-04T09:10:00.808Z</time></trkpt><trkpt lat="42.9101517" lon="13.5635367"><ele>675.5</ele><time>2026-04-04T09:10:01.809Z</time></trkpt><trkpt lat="42.9101117" lon="13.5636783"><ele>671.0</ele><time>2026-04-04T09:10:02.808Z</time></trkpt><trkpt lat="42.9100567" lon="13.5638017"><ele>664.5999999999999</ele><time>2026-04-04T09:10:03.809Z</time></trkpt><trkpt lat="42.91001" lon="13.5639117"><ele>658.1999999999999</ele><time>2026-04-04T09:10:04.809Z</time></trkpt><trkpt lat="42.9099633" lon="13.564015"><ele>651.8</ele><time>2026-04-04T09:10:05.809Z</time></trkpt><trkpt lat="42.90991" lon="13.56411"><ele>645.4</ele><time>2026-04-04T09:10:06.809Z</time></trkpt><trkpt lat="42.909855" lon="13.5641983"><ele>639.0</ele><time>2026-04-04T09:10:07.808Z</time></trkpt><trkpt lat="42.909785" lon="13.5642867"><ele>639.0</ele><time>2026-04-04T09:10:08.809Z</time></trkpt><trkpt lat="42.9097067" lon="13.56436"><ele>639.0</ele><time>2026-04-04T09:10:09.808Z</time></trkpt><trkpt lat="42.9096067" lon="13.5643967"><ele>639.0</ele><time>2026-04-04T09:10:10.808Z</time></trkpt><trkpt lat="42.9094983" lon="13.5643933"><ele>639.0</ele><time>2026-04-04T09:10:11.808Z</time></trkpt><trkpt lat="42.9093983" lon="13.56438"><ele>639.0</ele><time>2026-04-04T09:10:12.808Z</time></trkpt><trkpt lat="42.9092917" lon="13.5643617"><ele>634.8</ele><time>2026-04-04T09:10:13.808Z</time></trkpt><trkpt lat="42.90918" lon="13.564355"><ele>630.5999999999999</ele><time>2026-04-04T09:10:14.809Z</time></trkpt><trkpt lat="42.909065" lon="13.5643767"><ele>626.4</ele><time>2026-04-04T09:10:15.808Z</time></trkpt><trkpt lat="42.908955" lon="13.564405"><ele>622.1999999999999</ele><time>2026-04-04T09:10:16.808Z</time></trkpt><trkpt lat="42.90885" lon="13.5644333"><ele>618.0</ele><time>2026-04-04T09:10:17.808Z</time></trkpt><trkpt lat="42.908745" lon="13.56447"><ele>618.0</ele><time>2026-04-04T09:10:18.808Z</time></trkpt><trkpt lat="42.9086417" lon="13.5644933"><ele>618.0</ele><time>2026-04-04T09:10:19.808Z</time></trkpt><trkpt lat="42.9085317" lon="13.564515"><ele>618.0</ele><time>2026-04-04T09:10:20.809Z</time></trkpt><trkpt lat="42.9084183" lon="13.5645267"><ele>618.0</ele><time>2026-04-04T09:10:21.809Z</time></trkpt><trkpt lat="42.908295" lon="13.5645367"><ele>615.0</ele><time>2026-04-04T09:10:22.808Z</time></trkpt><trkpt lat="42.908165" lon="13.5645283"><ele>612.0</ele><time>2026-04-04T09:10:23.808Z</time></trkpt><trkpt lat="42.9080367" lon="13.56451"><ele>609.0</ele><time>2026-04-04T09:10:24.809Z</time></trkpt><trkpt lat="42.9079117" lon="13.5644717"><ele>606.0</ele><time>2026-04-04T09:10:25.808Z</time></trkpt><trkpt lat="42.9077817" lon="13.5644417"><ele>606.0</ele><time>2026-04-04T09:10:26.808Z</time></trkpt><trkpt lat="42.9076633" lon="13.5644017"><ele>606.0</ele><time>2026-04-04T09:10:27.808Z</time></trkpt><trkpt lat="42.9075517" lon="13.5643583"><ele>606.0</ele><time>2026-04-04T09:10:28.809Z</time></trkpt><trkpt lat="42.9074433" lon="13.5643217"><ele>606.0</ele><time>2026-04-04T09:10:29.808Z</time></trkpt><trkpt lat="42.9073383" lon="13.564285"><ele>604.4</ele><time>2026-04-04T09:10:30.808Z</time></trkpt><trkpt lat="42.9072367" lon="13.56425"><ele>602.8</ele><time>2026-04-04T09:10:31.808Z</time></trkpt><trkpt lat="42.9071417" lon="13.564225"><ele>601.1999999999999</ele><time>2026-04-04T09:10:32.808Z</time></trkpt><trkpt lat="42.90704" lon="13.5641917"><ele>599.6</ele><time>2026-04-04T09:10:33.808Z</time></trkpt><trkpt lat="42.90694" lon="13.5641667"><ele>598.0</ele><time>2026-04-04T09:10:34.808Z</time></trkpt><trkpt lat="42.9068433" lon="13.5641483"><ele>598.0</ele><time>2026-04-04T09:10:35.808Z</time></trkpt><trkpt lat="42.906745" lon="13.564115"><ele>598.0</ele><time>2026-04-04T09:10:36.808Z</time></trkpt><trkpt lat="42.9066583" lon="13.5640983"><ele>598.0</ele><time>2026-04-04T09:10:37.808Z</time></trkpt><trkpt lat="42.9065783" lon="13.5640683"><ele>598.0</ele><time>2026-04-04T09:10:38.808Z</time></trkpt><trkpt lat="42.90651" lon="13.564035"><ele>598.0</ele><time>2026-04-04T09:10:39.808Z</time></trkpt><trkpt lat="42.9064467" lon="13.5640067"><ele>598.0</ele><time>2026-04-04T09:10:40.809Z</time></trkpt><trkpt lat="42.90639" lon="13.563965"><ele>595.6</ele><time>2026-04-04T09:10:42.809Z</time></trkpt><trkpt lat="42.9064467" lon="13.5638583"><ele>593.1999999999999</ele><time>2026-04-04T09:10:45.808Z</time></trkpt><trkpt lat="42.906505" lon="13.5637017"><ele>590.8</ele><time>2026-04-04T09:10:47.808Z</time></trkpt><trkpt lat="42.9065333" lon="13.56361"><ele>588.4</ele><time>2026-04-04T09:10:48.808Z</time></trkpt><trkpt lat="42.9065717" lon="13.5635217"><ele>586.0</ele><time>2026-04-04T09:10:49.808Z</time></trkpt><trkpt lat="42.906625" lon="13.5634383"><ele>585.5</ele><time>2026-04-04T09:10:50.809Z</time></trkpt><trkpt lat="42.9066883" lon="13.5633533"><ele>585.0</ele><time>2026-04-04T09:10:51.809Z</time></trkpt><trkpt lat="42.9067517" lon="13.5632833"><ele>584.5</ele><time>2026-04-04T09:10:52.808Z</time></trkpt><trkpt lat="42.9068167" lon="13.563235"><ele>584.0</ele><time>2026-04-04T09:10:53.808Z</time></trkpt><trkpt lat="42.9068883" lon="13.5631983"><ele>583.5</ele><time>2026-04-04T09:10:54.808Z</time></trkpt><trkpt lat="42.9069717" lon="13.5631767"><ele>583.0</ele><time>2026-04-04T09:10:55.808Z</time></trkpt><trkpt lat="42.9070633" lon="13.5631717"><ele>583.0</ele><time>2026-04-04T09:10:56.808Z</time></trkpt><trkpt lat="42.907155" lon="13.5632017"><ele>583.0</ele><time>2026-04-04T09:10:57.809Z</time></trkpt><trkpt lat="42.907255" lon="13.56326"><ele>583.0</ele><time>2026-04-04T09:10:58.808Z</time></trkpt><trkpt lat="42.9073683" lon="13.5633017"><ele>583.0</ele><time>2026-04-04T09:10:59.808Z</time></trkpt><trkpt lat="42.9074833" lon="13.56334"><ele>583.0</ele><time>2026-04-04T09:11:00.809Z</time></trkpt><trkpt lat="42.907605" lon="13.563365"><ele>585.25</ele><time>2026-04-04T09:11:01.808Z</time></trkpt><trkpt lat="42.9077233" lon="13.5633833"><ele>587.5</ele><time>2026-04-04T09:11:02.809Z</time></trkpt><trkpt lat="42.9078417" lon="13.5634033"><ele>589.75</ele><time>2026-04-04T09:11:03.809Z</time></trkpt><trkpt lat="42.9079567" lon="13.5634233"><ele>592.0</ele><time>2026-04-04T09:11:04.809Z</time></trkpt><trkpt lat="42.9080583" lon="13.5634383"><ele>592.0</ele><time>2026-04-04T09:11:05.809Z</time></trkpt><trkpt lat="42.9081533" lon="13.563455"><ele>592.0</ele><time>2026-04-04T09:11:06.808Z</time></trkpt><trkpt lat="42.908245" lon="13.5634817"><ele>592.0</ele><time>2026-04-04T09:11:07.808Z</time></trkpt><trkpt lat="42.9083333" lon="13.5634967"><ele>592.0</ele><time>2026-04-04T09:11:08.808Z</time></trkpt><trkpt lat="42.9084017" lon="13.563485"><ele>592.0</ele><time>2026-04-04T09:11:09.809Z</time></trkpt><trkpt lat="42.9084583" lon="13.5634417"><ele>592.0</ele><time>2026-04-04T09:11:10.808Z</time></trkpt><trkpt lat="42.9085217" lon="13.5633117"><ele>592.4</ele><time>2026-04-04T09:11:12.808Z</time></trkpt><trkpt lat="42.9085117" lon="13.5632117"><ele>592.8000000000001</ele><time>2026-04-04T09:11:13.808Z</time></trkpt><trkpt lat="42.908485" lon="13.56311"><ele>593.2</ele><time>2026-04-04T09:11:14.808Z</time></trkpt><trkpt lat="42.9084517" lon="13.5629883"><ele>593.6</ele><time>2026-04-04T09:11:15.808Z</time></trkpt><trkpt lat="42.9084133" lon="13.562855"><ele>594.0</ele><time>2026-04-04T09:11:16.809Z</time></trkpt><trkpt lat="42.9083583" lon="13.5627117"><ele>594.0</ele><time>2026-04-04T09:11:17.808Z</time></trkpt><trkpt lat="42.9083017" lon="13.5625633"><ele>594.0</ele><time>2026-04-04T09:11:18.808Z</time></trkpt><trkpt lat="42.9082583" lon="13.5624"><ele>594.0</ele><time>2026-04-04T09:11:19.809Z</time></trkpt><trkpt lat="42.9082283" lon="13.5622333"><ele>594.0</ele><time>2026-04-04T09:11:20.808Z</time></trkpt><trkpt lat="42.90822" lon="13.562075"><ele>597.2</ele><time>2026-04-04T09:11:21.808Z</time></trkpt><trkpt lat="42.9082083" lon="13.5619217"><ele>600.4</ele><time>2026-04-04T09:11:22.808Z</time></trkpt><trkpt lat="42.9081783" lon="13.56178"><ele>603.6</ele><time>2026-04-04T09:11:23.808Z</time></trkpt><trkpt lat="42.9081283" lon="13.5616383"><ele>606.8</ele><time>2026-04-04T09:11:24.808Z</time></trkpt><trkpt lat="42.90807" lon="13.5615067"><ele>610.0</ele><time>2026-04-04T09:11:25.808Z</time></trkpt><trkpt lat="42.9080117" lon="13.5614017"><ele>610.0</ele><time>2026-04-04T09:11:26.809Z</time></trkpt><trkpt lat="42.9079617" lon="13.5612883"><ele>610.0</ele><time>2026-04-04T09:11:27.808Z</time></trkpt><trkpt lat="42.90792" lon="13.5611833"><ele>610.0</ele><time>2026-04-04T09:11:28.808Z</time></trkpt><trkpt lat="42.9078917" lon="13.5610683"><ele>610.0</ele><time>2026-04-04T09:11:29.809Z</time></trkpt><trkpt lat="42.907895" lon="13.5609433"><ele>610.0</ele><time>2026-04-04T09:11:30.808Z</time></trkpt><trkpt lat="42.9079133" lon="13.5608117"><ele>610.5</ele><time>2026-04-04T09:11:31.809Z</time></trkpt><trkpt lat="42.90795" lon="13.5606767"><ele>611.0</ele><time>2026-04-04T09:11:32.808Z</time></trkpt><trkpt lat="42.9079967" lon="13.5605217"><ele>611.5</ele><time>2026-04-04T09:11:33.809Z</time></trkpt><trkpt lat="42.9080433" lon="13.5603667"><ele>612.0</ele><time>2026-04-04T09:11:34.808Z</time></trkpt><trkpt lat="42.9080867" lon="13.5601917"><ele>612.0</ele><time>2026-04-04T09:11:35.809Z</time></trkpt><trkpt lat="42.9081317" lon="13.5600167"><ele>612.0</ele><time>2026-04-04T09:11:36.808Z</time></trkpt><trkpt lat="42.9081767" lon="13.5598433"><ele>612.0</ele><time>2026-04-04T09:11:37.808Z</time></trkpt><trkpt lat="42.908235" lon="13.559695"><ele>612.0</ele><time>2026-04-04T09:11:38.808Z</time></trkpt><trkpt lat="42.9082767" lon="13.5595383"><ele>610.0</ele><time>2026-04-04T09:11:39.808Z</time></trkpt><trkpt lat="42.9083167" lon="13.5593867"><ele>608.0</ele><time>2026-04-04T09:11:40.809Z</time></trkpt><trkpt lat="42.9083567" lon="13.5592433"><ele>606.0</ele><time>2026-04-04T09:11:41.809Z</time></trkpt><trkpt lat="42.9083933" lon="13.5591067"><ele>604.0</ele><time>2026-04-04T09:11:42.808Z</time></trkpt><trkpt lat="42.908425" lon="13.558975"><ele>602.0</ele><time>2026-04-04T09:11:43.809Z</time></trkpt><trkpt lat="42.9084567" lon="13.55885"><ele>603.5</ele><time>2026-04-04T09:11:44.809Z</time></trkpt><trkpt lat="42.9084833" lon="13.558735"><ele>605.0</ele><time>2026-04-04T09:11:45.808Z</time></trkpt><trkpt lat="42.9085017" lon="13.5586233"><ele>606.5</ele><time>2026-04-04T09:11:46.809Z</time></trkpt><trkpt lat="42.90852" lon="13.5585183"><ele>608.0</ele><time>2026-04-04T09:11:47.809Z</time></trkpt><trkpt lat="42.9085467" lon="13.5584133"><ele>609.5</ele><time>2026-04-04T09:11:48.808Z</time></trkpt><trkpt lat="42.908575" lon="13.5583267"><ele>611.0</ele><time>2026-04-04T09:11:49.808Z</time></trkpt><trkpt lat="42.9086183" lon="13.5582417"><ele>611.0</ele><time>2026-04-04T09:11:50.808Z</time></trkpt><trkpt lat="42.9086717" lon="13.558175"><ele>611.0</ele><time>2026-04-04T09:11:51.809Z</time></trkpt><trkpt lat="42.9087317" lon="13.5581317"><ele>611.0</ele><time>2026-04-04T09:11:52.808Z</time></trkpt><trkpt lat="42.9088167" lon="13.5580983"><ele>611.0</ele><time>2026-04-04T09:11:53.809Z</time></trkpt><trkpt lat="42.9089033" lon="13.5580667"><ele>611.0</ele><time>2026-04-04T09:11:54.809Z</time></trkpt><trkpt lat="42.9089817" lon="13.5580267"><ele>611.0</ele><time>2026-04-04T09:11:55.809Z</time></trkpt><trkpt lat="42.909055" lon="13.5579833"><ele>611.0</ele><time>2026-04-04T09:11:56.808Z</time></trkpt><trkpt lat="42.90912" lon="13.5579267"><ele>611.0</ele><time>2026-04-04T09:11:57.808Z</time></trkpt><trkpt lat="42.9091767" lon="13.5578667"><ele>611.0</ele><time>2026-04-04T09:11:58.808Z</time></trkpt><trkpt lat="42.909225" lon="13.5577217"><ele>611.0</ele><time>2026-04-04T09:12:00.809Z</time></trkpt><trkpt lat="42.9091967" lon="13.5576367"><ele>611.0</ele><time>2026-04-04T09:12:01.808Z</time></trkpt><trkpt lat="42.9091367" lon="13.5575717"><ele>611.0</ele><time>2026-04-04T09:12:02.809Z</time></trkpt><trkpt lat="42.9090667" lon="13.55752"><ele>610.4</ele><time>2026-04-04T09:12:03.809Z</time></trkpt><trkpt lat="42.9089817" lon="13.5574683"><ele>609.8</ele><time>2026-04-04T09:12:04.808Z</time></trkpt><trkpt lat="42.9088917" lon="13.5574083"><ele>609.1999999999999</ele><time>2026-04-04T09:12:05.808Z</time></trkpt><trkpt lat="42.9087933" lon="13.557345"><ele>608.6</ele><time>2026-04-04T09:12:06.809Z</time></trkpt><trkpt lat="42.9086983" lon="13.5572517"><ele>608.0</ele><time>2026-04-04T09:12:07.809Z</time></trkpt><trkpt lat="42.9085933" lon="13.5571483"><ele>608.0</ele><time>2026-04-04T09:12:08.808Z</time></trkpt><trkpt lat="42.908505" lon="13.5570517"><ele>608.0</ele><time>2026-04-04T09:12:09.808Z</time></trkpt><trkpt lat="42.90842" lon="13.5569767"><ele>608.0</ele><time>2026-04-04T09:12:10.809Z</time></trkpt><trkpt lat="42.90837" lon="13.5568883"><ele>608.0</ele><time>2026-04-04T09:12:11.809Z</time></trkpt><trkpt lat="42.90836" lon="13.556795"><ele>608.0</ele><time>2026-04-04T09:12:12.809Z</time></trkpt><trkpt lat="42.9083933" lon="13.5566483"><ele>610.0</ele><time>2026-04-04T09:12:14.808Z</time></trkpt><trkpt lat="42.9084567" lon="13.5565783"><ele>612.0</ele><time>2026-04-04T09:12:15.809Z</time></trkpt><trkpt lat="42.90854" lon="13.5565217"><ele>614.0</ele><time>2026-04-04T09:12:16.809Z</time></trkpt><trkpt lat="42.9086367" lon="13.55648"><ele>616.0</ele><time>2026-04-04T09:12:17.809Z</time></trkpt><trkpt lat="42.908735" lon="13.556445"><ele>618.0</ele><time>2026-04-04T09:12:18.808Z</time></trkpt><trkpt lat="42.90883" lon="13.5564033"><ele>618.0</ele><time>2026-04-04T09:12:19.809Z</time></trkpt><trkpt lat="42.9089317" lon="13.556345"><ele>618.0</ele><time>2026-04-04T09:12:20.809Z</time></trkpt><trkpt lat="42.909025" lon="13.5562817"><ele>618.0</ele><time>2026-04-04T09:12:21.808Z</time></trkpt><trkpt lat="42.9091233" lon="13.556225"><ele>618.0</ele><time>2026-04-04T09:12:22.809Z</time></trkpt><trkpt lat="42.9092233" lon="13.5561783"><ele>618.0</ele><time>2026-04-04T09:12:23.808Z</time></trkpt><trkpt lat="42.909325" lon="13.55613"><ele>621.0</ele><time>2026-04-04T09:12:24.808Z</time></trkpt><trkpt lat="42.9094133" lon="13.556085"><ele>624.0</ele><time>2026-04-04T09:12:25.809Z</time></trkpt><trkpt lat="42.9095117" lon="13.5560417"><ele>627.0</ele><time>2026-04-04T09:12:26.808Z</time></trkpt><trkpt lat="42.9096117" lon="13.5559767"><ele>630.0</ele><time>2026-04-04T09:12:27.808Z</time></trkpt><trkpt lat="42.9097083" lon="13.5559083"><ele>633.0</ele><time>2026-04-04T09:12:28.808Z</time></trkpt><trkpt lat="42.9097967" lon="13.5558417"><ele>633.0</ele><time>2026-04-04T09:12:29.808Z</time></trkpt><trkpt lat="42.9098833" lon="13.5557767"><ele>633.0</ele><time>2026-04-04T09:12:30.808Z</time></trkpt><trkpt lat="42.9099717" lon="13.5557367"><ele>633.0</ele><time>2026-04-04T09:12:31.808Z</time></trkpt><trkpt lat="42.9100717" lon="13.5557267"><ele>633.0</ele><time>2026-04-04T09:12:32.809Z</time></trkpt><trkpt lat="42.91017" lon="13.555735"><ele>633.0</ele><time>2026-04-04T09:12:33.809Z</time></trkpt><trkpt lat="42.910275" lon="13.555745"><ele>637.2</ele><time>2026-04-04T09:12:34.808Z</time></trkpt><trkpt lat="42.9103883" lon="13.5557683"><ele>641.4</ele><time>2026-04-04T09:12:35.808Z</time></trkpt><trkpt lat="42.9105" lon="13.555775"><ele>645.6</ele><time>2026-04-04T09:12:36.809Z</time></trkpt><trkpt lat="42.9106117" lon="13.5557533"><ele>649.8000000000001</ele><time>2026-04-04T09:12:37.808Z</time></trkpt><trkpt lat="42.9107083" lon="13.5556933"><ele>654.0</ele><time>2026-04-04T09:12:38.808Z</time></trkpt><trkpt lat="42.91081" lon="13.5556"><ele>660.75</ele><time>2026-04-04T09:12:39.808Z</time></trkpt><trkpt lat="42.9109133" lon="13.555495"><ele>667.5</ele><time>2026-04-04T09:12:40.808Z</time></trkpt><trkpt lat="42.9110117" lon="13.5553583"><ele>674.25</ele><time>2026-04-04T09:12:41.808Z</time></trkpt><trkpt lat="42.9110867" lon="13.5552133"><ele>681.0</ele><time>2026-04-04T09:12:42.808Z</time></trkpt><trkpt lat="42.9111683" lon="13.55507"><ele>681.0</ele><time>2026-04-04T09:12:43.808Z</time></trkpt><trkpt lat="42.9112517" lon="13.5549167"><ele>681.0</ele><time>2026-04-04T09:12:44.808Z</time></trkpt><trkpt lat="42.9113317" lon="13.554765"><ele>681.0</ele><time>2026-04-04T09:12:45.808Z</time></trkpt><trkpt lat="42.9114133" lon="13.5546383"><ele>681.0</ele><time>2026-04-04T09:12:46.808Z</time></trkpt><trkpt lat="42.9114933" lon="13.5544983"><ele>678.25</ele><time>2026-04-04T09:12:47.808Z</time></trkpt><trkpt lat="42.9115717" lon="13.5543583"><ele>675.5</ele><time>2026-04-04T09:12:48.809Z</time></trkpt><trkpt lat="42.9116483" lon="13.5542117"><ele>672.75</ele><time>2026-04-04T09:12:49.808Z</time></trkpt><trkpt lat="42.9117033" lon="13.5540683"><ele>670.0</ele><time>2026-04-04T09:12:50.808Z</time></trkpt><trkpt lat="42.91176" lon="13.5539183"><ele>675.25</ele><time>2026-04-04T09:12:51.808Z</time></trkpt><trkpt lat="42.911825" lon="13.553785"><ele>680.5</ele><time>2026-04-04T09:12:52.809Z</time></trkpt><trkpt lat="42.911885" lon="13.5536517"><ele>685.75</ele><time>2026-04-04T09:12:53.808Z</time></trkpt><trkpt lat="42.9119483" lon="13.5535233"><ele>691.0</ele><time>2026-04-04T09:12:54.809Z</time></trkpt><trkpt lat="42.9120283" lon="13.5534067"><ele>691.0</ele><time>2026-04-04T09:12:55.808Z</time></trkpt><trkpt lat="42.9121117" lon="13.5532817"><ele>691.0</ele><time>2026-04-04T09:12:56.808Z</time></trkpt><trkpt lat="42.9121883" lon="13.5531583"><ele>691.0</ele><time>2026-04-04T09:12:57.808Z</time></trkpt><trkpt lat="42.9122717" lon="13.5530483"><ele>691.0</ele><time>2026-04-04T09:12:58.808Z</time></trkpt><trkpt lat="42.9123683" lon="13.5529583"><ele>691.0</ele><time>2026-04-04T09:12:59.808Z</time></trkpt><trkpt lat="42.9124567" lon="13.5528817"><ele>691.0</ele><time>2026-04-04T09:13:00.808Z</time></trkpt><trkpt lat="42.9125433" lon="13.5528083"><ele>691.0</ele><time>2026-04-04T09:13:01.808Z</time></trkpt><trkpt lat="42.9126283" lon="13.55272"><ele>691.0</ele><time>2026-04-04T09:13:02.808Z</time></trkpt><trkpt lat="42.912705" lon="13.5526267"><ele>691.0</ele><time>2026-04-04T09:13:03.809Z</time></trkpt><trkpt lat="42.91278" lon="13.5525283"><ele>694.0</ele><time>2026-04-04T09:13:04.808Z</time></trkpt><trkpt lat="42.9128533" lon="13.5524267"><ele>697.0</ele><time>2026-04-04T09:13:05.808Z</time></trkpt><trkpt lat="42.912925" lon="13.5523233"><ele>700.0</ele><time>2026-04-04T09:13:06.808Z</time></trkpt><trkpt lat="42.9130017" lon="13.5522233"><ele>703.0</ele><time>2026-04-04T09:13:07.808Z</time></trkpt><trkpt lat="42.9130733" lon="13.5521183"><ele>706.0</ele><time>2026-04-04T09:13:08.808Z</time></trkpt><trkpt lat="42.91315" lon="13.5520117"><ele>706.0</ele><time>2026-04-04T09:13:09.809Z</time></trkpt><trkpt lat="42.9132233" lon="13.5518967"><ele>706.0</ele><time>2026-04-04T09:13:10.808Z</time></trkpt><trkpt lat="42.913295" lon="13.5517817"><ele>706.0</ele><time>2026-04-04T09:13:11.809Z</time></trkpt><trkpt lat="42.9133667" lon="13.5516683"><ele>706.0</ele><time>2026-04-04T09:13:12.809Z</time></trkpt><trkpt lat="42.91343" lon="13.55155"><ele>706.0</ele><time>2026-04-04T09:13:13.808Z</time></trkpt><trkpt lat="42.9134833" lon="13.5514183"><ele>709.0</ele><time>2026-04-04T09:13:14.809Z</time></trkpt><trkpt lat="42.913525" lon="13.5513117"><ele>712.0</ele><time>2026-04-04T09:13:15.808Z</time></trkpt><trkpt lat="42.9135717" lon="13.5512133"><ele>715.0</ele><time>2026-04-04T09:13:16.808Z</time></trkpt><trkpt lat="42.913635" lon="13.5511383"><ele>718.0</ele><time>2026-04-04T09:13:17.808Z</time></trkpt><trkpt lat="42.9137117" lon="13.5510883"><ele>721.0</ele><time>2026-04-04T09:13:18.808Z</time></trkpt><trkpt lat="42.9138133" lon="13.5510567"><ele>724.0</ele><time>2026-04-04T09:13:19.809Z</time></trkpt><trkpt lat="42.9139267" lon="13.5510267"><ele>724.0</ele><time>2026-04-04T09:13:20.808Z</time></trkpt><trkpt lat="42.9140317" lon="13.5509817"><ele>724.0</ele><time>2026-04-04T09:13:21.809Z</time></trkpt><trkpt lat="42.91413" lon="13.550935"><ele>724.0</ele><time>2026-04-04T09:13:22.808Z</time></trkpt><trkpt lat="42.9142233" lon="13.5508683"><ele>724.0</ele><time>2026-04-04T09:13:23.809Z</time></trkpt><trkpt lat="42.9143183" lon="13.550795"><ele>724.0</ele><time>2026-04-04T09:13:24.808Z</time></trkpt><trkpt lat="42.91442" lon="13.55075"><ele>729.6</ele><time>2026-04-04T09:13:25.808Z</time></trkpt><trkpt lat="42.91452" lon="13.55072"><ele>735.2</ele><time>2026-04-04T09:13:26.808Z</time></trkpt><trkpt lat="42.9146183" lon="13.5506967"><ele>740.8000000000001</ele><time>2026-04-04T09:13:27.808Z</time></trkpt><trkpt lat="42.9147183" lon="13.550675"><ele>746.4000000000001</ele><time>2026-04-04T09:13:28.808Z</time></trkpt><trkpt lat="42.914815" lon="13.5506333"><ele>752.0</ele><time>2026-04-04T09:13:29.809Z</time></trkpt><trkpt lat="42.91491" lon="13.5505783"><ele>752.0</ele><time>2026-04-04T09:13:30.809Z</time></trkpt><trkpt lat="42.9149967" lon="13.5505117"><ele>752.0</ele><time>2026-04-04T09:13:31.808Z</time></trkpt><trkpt lat="42.915085" lon="13.5504383"><ele>752.0</ele><time>2026-04-04T09:13:32.808Z</time></trkpt><trkpt lat="42.9151683" lon="13.550355"><ele>752.0</ele><time>2026-04-04T09:13:33.808Z</time></trkpt><trkpt lat="42.9152617" lon="13.550285"><ele>752.0</ele><time>2026-04-04T09:13:34.808Z</time></trkpt><trkpt lat="42.915345" lon="13.5502083"><ele>753.6</ele><time>2026-04-04T09:13:35.808Z</time></trkpt><trkpt lat="42.9154317" lon="13.5501233"><ele>755.2</ele><time>2026-04-04T09:13:36.808Z</time></trkpt><trkpt lat="42.91552" lon="13.5500167"><ele>756.8</ele><time>2026-04-04T09:13:37.808Z</time></trkpt><trkpt lat="42.91559" lon="13.5498983"><ele>758.4</ele><time>2026-04-04T09:13:38.808Z</time></trkpt><trkpt lat="42.915645" lon="13.5497883"><ele>760.0</ele><time>2026-04-04T09:13:39.809Z</time></trkpt><trkpt lat="42.9156733" lon="13.5496667"><ele>760.0</ele><time>2026-04-04T09:13:40.809Z</time></trkpt><trkpt lat="42.9156967" lon="13.5495433"><ele>760.0</ele><time>2026-04-04T09:13:41.809Z</time></trkpt><trkpt lat="42.915715" lon="13.549425"><ele>760.0</ele><time>2026-04-04T09:13:42.808Z</time></trkpt><trkpt lat="42.9157383" lon="13.5493183"><ele>760.0</ele><time>2026-04-04T09:13:43.808Z</time></trkpt><trkpt lat="42.9157717" lon="13.5492333"><ele>760.0</ele><time>2026-04-04T09:13:44.809Z</time></trkpt><trkpt lat="42.91586" lon="13.5491233"><ele>757.25</ele><time>2026-04-04T09:13:46.808Z</time></trkpt><trkpt lat="42.915975" lon="13.549085"><ele>754.5</ele><time>2026-04-04T09:13:48.808Z</time></trkpt><trkpt lat="42.9160917" lon="13.549085"><ele>751.75</ele><time>2026-04-04T09:13:50.809Z</time></trkpt><trkpt lat="42.9162233" lon="13.549095"><ele>749.0</ele><time>2026-04-04T09:13:52.808Z</time></trkpt><trkpt lat="42.9163067" lon="13.549095"><ele>749.0</ele><time>2026-04-04T09:13:53.808Z</time></trkpt><trkpt lat="42.9163917" lon="13.5490817"><ele>749.0</ele><time>2026-04-04T09:13:54.809Z</time></trkpt><trkpt lat="42.91648" lon="13.5490683"><ele>749.0</ele><time>2026-04-04T09:13:55.809Z</time></trkpt><trkpt lat="42.9165667" lon="13.5490333"><ele>749.0</ele><time>2026-04-04T09:13:56.808Z</time></trkpt><trkpt lat="42.91665" lon="13.5489867"><ele>749.0</ele><time>2026-04-04T09:13:57.809Z</time></trkpt><trkpt lat="42.9167267" lon="13.548935"><ele>749.0</ele><time>2026-04-04T09:13:58.808Z</time></trkpt><trkpt lat="42.9168167" lon="13.5488717"><ele>750.0</ele><time>2026-04-04T09:13:59.809Z</time></trkpt><trkpt lat="42.9169083" lon="13.548795"><ele>751.0</ele><time>2026-04-04T09:14:00.808Z</time></trkpt><trkpt lat="42.9169967" lon="13.5487267"><ele>752.0</ele><time>2026-04-04T09:14:01.808Z</time></trkpt><trkpt lat="42.917075" lon="13.548665"><ele>753.0</ele><time>2026-04-04T09:14:02.808Z</time></trkpt><trkpt lat="42.9171367" lon="13.5485933"><ele>754.0</ele><time>2026-04-04T09:14:03.809Z</time></trkpt><trkpt lat="42.917185" lon="13.54849"><ele>750.5</ele><time>2026-04-04T09:14:04.808Z</time></trkpt><trkpt lat="42.91721" lon="13.5483783"><ele>747.0</ele><time>2026-04-04T09:14:05.808Z</time></trkpt><trkpt lat="42.917215" lon="13.5482617"><ele>743.5</ele><time>2026-04-04T09:14:06.809Z</time></trkpt><trkpt lat="42.9172117" lon="13.5481483"><ele>740.0</ele><time>2026-04-04T09:14:07.809Z</time></trkpt><trkpt lat="42.9171983" lon="13.5480367"><ele>736.5</ele><time>2026-04-04T09:14:08.809Z</time></trkpt><trkpt lat="42.9171733" lon="13.54793"><ele>733.0</ele><time>2026-04-04T09:14:09.809Z</time></trkpt><trkpt lat="42.9171283" lon="13.54783"><ele>729.8</ele><time>2026-04-04T09:14:10.808Z</time></trkpt><trkpt lat="42.91707" lon="13.547755"><ele>726.5999999999999</ele><time>2026-04-04T09:14:11.809Z</time></trkpt><trkpt lat="42.916995" lon="13.547715"><ele>723.4000000000001</ele><time>2026-04-04T09:14:12.808Z</time></trkpt><trkpt lat="42.9169083" lon="13.5477133"><ele>720.2</ele><time>2026-04-04T09:14:13.808Z</time></trkpt><trkpt lat="42.91681" lon="13.5477333"><ele>717.0</ele><time>2026-04-04T09:14:14.809Z</time></trkpt><trkpt lat="42.9167" lon="13.5477617"><ele>716.0</ele><time>2026-04-04T09:14:15.808Z</time></trkpt><trkpt lat="42.9166017" lon="13.54778"><ele>715.0</ele><time>2026-04-04T09:14:16.808Z</time></trkpt><trkpt lat="42.9165067" lon="13.547785"><ele>714.0</ele><time>2026-04-04T09:14:17.808Z</time></trkpt><trkpt lat="42.91643" lon="13.5477733"><ele>713.0</ele><time>2026-04-04T09:14:18.809Z</time></trkpt><trkpt lat="42.9163683" lon="13.5477283"><ele>712.0</ele><time>2026-04-04T09:14:19.808Z</time></trkpt><trkpt lat="42.9163217" lon="13.5476517"><ele>711.0</ele><time>2026-04-04T09:14:20.808Z</time></trkpt><trkpt lat="42.9163133" lon="13.5475383"><ele>711.0</ele><time>2026-04-04T09:14:21.809Z</time></trkpt><trkpt lat="42.9163233" lon="13.5474067"><ele>711.0</ele><time>2026-04-04T09:14:22.809Z</time></trkpt><trkpt lat="42.9163483" lon="13.547275"><ele>711.0</ele><time>2026-04-04T09:14:23.808Z</time></trkpt><trkpt lat="42.9163733" lon="13.54714"><ele>711.0</ele><time>2026-04-04T09:14:24.808Z</time></trkpt><trkpt lat="42.91639" lon="13.5470067"><ele>711.0</ele><time>2026-04-04T09:14:25.809Z</time></trkpt><trkpt lat="42.9164167" lon="13.5468717"><ele>709.1999999999999</ele><time>2026-04-04T09:14:26.808Z</time></trkpt><trkpt lat="42.916445" lon="13.54675"><ele>707.4</ele><time>2026-04-04T09:14:27.808Z</time></trkpt><trkpt lat="42.9164683" lon="13.5466233"><ele>705.6</ele><time>2026-04-04T09:14:28.809Z</time></trkpt><trkpt lat="42.9164867" lon="13.5464967"><ele>703.8</ele><time>2026-04-04T09:14:29.808Z</time></trkpt><trkpt lat="42.916495" lon="13.5463717"><ele>702.0</ele><time>2026-04-04T09:14:30.808Z</time></trkpt><trkpt lat="42.91651" lon="13.5462417"><ele>699.5</ele><time>2026-04-04T09:14:31.809Z</time></trkpt><trkpt lat="42.9165183" lon="13.5461167"><ele>697.0</ele><time>2026-04-04T09:14:32.808Z</time></trkpt><trkpt lat="42.9165283" lon="13.5459867"><ele>694.5</ele><time>2026-04-04T09:14:33.808Z</time></trkpt><trkpt lat="42.9165433" lon="13.54587"><ele>692.0</ele><time>2026-04-04T09:14:34.809Z</time></trkpt><trkpt lat="42.9165617" lon="13.5457533"><ele>689.5</ele><time>2026-04-04T09:14:35.808Z</time></trkpt><trkpt lat="42.9165917" lon="13.5456417"><ele>687.0</ele><time>2026-04-04T09:14:36.809Z</time></trkpt><trkpt lat="42.9166333" lon="13.5455367"><ele>687.0</ele><time>2026-04-04T09:14:37.809Z</time></trkpt><trkpt lat="42.9166983" lon="13.54545"><ele>687.0</ele><time>2026-04-04T09:14:38.808Z</time></trkpt><trkpt lat="42.916775" lon="13.5453783"><ele>687.0</ele><time>2026-04-04T09:14:39.808Z</time></trkpt><trkpt lat="42.9168517" lon="13.54531"><ele>687.0</ele><time>2026-04-04T09:14:40.808Z</time></trkpt><trkpt lat="42.9169233" lon="13.545225"><ele>687.0</ele><time>2026-04-04T09:14:41.808Z</time></trkpt><trkpt lat="42.9169883" lon="13.5451267"><ele>685.5</ele><time>2026-04-04T09:14:42.808Z</time></trkpt><trkpt lat="42.917035" lon="13.5450083"><ele>684.0</ele><time>2026-04-04T09:14:43.808Z</time></trkpt><trkpt lat="42.9170767" lon="13.54491"><ele>682.5</ele><time>2026-04-04T09:14:44.808Z</time></trkpt><trkpt lat="42.9171133" lon="13.544815"><ele>681.0</ele><time>2026-04-04T09:14:45.808Z</time></trkpt><trkpt lat="42.9171617" lon="13.5446883"><ele>679.5</ele><time>2026-04-04T09:14:47.808Z</time></trkpt><trkpt lat="42.9171833" lon="13.5445917"><ele>678.0</ele><time>2026-04-04T09:14:50.808Z</time></trkpt><trkpt lat="42.9171317" lon="13.5445383"><ele>676.1666666666666</ele><time>2026-04-04T09:14:52.808Z</time></trkpt><trkpt lat="42.9170417" lon="13.54451"><ele>674.3333333333334</ele><time>2026-04-04T09:14:54.809Z</time></trkpt><trkpt lat="42.9169583" lon="13.5444533"><ele>672.5</ele><time>2026-04-04T09:14:56.808Z</time></trkpt><trkpt lat="42.9169183" lon="13.54437"><ele>670.6666666666667</ele><time>2026-04-04T09:14:58.807Z</time></trkpt><trkpt lat="42.9168967" lon="13.5442467"><ele>668.8333333333334</ele><time>2026-04-04T09:15:01.808Z</time></trkpt><trkpt lat="42.9168383" lon="13.5442067"><ele>667.0</ele><time>2026-04-04T09:15:04.808Z</time></trkpt><trkpt lat="42.9168033" lon="13.5441217"><ele>667.0</ele><time>2026-04-04T09:16:58.807Z</time></trkpt><trkpt lat="42.91679" lon="13.5440067"><ele>667.0</ele><time>2026-04-04T09:17:01.807Z</time></trkpt><trkpt lat="42.9167433" lon="13.5439"><ele>667.0</ele><time>2026-04-04T09:17:03.808Z</time></trkpt><trkpt lat="42.9166967" lon="13.5437767"><ele>667.0</ele><time>2026-04-04T09:17:05.807Z</time></trkpt><trkpt lat="42.9166667" lon="13.5436333"><ele>667.0</ele><time>2026-04-04T09:17:07.807Z</time></trkpt><trkpt lat="42.916635" lon="13.5434767"><ele>664.5</ele><time>2026-04-04T09:17:09.807Z</time></trkpt><trkpt lat="42.9165917" lon="13.5433283"><ele>662.0</ele><time>2026-04-04T09:17:11.808Z</time></trkpt><trkpt lat="42.91656" lon="13.5432117"><ele>659.5</ele><time>2026-04-04T09:17:13.807Z</time></trkpt><trkpt lat="42.9165317" lon="13.5431217"><ele>657.0</ele><time>2026-04-04T09:17:15.808Z</time></trkpt><trkpt lat="42.9165117" lon="13.5430367"><ele>654.5</ele><time>2026-04-04T09:17:18.808Z</time></trkpt><trkpt lat="42.9165083" lon="13.54295"><ele>652.0</ele><time>2026-04-04T09:17:21.807Z</time></trkpt><trkpt lat="42.916475" lon="13.5428633"><ele>652.0</ele><time>2026-04-04T09:17:25.807Z</time></trkpt><trkpt lat="42.9164067" lon="13.5428317"><ele>652.0</ele><time>2026-04-04T09:17:41.808Z</time></trkpt><trkpt lat="42.9163133" lon="13.5428517"><ele>652.0</ele><time>2026-04-04T09:17:44.807Z</time></trkpt><trkpt lat="42.916235" lon="13.542865"><ele>652.0</ele><time>2026-04-04T09:17:46.807Z</time></trkpt><trkpt lat="42.9161533" lon="13.5428767"><ele>652.0</ele><time>2026-04-04T09:17:48.807Z</time></trkpt><trkpt lat="42.91607" lon="13.5428917"><ele>652.0</ele><time>2026-04-04T09:17:50.808Z</time></trkpt><trkpt lat="42.9159733" lon="13.5428917"><ele>651.0</ele><time>2026-04-04T09:17:52.807Z</time></trkpt><trkpt lat="42.9158683" lon="13.5429133"><ele>650.0</ele><time>2026-04-04T09:17:54.807Z</time></trkpt><trkpt lat="42.9157567" lon="13.54291"><ele>649.0</ele><time>2026-04-04T09:17:56.808Z</time></trkpt><trkpt lat="42.91565" lon="13.5429033"><ele>648.0</ele><time>2026-04-04T09:17:58.808Z</time></trkpt><trkpt lat="42.9155417" lon="13.5429"><ele>647.0</ele><time>2026-04-04T09:18:00.807Z</time></trkpt><trkpt lat="42.915445" lon="13.5428733"><ele>645.2</ele><time>2026-04-04T09:18:02.807Z</time></trkpt><trkpt lat="42.9153333" lon="13.5428467"><ele>643.4000000000001</ele><time>2026-04-04T09:18:04.807Z</time></trkpt><trkpt lat="42.91527" lon="13.5428333"><ele>641.5999999999999</ele><time>2026-04-04T09:18:05.808Z</time></trkpt><trkpt lat="42.9152033" lon="13.542825"><ele>639.8</ele><time>2026-04-04T09:18:06.807Z</time></trkpt><trkpt lat="42.915095" lon="13.542775"><ele>638.0</ele><time>2026-04-04T09:18:08.808Z</time></trkpt><trkpt lat="42.9149867" lon="13.54274"><ele>636.6666666666666</ele><time>2026-04-04T09:18:10.807Z</time></trkpt><trkpt lat="42.9148883" lon="13.5427333"><ele>635.3333333333333</ele><time>2026-04-04T09:18:12.807Z</time></trkpt><trkpt lat="42.9148267" lon="13.542705"><ele>634.0</ele><time>2026-04-04T09:18:14.807Z</time></trkpt><trkpt lat="42.914755" lon="13.5426517"><ele>632.6666666666666</ele><time>2026-04-04T09:18:17.807Z</time></trkpt><trkpt lat="42.9146767" lon="13.5426067"><ele>631.3333333333334</ele><time>2026-04-04T09:18:20.807Z</time></trkpt><trkpt lat="42.9146233" lon="13.5426833"><ele>630.0</ele><time>2026-04-04T09:18:24.808Z</time></trkpt><trkpt lat="42.914645" lon="13.5427833"><ele>630.0</ele><time>2026-04-04T09:18:26.808Z</time></trkpt><trkpt lat="42.914745" lon="13.5428683"><ele>630.0</ele><time>2026-04-04T09:18:28.807Z</time></trkpt><trkpt lat="42.9148183" lon="13.5429233"><ele>630.0</ele><time>2026-04-04T09:18:29.808Z</time></trkpt><trkpt lat="42.9148867" lon="13.5430033"><ele>630.0</ele><time>2026-04-04T09:18:30.807Z</time></trkpt><trkpt lat="42.9149533" lon="13.5431017"><ele>630.0</ele><time>2026-04-04T09:18:31.808Z</time></trkpt><trkpt lat="42.9150417" lon="13.54324"><ele>632.8333333333334</ele><time>2026-04-04T09:18:32.807Z</time></trkpt><trkpt lat="42.9151" lon="13.543355"><ele>635.6666666666666</ele><time>2026-04-04T09:18:33.807Z</time></trkpt><trkpt lat="42.9151367" lon="13.5434533"><ele>638.5</ele><time>2026-04-04T09:18:34.807Z</time></trkpt><trkpt lat="42.91515" lon="13.5435567"><ele>641.3333333333333</ele><time>2026-04-04T09:18:35.807Z</time></trkpt><trkpt lat="42.9151533" lon="13.5436517"><ele>644.1666666666666</ele><time>2026-04-04T09:18:36.807Z</time></trkpt><trkpt lat="42.91514" lon="13.5437967"><ele>647.0</ele><time>2026-04-04T09:18:38.807Z</time></trkpt><trkpt lat="42.91512" lon="13.543925"><ele>647.6</ele><time>2026-04-04T09:18:40.807Z</time></trkpt><trkpt lat="42.9150483" lon="13.544025"><ele>648.2</ele><time>2026-04-04T09:18:43.807Z</time></trkpt><trkpt lat="42.91493" lon="13.5441067"><ele>648.8</ele><time>2026-04-04T09:18:45.807Z</time></trkpt><trkpt lat="42.9148667" lon="13.544185"><ele>649.4</ele><time>2026-04-04T09:18:46.807Z</time></trkpt><trkpt lat="42.9148283" lon="13.5442917"><ele>650.0</ele><time>2026-04-04T09:18:47.807Z</time></trkpt><trkpt lat="42.91482" lon="13.54442"><ele>651.8</ele><time>2026-04-04T09:18:48.807Z</time></trkpt><trkpt lat="42.91483" lon="13.5445633"><ele>653.6</ele><time>2026-04-04T09:18:49.807Z</time></trkpt><trkpt lat="42.9148283" lon="13.5446867"><ele>655.4000000000001</ele><time>2026-04-04T09:18:50.808Z</time></trkpt><trkpt lat="42.9148083" lon="13.5447683"><ele>657.2</ele><time>2026-04-04T09:18:51.807Z</time></trkpt><trkpt lat="42.91469" lon="13.54482"><ele>659.0</ele><time>2026-04-04T09:18:53.807Z</time></trkpt><trkpt lat="42.9146183" lon="13.5447867"><ele>659.0</ele><time>2026-04-04T09:18:54.807Z</time></trkpt><trkpt lat="42.9145417" lon="13.5447267"><ele>659.0</ele><time>2026-04-04T09:18:55.807Z</time></trkpt><trkpt lat="42.9144617" lon="13.5445733"><ele>659.0</ele><time>2026-04-04T09:18:56.807Z</time></trkpt><trkpt lat="42.9143933" lon="13.5444167"><ele>659.0</ele><time>2026-04-04T09:18:57.807Z</time></trkpt><trkpt lat="42.914325" lon="13.5442883"><ele>657.2</ele><time>2026-04-04T09:18:58.807Z</time></trkpt><trkpt lat="42.914255" lon="13.5441617"><ele>655.4000000000001</ele><time>2026-04-04T09:18:59.807Z</time></trkpt><trkpt lat="42.9141867" lon="13.5440383"><ele>653.6</ele><time>2026-04-04T09:19:00.807Z</time></trkpt><trkpt lat="42.9141167" lon="13.5439433"><ele>651.8</ele><time>2026-04-04T09:19:01.807Z</time></trkpt><trkpt lat="42.9140417" lon="13.5438883"><ele>650.0</ele><time>2026-04-04T09:19:02.808Z</time></trkpt><trkpt lat="42.913965" lon="13.5438683"><ele>648.8333333333333</ele><time>2026-04-04T09:19:03.807Z</time></trkpt><trkpt lat="42.91389" lon="13.5438833"><ele>647.6666666666666</ele><time>2026-04-04T09:19:04.807Z</time></trkpt><trkpt lat="42.91382" lon="13.5439367"><ele>646.5</ele><time>2026-04-04T09:19:05.808Z</time></trkpt><trkpt lat="42.91377" lon="13.5440017"><ele>645.3333333333334</ele><time>2026-04-04T09:19:06.807Z</time></trkpt><trkpt lat="42.9137433" lon="13.5441117"><ele>644.1666666666667</ele><time>2026-04-04T09:19:07.807Z</time></trkpt><trkpt lat="42.913745" lon="13.5442433"><ele>643.0</ele><time>2026-04-04T09:19:08.807Z</time></trkpt><trkpt lat="42.91377" lon="13.5443867"><ele>643.75</ele><time>2026-04-04T09:19:09.807Z</time></trkpt><trkpt lat="42.9138317" lon="13.54457"><ele>644.5</ele><time>2026-04-04T09:19:10.807Z</time></trkpt><trkpt lat="42.9138633" lon="13.5447567"><ele>645.25</ele><time>2026-04-04T09:19:11.808Z</time></trkpt><trkpt lat="42.9138717" lon="13.5449367"><ele>646.0</ele><time>2026-04-04T09:19:12.807Z</time></trkpt><trkpt lat="42.913865" lon="13.5451117"><ele>646.0</ele><time>2026-04-04T09:19:13.808Z</time></trkpt><trkpt lat="42.913845" lon="13.5452733"><ele>646.0</ele><time>2026-04-04T09:19:14.808Z</time></trkpt><trkpt lat="42.9138167" lon="13.545425"><ele>646.0</ele><time>2026-04-04T09:19:15.807Z</time></trkpt><trkpt lat="42.913785" lon="13.5455767"><ele>646.0</ele><time>2026-04-04T09:19:16.807Z</time></trkpt><trkpt lat="42.91375" lon="13.5457017"><ele>646.0</ele><time>2026-04-04T09:19:17.808Z</time></trkpt><trkpt lat="42.9137133" lon="13.5458117"><ele>647.5</ele><time>2026-04-04T09:19:18.807Z</time></trkpt><trkpt lat="42.9136833" lon="13.5459017"><ele>649.0</ele><time>2026-04-04T09:19:19.807Z</time></trkpt><trkpt lat="42.9136417" lon="13.5459683"><ele>650.5</ele><time>2026-04-04T09:19:20.807Z</time></trkpt><trkpt lat="42.9135467" lon="13.5460167"><ele>652.0</ele><time>2026-04-04T09:19:22.808Z</time></trkpt><trkpt lat="42.9134783" lon="13.5458617"><ele>653.5</ele><time>2026-04-04T09:19:24.808Z</time></trkpt><trkpt lat="42.9134817" lon="13.54577"><ele>655.0</ele><time>2026-04-04T09:19:25.807Z</time></trkpt><trkpt lat="42.9135067" lon="13.5456667"><ele>655.0</ele><time>2026-04-04T09:19:26.808Z</time></trkpt><trkpt lat="42.9135367" lon="13.545565"><ele>655.0</ele><time>2026-04-04T09:19:27.807Z</time></trkpt><trkpt lat="42.913575" lon="13.5454483"><ele>655.0</ele><time>2026-04-04T09:19:28.807Z</time></trkpt><trkpt lat="42.9136" lon="13.5453317"><ele>655.0</ele><time>2026-04-04T09:19:29.807Z</time></trkpt><trkpt lat="42.9136083" lon="13.545195"><ele>655.0</ele><time>2026-04-04T09:19:30.807Z</time></trkpt><trkpt lat="42.913605" lon="13.54506"><ele>653.2</ele><time>2026-04-04T09:19:31.807Z</time></trkpt><trkpt lat="42.9135967" lon="13.5449217"><ele>651.4</ele><time>2026-04-04T09:19:32.807Z</time></trkpt><trkpt lat="42.9135867" lon="13.5447883"><ele>649.5999999999999</ele><time>2026-04-04T09:19:33.807Z</time></trkpt><trkpt lat="42.913555" lon="13.54466"><ele>647.8</ele><time>2026-04-04T09:19:34.808Z</time></trkpt><trkpt lat="42.913505" lon="13.54455"><ele>646.0</ele><time>2026-04-04T09:19:35.807Z</time></trkpt><trkpt lat="42.9134433" lon="13.5444483"><ele>641.6666666666667</ele><time>2026-04-04T09:19:36.807Z</time></trkpt><trkpt lat="42.91338" lon="13.5443667"><ele>637.3333333333334</ele><time>2026-04-04T09:19:37.808Z</time></trkpt><trkpt lat="42.9133233" lon="13.5442883"><ele>633.0</ele><time>2026-04-04T09:19:38.807Z</time></trkpt><trkpt lat="42.9132633" lon="13.5442017"><ele>628.6666666666666</ele><time>2026-04-04T09:19:39.807Z</time></trkpt><trkpt lat="42.9132117" lon="13.5440933"><ele>624.3333333333333</ele><time>2026-04-04T09:19:40.808Z</time></trkpt><trkpt lat="42.9131817" lon="13.5439717"><ele>620.0</ele><time>2026-04-04T09:19:41.807Z</time></trkpt><trkpt lat="42.91317" lon="13.5438433"><ele>620.4</ele><time>2026-04-04T09:19:42.808Z</time></trkpt><trkpt lat="42.91316" lon="13.5437083"><ele>620.8</ele><time>2026-04-04T09:19:43.807Z</time></trkpt><trkpt lat="42.9131433" lon="13.5435817"><ele>621.2</ele><time>2026-04-04T09:19:44.808Z</time></trkpt><trkpt lat="42.9130983" lon="13.5434617"><ele>621.6</ele><time>2026-04-04T09:19:45.808Z</time></trkpt><trkpt lat="42.913035" lon="13.543365"><ele>622.0</ele><time>2026-04-04T09:19:46.808Z</time></trkpt><trkpt lat="42.9129617" lon="13.54327"><ele>622.0</ele><time>2026-04-04T09:19:47.807Z</time></trkpt><trkpt lat="42.9128867" lon="13.5431983"><ele>622.0</ele><time>2026-04-04T09:19:48.808Z</time></trkpt><trkpt lat="42.912815" lon="13.5431367"><ele>622.0</ele><time>2026-04-04T09:19:49.808Z</time></trkpt><trkpt lat="42.9127467" lon="13.5430583"><ele>622.0</ele><time>2026-04-04T09:19:50.807Z</time></trkpt><trkpt lat="42.9126917" lon="13.5429617"><ele>622.0</ele><time>2026-04-04T09:19:51.808Z</time></trkpt><trkpt lat="42.912655" lon="13.54285"><ele>622.0</ele><time>2026-04-04T09:19:52.808Z</time></trkpt><trkpt lat="42.9126367" lon="13.5427233"><ele>619.3333333333334</ele><time>2026-04-04T09:19:53.807Z</time></trkpt><trkpt lat="42.9126267" lon="13.542595"><ele>616.6666666666667</ele><time>2026-04-04T09:19:54.807Z</time></trkpt><trkpt lat="42.9126267" lon="13.5424733"><ele>614.0</ele><time>2026-04-04T09:19:55.808Z</time></trkpt><trkpt lat="42.912655" lon="13.5423767"><ele>611.3333333333334</ele><time>2026-04-04T09:19:56.807Z</time></trkpt><trkpt lat="42.912715" lon="13.5422967"><ele>608.6666666666666</ele><time>2026-04-04T09:19:57.807Z</time></trkpt><trkpt lat="42.912785" lon="13.5422383"><ele>606.0</ele><time>2026-04-04T09:19:58.808Z</time></trkpt><trkpt lat="42.912865" lon="13.5422267"><ele>606.0</ele><time>2026-04-04T09:19:59.807Z</time></trkpt><trkpt lat="42.912945" lon="13.5422467"><ele>606.0</ele><time>2026-04-04T09:20:00.808Z</time></trkpt><trkpt lat="42.9130233" lon="13.5422833"><ele>606.0</ele><time>2026-04-04T09:20:01.807Z</time></trkpt><trkpt lat="42.9130917" lon="13.5422883"><ele>606.0</ele><time>2026-04-04T09:20:02.807Z</time></trkpt><trkpt lat="42.913155" lon="13.5422417"><ele>606.0</ele><time>2026-04-04T09:20:03.807Z</time></trkpt><trkpt lat="42.91319" lon="13.5420817"><ele>606.0</ele><time>2026-04-04T09:20:05.807Z</time></trkpt><trkpt lat="42.9131467" lon="13.542"><ele>606.0</ele><time>2026-04-04T09:20:06.808Z</time></trkpt><trkpt lat="42.9130817" lon="13.54195"><ele>606.0</ele><time>2026-04-04T09:20:07.807Z</time></trkpt><trkpt lat="42.9129983" lon="13.5419483"><ele>606.0</ele><time>2026-04-04T09:20:08.807Z</time></trkpt><trkpt lat="42.912905" lon="13.5419817"><ele>606.0</ele><time>2026-04-04T09:20:09.807Z</time></trkpt><trkpt lat="42.9127983" lon="13.542035"><ele>606.0</ele><time>2026-04-04T09:20:10.807Z</time></trkpt><trkpt lat="42.91269" lon="13.5420817"><ele>606.0</ele><time>2026-04-04T09:20:11.808Z</time></trkpt><trkpt lat="42.912595" lon="13.54211"><ele>606.0</ele><time>2026-04-04T09:20:12.807Z</time></trkpt><trkpt lat="42.9125083" lon="13.5421133"><ele>606.0</ele><time>2026-04-04T09:20:13.807Z</time></trkpt><trkpt lat="42.912435" lon="13.5420867"><ele>606.0</ele><time>2026-04-04T09:20:14.808Z</time></trkpt><trkpt lat="42.9123733" lon="13.5420267"><ele>606.0</ele><time>2026-04-04T09:20:15.808Z</time></trkpt><trkpt lat="42.912335" lon="13.5419417"><ele>606.0</ele><time>2026-04-04T09:20:16.807Z</time></trkpt><trkpt lat="42.9123133" lon="13.5418467"><ele>603.4</ele><time>2026-04-04T09:20:17.807Z</time></trkpt><trkpt lat="42.9123183" lon="13.5417167"><ele>600.8</ele><time>2026-04-04T09:20:18.807Z</time></trkpt><trkpt lat="42.9123283" lon="13.541575"><ele>598.1999999999999</ele><time>2026-04-04T09:20:19.807Z</time></trkpt><trkpt lat="42.9123433" lon="13.54141"><ele>595.6</ele><time>2026-04-04T09:20:20.808Z</time></trkpt><trkpt lat="42.9123567" lon="13.5412467"><ele>593.0</ele><time>2026-04-04T09:20:21.808Z</time></trkpt><trkpt lat="42.912365" lon="13.54109"><ele>590.4</ele><time>2026-04-04T09:20:22.808Z</time></trkpt><trkpt lat="42.912375" lon="13.5409483"><ele>587.8</ele><time>2026-04-04T09:20:23.808Z</time></trkpt><trkpt lat="42.9123733" lon="13.5408117"><ele>585.2</ele><time>2026-04-04T09:20:24.808Z</time></trkpt><trkpt lat="42.912345" lon="13.5406783"><ele>582.6</ele><time>2026-04-04T09:20:25.808Z</time></trkpt><trkpt lat="42.9123067" lon="13.5405433"><ele>580.0</ele><time>2026-04-04T09:20:26.808Z</time></trkpt><trkpt lat="42.9122617" lon="13.5404117"><ele>577.6</ele><time>2026-04-04T09:20:27.807Z</time></trkpt><trkpt lat="42.9122133" lon="13.540285"><ele>575.2</ele><time>2026-04-04T09:20:28.807Z</time></trkpt><trkpt lat="42.9121617" lon="13.5401733"><ele>572.8</ele><time>2026-04-04T09:20:29.807Z</time></trkpt><trkpt lat="42.9121" lon="13.540065"><ele>570.4</ele><time>2026-04-04T09:20:30.807Z</time></trkpt><trkpt lat="42.9120283" lon="13.5399717"><ele>568.0</ele><time>2026-04-04T09:20:31.807Z</time></trkpt><trkpt lat="42.91194" lon="13.5399033"><ele>568.0</ele><time>2026-04-04T09:20:32.807Z</time></trkpt><trkpt lat="42.9118433" lon="13.5398517"><ele>568.0</ele><time>2026-04-04T09:20:33.808Z</time></trkpt><trkpt lat="42.91175" lon="13.5397883"><ele>568.0</ele><time>2026-04-04T09:20:34.807Z</time></trkpt><trkpt lat="42.9116583" lon="13.5397233"><ele>568.0</ele><time>2026-04-04T09:20:35.807Z</time></trkpt><trkpt lat="42.9115817" lon="13.5396433"><ele>568.0</ele><time>2026-04-04T09:20:36.807Z</time></trkpt><trkpt lat="42.9115167" lon="13.5395467"><ele>568.1999999999999</ele><time>2026-04-04T09:20:37.808Z</time></trkpt><trkpt lat="42.9114733" lon="13.5394283"><ele>568.4</ele><time>2026-04-04T09:20:38.807Z</time></trkpt><trkpt lat="42.9114533" lon="13.5392917"><ele>568.5999999999999</ele><time>2026-04-04T09:20:39.807Z</time></trkpt><trkpt lat="42.9114367" lon="13.53915"><ele>568.8</ele><time>2026-04-04T09:20:40.807Z</time></trkpt><trkpt lat="42.9114033" lon="13.5390233"><ele>569.0</ele><time>2026-04-04T09:20:41.807Z</time></trkpt><trkpt lat="42.9113467" lon="13.5389167"><ele>569.0</ele><time>2026-04-04T09:20:42.808Z</time></trkpt><trkpt lat="42.911285" lon="13.53882"><ele>569.0</ele><time>2026-04-04T09:20:43.807Z</time></trkpt><trkpt lat="42.91122" lon="13.5387217"><ele>569.0</ele><time>2026-04-04T09:20:44.807Z</time></trkpt><trkpt lat="42.9111533" lon="13.538615"><ele>569.0</ele><time>2026-04-04T09:20:45.808Z</time></trkpt><trkpt lat="42.911105" lon="13.5385083"><ele>569.0</ele><time>2026-04-04T09:20:46.807Z</time></trkpt><trkpt lat="42.911075" lon="13.538395"><ele>566.5</ele><time>2026-04-04T09:20:47.807Z</time></trkpt><trkpt lat="42.9110767" lon="13.538265"><ele>564.0</ele><time>2026-04-04T09:20:48.807Z</time></trkpt><trkpt lat="42.9110833" lon="13.5381417"><ele>561.5</ele><time>2026-04-04T09:20:49.807Z</time></trkpt><trkpt lat="42.9110783" lon="13.5380267"><ele>559.0</ele><time>2026-04-04T09:20:50.807Z</time></trkpt><trkpt lat="42.9110417" lon="13.53793"><ele>556.5</ele><time>2026-04-04T09:20:51.807Z</time></trkpt><trkpt lat="42.9109833" lon="13.5378617"><ele>554.0</ele><time>2026-04-04T09:20:52.808Z</time></trkpt><trkpt lat="42.91091" lon="13.5378317"><ele>555.2</ele><time>2026-04-04T09:20:53.807Z</time></trkpt><trkpt lat="42.9108167" lon="13.537835"><ele>556.4</ele><time>2026-04-04T09:20:54.808Z</time></trkpt><trkpt lat="42.9107183" lon="13.5378483"><ele>557.6</ele><time>2026-04-04T09:20:55.807Z</time></trkpt><trkpt lat="42.91062" lon="13.5378483"><ele>558.8</ele><time>2026-04-04T09:20:56.807Z</time></trkpt><trkpt lat="42.91052" lon="13.5378317"><ele>560.0</ele><time>2026-04-04T09:20:57.807Z</time></trkpt><trkpt lat="42.9104267" lon="13.5377867"><ele>560.0</ele><time>2026-04-04T09:20:58.808Z</time></trkpt><trkpt lat="42.910335" lon="13.53772"><ele>560.0</ele><time>2026-04-04T09:20:59.808Z</time></trkpt><trkpt lat="42.91026" lon="13.5376367"><ele>560.0</ele><time>2026-04-04T09:21:00.807Z</time></trkpt><trkpt lat="42.910185" lon="13.537555"><ele>560.0</ele><time>2026-04-04T09:21:01.808Z</time></trkpt><trkpt lat="42.9101217" lon="13.5374717"><ele>560.0</ele><time>2026-04-04T09:21:02.807Z</time></trkpt><trkpt lat="42.91008" lon="13.5373733"><ele>560.8</ele><time>2026-04-04T09:21:03.808Z</time></trkpt><trkpt lat="42.910055" lon="13.537265"><ele>561.6</ele><time>2026-04-04T09:21:04.807Z</time></trkpt><trkpt lat="42.91002" lon="13.53715"><ele>562.4</ele><time>2026-04-04T09:21:05.808Z</time></trkpt><trkpt lat="42.9099667" lon="13.53704"><ele>563.2</ele><time>2026-04-04T09:21:06.807Z</time></trkpt><trkpt lat="42.909905" lon="13.5369283"><ele>564.0</ele><time>2026-04-04T09:21:07.808Z</time></trkpt><trkpt lat="42.90982" lon="13.5368333"><ele>564.6</ele><time>2026-04-04T09:21:08.807Z</time></trkpt><trkpt lat="42.9097283" lon="13.5367683"><ele>565.2</ele><time>2026-04-04T09:21:09.808Z</time></trkpt><trkpt lat="42.9096283" lon="13.5367183"><ele>565.8000000000001</ele><time>2026-04-04T09:21:10.807Z</time></trkpt><trkpt lat="42.9095217" lon="13.536675"><ele>566.4</ele><time>2026-04-04T09:21:11.807Z</time></trkpt><trkpt lat="42.90942" lon="13.5366083"><ele>567.0</ele><time>2026-04-04T09:21:12.808Z</time></trkpt><trkpt lat="42.90933" lon="13.536535"><ele>567.0</ele><time>2026-04-04T09:21:13.808Z</time></trkpt><trkpt lat="42.9092533" lon="13.5364433"><ele>567.0</ele><time>2026-04-04T09:21:14.808Z</time></trkpt><trkpt lat="42.90919" lon="13.5363383"><ele>567.0</ele><time>2026-04-04T09:21:15.807Z</time></trkpt><trkpt lat="42.9091317" lon="13.5362167"><ele>567.0</ele><time>2026-04-04T09:21:16.808Z</time></trkpt><trkpt lat="42.9090817" lon="13.5360967"><ele>567.0</ele><time>2026-04-04T09:21:17.807Z</time></trkpt><trkpt lat="42.90903" lon="13.5359683"><ele>565.6</ele><time>2026-04-04T09:21:18.807Z</time></trkpt><trkpt lat="42.9089683" lon="13.535855"><ele>564.2</ele><time>2026-04-04T09:21:19.807Z</time></trkpt><trkpt lat="42.90891" lon="13.5357367"><ele>562.8</ele><time>2026-04-04T09:21:20.807Z</time></trkpt><trkpt lat="42.9088417" lon="13.53562"><ele>561.4</ele><time>2026-04-04T09:21:21.807Z</time></trkpt><trkpt lat="42.90877" lon="13.5355217"><ele>560.0</ele><time>2026-04-04T09:21:22.808Z</time></trkpt><trkpt lat="42.9086883" lon="13.5354433"><ele>561.0</ele><time>2026-04-04T09:21:23.807Z</time></trkpt><trkpt lat="42.9086017" lon="13.5353717"><ele>562.0</ele><time>2026-04-04T09:21:24.808Z</time></trkpt><trkpt lat="42.9085167" lon="13.5353017"><ele>563.0</ele><time>2026-04-04T09:21:25.808Z</time></trkpt><trkpt lat="42.908435" lon="13.5352317"><ele>564.0</ele><time>2026-04-04T09:21:26.808Z</time></trkpt><trkpt lat="42.9083533" lon="13.53515"><ele>565.0</ele><time>2026-04-04T09:21:27.807Z</time></trkpt><trkpt lat="42.908275" lon="13.535075"><ele>562.6</ele><time>2026-04-04T09:21:28.807Z</time></trkpt><trkpt lat="42.908195" lon="13.5350133"><ele>560.2</ele><time>2026-04-04T09:21:29.808Z</time></trkpt><trkpt lat="42.9081067" lon="13.5349583"><ele>557.8</ele><time>2026-04-04T09:21:30.807Z</time></trkpt><trkpt lat="42.9080217" lon="13.5349183"><ele>555.4</ele><time>2026-04-04T09:21:31.807Z</time></trkpt><trkpt lat="42.9079267" lon="13.5348867"><ele>553.0</ele><time>2026-04-04T09:21:32.807Z</time></trkpt><trkpt lat="42.9078367" lon="13.5348583"><ele>553.0</ele><time>2026-04-04T09:21:33.808Z</time></trkpt><trkpt lat="42.90775" lon="13.5348233"><ele>553.0</ele><time>2026-04-04T09:21:34.807Z</time></trkpt><trkpt lat="42.90766" lon="13.5347917"><ele>553.0</ele><time>2026-04-04T09:21:35.808Z</time></trkpt><trkpt lat="42.9075733" lon="13.5347567"><ele>553.0</ele><time>2026-04-04T09:21:36.807Z</time></trkpt><trkpt lat="42.9074817" lon="13.5347367"><ele>553.0</ele><time>2026-04-04T09:21:37.807Z</time></trkpt><trkpt lat="42.9073833" lon="13.5347267"><ele>550.0</ele><time>2026-04-04T09:21:38.807Z</time></trkpt><trkpt lat="42.9072783" lon="13.5347383"><ele>547.0</ele><time>2026-04-04T09:21:39.807Z</time></trkpt><trkpt lat="42.90717" lon="13.53477"><ele>544.0</ele><time>2026-04-04T09:21:40.807Z</time></trkpt><trkpt lat="42.9070633" lon="13.5348"><ele>541.0</ele><time>2026-04-04T09:21:41.807Z</time></trkpt><trkpt lat="42.90696" lon="13.534835"><ele>538.0</ele><time>2026-04-04T09:21:42.808Z</time></trkpt><trkpt lat="42.9068617" lon="13.5348633"><ele>538.0</ele><time>2026-04-04T09:21:43.807Z</time></trkpt><trkpt lat="42.9067617" lon="13.5348883"><ele>538.0</ele><time>2026-04-04T09:21:44.808Z</time></trkpt><trkpt lat="42.9066617" lon="13.5349233"><ele>538.0</ele><time>2026-04-04T09:21:45.807Z</time></trkpt><trkpt lat="42.9065617" lon="13.5349533"><ele>538.0</ele><time>2026-04-04T09:21:46.807Z</time></trkpt><trkpt lat="42.90646" lon="13.5349867"><ele>538.0</ele><time>2026-04-04T09:21:47.807Z</time></trkpt><trkpt lat="42.906365" lon="13.5350183"><ele>538.1666666666667</ele><time>2026-04-04T09:21:48.808Z</time></trkpt><trkpt lat="42.9062833" lon="13.5350117"><ele>538.3333333333334</ele><time>2026-04-04T09:21:49.807Z</time></trkpt><trkpt lat="42.9062033" lon="13.534975"><ele>538.5</ele><time>2026-04-04T09:21:50.807Z</time></trkpt><trkpt lat="42.9061567" lon="13.5348833"><ele>538.6666666666666</ele><time>2026-04-04T09:21:51.807Z</time></trkpt><trkpt lat="42.9061267" lon="13.5347683"><ele>538.8333333333333</ele><time>2026-04-04T09:21:52.807Z</time></trkpt><trkpt lat="42.906115" lon="13.534635"><ele>539.0</ele><time>2026-04-04T09:21:53.808Z</time></trkpt><trkpt lat="42.9061167" lon="13.5344967"><ele>542.6</ele><time>2026-04-04T09:21:54.807Z</time></trkpt><trkpt lat="42.9061133" lon="13.5343567"><ele>546.2</ele><time>2026-04-04T09:21:55.807Z</time></trkpt><trkpt lat="42.9061033" lon="13.53422"><ele>549.8000000000001</ele><time>2026-04-04T09:21:56.807Z</time></trkpt><trkpt lat="42.9060783" lon="13.534095"><ele>553.4</ele><time>2026-04-04T09:21:57.808Z</time></trkpt><trkpt lat="42.9060267" lon="13.5339917"><ele>557.0</ele><time>2026-04-04T09:21:58.808Z</time></trkpt><trkpt lat="42.9059567" lon="13.5339133"><ele>551.0</ele><time>2026-04-04T09:21:59.807Z</time></trkpt><trkpt lat="42.90587" lon="13.5338567"><ele>545.0</ele><time>2026-04-04T09:22:00.808Z</time></trkpt><trkpt lat="42.9057633" lon="13.5338333"><ele>539.0</ele><time>2026-04-04T09:22:01.807Z</time></trkpt><trkpt lat="42.9056483" lon="13.5338233"><ele>533.0</ele><time>2026-04-04T09:22:02.807Z</time></trkpt><trkpt lat="42.905535" lon="13.53381"><ele>527.0</ele><time>2026-04-04T09:22:03.808Z</time></trkpt><trkpt lat="42.90544" lon="13.5337833"><ele>527.0</ele><time>2026-04-04T09:22:04.807Z</time></trkpt><trkpt lat="42.90534" lon="13.53375"><ele>527.0</ele><time>2026-04-04T09:22:05.807Z</time></trkpt><trkpt lat="42.905235" lon="13.5337367"><ele>527.0</ele><time>2026-04-04T09:22:06.806Z</time></trkpt><trkpt lat="42.905125" lon="13.53374"><ele>527.0</ele><time>2026-04-04T09:22:07.806Z</time></trkpt><trkpt lat="42.9050117" lon="13.5337567"><ele>527.0</ele><time>2026-04-04T09:22:08.807Z</time></trkpt><trkpt lat="42.9049017" lon="13.5337867"><ele>524.0</ele><time>2026-04-04T09:22:09.806Z</time></trkpt><trkpt lat="42.9048033" lon="13.5338283"><ele>521.0</ele><time>2026-04-04T09:22:10.806Z</time></trkpt><trkpt lat="42.9047083" lon="13.5338667"><ele>518.0</ele><time>2026-04-04T09:22:11.807Z</time></trkpt><trkpt lat="42.9046117" lon="13.5339117"><ele>515.0</ele><time>2026-04-04T09:22:12.806Z</time></trkpt><trkpt lat="42.9045183" lon="13.5339533"><ele>512.0</ele><time>2026-04-04T09:22:13.807Z</time></trkpt><trkpt lat="42.904435" lon="13.5339967"><ele>511.99999999999994</ele><time>2026-04-04T09:22:14.807Z</time></trkpt><trkpt lat="42.9043583" lon="13.5340267"><ele>512.0</ele><time>2026-04-04T09:22:15.806Z</time></trkpt><trkpt lat="42.9042817" lon="13.5340283"><ele>512.0</ele><time>2026-04-04T09:22:16.806Z</time></trkpt><trkpt lat="42.9042083" lon="13.5339967"><ele>512.0</ele><time>2026-04-04T09:22:17.807Z</time></trkpt><trkpt lat="42.9041633" lon="13.5339133"><ele>511.99999999999994</ele><time>2026-04-04T09:22:18.806Z</time></trkpt><trkpt lat="42.9041217" lon="13.53381"><ele>512.0</ele><time>2026-04-04T09:22:19.807Z</time></trkpt><trkpt lat="42.90408" lon="13.5337067"><ele>510.99999999999994</ele><time>2026-04-04T09:22:20.807Z</time></trkpt><trkpt lat="42.90404" lon="13.5336067"><ele>510.0</ele><time>2026-04-04T09:22:21.806Z</time></trkpt><trkpt lat="42.904015" lon="13.5335117"><ele>509.0</ele><time>2026-04-04T09:22:22.806Z</time></trkpt><trkpt lat="42.90403" lon="13.5334117"><ele>508.0</ele><time>2026-04-04T09:22:23.806Z</time></trkpt><trkpt lat="42.9040783" lon="13.5333217"><ele>506.99999999999994</ele><time>2026-04-04T09:22:24.806Z</time></trkpt><trkpt lat="42.9041467" lon="13.53323"><ele>506.0</ele><time>2026-04-04T09:22:25.806Z</time></trkpt><trkpt lat="42.9042183" lon="13.5331367"><ele>512.8</ele><time>2026-04-04T09:22:26.806Z</time></trkpt><trkpt lat="42.9042767" lon="13.533035"><ele>519.6</ele><time>2026-04-04T09:22:27.806Z</time></trkpt><trkpt lat="42.9043367" lon="13.5329317"><ele>526.4</ele><time>2026-04-04T09:22:28.806Z</time></trkpt><trkpt lat="42.9043933" lon="13.5328267"><ele>533.2</ele><time>2026-04-04T09:22:29.806Z</time></trkpt><trkpt lat="42.9044383" lon="13.532715"><ele>540.0</ele><time>2026-04-04T09:22:30.807Z</time></trkpt><trkpt lat="42.9044717" lon="13.5325867"><ele>540.8</ele><time>2026-04-04T09:22:31.806Z</time></trkpt><trkpt lat="42.90449" lon="13.5324583"><ele>541.6</ele><time>2026-04-04T09:22:32.806Z</time></trkpt><trkpt lat="42.9045083" lon="13.532325"><ele>542.4</ele><time>2026-04-04T09:22:33.806Z</time></trkpt><trkpt lat="42.904515" lon="13.5321933"><ele>543.2</ele><time>2026-04-04T09:22:34.806Z</time></trkpt><trkpt lat="42.9045067" lon="13.532055"><ele>544.0</ele><time>2026-04-04T09:22:35.806Z</time></trkpt><trkpt lat="42.904495" lon="13.53192"><ele>544.0</ele><time>2026-04-04T09:22:36.807Z</time></trkpt><trkpt lat="42.904465" lon="13.5317817"><ele>544.0</ele><time>2026-04-04T09:22:37.807Z</time></trkpt><trkpt lat="42.9044333" lon="13.531645"><ele>544.0</ele><time>2026-04-04T09:22:38.807Z</time></trkpt><trkpt lat="42.9044" lon="13.5315133"><ele>544.0</ele><time>2026-04-04T09:22:39.807Z</time></trkpt><trkpt lat="42.9043667" lon="13.5313817"><ele>544.0</ele><time>2026-04-04T09:22:40.807Z</time></trkpt><trkpt lat="42.90433" lon="13.5312583"><ele>541.8</ele><time>2026-04-04T09:22:41.807Z</time></trkpt><trkpt lat="42.904295" lon="13.531135"><ele>539.5999999999999</ele><time>2026-04-04T09:22:42.806Z</time></trkpt><trkpt lat="42.904265" lon="13.5310117"><ele>537.4</ele><time>2026-04-04T09:22:43.806Z</time></trkpt><trkpt lat="42.904235" lon="13.530885"><ele>535.1999999999999</ele><time>2026-04-04T09:22:44.807Z</time></trkpt><trkpt lat="42.9042033" lon="13.5307633"><ele>533.0</ele><time>2026-04-04T09:22:45.806Z</time></trkpt><trkpt lat="42.904175" lon="13.53065"><ele>526.8</ele><time>2026-04-04T09:22:46.807Z</time></trkpt><trkpt lat="42.9041376" lon="13.5305391"><ele>520.5999999999999</ele><time>2026-04-04T09:22:47.806Z</time></trkpt><trkpt lat="42.9040917" lon="13.5304324"><ele>514.4000000000001</ele><time>2026-04-04T09:22:48.807Z</time></trkpt><trkpt lat="42.9040349" lon="13.5303307"><ele>508.20000000000005</ele><time>2026-04-04T09:22:49.806Z</time></trkpt><trkpt lat="42.9039727" lon="13.5302363"><ele>502.0</ele><time>2026-04-04T09:22:50.806Z</time></trkpt><trkpt lat="42.9039061" lon="13.530148"><ele>502.0</ele><time>2026-04-04T09:22:51.806Z</time></trkpt><trkpt lat="42.9038398" lon="13.5300656"><ele>502.00000000000006</ele><time>2026-04-04T09:22:52.807Z</time></trkpt><trkpt lat="42.9037859" lon="13.5299791"><ele>502.00000000000006</ele><time>2026-04-04T09:22:53.806Z</time></trkpt><trkpt lat="42.9037464" lon="13.5298887"><ele>502.0</ele><time>2026-04-04T09:22:54.807Z</time></trkpt><trkpt lat="42.903777" lon="13.5297206"><ele>502.0</ele><time>2026-04-04T09:22:56.806Z</time></trkpt><trkpt lat="42.9038452" lon="13.5296362"><ele>499.40000000000003</ele><time>2026-04-04T09:22:57.806Z</time></trkpt><trkpt lat="42.9039292" lon="13.5295506"><ele>496.80000000000007</ele><time>2026-04-04T09:22:58.806Z</time></trkpt><trkpt lat="42.9040112" lon="13.5294584"><ele>494.2</ele><time>2026-04-04T09:22:59.806Z</time></trkpt><trkpt lat="42.9040857" lon="13.5293676"><ele>491.6</ele><time>2026-04-04T09:23:00.807Z</time></trkpt><trkpt lat="42.9041556" lon="13.5292808"><ele>489.0</ele><time>2026-04-04T09:23:01.806Z</time></trkpt><trkpt lat="42.9042212" lon="13.5291927"><ele>489.0</ele><time>2026-04-04T09:23:02.806Z</time></trkpt><trkpt lat="42.904275" lon="13.5291073"><ele>489.0</ele><time>2026-04-04T09:23:03.806Z</time></trkpt><trkpt lat="42.9043066" lon="13.5290176"><ele>489.0</ele><time>2026-04-04T09:23:04.806Z</time></trkpt><trkpt lat="42.9042951" lon="13.5289267"><ele>489.0</ele><time>2026-04-04T09:23:05.806Z</time></trkpt><trkpt lat="42.9042464" lon="13.5288343"><ele>489.0</ele><time>2026-04-04T09:23:06.806Z</time></trkpt><trkpt lat="42.9041795" lon="13.5287631"><ele>489.0</ele><time>2026-04-04T09:23:07.807Z</time></trkpt><trkpt lat="42.9041005" lon="13.5287094"><ele>485.8333333333333</ele><time>2026-04-04T09:23:08.806Z</time></trkpt><trkpt lat="42.9040192" lon="13.5286675"><ele>482.66666666666663</ele><time>2026-04-04T09:23:09.806Z</time></trkpt><trkpt lat="42.903939" lon="13.5286459"><ele>479.5</ele><time>2026-04-04T09:23:10.806Z</time></trkpt><trkpt lat="42.9038512" lon="13.5286342"><ele>476.3333333333333</ele><time>2026-04-04T09:23:11.806Z</time></trkpt><trkpt lat="42.9037576" lon="13.5286303"><ele>473.16666666666663</ele><time>2026-04-04T09:23:12.807Z</time></trkpt><trkpt lat="42.9036643" lon="13.5286482"><ele>470.0</ele><time>2026-04-04T09:23:13.806Z</time></trkpt><trkpt lat="42.9035766" lon="13.5286713"><ele>469.99999999999994</ele><time>2026-04-04T09:23:14.807Z</time></trkpt><trkpt lat="42.9034949" lon="13.5287144"><ele>470.0</ele><time>2026-04-04T09:23:15.806Z</time></trkpt><trkpt lat="42.9034261" lon="13.5287803"><ele>470.0</ele><time>2026-04-04T09:23:16.806Z</time></trkpt><trkpt lat="42.9033765" lon="13.5288628"><ele>470.0</ele><time>2026-04-04T09:23:17.806Z</time></trkpt><trkpt lat="42.9033456" lon="13.5289727"><ele>469.99999999999994</ele><time>2026-04-04T09:23:18.807Z</time></trkpt><trkpt lat="42.9033236" lon="13.5290929"><ele>470.0</ele><time>2026-04-04T09:23:19.806Z</time></trkpt><trkpt lat="42.903305" lon="13.5292161"><ele>470.49999999999994</ele><time>2026-04-04T09:23:20.806Z</time></trkpt><trkpt lat="42.9032863" lon="13.5293408"><ele>471.0</ele><time>2026-04-04T09:23:21.806Z</time></trkpt><trkpt lat="42.9032643" lon="13.5294699"><ele>471.5</ele><time>2026-04-04T09:23:22.806Z</time></trkpt><trkpt lat="42.9032414" lon="13.5295913"><ele>472.0</ele><time>2026-04-04T09:23:23.807Z</time></trkpt><trkpt lat="42.903225" lon="13.5297051"><ele>472.49999999999994</ele><time>2026-04-04T09:23:24.807Z</time></trkpt><trkpt lat="42.903221" lon="13.5298143"><ele>473.0</ele><time>2026-04-04T09:23:25.807Z</time></trkpt><trkpt lat="42.903239" lon="13.5299171"><ele>473.0</ele><time>2026-04-04T09:23:26.806Z</time></trkpt><trkpt lat="42.9032805" lon="13.5300132"><ele>472.99999999999994</ele><time>2026-04-04T09:23:27.807Z</time></trkpt><trkpt lat="42.9033424" lon="13.5301064"><ele>472.99999999999994</ele><time>2026-04-04T09:23:28.806Z</time></trkpt><trkpt lat="42.9034367" lon="13.5301792"><ele>473.0</ele><time>2026-04-04T09:23:29.806Z</time></trkpt><trkpt lat="42.9035307" lon="13.5302498"><ele>473.0</ele><time>2026-04-04T09:23:30.806Z</time></trkpt><trkpt lat="42.9036182" lon="13.5303243"><ele>478.4</ele><time>2026-04-04T09:23:31.806Z</time></trkpt><trkpt lat="42.9037027" lon="13.5304166"><ele>483.79999999999995</ele><time>2026-04-04T09:23:32.806Z</time></trkpt><trkpt lat="42.9037705" lon="13.5305307"><ele>489.2</ele><time>2026-04-04T09:23:33.806Z</time></trkpt><trkpt lat="42.903822" lon="13.5306603"><ele>494.6</ele><time>2026-04-04T09:23:34.806Z</time></trkpt><trkpt lat="42.9038548" lon="13.5308018"><ele>500.0</ele><time>2026-04-04T09:23:35.806Z</time></trkpt><trkpt lat="42.9038839" lon="13.5309506"><ele>500.0</ele><time>2026-04-04T09:23:36.806Z</time></trkpt><trkpt lat="42.9039049" lon="13.5311017"><ele>500.0</ele><time>2026-04-04T09:23:37.806Z</time></trkpt><trkpt lat="42.903917" lon="13.5312461"><ele>500.0</ele><time>2026-04-04T09:23:38.806Z</time></trkpt><trkpt lat="42.9039249" lon="13.5313855"><ele>500.0</ele><time>2026-04-04T09:23:39.806Z</time></trkpt><trkpt lat="42.9039384" lon="13.5315235"><ele>500.0</ele><time>2026-04-04T09:23:40.806Z</time></trkpt><trkpt lat="42.9039442" lon="13.5316612"><ele>498.6</ele><time>2026-04-04T09:23:41.807Z</time></trkpt><trkpt lat="42.9039449" lon="13.5317929"><ele>497.2</ele><time>2026-04-04T09:23:42.806Z</time></trkpt><trkpt lat="42.9039377" lon="13.5319255"><ele>495.79999999999995</ele><time>2026-04-04T09:23:43.806Z</time></trkpt><trkpt lat="42.9039229" lon="13.5320632"><ele>494.4</ele><time>2026-04-04T09:23:44.806Z</time></trkpt><trkpt lat="42.9039" lon="13.532192"><ele>493.0</ele><time>2026-04-04T09:23:45.807Z</time></trkpt><trkpt lat="42.9038665" lon="13.5323152"><ele>493.0</ele><time>2026-04-04T09:23:46.807Z</time></trkpt><trkpt lat="42.9038193" lon="13.5324254"><ele>492.99999999999994</ele><time>2026-04-04T09:23:47.807Z</time></trkpt><trkpt lat="42.903755" lon="13.5325375"><ele>492.99999999999994</ele><time>2026-04-04T09:23:48.806Z</time></trkpt><trkpt lat="42.9036819" lon="13.5326384"><ele>493.0</ele><time>2026-04-04T09:23:49.807Z</time></trkpt><trkpt lat="42.9036054" lon="13.5327195"><ele>493.0</ele><time>2026-04-04T09:23:50.807Z</time></trkpt><trkpt lat="42.9035279" lon="13.5327949"><ele>493.0</ele><time>2026-04-04T09:23:51.807Z</time></trkpt><trkpt lat="42.9034445" lon="13.5328538"><ele>492.99999999999994</ele><time>2026-04-04T09:23:52.806Z</time></trkpt><trkpt lat="42.9033568" lon="13.5329083"><ele>492.99999999999994</ele><time>2026-04-04T09:23:53.806Z</time></trkpt><trkpt lat="42.9032723" lon="13.5329589"><ele>493.0</ele><time>2026-04-04T09:23:54.806Z</time></trkpt><trkpt lat="42.9031929" lon="13.5330165"><ele>493.0</ele><time>2026-04-04T09:23:55.806Z</time></trkpt><trkpt lat="42.9031244" lon="13.5330907"><ele>487.50000000000006</ele><time>2026-04-04T09:23:56.807Z</time></trkpt><trkpt lat="42.9030723" lon="13.5331836"><ele>482.0</ele><time>2026-04-04T09:23:57.806Z</time></trkpt><trkpt lat="42.9030529" lon="13.5332913"><ele>476.5</ele><time>2026-04-04T09:23:58.807Z</time></trkpt><trkpt lat="42.9030637" lon="13.5334029"><ele>471.0</ele><time>2026-04-04T09:23:59.807Z</time></trkpt><trkpt lat="42.903102" lon="13.5335093"><ele>465.50000000000006</ele><time>2026-04-04T09:24:00.807Z</time></trkpt><trkpt lat="42.9031621" lon="13.5336026"><ele>460.0</ele><time>2026-04-04T09:24:01.806Z</time></trkpt><trkpt lat="42.9032316" lon="13.5337102"><ele>458.0</ele><time>2026-04-04T09:24:02.806Z</time></trkpt><trkpt lat="42.9032964" lon="13.5338351"><ele>456.0</ele><time>2026-04-04T09:24:03.806Z</time></trkpt><trkpt lat="42.9033485" lon="13.5339718"><ele>454.0</ele><time>2026-04-04T09:24:04.806Z</time></trkpt><trkpt lat="42.9033796" lon="13.5341199"><ele>452.0</ele><time>2026-04-04T09:24:05.806Z</time></trkpt><trkpt lat="42.9033965" lon="13.5342756"><ele>452.0</ele><time>2026-04-04T09:24:06.806Z</time></trkpt><trkpt lat="42.903412" lon="13.5344236"><ele>452.00000000000006</ele><time>2026-04-04T09:24:07.807Z</time></trkpt><trkpt lat="42.9034236" lon="13.5345659"><ele>452.00000000000006</ele><time>2026-04-04T09:24:08.806Z</time></trkpt><trkpt lat="42.9034306" lon="13.5347134"><ele>452.0</ele><time>2026-04-04T09:24:09.807Z</time></trkpt><trkpt lat="42.9034446" lon="13.5348605"><ele>452.0</ele><time>2026-04-04T09:24:10.807Z</time></trkpt><trkpt lat="42.9034746" lon="13.5350026"><ele>449.40000000000003</ele><time>2026-04-04T09:24:11.806Z</time></trkpt><trkpt lat="42.9035146" lon="13.5351329"><ele>446.80000000000007</ele><time>2026-04-04T09:24:12.806Z</time></trkpt><trkpt lat="42.9035613" lon="13.5352652"><ele>444.2</ele><time>2026-04-04T09:24:13.806Z</time></trkpt><trkpt lat="42.9036047" lon="13.5353851"><ele>441.6</ele><time>2026-04-04T09:24:14.806Z</time></trkpt><trkpt lat="42.9036513" lon="13.5354949"><ele>439.0</ele><time>2026-04-04T09:24:15.807Z</time></trkpt><trkpt lat="42.9037019" lon="13.5355891"><ele>439.0</ele><time>2026-04-04T09:24:16.806Z</time></trkpt><trkpt lat="42.9037699" lon="13.5356697"><ele>439.0</ele><time>2026-04-04T09:24:17.807Z</time></trkpt><trkpt lat="42.9038515" lon="13.5357119"><ele>439.0</ele><time>2026-04-04T09:24:18.807Z</time></trkpt><trkpt lat="42.9039454" lon="13.5357147"><ele>439.0</ele><time>2026-04-04T09:24:19.807Z</time></trkpt><trkpt lat="42.9040528" lon="13.535697"><ele>439.0</ele><time>2026-04-04T09:24:20.807Z</time></trkpt><trkpt lat="42.9041599" lon="13.5356764"><ele>445.0</ele><time>2026-04-04T09:24:21.807Z</time></trkpt><trkpt lat="42.9042601" lon="13.535673"><ele>451.0</ele><time>2026-04-04T09:24:22.806Z</time></trkpt><trkpt lat="42.9043542" lon="13.5356951"><ele>457.0</ele><time>2026-04-04T09:24:23.807Z</time></trkpt><trkpt lat="42.9044421" lon="13.5357369"><ele>463.0</ele><time>2026-04-04T09:24:24.807Z</time></trkpt><trkpt lat="42.9045192" lon="13.5357896"><ele>469.0</ele><time>2026-04-04T09:24:25.807Z</time></trkpt><trkpt lat="42.9045825" lon="13.5358639"><ele>469.00000000000006</ele><time>2026-04-04T09:24:26.806Z</time></trkpt><trkpt lat="42.9046219" lon="13.5359562"><ele>469.0</ele><time>2026-04-04T09:24:27.806Z</time></trkpt><trkpt lat="42.9046327" lon="13.5360576"><ele>469.0</ele><time>2026-04-04T09:24:28.806Z</time></trkpt><trkpt lat="42.9046105" lon="13.5361679"><ele>469.0</ele><time>2026-04-04T09:24:29.807Z</time></trkpt><trkpt lat="42.9045758" lon="13.5362804"><ele>469.00000000000006</ele><time>2026-04-04T09:24:30.806Z</time></trkpt><trkpt lat="42.9045491" lon="13.5363953"><ele>469.0</ele><time>2026-04-04T09:24:31.807Z</time></trkpt><trkpt lat="42.9045453" lon="13.53652"><ele>465.4</ele><time>2026-04-04T09:24:32.806Z</time></trkpt><trkpt lat="42.9045711" lon="13.5366401"><ele>461.79999999999995</ele><time>2026-04-04T09:24:33.807Z</time></trkpt><trkpt lat="42.9046299" lon="13.5367608"><ele>458.20000000000005</ele><time>2026-04-04T09:24:34.807Z</time></trkpt><trkpt lat="42.9047054" lon="13.5368796"><ele>454.6</ele><time>2026-04-04T09:24:35.806Z</time></trkpt><trkpt lat="42.9047791" lon="13.5370055"><ele>451.0</ele><time>2026-04-04T09:24:36.807Z</time></trkpt><trkpt lat="42.9048483" lon="13.5371317"><ele>449.0</ele><time>2026-04-04T09:24:37.806Z</time></trkpt><trkpt lat="42.904919" lon="13.5372515"><ele>447.0</ele><time>2026-04-04T09:24:38.806Z</time></trkpt><trkpt lat="42.9049882" lon="13.537356"><ele>445.0</ele><time>2026-04-04T09:24:39.807Z</time></trkpt><trkpt lat="42.9050564" lon="13.5374564"><ele>443.0</ele><time>2026-04-04T09:24:40.806Z</time></trkpt><trkpt lat="42.9051392" lon="13.5375288"><ele>441.0</ele><time>2026-04-04T09:24:41.807Z</time></trkpt><trkpt lat="42.9052329" lon="13.5375793"><ele>441.0</ele><time>2026-04-04T09:24:42.807Z</time></trkpt><trkpt lat="42.9053198" lon="13.5376315"><ele>441.0</ele><time>2026-04-04T09:24:43.806Z</time></trkpt><trkpt lat="42.9054013" lon="13.537686"><ele>441.0</ele><time>2026-04-04T09:24:44.807Z</time></trkpt><trkpt lat="42.9054566" lon="13.5377543"><ele>441.0</ele><time>2026-04-04T09:24:45.807Z</time></trkpt><trkpt lat="42.9054818" lon="13.5378354"><ele>441.0</ele><time>2026-04-04T09:24:46.806Z</time></trkpt><trkpt lat="42.9054779" lon="13.5379338"><ele>441.0</ele><time>2026-04-04T09:24:47.807Z</time></trkpt><trkpt lat="42.9054455" lon="13.5380479"><ele>440.8333333333333</ele><time>2026-04-04T09:24:48.806Z</time></trkpt><trkpt lat="42.9053996" lon="13.5381579"><ele>440.66666666666663</ele><time>2026-04-04T09:24:49.806Z</time></trkpt><trkpt lat="42.9053559" lon="13.5382595"><ele>440.5</ele><time>2026-04-04T09:24:50.807Z</time></trkpt><trkpt lat="42.9053054" lon="13.5383491"><ele>440.3333333333333</ele><time>2026-04-04T09:24:51.806Z</time></trkpt><trkpt lat="42.9052448" lon="13.5384222"><ele>440.16666666666663</ele><time>2026-04-04T09:24:52.807Z</time></trkpt><trkpt lat="42.9051738" lon="13.538473"><ele>440.0</ele><time>2026-04-04T09:24:53.806Z</time></trkpt><trkpt lat="42.9050888" lon="13.5384968"><ele>437.8</ele><time>2026-04-04T09:24:54.807Z</time></trkpt><trkpt lat="42.9050004" lon="13.5384871"><ele>435.6</ele><time>2026-04-04T09:24:55.806Z</time></trkpt><trkpt lat="42.9049185" lon="13.5384504"><ele>433.4</ele><time>2026-04-04T09:24:56.806Z</time></trkpt><trkpt lat="42.9048358" lon="13.5383817"><ele>431.2</ele><time>2026-04-04T09:24:57.806Z</time></trkpt><trkpt lat="42.904739" lon="13.53831"><ele>429.0</ele><time>2026-04-04T09:24:58.806Z</time></trkpt><trkpt lat="42.9046389" lon="13.5382391"><ele>429.0</ele><time>2026-04-04T09:24:59.807Z</time></trkpt><trkpt lat="42.9045276" lon="13.5381766"><ele>429.0</ele><time>2026-04-04T09:25:00.807Z</time></trkpt><trkpt lat="42.9044197" lon="13.5381145"><ele>429.0</ele><time>2026-04-04T09:25:01.806Z</time></trkpt><trkpt lat="42.9043185" lon="13.5380438"><ele>429.0</ele><time>2026-04-04T09:25:02.807Z</time></trkpt><trkpt lat="42.9042265" lon="13.537977"><ele>426.4</ele><time>2026-04-04T09:25:03.807Z</time></trkpt><trkpt lat="42.9041444" lon="13.5378928"><ele>423.79999999999995</ele><time>2026-04-04T09:25:04.807Z</time></trkpt><trkpt lat="42.9040873" lon="13.5377821"><ele>421.20000000000005</ele><time>2026-04-04T09:25:05.807Z</time></trkpt><trkpt lat="42.9040258" lon="13.5376732"><ele>418.6</ele><time>2026-04-04T09:25:06.806Z</time></trkpt><trkpt lat="42.9039538" lon="13.5375759"><ele>416.0</ele><time>2026-04-04T09:25:07.807Z</time></trkpt><trkpt lat="42.9038669" lon="13.5374942"><ele>416.0</ele><time>2026-04-04T09:25:08.807Z</time></trkpt><trkpt lat="42.9037692" lon="13.5374273"><ele>416.0</ele><time>2026-04-04T09:25:09.807Z</time></trkpt><trkpt lat="42.9036697" lon="13.5373724"><ele>416.0</ele><time>2026-04-04T09:25:10.806Z</time></trkpt><trkpt lat="42.9035668" lon="13.537333"><ele>416.0</ele><time>2026-04-04T09:25:11.807Z</time></trkpt><trkpt lat="42.9034583" lon="13.53731"><ele>416.0</ele><time>2026-04-04T09:25:12.806Z</time></trkpt><trkpt lat="42.9033499" lon="13.5372901"><ele>414.6</ele><time>2026-04-04T09:25:13.807Z</time></trkpt><trkpt lat="42.9032457" lon="13.5372449"><ele>413.20000000000005</ele><time>2026-04-04T09:25:14.806Z</time></trkpt><trkpt lat="42.9031491" lon="13.537178"><ele>411.79999999999995</ele><time>2026-04-04T09:25:15.806Z</time></trkpt><trkpt lat="42.9030586" lon="13.5370928"><ele>410.4</ele><time>2026-04-04T09:25:16.806Z</time></trkpt><trkpt lat="42.902978" lon="13.5370119"><ele>409.0</ele><time>2026-04-04T09:25:17.806Z</time></trkpt><trkpt lat="42.9028931" lon="13.5369495"><ele>409.0</ele><time>2026-04-04T09:25:18.806Z</time></trkpt><trkpt lat="42.9028043" lon="13.5369136"><ele>409.0</ele><time>2026-04-04T09:25:19.807Z</time></trkpt><trkpt lat="42.9027011" lon="13.5368976"><ele>409.0</ele><time>2026-04-04T09:25:20.806Z</time></trkpt><trkpt lat="42.9025957" lon="13.5368881"><ele>409.0</ele><time>2026-04-04T09:25:21.806Z</time></trkpt><trkpt lat="42.902495" lon="13.5368533"><ele>409.0</ele><time>2026-04-04T09:25:22.806Z</time></trkpt><trkpt lat="42.9023933" lon="13.5367917"><ele>412.0</ele><time>2026-04-04T09:25:23.807Z</time></trkpt><trkpt lat="42.902295" lon="13.5367033"><ele>415.0</ele><time>2026-04-04T09:25:24.806Z</time></trkpt><trkpt lat="42.9022" lon="13.5366133"><ele>418.0</ele><time>2026-04-04T09:25:25.806Z</time></trkpt><trkpt lat="42.9021033" lon="13.5365267"><ele>421.0</ele><time>2026-04-04T09:25:26.806Z</time></trkpt><trkpt lat="42.9020017" lon="13.536415"><ele>421.0</ele><time>2026-04-04T09:25:27.806Z</time></trkpt><trkpt lat="42.90192" lon="13.536295"><ele>421.0</ele><time>2026-04-04T09:25:28.807Z</time></trkpt><trkpt lat="42.901855" lon="13.53616"><ele>421.0</ele><time>2026-04-04T09:25:29.806Z</time></trkpt><trkpt lat="42.9018" lon="13.5360417"><ele>421.0</ele><time>2026-04-04T09:25:30.807Z</time></trkpt><trkpt lat="42.9017433" lon="13.5359167"><ele>421.0</ele><time>2026-04-04T09:25:31.806Z</time></trkpt><trkpt lat="42.9016783" lon="13.535805"><ele>422.6</ele><time>2026-04-04T09:25:32.806Z</time></trkpt><trkpt lat="42.9016033" lon="13.5356983"><ele>424.20000000000005</ele><time>2026-04-04T09:25:33.806Z</time></trkpt><trkpt lat="42.90152" lon="13.5356033"><ele>425.79999999999995</ele><time>2026-04-04T09:25:34.806Z</time></trkpt><trkpt lat="42.90143" lon="13.535535"><ele>427.4</ele><time>2026-04-04T09:25:35.806Z</time></trkpt><trkpt lat="42.90134" lon="13.53546"><ele>429.0</ele><time>2026-04-04T09:25:36.807Z</time></trkpt><trkpt lat="42.9012533" lon="13.5353983"><ele>425.79999999999995</ele><time>2026-04-04T09:25:37.806Z</time></trkpt><trkpt lat="42.901165" lon="13.5353483"><ele>422.59999999999997</ele><time>2026-04-04T09:25:38.806Z</time></trkpt><trkpt lat="42.9010767" lon="13.5353333"><ele>419.4</ele><time>2026-04-04T09:25:39.806Z</time></trkpt><trkpt lat="42.9009633" lon="13.5353433"><ele>416.2</ele><time>2026-04-04T09:25:40.807Z</time></trkpt><trkpt lat="42.9008583" lon="13.535365"><ele>413.0</ele><time>2026-04-04T09:25:41.806Z</time></trkpt><trkpt lat="42.90075" lon="13.5353817"><ele>413.0</ele><time>2026-04-04T09:25:42.807Z</time></trkpt><trkpt lat="42.9006433" lon="13.5353967"><ele>413.0</ele><time>2026-04-04T09:25:43.806Z</time></trkpt><trkpt lat="42.9005483" lon="13.5353983"><ele>413.0</ele><time>2026-04-04T09:25:44.806Z</time></trkpt><trkpt lat="42.9004567" lon="13.53536"><ele>413.0</ele><time>2026-04-04T09:25:45.806Z</time></trkpt><trkpt lat="42.900375" lon="13.5352917"><ele>413.0</ele><time>2026-04-04T09:25:46.806Z</time></trkpt><trkpt lat="42.9002967" lon="13.535205"><ele>412.99999999999994</ele><time>2026-04-04T09:25:47.807Z</time></trkpt><trkpt lat="42.9002233" lon="13.535125"><ele>413.0</ele><time>2026-04-04T09:25:48.807Z</time></trkpt><trkpt lat="42.9001483" lon="13.5350417"><ele>413.0</ele><time>2026-04-04T09:25:49.806Z</time></trkpt><trkpt lat="42.900085" lon="13.53497"><ele>413.0</ele><time>2026-04-04T09:25:50.806Z</time></trkpt><trkpt lat="42.9000183" lon="13.5349183"><ele>412.99999999999994</ele><time>2026-04-04T09:25:51.806Z</time></trkpt><trkpt lat="42.899955" lon="13.53489"><ele>413.0</ele><time>2026-04-04T09:25:52.807Z</time></trkpt><trkpt lat="42.8998567" lon="13.5348467"><ele>412.3333333333333</ele><time>2026-04-04T09:25:54.806Z</time></trkpt><trkpt lat="42.899785" lon="13.5347283"><ele>411.66666666666663</ele><time>2026-04-04T09:25:56.806Z</time></trkpt><trkpt lat="42.8997267" lon="13.5346567"><ele>411.0</ele><time>2026-04-04T09:25:57.806Z</time></trkpt><trkpt lat="42.8996683" lon="13.5345833"><ele>410.33333333333337</ele><time>2026-04-04T09:25:58.807Z</time></trkpt><trkpt lat="42.8996117" lon="13.5345033"><ele>409.6666666666667</ele><time>2026-04-04T09:25:59.807Z</time></trkpt><trkpt lat="42.8995533" lon="13.5344217"><ele>409.0</ele><time>2026-04-04T09:26:00.806Z</time></trkpt><trkpt lat="42.8995033" lon="13.5343367"><ele>409.00000000000006</ele><time>2026-04-04T09:26:01.806Z</time></trkpt><trkpt lat="42.8994517" lon="13.5342517"><ele>409.0</ele><time>2026-04-04T09:26:02.806Z</time></trkpt><trkpt lat="42.8994083" lon="13.5341533"><ele>409.0</ele><time>2026-04-04T09:26:03.806Z</time></trkpt><trkpt lat="42.899365" lon="13.5340517"><ele>409.0</ele><time>2026-04-04T09:26:04.806Z</time></trkpt><trkpt lat="42.8993383" lon="13.533935"><ele>409.00000000000006</ele><time>2026-04-04T09:26:05.806Z</time></trkpt><trkpt lat="42.8993167" lon="13.5338167"><ele>409.0</ele><time>2026-04-04T09:26:06.806Z</time></trkpt><trkpt lat="42.8992983" lon="13.533695"><ele>411.00000000000006</ele><time>2026-04-04T09:26:07.806Z</time></trkpt><trkpt lat="42.8992667" lon="13.5335833"><ele>413.0</ele><time>2026-04-04T09:26:08.806Z</time></trkpt><trkpt lat="42.8992267" lon="13.5334733"><ele>415.0</ele><time>2026-04-04T09:26:09.807Z</time></trkpt><trkpt lat="42.8991817" lon="13.5333717"><ele>417.0</ele><time>2026-04-04T09:26:10.807Z</time></trkpt><trkpt lat="42.8991283" lon="13.533265"><ele>419.00000000000006</ele><time>2026-04-04T09:26:11.806Z</time></trkpt><trkpt lat="42.8990767" lon="13.5331817"><ele>421.0</ele><time>2026-04-04T09:26:12.807Z</time></trkpt><trkpt lat="42.89903" lon="13.533085"><ele>421.0</ele><time>2026-04-04T09:26:13.806Z</time></trkpt><trkpt lat="42.8989983" lon="13.532965"><ele>421.0</ele><time>2026-04-04T09:26:14.806Z</time></trkpt><trkpt lat="42.8989683" lon="13.5328283"><ele>421.0</ele><time>2026-04-04T09:26:15.806Z</time></trkpt><trkpt lat="42.89894" lon="13.5326817"><ele>421.0</ele><time>2026-04-04T09:26:16.806Z</time></trkpt><trkpt lat="42.898915" lon="13.532545"><ele>421.0</ele><time>2026-04-04T09:26:17.806Z</time></trkpt><trkpt lat="42.898875" lon="13.53242"><ele>418.8</ele><time>2026-04-04T09:26:18.807Z</time></trkpt><trkpt lat="42.8988233" lon="13.5323167"><ele>416.6</ele><time>2026-04-04T09:26:19.807Z</time></trkpt><trkpt lat="42.898765" lon="13.5322167"><ele>414.4</ele><time>2026-04-04T09:26:20.807Z</time></trkpt><trkpt lat="42.898695" lon="13.532135"><ele>412.2</ele><time>2026-04-04T09:26:21.807Z</time></trkpt><trkpt lat="42.8986217" lon="13.5320683"><ele>410.0</ele><time>2026-04-04T09:26:22.807Z</time></trkpt><trkpt lat="42.898545" lon="13.5319967"><ele>409.2</ele><time>2026-04-04T09:26:23.807Z</time></trkpt><trkpt lat="42.89847" lon="13.531905"><ele>408.4</ele><time>2026-04-04T09:26:24.806Z</time></trkpt><trkpt lat="42.8984" lon="13.531815"><ele>407.6</ele><time>2026-04-04T09:26:25.806Z</time></trkpt><trkpt lat="42.8983283" lon="13.5317183"><ele>406.8</ele><time>2026-04-04T09:26:26.806Z</time></trkpt><trkpt lat="42.8982567" lon="13.53162"><ele>406.0</ele><time>2026-04-04T09:26:27.806Z</time></trkpt><trkpt lat="42.89817" lon="13.5315217"><ele>406.0</ele><time>2026-04-04T09:26:28.807Z</time></trkpt><trkpt lat="42.898075" lon="13.5314267"><ele>406.0</ele><time>2026-04-04T09:26:29.806Z</time></trkpt><trkpt lat="42.89798" lon="13.531335"><ele>406.0</ele><time>2026-04-04T09:26:30.806Z</time></trkpt><trkpt lat="42.8978983" lon="13.531255"><ele>406.0</ele><time>2026-04-04T09:26:31.807Z</time></trkpt><trkpt lat="42.8978283" lon="13.531165"><ele>406.0</ele><time>2026-04-04T09:26:32.806Z</time></trkpt><trkpt lat="42.8977683" lon="13.5310683"><ele>405.0</ele><time>2026-04-04T09:26:33.807Z</time></trkpt><trkpt lat="42.8977217" lon="13.53096"><ele>404.0</ele><time>2026-04-04T09:26:34.807Z</time></trkpt><trkpt lat="42.8976833" lon="13.5308417"><ele>403.0</ele><time>2026-04-04T09:26:35.807Z</time></trkpt><trkpt lat="42.897655" lon="13.5307167"><ele>402.0</ele><time>2026-04-04T09:26:36.806Z</time></trkpt><trkpt lat="42.8976167" lon="13.530605"><ele>401.0</ele><time>2026-04-04T09:26:37.806Z</time></trkpt><trkpt lat="42.8975767" lon="13.53051"><ele>399.49999999999994</ele><time>2026-04-04T09:26:38.806Z</time></trkpt><trkpt lat="42.8975367" lon="13.5304267"><ele>398.0</ele><time>2026-04-04T09:26:39.806Z</time></trkpt><trkpt lat="42.897485" lon="13.53035"><ele>396.5</ele><time>2026-04-04T09:26:40.807Z</time></trkpt><trkpt lat="42.89743" lon="13.53028"><ele>395.0</ele><time>2026-04-04T09:26:41.807Z</time></trkpt><trkpt lat="42.897375" lon="13.5302067"><ele>393.49999999999994</ele><time>2026-04-04T09:26:42.807Z</time></trkpt><trkpt lat="42.8973117" lon="13.5301417"><ele>392.0</ele><time>2026-04-04T09:26:43.806Z</time></trkpt><trkpt lat="42.8972567" lon="13.5300617"><ele>391.99999999999994</ele><time>2026-04-04T09:26:44.806Z</time></trkpt><trkpt lat="42.8971983" lon="13.529985"><ele>392.0</ele><time>2026-04-04T09:26:45.806Z</time></trkpt><trkpt lat="42.897135" lon="13.5298883"><ele>392.0</ele><time>2026-04-04T09:26:46.807Z</time></trkpt><trkpt lat="42.89708" lon="13.5297883"><ele>392.0</ele><time>2026-04-04T09:26:47.806Z</time></trkpt><trkpt lat="42.897025" lon="13.5296933"><ele>391.99999999999994</ele><time>2026-04-04T09:26:48.807Z</time></trkpt><trkpt lat="42.8969633" lon="13.5295983"><ele>392.0</ele><time>2026-04-04T09:26:49.806Z</time></trkpt><trkpt lat="42.8968967" lon="13.5295217"><ele>390.0</ele><time>2026-04-04T09:26:50.806Z</time></trkpt><trkpt lat="42.896825" lon="13.529445"><ele>388.0</ele><time>2026-04-04T09:26:51.807Z</time></trkpt><trkpt lat="42.89673" lon="13.5293817"><ele>386.0</ele><time>2026-04-04T09:26:52.806Z</time></trkpt><trkpt lat="42.89664" lon="13.5293283"><ele>384.0</ele><time>2026-04-04T09:26:53.806Z</time></trkpt><trkpt lat="42.8965633" lon="13.5292833"><ele>382.0</ele><time>2026-04-04T09:26:54.806Z</time></trkpt><trkpt lat="42.8964817" lon="13.5292383"><ele>382.0</ele><time>2026-04-04T09:26:55.806Z</time></trkpt><trkpt lat="42.896405" lon="13.5291867"><ele>382.0</ele><time>2026-04-04T09:26:56.806Z</time></trkpt><trkpt lat="42.8963333" lon="13.529135"><ele>382.0</ele><time>2026-04-04T09:26:57.807Z</time></trkpt><trkpt lat="42.8962533" lon="13.52908"><ele>382.0</ele><time>2026-04-04T09:26:58.807Z</time></trkpt><trkpt lat="42.8961783" lon="13.52903"><ele>382.0</ele><time>2026-04-04T09:26:59.806Z</time></trkpt><trkpt lat="42.8961" lon="13.528975"><ele>382.0</ele><time>2026-04-04T09:27:00.807Z</time></trkpt><trkpt lat="42.896025" lon="13.5289067"><ele>382.0</ele><time>2026-04-04T09:27:01.807Z</time></trkpt><trkpt lat="42.89594" lon="13.52882"><ele>382.0</ele><time>2026-04-04T09:27:02.806Z</time></trkpt><trkpt lat="42.8958567" lon="13.5287367"><ele>382.0</ele><time>2026-04-04T09:27:03.807Z</time></trkpt><trkpt lat="42.89577" lon="13.52865"><ele>382.0</ele><time>2026-04-04T09:27:04.806Z</time></trkpt><trkpt lat="42.8956783" lon="13.52856"><ele>382.0</ele><time>2026-04-04T09:27:05.806Z</time></trkpt><trkpt lat="42.8955883" lon="13.5284683"><ele>381.8</ele><time>2026-04-04T09:27:06.807Z</time></trkpt><trkpt lat="42.8955033" lon="13.528375"><ele>381.6</ele><time>2026-04-04T09:27:07.806Z</time></trkpt><trkpt lat="42.895425" lon="13.528285"><ele>381.40000000000003</ele><time>2026-04-04T09:27:08.806Z</time></trkpt><trkpt lat="42.89535" lon="13.5282067"><ele>381.20000000000005</ele><time>2026-04-04T09:27:09.807Z</time></trkpt><trkpt lat="42.89528" lon="13.52815"><ele>381.0</ele><time>2026-04-04T09:27:10.807Z</time></trkpt><trkpt lat="42.89521" lon="13.5280933"><ele>381.0</ele><time>2026-04-04T09:27:11.806Z</time></trkpt><trkpt lat="42.8951367" lon="13.52803"><ele>381.0</ele><time>2026-04-04T09:27:12.806Z</time></trkpt><trkpt lat="42.8950617" lon="13.5279617"><ele>381.0</ele><time>2026-04-04T09:27:13.806Z</time></trkpt><trkpt lat="42.894985" lon="13.5278933"><ele>381.0</ele><time>2026-04-04T09:27:14.807Z</time></trkpt><trkpt lat="42.894905" lon="13.5278233"><ele>381.0</ele><time>2026-04-04T09:27:15.806Z</time></trkpt><trkpt lat="42.8948167" lon="13.527755"><ele>375.6</ele><time>2026-04-04T09:27:16.807Z</time></trkpt><trkpt lat="42.89473" lon="13.5276783"><ele>370.20000000000005</ele><time>2026-04-04T09:27:17.806Z</time></trkpt><trkpt lat="42.8946517" lon="13.5275833"><ele>364.79999999999995</ele><time>2026-04-04T09:27:18.806Z</time></trkpt><trkpt lat="42.8945733" lon="13.5274817"><ele>359.4</ele><time>2026-04-04T09:27:19.806Z</time></trkpt><trkpt lat="42.8945" lon="13.5273917"><ele>354.0</ele><time>2026-04-04T09:27:20.806Z</time></trkpt><trkpt lat="42.8944217" lon="13.5273167"><ele>354.0</ele><time>2026-04-04T09:27:21.807Z</time></trkpt><trkpt lat="42.8943517" lon="13.5272317"><ele>354.0</ele><time>2026-04-04T09:27:22.806Z</time></trkpt><trkpt lat="42.8942883" lon="13.5271567"><ele>354.0</ele><time>2026-04-04T09:27:23.806Z</time></trkpt><trkpt lat="42.894225" lon="13.5270883"><ele>354.0</ele><time>2026-04-04T09:27:24.806Z</time></trkpt><trkpt lat="42.89417" lon="13.527035"><ele>354.0</ele><time>2026-04-04T09:27:25.807Z</time></trkpt><trkpt lat="42.8940617" lon="13.5269533"><ele>354.0</ele><time>2026-04-04T09:27:27.807Z</time></trkpt><trkpt lat="42.8940083" lon="13.5269017"><ele>353.4</ele><time>2026-04-04T09:27:28.806Z</time></trkpt><trkpt lat="42.8939083" lon="13.5267883"><ele>352.79999999999995</ele><time>2026-04-04T09:27:30.807Z</time></trkpt><trkpt lat="42.8938183" lon="13.5266667"><ele>352.20000000000005</ele><time>2026-04-04T09:27:32.806Z</time></trkpt><trkpt lat="42.8937633" lon="13.5266033"><ele>351.6</ele><time>2026-04-04T09:27:33.806Z</time></trkpt><trkpt lat="42.893705" lon="13.526535"><ele>351.0</ele><time>2026-04-04T09:27:34.806Z</time></trkpt><trkpt lat="42.893645" lon="13.526465"><ele>351.0</ele><time>2026-04-04T09:27:35.806Z</time></trkpt><trkpt lat="42.893595" lon="13.5263967"><ele>351.0</ele><time>2026-04-04T09:27:36.806Z</time></trkpt><trkpt lat="42.8935367" lon="13.5263117"><ele>351.0</ele><time>2026-04-04T09:27:37.806Z</time></trkpt><trkpt lat="42.89348" lon="13.5262083"><ele>351.0</ele><time>2026-04-04T09:27:38.807Z</time></trkpt><trkpt lat="42.893425" lon="13.5261067"><ele>351.0</ele><time>2026-04-04T09:27:39.807Z</time></trkpt><trkpt lat="42.89338" lon="13.5259867"><ele>351.0</ele><time>2026-04-04T09:27:40.807Z</time></trkpt><trkpt lat="42.8933417" lon="13.5258533"><ele>349.0</ele><time>2026-04-04T09:27:41.806Z</time></trkpt><trkpt lat="42.8933083" lon="13.5257"><ele>347.0</ele><time>2026-04-04T09:27:42.806Z</time></trkpt><trkpt lat="42.8932733" lon="13.5255267"><ele>345.0</ele><time>2026-04-04T09:27:43.806Z</time></trkpt><trkpt lat="42.8932333" lon="13.5253617"><ele>343.0</ele><time>2026-04-04T09:27:44.806Z</time></trkpt><trkpt lat="42.89319" lon="13.5252167"><ele>342.59999999999997</ele><time>2026-04-04T09:27:45.806Z</time></trkpt><trkpt lat="42.8931517" lon="13.52509"><ele>342.2</ele><time>2026-04-04T09:27:46.807Z</time></trkpt><trkpt lat="42.893115" lon="13.52496"><ele>341.8</ele><time>2026-04-04T09:27:47.806Z</time></trkpt><trkpt lat="42.89307" lon="13.5248333"><ele>341.4</ele><time>2026-04-04T09:27:48.806Z</time></trkpt><trkpt lat="42.893045" lon="13.5247117"><ele>341.0</ele><time>2026-04-04T09:27:49.806Z</time></trkpt><trkpt lat="42.8930267" lon="13.52459"><ele>339.20000000000005</ele><time>2026-04-04T09:27:50.806Z</time></trkpt><trkpt lat="42.8929883" lon="13.52447"><ele>337.40000000000003</ele><time>2026-04-04T09:27:51.806Z</time></trkpt><trkpt lat="42.892945" lon="13.5243483"><ele>335.6</ele><time>2026-04-04T09:27:52.806Z</time></trkpt><trkpt lat="42.8928967" lon="13.524245"><ele>333.8</ele><time>2026-04-04T09:27:53.806Z</time></trkpt><trkpt lat="42.8928467" lon="13.52414"><ele>332.0</ele><time>2026-04-04T09:27:54.807Z</time></trkpt><trkpt lat="42.8928033" lon="13.52404"><ele>332.0</ele><time>2026-04-04T09:27:55.806Z</time></trkpt><trkpt lat="42.892755" lon="13.523945"><ele>332.0</ele><time>2026-04-04T09:27:56.806Z</time></trkpt><trkpt lat="42.8927017" lon="13.52386"><ele>332.0</ele><time>2026-04-04T09:27:57.806Z</time></trkpt><trkpt lat="42.89264" lon="13.523765"><ele>332.0</ele><time>2026-04-04T09:27:58.806Z</time></trkpt><trkpt lat="42.8925783" lon="13.523665"><ele>332.0</ele><time>2026-04-04T09:27:59.806Z</time></trkpt><trkpt lat="42.8925167" lon="13.5235583"><ele>334.1666666666667</ele><time>2026-04-04T09:28:00.806Z</time></trkpt><trkpt lat="42.8924567" lon="13.523465"><ele>336.33333333333337</ele><time>2026-04-04T09:28:01.807Z</time></trkpt><trkpt lat="42.8924033" lon="13.523385"><ele>338.5</ele><time>2026-04-04T09:28:02.807Z</time></trkpt><trkpt lat="42.89235" lon="13.5232983"><ele>340.6666666666667</ele><time>2026-04-04T09:28:03.806Z</time></trkpt><trkpt lat="42.892295" lon="13.52321"><ele>342.8333333333333</ele><time>2026-04-04T09:28:04.806Z</time></trkpt><trkpt lat="42.8922417" lon="13.5231133"><ele>345.0</ele><time>2026-04-04T09:28:05.806Z</time></trkpt><trkpt lat="42.892195" lon="13.523025"><ele>345.0</ele><time>2026-04-04T09:28:06.806Z</time></trkpt><trkpt lat="42.8921433" lon="13.5229333"><ele>345.0</ele><time>2026-04-04T09:28:07.806Z</time></trkpt><trkpt lat="42.8920883" lon="13.5228433"><ele>345.0</ele><time>2026-04-04T09:28:08.806Z</time></trkpt><trkpt lat="42.892025" lon="13.5227383"><ele>345.0</ele><time>2026-04-04T09:28:09.807Z</time></trkpt><trkpt lat="42.891965" lon="13.52264"><ele>345.0</ele><time>2026-04-04T09:28:10.806Z</time></trkpt><trkpt lat="42.8919083" lon="13.52255"><ele>344.3333333333333</ele><time>2026-04-04T09:28:11.806Z</time></trkpt><trkpt lat="42.8918517" lon="13.5224517"><ele>343.6666666666667</ele><time>2026-04-04T09:28:12.807Z</time></trkpt><trkpt lat="42.8918017" lon="13.5223617"><ele>343.0</ele><time>2026-04-04T09:28:13.806Z</time></trkpt><trkpt lat="42.8917433" lon="13.5222767"><ele>342.33333333333337</ele><time>2026-04-04T09:28:14.807Z</time></trkpt><trkpt lat="42.8916883" lon="13.5221967"><ele>341.6666666666667</ele><time>2026-04-04T09:28:15.806Z</time></trkpt><trkpt lat="42.8916383" lon="13.5221283"><ele>341.0</ele><time>2026-04-04T09:28:16.806Z</time></trkpt><trkpt lat="42.8916067" lon="13.5220483"><ele>338.20000000000005</ele><time>2026-04-04T09:28:17.806Z</time></trkpt><trkpt lat="42.8915483" lon="13.5219167"><ele>335.40000000000003</ele><time>2026-04-04T09:28:19.806Z</time></trkpt><trkpt lat="42.8914883" lon="13.5218083"><ele>332.6</ele><time>2026-04-04T09:28:21.807Z</time></trkpt><trkpt lat="42.8914167" lon="13.521735"><ele>329.8</ele><time>2026-04-04T09:28:23.807Z</time></trkpt><trkpt lat="42.8913167" lon="13.5216717"><ele>327.0</ele><time>2026-04-04T09:28:25.807Z</time></trkpt><trkpt lat="42.89122" lon="13.521625"><ele>327.0</ele><time>2026-04-04T09:28:27.806Z</time></trkpt><trkpt lat="42.89111" lon="13.52164"><ele>327.0</ele><time>2026-04-04T09:28:29.806Z</time></trkpt><trkpt lat="42.8909867" lon="13.5215817"><ele>327.0</ele><time>2026-04-04T09:28:31.806Z</time></trkpt><trkpt lat="42.890925" lon="13.5215217"><ele>327.0</ele><time>2026-04-04T09:28:32.807Z</time></trkpt><trkpt lat="42.8908683" lon="13.52145"><ele>327.0</ele><time>2026-04-04T09:28:33.806Z</time></trkpt><trkpt lat="42.8908117" lon="13.521375"><ele>327.1666666666667</ele><time>2026-04-04T09:28:34.807Z</time></trkpt><trkpt lat="42.89075" lon="13.5213017"><ele>327.3333333333333</ele><time>2026-04-04T09:28:35.807Z</time></trkpt><trkpt lat="42.89069" lon="13.52123"><ele>327.5</ele><time>2026-04-04T09:28:36.806Z</time></trkpt><trkpt lat="42.8906317" lon="13.5211583"><ele>327.66666666666663</ele><time>2026-04-04T09:28:37.807Z</time></trkpt><trkpt lat="42.89057" lon="13.5210967"><ele>327.8333333333333</ele><time>2026-04-04T09:28:38.807Z</time></trkpt><trkpt lat="42.8905267" lon="13.521025"><ele>328.0</ele><time>2026-04-04T09:28:39.806Z</time></trkpt><trkpt lat="42.89048" lon="13.5208933"><ele>327.4</ele><time>2026-04-04T09:28:41.806Z</time></trkpt><trkpt lat="42.8903933" lon="13.5208383"><ele>326.79999999999995</ele><time>2026-04-04T09:28:43.806Z</time></trkpt><trkpt lat="42.89028" lon="13.5208267"><ele>326.2</ele><time>2026-04-04T09:28:45.806Z</time></trkpt><trkpt lat="42.890165" lon="13.5207867"><ele>325.6</ele><time>2026-04-04T09:28:47.806Z</time></trkpt><trkpt lat="42.8901017" lon="13.5207467"><ele>325.0</ele><time>2026-04-04T09:28:48.806Z</time></trkpt><trkpt lat="42.8900383" lon="13.520705"><ele>323.8</ele><time>2026-04-04T09:28:49.806Z</time></trkpt><trkpt lat="42.8899783" lon="13.5206667"><ele>322.6</ele><time>2026-04-04T09:28:50.806Z</time></trkpt><trkpt lat="42.8898867" lon="13.5205817"><ele>321.4</ele><time>2026-04-04T09:28:52.807Z</time></trkpt><trkpt lat="42.8897967" lon="13.5204833"><ele>320.2</ele><time>2026-04-04T09:28:54.806Z</time></trkpt><trkpt lat="42.8897" lon="13.5204117"><ele>319.0</ele><time>2026-04-04T09:28:56.807Z</time></trkpt><trkpt lat="42.8896" lon="13.5203517"><ele>317.59999999999997</ele><time>2026-04-04T09:28:58.806Z</time></trkpt><trkpt lat="42.8895083" lon="13.520285"><ele>316.2</ele><time>2026-04-04T09:29:00.806Z</time></trkpt><trkpt lat="42.8893933" lon="13.5201983"><ele>314.79999999999995</ele><time>2026-04-04T09:29:02.806Z</time></trkpt><trkpt lat="42.8893217" lon="13.52015"><ele>313.4</ele><time>2026-04-04T09:29:03.806Z</time></trkpt><trkpt lat="42.8892483" lon="13.5201017"><ele>312.0</ele><time>2026-04-04T09:29:04.806Z</time></trkpt><trkpt lat="42.8891883" lon="13.520055"><ele>310.2</ele><time>2026-04-04T09:29:05.807Z</time></trkpt><trkpt lat="42.8890833" lon="13.5199867"><ele>308.4</ele><time>2026-04-04T09:29:07.806Z</time></trkpt><trkpt lat="42.88901" lon="13.5198983"><ele>306.6</ele><time>2026-04-04T09:29:09.807Z</time></trkpt><trkpt lat="42.8889933" lon="13.519785"><ele>304.8</ele><time>2026-04-04T09:29:11.806Z</time></trkpt><trkpt lat="42.889025" lon="13.5196583"><ele>303.0</ele><time>2026-04-04T09:29:13.806Z</time></trkpt><trkpt lat="42.8890433" lon="13.519515"><ele>300.0</ele><time>2026-04-04T09:29:15.806Z</time></trkpt><trkpt lat="42.889045" lon="13.5193867"><ele>297.0</ele><time>2026-04-04T09:29:17.806Z</time></trkpt><trkpt lat="42.8890217" lon="13.5192767"><ele>294.0</ele><time>2026-04-04T09:29:19.807Z</time></trkpt><trkpt lat="42.8889667" lon="13.5192133"><ele>291.0</ele><time>2026-04-04T09:29:21.806Z</time></trkpt><trkpt lat="42.8888783" lon="13.51919"><ele>288.0</ele><time>2026-04-04T09:29:23.806Z</time></trkpt><trkpt lat="42.8887617" lon="13.5191983"><ele>288.0</ele><time>2026-04-04T09:29:25.806Z</time></trkpt><trkpt lat="42.8886933" lon="13.519215"><ele>288.0</ele><time>2026-04-04T09:29:26.807Z</time></trkpt><trkpt lat="42.8886283" lon="13.51922"><ele>288.0</ele><time>2026-04-04T09:29:27.806Z</time></trkpt><trkpt lat="42.8885217" lon="13.5192433"><ele>288.0</ele><time>2026-04-04T09:29:29.807Z</time></trkpt><trkpt lat="42.88846" lon="13.5193083"><ele>288.0</ele><time>2026-04-04T09:29:32.806Z</time></trkpt><trkpt lat="42.8884917" lon="13.5192217"><ele>288.0</ele><time>2026-04-04T09:29:44.806Z</time></trkpt><trkpt lat="42.88858" lon="13.5191717"><ele>288.0</ele><time>2026-04-04T09:29:46.806Z</time></trkpt><trkpt lat="42.8886733" lon="13.5191283"><ele>288.0</ele><time>2026-04-04T09:29:48.807Z</time></trkpt><trkpt lat="42.8887667" lon="13.51908"><ele>288.0</ele><time>2026-04-04T09:29:50.806Z</time></trkpt><trkpt lat="42.8888467" lon="13.5190367"><ele>288.0</ele><time>2026-04-04T09:29:52.806Z</time></trkpt><trkpt lat="42.8889217" lon="13.519005"><ele>288.0</ele><time>2026-04-04T09:29:54.807Z</time></trkpt><trkpt lat="42.8890183" lon="13.518965"><ele>288.0</ele><time>2026-04-04T09:29:56.806Z</time></trkpt><trkpt lat="42.8891033" lon="13.5189417"><ele>288.0</ele><time>2026-04-04T09:29:58.807Z</time></trkpt><trkpt lat="42.8891667" lon="13.5189467"><ele>288.0</ele><time>2026-04-04T09:30:00.806Z</time></trkpt><trkpt lat="42.8892633" lon="13.5189967"><ele>288.0</ele><time>2026-04-04T09:30:03.806Z</time></trkpt><trkpt lat="42.8893283" lon="13.5190183"><ele>288.0</ele><time>2026-04-04T09:30:04.807Z</time></trkpt><trkpt lat="42.8893917" lon="13.5190367"><ele>288.0</ele><time>2026-04-04T09:30:05.807Z</time></trkpt><trkpt lat="42.88946" lon="13.519065"><ele>287.5714285714286</ele><time>2026-04-04T09:30:06.805Z</time></trkpt><trkpt lat="42.889535" lon="13.5190933"><ele>287.14285714285717</ele><time>2026-04-04T09:30:07.806Z</time></trkpt><trkpt lat="42.889615" lon="13.5191133"><ele>286.7142857142857</ele><time>2026-04-04T09:30:08.805Z</time></trkpt><trkpt lat="42.88969" lon="13.5191233"><ele>286.28571428571433</ele><time>2026-04-04T09:30:09.805Z</time></trkpt><trkpt lat="42.8897583" lon="13.5191183"><ele>285.8571428571429</ele><time>2026-04-04T09:30:10.805Z</time></trkpt><trkpt lat="42.8898267" lon="13.5190967"><ele>285.42857142857144</ele><time>2026-04-04T09:30:11.805Z</time></trkpt><trkpt lat="42.8898883" lon="13.5190683"><ele>285.0</ele><time>2026-04-04T09:30:12.806Z</time></trkpt><trkpt lat="42.889985" lon="13.5189633"><ele>285.0</ele><time>2026-04-04T09:30:14.805Z</time></trkpt><trkpt lat="42.8900133" lon="13.5188017"><ele>285.0</ele><time>2026-04-04T09:30:16.806Z</time></trkpt><trkpt lat="42.8899867" lon="13.5187133"><ele>285.0</ele><time>2026-04-04T09:30:17.805Z</time></trkpt><trkpt lat="42.8899317" lon="13.5186333"><ele>285.0</ele><time>2026-04-04T09:30:18.805Z</time></trkpt><trkpt lat="42.88987" lon="13.5185633"><ele>285.0</ele><time>2026-04-04T09:30:19.805Z</time></trkpt><trkpt lat="42.8898217" lon="13.5184967"><ele>285.0</ele><time>2026-04-04T09:30:20.805Z</time></trkpt><trkpt lat="42.889795" lon="13.5184183"><ele>285.6</ele><time>2026-04-04T09:30:21.806Z</time></trkpt><trkpt lat="42.8898" lon="13.5182567"><ele>286.2</ele><time>2026-04-04T09:30:23.806Z</time></trkpt><trkpt lat="42.88985" lon="13.518135"><ele>286.8</ele><time>2026-04-04T09:30:25.806Z</time></trkpt><trkpt lat="42.88995" lon="13.5180733"><ele>287.4</ele><time>2026-04-04T09:30:27.806Z</time></trkpt><trkpt lat="42.8900117" lon="13.5180467"><ele>288.0</ele><time>2026-04-04T09:30:28.805Z</time></trkpt><trkpt lat="42.8900933" lon="13.5180117"><ele>293.0</ele><time>2026-04-04T09:30:29.806Z</time></trkpt><trkpt lat="42.8901833" lon="13.517965"><ele>298.0</ele><time>2026-04-04T09:30:30.806Z</time></trkpt><trkpt lat="42.8902867" lon="13.5179117"><ele>303.0</ele><time>2026-04-04T09:30:31.806Z</time></trkpt><trkpt lat="42.8903883" lon="13.517855"><ele>308.0</ele><time>2026-04-04T09:30:32.805Z</time></trkpt><trkpt lat="42.8904667" lon="13.5178017"><ele>313.0</ele><time>2026-04-04T09:30:33.805Z</time></trkpt><trkpt lat="42.8905217" lon="13.5177533"><ele>313.6</ele><time>2026-04-04T09:30:34.806Z</time></trkpt><trkpt lat="42.890595" lon="13.5176183"><ele>314.20000000000005</ele><time>2026-04-04T09:30:36.805Z</time></trkpt><trkpt lat="42.8906217" lon="13.5175267"><ele>314.8</ele><time>2026-04-04T09:30:37.805Z</time></trkpt><trkpt lat="42.890655" lon="13.5174233"><ele>315.40000000000003</ele><time>2026-04-04T09:30:38.805Z</time></trkpt><trkpt lat="42.8906917" lon="13.517305"><ele>316.0</ele><time>2026-04-04T09:30:39.806Z</time></trkpt><trkpt lat="42.8907283" lon="13.5171817"><ele>316.0</ele><time>2026-04-04T09:30:40.806Z</time></trkpt><trkpt lat="42.8907533" lon="13.5170633"><ele>316.0</ele><time>2026-04-04T09:30:41.805Z</time></trkpt><trkpt lat="42.89077" lon="13.5169517"><ele>316.0</ele><time>2026-04-04T09:30:42.805Z</time></trkpt><trkpt lat="42.8907733" lon="13.5168367"><ele>316.0</ele><time>2026-04-04T09:30:43.805Z</time></trkpt><trkpt lat="42.8907867" lon="13.5167217"><ele>316.0</ele><time>2026-04-04T09:30:44.806Z</time></trkpt><trkpt lat="42.8908067" lon="13.516625"><ele>316.0</ele><time>2026-04-04T09:30:45.805Z</time></trkpt><trkpt lat="42.8908267" lon="13.5165417"><ele>316.0</ele><time>2026-04-04T09:30:46.805Z</time></trkpt><trkpt lat="42.89083" lon="13.5163717"><ele>316.0</ele><time>2026-04-04T09:30:48.805Z</time></trkpt><trkpt lat="42.8907917" lon="13.5162217"><ele>316.0</ele><time>2026-04-04T09:30:50.806Z</time></trkpt><trkpt lat="42.8907483" lon="13.5161167"><ele>316.0</ele><time>2026-04-04T09:30:52.805Z</time></trkpt><trkpt lat="42.8907283" lon="13.5159833"><ele>316.0</ele><time>2026-04-04T09:30:54.806Z</time></trkpt><trkpt lat="42.8907267" lon="13.515815"><ele>315.6</ele><time>2026-04-04T09:30:56.805Z</time></trkpt><trkpt lat="42.8907417" lon="13.51572"><ele>315.20000000000005</ele><time>2026-04-04T09:30:57.806Z</time></trkpt><trkpt lat="42.8907633" lon="13.5156167"><ele>314.79999999999995</ele><time>2026-04-04T09:30:58.805Z</time></trkpt><trkpt lat="42.89079" lon="13.515495"><ele>314.4</ele><time>2026-04-04T09:30:59.805Z</time></trkpt><trkpt lat="42.8908367" lon="13.51535"><ele>314.0</ele><time>2026-04-04T09:31:00.805Z</time></trkpt><trkpt lat="42.8908933" lon="13.5152167"><ele>318.83333333333337</ele><time>2026-04-04T09:31:01.805Z</time></trkpt><trkpt lat="42.890945" lon="13.5150867"><ele>323.6666666666667</ele><time>2026-04-04T09:31:02.806Z</time></trkpt><trkpt lat="42.890975" lon="13.514975"><ele>328.5</ele><time>2026-04-04T09:31:03.806Z</time></trkpt><trkpt lat="42.8910017" lon="13.5148767"><ele>333.3333333333333</ele><time>2026-04-04T09:31:04.805Z</time></trkpt><trkpt lat="42.8910167" lon="13.51477"><ele>338.16666666666663</ele><time>2026-04-04T09:31:05.806Z</time></trkpt><trkpt lat="42.891005" lon="13.5146783"><ele>343.0</ele><time>2026-04-04T09:31:06.806Z</time></trkpt><trkpt lat="42.8909867" lon="13.5145917"><ele>340.79999999999995</ele><time>2026-04-04T09:31:07.805Z</time></trkpt><trkpt lat="42.890965" lon="13.5145033"><ele>338.6</ele><time>2026-04-04T09:31:08.805Z</time></trkpt><trkpt lat="42.8909367" lon="13.5144233"><ele>336.4</ele><time>2026-04-04T09:31:09.806Z</time></trkpt><trkpt lat="42.8909117" lon="13.51426"><ele>334.20000000000005</ele><time>2026-04-04T09:31:11.806Z</time></trkpt><trkpt lat="42.8909017" lon="13.5140967"><ele>332.0</ele><time>2026-04-04T09:31:13.806Z</time></trkpt><trkpt lat="42.8909317" lon="13.5139317"><ele>332.0</ele><time>2026-04-04T09:31:15.805Z</time></trkpt><trkpt lat="42.8909433" lon="13.5138183"><ele>332.0</ele><time>2026-04-04T09:31:16.805Z</time></trkpt><trkpt lat="42.8909433" lon="13.513705"><ele>332.0</ele><time>2026-04-04T09:31:17.805Z</time></trkpt><trkpt lat="42.8909483" lon="13.513605"><ele>332.0</ele><time>2026-04-04T09:31:18.805Z</time></trkpt><trkpt lat="42.89095" lon="13.5135117"><ele>332.0</ele><time>2026-04-04T09:31:19.805Z</time></trkpt><trkpt lat="42.8909583" lon="13.5134167"><ele>332.0</ele><time>2026-04-04T09:31:20.806Z</time></trkpt><trkpt lat="42.890965" lon="13.5133233"><ele>332.0</ele><time>2026-04-04T09:31:21.805Z</time></trkpt><trkpt lat="42.89098" lon="13.5132233"><ele>331.40000000000003</ele><time>2026-04-04T09:31:22.806Z</time></trkpt><trkpt lat="42.8909917" lon="13.513135"><ele>330.8</ele><time>2026-04-04T09:31:23.805Z</time></trkpt><trkpt lat="42.8910083" lon="13.5130133"><ele>330.2</ele><time>2026-04-04T09:31:25.805Z</time></trkpt><trkpt lat="42.891035" lon="13.5129067"><ele>329.6</ele><time>2026-04-04T09:31:28.806Z</time></trkpt><trkpt lat="42.8910533" lon="13.5128067"><ele>329.0</ele><time>2026-04-04T09:31:30.806Z</time></trkpt><trkpt lat="42.891085" lon="13.512615"><ele>328.4</ele><time>2026-04-04T09:31:32.805Z</time></trkpt><trkpt lat="42.891105" lon="13.51248"><ele>327.79999999999995</ele><time>2026-04-04T09:31:33.805Z</time></trkpt><trkpt lat="42.8911267" lon="13.512345"><ele>327.20000000000005</ele><time>2026-04-04T09:31:34.805Z</time></trkpt><trkpt lat="42.8911517" lon="13.5122083"><ele>326.6</ele><time>2026-04-04T09:31:35.805Z</time></trkpt><trkpt lat="42.8911783" lon="13.5120817"><ele>326.0</ele><time>2026-04-04T09:31:36.805Z</time></trkpt><trkpt lat="42.8911967" lon="13.5119567"><ele>324.83333333333337</ele><time>2026-04-04T09:31:37.805Z</time></trkpt><trkpt lat="42.8912083" lon="13.511835"><ele>323.6666666666667</ele><time>2026-04-04T09:31:38.805Z</time></trkpt><trkpt lat="42.891215" lon="13.5117233"><ele>322.5</ele><time>2026-04-04T09:31:39.805Z</time></trkpt><trkpt lat="42.891225" lon="13.511615"><ele>321.3333333333333</ele><time>2026-04-04T09:31:40.806Z</time></trkpt><trkpt lat="42.8912433" lon="13.511495"><ele>320.16666666666663</ele><time>2026-04-04T09:31:41.805Z</time></trkpt><trkpt lat="42.8912533" lon="13.51137"><ele>319.0</ele><time>2026-04-04T09:31:42.805Z</time></trkpt><trkpt lat="42.891255" lon="13.511245"><ele>317.8333333333333</ele><time>2026-04-04T09:31:43.805Z</time></trkpt><trkpt lat="42.8912533" lon="13.511115"><ele>316.66666666666663</ele><time>2026-04-04T09:31:44.806Z</time></trkpt><trkpt lat="42.8912433" lon="13.510995"><ele>315.5</ele><time>2026-04-04T09:31:45.805Z</time></trkpt><trkpt lat="42.8912467" lon="13.510895"><ele>314.3333333333333</ele><time>2026-04-04T09:31:46.805Z</time></trkpt><trkpt lat="42.8912417" lon="13.5107467"><ele>313.1666666666667</ele><time>2026-04-04T09:31:48.806Z</time></trkpt><trkpt lat="42.8912567" lon="13.5106367"><ele>312.0</ele><time>2026-04-04T09:31:50.806Z</time></trkpt><trkpt lat="42.8912933" lon="13.5105217"><ele>312.0</ele><time>2026-04-04T09:31:52.805Z</time></trkpt><trkpt lat="42.891325" lon="13.51041"><ele>312.0</ele><time>2026-04-04T09:31:53.806Z</time></trkpt><trkpt lat="42.891355" lon="13.5102983"><ele>312.0</ele><time>2026-04-04T09:31:54.805Z</time></trkpt><trkpt lat="42.89139" lon="13.5102233"><ele>312.0</ele><time>2026-04-04T09:31:55.805Z</time></trkpt><trkpt lat="42.8914383" lon="13.5101667"><ele>312.0</ele><time>2026-04-04T09:31:56.806Z</time></trkpt><trkpt lat="42.8915017" lon="13.51011"><ele>312.0</ele><time>2026-04-04T09:31:57.805Z</time></trkpt><trkpt lat="42.89157" lon="13.510055"><ele>310.0</ele><time>2026-04-04T09:31:58.805Z</time></trkpt><trkpt lat="42.891635" lon="13.5100117"><ele>308.0</ele><time>2026-04-04T09:31:59.805Z</time></trkpt><trkpt lat="42.8917033" lon="13.509985"><ele>306.0</ele><time>2026-04-04T09:32:00.805Z</time></trkpt><trkpt lat="42.8917667" lon="13.5099717"><ele>304.0</ele><time>2026-04-04T09:32:01.806Z</time></trkpt><trkpt lat="42.8918383" lon="13.5099783"><ele>302.0</ele><time>2026-04-04T09:32:02.806Z</time></trkpt><trkpt lat="42.8919033" lon="13.5099917"><ele>300.0</ele><time>2026-04-04T09:32:03.805Z</time></trkpt><trkpt lat="42.8919967" lon="13.5100367"><ele>298.0</ele><time>2026-04-04T09:32:05.806Z</time></trkpt><trkpt lat="42.892065" lon="13.510145"><ele>297.2</ele><time>2026-04-04T09:32:07.805Z</time></trkpt><trkpt lat="42.8921267" lon="13.5102733"><ele>296.4</ele><time>2026-04-04T09:32:09.806Z</time></trkpt><trkpt lat="42.8921833" lon="13.5103983"><ele>295.59999999999997</ele><time>2026-04-04T09:32:11.806Z</time></trkpt><trkpt lat="42.8922267" lon="13.5104617"><ele>294.8</ele><time>2026-04-04T09:32:12.805Z</time></trkpt><trkpt lat="42.8922717" lon="13.510525"><ele>294.0</ele><time>2026-04-04T09:32:13.805Z</time></trkpt><trkpt lat="42.8923533" lon="13.5106433"><ele>294.0</ele><time>2026-04-04T09:32:15.805Z</time></trkpt><trkpt lat="42.892395" lon="13.5107117"><ele>294.0</ele><time>2026-04-04T09:32:16.806Z</time></trkpt><trkpt lat="42.8924717" lon="13.5108517"><ele>294.0</ele><time>2026-04-04T09:32:18.806Z</time></trkpt><trkpt lat="42.8925117" lon="13.5109217"><ele>294.0</ele><time>2026-04-04T09:32:19.805Z</time></trkpt><trkpt lat="42.8925517" lon="13.511"><ele>294.0</ele><time>2026-04-04T09:32:20.806Z</time></trkpt><trkpt lat="42.8925933" lon="13.51108"><ele>294.0</ele><time>2026-04-04T09:32:21.806Z</time></trkpt><trkpt lat="42.8926267" lon="13.5111617"><ele>293.5</ele><time>2026-04-04T09:32:22.805Z</time></trkpt><trkpt lat="42.892655" lon="13.5112483"><ele>293.0</ele><time>2026-04-04T09:32:23.806Z</time></trkpt><trkpt lat="42.8926917" lon="13.5113283"><ele>292.5</ele><time>2026-04-04T09:32:24.805Z</time></trkpt><trkpt lat="42.892735" lon="13.5114117"><ele>292.0</ele><time>2026-04-04T09:32:25.805Z</time></trkpt><trkpt lat="42.8927717" lon="13.511495"><ele>291.5</ele><time>2026-04-04T09:32:26.805Z</time></trkpt><trkpt lat="42.8928233" lon="13.511625"><ele>291.0</ele><time>2026-04-04T09:32:28.805Z</time></trkpt><trkpt lat="42.8928833" lon="13.5116917"><ele>291.0</ele><time>2026-04-04T09:32:30.805Z</time></trkpt><trkpt lat="42.8929583" lon="13.5116917"><ele>291.0</ele><time>2026-04-04T09:32:32.806Z</time></trkpt><trkpt lat="42.8930233" lon="13.5116267"><ele>291.0</ele><time>2026-04-04T09:32:34.806Z</time></trkpt><trkpt lat="42.8929783" lon="13.511515"><ele>291.0</ele><time>2026-04-04T09:32:36.806Z</time></trkpt><trkpt lat="42.89289" lon="13.5114133"><ele>291.0</ele><time>2026-04-04T09:32:38.805Z</time></trkpt><trkpt lat="42.8928417" lon="13.5112783"><ele>291.0</ele><time>2026-04-04T09:32:40.805Z</time></trkpt><trkpt lat="42.8928217" lon="13.5111967"><ele>291.0</ele><time>2026-04-04T09:32:41.805Z</time></trkpt><trkpt lat="42.8927967" lon="13.5110433"><ele>291.0</ele><time>2026-04-04T09:32:43.805Z</time></trkpt><trkpt lat="42.892775" lon="13.5109267"><ele>291.0</ele><time>2026-04-04T09:32:45.805Z</time></trkpt><trkpt lat="42.89278" lon="13.5108133"><ele>291.0</ele><time>2026-04-04T09:32:53.806Z</time></trkpt><trkpt lat="42.8927867" lon="13.510715"><ele>291.0</ele><time>2026-04-04T09:32:59.805Z</time></trkpt><trkpt lat="42.8927983" lon="13.510595"><ele>291.0</ele><time>2026-04-04T09:33:01.805Z</time></trkpt><trkpt lat="42.8928217" lon="13.5104217"><ele>291.0</ele><time>2026-04-04T09:33:03.806Z</time></trkpt><trkpt lat="42.8928217" lon="13.5102883"><ele>291.0</ele><time>2026-04-04T09:36:26.805Z</time></trkpt><trkpt lat="42.8928533" lon="13.5101183"><ele>291.0</ele><time>2026-04-04T09:36:28.805Z</time></trkpt><trkpt lat="42.8928817" lon="13.5100217"><ele>291.0</ele><time>2026-04-04T09:36:29.806Z</time></trkpt><trkpt lat="42.892945" lon="13.5098967"><ele>291.5</ele><time>2026-04-04T09:36:31.805Z</time></trkpt><trkpt lat="42.8930117" lon="13.5098167"><ele>292.0</ele><time>2026-04-04T09:36:33.805Z</time></trkpt><trkpt lat="42.8931117" lon="13.5097567"><ele>292.5</ele><time>2026-04-04T09:36:35.805Z</time></trkpt><trkpt lat="42.89316" lon="13.5098183"><ele>293.0</ele><time>2026-04-04T09:37:01.804Z</time></trkpt><trkpt lat="42.8932217" lon="13.5098417"><ele>293.5</ele><time>2026-04-04T09:37:04.805Z</time></trkpt><trkpt lat="42.8932783" lon="13.5097733"><ele>294.0</ele><time>2026-04-04T09:37:07.804Z</time></trkpt><trkpt lat="42.893225" lon="13.5098433"><ele>294.0</ele><time>2026-04-04T09:37:28.804Z</time></trkpt><trkpt lat="42.8931467" lon="13.5098483"><ele>294.0</ele><time>2026-04-04T09:37:30.804Z</time></trkpt><trkpt lat="42.8930783" lon="13.509775"><ele>294.0</ele><time>2026-04-04T09:37:58.804Z</time></trkpt><trkpt lat="42.8930167" lon="13.5097333"><ele>294.0</ele><time>2026-04-04T09:38:03.804Z</time></trkpt><trkpt lat="42.8930133" lon="13.50986"><ele>294.0</ele><time>2026-04-04T09:40:38.805Z</time></trkpt><trkpt lat="42.8929583" lon="13.5099367"><ele>294.0</ele><time>2026-04-04T09:40:39.804Z</time></trkpt><trkpt lat="42.8929083" lon="13.510035"><ele>294.0</ele><time>2026-04-04T09:40:40.804Z</time></trkpt><trkpt lat="42.892865" lon="13.5101683"><ele>294.0</ele><time>2026-04-04T09:40:41.804Z</time></trkpt><trkpt lat="42.89283" lon="13.5103167"><ele>294.0</ele><time>2026-04-04T09:40:42.804Z</time></trkpt><trkpt lat="42.8928183" lon="13.5104317"><ele>294.0</ele><time>2026-04-04T09:40:43.804Z</time></trkpt><trkpt lat="42.8928283" lon="13.510545"><ele>294.0</ele><time>2026-04-04T09:40:45.805Z</time></trkpt><trkpt lat="42.8927833" lon="13.5106283"><ele>293.4</ele><time>2026-04-04T09:40:51.804Z</time></trkpt><trkpt lat="42.8927817" lon="13.5107167"><ele>292.79999999999995</ele><time>2026-04-04T09:40:55.805Z</time></trkpt><trkpt lat="42.8927867" lon="13.5108217"><ele>292.20000000000005</ele><time>2026-04-04T09:40:57.804Z</time></trkpt><trkpt lat="42.8927967" lon="13.510985"><ele>291.6</ele><time>2026-04-04T09:40:59.805Z</time></trkpt><trkpt lat="42.8928333" lon="13.5111583"><ele>291.0</ele><time>2026-04-04T09:41:01.804Z</time></trkpt><trkpt lat="42.8928633" lon="13.5112617"><ele>291.0</ele><time>2026-04-04T09:41:02.805Z</time></trkpt><trkpt lat="42.8928917" lon="13.51137"><ele>291.0</ele><time>2026-04-04T09:41:03.804Z</time></trkpt><trkpt lat="42.89293" lon="13.5114733"><ele>291.0</ele><time>2026-04-04T09:41:04.804Z</time></trkpt><trkpt lat="42.8929783" lon="13.51157"><ele>291.0</ele><time>2026-04-04T09:41:05.804Z</time></trkpt><trkpt lat="42.89301" lon="13.5116467"><ele>291.0</ele><time>2026-04-04T09:41:06.804Z</time></trkpt><trkpt lat="42.8930083" lon="13.5117383"><ele>291.0</ele><time>2026-04-04T09:41:08.804Z</time></trkpt><trkpt lat="42.8929217" lon="13.5117167"><ele>291.0</ele><time>2026-04-04T09:41:10.805Z</time></trkpt><trkpt lat="42.8928633" lon="13.51168"><ele>291.0</ele><time>2026-04-04T09:41:11.805Z</time></trkpt><trkpt lat="42.89278" lon="13.5115333"><ele>291.0</ele><time>2026-04-04T09:41:13.805Z</time></trkpt><trkpt lat="42.8927283" lon="13.5114233"><ele>291.0</ele><time>2026-04-04T09:41:14.804Z</time></trkpt><trkpt lat="42.8926867" lon="13.5113133"><ele>291.0</ele><time>2026-04-04T09:41:15.805Z</time></trkpt><trkpt lat="42.89265" lon="13.5112"><ele>291.0</ele><time>2026-04-04T09:41:16.804Z</time></trkpt><trkpt lat="42.8926083" lon="13.5110783"><ele>291.0</ele><time>2026-04-04T09:41:17.804Z</time></trkpt><trkpt lat="42.89255" lon="13.5109617"><ele>291.0</ele><time>2026-04-04T09:41:18.805Z</time></trkpt><trkpt lat="42.892485" lon="13.51086"><ele>291.0</ele><time>2026-04-04T09:41:19.804Z</time></trkpt><trkpt lat="42.892425" lon="13.5107633"><ele>291.0</ele><time>2026-04-04T09:41:20.804Z</time></trkpt><trkpt lat="42.892365" lon="13.51068"><ele>290.6666666666667</ele><time>2026-04-04T09:41:21.805Z</time></trkpt><trkpt lat="42.892315" lon="13.5106033"><ele>290.3333333333333</ele><time>2026-04-04T09:41:22.804Z</time></trkpt><trkpt lat="42.8922583" lon="13.510525"><ele>290.0</ele><time>2026-04-04T09:41:23.803Z</time></trkpt><trkpt lat="42.8922067" lon="13.5104217"><ele>289.66666666666663</ele><time>2026-04-04T09:41:24.804Z</time></trkpt><trkpt lat="42.8921483" lon="13.510305"><ele>289.3333333333333</ele><time>2026-04-04T09:41:25.803Z</time></trkpt><trkpt lat="42.892095" lon="13.5102017"><ele>289.0</ele><time>2026-04-04T09:41:26.803Z</time></trkpt><trkpt lat="42.8920467" lon="13.510105"><ele>289.0</ele><time>2026-04-04T09:41:27.803Z</time></trkpt><trkpt lat="42.8919933" lon="13.5100283"><ele>289.0</ele><time>2026-04-04T09:41:28.803Z</time></trkpt><trkpt lat="42.8919283" lon="13.50997"><ele>289.0</ele><time>2026-04-04T09:41:29.803Z</time></trkpt><trkpt lat="42.8918567" lon="13.5099383"><ele>289.0</ele><time>2026-04-04T09:41:30.803Z</time></trkpt><trkpt lat="42.89174" lon="13.5099383"><ele>289.0</ele><time>2026-04-04T09:41:32.803Z</time></trkpt><trkpt lat="42.8916617" lon="13.50998"><ele>289.0</ele><time>2026-04-04T09:41:34.803Z</time></trkpt><trkpt lat="42.89159" lon="13.5100267"><ele>290.8</ele><time>2026-04-04T09:41:36.804Z</time></trkpt><trkpt lat="42.8915033" lon="13.510105"><ele>292.59999999999997</ele><time>2026-04-04T09:41:38.803Z</time></trkpt><trkpt lat="42.8913983" lon="13.5101667"><ele>294.4</ele><time>2026-04-04T09:41:40.803Z</time></trkpt><trkpt lat="42.8913217" lon="13.5102717"><ele>296.2</ele><time>2026-04-04T09:41:42.804Z</time></trkpt><trkpt lat="42.8912933" lon="13.510425"><ele>298.0</ele><time>2026-04-04T09:41:44.804Z</time></trkpt><trkpt lat="42.891285" lon="13.510555"><ele>300.3333333333333</ele><time>2026-04-04T09:41:46.804Z</time></trkpt><trkpt lat="42.8912633" lon="13.51064"><ele>302.66666666666663</ele><time>2026-04-04T09:41:48.804Z</time></trkpt><trkpt lat="42.8912517" lon="13.5107533"><ele>305.0</ele><time>2026-04-04T09:41:50.803Z</time></trkpt><trkpt lat="42.8912533" lon="13.5109233"><ele>307.3333333333333</ele><time>2026-04-04T09:41:52.803Z</time></trkpt><trkpt lat="42.8912567" lon="13.51102"><ele>309.6666666666667</ele><time>2026-04-04T09:41:53.803Z</time></trkpt><trkpt lat="42.8912533" lon="13.5111283"><ele>312.0</ele><time>2026-04-04T09:41:54.803Z</time></trkpt><trkpt lat="42.89126" lon="13.5112367"><ele>313.1666666666667</ele><time>2026-04-04T09:41:55.804Z</time></trkpt><trkpt lat="42.8912667" lon="13.5113317"><ele>314.3333333333333</ele><time>2026-04-04T09:41:56.803Z</time></trkpt><trkpt lat="42.8912583" lon="13.5114283"><ele>315.5</ele><time>2026-04-04T09:41:57.803Z</time></trkpt><trkpt lat="42.8912417" lon="13.511555"><ele>316.66666666666663</ele><time>2026-04-04T09:41:58.804Z</time></trkpt><trkpt lat="42.8912283" lon="13.5116833"><ele>317.8333333333333</ele><time>2026-04-04T09:41:59.803Z</time></trkpt><trkpt lat="42.891215" lon="13.5118067"><ele>319.0</ele><time>2026-04-04T09:42:00.804Z</time></trkpt><trkpt lat="42.8912033" lon="13.511915"><ele>319.0</ele><time>2026-04-04T09:42:01.803Z</time></trkpt><trkpt lat="42.8911867" lon="13.5120283"><ele>319.0</ele><time>2026-04-04T09:42:02.804Z</time></trkpt><trkpt lat="42.8911733" lon="13.5121333"><ele>319.0</ele><time>2026-04-04T09:42:03.804Z</time></trkpt><trkpt lat="42.8911633" lon="13.5122417"><ele>319.0</ele><time>2026-04-04T09:42:04.803Z</time></trkpt><trkpt lat="42.8911483" lon="13.5123467"><ele>319.0</ele><time>2026-04-04T09:42:05.803Z</time></trkpt><trkpt lat="42.8911283" lon="13.5124567"><ele>319.0</ele><time>2026-04-04T09:42:06.804Z</time></trkpt><trkpt lat="42.8911067" lon="13.5125617"><ele>320.16666666666663</ele><time>2026-04-04T09:42:07.803Z</time></trkpt><trkpt lat="42.89109" lon="13.5126567"><ele>321.3333333333333</ele><time>2026-04-04T09:42:08.803Z</time></trkpt><trkpt lat="42.891055" lon="13.51279"><ele>322.5</ele><time>2026-04-04T09:42:10.803Z</time></trkpt><trkpt lat="42.8910483" lon="13.51288"><ele>323.6666666666667</ele><time>2026-04-04T09:42:12.803Z</time></trkpt><trkpt lat="42.891035" lon="13.512995"><ele>324.83333333333337</ele><time>2026-04-04T09:42:14.804Z</time></trkpt><trkpt lat="42.8910233" lon="13.5130833"><ele>326.0</ele><time>2026-04-04T09:42:15.803Z</time></trkpt><trkpt lat="42.891005" lon="13.5131967"><ele>326.6</ele><time>2026-04-04T09:42:16.803Z</time></trkpt><trkpt lat="42.8909833" lon="13.5133417"><ele>327.20000000000005</ele><time>2026-04-04T09:42:17.803Z</time></trkpt><trkpt lat="42.8909633" lon="13.5134867"><ele>327.79999999999995</ele><time>2026-04-04T09:42:18.803Z</time></trkpt><trkpt lat="42.8909617" lon="13.5136317"><ele>328.4</ele><time>2026-04-04T09:42:19.804Z</time></trkpt><trkpt lat="42.890955" lon="13.5137767"><ele>329.0</ele><time>2026-04-04T09:42:20.803Z</time></trkpt><trkpt lat="42.8909433" lon="13.5139117"><ele>329.5</ele><time>2026-04-04T09:42:21.803Z</time></trkpt><trkpt lat="42.8909317" lon="13.51404"><ele>330.0</ele><time>2026-04-04T09:42:22.804Z</time></trkpt><trkpt lat="42.8909167" lon="13.5141483"><ele>330.5</ele><time>2026-04-04T09:42:23.803Z</time></trkpt><trkpt lat="42.89091" lon="13.5142383"><ele>331.0</ele><time>2026-04-04T09:42:24.803Z</time></trkpt><trkpt lat="42.890925" lon="13.514335"><ele>331.5</ele><time>2026-04-04T09:42:25.804Z</time></trkpt><trkpt lat="42.8909483" lon="13.5144233"><ele>332.0</ele><time>2026-04-04T09:42:26.804Z</time></trkpt><trkpt lat="42.890975" lon="13.5145133"><ele>333.83333333333337</ele><time>2026-04-04T09:42:27.803Z</time></trkpt><trkpt lat="42.891" lon="13.514605"><ele>335.6666666666667</ele><time>2026-04-04T09:42:28.803Z</time></trkpt><trkpt lat="42.8910217" lon="13.51471"><ele>337.5</ele><time>2026-04-04T09:42:29.803Z</time></trkpt><trkpt lat="42.89103" lon="13.5148117"><ele>339.3333333333333</ele><time>2026-04-04T09:42:30.803Z</time></trkpt><trkpt lat="42.8910183" lon="13.51493"><ele>341.16666666666663</ele><time>2026-04-04T09:42:31.803Z</time></trkpt><trkpt lat="42.8909917" lon="13.51506"><ele>343.0</ele><time>2026-04-04T09:42:32.803Z</time></trkpt><trkpt lat="42.8909267" lon="13.5152267"><ele>337.2</ele><time>2026-04-04T09:42:33.803Z</time></trkpt><trkpt lat="42.890855" lon="13.5153717"><ele>331.4</ele><time>2026-04-04T09:42:34.804Z</time></trkpt><trkpt lat="42.8907983" lon="13.515495"><ele>325.59999999999997</ele><time>2026-04-04T09:42:35.803Z</time></trkpt><trkpt lat="42.8907583" lon="13.51561"><ele>319.79999999999995</ele><time>2026-04-04T09:42:36.804Z</time></trkpt><trkpt lat="42.8907333" lon="13.515705"><ele>314.0</ele><time>2026-04-04T09:42:37.803Z</time></trkpt><trkpt lat="42.8907217" lon="13.5157983"><ele>314.0</ele><time>2026-04-04T09:42:38.803Z</time></trkpt><trkpt lat="42.8907083" lon="13.5159583"><ele>314.0</ele><time>2026-04-04T09:42:40.803Z</time></trkpt><trkpt lat="42.8907233" lon="13.516045"><ele>314.0</ele><time>2026-04-04T09:42:41.804Z</time></trkpt><trkpt lat="42.8907567" lon="13.5162017"><ele>314.0</ele><time>2026-04-04T09:42:43.804Z</time></trkpt><trkpt lat="42.8907917" lon="13.516295"><ele>314.0</ele><time>2026-04-04T09:42:44.803Z</time></trkpt><trkpt lat="42.890825" lon="13.5163817"><ele>314.4</ele><time>2026-04-04T09:42:45.804Z</time></trkpt><trkpt lat="42.89085" lon="13.5165067"><ele>314.79999999999995</ele><time>2026-04-04T09:42:47.803Z</time></trkpt><trkpt lat="42.8908017" lon="13.5166133"><ele>315.20000000000005</ele><time>2026-04-04T09:42:49.803Z</time></trkpt><trkpt lat="42.8907667" lon="13.5167183"><ele>315.6</ele><time>2026-04-04T09:42:51.803Z</time></trkpt><trkpt lat="42.89075" lon="13.5168633"><ele>316.0</ele><time>2026-04-04T09:42:53.803Z</time></trkpt><trkpt lat="42.89074" lon="13.51705"><ele>316.0</ele><time>2026-04-04T09:42:55.803Z</time></trkpt><trkpt lat="42.8907267" lon="13.517165"><ele>316.0</ele><time>2026-04-04T09:42:56.804Z</time></trkpt><trkpt lat="42.89071" lon="13.517285"><ele>316.0</ele><time>2026-04-04T09:42:57.803Z</time></trkpt><trkpt lat="42.89067" lon="13.5174067"><ele>316.0</ele><time>2026-04-04T09:42:58.804Z</time></trkpt><trkpt lat="42.8906233" lon="13.5175183"><ele>316.0</ele><time>2026-04-04T09:42:59.803Z</time></trkpt><trkpt lat="42.8905917" lon="13.5176083"><ele>316.0</ele><time>2026-04-04T09:43:00.804Z</time></trkpt><trkpt lat="42.8905683" lon="13.5176917"><ele>316.0</ele><time>2026-04-04T09:43:01.803Z</time></trkpt><trkpt lat="42.890485" lon="13.5177917"><ele>316.0</ele><time>2026-04-04T09:43:03.803Z</time></trkpt><trkpt lat="42.89042" lon="13.51783"><ele>316.0</ele><time>2026-04-04T09:43:04.803Z</time></trkpt><trkpt lat="42.890355" lon="13.5178683"><ele>316.0</ele><time>2026-04-04T09:43:05.803Z</time></trkpt><trkpt lat="42.8902867" lon="13.517905"><ele>316.0</ele><time>2026-04-04T09:43:06.803Z</time></trkpt><trkpt lat="42.8902267" lon="13.5179367"><ele>316.0</ele><time>2026-04-04T09:43:07.803Z</time></trkpt><trkpt lat="42.8901567" lon="13.5179767"><ele>315.5</ele><time>2026-04-04T09:43:08.803Z</time></trkpt><trkpt lat="42.8900933" lon="13.5180167"><ele>315.0</ele><time>2026-04-04T09:43:09.803Z</time></trkpt><trkpt lat="42.8900283" lon="13.518055"><ele>314.5</ele><time>2026-04-04T09:43:10.804Z</time></trkpt><trkpt lat="42.8899633" lon="13.5180917"><ele>314.0</ele><time>2026-04-04T09:43:11.804Z</time></trkpt><trkpt lat="42.8898667" lon="13.5181667"><ele>313.5</ele><time>2026-04-04T09:43:13.803Z</time></trkpt><trkpt lat="42.889805" lon="13.5182833"><ele>313.0</ele><time>2026-04-04T09:43:15.804Z</time></trkpt><trkpt lat="42.889805" lon="13.5184483"><ele>308.0</ele><time>2026-04-04T09:43:17.804Z</time></trkpt><trkpt lat="42.8898717" lon="13.5185733"><ele>303.0</ele><time>2026-04-04T09:43:19.803Z</time></trkpt><trkpt lat="42.8899133" lon="13.5186383"><ele>298.0</ele><time>2026-04-04T09:43:20.803Z</time></trkpt><trkpt lat="42.8899633" lon="13.5187067"><ele>293.0</ele><time>2026-04-04T09:43:21.803Z</time></trkpt><trkpt lat="42.8899917" lon="13.5188467"><ele>288.0</ele><time>2026-04-04T09:43:23.804Z</time></trkpt><trkpt lat="42.8899583" lon="13.5189717"><ele>287.5</ele><time>2026-04-04T09:43:25.804Z</time></trkpt><trkpt lat="42.88988" lon="13.5190683"><ele>287.0</ele><time>2026-04-04T09:43:27.803Z</time></trkpt><trkpt lat="42.8898183" lon="13.5190933"><ele>286.5</ele><time>2026-04-04T09:43:28.804Z</time></trkpt><trkpt lat="42.8897483" lon="13.5191167"><ele>286.0</ele><time>2026-04-04T09:43:29.804Z</time></trkpt><trkpt lat="42.889665" lon="13.5191217"><ele>285.5</ele><time>2026-04-04T09:43:30.803Z</time></trkpt><trkpt lat="42.8895817" lon="13.5191167"><ele>285.0</ele><time>2026-04-04T09:43:31.803Z</time></trkpt><trkpt lat="42.8894933" lon="13.5190867"><ele>285.0</ele><time>2026-04-04T09:43:32.804Z</time></trkpt><trkpt lat="42.8894067" lon="13.519055"><ele>285.0</ele><time>2026-04-04T09:43:33.803Z</time></trkpt><trkpt lat="42.8893233" lon="13.5190283"><ele>285.0</ele><time>2026-04-04T09:43:34.804Z</time></trkpt><trkpt lat="42.8892467" lon="13.5190133"><ele>285.0</ele><time>2026-04-04T09:43:35.803Z</time></trkpt><trkpt lat="42.889175" lon="13.5190067"><ele>285.0</ele><time>2026-04-04T09:43:36.803Z</time></trkpt><trkpt lat="42.889105" lon="13.51901"><ele>285.0</ele><time>2026-04-04T09:43:37.803Z</time></trkpt><trkpt lat="42.8890417" lon="13.5190167"><ele>285.5</ele><time>2026-04-04T09:43:38.803Z</time></trkpt><trkpt lat="42.8889267" lon="13.5190517"><ele>286.0</ele><time>2026-04-04T09:43:40.804Z</time></trkpt><trkpt lat="42.8888133" lon="13.5190933"><ele>286.5</ele><time>2026-04-04T09:43:42.803Z</time></trkpt><trkpt lat="42.8887533" lon="13.5191233"><ele>287.0</ele><time>2026-04-04T09:43:43.803Z</time></trkpt><trkpt lat="42.888685" lon="13.519165"><ele>287.5</ele><time>2026-04-04T09:43:44.803Z</time></trkpt><trkpt lat="42.888615" lon="13.5191933"><ele>288.0</ele><time>2026-04-04T09:43:45.803Z</time></trkpt><trkpt lat="42.8885517" lon="13.5192117"><ele>288.0</ele><time>2026-04-04T09:43:46.804Z</time></trkpt><trkpt lat="42.8884617" lon="13.5192733"><ele>288.0</ele><time>2026-04-04T09:43:48.803Z</time></trkpt><trkpt lat="42.8884017" lon="13.5193667"><ele>288.0</ele><time>2026-04-04T09:43:50.803Z</time></trkpt><trkpt lat="42.8883433" lon="13.5194617"><ele>288.0</ele><time>2026-04-04T09:43:52.804Z</time></trkpt><trkpt lat="42.888295" lon="13.5195317"><ele>288.0</ele><time>2026-04-04T09:44:02.803Z</time></trkpt><trkpt lat="42.8883" lon="13.519445"><ele>288.0</ele><time>2026-04-04T09:44:17.804Z</time></trkpt><trkpt lat="42.8882017" lon="13.5194817"><ele>287.5</ele><time>2026-04-04T09:44:20.804Z</time></trkpt><trkpt lat="42.8881367" lon="13.5195317"><ele>287.0</ele><time>2026-04-04T09:44:21.803Z</time></trkpt><trkpt lat="42.8880583" lon="13.5195683"><ele>286.5</ele><time>2026-04-04T09:44:22.803Z</time></trkpt><trkpt lat="42.8879783" lon="13.519605"><ele>286.0</ele><time>2026-04-04T09:44:23.804Z</time></trkpt><trkpt lat="42.8878967" lon="13.5196667"><ele>285.5</ele><time>2026-04-04T09:44:24.803Z</time></trkpt><trkpt lat="42.8878233" lon="13.5197367"><ele>285.0</ele><time>2026-04-04T09:44:25.803Z</time></trkpt><trkpt lat="42.8877583" lon="13.5198033"><ele>285.0</ele><time>2026-04-04T09:44:26.803Z</time></trkpt><trkpt lat="42.8877017" lon="13.5198417"><ele>285.0</ele><time>2026-04-04T09:44:27.803Z</time></trkpt><trkpt lat="42.8876067" lon="13.5198267"><ele>285.0</ele><time>2026-04-04T09:44:29.804Z</time></trkpt><trkpt lat="42.8875417" lon="13.519715"><ele>285.0</ele><time>2026-04-04T09:44:31.804Z</time></trkpt><trkpt lat="42.887515" lon="13.5195817"><ele>285.0</ele><time>2026-04-04T09:44:32.803Z</time></trkpt><trkpt lat="42.887485" lon="13.5194517"><ele>282.6666666666667</ele><time>2026-04-04T09:44:33.803Z</time></trkpt><trkpt lat="42.887465" lon="13.5193483"><ele>280.3333333333333</ele><time>2026-04-04T09:44:34.803Z</time></trkpt><trkpt lat="42.8874167" lon="13.519225"><ele>278.0</ele><time>2026-04-04T09:44:36.803Z</time></trkpt><trkpt lat="42.8873483" lon="13.5191867"><ele>275.66666666666663</ele><time>2026-04-04T09:44:38.803Z</time></trkpt><trkpt lat="42.887295" lon="13.5190767"><ele>273.3333333333333</ele><time>2026-04-04T09:44:40.803Z</time></trkpt><trkpt lat="42.88728" lon="13.5189683"><ele>271.0</ele><time>2026-04-04T09:44:42.803Z</time></trkpt><trkpt lat="42.887295" lon="13.51886"><ele>271.0</ele><time>2026-04-04T09:44:45.804Z</time></trkpt><trkpt lat="42.88732" lon="13.5187767"><ele>271.0</ele><time>2026-04-04T09:45:43.804Z</time></trkpt><trkpt lat="42.8873383" lon="13.5186783"><ele>271.0</ele><time>2026-04-04T09:46:10.803Z</time></trkpt><trkpt lat="42.8873417" lon="13.5185817"><ele>271.0</ele><time>2026-04-04T09:46:12.802Z</time></trkpt><trkpt lat="42.887345" lon="13.5184733"><ele>271.0</ele><time>2026-04-04T09:46:14.802Z</time></trkpt><trkpt lat="42.8873917" lon="13.5184017"><ele>271.0</ele><time>2026-04-04T09:46:47.802Z</time></trkpt><trkpt lat="42.8874317" lon="13.5183233"><ele>271.0</ele><time>2026-04-04T09:46:53.802Z</time></trkpt><trkpt lat="42.8874967" lon="13.5182633"><ele>271.40000000000003</ele><time>2026-04-04T09:46:57.802Z</time></trkpt><trkpt lat="42.8875783" lon="13.5182267"><ele>271.8</ele><time>2026-04-04T09:46:59.803Z</time></trkpt><trkpt lat="42.8877067" lon="13.5181683"><ele>272.20000000000005</ele><time>2026-04-04T09:47:01.803Z</time></trkpt><trkpt lat="42.8877733" lon="13.5181583"><ele>272.6</ele><time>2026-04-04T09:47:02.802Z</time></trkpt><trkpt lat="42.88785" lon="13.5181283"><ele>273.0</ele><time>2026-04-04T09:47:04.802Z</time></trkpt><trkpt lat="42.8879383" lon="13.5180383"><ele>273.0</ele><time>2026-04-04T09:47:06.802Z</time></trkpt><trkpt lat="42.8880017" lon="13.5179817"><ele>273.0</ele><time>2026-04-04T09:47:07.802Z</time></trkpt><trkpt lat="42.8880683" lon="13.5179333"><ele>273.0</ele><time>2026-04-04T09:47:08.802Z</time></trkpt><trkpt lat="42.88814" lon="13.5179"><ele>273.0</ele><time>2026-04-04T09:47:09.803Z</time></trkpt><trkpt lat="42.888255" lon="13.51786"><ele>273.0</ele><time>2026-04-04T09:47:11.802Z</time></trkpt><trkpt lat="42.8883517" lon="13.5178333"><ele>273.0</ele><time>2026-04-04T09:47:13.803Z</time></trkpt><trkpt lat="42.88845" lon="13.5177967"><ele>272.8333333333333</ele><time>2026-04-04T09:47:15.802Z</time></trkpt><trkpt lat="42.88852" lon="13.51771"><ele>272.6666666666667</ele><time>2026-04-04T09:47:17.803Z</time></trkpt><trkpt lat="42.88857" lon="13.517595"><ele>272.5</ele><time>2026-04-04T09:47:19.802Z</time></trkpt><trkpt lat="42.88859" lon="13.5175017"><ele>272.33333333333337</ele><time>2026-04-04T09:47:20.802Z</time></trkpt><trkpt lat="42.88861" lon="13.51739"><ele>272.1666666666667</ele><time>2026-04-04T09:47:21.803Z</time></trkpt><trkpt lat="42.8886333" lon="13.517265"><ele>272.0</ele><time>2026-04-04T09:47:22.802Z</time></trkpt><trkpt lat="42.88864" lon="13.517145"><ele>272.4</ele><time>2026-04-04T09:47:23.802Z</time></trkpt><trkpt lat="42.8885917" lon="13.5170233"><ele>272.79999999999995</ele><time>2026-04-04T09:47:25.802Z</time></trkpt><trkpt lat="42.8884617" lon="13.5169717"><ele>273.2</ele><time>2026-04-04T09:47:27.802Z</time></trkpt><trkpt lat="42.888385" lon="13.5169517"><ele>273.59999999999997</ele><time>2026-04-04T09:47:28.802Z</time></trkpt><trkpt lat="42.888315" lon="13.5169283"><ele>274.0</ele><time>2026-04-04T09:47:29.803Z</time></trkpt><trkpt lat="42.888235" lon="13.5169083"><ele>275.66666666666663</ele><time>2026-04-04T09:47:30.802Z</time></trkpt><trkpt lat="42.8881617" lon="13.5168817"><ele>277.3333333333333</ele><time>2026-04-04T09:47:31.803Z</time></trkpt><trkpt lat="42.8880933" lon="13.516845"><ele>279.0</ele><time>2026-04-04T09:47:32.803Z</time></trkpt><trkpt lat="42.888025" lon="13.516795"><ele>280.6666666666667</ele><time>2026-04-04T09:47:33.802Z</time></trkpt><trkpt lat="42.8879633" lon="13.5167417"><ele>282.33333333333337</ele><time>2026-04-04T09:47:34.802Z</time></trkpt><trkpt lat="42.8878667" lon="13.5166733"><ele>284.0</ele><time>2026-04-04T09:47:36.803Z</time></trkpt><trkpt lat="42.8877817" lon="13.5167533"><ele>284.0</ele><time>2026-04-04T09:47:52.803Z</time></trkpt><trkpt lat="42.8877017" lon="13.5168033"><ele>284.0</ele><time>2026-04-04T09:47:53.802Z</time></trkpt><trkpt lat="42.8876083" lon="13.5168717"><ele>284.0</ele><time>2026-04-04T09:47:54.802Z</time></trkpt><trkpt lat="42.8875" lon="13.5169583"><ele>284.0</ele><time>2026-04-04T09:47:55.802Z</time></trkpt><trkpt lat="42.887395" lon="13.5170333"><ele>284.0</ele><time>2026-04-04T09:47:56.803Z</time></trkpt><trkpt lat="42.8873067" lon="13.517105"><ele>284.33333333333337</ele><time>2026-04-04T09:47:57.802Z</time></trkpt><trkpt lat="42.8872283" lon="13.5171617"><ele>284.6666666666667</ele><time>2026-04-04T09:47:58.802Z</time></trkpt><trkpt lat="42.8871567" lon="13.5171983"><ele>285.0</ele><time>2026-04-04T09:47:59.803Z</time></trkpt><trkpt lat="42.8870833" lon="13.5172233"><ele>285.3333333333333</ele><time>2026-04-04T09:48:00.802Z</time></trkpt><trkpt lat="42.8870083" lon="13.517245"><ele>285.66666666666663</ele><time>2026-04-04T09:48:01.802Z</time></trkpt><trkpt lat="42.88694" lon="13.5172833"><ele>286.0</ele><time>2026-04-04T09:48:02.802Z</time></trkpt><trkpt lat="42.8868767" lon="13.51735"><ele>286.0</ele><time>2026-04-04T09:48:03.802Z</time></trkpt><trkpt lat="42.886835" lon="13.51742"><ele>286.0</ele><time>2026-04-04T09:48:04.802Z</time></trkpt><trkpt lat="42.8867717" lon="13.5175433"><ele>286.0</ele><time>2026-04-04T09:48:06.802Z</time></trkpt><trkpt lat="42.8867283" lon="13.5176883"><ele>286.0</ele><time>2026-04-04T09:48:08.803Z</time></trkpt><trkpt lat="42.88669" lon="13.5177633"><ele>286.0</ele><time>2026-04-04T09:48:09.802Z</time></trkpt><trkpt lat="42.8866483" lon="13.5178333"><ele>286.0</ele><time>2026-04-04T09:48:10.803Z</time></trkpt><trkpt lat="42.8866033" lon="13.5179067"><ele>288.66666666666663</ele><time>2026-04-04T09:48:11.802Z</time></trkpt><trkpt lat="42.8865467" lon="13.5179983"><ele>291.3333333333333</ele><time>2026-04-04T09:48:12.802Z</time></trkpt><trkpt lat="42.8864833" lon="13.5181117"><ele>294.0</ele><time>2026-04-04T09:48:13.803Z</time></trkpt><trkpt lat="42.886425" lon="13.5182167"><ele>296.6666666666667</ele><time>2026-04-04T09:48:14.803Z</time></trkpt><trkpt lat="42.88638" lon="13.5183017"><ele>299.33333333333337</ele><time>2026-04-04T09:48:15.803Z</time></trkpt><trkpt lat="42.886335" lon="13.5183883"><ele>302.0</ele><time>2026-04-04T09:48:17.803Z</time></trkpt><trkpt lat="42.886265" lon="13.5183617"><ele>302.0</ele><time>2026-04-04T09:48:20.803Z</time></trkpt><trkpt lat="42.88618" lon="13.518335"><ele>302.0</ele><time>2026-04-04T09:49:40.802Z</time></trkpt><trkpt lat="42.886115" lon="13.51827"><ele>302.0</ele><time>2026-04-04T09:49:42.803Z</time></trkpt><trkpt lat="42.886065" lon="13.5182067"><ele>302.0</ele><time>2026-04-04T09:49:44.803Z</time></trkpt><trkpt lat="42.8861317" lon="13.518265"><ele>302.0</ele><time>2026-04-04T09:52:39.801Z</time></trkpt><trkpt lat="42.8860617" lon="13.5182167"><ele>302.0</ele><time>2026-04-04T09:52:41.802Z</time></trkpt><trkpt lat="42.886" lon="13.5181717"><ele>306.6</ele><time>2026-04-04T09:52:43.801Z</time></trkpt><trkpt lat="42.8859167" lon="13.5180883"><ele>311.2</ele><time>2026-04-04T09:53:24.802Z</time></trkpt><trkpt lat="42.8858433" lon="13.5180633"><ele>315.8</ele><time>2026-04-04T09:53:26.802Z</time></trkpt><trkpt lat="42.8857733" lon="13.5179783"><ele>320.4</ele><time>2026-04-04T09:59:22.8Z</time></trkpt><trkpt lat="42.8856533" lon="13.5179317"><ele>325.0</ele><time>2026-04-04T09:59:24.801Z</time></trkpt><trkpt lat="42.885565" lon="13.5179017"><ele>325.0</ele><time>2026-04-04T09:59:25.801Z</time></trkpt><trkpt lat="42.8854967" lon="13.5178833"><ele>325.0</ele><time>2026-04-04T09:59:26.801Z</time></trkpt><trkpt lat="42.8853867" lon="13.51784"><ele>325.0</ele><time>2026-04-04T09:59:28.801Z</time></trkpt><trkpt lat="42.8853167" lon="13.51789"><ele>325.0</ele><time>2026-04-04T09:59:30.8Z</time></trkpt><trkpt lat="42.8852533" lon="13.5179667"><ele>325.0</ele><time>2026-04-04T09:59:32.8Z</time></trkpt><trkpt lat="42.885175" lon="13.5180417"><ele>325.0</ele><time>2026-04-04T09:59:34.8Z</time></trkpt><trkpt lat="42.8851367" lon="13.5181483"><ele>325.0</ele><time>2026-04-04T09:59:36.8Z</time></trkpt><trkpt lat="42.88515" lon="13.5182433"><ele>325.0</ele><time>2026-04-04T09:59:38.8Z</time></trkpt><trkpt lat="42.8851683" lon="13.518375"><ele>325.0</ele><time>2026-04-04T09:59:40.801Z</time></trkpt><trkpt lat="42.885145" lon="13.51857"><ele>325.0</ele><time>2026-04-04T09:59:42.801Z</time></trkpt><trkpt lat="42.8851267" lon="13.5186733"><ele>325.0</ele><time>2026-04-04T09:59:43.8Z</time></trkpt><trkpt lat="42.8851083" lon="13.5187817"><ele>324.4</ele><time>2026-04-04T09:59:44.8Z</time></trkpt><trkpt lat="42.8850917" lon="13.5189033"><ele>323.8</ele><time>2026-04-04T09:59:45.801Z</time></trkpt><trkpt lat="42.8850833" lon="13.519025"><ele>323.20000000000005</ele><time>2026-04-04T09:59:46.8Z</time></trkpt><trkpt lat="42.885085" lon="13.51914"><ele>322.6</ele><time>2026-04-04T09:59:47.8Z</time></trkpt><trkpt lat="42.885115" lon="13.5192217"><ele>322.0</ele><time>2026-04-04T09:59:48.801Z</time></trkpt><trkpt lat="42.8852117" lon="13.51933"><ele>322.0</ele><time>2026-04-04T09:59:50.8Z</time></trkpt><trkpt lat="42.8852933" lon="13.5193717"><ele>322.0</ele><time>2026-04-04T09:59:51.8Z</time></trkpt><trkpt lat="42.88536" lon="13.5194117"><ele>322.0</ele><time>2026-04-04T09:59:52.801Z</time></trkpt><trkpt lat="42.8854317" lon="13.519435"><ele>322.0</ele><time>2026-04-04T09:59:53.801Z</time></trkpt><trkpt lat="42.8855167" lon="13.5195133"><ele>322.0</ele><time>2026-04-04T09:59:55.8Z</time></trkpt><trkpt lat="42.8855433" lon="13.5196133"><ele>322.0</ele><time>2026-04-04T09:59:57.8Z</time></trkpt><trkpt lat="42.8855267" lon="13.5197033"><ele>322.8333333333333</ele><time>2026-04-04T09:59:59.8Z</time></trkpt><trkpt lat="42.8854933" lon="13.519785"><ele>323.66666666666663</ele><time>2026-04-04T10:03:54.799Z</time></trkpt><trkpt lat="42.8854733" lon="13.51987"><ele>324.5</ele><time>2026-04-04T10:03:56.799Z</time></trkpt><trkpt lat="42.8854133" lon="13.5199367"><ele>325.3333333333333</ele><time>2026-04-04T10:03:58.8Z</time></trkpt><trkpt lat="42.8853483" lon="13.52"><ele>326.1666666666667</ele><time>2026-04-04T10:04:00.799Z</time></trkpt><trkpt lat="42.8852583" lon="13.5200867"><ele>327.0</ele><time>2026-04-04T10:04:02.799Z</time></trkpt><trkpt lat="42.8851417" lon="13.5201567"><ele>331.1666666666667</ele><time>2026-04-04T10:04:04.8Z</time></trkpt><trkpt lat="42.8850733" lon="13.5201933"><ele>335.3333333333333</ele><time>2026-04-04T10:04:05.799Z</time></trkpt><trkpt lat="42.8849983" lon="13.5202217"><ele>339.5</ele><time>2026-04-04T10:04:06.799Z</time></trkpt><trkpt lat="42.8849183" lon="13.5202517"><ele>343.66666666666663</ele><time>2026-04-04T10:04:07.799Z</time></trkpt><trkpt lat="42.8848467" lon="13.5202917"><ele>347.8333333333333</ele><time>2026-04-04T10:04:08.799Z</time></trkpt><trkpt lat="42.8847783" lon="13.5203367"><ele>352.0</ele><time>2026-04-04T10:04:09.799Z</time></trkpt><trkpt lat="42.8847117" lon="13.520385"><ele>348.0</ele><time>2026-04-04T10:04:10.799Z</time></trkpt><trkpt lat="42.88464" lon="13.520445"><ele>344.0</ele><time>2026-04-04T10:04:11.8Z</time></trkpt><trkpt lat="42.88457" lon="13.520505"><ele>340.0</ele><time>2026-04-04T10:04:12.799Z</time></trkpt><trkpt lat="42.88449" lon="13.5205617"><ele>336.0</ele><time>2026-04-04T10:04:13.8Z</time></trkpt><trkpt lat="42.8844067" lon="13.5206233"><ele>332.0</ele><time>2026-04-04T10:04:14.799Z</time></trkpt><trkpt lat="42.88432" lon="13.52069"><ele>338.8</ele><time>2026-04-04T10:04:15.799Z</time></trkpt><trkpt lat="42.8842333" lon="13.5207517"><ele>345.6</ele><time>2026-04-04T10:04:16.8Z</time></trkpt><trkpt lat="42.8841517" lon="13.520815"><ele>352.40000000000003</ele><time>2026-04-04T10:04:17.799Z</time></trkpt><trkpt lat="42.8840733" lon="13.5208883"><ele>359.20000000000005</ele><time>2026-04-04T10:04:18.799Z</time></trkpt><trkpt lat="42.88399" lon="13.5209667"><ele>366.0</ele><time>2026-04-04T10:04:19.799Z</time></trkpt><trkpt lat="42.88391" lon="13.52104"><ele>366.0</ele><time>2026-04-04T10:04:20.799Z</time></trkpt><trkpt lat="42.8838467" lon="13.5210933"><ele>366.0</ele><time>2026-04-04T10:04:21.8Z</time></trkpt><trkpt lat="42.8837817" lon="13.5211017"><ele>366.0</ele><time>2026-04-04T10:04:22.8Z</time></trkpt><trkpt lat="42.88371" lon="13.52107"><ele>366.0</ele><time>2026-04-04T10:04:23.799Z</time></trkpt><trkpt lat="42.883625" lon="13.5208867"><ele>366.0</ele><time>2026-04-04T10:04:25.799Z</time></trkpt><trkpt lat="42.8836033" lon="13.5207517"><ele>366.0</ele><time>2026-04-04T10:04:26.799Z</time></trkpt><trkpt lat="42.8835967" lon="13.5206167"><ele>366.0</ele><time>2026-04-04T10:04:27.8Z</time></trkpt><trkpt lat="42.8835883" lon="13.52048"><ele>366.0</ele><time>2026-04-04T10:04:28.8Z</time></trkpt><trkpt lat="42.8835817" lon="13.520335"><ele>366.0</ele><time>2026-04-04T10:04:29.8Z</time></trkpt><trkpt lat="42.8835883" lon="13.5201817"><ele>366.0</ele><time>2026-04-04T10:04:30.799Z</time></trkpt><trkpt lat="42.883595" lon="13.520055"><ele>368.6666666666667</ele><time>2026-04-04T10:04:31.799Z</time></trkpt><trkpt lat="42.88362" lon="13.519925"><ele>371.3333333333333</ele><time>2026-04-04T10:04:32.799Z</time></trkpt><trkpt lat="42.8836283" lon="13.5197983"><ele>374.0</ele><time>2026-04-04T10:04:33.8Z</time></trkpt><trkpt lat="42.8836167" lon="13.5196967"><ele>376.66666666666663</ele><time>2026-04-04T10:04:34.799Z</time></trkpt><trkpt lat="42.8835817" lon="13.5196067"><ele>379.3333333333333</ele><time>2026-04-04T10:04:35.8Z</time></trkpt><trkpt lat="42.8835333" lon="13.5195167"><ele>382.0</ele><time>2026-04-04T10:04:36.799Z</time></trkpt><trkpt lat="42.8834917" lon="13.5194283"><ele>382.5</ele><time>2026-04-04T10:04:37.8Z</time></trkpt><trkpt lat="42.883445" lon="13.5193067"><ele>383.0</ele><time>2026-04-04T10:04:38.8Z</time></trkpt><trkpt lat="42.8833967" lon="13.5191617"><ele>383.5</ele><time>2026-04-04T10:04:39.799Z</time></trkpt><trkpt lat="42.8833417" lon="13.519005"><ele>384.0</ele><time>2026-04-04T10:04:40.799Z</time></trkpt><trkpt lat="42.8832633" lon="13.518865"><ele>389.0</ele><time>2026-04-04T10:04:41.799Z</time></trkpt><trkpt lat="42.8831617" lon="13.5187083"><ele>394.0</ele><time>2026-04-04T10:04:42.799Z</time></trkpt><trkpt lat="42.883045" lon="13.5185533"><ele>399.0</ele><time>2026-04-04T10:04:43.8Z</time></trkpt><trkpt lat="42.8829217" lon="13.51841"><ele>399.0</ele><time>2026-04-04T10:04:44.799Z</time></trkpt><trkpt lat="42.8827933" lon="13.5182883"><ele>399.0</ele><time>2026-04-04T10:04:45.799Z</time></trkpt><trkpt lat="42.8826883" lon="13.5181983"><ele>399.0</ele><time>2026-04-04T10:04:46.8Z</time></trkpt><trkpt lat="42.882595" lon="13.5181083"><ele>399.0</ele><time>2026-04-04T10:04:47.799Z</time></trkpt><trkpt lat="42.8825117" lon="13.5180167"><ele>402.25</ele><time>2026-04-04T10:04:48.8Z</time></trkpt><trkpt lat="42.8824233" lon="13.5179183"><ele>405.5</ele><time>2026-04-04T10:04:49.799Z</time></trkpt><trkpt lat="42.8823417" lon="13.5178067"><ele>408.75</ele><time>2026-04-04T10:04:50.799Z</time></trkpt><trkpt lat="42.8822517" lon="13.5177"><ele>412.0</ele><time>2026-04-04T10:04:51.799Z</time></trkpt><trkpt lat="42.8821567" lon="13.5175733"><ele>412.0</ele><time>2026-04-04T10:04:52.799Z</time></trkpt><trkpt lat="42.8820833" lon="13.5174467"><ele>412.0</ele><time>2026-04-04T10:04:53.8Z</time></trkpt><trkpt lat="42.8820217" lon="13.517335"><ele>412.0</ele><time>2026-04-04T10:04:54.8Z</time></trkpt><trkpt lat="42.8819617" lon="13.5172417"><ele>412.0</ele><time>2026-04-04T10:04:55.799Z</time></trkpt><trkpt lat="42.8818983" lon="13.5171783"><ele>412.0</ele><time>2026-04-04T10:04:56.8Z</time></trkpt><trkpt lat="42.8818367" lon="13.517115"><ele>413.50000000000006</ele><time>2026-04-04T10:04:57.799Z</time></trkpt><trkpt lat="42.8817733" lon="13.51704"><ele>415.0</ele><time>2026-04-04T10:04:58.799Z</time></trkpt><trkpt lat="42.88172" lon="13.5169733"><ele>416.5</ele><time>2026-04-04T10:04:59.8Z</time></trkpt><trkpt lat="42.88167" lon="13.5169183"><ele>418.0</ele><time>2026-04-04T10:05:00.8Z</time></trkpt><trkpt lat="42.8816183" lon="13.5168533"><ele>419.50000000000006</ele><time>2026-04-04T10:05:01.799Z</time></trkpt><trkpt lat="42.8815717" lon="13.5167867"><ele>421.0</ele><time>2026-04-04T10:05:02.799Z</time></trkpt><trkpt lat="42.8815033" lon="13.516695"><ele>421.0</ele><time>2026-04-04T10:05:04.799Z</time></trkpt><trkpt lat="42.8814433" lon="13.5166217"><ele>421.0</ele><time>2026-04-04T10:05:06.799Z</time></trkpt><trkpt lat="42.8814167" lon="13.516485"><ele>421.0</ele><time>2026-04-04T10:05:08.798Z</time></trkpt><trkpt lat="42.8813717" lon="13.5163217"><ele>421.0</ele><time>2026-04-04T10:05:10.798Z</time></trkpt><trkpt lat="42.8813217" lon="13.5162333"><ele>421.0</ele><time>2026-04-04T10:05:11.799Z</time></trkpt><trkpt lat="42.8812717" lon="13.5161283"><ele>425.20000000000005</ele><time>2026-04-04T10:05:12.798Z</time></trkpt><trkpt lat="42.881215" lon="13.516015"><ele>429.40000000000003</ele><time>2026-04-04T10:05:13.799Z</time></trkpt><trkpt lat="42.8811567" lon="13.5158933"><ele>433.6</ele><time>2026-04-04T10:05:14.798Z</time></trkpt><trkpt lat="42.881105" lon="13.5157717"><ele>437.8</ele><time>2026-04-04T10:05:15.798Z</time></trkpt><trkpt lat="42.8810717" lon="13.51565"><ele>442.0</ele><time>2026-04-04T10:05:16.798Z</time></trkpt><trkpt lat="42.8810467" lon="13.515535"><ele>442.00000000000006</ele><time>2026-04-04T10:05:17.799Z</time></trkpt><trkpt lat="42.88104" lon="13.5154317"><ele>442.0</ele><time>2026-04-04T10:05:18.798Z</time></trkpt><trkpt lat="42.8810617" lon="13.5153233"><ele>442.0</ele><time>2026-04-04T10:05:19.798Z</time></trkpt><trkpt lat="42.8811117" lon="13.515245"><ele>442.0</ele><time>2026-04-04T10:05:20.799Z</time></trkpt><trkpt lat="42.8811683" lon="13.5151667"><ele>442.00000000000006</ele><time>2026-04-04T10:05:21.798Z</time></trkpt><trkpt lat="42.8812317" lon="13.515085"><ele>442.0</ele><time>2026-04-04T10:05:22.798Z</time></trkpt><trkpt lat="42.8812783" lon="13.5149767"><ele>441.8</ele><time>2026-04-04T10:05:23.798Z</time></trkpt><trkpt lat="42.8813" lon="13.5148533"><ele>441.6</ele><time>2026-04-04T10:05:24.799Z</time></trkpt><trkpt lat="42.8813" lon="13.5147267"><ele>441.40000000000003</ele><time>2026-04-04T10:05:25.799Z</time></trkpt><trkpt lat="42.8812667" lon="13.51459"><ele>441.20000000000005</ele><time>2026-04-04T10:05:26.798Z</time></trkpt><trkpt lat="42.8812117" lon="13.5144767"><ele>441.0</ele><time>2026-04-04T10:05:27.799Z</time></trkpt><trkpt lat="42.8811567" lon="13.5143617"><ele>439.0</ele><time>2026-04-04T10:05:28.799Z</time></trkpt><trkpt lat="42.8810983" lon="13.5142483"><ele>437.0</ele><time>2026-04-04T10:05:29.798Z</time></trkpt><trkpt lat="42.8810467" lon="13.5141583"><ele>435.0</ele><time>2026-04-04T10:05:30.799Z</time></trkpt><trkpt lat="42.8809917" lon="13.5140833"><ele>433.0</ele><time>2026-04-04T10:05:31.799Z</time></trkpt><trkpt lat="42.8809417" lon="13.5140083"><ele>431.0</ele><time>2026-04-04T10:05:33.799Z</time></trkpt><trkpt lat="42.88085" lon="13.513925"><ele>429.0</ele><time>2026-04-04T10:05:43.798Z</time></trkpt><trkpt lat="42.8808067" lon="13.513855"><ele>427.14285714285717</ele><time>2026-04-04T10:05:44.798Z</time></trkpt><trkpt lat="42.8807683" lon="13.5137683"><ele>425.28571428571433</ele><time>2026-04-04T10:05:45.798Z</time></trkpt><trkpt lat="42.88073" lon="13.51368"><ele>423.42857142857144</ele><time>2026-04-04T10:05:46.799Z</time></trkpt><trkpt lat="42.880685" lon="13.5136017"><ele>421.57142857142856</ele><time>2026-04-04T10:05:47.799Z</time></trkpt><trkpt lat="42.8806367" lon="13.5135267"><ele>419.7142857142857</ele><time>2026-04-04T10:05:48.798Z</time></trkpt><trkpt lat="42.8805867" lon="13.5134483"><ele>417.85714285714283</ele><time>2026-04-04T10:05:49.799Z</time></trkpt><trkpt lat="42.8805317" lon="13.51338"><ele>416.0</ele><time>2026-04-04T10:05:50.799Z</time></trkpt><trkpt lat="42.8804683" lon="13.5133133"><ele>415.99999999999994</ele><time>2026-04-04T10:05:51.799Z</time></trkpt><trkpt lat="42.8804" lon="13.5132533"><ele>416.0</ele><time>2026-04-04T10:05:52.798Z</time></trkpt><trkpt lat="42.8803283" lon="13.513195"><ele>416.0</ele><time>2026-04-04T10:05:53.798Z</time></trkpt><trkpt lat="42.8802617" lon="13.5131433"><ele>416.0</ele><time>2026-04-04T10:05:54.799Z</time></trkpt><trkpt lat="42.8801933" lon="13.5131067"><ele>415.99999999999994</ele><time>2026-04-04T10:05:55.798Z</time></trkpt><trkpt lat="42.8801233" lon="13.51308"><ele>416.0</ele><time>2026-04-04T10:05:56.798Z</time></trkpt><trkpt lat="42.88006" lon="13.51308"><ele>415.99999999999994</ele><time>2026-04-04T10:05:57.798Z</time></trkpt><trkpt lat="42.8799883" lon="13.5131"><ele>416.0</ele><time>2026-04-04T10:05:58.798Z</time></trkpt><trkpt lat="42.8799133" lon="13.5131267"><ele>416.0</ele><time>2026-04-04T10:05:59.799Z</time></trkpt><trkpt lat="42.8798367" lon="13.513155"><ele>416.0</ele><time>2026-04-04T10:06:00.799Z</time></trkpt><trkpt lat="42.8797467" lon="13.513165"><ele>415.99999999999994</ele><time>2026-04-04T10:06:01.799Z</time></trkpt><trkpt lat="42.879665" lon="13.51316"><ele>416.0</ele><time>2026-04-04T10:06:02.798Z</time></trkpt><trkpt lat="42.8795983" lon="13.5131583"><ele>415.99999999999994</ele><time>2026-04-04T10:06:03.798Z</time></trkpt><trkpt lat="42.879535" lon="13.513175"><ele>416.0</ele><time>2026-04-04T10:06:04.799Z</time></trkpt><trkpt lat="42.879445" lon="13.5132217"><ele>416.0</ele><time>2026-04-04T10:06:06.798Z</time></trkpt><trkpt lat="42.8793667" lon="13.5132333"><ele>416.0</ele><time>2026-04-04T10:06:08.798Z</time></trkpt><trkpt lat="42.8792967" lon="13.5131317"><ele>415.99999999999994</ele><time>2026-04-04T10:06:10.798Z</time></trkpt><trkpt lat="42.87925" lon="13.51301"><ele>416.0</ele><time>2026-04-04T10:06:12.798Z</time></trkpt><trkpt lat="42.8792317" lon="13.5129217"><ele>415.99999999999994</ele><time>2026-04-04T10:06:16.798Z</time></trkpt><trkpt lat="42.8792617" lon="13.5130433"><ele>416.0</ele><time>2026-04-04T10:06:25.799Z</time></trkpt><trkpt lat="42.8793183" lon="13.51318"><ele>416.0</ele><time>2026-04-04T10:06:27.798Z</time></trkpt><trkpt lat="42.879405" lon="13.51324"><ele>416.0</ele><time>2026-04-04T10:06:29.799Z</time></trkpt><trkpt lat="42.87947" lon="13.5131883"><ele>415.99999999999994</ele><time>2026-04-04T10:06:31.799Z</time></trkpt><trkpt lat="42.8795233" lon="13.51314"><ele>416.0</ele><time>2026-04-04T10:06:33.798Z</time></trkpt><trkpt lat="42.8795117" lon="13.51324"><ele>416.0</ele><time>2026-04-04T10:06:43.798Z</time></trkpt><trkpt lat="42.8794467" lon="13.5133033"><ele>416.0</ele><time>2026-04-04T10:06:45.798Z</time></trkpt><trkpt lat="42.879385" lon="13.5133633"><ele>416.0</ele><time>2026-04-04T10:06:55.798Z</time></trkpt><trkpt lat="42.8793167" lon="13.5134117"><ele>416.0</ele><time>2026-04-04T10:06:58.799Z</time></trkpt><trkpt lat="42.8792517" lon="13.5134"><ele>416.0</ele><time>2026-04-04T10:07:24.798Z</time></trkpt><trkpt lat="42.8792" lon="13.513465"><ele>416.0</ele><time>2026-04-04T10:07:31.798Z</time></trkpt><trkpt lat="42.8792617" lon="13.5134933"><ele>416.0</ele><time>2026-04-04T10:07:37.798Z</time></trkpt><trkpt lat="42.879325" lon="13.5135167"><ele>415.99999999999994</ele><time>2026-04-04T10:07:40.799Z</time></trkpt><trkpt lat="42.8794117" lon="13.5135483"><ele>416.0</ele><time>2026-04-04T10:07:43.799Z</time></trkpt><trkpt lat="42.8795017" lon="13.51358"><ele>416.0</ele><time>2026-04-04T10:07:51.798Z</time></trkpt><trkpt lat="42.879565" lon="13.5135867"><ele>416.0</ele><time>2026-04-04T10:07:54.798Z</time></trkpt><trkpt lat="42.8796333" lon="13.5135917"><ele>415.99999999999994</ele><time>2026-04-04T10:07:57.798Z</time></trkpt><trkpt lat="42.8797133" lon="13.5135983"><ele>416.0</ele><time>2026-04-04T10:08:01.798Z</time></trkpt><trkpt lat="42.8797933" lon="13.51361"><ele>415.99999999999994</ele><time>2026-04-04T10:08:09.798Z</time></trkpt><trkpt lat="42.8798617" lon="13.51364"><ele>416.0</ele><time>2026-04-04T10:08:12.799Z</time></trkpt><trkpt lat="42.8797967" lon="13.5136517"><ele>416.0</ele><time>2026-04-04T10:10:02.797Z</time></trkpt><trkpt lat="42.87972" lon="13.5136617"><ele>416.0</ele><time>2026-04-04T10:10:13.797Z</time></trkpt><trkpt lat="42.8796433" lon="13.5136267"><ele>415.99999999999994</ele><time>2026-04-04T10:10:16.797Z</time></trkpt><trkpt lat="42.8795667" lon="13.5136067"><ele>416.0</ele><time>2026-04-04T10:10:18.797Z</time></trkpt><trkpt lat="42.8794817" lon="13.5135983"><ele>415.99999999999994</ele><time>2026-04-04T10:10:21.798Z</time></trkpt><trkpt lat="42.879405" lon="13.5135467"><ele>416.0</ele><time>2026-04-04T10:11:32.797Z</time></trkpt><trkpt lat="42.879335" lon="13.5135133"><ele>416.0</ele><time>2026-04-04T10:11:34.797Z</time></trkpt><trkpt lat="42.8792617" lon="13.5134733"><ele>416.0</ele><time>2026-04-04T10:11:36.798Z</time></trkpt><trkpt lat="42.879195" lon="13.513425"><ele>415.99999999999994</ele><time>2026-04-04T10:11:41.797Z</time></trkpt><trkpt lat="42.8792583" lon="13.513375"><ele>416.0</ele><time>2026-04-04T10:11:44.798Z</time></trkpt><trkpt lat="42.8793283" lon="13.5133767"><ele>415.99999999999994</ele><time>2026-04-04T10:11:46.797Z</time></trkpt><trkpt lat="42.8794067" lon="13.5133383"><ele>416.0</ele><time>2026-04-04T10:11:48.798Z</time></trkpt><trkpt lat="42.8794667" lon="13.5132867"><ele>416.0</ele><time>2026-04-04T10:11:50.797Z</time></trkpt><trkpt lat="42.8795183" lon="13.5132217"><ele>416.0</ele><time>2026-04-04T10:11:52.798Z</time></trkpt><trkpt lat="42.8795783" lon="13.5131617"><ele>415.99999999999994</ele><time>2026-04-04T10:11:57.797Z</time></trkpt><trkpt lat="42.879645" lon="13.51315"><ele>416.0</ele><time>2026-04-04T10:13:03.798Z</time></trkpt><trkpt lat="42.8795517" lon="13.5131817"><ele>415.99999999999994</ele><time>2026-04-04T10:13:12.798Z</time></trkpt><trkpt lat="42.879485" lon="13.5132267"><ele>416.0</ele><time>2026-04-04T10:13:13.796Z</time></trkpt><trkpt lat="42.87942" lon="13.5132533"><ele>416.0</ele><time>2026-04-04T10:13:14.797Z</time></trkpt><trkpt lat="42.87932" lon="13.513195"><ele>416.0</ele><time>2026-04-04T10:13:16.796Z</time></trkpt><trkpt lat="42.879275" lon="13.5131233"><ele>415.99999999999994</ele><time>2026-04-04T10:13:17.796Z</time></trkpt><trkpt lat="42.87923" lon="13.5130183"><ele>416.0</ele><time>2026-04-04T10:13:18.796Z</time></trkpt><trkpt lat="42.8791733" lon="13.5129083"><ele>418.49999999999994</ele><time>2026-04-04T10:13:19.797Z</time></trkpt><trkpt lat="42.87912" lon="13.5128067"><ele>421.0</ele><time>2026-04-04T10:13:20.796Z</time></trkpt><trkpt lat="42.87906" lon="13.51273"><ele>423.5</ele><time>2026-04-04T10:13:21.796Z</time></trkpt><trkpt lat="42.8789667" lon="13.5126617"><ele>426.0</ele><time>2026-04-04T10:13:23.797Z</time></trkpt><trkpt lat="42.8789033" lon="13.5126117"><ele>428.49999999999994</ele><time>2026-04-04T10:13:26.797Z</time></trkpt><trkpt lat="42.878965" lon="13.51265"><ele>431.0</ele><time>2026-04-04T10:13:36.796Z</time></trkpt><trkpt lat="42.8790617" lon="13.5127267"><ele>430.99999999999994</ele><time>2026-04-04T10:13:38.797Z</time></trkpt><trkpt lat="42.8791183" lon="13.5127833"><ele>431.0</ele><time>2026-04-04T10:13:39.796Z</time></trkpt><trkpt lat="42.8791683" lon="13.5128683"><ele>431.0</ele><time>2026-04-04T10:13:40.796Z</time></trkpt><trkpt lat="42.8792217" lon="13.5129633"><ele>431.0</ele><time>2026-04-04T10:13:41.796Z</time></trkpt><trkpt lat="42.8792717" lon="13.5130767"><ele>430.99999999999994</ele><time>2026-04-04T10:13:42.796Z</time></trkpt><trkpt lat="42.8793083" lon="13.5131767"><ele>431.0</ele><time>2026-04-04T10:13:43.796Z</time></trkpt><trkpt lat="42.879355" lon="13.5132417"><ele>428.0</ele><time>2026-04-04T10:13:44.797Z</time></trkpt><trkpt lat="42.8794533" lon="13.5132617"><ele>425.0</ele><time>2026-04-04T10:13:46.796Z</time></trkpt><trkpt lat="42.879575" lon="13.51318"><ele>422.0</ele><time>2026-04-04T10:13:48.797Z</time></trkpt><trkpt lat="42.8796533" lon="13.5131417"><ele>419.0</ele><time>2026-04-04T10:13:49.796Z</time></trkpt><trkpt lat="42.879735" lon="13.51313"><ele>416.0</ele><time>2026-04-04T10:13:50.797Z</time></trkpt><trkpt lat="42.87982" lon="13.51313"><ele>415.99999999999994</ele><time>2026-04-04T10:13:51.796Z</time></trkpt><trkpt lat="42.879895" lon="13.5131183"><ele>416.0</ele><time>2026-04-04T10:13:52.796Z</time></trkpt><trkpt lat="42.8799633" lon="13.5131167"><ele>416.0</ele><time>2026-04-04T10:13:53.796Z</time></trkpt><trkpt lat="42.8800317" lon="13.5131133"><ele>416.0</ele><time>2026-04-04T10:13:54.796Z</time></trkpt><trkpt lat="42.88015" lon="13.5131167"><ele>415.99999999999994</ele><time>2026-04-04T10:13:56.797Z</time></trkpt><trkpt lat="42.8802233" lon="13.5131383"><ele>416.0</ele><time>2026-04-04T10:13:57.796Z</time></trkpt><trkpt lat="42.88029" lon="13.5131767"><ele>415.99999999999994</ele><time>2026-04-04T10:13:58.796Z</time></trkpt><trkpt lat="42.8803617" lon="13.513225"><ele>416.0</ele><time>2026-04-04T10:13:59.797Z</time></trkpt><trkpt lat="42.88042" lon="13.5132867"><ele>416.0</ele><time>2026-04-04T10:14:00.797Z</time></trkpt><trkpt lat="42.88048" lon="13.5133433"><ele>416.0</ele><time>2026-04-04T10:14:01.797Z</time></trkpt><trkpt lat="42.8805367" lon="13.51342"><ele>415.99999999999994</ele><time>2026-04-04T10:14:02.797Z</time></trkpt><trkpt lat="42.8805917" lon="13.5134883"><ele>416.0</ele><time>2026-04-04T10:14:03.796Z</time></trkpt><trkpt lat="42.8806367" lon="13.51356"><ele>415.99999999999994</ele><time>2026-04-04T10:14:04.796Z</time></trkpt><trkpt lat="42.8806867" lon="13.5136383"><ele>416.0</ele><time>2026-04-04T10:14:05.796Z</time></trkpt><trkpt lat="42.88073" lon="13.5137267"><ele>416.0</ele><time>2026-04-04T10:14:06.796Z</time></trkpt><trkpt lat="42.8807817" lon="13.51382"><ele>416.0</ele><time>2026-04-04T10:14:07.796Z</time></trkpt><trkpt lat="42.88082" lon="13.5139133"><ele>415.99999999999994</ele><time>2026-04-04T10:14:08.796Z</time></trkpt><trkpt lat="42.8808567" lon="13.5139833"><ele>416.0</ele><time>2026-04-04T10:14:09.796Z</time></trkpt><trkpt lat="42.8809" lon="13.5140667"><ele>416.0</ele><time>2026-04-04T10:14:11.797Z</time></trkpt><trkpt lat="42.8808917" lon="13.5139733"><ele>416.0</ele><time>2026-04-04T10:15:11.796Z</time></trkpt><trkpt lat="42.8808167" lon="13.5138467"><ele>416.0</ele><time>2026-04-04T10:15:13.796Z</time></trkpt><trkpt lat="42.8807667" lon="13.513745"><ele>416.0</ele><time>2026-04-04T10:15:14.796Z</time></trkpt><trkpt lat="42.8807067" lon="13.51363"><ele>416.0</ele><time>2026-04-04T10:15:15.796Z</time></trkpt><trkpt lat="42.88064" lon="13.513505"><ele>416.0</ele><time>2026-04-04T10:15:16.797Z</time></trkpt><trkpt lat="42.8805783" lon="13.513405"><ele>416.0</ele><time>2026-04-04T10:15:17.796Z</time></trkpt><trkpt lat="42.8805" lon="13.513315"><ele>416.0</ele><time>2026-04-04T10:15:18.796Z</time></trkpt><trkpt lat="42.880415" lon="13.5132283"><ele>416.0</ele><time>2026-04-04T10:15:19.797Z</time></trkpt><trkpt lat="42.88034" lon="13.5131633"><ele>416.0</ele><time>2026-04-04T10:15:20.796Z</time></trkpt><trkpt lat="42.8802733" lon="13.5131083"><ele>415.99999999999994</ele><time>2026-04-04T10:15:21.796Z</time></trkpt><trkpt lat="42.88021" lon="13.5130733"><ele>416.0</ele><time>2026-04-04T10:15:22.796Z</time></trkpt><trkpt lat="42.88009" lon="13.5130433"><ele>416.0</ele><time>2026-04-04T10:15:24.797Z</time></trkpt><trkpt lat="42.8799883" lon="13.513075"><ele>416.0</ele><time>2026-04-04T10:15:26.796Z</time></trkpt><trkpt lat="42.8799217" lon="13.5131033"><ele>415.99999999999994</ele><time>2026-04-04T10:15:27.797Z</time></trkpt><trkpt lat="42.8798617" lon="13.5131317"><ele>416.0</ele><time>2026-04-04T10:15:28.796Z</time></trkpt><trkpt lat="42.8797983" lon="13.5131433"><ele>415.99999999999994</ele><time>2026-04-04T10:15:29.796Z</time></trkpt><trkpt lat="42.8797283" lon="13.5131467"><ele>416.0</ele><time>2026-04-04T10:15:30.796Z</time></trkpt><trkpt lat="42.8796583" lon="13.51315"><ele>416.0</ele><time>2026-04-04T10:15:31.796Z</time></trkpt><trkpt lat="42.87955" lon="13.513185"><ele>416.0</ele><time>2026-04-04T10:15:33.797Z</time></trkpt><trkpt lat="42.8794867" lon="13.5132317"><ele>415.99999999999994</ele><time>2026-04-04T10:15:35.797Z</time></trkpt><trkpt lat="42.8794033" lon="13.5132683"><ele>416.0</ele><time>2026-04-04T10:15:38.796Z</time></trkpt><trkpt lat="42.8793367" lon="13.5132417"><ele>416.0</ele><time>2026-04-04T10:15:42.796Z</time></trkpt><trkpt lat="42.879395" lon="13.5132067"><ele>416.0</ele><time>2026-04-04T10:15:48.797Z</time></trkpt><trkpt lat="42.8795" lon="13.5131967"><ele>416.0</ele><time>2026-04-04T10:15:51.797Z</time></trkpt><trkpt lat="42.8796283" lon="13.5131333"><ele>416.0</ele><time>2026-04-04T10:15:53.797Z</time></trkpt><trkpt lat="42.8797117" lon="13.5131233"><ele>416.0</ele><time>2026-04-04T10:15:54.796Z</time></trkpt><trkpt lat="42.8797933" lon="13.5131167"><ele>415.99999999999994</ele><time>2026-04-04T10:15:55.796Z</time></trkpt><trkpt lat="42.8798617" lon="13.5131217"><ele>416.0</ele><time>2026-04-04T10:15:56.796Z</time></trkpt><trkpt lat="42.87998" lon="13.51311"><ele>416.0</ele><time>2026-04-04T10:15:58.796Z</time></trkpt><trkpt lat="42.8800617" lon="13.5131117"><ele>416.0</ele><time>2026-04-04T10:16:00.797Z</time></trkpt><trkpt lat="42.880135" lon="13.51311"><ele>415.99999999999994</ele><time>2026-04-04T10:16:02.796Z</time></trkpt><trkpt lat="42.880235" lon="13.5131417"><ele>416.0</ele><time>2026-04-04T10:16:04.796Z</time></trkpt><trkpt lat="42.8803" lon="13.5131817"><ele>416.0</ele><time>2026-04-04T10:16:05.796Z</time></trkpt><trkpt lat="42.8803767" lon="13.5132433"><ele>416.0</ele><time>2026-04-04T10:16:06.796Z</time></trkpt><trkpt lat="42.8804583" lon="13.5133233"><ele>416.0</ele><time>2026-04-04T10:16:07.796Z</time></trkpt><trkpt lat="42.8805417" lon="13.5134233"><ele>416.0</ele><time>2026-04-04T10:16:08.797Z</time></trkpt><trkpt lat="42.8806183" lon="13.513545"><ele>416.0</ele><time>2026-04-04T10:16:09.797Z</time></trkpt><trkpt lat="42.8807083" lon="13.51367"><ele>415.16666666666663</ele><time>2026-04-04T10:16:10.796Z</time></trkpt><trkpt lat="42.8807783" lon="13.513795"><ele>414.3333333333333</ele><time>2026-04-04T10:16:11.797Z</time></trkpt><trkpt lat="42.8808317" lon="13.5139217"><ele>413.5</ele><time>2026-04-04T10:16:12.796Z</time></trkpt><trkpt lat="42.880875" lon="13.514015"><ele>412.66666666666663</ele><time>2026-04-04T10:16:13.796Z</time></trkpt><trkpt lat="42.8809283" lon="13.51407"><ele>411.8333333333333</ele><time>2026-04-04T10:16:15.797Z</time></trkpt><trkpt lat="42.880965" lon="13.51399"><ele>411.0</ele><time>2026-04-04T10:16:18.796Z</time></trkpt><trkpt lat="42.8810033" lon="13.513885"><ele>412.0</ele><time>2026-04-04T10:16:20.796Z</time></trkpt><trkpt lat="42.8810617" lon="13.5137983"><ele>413.0</ele><time>2026-04-04T10:16:22.796Z</time></trkpt><trkpt lat="42.8811133" lon="13.5137283"><ele>414.0</ele><time>2026-04-04T10:16:56.795Z</time></trkpt><trkpt lat="42.8810833" lon="13.5136117"><ele>415.0</ele><time>2026-04-04T10:16:58.795Z</time></trkpt><trkpt lat="42.8810267" lon="13.5134467"><ele>416.0</ele><time>2026-04-04T10:17:00.795Z</time></trkpt><trkpt lat="42.8810033" lon="13.513355"><ele>415.99999999999994</ele><time>2026-04-04T10:17:01.796Z</time></trkpt><trkpt lat="42.88098" lon="13.513275"><ele>416.0</ele><time>2026-04-04T10:17:02.795Z</time></trkpt><trkpt lat="42.8809233" lon="13.5131133"><ele>416.0</ele><time>2026-04-04T10:17:04.796Z</time></trkpt><trkpt lat="42.8808917" lon="13.5130117"><ele>416.0</ele><time>2026-04-04T10:17:05.795Z</time></trkpt><trkpt lat="42.8808717" lon="13.512925"><ele>415.99999999999994</ele><time>2026-04-04T10:17:06.796Z</time></trkpt><trkpt lat="42.8808583" lon="13.5128367"><ele>416.0</ele><time>2026-04-04T10:17:07.796Z</time></trkpt><trkpt lat="42.8808517" lon="13.5127417"><ele>414.49999999999994</ele><time>2026-04-04T10:17:08.795Z</time></trkpt><trkpt lat="42.88084" lon="13.5126417"><ele>413.0</ele><time>2026-04-04T10:17:09.796Z</time></trkpt><trkpt lat="42.88083" lon="13.512555"><ele>411.5</ele><time>2026-04-04T10:17:10.796Z</time></trkpt><trkpt lat="42.8808233" lon="13.5124417"><ele>410.0</ele><time>2026-04-04T10:17:12.795Z</time></trkpt><trkpt lat="42.880755" lon="13.5123633"><ele>408.49999999999994</ele><time>2026-04-04T10:17:14.795Z</time></trkpt><trkpt lat="42.8806783" lon="13.5123083"><ele>407.0</ele><time>2026-04-04T10:17:16.795Z</time></trkpt><trkpt lat="42.8805833" lon="13.5122533"><ele>406.99999999999994</ele><time>2026-04-04T10:17:18.795Z</time></trkpt><trkpt lat="42.8805233" lon="13.51222"><ele>407.0</ele><time>2026-04-04T10:17:19.796Z</time></trkpt><trkpt lat="42.8804567" lon="13.5121783"><ele>407.0</ele><time>2026-04-04T10:17:20.795Z</time></trkpt><trkpt lat="42.88038" lon="13.51213"><ele>407.0</ele><time>2026-04-04T10:17:21.795Z</time></trkpt><trkpt lat="42.88031" lon="13.512065"><ele>406.99999999999994</ele><time>2026-04-04T10:17:22.795Z</time></trkpt><trkpt lat="42.8802283" lon="13.5119467"><ele>407.0</ele><time>2026-04-04T10:17:23.796Z</time></trkpt><trkpt lat="42.8801383" lon="13.51181"><ele>407.25</ele><time>2026-04-04T10:17:24.796Z</time></trkpt><trkpt lat="42.8800517" lon="13.5116567"><ele>407.5</ele><time>2026-04-04T10:17:25.795Z</time></trkpt><trkpt lat="42.8799767" lon="13.511535"><ele>407.75</ele><time>2026-04-04T10:17:26.795Z</time></trkpt><trkpt lat="42.8799" lon="13.511415"><ele>408.0</ele><time>2026-04-04T10:17:27.795Z</time></trkpt><trkpt lat="42.8798317" lon="13.5113233"><ele>408.0</ele><time>2026-04-04T10:17:28.795Z</time></trkpt><trkpt lat="42.8797683" lon="13.5112417"><ele>408.0</ele><time>2026-04-04T10:17:29.795Z</time></trkpt><trkpt lat="42.87971" lon="13.51117"><ele>408.0</ele><time>2026-04-04T10:17:30.795Z</time></trkpt><trkpt lat="42.8796717" lon="13.5110917"><ele>408.0</ele><time>2026-04-04T10:17:31.796Z</time></trkpt><trkpt lat="42.8796567" lon="13.5109967"><ele>408.0</ele><time>2026-04-04T10:17:32.795Z</time></trkpt><trkpt lat="42.879645" lon="13.5108517"><ele>408.0</ele><time>2026-04-04T10:17:34.795Z</time></trkpt><trkpt lat="42.8796133" lon="13.5107283"><ele>405.0</ele><time>2026-04-04T10:17:36.795Z</time></trkpt><trkpt lat="42.879605" lon="13.510615"><ele>402.0</ele><time>2026-04-04T10:17:38.796Z</time></trkpt><trkpt lat="42.8796633" lon="13.5105267"><ele>399.0</ele><time>2026-04-04T10:17:40.795Z</time></trkpt><trkpt lat="42.8797483" lon="13.5105217"><ele>396.0</ele><time>2026-04-04T10:17:41.795Z</time></trkpt><trkpt lat="42.8798267" lon="13.5105133"><ele>393.0</ele><time>2026-04-04T10:17:42.795Z</time></trkpt><trkpt lat="42.8799033" lon="13.510455"><ele>390.0</ele><time>2026-04-04T10:17:44.795Z</time></trkpt><trkpt lat="42.87989" lon="13.5103267"><ele>388.8</ele><time>2026-04-04T10:17:47.796Z</time></trkpt><trkpt lat="42.8798417" lon="13.510175"><ele>387.6</ele><time>2026-04-04T10:17:49.796Z</time></trkpt><trkpt lat="42.8798217" lon="13.5100733"><ele>386.4</ele><time>2026-04-04T10:17:50.796Z</time></trkpt><trkpt lat="42.8798" lon="13.50995"><ele>385.2</ele><time>2026-04-04T10:17:51.796Z</time></trkpt><trkpt lat="42.8797733" lon="13.509835"><ele>384.0</ele><time>2026-04-04T10:17:52.796Z</time></trkpt><trkpt lat="42.879745" lon="13.509735"><ele>384.0</ele><time>2026-04-04T10:17:53.795Z</time></trkpt><trkpt lat="42.8797133" lon="13.5096467"><ele>384.0</ele><time>2026-04-04T10:17:54.795Z</time></trkpt><trkpt lat="42.8796983" lon="13.5095617"><ele>384.0</ele><time>2026-04-04T10:17:55.795Z</time></trkpt><trkpt lat="42.879675" lon="13.5094683"><ele>384.0</ele><time>2026-04-04T10:17:56.796Z</time></trkpt><trkpt lat="42.8796533" lon="13.509375"><ele>384.0</ele><time>2026-04-04T10:17:57.795Z</time></trkpt><trkpt lat="42.879645" lon="13.5092633"><ele>384.0</ele><time>2026-04-04T10:17:58.796Z</time></trkpt><trkpt lat="42.8796267" lon="13.5091317"><ele>385.5</ele><time>2026-04-04T10:17:59.795Z</time></trkpt><trkpt lat="42.8795817" lon="13.5089767"><ele>387.0</ele><time>2026-04-04T10:18:00.795Z</time></trkpt><trkpt lat="42.8795367" lon="13.5088117"><ele>388.5</ele><time>2026-04-04T10:18:01.795Z</time></trkpt><trkpt lat="42.8794983" lon="13.5086433"><ele>390.0</ele><time>2026-04-04T10:18:02.795Z</time></trkpt><trkpt lat="42.8794583" lon="13.5084833"><ele>387.8</ele><time>2026-04-04T10:18:03.796Z</time></trkpt><trkpt lat="42.87941" lon="13.5083383"><ele>385.6</ele><time>2026-04-04T10:18:04.796Z</time></trkpt><trkpt lat="42.8793517" lon="13.50821"><ele>383.4</ele><time>2026-04-04T10:18:05.795Z</time></trkpt><trkpt lat="42.8792917" lon="13.508105"><ele>381.2</ele><time>2026-04-04T10:18:06.796Z</time></trkpt><trkpt lat="42.8792367" lon="13.5079983"><ele>379.0</ele><time>2026-04-04T10:18:07.795Z</time></trkpt><trkpt lat="42.87918" lon="13.50789"><ele>379.0</ele><time>2026-04-04T10:18:08.795Z</time></trkpt><trkpt lat="42.8791133" lon="13.507775"><ele>379.0</ele><time>2026-04-04T10:18:09.795Z</time></trkpt><trkpt lat="42.8790517" lon="13.5076517"><ele>379.0</ele><time>2026-04-04T10:18:10.796Z</time></trkpt><trkpt lat="42.878985" lon="13.5075583"><ele>379.0</ele><time>2026-04-04T10:18:11.795Z</time></trkpt><trkpt lat="42.8789433" lon="13.5074867"><ele>379.0</ele><time>2026-04-04T10:18:12.795Z</time></trkpt><trkpt lat="42.8788567" lon="13.5074383"><ele>379.0</ele><time>2026-04-04T10:18:14.796Z</time></trkpt><trkpt lat="42.878765" lon="13.5074633"><ele>379.0</ele><time>2026-04-04T10:18:32.795Z</time></trkpt><trkpt lat="42.8787467" lon="13.5073433"><ele>379.0</ele><time>2026-04-04T10:18:35.795Z</time></trkpt><trkpt lat="42.8787617" lon="13.5071767"><ele>379.0</ele><time>2026-04-04T10:18:37.795Z</time></trkpt><trkpt lat="42.8787683" lon="13.50707"><ele>379.0</ele><time>2026-04-04T10:18:38.796Z</time></trkpt><trkpt lat="42.8787767" lon="13.506955"><ele>378.4</ele><time>2026-04-04T10:18:39.796Z</time></trkpt><trkpt lat="42.87878" lon="13.506835"><ele>377.79999999999995</ele><time>2026-04-04T10:18:40.796Z</time></trkpt><trkpt lat="42.87878" lon="13.5067033"><ele>377.20000000000005</ele><time>2026-04-04T10:18:41.795Z</time></trkpt><trkpt lat="42.8787833" lon="13.50657"><ele>376.6</ele><time>2026-04-04T10:18:42.796Z</time></trkpt><trkpt lat="42.8788017" lon="13.5064417"><ele>376.0</ele><time>2026-04-04T10:18:43.796Z</time></trkpt><trkpt lat="42.8788333" lon="13.506315"><ele>375.3333333333333</ele><time>2026-04-04T10:18:44.796Z</time></trkpt><trkpt lat="42.87887" lon="13.5062183"><ele>374.66666666666663</ele><time>2026-04-04T10:18:45.795Z</time></trkpt><trkpt lat="42.8789217" lon="13.50615"><ele>374.0</ele><time>2026-04-04T10:18:46.796Z</time></trkpt><trkpt lat="42.879" lon="13.5061083"><ele>373.3333333333333</ele><time>2026-04-04T10:18:47.795Z</time></trkpt><trkpt lat="42.8791033" lon="13.5061"><ele>372.6666666666667</ele><time>2026-04-04T10:18:48.796Z</time></trkpt><trkpt lat="42.879205" lon="13.5061"><ele>372.0</ele><time>2026-04-04T10:18:49.795Z</time></trkpt><trkpt lat="42.8793133" lon="13.5061033"><ele>372.0</ele><time>2026-04-04T10:18:50.795Z</time></trkpt><trkpt lat="42.87943" lon="13.50611"><ele>372.0</ele><time>2026-04-04T10:18:51.796Z</time></trkpt><trkpt lat="42.87954" lon="13.5061117"><ele>372.0</ele><time>2026-04-04T10:18:52.795Z</time></trkpt><trkpt lat="42.8796383" lon="13.5060983"><ele>372.0</ele><time>2026-04-04T10:18:53.796Z</time></trkpt><trkpt lat="42.8797167" lon="13.5060617"><ele>372.0</ele><time>2026-04-04T10:18:54.796Z</time></trkpt><trkpt lat="42.8797867" lon="13.5059717"><ele>372.0</ele><time>2026-04-04T10:18:55.795Z</time></trkpt><trkpt lat="42.8798417" lon="13.505875"><ele>372.0</ele><time>2026-04-04T10:18:56.795Z</time></trkpt><trkpt lat="42.8799" lon="13.5057733"><ele>372.0</ele><time>2026-04-04T10:18:57.796Z</time></trkpt><trkpt lat="42.87996" lon="13.5056967"><ele>372.0</ele><time>2026-04-04T10:18:58.796Z</time></trkpt><trkpt lat="42.880015" lon="13.505645"><ele>372.0</ele><time>2026-04-04T10:18:59.795Z</time></trkpt><trkpt lat="42.8800817" lon="13.5056133"><ele>372.0</ele><time>2026-04-04T10:19:00.795Z</time></trkpt><trkpt lat="42.8801733" lon="13.50562"><ele>372.0</ele><time>2026-04-04T10:19:01.795Z</time></trkpt><trkpt lat="42.880275" lon="13.5056583"><ele>372.0</ele><time>2026-04-04T10:19:02.796Z</time></trkpt><trkpt lat="42.88038" lon="13.5057083"><ele>372.0</ele><time>2026-04-04T10:19:03.795Z</time></trkpt><trkpt lat="42.8804983" lon="13.5057567"><ele>372.0</ele><time>2026-04-04T10:19:04.796Z</time></trkpt><trkpt lat="42.8806133" lon="13.5057883"><ele>372.0</ele><time>2026-04-04T10:19:05.795Z</time></trkpt><trkpt lat="42.88073" lon="13.5058233"><ele>372.0</ele><time>2026-04-04T10:19:06.796Z</time></trkpt><trkpt lat="42.8808433" lon="13.505855"><ele>372.0</ele><time>2026-04-04T10:19:07.795Z</time></trkpt><trkpt lat="42.8809583" lon="13.505885"><ele>372.0</ele><time>2026-04-04T10:19:08.795Z</time></trkpt><trkpt lat="42.8810667" lon="13.5058967"><ele>371.0</ele><time>2026-04-04T10:19:09.796Z</time></trkpt><trkpt lat="42.8811667" lon="13.5058933"><ele>370.0</ele><time>2026-04-04T10:19:10.796Z</time></trkpt><trkpt lat="42.8812617" lon="13.505855"><ele>369.0</ele><time>2026-04-04T10:19:11.796Z</time></trkpt><trkpt lat="42.8813467" lon="13.5057983"><ele>368.0</ele><time>2026-04-04T10:19:12.795Z</time></trkpt><trkpt lat="42.881415" lon="13.5057183"><ele>367.0</ele><time>2026-04-04T10:19:13.795Z</time></trkpt><trkpt lat="42.88149" lon="13.505615"><ele>367.0</ele><time>2026-04-04T10:19:14.795Z</time></trkpt><trkpt lat="42.8815467" lon="13.5054767"><ele>367.0</ele><time>2026-04-04T10:19:15.796Z</time></trkpt><trkpt lat="42.8815967" lon="13.5053217"><ele>367.0</ele><time>2026-04-04T10:19:16.795Z</time></trkpt><trkpt lat="42.881635" lon="13.5051933"><ele>367.0</ele><time>2026-04-04T10:19:17.795Z</time></trkpt><trkpt lat="42.881665" lon="13.5050717"><ele>367.0</ele><time>2026-04-04T10:19:18.795Z</time></trkpt><trkpt lat="42.88169" lon="13.504965"><ele>367.5</ele><time>2026-04-04T10:19:19.796Z</time></trkpt><trkpt lat="42.8817233" lon="13.5048883"><ele>368.0</ele><time>2026-04-04T10:19:20.795Z</time></trkpt><trkpt lat="42.88184" lon="13.504835"><ele>368.5</ele><time>2026-04-04T10:19:22.795Z</time></trkpt><trkpt lat="42.8819233" lon="13.5048417"><ele>369.0</ele><time>2026-04-04T10:19:23.795Z</time></trkpt><trkpt lat="42.8819933" lon="13.5048533"><ele>369.5</ele><time>2026-04-04T10:19:24.795Z</time></trkpt><trkpt lat="42.882085" lon="13.5047933"><ele>370.0</ele><time>2026-04-04T10:19:26.795Z</time></trkpt><trkpt lat="42.8821083" lon="13.5046467"><ele>371.8333333333333</ele><time>2026-04-04T10:19:28.795Z</time></trkpt><trkpt lat="42.8821333" lon="13.50453"><ele>373.66666666666663</ele><time>2026-04-04T10:19:30.795Z</time></trkpt><trkpt lat="42.88214" lon="13.5044433"><ele>375.5</ele><time>2026-04-04T10:19:33.795Z</time></trkpt><trkpt lat="42.8822117" lon="13.504525"><ele>377.3333333333333</ele><time>2026-04-04T10:19:44.795Z</time></trkpt><trkpt lat="42.8823033" lon="13.5046233"><ele>379.1666666666667</ele><time>2026-04-04T10:19:46.794Z</time></trkpt><trkpt lat="42.8823583" lon="13.5046767"><ele>381.0</ele><time>2026-04-04T10:19:47.794Z</time></trkpt><trkpt lat="42.8824133" lon="13.50474"><ele>381.0</ele><time>2026-04-04T10:19:48.794Z</time></trkpt><trkpt lat="42.8824683" lon="13.5048167"><ele>381.0</ele><time>2026-04-04T10:19:49.795Z</time></trkpt><trkpt lat="42.88252" lon="13.5048967"><ele>381.0</ele><time>2026-04-04T10:19:50.794Z</time></trkpt><trkpt lat="42.882555" lon="13.504985"><ele>381.0</ele><time>2026-04-04T10:19:51.794Z</time></trkpt><trkpt lat="42.8825733" lon="13.5050733"><ele>381.0</ele><time>2026-04-04T10:19:52.794Z</time></trkpt><trkpt lat="42.8825983" lon="13.5051633"><ele>381.0</ele><time>2026-04-04T10:19:53.794Z</time></trkpt><trkpt lat="42.8826467" lon="13.5052483"><ele>381.0</ele><time>2026-04-04T10:19:54.795Z</time></trkpt><trkpt lat="42.8827133" lon="13.5053033"><ele>382.20000000000005</ele><time>2026-04-04T10:19:55.794Z</time></trkpt><trkpt lat="42.8828033" lon="13.5053333"><ele>383.40000000000003</ele><time>2026-04-04T10:19:56.794Z</time></trkpt><trkpt lat="42.8828933" lon="13.505355"><ele>384.6</ele><time>2026-04-04T10:19:57.795Z</time></trkpt><trkpt lat="42.8829967" lon="13.5053633"><ele>385.8</ele><time>2026-04-04T10:19:58.794Z</time></trkpt><trkpt lat="42.883095" lon="13.505365"><ele>387.0</ele><time>2026-04-04T10:19:59.794Z</time></trkpt><trkpt lat="42.8831883" lon="13.5054133"><ele>387.0</ele><time>2026-04-04T10:20:00.795Z</time></trkpt><trkpt lat="42.8832833" lon="13.5054433"><ele>387.0</ele><time>2026-04-04T10:20:01.794Z</time></trkpt><trkpt lat="42.88337" lon="13.505475"><ele>387.0</ele><time>2026-04-04T10:20:02.795Z</time></trkpt><trkpt lat="42.88345" lon="13.5055017"><ele>387.0</ele><time>2026-04-04T10:20:03.794Z</time></trkpt><trkpt lat="42.883515" lon="13.505535"><ele>387.0</ele><time>2026-04-04T10:20:04.794Z</time></trkpt><trkpt lat="42.8836033" lon="13.5055633"><ele>387.0</ele><time>2026-04-04T10:20:06.795Z</time></trkpt><trkpt lat="42.8836117" lon="13.5054067"><ele>397.6</ele><time>2026-04-04T10:20:09.794Z</time></trkpt><trkpt lat="42.883575" lon="13.505325"><ele>408.20000000000005</ele><time>2026-04-04T10:20:10.795Z</time></trkpt><trkpt lat="42.88353" lon="13.5052333"><ele>418.8</ele><time>2026-04-04T10:20:11.794Z</time></trkpt><trkpt lat="42.8834783" lon="13.505125"><ele>429.4</ele><time>2026-04-04T10:20:12.795Z</time></trkpt><trkpt lat="42.883445" lon="13.505"><ele>440.0</ele><time>2026-04-04T10:20:13.794Z</time></trkpt><trkpt lat="42.8834333" lon="13.504855"><ele>440.0</ele><time>2026-04-04T10:20:14.794Z</time></trkpt><trkpt lat="42.8834433" lon="13.5047"><ele>440.0</ele><time>2026-04-04T10:20:15.795Z</time></trkpt><trkpt lat="42.88346" lon="13.5045417"><ele>440.0</ele><time>2026-04-04T10:20:16.794Z</time></trkpt><trkpt lat="42.8834617" lon="13.5043767"><ele>440.0</ele><time>2026-04-04T10:20:17.794Z</time></trkpt><trkpt lat="42.8834417" lon="13.5042167"><ele>434.5</ele><time>2026-04-04T10:20:18.794Z</time></trkpt><trkpt lat="42.8833883" lon="13.5040767"><ele>429.0</ele><time>2026-04-04T10:20:19.794Z</time></trkpt><trkpt lat="42.88332" lon="13.5039333"><ele>423.5</ele><time>2026-04-04T10:20:20.795Z</time></trkpt><trkpt lat="42.8832467" lon="13.503795"><ele>418.0</ele><time>2026-04-04T10:20:21.795Z</time></trkpt><trkpt lat="42.8831833" lon="13.5036617"><ele>418.0</ele><time>2026-04-04T10:20:22.794Z</time></trkpt><trkpt lat="42.8831233" lon="13.5035433"><ele>418.0</ele><time>2026-04-04T10:20:23.794Z</time></trkpt><trkpt lat="42.88309" lon="13.50343"><ele>418.0</ele><time>2026-04-04T10:20:24.795Z</time></trkpt><trkpt lat="42.8830683" lon="13.503295"><ele>418.0</ele><time>2026-04-04T10:20:25.794Z</time></trkpt><trkpt lat="42.8830667" lon="13.50314"><ele>418.0</ele><time>2026-04-04T10:20:26.794Z</time></trkpt><trkpt lat="42.8830783" lon="13.5029767"><ele>417.5</ele><time>2026-04-04T10:20:27.794Z</time></trkpt><trkpt lat="42.8830983" lon="13.502805"><ele>417.0</ele><time>2026-04-04T10:20:28.795Z</time></trkpt><trkpt lat="42.8831033" lon="13.5026233"><ele>416.5</ele><time>2026-04-04T10:20:29.794Z</time></trkpt><trkpt lat="42.88311" lon="13.50245"><ele>416.0</ele><time>2026-04-04T10:20:30.794Z</time></trkpt><trkpt lat="42.8831067" lon="13.5022783"><ele>416.0</ele><time>2026-04-04T10:20:31.794Z</time></trkpt><trkpt lat="42.8830983" lon="13.502095"><ele>416.0</ele><time>2026-04-04T10:20:32.794Z</time></trkpt><trkpt lat="42.8830833" lon="13.5019267"><ele>416.0</ele><time>2026-04-04T10:20:33.795Z</time></trkpt><trkpt lat="42.883055" lon="13.5017517"><ele>416.0</ele><time>2026-04-04T10:20:34.794Z</time></trkpt><trkpt lat="42.8830433" lon="13.5016033"><ele>416.20000000000005</ele><time>2026-04-04T10:20:35.795Z</time></trkpt><trkpt lat="42.8830283" lon="13.5014533"><ele>416.40000000000003</ele><time>2026-04-04T10:20:36.795Z</time></trkpt><trkpt lat="42.8830167" lon="13.5012983"><ele>416.6</ele><time>2026-04-04T10:20:37.794Z</time></trkpt><trkpt lat="42.8830067" lon="13.5011533"><ele>416.8</ele><time>2026-04-04T10:20:38.794Z</time></trkpt><trkpt lat="42.8829933" lon="13.5010033"><ele>417.0</ele><time>2026-04-04T10:20:39.795Z</time></trkpt><trkpt lat="42.8829917" lon="13.500855"><ele>417.0</ele><time>2026-04-04T10:20:40.794Z</time></trkpt><trkpt lat="42.88299" lon="13.5007167"><ele>417.0</ele><time>2026-04-04T10:20:41.795Z</time></trkpt><trkpt lat="42.8829983" lon="13.5005733"><ele>417.0</ele><time>2026-04-04T10:20:42.794Z</time></trkpt><trkpt lat="42.88301" lon="13.500435"><ele>417.0</ele><time>2026-04-04T10:20:43.794Z</time></trkpt><trkpt lat="42.8830217" lon="13.500295"><ele>417.0</ele><time>2026-04-04T10:20:44.795Z</time></trkpt><trkpt lat="42.883035" lon="13.5001567"><ele>414.0</ele><time>2026-04-04T10:20:45.794Z</time></trkpt><trkpt lat="42.8830517" lon="13.50001"><ele>411.0</ele><time>2026-04-04T10:20:46.794Z</time></trkpt><trkpt lat="42.8830833" lon="13.4998817"><ele>408.0</ele><time>2026-04-04T10:20:47.795Z</time></trkpt><trkpt lat="42.8831383" lon="13.4997667"><ele>405.0</ele><time>2026-04-04T10:20:48.794Z</time></trkpt><trkpt lat="42.8832083" lon="13.4996667"><ele>402.0</ele><time>2026-04-04T10:20:49.794Z</time></trkpt><trkpt lat="42.883285" lon="13.4995767"><ele>400.0</ele><time>2026-04-04T10:20:50.795Z</time></trkpt><trkpt lat="42.8833533" lon="13.4994717"><ele>398.0</ele><time>2026-04-04T10:20:51.794Z</time></trkpt><trkpt lat="42.883405" lon="13.499345"><ele>396.0</ele><time>2026-04-04T10:20:52.794Z</time></trkpt><trkpt lat="42.8834317" lon="13.49922"><ele>394.0</ele><time>2026-04-04T10:20:53.795Z</time></trkpt><trkpt lat="42.88344" lon="13.49912"><ele>392.0</ele><time>2026-04-04T10:20:54.794Z</time></trkpt><trkpt lat="42.8834433" lon="13.4989833"><ele>394.8333333333333</ele><time>2026-04-04T10:20:56.795Z</time></trkpt><trkpt lat="42.883475" lon="13.4988483"><ele>397.66666666666663</ele><time>2026-04-04T10:20:58.794Z</time></trkpt><trkpt lat="42.8834983" lon="13.4987583"><ele>400.5</ele><time>2026-04-04T10:20:59.794Z</time></trkpt><trkpt lat="42.8835183" lon="13.4986517"><ele>403.33333333333337</ele><time>2026-04-04T10:21:00.794Z</time></trkpt><trkpt lat="42.883545" lon="13.4985617"><ele>406.1666666666667</ele><time>2026-04-04T10:21:01.794Z</time></trkpt><trkpt lat="42.88357" lon="13.4984733"><ele>409.0</ele><time>2026-04-04T10:21:02.795Z</time></trkpt><trkpt lat="42.88358" lon="13.4983867"><ele>409.0</ele><time>2026-04-04T10:21:03.794Z</time></trkpt><trkpt lat="42.8835783" lon="13.4983"><ele>409.0</ele><time>2026-04-04T10:21:04.795Z</time></trkpt><trkpt lat="42.8835433" lon="13.498145"><ele>409.0</ele><time>2026-04-04T10:21:06.794Z</time></trkpt><trkpt lat="42.8835717" lon="13.4980183"><ele>409.0</ele><time>2026-04-04T10:21:08.794Z</time></trkpt><trkpt lat="42.883615" lon="13.497895"><ele>409.0</ele><time>2026-04-04T10:21:10.794Z</time></trkpt><trkpt lat="42.8836567" lon="13.49777"><ele>407.33333333333337</ele><time>2026-04-04T10:21:12.795Z</time></trkpt><trkpt lat="42.8837083" lon="13.4976817"><ele>405.6666666666667</ele><time>2026-04-04T10:21:14.795Z</time></trkpt><trkpt lat="42.883795" lon="13.4976133"><ele>404.0</ele><time>2026-04-04T10:21:16.795Z</time></trkpt><trkpt lat="42.883855" lon="13.4975717"><ele>402.33333333333337</ele><time>2026-04-04T10:21:17.794Z</time></trkpt><trkpt lat="42.8839167" lon="13.497515"><ele>400.6666666666667</ele><time>2026-04-04T10:21:18.794Z</time></trkpt><trkpt lat="42.8839933" lon="13.4974683"><ele>399.0</ele><time>2026-04-04T10:21:19.795Z</time></trkpt><trkpt lat="42.8840683" lon="13.497435"><ele>399.0</ele><time>2026-04-04T10:21:20.794Z</time></trkpt><trkpt lat="42.8841283" lon="13.497405"><ele>399.0</ele><time>2026-04-04T10:21:21.794Z</time></trkpt><trkpt lat="42.8842233" lon="13.4973867"><ele>399.0</ele><time>2026-04-04T10:21:23.795Z</time></trkpt><trkpt lat="42.8842917" lon="13.4973483"><ele>399.0</ele><time>2026-04-04T10:21:25.794Z</time></trkpt><trkpt lat="42.8843667" lon="13.49732"><ele>399.0</ele><time>2026-04-04T10:21:27.795Z</time></trkpt><trkpt lat="42.8844617" lon="13.4973017"><ele>399.0</ele><time>2026-04-04T10:21:38.794Z</time></trkpt><trkpt lat="42.8845317" lon="13.4972017"><ele>400.3333333333333</ele><time>2026-04-04T10:21:41.794Z</time></trkpt><trkpt lat="42.884545" lon="13.497095"><ele>401.66666666666663</ele><time>2026-04-04T10:21:43.794Z</time></trkpt><trkpt lat="42.8845067" lon="13.4970267"><ele>403.0</ele><time>2026-04-04T10:22:46.794Z</time></trkpt><trkpt lat="42.8844433" lon="13.4970983"><ele>404.3333333333333</ele><time>2026-04-04T10:22:50.795Z</time></trkpt><trkpt lat="42.884485" lon="13.4972333"><ele>405.66666666666663</ele><time>2026-04-04T10:22:52.795Z</time></trkpt><trkpt lat="42.8845183" lon="13.4973117"><ele>407.0</ele><time>2026-04-04T10:22:53.795Z</time></trkpt><trkpt lat="42.8845617" lon="13.497395"><ele>407.99999999999994</ele><time>2026-04-04T10:22:54.794Z</time></trkpt><trkpt lat="42.8846133" lon="13.4974567"><ele>409.0</ele><time>2026-04-04T10:22:55.794Z</time></trkpt><trkpt lat="42.8846733" lon="13.49752"><ele>410.0</ele><time>2026-04-04T10:22:56.794Z</time></trkpt><trkpt lat="42.88474" lon="13.4975817"><ele>411.0</ele><time>2026-04-04T10:22:57.793Z</time></trkpt><trkpt lat="42.8848067" lon="13.49763"><ele>411.99999999999994</ele><time>2026-04-04T10:22:58.793Z</time></trkpt><trkpt lat="42.884885" lon="13.49768"><ele>413.0</ele><time>2026-04-04T10:22:59.793Z</time></trkpt><trkpt lat="42.8849583" lon="13.49773"><ele>413.0</ele><time>2026-04-04T10:23:00.793Z</time></trkpt><trkpt lat="42.88503" lon="13.4977767"><ele>413.0</ele><time>2026-04-04T10:23:01.793Z</time></trkpt><trkpt lat="42.8851083" lon="13.4978233"><ele>413.0</ele><time>2026-04-04T10:23:02.794Z</time></trkpt><trkpt lat="42.8852067" lon="13.4978583"><ele>413.0</ele><time>2026-04-04T10:23:03.793Z</time></trkpt><trkpt lat="42.8853183" lon="13.49789"><ele>413.0</ele><time>2026-04-04T10:23:04.793Z</time></trkpt><trkpt lat="42.885425" lon="13.4979317"><ele>415.16666666666663</ele><time>2026-04-04T10:23:05.794Z</time></trkpt><trkpt lat="42.8855133" lon="13.4979633"><ele>417.3333333333333</ele><time>2026-04-04T10:23:06.794Z</time></trkpt><trkpt lat="42.8855783" lon="13.4979933"><ele>419.5</ele><time>2026-04-04T10:23:07.794Z</time></trkpt><trkpt lat="42.8856383" lon="13.4980217"><ele>421.66666666666663</ele><time>2026-04-04T10:23:08.793Z</time></trkpt><trkpt lat="42.8857217" lon="13.4980667"><ele>423.8333333333333</ele><time>2026-04-04T10:23:10.793Z</time></trkpt><trkpt lat="42.8857917" lon="13.4980867"><ele>426.0</ele><time>2026-04-04T10:23:20.794Z</time></trkpt><trkpt lat="42.885755" lon="13.49819"><ele>426.0</ele><time>2026-04-04T10:23:24.793Z</time></trkpt><trkpt lat="42.8856983" lon="13.498235"><ele>426.0</ele><time>2026-04-04T10:23:26.793Z</time></trkpt><trkpt lat="42.88562" lon="13.4982983"><ele>426.0</ele><time>2026-04-04T10:23:29.794Z</time></trkpt><trkpt lat="42.88556" lon="13.4983333"><ele>426.0</ele><time>2026-04-04T10:23:31.794Z</time></trkpt><trkpt lat="42.885485" lon="13.49839"><ele>426.0</ele><time>2026-04-04T10:23:33.794Z</time></trkpt><trkpt lat="42.8854167" lon="13.498435"><ele>426.0</ele><time>2026-04-04T10:23:35.794Z</time></trkpt><trkpt lat="42.88533" lon="13.4984967"><ele>426.0</ele><time>2026-04-04T10:23:37.794Z</time></trkpt><trkpt lat="42.8852767" lon="13.4985667"><ele>426.0</ele><time>2026-04-04T10:23:39.793Z</time></trkpt><trkpt lat="42.8852167" lon="13.4986333"><ele>426.0</ele><time>2026-04-04T10:23:41.794Z</time></trkpt><trkpt lat="42.88516" lon="13.49868"><ele>426.0</ele><time>2026-04-04T10:23:43.794Z</time></trkpt><trkpt lat="42.88507" lon="13.4987433"><ele>426.0</ele><time>2026-04-04T10:23:46.794Z</time></trkpt><trkpt lat="42.88498" lon="13.498765"><ele>426.0</ele><time>2026-04-04T10:23:49.794Z</time></trkpt><trkpt lat="42.8849167" lon="13.4987983"><ele>425.6666666666667</ele><time>2026-04-04T10:23:51.793Z</time></trkpt><trkpt lat="42.8848517" lon="13.49882"><ele>425.33333333333337</ele><time>2026-04-04T10:23:53.794Z</time></trkpt><trkpt lat="42.8847883" lon="13.4988317"><ele>425.0</ele><time>2026-04-04T10:24:11.793Z</time></trkpt><trkpt lat="42.8847133" lon="13.4988367"><ele>424.6666666666667</ele><time>2026-04-04T10:24:13.793Z</time></trkpt><trkpt lat="42.8846183" lon="13.4989067"><ele>424.33333333333337</ele><time>2026-04-04T10:24:24.793Z</time></trkpt><trkpt lat="42.8845867" lon="13.4989983"><ele>424.0</ele><time>2026-04-04T10:24:26.793Z</time></trkpt><trkpt lat="42.88458" lon="13.4991083"><ele>424.00000000000006</ele><time>2026-04-04T10:24:29.793Z</time></trkpt><trkpt lat="42.8846467" lon="13.4990683"><ele>424.0</ele><time>2026-04-04T10:24:43.794Z</time></trkpt><trkpt lat="42.8847267" lon="13.4990733"><ele>424.0</ele><time>2026-04-04T10:24:46.794Z</time></trkpt><trkpt lat="42.8847283" lon="13.498985"><ele>424.0</ele><time>2026-04-04T10:25:01.793Z</time></trkpt><trkpt lat="42.88479" lon="13.4988567"><ele>424.00000000000006</ele><time>2026-04-04T10:25:11.793Z</time></trkpt><trkpt lat="42.8848333" lon="13.4987483"><ele>424.0</ele><time>2026-04-04T10:25:14.793Z</time></trkpt><trkpt lat="42.8848867" lon="13.4986733"><ele>422.33333333333337</ele><time>2026-04-04T10:25:16.794Z</time></trkpt><trkpt lat="42.8849283" lon="13.4985933"><ele>420.6666666666667</ele><time>2026-04-04T10:25:18.794Z</time></trkpt><trkpt lat="42.8849433" lon="13.4985017"><ele>419.0</ele><time>2026-04-04T10:25:20.794Z</time></trkpt><trkpt lat="42.884975" lon="13.498395"><ele>417.33333333333337</ele><time>2026-04-04T10:25:22.794Z</time></trkpt><trkpt lat="42.884995" lon="13.49831"><ele>415.6666666666667</ele><time>2026-04-04T10:25:24.794Z</time></trkpt><trkpt lat="42.88501" lon="13.4981783"><ele>414.0</ele><time>2026-04-04T10:25:27.793Z</time></trkpt><trkpt lat="42.8850217" lon="13.49807"><ele>414.00000000000006</ele><time>2026-04-04T10:25:29.793Z</time></trkpt><trkpt lat="42.88501" lon="13.4979667"><ele>414.0</ele><time>2026-04-04T10:25:31.793Z</time></trkpt><trkpt lat="42.8849917" lon="13.4978833"><ele>414.0</ele><time>2026-04-04T10:25:33.794Z</time></trkpt><trkpt lat="42.8849617" lon="13.4978033"><ele>414.0</ele><time>2026-04-04T10:25:35.793Z</time></trkpt><trkpt lat="42.8848983" lon="13.4977517"><ele>414.0</ele><time>2026-04-04T10:25:37.794Z</time></trkpt><trkpt lat="42.8848283" lon="13.4977033"><ele>414.00000000000006</ele><time>2026-04-04T10:25:39.794Z</time></trkpt><trkpt lat="42.88475" lon="13.4976633"><ele>414.0</ele><time>2026-04-04T10:25:41.793Z</time></trkpt><trkpt lat="42.8846767" lon="13.4976033"><ele>413.8333333333333</ele><time>2026-04-04T10:25:43.793Z</time></trkpt><trkpt lat="42.8846033" lon="13.4975433"><ele>413.66666666666663</ele><time>2026-04-04T10:25:45.793Z</time></trkpt><trkpt lat="42.88452" lon="13.4974967"><ele>413.5</ele><time>2026-04-04T10:25:47.794Z</time></trkpt><trkpt lat="42.8844317" lon="13.4974383"><ele>413.3333333333333</ele><time>2026-04-04T10:25:49.793Z</time></trkpt><trkpt lat="42.884355" lon="13.497395"><ele>413.16666666666663</ele><time>2026-04-04T10:25:51.793Z</time></trkpt><trkpt lat="42.8842733" lon="13.4973583"><ele>413.0</ele><time>2026-04-04T10:25:53.793Z</time></trkpt><trkpt lat="42.8841867" lon="13.49736"><ele>410.2</ele><time>2026-04-04T10:25:55.794Z</time></trkpt><trkpt lat="42.884085" lon="13.4974133"><ele>407.4</ele><time>2026-04-04T10:25:57.794Z</time></trkpt><trkpt lat="42.8840183" lon="13.4974517"><ele>404.59999999999997</ele><time>2026-04-04T10:25:58.794Z</time></trkpt><trkpt lat="42.8839533" lon="13.4974917"><ele>401.79999999999995</ele><time>2026-04-04T10:25:59.794Z</time></trkpt><trkpt lat="42.8838483" lon="13.497565"><ele>399.0</ele><time>2026-04-04T10:26:01.794Z</time></trkpt><trkpt lat="42.8837667" lon="13.497635"><ele>399.0</ele><time>2026-04-04T10:26:03.793Z</time></trkpt><trkpt lat="42.8837083" lon="13.4977"><ele>399.0</ele><time>2026-04-04T10:26:05.794Z</time></trkpt><trkpt lat="42.883675" lon="13.497785"><ele>399.0</ele><time>2026-04-04T10:26:07.794Z</time></trkpt><trkpt lat="42.8836367" lon="13.4979383"><ele>399.0</ele><time>2026-04-04T10:26:09.793Z</time></trkpt><trkpt lat="42.88361" lon="13.4980317"><ele>399.0</ele><time>2026-04-04T10:26:10.792Z</time></trkpt><trkpt lat="42.8835883" lon="13.4981283"><ele>399.0</ele><time>2026-04-04T10:26:11.792Z</time></trkpt><trkpt lat="42.8835783" lon="13.498215"><ele>401.0</ele><time>2026-04-04T10:26:12.793Z</time></trkpt><trkpt lat="42.8835817" lon="13.4983133"><ele>403.0</ele><time>2026-04-04T10:26:13.792Z</time></trkpt><trkpt lat="42.8835867" lon="13.4984733"><ele>405.0</ele><time>2026-04-04T10:26:15.792Z</time></trkpt><trkpt lat="42.88355" lon="13.4986067"><ele>407.0</ele><time>2026-04-04T10:26:17.792Z</time></trkpt><trkpt lat="42.88352" lon="13.49871"><ele>409.0</ele><time>2026-04-04T10:26:19.793Z</time></trkpt><trkpt lat="42.8834917" lon="13.4988217"><ele>409.79999999999995</ele><time>2026-04-04T10:26:22.792Z</time></trkpt><trkpt lat="42.8835383" lon="13.49891"><ele>410.59999999999997</ele><time>2026-04-04T10:26:31.792Z</time></trkpt><trkpt lat="42.8836483" lon="13.4990033"><ele>411.4</ele><time>2026-04-04T10:26:33.792Z</time></trkpt><trkpt lat="42.88371" lon="13.49908"><ele>412.2</ele><time>2026-04-04T10:26:34.792Z</time></trkpt><trkpt lat="42.8837767" lon="13.4991533"><ele>413.0</ele><time>2026-04-04T10:26:35.793Z</time></trkpt><trkpt lat="42.8838467" lon="13.499225"><ele>413.0</ele><time>2026-04-04T10:26:36.793Z</time></trkpt><trkpt lat="42.88393" lon="13.4992783"><ele>413.0</ele><time>2026-04-04T10:26:37.792Z</time></trkpt><trkpt lat="42.8840233" lon="13.499315"><ele>413.0</ele><time>2026-04-04T10:26:38.792Z</time></trkpt><trkpt lat="42.8841233" lon="13.4993367"><ele>413.0</ele><time>2026-04-04T10:26:39.793Z</time></trkpt><trkpt lat="42.8842183" lon="13.4993583"><ele>413.0</ele><time>2026-04-04T10:26:40.792Z</time></trkpt><trkpt lat="42.88432" lon="13.4993733"><ele>414.79999999999995</ele><time>2026-04-04T10:26:41.792Z</time></trkpt><trkpt lat="42.8844117" lon="13.4994283"><ele>416.6</ele><time>2026-04-04T10:26:42.792Z</time></trkpt><trkpt lat="42.88448" lon="13.49951"><ele>418.4</ele><time>2026-04-04T10:26:43.793Z</time></trkpt><trkpt lat="42.88453" lon="13.4996317"><ele>420.20000000000005</ele><time>2026-04-04T10:26:44.792Z</time></trkpt><trkpt lat="42.8845533" lon="13.4997617"><ele>422.0</ele><time>2026-04-04T10:26:45.792Z</time></trkpt><trkpt lat="42.8845717" lon="13.49991"><ele>421.99999999999994</ele><time>2026-04-04T10:26:46.792Z</time></trkpt><trkpt lat="42.884585" lon="13.5000533"><ele>422.0</ele><time>2026-04-04T10:26:47.792Z</time></trkpt><trkpt lat="42.8846083" lon="13.50018"><ele>422.0</ele><time>2026-04-04T10:26:48.793Z</time></trkpt><trkpt lat="42.884645" lon="13.50028"><ele>422.0</ele><time>2026-04-04T10:26:49.793Z</time></trkpt><trkpt lat="42.88468" lon="13.5003633"><ele>421.99999999999994</ele><time>2026-04-04T10:26:50.793Z</time></trkpt><trkpt lat="42.8847467" lon="13.5004"><ele>422.0</ele><time>2026-04-04T10:26:51.793Z</time></trkpt><trkpt lat="42.8848267" lon="13.500395"><ele>422.0</ele><time>2026-04-04T10:26:52.792Z</time></trkpt><trkpt lat="42.884915" lon="13.50036"><ele>422.0</ele><time>2026-04-04T10:26:53.792Z</time></trkpt><trkpt lat="42.8850067" lon="13.5003217"><ele>422.0</ele><time>2026-04-04T10:26:54.792Z</time></trkpt><trkpt lat="42.8851133" lon="13.5002933"><ele>422.0</ele><time>2026-04-04T10:26:55.792Z</time></trkpt><trkpt lat="42.8852183" lon="13.5002667"><ele>422.0</ele><time>2026-04-04T10:26:56.793Z</time></trkpt><trkpt lat="42.8853283" lon="13.5002417"><ele>423.0</ele><time>2026-04-04T10:26:57.792Z</time></trkpt><trkpt lat="42.88544" lon="13.5002167"><ele>424.0</ele><time>2026-04-04T10:26:58.793Z</time></trkpt><trkpt lat="42.8855517" lon="13.5001833"><ele>425.00000000000006</ele><time>2026-04-04T10:26:59.792Z</time></trkpt><trkpt lat="42.8856617" lon="13.5001467"><ele>426.0</ele><time>2026-04-04T10:27:00.792Z</time></trkpt><trkpt lat="42.8857467" lon="13.500085"><ele>427.0</ele><time>2026-04-04T10:27:01.792Z</time></trkpt><trkpt lat="42.8858183" lon="13.5"><ele>427.0</ele><time>2026-04-04T10:27:02.793Z</time></trkpt><trkpt lat="42.8858733" lon="13.4998967"><ele>427.00000000000006</ele><time>2026-04-04T10:27:03.792Z</time></trkpt><trkpt lat="42.8859083" lon="13.4997767"><ele>427.00000000000006</ele><time>2026-04-04T10:27:04.792Z</time></trkpt><trkpt lat="42.8859283" lon="13.4996567"><ele>427.0</ele><time>2026-04-04T10:27:05.792Z</time></trkpt><trkpt lat="42.885935" lon="13.4995317"><ele>427.0</ele><time>2026-04-04T10:27:06.793Z</time></trkpt><trkpt lat="42.8859383" lon="13.4994033"><ele>425.5</ele><time>2026-04-04T10:27:07.792Z</time></trkpt><trkpt lat="42.8859483" lon="13.4992617"><ele>424.0</ele><time>2026-04-04T10:27:08.792Z</time></trkpt><trkpt lat="42.8859683" lon="13.499105"><ele>422.5</ele><time>2026-04-04T10:27:09.793Z</time></trkpt><trkpt lat="42.8859933" lon="13.4989433"><ele>421.0</ele><time>2026-04-04T10:27:10.792Z</time></trkpt><trkpt lat="42.8860267" lon="13.4987817"><ele>424.20000000000005</ele><time>2026-04-04T10:27:11.792Z</time></trkpt><trkpt lat="42.8860533" lon="13.498625"><ele>427.40000000000003</ele><time>2026-04-04T10:27:12.793Z</time></trkpt><trkpt lat="42.8860667" lon="13.4984733"><ele>430.6</ele><time>2026-04-04T10:27:13.792Z</time></trkpt><trkpt lat="42.88607" lon="13.498325"><ele>433.8</ele><time>2026-04-04T10:27:14.792Z</time></trkpt><trkpt lat="42.8860783" lon="13.498185"><ele>437.0</ele><time>2026-04-04T10:27:15.792Z</time></trkpt><trkpt lat="42.8860667" lon="13.4980467"><ele>437.0</ele><time>2026-04-04T10:27:16.792Z</time></trkpt><trkpt lat="42.8860317" lon="13.4979133"><ele>437.00000000000006</ele><time>2026-04-04T10:27:17.793Z</time></trkpt><trkpt lat="42.885975" lon="13.4977933"><ele>437.00000000000006</ele><time>2026-04-04T10:27:18.792Z</time></trkpt><trkpt lat="42.8859083" lon="13.4976717"><ele>437.0</ele><time>2026-04-04T10:27:19.793Z</time></trkpt><trkpt lat="42.88584" lon="13.4975717"><ele>437.0</ele><time>2026-04-04T10:27:20.793Z</time></trkpt><trkpt lat="42.8857733" lon="13.4974833"><ele>436.16666666666663</ele><time>2026-04-04T10:27:21.792Z</time></trkpt><trkpt lat="42.88572" lon="13.4974"><ele>435.3333333333333</ele><time>2026-04-04T10:27:22.793Z</time></trkpt><trkpt lat="42.8856833" lon="13.4973217"><ele>434.5</ele><time>2026-04-04T10:27:23.792Z</time></trkpt><trkpt lat="42.8856633" lon="13.4972283"><ele>433.66666666666663</ele><time>2026-04-04T10:27:24.792Z</time></trkpt><trkpt lat="42.8856717" lon="13.4971367"><ele>432.8333333333333</ele><time>2026-04-04T10:27:25.793Z</time></trkpt><trkpt lat="42.8857217" lon="13.4970567"><ele>432.0</ele><time>2026-04-04T10:27:26.792Z</time></trkpt><trkpt lat="42.8858" lon="13.4969817"><ele>430.6</ele><time>2026-04-04T10:27:27.792Z</time></trkpt><trkpt lat="42.8859033" lon="13.49693"><ele>429.20000000000005</ele><time>2026-04-04T10:27:28.792Z</time></trkpt><trkpt lat="42.8860167" lon="13.4968967"><ele>427.8</ele><time>2026-04-04T10:27:29.792Z</time></trkpt><trkpt lat="42.886125" lon="13.4968917"><ele>426.4</ele><time>2026-04-04T10:27:30.792Z</time></trkpt><trkpt lat="42.8862333" lon="13.4969183"><ele>425.0</ele><time>2026-04-04T10:27:31.793Z</time></trkpt><trkpt lat="42.8864017" lon="13.4969783"><ele>425.0</ele><time>2026-04-04T10:27:33.793Z</time></trkpt><trkpt lat="42.8864867" lon="13.497015"><ele>425.0</ele><time>2026-04-04T10:27:34.793Z</time></trkpt><trkpt lat="42.88657" lon="13.4970633"><ele>425.0</ele><time>2026-04-04T10:27:35.792Z</time></trkpt><trkpt lat="42.8866583" lon="13.4971033"><ele>425.0</ele><time>2026-04-04T10:27:36.792Z</time></trkpt><trkpt lat="42.88674" lon="13.4971517"><ele>425.0</ele><time>2026-04-04T10:27:37.792Z</time></trkpt><trkpt lat="42.8868283" lon="13.4971933"><ele>425.99999999999994</ele><time>2026-04-04T10:27:38.792Z</time></trkpt><trkpt lat="42.8869133" lon="13.4972317"><ele>427.0</ele><time>2026-04-04T10:27:39.793Z</time></trkpt><trkpt lat="42.8870067" lon="13.4972717"><ele>428.0</ele><time>2026-04-04T10:27:40.792Z</time></trkpt><trkpt lat="42.88709" lon="13.49731"><ele>429.0</ele><time>2026-04-04T10:27:41.792Z</time></trkpt><trkpt lat="42.8871733" lon="13.49734"><ele>429.99999999999994</ele><time>2026-04-04T10:27:42.792Z</time></trkpt><trkpt lat="42.8872533" lon="13.49736"><ele>431.0</ele><time>2026-04-04T10:27:43.793Z</time></trkpt><trkpt lat="42.88733" lon="13.4973583"><ele>430.99999999999994</ele><time>2026-04-04T10:27:44.792Z</time></trkpt><trkpt lat="42.8873967" lon="13.4973367"><ele>431.0</ele><time>2026-04-04T10:27:45.792Z</time></trkpt><trkpt lat="42.8874767" lon="13.4972183"><ele>431.0</ele><time>2026-04-04T10:27:47.793Z</time></trkpt><trkpt lat="42.8874867" lon="13.497125"><ele>431.0</ele><time>2026-04-04T10:27:48.793Z</time></trkpt><trkpt lat="42.88745" lon="13.4970317"><ele>430.99999999999994</ele><time>2026-04-04T10:27:49.792Z</time></trkpt><trkpt lat="42.8873933" lon="13.49695"><ele>431.0</ele><time>2026-04-04T10:27:50.792Z</time></trkpt><trkpt lat="42.8873233" lon="13.4968817"><ele>430.20000000000005</ele><time>2026-04-04T10:27:51.793Z</time></trkpt><trkpt lat="42.8872317" lon="13.4968067"><ele>429.40000000000003</ele><time>2026-04-04T10:27:52.792Z</time></trkpt><trkpt lat="42.8871267" lon="13.496735"><ele>428.6</ele><time>2026-04-04T10:27:53.792Z</time></trkpt><trkpt lat="42.8870267" lon="13.496665"><ele>427.8</ele><time>2026-04-04T10:27:54.792Z</time></trkpt><trkpt lat="42.88693" lon="13.496595"><ele>427.0</ele><time>2026-04-04T10:27:55.792Z</time></trkpt><trkpt lat="42.88684" lon="13.4965217"><ele>426.6</ele><time>2026-04-04T10:27:56.792Z</time></trkpt><trkpt lat="42.8867517" lon="13.4964417"><ele>426.20000000000005</ele><time>2026-04-04T10:27:57.792Z</time></trkpt><trkpt lat="42.8866667" lon="13.4963633"><ele>425.8</ele><time>2026-04-04T10:27:58.793Z</time></trkpt><trkpt lat="42.8865883" lon="13.4962917"><ele>425.4</ele><time>2026-04-04T10:27:59.793Z</time></trkpt><trkpt lat="42.8865117" lon="13.496215"><ele>425.0</ele><time>2026-04-04T10:28:00.793Z</time></trkpt><trkpt lat="42.88643" lon="13.4961533"><ele>423.66666666666663</ele><time>2026-04-04T10:28:01.793Z</time></trkpt><trkpt lat="42.8863567" lon="13.4960983"><ele>422.3333333333333</ele><time>2026-04-04T10:28:02.792Z</time></trkpt><trkpt lat="42.88628" lon="13.4960383"><ele>421.0</ele><time>2026-04-04T10:28:03.792Z</time></trkpt><trkpt lat="42.8861967" lon="13.495975"><ele>419.66666666666663</ele><time>2026-04-04T10:28:04.793Z</time></trkpt><trkpt lat="42.8861283" lon="13.4959"><ele>418.3333333333333</ele><time>2026-04-04T10:28:05.793Z</time></trkpt><trkpt lat="42.886065" lon="13.4958217"><ele>417.0</ele><time>2026-04-04T10:28:06.792Z</time></trkpt><trkpt lat="42.886015" lon="13.4957183"><ele>417.0</ele><time>2026-04-04T10:28:07.792Z</time></trkpt><trkpt lat="42.8859883" lon="13.49559"><ele>417.0</ele><time>2026-04-04T10:28:08.792Z</time></trkpt><trkpt lat="42.8859683" lon="13.4954683"><ele>417.0</ele><time>2026-04-04T10:28:09.792Z</time></trkpt><trkpt lat="42.8859817" lon="13.4953167"><ele>417.0</ele><time>2026-04-04T10:28:10.792Z</time></trkpt><trkpt lat="42.8860033" lon="13.4951617"><ele>417.0</ele><time>2026-04-04T10:28:11.792Z</time></trkpt><trkpt lat="42.8860117" lon="13.4950117"><ele>416.8</ele><time>2026-04-04T10:28:12.792Z</time></trkpt><trkpt lat="42.886" lon="13.4948683"><ele>416.6</ele><time>2026-04-04T10:28:13.792Z</time></trkpt><trkpt lat="42.8859917" lon="13.4947367"><ele>416.40000000000003</ele><time>2026-04-04T10:28:14.792Z</time></trkpt><trkpt lat="42.88596" lon="13.4946267"><ele>416.20000000000005</ele><time>2026-04-04T10:28:15.792Z</time></trkpt><trkpt lat="42.8859067" lon="13.4945517"><ele>416.0</ele><time>2026-04-04T10:28:16.792Z</time></trkpt><trkpt lat="42.885825" lon="13.4945017"><ele>420.0</ele><time>2026-04-04T10:28:17.792Z</time></trkpt><trkpt lat="42.8857283" lon="13.494485"><ele>424.0</ele><time>2026-04-04T10:28:18.792Z</time></trkpt><trkpt lat="42.8856117" lon="13.4945067"><ele>428.0</ele><time>2026-04-04T10:28:19.792Z</time></trkpt><trkpt lat="42.8854883" lon="13.4945483"><ele>432.0</ele><time>2026-04-04T10:28:20.792Z</time></trkpt><trkpt lat="42.88538" lon="13.4945817"><ele>428.0</ele><time>2026-04-04T10:28:21.792Z</time></trkpt><trkpt lat="42.8852717" lon="13.4946117"><ele>424.00000000000006</ele><time>2026-04-04T10:28:22.792Z</time></trkpt><trkpt lat="42.8851683" lon="13.494635"><ele>420.0</ele><time>2026-04-04T10:28:23.792Z</time></trkpt><trkpt lat="42.8850683" lon="13.494645"><ele>416.0</ele><time>2026-04-04T10:28:24.792Z</time></trkpt><trkpt lat="42.8849717" lon="13.494645"><ele>412.0</ele><time>2026-04-04T10:28:25.792Z</time></trkpt><trkpt lat="42.884885" lon="13.4946283"><ele>418.20000000000005</ele><time>2026-04-04T10:28:26.793Z</time></trkpt><trkpt lat="42.884795" lon="13.4945817"><ele>424.4</ele><time>2026-04-04T10:28:27.792Z</time></trkpt><trkpt lat="42.8847117" lon="13.4945183"><ele>430.59999999999997</ele><time>2026-04-04T10:28:28.793Z</time></trkpt><trkpt lat="42.8846317" lon="13.4944417"><ele>436.79999999999995</ele><time>2026-04-04T10:28:29.792Z</time></trkpt><trkpt lat="42.884555" lon="13.49435"><ele>443.0</ele><time>2026-04-04T10:28:30.793Z</time></trkpt><trkpt lat="42.88447" lon="13.4942667"><ele>443.0</ele><time>2026-04-04T10:28:31.793Z</time></trkpt><trkpt lat="42.8843933" lon="13.49418"><ele>442.99999999999994</ele><time>2026-04-04T10:28:32.792Z</time></trkpt><trkpt lat="42.8842983" lon="13.4940967"><ele>442.99999999999994</ele><time>2026-04-04T10:28:33.793Z</time></trkpt><trkpt lat="42.8842083" lon="13.4940233"><ele>443.0</ele><time>2026-04-04T10:28:34.793Z</time></trkpt><trkpt lat="42.8841217" lon="13.493965"><ele>443.0</ele><time>2026-04-04T10:28:35.792Z</time></trkpt><trkpt lat="42.8840233" lon="13.4939217"><ele>444.0</ele><time>2026-04-04T10:28:36.792Z</time></trkpt><trkpt lat="42.8839433" lon="13.4938983"><ele>444.99999999999994</ele><time>2026-04-04T10:28:37.792Z</time></trkpt><trkpt lat="42.88386" lon="13.4938583"><ele>445.99999999999994</ele><time>2026-04-04T10:28:38.792Z</time></trkpt><trkpt lat="42.8837783" lon="13.4938"><ele>447.0</ele><time>2026-04-04T10:28:39.793Z</time></trkpt><trkpt lat="42.88368" lon="13.49373"><ele>448.0</ele><time>2026-04-04T10:28:40.792Z</time></trkpt><trkpt lat="42.883575" lon="13.4936617"><ele>448.00000000000006</ele><time>2026-04-04T10:28:41.793Z</time></trkpt><trkpt lat="42.88348" lon="13.4936067"><ele>448.0</ele><time>2026-04-04T10:28:42.793Z</time></trkpt><trkpt lat="42.883395" lon="13.4935617"><ele>448.0</ele><time>2026-04-04T10:28:43.793Z</time></trkpt><trkpt lat="42.88332" lon="13.4935283"><ele>448.0</ele><time>2026-04-04T10:28:44.792Z</time></trkpt><trkpt lat="42.8832467" lon="13.4935033"><ele>448.00000000000006</ele><time>2026-04-04T10:28:45.793Z</time></trkpt><trkpt lat="42.8831717" lon="13.4934833"><ele>448.0</ele><time>2026-04-04T10:28:46.792Z</time></trkpt><trkpt lat="42.883095" lon="13.493465"><ele>447.1666666666667</ele><time>2026-04-04T10:28:47.792Z</time></trkpt><trkpt lat="42.8830267" lon="13.49344"><ele>446.33333333333337</ele><time>2026-04-04T10:28:48.793Z</time></trkpt><trkpt lat="42.882965" lon="13.493415"><ele>445.5</ele><time>2026-04-04T10:28:49.793Z</time></trkpt><trkpt lat="42.8828967" lon="13.4934017"><ele>444.66666666666663</ele><time>2026-04-04T10:28:50.792Z</time></trkpt><trkpt lat="42.882775" lon="13.4933667"><ele>443.8333333333333</ele><time>2026-04-04T10:28:52.793Z</time></trkpt><trkpt lat="42.882715" lon="13.4933367"><ele>443.0</ele><time>2026-04-04T10:28:53.793Z</time></trkpt><trkpt lat="42.882655" lon="13.4933083"><ele>442.8333333333333</ele><time>2026-04-04T10:28:54.793Z</time></trkpt><trkpt lat="42.8825683" lon="13.49323"><ele>442.66666666666663</ele><time>2026-04-04T10:28:56.792Z</time></trkpt><trkpt lat="42.8825083" lon="13.49313"><ele>442.5</ele><time>2026-04-04T10:28:58.792Z</time></trkpt><trkpt lat="42.8825267" lon="13.4930183"><ele>442.33333333333337</ele><time>2026-04-04T10:29:00.792Z</time></trkpt><trkpt lat="42.8825967" lon="13.49294"><ele>442.1666666666667</ele><time>2026-04-04T10:29:02.793Z</time></trkpt><trkpt lat="42.88267" lon="13.4929133"><ele>442.0</ele><time>2026-04-04T10:29:04.792Z</time></trkpt><trkpt lat="42.8826833" lon="13.492795"><ele>442.0</ele><time>2026-04-04T10:29:07.792Z</time></trkpt><trkpt lat="42.8826933" lon="13.492615"><ele>442.00000000000006</ele><time>2026-04-04T10:29:09.792Z</time></trkpt><trkpt lat="42.8827167" lon="13.4925117"><ele>442.00000000000006</ele><time>2026-04-04T10:29:10.793Z</time></trkpt><trkpt lat="42.8827283" lon="13.4924233"><ele>442.0</ele><time>2026-04-04T10:29:11.793Z</time></trkpt><trkpt lat="42.8827383" lon="13.4923033"><ele>442.0</ele><time>2026-04-04T10:29:13.792Z</time></trkpt><trkpt lat="42.8826933" lon="13.4921983"><ele>442.0</ele><time>2026-04-04T10:29:16.792Z</time></trkpt><trkpt lat="42.8826017" lon="13.492175"><ele>442.00000000000006</ele><time>2026-04-04T10:29:18.793Z</time></trkpt><trkpt lat="42.8824783" lon="13.4921667"><ele>442.00000000000006</ele><time>2026-04-04T10:29:20.792Z</time></trkpt><trkpt lat="42.8824" lon="13.49216"><ele>442.0</ele><time>2026-04-04T10:29:21.792Z</time></trkpt><trkpt lat="42.8823167" lon="13.4921717"><ele>442.0</ele><time>2026-04-04T10:29:22.793Z</time></trkpt><trkpt lat="42.88223" lon="13.4921817"><ele>441.00000000000006</ele><time>2026-04-04T10:29:23.793Z</time></trkpt><trkpt lat="42.88215" lon="13.4921833"><ele>440.0</ele><time>2026-04-04T10:29:24.793Z</time></trkpt><trkpt lat="42.8820767" lon="13.4921783"><ele>439.0</ele><time>2026-04-04T10:29:25.792Z</time></trkpt><trkpt lat="42.88197" lon="13.4921717"><ele>438.0</ele><time>2026-04-04T10:29:27.792Z</time></trkpt><trkpt lat="42.8818867" lon="13.4921617"><ele>437.00000000000006</ele><time>2026-04-04T10:29:38.791Z</time></trkpt><trkpt lat="42.8818183" lon="13.4921717"><ele>436.0</ele><time>2026-04-04T10:29:40.791Z</time></trkpt><trkpt lat="42.8817233" lon="13.49218"><ele>434.4</ele><time>2026-04-04T10:29:42.791Z</time></trkpt><trkpt lat="42.881605" lon="13.492165"><ele>432.8</ele><time>2026-04-04T10:29:44.792Z</time></trkpt><trkpt lat="42.8815017" lon="13.4921683"><ele>431.19999999999993</ele><time>2026-04-04T10:29:46.792Z</time></trkpt><trkpt lat="42.8814133" lon="13.49219"><ele>429.59999999999997</ele><time>2026-04-04T10:29:48.791Z</time></trkpt><trkpt lat="42.8813317" lon="13.4922183"><ele>428.0</ele><time>2026-04-04T10:29:50.792Z</time></trkpt><trkpt lat="42.8812983" lon="13.4923067"><ele>427.99999999999994</ele><time>2026-04-04T10:29:52.791Z</time></trkpt><trkpt lat="42.8812983" lon="13.4924033"><ele>428.0</ele><time>2026-04-04T10:29:53.791Z</time></trkpt><trkpt lat="42.8813017" lon="13.492515"><ele>428.0</ele><time>2026-04-04T10:29:54.792Z</time></trkpt><trkpt lat="42.8813067" lon="13.4926167"><ele>428.0</ele><time>2026-04-04T10:29:55.792Z</time></trkpt><trkpt lat="42.8813183" lon="13.4927183"><ele>427.99999999999994</ele><time>2026-04-04T10:29:56.791Z</time></trkpt><trkpt lat="42.8813233" lon="13.4928067"><ele>428.0</ele><time>2026-04-04T10:29:57.792Z</time></trkpt><trkpt lat="42.8813533" lon="13.49297"><ele>427.49999999999994</ele><time>2026-04-04T10:29:59.791Z</time></trkpt><trkpt lat="42.881385" lon="13.4931217"><ele>427.0</ele><time>2026-04-04T10:30:01.791Z</time></trkpt><trkpt lat="42.8814267" lon="13.4931933"><ele>426.5</ele><time>2026-04-04T10:30:02.792Z</time></trkpt><trkpt lat="42.8814767" lon="13.493255"><ele>426.0</ele><time>2026-04-04T10:30:03.791Z</time></trkpt><trkpt lat="42.881535" lon="13.493315"><ele>425.49999999999994</ele><time>2026-04-04T10:30:04.792Z</time></trkpt><trkpt lat="42.8815867" lon="13.4933983"><ele>425.0</ele><time>2026-04-04T10:30:05.792Z</time></trkpt><trkpt lat="42.881635" lon="13.4934817"><ele>424.99999999999994</ele><time>2026-04-04T10:30:06.791Z</time></trkpt><trkpt lat="42.8816983" lon="13.4935567"><ele>425.0</ele><time>2026-04-04T10:30:07.792Z</time></trkpt><trkpt lat="42.88175" lon="13.4936467"><ele>425.0</ele><time>2026-04-04T10:30:08.792Z</time></trkpt><trkpt lat="42.8818083" lon="13.49373"><ele>425.0</ele><time>2026-04-04T10:30:09.792Z</time></trkpt><trkpt lat="42.8818617" lon="13.4938133"><ele>424.99999999999994</ele><time>2026-04-04T10:30:10.791Z</time></trkpt><trkpt lat="42.8819017" lon="13.493905"><ele>425.0</ele><time>2026-04-04T10:30:11.791Z</time></trkpt><trkpt lat="42.88192" lon="13.494"><ele>425.66666666666663</ele><time>2026-04-04T10:30:12.791Z</time></trkpt><trkpt lat="42.8819267" lon="13.4941"><ele>426.3333333333333</ele><time>2026-04-04T10:30:13.791Z</time></trkpt><trkpt lat="42.8819267" lon="13.494205"><ele>427.0</ele><time>2026-04-04T10:30:14.792Z</time></trkpt><trkpt lat="42.8819233" lon="13.4943033"><ele>427.66666666666663</ele><time>2026-04-04T10:30:15.791Z</time></trkpt><trkpt lat="42.88191" lon="13.4944483"><ele>428.3333333333333</ele><time>2026-04-04T10:30:17.792Z</time></trkpt><trkpt lat="42.8819017" lon="13.4945683"><ele>429.0</ele><time>2026-04-04T10:30:19.791Z</time></trkpt><trkpt lat="42.88189" lon="13.4946583"><ele>429.0</ele><time>2026-04-04T10:30:21.791Z</time></trkpt><trkpt lat="42.8818383" lon="13.4947317"><ele>429.0</ele><time>2026-04-04T10:30:24.792Z</time></trkpt><trkpt lat="42.8819" lon="13.494665"><ele>429.0</ele><time>2026-04-04T11:06:18.785Z</time></trkpt><trkpt lat="42.88192" lon="13.4945567"><ele>429.0</ele><time>2026-04-04T11:06:35.786Z</time></trkpt><trkpt lat="42.8819483" lon="13.4944367"><ele>429.0</ele><time>2026-04-04T11:06:38.785Z</time></trkpt><trkpt lat="42.8819667" lon="13.49435"><ele>429.0</ele><time>2026-04-04T11:06:41.785Z</time></trkpt><trkpt lat="42.8819517" lon="13.4941933"><ele>429.4</ele><time>2026-04-04T11:07:45.786Z</time></trkpt><trkpt lat="42.8819183" lon="13.4940933"><ele>429.79999999999995</ele><time>2026-04-04T11:07:46.785Z</time></trkpt><trkpt lat="42.8818717" lon="13.4939817"><ele>430.20000000000005</ele><time>2026-04-04T11:07:47.786Z</time></trkpt><trkpt lat="42.8818133" lon="13.4938717"><ele>430.6</ele><time>2026-04-04T11:07:48.786Z</time></trkpt><trkpt lat="42.8817417" lon="13.493755"><ele>431.0</ele><time>2026-04-04T11:07:49.785Z</time></trkpt><trkpt lat="42.881665" lon="13.4936467"><ele>429.8</ele><time>2026-04-04T11:07:50.785Z</time></trkpt><trkpt lat="42.8815917" lon="13.4935467"><ele>428.6</ele><time>2026-04-04T11:07:51.786Z</time></trkpt><trkpt lat="42.8815217" lon="13.4934467"><ele>427.4</ele><time>2026-04-04T11:07:52.786Z</time></trkpt><trkpt lat="42.8814517" lon="13.4933583"><ele>426.2</ele><time>2026-04-04T11:07:53.786Z</time></trkpt><trkpt lat="42.8813733" lon="13.4932817"><ele>425.0</ele><time>2026-04-04T11:07:54.785Z</time></trkpt><trkpt lat="42.8812917" lon="13.4932217"><ele>424.99999999999994</ele><time>2026-04-04T11:07:55.785Z</time></trkpt><trkpt lat="42.8812133" lon="13.4931733"><ele>425.0</ele><time>2026-04-04T11:07:56.785Z</time></trkpt><trkpt lat="42.88115" lon="13.4931283"><ele>425.0</ele><time>2026-04-04T11:07:57.785Z</time></trkpt><trkpt lat="42.881095" lon="13.4930433"><ele>425.0</ele><time>2026-04-04T11:07:58.786Z</time></trkpt><trkpt lat="42.88103" lon="13.492965"><ele>424.99999999999994</ele><time>2026-04-04T11:07:59.785Z</time></trkpt><trkpt lat="42.88097" lon="13.492875"><ele>425.0</ele><time>2026-04-04T11:08:00.786Z</time></trkpt><trkpt lat="42.880905" lon="13.49279"><ele>423.4</ele><time>2026-04-04T11:08:01.785Z</time></trkpt><trkpt lat="42.8808367" lon="13.4926983"><ele>421.8</ele><time>2026-04-04T11:08:02.785Z</time></trkpt><trkpt lat="42.8807767" lon="13.4926033"><ele>420.20000000000005</ele><time>2026-04-04T11:08:03.785Z</time></trkpt><trkpt lat="42.8807083" lon="13.49251"><ele>418.6</ele><time>2026-04-04T11:08:04.786Z</time></trkpt><trkpt lat="42.880655" lon="13.49241"><ele>417.0</ele><time>2026-04-04T11:08:05.786Z</time></trkpt><trkpt lat="42.8805933" lon="13.4923217"><ele>417.0</ele><time>2026-04-04T11:08:06.785Z</time></trkpt><trkpt lat="42.88055" lon="13.4922267"><ele>417.0</ele><time>2026-04-04T11:08:07.786Z</time></trkpt><trkpt lat="42.8805183" lon="13.4921283"><ele>417.0</ele><time>2026-04-04T11:08:08.786Z</time></trkpt><trkpt lat="42.880505" lon="13.4920367"><ele>417.0</ele><time>2026-04-04T11:08:09.785Z</time></trkpt><trkpt lat="42.8805133" lon="13.491935"><ele>417.0</ele><time>2026-04-04T11:08:10.785Z</time></trkpt><trkpt lat="42.8805383" lon="13.4918317"><ele>417.0</ele><time>2026-04-04T11:08:11.785Z</time></trkpt><trkpt lat="42.8805767" lon="13.4917533"><ele>416.6</ele><time>2026-04-04T11:08:12.786Z</time></trkpt><trkpt lat="42.8806333" lon="13.49167"><ele>416.20000000000005</ele><time>2026-04-04T11:08:13.785Z</time></trkpt><trkpt lat="42.8807" lon="13.491595"><ele>415.8</ele><time>2026-04-04T11:08:14.786Z</time></trkpt><trkpt lat="42.8808" lon="13.4915617"><ele>415.4</ele><time>2026-04-04T11:08:15.785Z</time></trkpt><trkpt lat="42.8808667" lon="13.491475"><ele>415.0</ele><time>2026-04-04T11:08:16.786Z</time></trkpt><trkpt lat="42.8809333" lon="13.4914"><ele>415.1666666666667</ele><time>2026-04-04T11:08:17.786Z</time></trkpt><trkpt lat="42.8809967" lon="13.4913183"><ele>415.33333333333337</ele><time>2026-04-04T11:08:18.785Z</time></trkpt><trkpt lat="42.8810333" lon="13.4912233"><ele>415.5</ele><time>2026-04-04T11:08:19.786Z</time></trkpt><trkpt lat="42.8810367" lon="13.4910583"><ele>415.66666666666663</ele><time>2026-04-04T11:08:21.785Z</time></trkpt><trkpt lat="42.8810017" lon="13.4909583"><ele>415.8333333333333</ele><time>2026-04-04T11:08:22.786Z</time></trkpt><trkpt lat="42.88095" lon="13.4908817"><ele>416.0</ele><time>2026-04-04T11:08:23.785Z</time></trkpt><trkpt lat="42.8808833" lon="13.4908333"><ele>415.99999999999994</ele><time>2026-04-04T11:08:24.785Z</time></trkpt><trkpt lat="42.8808" lon="13.490805"><ele>416.0</ele><time>2026-04-04T11:08:25.785Z</time></trkpt><trkpt lat="42.8807083" lon="13.4908033"><ele>416.0</ele><time>2026-04-04T11:08:26.785Z</time></trkpt><trkpt lat="42.8806283" lon="13.4908"><ele>416.0</ele><time>2026-04-04T11:08:27.786Z</time></trkpt><trkpt lat="42.8805617" lon="13.49079"><ele>415.99999999999994</ele><time>2026-04-04T11:08:28.786Z</time></trkpt><trkpt lat="42.8804983" lon="13.49076"><ele>416.0</ele><time>2026-04-04T11:08:29.785Z</time></trkpt><trkpt lat="42.8804633" lon="13.490595"><ele>416.0</ele><time>2026-04-04T11:08:31.786Z</time></trkpt><trkpt lat="42.8804617" lon="13.490465"><ele>416.0</ele><time>2026-04-04T11:08:32.785Z</time></trkpt><trkpt lat="42.880435" lon="13.4903167"><ele>416.0</ele><time>2026-04-04T11:08:33.785Z</time></trkpt><trkpt lat="42.880385" lon="13.4901517"><ele>416.0</ele><time>2026-04-04T11:08:34.786Z</time></trkpt><trkpt lat="42.8803117" lon="13.4899967"><ele>418.0</ele><time>2026-04-04T11:08:35.785Z</time></trkpt><trkpt lat="42.8802233" lon="13.4898367"><ele>420.0</ele><time>2026-04-04T11:08:36.785Z</time></trkpt><trkpt lat="42.8801333" lon="13.48968"><ele>422.0</ele><time>2026-04-04T11:08:37.786Z</time></trkpt><trkpt lat="42.880045" lon="13.4895183"><ele>424.0</ele><time>2026-04-04T11:08:38.786Z</time></trkpt><trkpt lat="42.8799533" lon="13.4893683"><ele>425.0</ele><time>2026-04-04T11:08:39.785Z</time></trkpt><trkpt lat="42.8798783" lon="13.48923"><ele>426.0</ele><time>2026-04-04T11:08:40.786Z</time></trkpt><trkpt lat="42.87981" lon="13.4891033"><ele>427.0</ele><time>2026-04-04T11:08:41.786Z</time></trkpt><trkpt lat="42.8797283" lon="13.4889867"><ele>428.0</ele><time>2026-04-04T11:08:42.786Z</time></trkpt><trkpt lat="42.8796683" lon="13.4888767"><ele>428.79999999999995</ele><time>2026-04-04T11:08:43.785Z</time></trkpt><trkpt lat="42.8796" lon="13.4887533"><ele>429.59999999999997</ele><time>2026-04-04T11:08:44.786Z</time></trkpt><trkpt lat="42.8795317" lon="13.488635"><ele>430.40000000000003</ele><time>2026-04-04T11:08:45.785Z</time></trkpt><trkpt lat="42.8794733" lon="13.488515"><ele>431.20000000000005</ele><time>2026-04-04T11:08:46.785Z</time></trkpt><trkpt lat="42.8794117" lon="13.4883767"><ele>432.0</ele><time>2026-04-04T11:08:47.786Z</time></trkpt><trkpt lat="42.8793533" lon="13.488235"><ele>432.0</ele><time>2026-04-04T11:08:48.786Z</time></trkpt><trkpt lat="42.8792983" lon="13.4880917"><ele>432.0</ele><time>2026-04-04T11:08:49.786Z</time></trkpt><trkpt lat="42.8792517" lon="13.4879383"><ele>432.0</ele><time>2026-04-04T11:08:50.785Z</time></trkpt><trkpt lat="42.8792017" lon="13.48778"><ele>432.0</ele><time>2026-04-04T11:08:51.785Z</time></trkpt><trkpt lat="42.87914" lon="13.48763"><ele>429.5</ele><time>2026-04-04T11:08:52.785Z</time></trkpt><trkpt lat="42.87907" lon="13.4874833"><ele>427.0</ele><time>2026-04-04T11:08:53.786Z</time></trkpt><trkpt lat="42.8790033" lon="13.4873533"><ele>424.5</ele><time>2026-04-04T11:08:54.785Z</time></trkpt><trkpt lat="42.8789333" lon="13.48723"><ele>422.0</ele><time>2026-04-04T11:08:55.786Z</time></trkpt><trkpt lat="42.8788633" lon="13.4871067"><ele>422.8</ele><time>2026-04-04T11:08:56.785Z</time></trkpt><trkpt lat="42.8787917" lon="13.48699"><ele>423.6</ele><time>2026-04-04T11:08:57.785Z</time></trkpt><trkpt lat="42.8787183" lon="13.4868783"><ele>424.40000000000003</ele><time>2026-04-04T11:08:58.785Z</time></trkpt><trkpt lat="42.8786483" lon="13.486765"><ele>425.20000000000005</ele><time>2026-04-04T11:08:59.785Z</time></trkpt><trkpt lat="42.87858" lon="13.4866517"><ele>426.0</ele><time>2026-04-04T11:09:00.786Z</time></trkpt><trkpt lat="42.87851" lon="13.48653"><ele>426.0</ele><time>2026-04-04T11:09:01.786Z</time></trkpt><trkpt lat="42.8784433" lon="13.4864133"><ele>426.0</ele><time>2026-04-04T11:09:02.786Z</time></trkpt><trkpt lat="42.8783717" lon="13.4862817"><ele>426.0</ele><time>2026-04-04T11:09:03.786Z</time></trkpt><trkpt lat="42.8782967" lon="13.4861417"><ele>426.0</ele><time>2026-04-04T11:09:04.786Z</time></trkpt><trkpt lat="42.878225" lon="13.4860067"><ele>424.25</ele><time>2026-04-04T11:09:05.785Z</time></trkpt><trkpt lat="42.878155" lon="13.48587"><ele>422.5</ele><time>2026-04-04T11:09:06.785Z</time></trkpt><trkpt lat="42.878085" lon="13.4857333"><ele>420.75</ele><time>2026-04-04T11:09:07.785Z</time></trkpt><trkpt lat="42.8780117" lon="13.4855967"><ele>419.0</ele><time>2026-04-04T11:09:08.786Z</time></trkpt><trkpt lat="42.8779267" lon="13.48548"><ele>419.0</ele><time>2026-04-04T11:09:09.786Z</time></trkpt><trkpt lat="42.8778417" lon="13.4853683"><ele>419.0</ele><time>2026-04-04T11:09:10.786Z</time></trkpt><trkpt lat="42.8777533" lon="13.4852433"><ele>419.0</ele><time>2026-04-04T11:09:11.786Z</time></trkpt><trkpt lat="42.8776717" lon="13.485125"><ele>419.0</ele><time>2026-04-04T11:09:12.785Z</time></trkpt><trkpt lat="42.87758" lon="13.4850167"><ele>418.4</ele><time>2026-04-04T11:09:13.785Z</time></trkpt><trkpt lat="42.877495" lon="13.4849133"><ele>417.79999999999995</ele><time>2026-04-04T11:09:14.785Z</time></trkpt><trkpt lat="42.87741" lon="13.484815"><ele>417.20000000000005</ele><time>2026-04-04T11:09:15.786Z</time></trkpt><trkpt lat="42.8773183" lon="13.48472"><ele>416.6</ele><time>2026-04-04T11:09:16.786Z</time></trkpt><trkpt lat="42.8772267" lon="13.48464"><ele>416.0</ele><time>2026-04-04T11:09:17.786Z</time></trkpt><trkpt lat="42.8771317" lon="13.484575"><ele>416.0</ele><time>2026-04-04T11:09:18.785Z</time></trkpt><trkpt lat="42.8770383" lon="13.4845217"><ele>416.0</ele><time>2026-04-04T11:09:19.785Z</time></trkpt><trkpt lat="42.8769417" lon="13.484485"><ele>416.0</ele><time>2026-04-04T11:09:20.785Z</time></trkpt><trkpt lat="42.8768417" lon="13.4844567"><ele>416.0</ele><time>2026-04-04T11:09:21.785Z</time></trkpt><trkpt lat="42.8767433" lon="13.4844333"><ele>416.0</ele><time>2026-04-04T11:09:22.786Z</time></trkpt><trkpt lat="42.8766383" lon="13.484415"><ele>415.75</ele><time>2026-04-04T11:09:23.785Z</time></trkpt><trkpt lat="42.8765267" lon="13.4843983"><ele>415.5</ele><time>2026-04-04T11:09:24.785Z</time></trkpt><trkpt lat="42.8764133" lon="13.4843833"><ele>415.25</ele><time>2026-04-04T11:09:25.785Z</time></trkpt><trkpt lat="42.8762967" lon="13.4843683"><ele>415.0</ele><time>2026-04-04T11:09:26.785Z</time></trkpt><trkpt lat="42.87618" lon="13.4843667"><ele>415.0</ele><time>2026-04-04T11:09:27.786Z</time></trkpt><trkpt lat="42.8760617" lon="13.4843667"><ele>415.0</ele><time>2026-04-04T11:09:28.785Z</time></trkpt><trkpt lat="42.8759467" lon="13.4843683"><ele>415.0</ele><time>2026-04-04T11:09:29.785Z</time></trkpt><trkpt lat="42.875835" lon="13.48437"><ele>415.0</ele><time>2026-04-04T11:09:30.785Z</time></trkpt><trkpt lat="42.875735" lon="13.4843817"><ele>415.0</ele><time>2026-04-04T11:09:31.785Z</time></trkpt><trkpt lat="42.875635" lon="13.484395"><ele>415.2</ele><time>2026-04-04T11:09:32.785Z</time></trkpt><trkpt lat="42.8755333" lon="13.4843983"><ele>415.4</ele><time>2026-04-04T11:09:33.785Z</time></trkpt><trkpt lat="42.8754333" lon="13.4844"><ele>415.6</ele><time>2026-04-04T11:09:34.785Z</time></trkpt><trkpt lat="42.87533" lon="13.4844033"><ele>415.8</ele><time>2026-04-04T11:09:35.785Z</time></trkpt><trkpt lat="42.8752267" lon="13.484405"><ele>416.0</ele><time>2026-04-04T11:09:36.785Z</time></trkpt><trkpt lat="42.87512" lon="13.4844017"><ele>414.5</ele><time>2026-04-04T11:09:37.786Z</time></trkpt><trkpt lat="42.875005" lon="13.48441"><ele>413.0</ele><time>2026-04-04T11:09:38.785Z</time></trkpt><trkpt lat="42.8748933" lon="13.484415"><ele>411.5</ele><time>2026-04-04T11:09:39.785Z</time></trkpt><trkpt lat="42.87478" lon="13.484425"><ele>410.0</ele><time>2026-04-04T11:09:40.785Z</time></trkpt><trkpt lat="42.8746633" lon="13.484415"><ele>410.0</ele><time>2026-04-04T11:09:41.786Z</time></trkpt><trkpt lat="42.8745483" lon="13.484415"><ele>410.0</ele><time>2026-04-04T11:09:42.785Z</time></trkpt><trkpt lat="42.874435" lon="13.4844133"><ele>410.0</ele><time>2026-04-04T11:09:43.786Z</time></trkpt><trkpt lat="42.8743217" lon="13.4844117"><ele>410.0</ele><time>2026-04-04T11:09:44.785Z</time></trkpt><trkpt lat="42.8742" lon="13.4844083"><ele>408.6</ele><time>2026-04-04T11:09:45.786Z</time></trkpt><trkpt lat="42.874085" lon="13.484405"><ele>407.2</ele><time>2026-04-04T11:09:46.785Z</time></trkpt><trkpt lat="42.8739833" lon="13.4843767"><ele>405.79999999999995</ele><time>2026-04-04T11:09:47.785Z</time></trkpt><trkpt lat="42.8738717" lon="13.48434"><ele>404.4</ele><time>2026-04-04T11:09:48.786Z</time></trkpt><trkpt lat="42.8737683" lon="13.4842933"><ele>403.0</ele><time>2026-04-04T11:09:49.786Z</time></trkpt><trkpt lat="42.87366" lon="13.4842433"><ele>403.0</ele><time>2026-04-04T11:09:50.785Z</time></trkpt><trkpt lat="42.8735533" lon="13.4841917"><ele>403.0</ele><time>2026-04-04T11:09:51.786Z</time></trkpt><trkpt lat="42.873445" lon="13.48413"><ele>403.0</ele><time>2026-04-04T11:09:52.785Z</time></trkpt><trkpt lat="42.873335" lon="13.48407"><ele>403.0</ele><time>2026-04-04T11:09:53.785Z</time></trkpt><trkpt lat="42.8732267" lon="13.4840067"><ele>401.25</ele><time>2026-04-04T11:09:54.785Z</time></trkpt><trkpt lat="42.8731217" lon="13.4839417"><ele>399.5</ele><time>2026-04-04T11:09:55.785Z</time></trkpt><trkpt lat="42.8730083" lon="13.4838833"><ele>397.75</ele><time>2026-04-04T11:09:56.786Z</time></trkpt><trkpt lat="42.8728983" lon="13.483825"><ele>396.0</ele><time>2026-04-04T11:09:57.785Z</time></trkpt><trkpt lat="42.8727833" lon="13.483765"><ele>397.5</ele><time>2026-04-04T11:09:58.785Z</time></trkpt><trkpt lat="42.8726683" lon="13.4837067"><ele>399.0</ele><time>2026-04-04T11:09:59.785Z</time></trkpt><trkpt lat="42.8725533" lon="13.4836533"><ele>400.5</ele><time>2026-04-04T11:10:00.785Z</time></trkpt><trkpt lat="42.872445" lon="13.483585"><ele>402.0</ele><time>2026-04-04T11:10:01.785Z</time></trkpt><trkpt lat="42.8723383" lon="13.4835233"><ele>402.0</ele><time>2026-04-04T11:10:02.786Z</time></trkpt><trkpt lat="42.872235" lon="13.4834567"><ele>402.0</ele><time>2026-04-04T11:10:03.786Z</time></trkpt><trkpt lat="42.8721333" lon="13.4833833"><ele>402.0</ele><time>2026-04-04T11:10:04.785Z</time></trkpt><trkpt lat="42.8720367" lon="13.4833083"><ele>402.0</ele><time>2026-04-04T11:10:05.786Z</time></trkpt><trkpt lat="42.87194" lon="13.483225"><ele>402.0</ele><time>2026-04-04T11:10:06.785Z</time></trkpt><trkpt lat="42.8718433" lon="13.4831383"><ele>402.0</ele><time>2026-04-04T11:10:07.785Z</time></trkpt><trkpt lat="42.87175" lon="13.4830417"><ele>402.0</ele><time>2026-04-04T11:10:08.785Z</time></trkpt><trkpt lat="42.8716483" lon="13.4829583"><ele>402.0</ele><time>2026-04-04T11:10:09.785Z</time></trkpt><trkpt lat="42.87155" lon="13.48287"><ele>402.5</ele><time>2026-04-04T11:10:10.785Z</time></trkpt><trkpt lat="42.8714467" lon="13.4827917"><ele>403.0</ele><time>2026-04-04T11:10:11.785Z</time></trkpt><trkpt lat="42.8713433" lon="13.4827217"><ele>403.5</ele><time>2026-04-04T11:10:12.785Z</time></trkpt><trkpt lat="42.8712417" lon="13.482665"><ele>404.0</ele><time>2026-04-04T11:10:13.785Z</time></trkpt><trkpt lat="42.871135" lon="13.48262"><ele>404.0</ele><time>2026-04-04T11:10:14.785Z</time></trkpt><trkpt lat="42.8710183" lon="13.48259"><ele>404.0</ele><time>2026-04-04T11:10:15.785Z</time></trkpt><trkpt lat="42.870915" lon="13.482565"><ele>404.0</ele><time>2026-04-04T11:10:16.785Z</time></trkpt><trkpt lat="42.87081" lon="13.4825533"><ele>404.0</ele><time>2026-04-04T11:10:17.785Z</time></trkpt><trkpt lat="42.8707067" lon="13.482555"><ele>404.0</ele><time>2026-04-04T11:10:18.785Z</time></trkpt><trkpt lat="42.8705983" lon="13.482565"><ele>403.5</ele><time>2026-04-04T11:10:19.785Z</time></trkpt><trkpt lat="42.87049" lon="13.482555"><ele>403.0</ele><time>2026-04-04T11:10:20.785Z</time></trkpt><trkpt lat="42.8703767" lon="13.4825517"><ele>402.5</ele><time>2026-04-04T11:10:21.785Z</time></trkpt><trkpt lat="42.8702633" lon="13.482535"><ele>402.0</ele><time>2026-04-04T11:10:22.785Z</time></trkpt><trkpt lat="42.870145" lon="13.4825217"><ele>400.6</ele><time>2026-04-04T11:10:23.786Z</time></trkpt><trkpt lat="42.87003" lon="13.4825"><ele>399.20000000000005</ele><time>2026-04-04T11:10:24.785Z</time></trkpt><trkpt lat="42.869915" lon="13.4824733"><ele>397.8</ele><time>2026-04-04T11:10:25.786Z</time></trkpt><trkpt lat="42.8698117" lon="13.4824333"><ele>396.4</ele><time>2026-04-04T11:10:26.785Z</time></trkpt><trkpt lat="42.8697117" lon="13.48241"><ele>395.0</ele><time>2026-04-04T11:10:27.785Z</time></trkpt><trkpt lat="42.86963" lon="13.4823717"><ele>394.99999999999994</ele><time>2026-04-04T11:10:28.785Z</time></trkpt><trkpt lat="42.86955" lon="13.4823333"><ele>395.0</ele><time>2026-04-04T11:10:29.785Z</time></trkpt><trkpt lat="42.8694683" lon="13.4823017"><ele>395.0</ele><time>2026-04-04T11:10:30.786Z</time></trkpt><trkpt lat="42.8694" lon="13.4822633"><ele>395.0</ele><time>2026-04-04T11:10:31.785Z</time></trkpt><trkpt lat="42.8693367" lon="13.4822333"><ele>394.99999999999994</ele><time>2026-04-04T11:10:32.786Z</time></trkpt><trkpt lat="42.8692233" lon="13.4821967"><ele>395.0</ele><time>2026-04-04T11:10:34.785Z</time></trkpt><trkpt lat="42.8691183" lon="13.4822567"><ele>394.8</ele><time>2026-04-04T11:10:36.785Z</time></trkpt><trkpt lat="42.8690267" lon="13.4823883"><ele>394.6</ele><time>2026-04-04T11:10:38.786Z</time></trkpt><trkpt lat="42.8689733" lon="13.48247"><ele>394.4</ele><time>2026-04-04T11:10:39.785Z</time></trkpt><trkpt lat="42.8689183" lon="13.4825567"><ele>394.2</ele><time>2026-04-04T11:10:40.785Z</time></trkpt><trkpt lat="42.8688633" lon="13.4826483"><ele>394.0</ele><time>2026-04-04T11:10:41.785Z</time></trkpt><trkpt lat="42.868815" lon="13.48272"><ele>394.00000000000006</ele><time>2026-04-04T11:10:42.786Z</time></trkpt><trkpt lat="42.868765" lon="13.482775"><ele>394.0</ele><time>2026-04-04T11:10:43.785Z</time></trkpt><trkpt lat="42.8686467" lon="13.4828"><ele>394.0</ele><time>2026-04-04T11:10:45.785Z</time></trkpt><trkpt lat="42.8685667" lon="13.48277"><ele>394.0</ele><time>2026-04-04T11:10:46.786Z</time></trkpt><trkpt lat="42.8684867" lon="13.482745"><ele>394.00000000000006</ele><time>2026-04-04T11:10:47.786Z</time></trkpt><trkpt lat="42.8684" lon="13.48272"><ele>394.0</ele><time>2026-04-04T11:10:48.786Z</time></trkpt><trkpt lat="42.86831" lon="13.482705"><ele>394.33333333333337</ele><time>2026-04-04T11:10:49.785Z</time></trkpt><trkpt lat="42.868225" lon="13.4827133"><ele>394.6666666666667</ele><time>2026-04-04T11:10:50.785Z</time></trkpt><trkpt lat="42.8681383" lon="13.4827267"><ele>395.0</ele><time>2026-04-04T11:10:51.786Z</time></trkpt><trkpt lat="42.8680517" lon="13.4827417"><ele>395.33333333333337</ele><time>2026-04-04T11:10:52.786Z</time></trkpt><trkpt lat="42.867965" lon="13.4827533"><ele>395.6666666666667</ele><time>2026-04-04T11:10:53.785Z</time></trkpt><trkpt lat="42.8678783" lon="13.4827733"><ele>396.0</ele><time>2026-04-04T11:10:54.786Z</time></trkpt><trkpt lat="42.8678017" lon="13.4828033"><ele>396.0</ele><time>2026-04-04T11:10:55.785Z</time></trkpt><trkpt lat="42.8677283" lon="13.4828333"><ele>396.0</ele><time>2026-04-04T11:10:56.785Z</time></trkpt><trkpt lat="42.8676583" lon="13.48288"><ele>396.0</ele><time>2026-04-04T11:10:57.786Z</time></trkpt><trkpt lat="42.867595" lon="13.482935"><ele>396.0</ele><time>2026-04-04T11:10:58.786Z</time></trkpt><trkpt lat="42.8675267" lon="13.4829967"><ele>396.0</ele><time>2026-04-04T11:10:59.786Z</time></trkpt><trkpt lat="42.8674633" lon="13.48305"><ele>396.0</ele><time>2026-04-04T11:11:00.785Z</time></trkpt><trkpt lat="42.8674017" lon="13.4831"><ele>395.20000000000005</ele><time>2026-04-04T11:11:01.785Z</time></trkpt><trkpt lat="42.86733" lon="13.4831567"><ele>394.40000000000003</ele><time>2026-04-04T11:11:02.785Z</time></trkpt><trkpt lat="42.86725" lon="13.483215"><ele>393.6</ele><time>2026-04-04T11:11:03.785Z</time></trkpt><trkpt lat="42.867165" lon="13.48328"><ele>392.8</ele><time>2026-04-04T11:11:04.785Z</time></trkpt><trkpt lat="42.8670783" lon="13.4833467"><ele>392.0</ele><time>2026-04-04T11:11:05.785Z</time></trkpt><trkpt lat="42.8669917" lon="13.4834183"><ele>392.0</ele><time>2026-04-04T11:11:06.785Z</time></trkpt><trkpt lat="42.8669017" lon="13.4834833"><ele>392.0</ele><time>2026-04-04T11:11:07.786Z</time></trkpt><trkpt lat="42.8668117" lon="13.483545"><ele>392.0</ele><time>2026-04-04T11:11:08.786Z</time></trkpt><trkpt lat="42.8667217" lon="13.4835917"><ele>392.0</ele><time>2026-04-04T11:11:09.785Z</time></trkpt><trkpt lat="42.8666367" lon="13.483635"><ele>392.0</ele><time>2026-04-04T11:11:10.785Z</time></trkpt><trkpt lat="42.86655" lon="13.48367"><ele>390.20000000000005</ele><time>2026-04-04T11:11:11.785Z</time></trkpt><trkpt lat="42.8664617" lon="13.483705"><ele>388.4</ele><time>2026-04-04T11:11:12.785Z</time></trkpt><trkpt lat="42.866365" lon="13.48372"><ele>386.6</ele><time>2026-04-04T11:11:13.785Z</time></trkpt><trkpt lat="42.86627" lon="13.4837417"><ele>384.79999999999995</ele><time>2026-04-04T11:11:14.785Z</time></trkpt><trkpt lat="42.8661817" lon="13.483775"><ele>383.0</ele><time>2026-04-04T11:11:15.785Z</time></trkpt><trkpt lat="42.866095" lon="13.4838017"><ele>382.0</ele><time>2026-04-04T11:11:16.785Z</time></trkpt><trkpt lat="42.8660117" lon="13.483815"><ele>381.0</ele><time>2026-04-04T11:11:17.786Z</time></trkpt><trkpt lat="42.86593" lon="13.4838333"><ele>380.0</ele><time>2026-04-04T11:11:18.785Z</time></trkpt><trkpt lat="42.865845" lon="13.4838467"><ele>379.0</ele><time>2026-04-04T11:11:19.786Z</time></trkpt><trkpt lat="42.8657733" lon="13.4838633"><ele>378.0</ele><time>2026-04-04T11:11:20.786Z</time></trkpt><trkpt lat="42.8657033" lon="13.4838733"><ele>377.0</ele><time>2026-04-04T11:11:21.785Z</time></trkpt><trkpt lat="42.86563" lon="13.4838667"><ele>376.99999999999994</ele><time>2026-04-04T11:11:22.785Z</time></trkpt><trkpt lat="42.8655617" lon="13.483875"><ele>377.0</ele><time>2026-04-04T11:11:23.786Z</time></trkpt><trkpt lat="42.8654967" lon="13.483855"><ele>377.0</ele><time>2026-04-04T11:11:24.786Z</time></trkpt><trkpt lat="42.8654167" lon="13.4838133"><ele>377.0</ele><time>2026-04-04T11:11:25.785Z</time></trkpt><trkpt lat="42.865355" lon="13.4837833"><ele>377.0</ele><time>2026-04-04T11:11:26.785Z</time></trkpt><trkpt lat="42.8652783" lon="13.4837933"><ele>376.99999999999994</ele><time>2026-04-04T11:11:27.786Z</time></trkpt><trkpt lat="42.8652033" lon="13.4838233"><ele>377.0</ele><time>2026-04-04T11:11:28.785Z</time></trkpt><trkpt lat="42.865125" lon="13.4838567"><ele>377.5</ele><time>2026-04-04T11:11:29.785Z</time></trkpt><trkpt lat="42.8650483" lon="13.4839"><ele>378.0</ele><time>2026-04-04T11:11:30.785Z</time></trkpt><trkpt lat="42.8649717" lon="13.48393"><ele>378.5</ele><time>2026-04-04T11:11:31.785Z</time></trkpt><trkpt lat="42.8648967" lon="13.4839683"><ele>379.0</ele><time>2026-04-04T11:11:32.786Z</time></trkpt><trkpt lat="42.8648267" lon="13.4839983"><ele>379.5</ele><time>2026-04-04T11:11:33.786Z</time></trkpt><trkpt lat="42.8647567" lon="13.4840383"><ele>380.0</ele><time>2026-04-04T11:11:34.785Z</time></trkpt><trkpt lat="42.86469" lon="13.484085"><ele>380.0</ele><time>2026-04-04T11:11:35.785Z</time></trkpt><trkpt lat="42.8646233" lon="13.48414"><ele>380.0</ele><time>2026-04-04T11:11:36.785Z</time></trkpt><trkpt lat="42.8645617" lon="13.4841933"><ele>380.0</ele><time>2026-04-04T11:11:37.785Z</time></trkpt><trkpt lat="42.8645033" lon="13.48427"><ele>380.0</ele><time>2026-04-04T11:11:38.785Z</time></trkpt><trkpt lat="42.8644367" lon="13.48432"><ele>380.0</ele><time>2026-04-04T11:11:39.786Z</time></trkpt><trkpt lat="42.8643217" lon="13.4843983"><ele>380.0</ele><time>2026-04-04T11:11:41.785Z</time></trkpt><trkpt lat="42.8642083" lon="13.48444"><ele>380.4</ele><time>2026-04-04T11:11:43.785Z</time></trkpt><trkpt lat="42.8641067" lon="13.4844683"><ele>380.8</ele><time>2026-04-04T11:11:45.784Z</time></trkpt><trkpt lat="42.8640083" lon="13.4845"><ele>381.20000000000005</ele><time>2026-04-04T11:11:47.784Z</time></trkpt><trkpt lat="42.8639217" lon="13.4845733"><ele>381.6</ele><time>2026-04-04T11:11:49.785Z</time></trkpt><trkpt lat="42.8638267" lon="13.4846517"><ele>382.0</ele><time>2026-04-04T11:11:51.784Z</time></trkpt><trkpt lat="42.86375" lon="13.4847067"><ele>381.20000000000005</ele><time>2026-04-04T11:11:53.784Z</time></trkpt><trkpt lat="42.86366" lon="13.48472"><ele>380.4</ele><time>2026-04-04T11:11:55.784Z</time></trkpt><trkpt lat="42.863545" lon="13.4847283"><ele>379.6</ele><time>2026-04-04T11:11:57.785Z</time></trkpt><trkpt lat="42.8634817" lon="13.4847417"><ele>378.79999999999995</ele><time>2026-04-04T11:11:58.785Z</time></trkpt><trkpt lat="42.8633733" lon="13.484715"><ele>378.0</ele><time>2026-04-04T11:12:00.784Z</time></trkpt><trkpt lat="42.863275" lon="13.4847183"><ele>378.0</ele><time>2026-04-04T11:12:02.785Z</time></trkpt><trkpt lat="42.8631883" lon="13.4847533"><ele>378.0</ele><time>2026-04-04T11:12:04.784Z</time></trkpt><trkpt lat="42.86312" lon="13.484835"><ele>378.0</ele><time>2026-04-04T11:12:06.784Z</time></trkpt><trkpt lat="42.8630683" lon="13.4848883"><ele>378.0</ele><time>2026-04-04T11:12:08.785Z</time></trkpt><trkpt lat="42.8630017" lon="13.4849483"><ele>378.0</ele><time>2026-04-04T11:12:11.784Z</time></trkpt><trkpt lat="42.8629567" lon="13.48501"><ele>378.0</ele><time>2026-04-04T11:12:25.784Z</time></trkpt><trkpt lat="42.8628933" lon="13.4850983"><ele>378.0</ele><time>2026-04-04T11:12:28.784Z</time></trkpt><trkpt lat="42.8628433" lon="13.485175"><ele>378.0</ele><time>2026-04-04T11:12:32.785Z</time></trkpt><trkpt lat="42.862815" lon="13.4852633"><ele>378.0</ele><time>2026-04-04T11:12:41.785Z</time></trkpt><trkpt lat="42.8627683" lon="13.4853817"><ele>378.0</ele><time>2026-04-04T11:12:44.785Z</time></trkpt><trkpt lat="42.8626983" lon="13.4854667"><ele>378.0</ele><time>2026-04-04T11:12:46.784Z</time></trkpt><trkpt lat="42.8626183" lon="13.4855283"><ele>378.0</ele><time>2026-04-04T11:12:48.784Z</time></trkpt><trkpt lat="42.8625517" lon="13.485585"><ele>375.42857142857144</ele><time>2026-04-04T11:12:50.784Z</time></trkpt><trkpt lat="42.86249" lon="13.4856467"><ele>372.8571428571429</ele><time>2026-04-04T11:12:52.784Z</time></trkpt><trkpt lat="42.8624333" lon="13.4857367"><ele>370.2857142857143</ele><time>2026-04-04T11:12:55.784Z</time></trkpt><trkpt lat="42.862395" lon="13.4858133"><ele>367.7142857142857</ele><time>2026-04-04T11:12:58.785Z</time></trkpt><trkpt lat="42.8623733" lon="13.485895"><ele>365.14285714285717</ele><time>2026-04-04T11:13:00.784Z</time></trkpt><trkpt lat="42.862345" lon="13.4859783"><ele>362.57142857142856</ele><time>2026-04-04T11:13:02.784Z</time></trkpt><trkpt lat="42.8623133" lon="13.4860833"><ele>360.0</ele><time>2026-04-04T11:13:09.785Z</time></trkpt><trkpt lat="42.8623067" lon="13.486315"><ele>360.0</ele><time>2026-04-04T11:13:49.785Z</time></trkpt><trkpt lat="42.862325" lon="13.4863983"><ele>360.0</ele><time>2026-04-04T11:13:52.784Z</time></trkpt><trkpt lat="42.86242" lon="13.4864533"><ele>360.0</ele><time>2026-04-04T11:15:19.785Z</time></trkpt><trkpt lat="42.8623583" lon="13.4863933"><ele>360.0</ele><time>2026-04-04T11:15:21.784Z</time></trkpt><trkpt lat="42.86231" lon="13.4862817"><ele>360.0</ele><time>2026-04-04T11:15:23.784Z</time></trkpt><trkpt lat="42.8623067" lon="13.4861783"><ele>360.0</ele><time>2026-04-04T11:16:44.784Z</time></trkpt><trkpt lat="42.8623267" lon="13.486055"><ele>360.0</ele><time>2026-04-04T11:16:47.785Z</time></trkpt><trkpt lat="42.8623633" lon="13.48596"><ele>360.0</ele><time>2026-04-04T11:16:49.784Z</time></trkpt><trkpt lat="42.8623883" lon="13.4858633"><ele>360.0</ele><time>2026-04-04T11:16:51.784Z</time></trkpt><trkpt lat="42.8624317" lon="13.48576"><ele>360.0</ele><time>2026-04-04T11:16:53.784Z</time></trkpt><trkpt lat="42.86251" lon="13.48563"><ele>360.0</ele><time>2026-04-04T11:16:55.784Z</time></trkpt><trkpt lat="42.8625717" lon="13.485565"><ele>360.0</ele><time>2026-04-04T11:16:56.785Z</time></trkpt><trkpt lat="42.8626433" lon="13.4855"><ele>359.0</ele><time>2026-04-04T11:16:57.784Z</time></trkpt><trkpt lat="42.8627033" lon="13.485435"><ele>358.0</ele><time>2026-04-04T11:16:58.785Z</time></trkpt><trkpt lat="42.8627633" lon="13.48537"><ele>357.0</ele><time>2026-04-04T11:16:59.784Z</time></trkpt><trkpt lat="42.862805" lon="13.4852983"><ele>356.0</ele><time>2026-04-04T11:17:00.784Z</time></trkpt><trkpt lat="42.862845" lon="13.4852217"><ele>355.0</ele><time>2026-04-04T11:17:01.785Z</time></trkpt><trkpt lat="42.8628933" lon="13.4851367"><ele>354.0</ele><time>2026-04-04T11:17:02.784Z</time></trkpt><trkpt lat="42.86294" lon="13.48506"><ele>353.0</ele><time>2026-04-04T11:17:03.785Z</time></trkpt><trkpt lat="42.8629933" lon="13.48498"><ele>356.57142857142856</ele><time>2026-04-04T11:17:04.784Z</time></trkpt><trkpt lat="42.8630533" lon="13.4849067"><ele>360.14285714285717</ele><time>2026-04-04T11:17:05.784Z</time></trkpt><trkpt lat="42.8631183" lon="13.48483"><ele>363.7142857142857</ele><time>2026-04-04T11:17:06.784Z</time></trkpt><trkpt lat="42.8631767" lon="13.4847583"><ele>367.2857142857143</ele><time>2026-04-04T11:17:07.784Z</time></trkpt><trkpt lat="42.8632233" lon="13.4846967"><ele>370.8571428571429</ele><time>2026-04-04T11:17:08.785Z</time></trkpt><trkpt lat="42.8632817" lon="13.4846567"><ele>374.42857142857144</ele><time>2026-04-04T11:17:09.784Z</time></trkpt><trkpt lat="42.8633433" lon="13.4846383"><ele>378.0</ele><time>2026-04-04T11:17:10.784Z</time></trkpt><trkpt lat="42.8634267" lon="13.4846533"><ele>376.2</ele><time>2026-04-04T11:17:11.785Z</time></trkpt><trkpt lat="42.86352" lon="13.4846583"><ele>374.4</ele><time>2026-04-04T11:17:12.784Z</time></trkpt><trkpt lat="42.86362" lon="13.4846683"><ele>372.59999999999997</ele><time>2026-04-04T11:17:13.784Z</time></trkpt><trkpt lat="42.863705" lon="13.48467"><ele>370.79999999999995</ele><time>2026-04-04T11:17:14.785Z</time></trkpt><trkpt lat="42.863775" lon="13.4846717"><ele>369.0</ele><time>2026-04-04T11:17:15.784Z</time></trkpt><trkpt lat="42.8638817" lon="13.484635"><ele>371.1666666666667</ele><time>2026-04-04T11:17:17.784Z</time></trkpt><trkpt lat="42.863935" lon="13.4845683"><ele>373.3333333333333</ele><time>2026-04-04T11:17:18.785Z</time></trkpt><trkpt lat="42.86399" lon="13.4844983"><ele>375.5</ele><time>2026-04-04T11:17:19.784Z</time></trkpt><trkpt lat="42.8640483" lon="13.4844467"><ele>377.66666666666663</ele><time>2026-04-04T11:17:20.784Z</time></trkpt><trkpt lat="42.8641317" lon="13.48443"><ele>379.8333333333333</ele><time>2026-04-04T11:17:21.784Z</time></trkpt><trkpt lat="42.86421" lon="13.4844033"><ele>382.0</ele><time>2026-04-04T11:17:22.783Z</time></trkpt><trkpt lat="42.8642783" lon="13.4843833"><ele>381.6</ele><time>2026-04-04T11:17:23.784Z</time></trkpt><trkpt lat="42.864385" lon="13.4843433"><ele>381.20000000000005</ele><time>2026-04-04T11:17:25.783Z</time></trkpt><trkpt lat="42.8644717" lon="13.4842667"><ele>380.8</ele><time>2026-04-04T11:17:27.783Z</time></trkpt><trkpt lat="42.8645617" lon="13.484175"><ele>380.4</ele><time>2026-04-04T11:17:29.783Z</time></trkpt><trkpt lat="42.8646633" lon="13.4841033"><ele>380.0</ele><time>2026-04-04T11:17:31.784Z</time></trkpt><trkpt lat="42.8647417" lon="13.484045"><ele>380.0</ele><time>2026-04-04T11:17:33.783Z</time></trkpt><trkpt lat="42.8646517" lon="13.4840917"><ele>380.0</ele><time>2026-04-04T11:18:26.784Z</time></trkpt><trkpt lat="42.8645917" lon="13.4841583"><ele>380.0</ele><time>2026-04-04T11:18:28.784Z</time></trkpt><trkpt lat="42.8645183" lon="13.4842367"><ele>380.0</ele><time>2026-04-04T11:18:30.783Z</time></trkpt><trkpt lat="42.8644267" lon="13.484315"><ele>380.0</ele><time>2026-04-04T11:18:32.783Z</time></trkpt><trkpt lat="42.864335" lon="13.4843967"><ele>380.4</ele><time>2026-04-04T11:18:34.784Z</time></trkpt><trkpt lat="42.8642633" lon="13.4844233"><ele>380.8</ele><time>2026-04-04T11:18:36.784Z</time></trkpt><trkpt lat="42.8641717" lon="13.4844033"><ele>381.20000000000005</ele><time>2026-04-04T11:20:20.783Z</time></trkpt><trkpt lat="42.8640333" lon="13.4844117"><ele>381.6</ele><time>2026-04-04T11:20:22.783Z</time></trkpt><trkpt lat="42.863935" lon="13.4844317"><ele>382.0</ele><time>2026-04-04T11:20:23.783Z</time></trkpt><trkpt lat="42.8638433" lon="13.4844717"><ele>382.0</ele><time>2026-04-04T11:20:24.783Z</time></trkpt><trkpt lat="42.863765" lon="13.4845133"><ele>382.0</ele><time>2026-04-04T11:20:25.783Z</time></trkpt><trkpt lat="42.8636983" lon="13.4845317"><ele>382.0</ele><time>2026-04-04T11:20:26.784Z</time></trkpt><trkpt lat="42.8635917" lon="13.4845717"><ele>382.0</ele><time>2026-04-04T11:20:28.783Z</time></trkpt><trkpt lat="42.8634767" lon="13.4845717"><ele>382.0</ele><time>2026-04-04T11:20:30.783Z</time></trkpt><trkpt lat="42.8633583" lon="13.48455"><ele>383.20000000000005</ele><time>2026-04-04T11:20:32.783Z</time></trkpt><trkpt lat="42.8632533" lon="13.48448"><ele>384.4</ele><time>2026-04-04T11:20:34.783Z</time></trkpt><trkpt lat="42.8631833" lon="13.4843683"><ele>385.6</ele><time>2026-04-04T11:20:36.783Z</time></trkpt><trkpt lat="42.8631333" lon="13.4842417"><ele>386.79999999999995</ele><time>2026-04-04T11:20:38.783Z</time></trkpt><trkpt lat="42.8630667" lon="13.484175"><ele>388.0</ele><time>2026-04-04T11:22:28.783Z</time></trkpt><trkpt lat="42.862995" lon="13.48421"><ele>388.0</ele><time>2026-04-04T11:22:30.782Z</time></trkpt><trkpt lat="42.862865" lon="13.4842717"><ele>388.0</ele><time>2026-04-04T11:22:32.783Z</time></trkpt><trkpt lat="42.862785" lon="13.4843133"><ele>388.0</ele><time>2026-04-04T11:22:33.782Z</time></trkpt><trkpt lat="42.8627233" lon="13.4843367"><ele>388.0</ele><time>2026-04-04T11:22:34.782Z</time></trkpt><trkpt lat="42.8626117" lon="13.484295"><ele>388.0</ele><time>2026-04-04T11:22:36.783Z</time></trkpt><trkpt lat="42.8625533" lon="13.484245"><ele>389.33333333333337</ele><time>2026-04-04T11:22:37.782Z</time></trkpt><trkpt lat="42.8624983" lon="13.4841883"><ele>390.6666666666667</ele><time>2026-04-04T11:22:38.782Z</time></trkpt><trkpt lat="42.8624383" lon="13.4841333"><ele>392.0</ele><time>2026-04-04T11:22:39.783Z</time></trkpt><trkpt lat="42.8623717" lon="13.48407"><ele>393.33333333333337</ele><time>2026-04-04T11:22:40.783Z</time></trkpt><trkpt lat="42.8623" lon="13.4840083"><ele>394.6666666666667</ele><time>2026-04-04T11:22:41.783Z</time></trkpt><trkpt lat="42.862235" lon="13.4839583"><ele>396.0</ele><time>2026-04-04T11:22:42.782Z</time></trkpt><trkpt lat="42.86217" lon="13.4839217"><ele>396.0</ele><time>2026-04-04T11:22:43.783Z</time></trkpt><trkpt lat="42.8621083" lon="13.4838883"><ele>396.0</ele><time>2026-04-04T11:22:44.782Z</time></trkpt><trkpt lat="42.8619983" lon="13.4838317"><ele>396.0</ele><time>2026-04-04T11:22:46.782Z</time></trkpt><trkpt lat="42.8618833" lon="13.483795"><ele>396.0</ele><time>2026-04-04T11:22:48.782Z</time></trkpt><trkpt lat="42.86177" lon="13.48373"><ele>396.0</ele><time>2026-04-04T11:22:50.783Z</time></trkpt><trkpt lat="42.861655" lon="13.48365"><ele>395.20000000000005</ele><time>2026-04-04T11:22:52.782Z</time></trkpt><trkpt lat="42.8615533" lon="13.4835783"><ele>394.40000000000003</ele><time>2026-04-04T11:22:54.783Z</time></trkpt><trkpt lat="42.8614567" lon="13.4835167"><ele>393.6</ele><time>2026-04-04T11:22:56.782Z</time></trkpt><trkpt lat="42.861345" lon="13.4834533"><ele>392.8</ele><time>2026-04-04T11:22:58.782Z</time></trkpt><trkpt lat="42.86128" lon="13.48341"><ele>392.0</ele><time>2026-04-04T11:22:59.782Z</time></trkpt><trkpt lat="42.8612117" lon="13.48335"><ele>391.99999999999994</ele><time>2026-04-04T11:23:00.782Z</time></trkpt><trkpt lat="42.8611517" lon="13.4832867"><ele>392.0</ele><time>2026-04-04T11:23:01.783Z</time></trkpt><trkpt lat="42.8611033" lon="13.483225"><ele>392.0</ele><time>2026-04-04T11:23:02.783Z</time></trkpt><trkpt lat="42.8610117" lon="13.4831317"><ele>392.0</ele><time>2026-04-04T11:23:04.783Z</time></trkpt><trkpt lat="42.860925" lon="13.4830717"><ele>391.99999999999994</ele><time>2026-04-04T11:23:06.782Z</time></trkpt><trkpt lat="42.8608667" lon="13.4829767"><ele>392.0</ele><time>2026-04-04T11:23:08.782Z</time></trkpt><trkpt lat="42.86082" lon="13.482895"><ele>389.66666666666663</ele><time>2026-04-04T11:23:10.782Z</time></trkpt><trkpt lat="42.8607433" lon="13.48286"><ele>387.3333333333333</ele><time>2026-04-04T11:23:12.783Z</time></trkpt><trkpt lat="42.8606483" lon="13.48286"><ele>385.0</ele><time>2026-04-04T11:23:14.782Z</time></trkpt><trkpt lat="42.8605617" lon="13.482895"><ele>382.66666666666663</ele><time>2026-04-04T11:23:16.782Z</time></trkpt><trkpt lat="42.8605" lon="13.48297"><ele>380.3333333333333</ele><time>2026-04-04T11:23:19.782Z</time></trkpt><trkpt lat="42.8604667" lon="13.4830583"><ele>378.0</ele><time>2026-04-04T11:23:31.783Z</time></trkpt><trkpt lat="42.8604333" lon="13.4831817"><ele>378.0</ele><time>2026-04-04T11:23:33.783Z</time></trkpt><trkpt lat="42.8604233" lon="13.4832667"><ele>378.0</ele><time>2026-04-04T11:23:34.782Z</time></trkpt><trkpt lat="42.8604117" lon="13.4834133"><ele>378.0</ele><time>2026-04-04T11:23:36.783Z</time></trkpt><trkpt lat="42.8603967" lon="13.4835467"><ele>378.0</ele><time>2026-04-04T11:23:38.783Z</time></trkpt><trkpt lat="42.8603267" lon="13.4836217"><ele>378.0</ele><time>2026-04-04T11:23:40.783Z</time></trkpt><trkpt lat="42.860245" lon="13.4836333"><ele>378.0</ele><time>2026-04-04T11:23:42.783Z</time></trkpt><trkpt lat="42.8600833" lon="13.4836017"><ele>377.3333333333333</ele><time>2026-04-04T11:28:59.782Z</time></trkpt><trkpt lat="42.8600083" lon="13.483545"><ele>376.6666666666667</ele><time>2026-04-04T11:29:02.781Z</time></trkpt><trkpt lat="42.859925" lon="13.4834883"><ele>376.0</ele><time>2026-04-04T11:29:05.781Z</time></trkpt><trkpt lat="42.8598533" lon="13.4834233"><ele>375.33333333333337</ele><time>2026-04-04T11:29:08.781Z</time></trkpt><trkpt lat="42.8597867" lon="13.4833767"><ele>374.6666666666667</ele><time>2026-04-04T11:29:11.781Z</time></trkpt><trkpt lat="42.8597133" lon="13.4833333"><ele>374.0</ele><time>2026-04-04T11:29:14.781Z</time></trkpt><trkpt lat="42.8596467" lon="13.483275"><ele>374.0</ele><time>2026-04-04T11:29:18.781Z</time></trkpt><trkpt lat="42.85959" lon="13.4832367"><ele>374.0</ele><time>2026-04-04T11:29:22.782Z</time></trkpt><trkpt lat="42.8595217" lon="13.4832"><ele>374.0</ele><time>2026-04-04T11:29:26.781Z</time></trkpt><trkpt lat="42.859455" lon="13.4831683"><ele>374.0</ele><time>2026-04-04T11:29:29.781Z</time></trkpt><trkpt lat="42.85938" lon="13.4831267"><ele>374.0</ele><time>2026-04-04T11:29:33.781Z</time></trkpt><trkpt lat="42.8593067" lon="13.4830867"><ele>374.0</ele><time>2026-04-04T11:29:37.782Z</time></trkpt><trkpt lat="42.8592383" lon="13.48305"><ele>374.0</ele><time>2026-04-04T11:29:42.781Z</time></trkpt><trkpt lat="42.8591767" lon="13.4830017"><ele>370.5</ele><time>2026-04-04T11:29:47.782Z</time></trkpt><trkpt lat="42.8591" lon="13.4829717"><ele>367.0</ele><time>2026-04-04T11:29:52.782Z</time></trkpt><trkpt lat="42.8590367" lon="13.4829283"><ele>363.5</ele><time>2026-04-04T11:29:57.782Z</time></trkpt><trkpt lat="42.858965" lon="13.4828767"><ele>360.0</ele><time>2026-04-04T11:30:02.782Z</time></trkpt><trkpt lat="42.8588983" lon="13.48285"><ele>356.5</ele><time>2026-04-04T11:30:07.781Z</time></trkpt><trkpt lat="42.8588367" lon="13.48282"><ele>353.0</ele><time>2026-04-04T11:30:11.782Z</time></trkpt><trkpt lat="42.8587367" lon="13.4828967"><ele>353.0</ele><time>2026-04-04T11:31:12.781Z</time></trkpt><trkpt lat="42.8586683" lon="13.4829733"><ele>353.0</ele><time>2026-04-04T11:31:19.78Z</time></trkpt><trkpt lat="42.8585133" lon="13.4829717"><ele>353.0</ele><time>2026-04-04T11:33:04.78Z</time></trkpt><trkpt lat="42.8584033" lon="13.4830133"><ele>353.0</ele><time>2026-04-04T11:33:23.78Z</time></trkpt><trkpt lat="42.8583283" lon="13.48301"><ele>353.0</ele><time>2026-04-04T11:33:29.781Z</time></trkpt><trkpt lat="42.858265" lon="13.48299"><ele>349.83333333333337</ele><time>2026-04-04T11:33:33.781Z</time></trkpt><trkpt lat="42.8581767" lon="13.4829733"><ele>346.6666666666667</ele><time>2026-04-04T11:33:38.78Z</time></trkpt><trkpt lat="42.8581" lon="13.4829467"><ele>343.5</ele><time>2026-04-04T11:33:42.781Z</time></trkpt><trkpt lat="42.8580167" lon="13.4829133"><ele>340.3333333333333</ele><time>2026-04-04T11:33:45.78Z</time></trkpt><trkpt lat="42.8579433" lon="13.4828883"><ele>337.16666666666663</ele><time>2026-04-04T11:33:48.78Z</time></trkpt><trkpt lat="42.85787" lon="13.4828883"><ele>334.0</ele><time>2026-04-04T11:33:51.781Z</time></trkpt><trkpt lat="42.8577933" lon="13.4828883"><ele>332.2</ele><time>2026-04-04T11:33:54.78Z</time></trkpt><trkpt lat="42.8577067" lon="13.482865"><ele>330.4</ele><time>2026-04-04T11:33:57.78Z</time></trkpt><trkpt lat="42.8576383" lon="13.4828317"><ele>328.6</ele><time>2026-04-04T11:33:59.781Z</time></trkpt><trkpt lat="42.85756" lon="13.4827983"><ele>326.8</ele><time>2026-04-04T11:34:02.78Z</time></trkpt><trkpt lat="42.857415" lon="13.48272"><ele>325.0</ele><time>2026-04-04T11:35:05.78Z</time></trkpt><trkpt lat="42.85734" lon="13.48268"><ele>322.16666666666663</ele><time>2026-04-04T11:35:08.781Z</time></trkpt><trkpt lat="42.8572683" lon="13.4826517"><ele>319.3333333333333</ele><time>2026-04-04T11:35:11.781Z</time></trkpt><trkpt lat="42.8571867" lon="13.4826117"><ele>316.5</ele><time>2026-04-04T11:35:14.781Z</time></trkpt><trkpt lat="42.8571217" lon="13.4825717"><ele>313.6666666666667</ele><time>2026-04-04T11:35:17.78Z</time></trkpt><trkpt lat="42.857015" lon="13.4824717"><ele>310.83333333333337</ele><time>2026-04-04T11:35:27.779Z</time></trkpt><trkpt lat="42.856935" lon="13.4824617"><ele>308.0</ele><time>2026-04-04T11:35:31.78Z</time></trkpt><trkpt lat="42.8568633" lon="13.4824767"><ele>308.0</ele><time>2026-04-04T11:35:34.78Z</time></trkpt><trkpt lat="42.8567867" lon="13.4825083"><ele>308.0</ele><time>2026-04-04T11:35:37.78Z</time></trkpt><trkpt lat="42.856725" lon="13.482535"><ele>308.0</ele><time>2026-04-04T11:35:41.78Z</time></trkpt><trkpt lat="42.8566617" lon="13.4825367"><ele>308.0</ele><time>2026-04-04T11:35:44.779Z</time></trkpt><trkpt lat="42.8565933" lon="13.4825467"><ele>308.0</ele><time>2026-04-04T11:35:47.779Z</time></trkpt><trkpt lat="42.8565217" lon="13.4825833"><ele>308.0</ele><time>2026-04-04T11:35:50.779Z</time></trkpt><trkpt lat="42.8564483" lon="13.4826083"><ele>308.0</ele><time>2026-04-04T11:35:52.779Z</time></trkpt><trkpt lat="42.8563767" lon="13.48265"><ele>304.6</ele><time>2026-04-04T11:35:54.779Z</time></trkpt><trkpt lat="42.8562733" lon="13.4826933"><ele>301.20000000000005</ele><time>2026-04-04T11:35:56.78Z</time></trkpt><trkpt lat="42.856165" lon="13.482735"><ele>297.8</ele><time>2026-04-04T11:35:58.779Z</time></trkpt><trkpt lat="42.8560733" lon="13.48278"><ele>294.40000000000003</ele><time>2026-04-04T11:36:00.78Z</time></trkpt><trkpt lat="42.8560083" lon="13.4828417"><ele>291.0</ele><time>2026-04-04T11:36:02.78Z</time></trkpt><trkpt lat="42.8559533" lon="13.4829033"><ele>291.0</ele><time>2026-04-04T11:36:04.779Z</time></trkpt><trkpt lat="42.8558767" lon="13.48291"><ele>291.0</ele><time>2026-04-04T11:36:07.779Z</time></trkpt><trkpt lat="42.8558733" lon="13.4827817"><ele>291.0</ele><time>2026-04-04T11:36:10.779Z</time></trkpt><trkpt lat="42.855935" lon="13.4826267"><ele>291.0</ele><time>2026-04-04T11:36:12.78Z</time></trkpt><trkpt lat="42.855975" lon="13.4825483"><ele>291.0</ele><time>2026-04-04T11:36:13.779Z</time></trkpt><trkpt lat="42.8560167" lon="13.4824767"><ele>291.0</ele><time>2026-04-04T11:36:14.78Z</time></trkpt><trkpt lat="42.85605" lon="13.4824"><ele>291.0</ele><time>2026-04-04T11:36:15.779Z</time></trkpt><trkpt lat="42.85608" lon="13.4823167"><ele>291.0</ele><time>2026-04-04T11:36:16.78Z</time></trkpt><trkpt lat="42.8561133" lon="13.4822417"><ele>291.0</ele><time>2026-04-04T11:36:17.779Z</time></trkpt><trkpt lat="42.8561417" lon="13.482155"><ele>291.0</ele><time>2026-04-04T11:36:18.78Z</time></trkpt><trkpt lat="42.8561617" lon="13.4820617"><ele>291.0</ele><time>2026-04-04T11:36:19.779Z</time></trkpt><trkpt lat="42.856185" lon="13.4819817"><ele>291.0</ele><time>2026-04-04T11:36:20.78Z</time></trkpt><trkpt lat="42.8562233" lon="13.4818617"><ele>291.0</ele><time>2026-04-04T11:36:22.779Z</time></trkpt><trkpt lat="42.8563" lon="13.4817517"><ele>289.6666666666667</ele><time>2026-04-04T11:36:24.779Z</time></trkpt><trkpt lat="42.8563517" lon="13.4816933"><ele>288.3333333333333</ele><time>2026-04-04T11:36:25.78Z</time></trkpt><trkpt lat="42.85641" lon="13.481545"><ele>287.0</ele><time>2026-04-04T11:36:27.779Z</time></trkpt><trkpt lat="42.8564167" lon="13.4814417"><ele>285.66666666666663</ele><time>2026-04-04T11:36:28.78Z</time></trkpt><trkpt lat="42.856415" lon="13.481355"><ele>284.3333333333333</ele><time>2026-04-04T11:36:29.78Z</time></trkpt><trkpt lat="42.8564083" lon="13.481265"><ele>283.0</ele><time>2026-04-04T11:36:30.779Z</time></trkpt><trkpt lat="42.8563883" lon="13.481175"><ele>282.0</ele><time>2026-04-04T11:36:31.779Z</time></trkpt><trkpt lat="42.8563733" lon="13.4810217"><ele>281.0</ele><time>2026-04-04T11:36:33.78Z</time></trkpt><trkpt lat="42.8563617" lon="13.4808733"><ele>280.0</ele><time>2026-04-04T11:36:35.78Z</time></trkpt><trkpt lat="42.856345" lon="13.480725"><ele>279.0</ele><time>2026-04-04T11:36:37.78Z</time></trkpt><trkpt lat="42.8563467" lon="13.480595"><ele>278.0</ele><time>2026-04-04T11:36:39.78Z</time></trkpt><trkpt lat="42.8563833" lon="13.4804633"><ele>277.33333333333337</ele><time>2026-04-04T11:36:41.78Z</time></trkpt><trkpt lat="42.856405" lon="13.480365"><ele>276.6666666666667</ele><time>2026-04-04T11:36:43.779Z</time></trkpt><trkpt lat="42.8563683" lon="13.4802817"><ele>276.0</ele><time>2026-04-04T11:36:46.78Z</time></trkpt><trkpt lat="42.85629" lon="13.48026"><ele>275.3333333333333</ele><time>2026-04-04T11:36:51.779Z</time></trkpt><trkpt lat="42.8562483" lon="13.4803867"><ele>274.66666666666663</ele><time>2026-04-04T11:37:06.78Z</time></trkpt><trkpt lat="42.8562067" lon="13.4802317"><ele>274.0</ele><time>2026-04-04T11:37:26.779Z</time></trkpt><trkpt lat="42.8561383" lon="13.4801067"><ele>274.00000000000006</ele><time>2026-04-04T11:37:28.779Z</time></trkpt><trkpt lat="42.8560817" lon="13.4800683"><ele>274.0</ele><time>2026-04-04T11:37:29.779Z</time></trkpt><trkpt lat="42.8559783" lon="13.480085"><ele>274.0</ele><time>2026-04-04T11:37:31.78Z</time></trkpt><trkpt lat="42.8559167" lon="13.4801217"><ele>274.0</ele><time>2026-04-04T11:37:32.779Z</time></trkpt><trkpt lat="42.8558567" lon="13.480165"><ele>274.0</ele><time>2026-04-04T11:37:33.78Z</time></trkpt><trkpt lat="42.8558" lon="13.480225"><ele>274.00000000000006</ele><time>2026-04-04T11:37:34.78Z</time></trkpt><trkpt lat="42.8557417" lon="13.48027"><ele>274.0</ele><time>2026-04-04T11:37:35.78Z</time></trkpt><trkpt lat="42.8556567" lon="13.48035"><ele>280.0</ele><time>2026-04-04T11:37:37.78Z</time></trkpt><trkpt lat="42.855575" lon="13.4803367"><ele>280.0</ele><time>2026-04-04T11:37:45.779Z</time></trkpt></trkseg><trkseg><trkpt lat="42.8554817" lon="13.4804367"><ele>275.83333333333337</ele><time>2026-04-04T12:54:23.767Z</time></trkpt><trkpt lat="42.8555467" lon="13.4804217"><ele>276.6666666666667</ele><time>2026-04-04T12:57:12.766Z</time></trkpt><trkpt lat="42.8556" lon="13.48035"><ele>277.5</ele><time>2026-04-04T12:57:15.767Z</time></trkpt><trkpt lat="42.8556533" lon="13.4802767"><ele>278.3333333333333</ele><time>2026-04-04T12:57:20.766Z</time></trkpt><trkpt lat="42.8557367" lon="13.4801767"><ele>279.16666666666663</ele><time>2026-04-04T12:57:22.767Z</time></trkpt><trkpt lat="42.8558033" lon="13.4801033"><ele>280.0</ele><time>2026-04-04T12:57:23.767Z</time></trkpt><trkpt lat="42.8558833" lon="13.4800217"><ele>280.5</ele><time>2026-04-04T12:57:24.767Z</time></trkpt><trkpt lat="42.8559833" lon="13.4799167"><ele>281.0</ele><time>2026-04-04T12:57:25.766Z</time></trkpt><trkpt lat="42.8560933" lon="13.4797867"><ele>281.5</ele><time>2026-04-04T12:57:26.767Z</time></trkpt><trkpt lat="42.8562017" lon="13.47966"><ele>282.0</ele><time>2026-04-04T12:57:27.767Z</time></trkpt><trkpt lat="42.8563167" lon="13.479535"><ele>282.0</ele><time>2026-04-04T12:57:28.766Z</time></trkpt><trkpt lat="42.85642" lon="13.47942"><ele>282.0</ele><time>2026-04-04T12:57:29.767Z</time></trkpt><trkpt lat="42.8565217" lon="13.4793"><ele>282.0</ele><time>2026-04-04T12:57:30.766Z</time></trkpt><trkpt lat="42.856625" lon="13.47919"><ele>282.0</ele><time>2026-04-04T12:57:31.767Z</time></trkpt><trkpt lat="42.85673" lon="13.4790817"><ele>282.75</ele><time>2026-04-04T12:57:32.767Z</time></trkpt><trkpt lat="42.856825" lon="13.478975"><ele>283.5</ele><time>2026-04-04T12:57:33.767Z</time></trkpt><trkpt lat="42.8569283" lon="13.478875"><ele>284.25</ele><time>2026-04-04T12:57:34.766Z</time></trkpt><trkpt lat="42.8570383" lon="13.478785"><ele>285.0</ele><time>2026-04-04T12:57:35.766Z</time></trkpt><trkpt lat="42.857145" lon="13.478675"><ele>285.0</ele><time>2026-04-04T12:57:36.766Z</time></trkpt><trkpt lat="42.8572683" lon="13.47858"><ele>285.0</ele><time>2026-04-04T12:57:37.766Z</time></trkpt><trkpt lat="42.8573883" lon="13.4784933"><ele>285.0</ele><time>2026-04-04T12:57:38.766Z</time></trkpt><trkpt lat="42.8575117" lon="13.4783983"><ele>285.0</ele><time>2026-04-04T12:57:39.767Z</time></trkpt><trkpt lat="42.8576283" lon="13.4782983"><ele>284.25</ele><time>2026-04-04T12:57:40.766Z</time></trkpt><trkpt lat="42.857745" lon="13.4781983"><ele>283.5</ele><time>2026-04-04T12:57:41.766Z</time></trkpt><trkpt lat="42.85786" lon="13.47809"><ele>282.75</ele><time>2026-04-04T12:57:42.766Z</time></trkpt><trkpt lat="42.8579833" lon="13.4779883"><ele>282.0</ele><time>2026-04-04T12:57:43.767Z</time></trkpt><trkpt lat="42.858105" lon="13.4778917"><ele>283.0</ele><time>2026-04-04T12:57:44.766Z</time></trkpt><trkpt lat="42.858235" lon="13.477805"><ele>284.0</ele><time>2026-04-04T12:57:45.766Z</time></trkpt><trkpt lat="42.8583517" lon="13.4777117"><ele>285.0</ele><time>2026-04-04T12:57:46.766Z</time></trkpt><trkpt lat="42.8584733" lon="13.4776217"><ele>286.0</ele><time>2026-04-04T12:57:47.766Z</time></trkpt><trkpt lat="42.8585967" lon="13.4775133"><ele>286.0</ele><time>2026-04-04T12:57:48.766Z</time></trkpt><trkpt lat="42.85872" lon="13.4774117"><ele>286.0</ele><time>2026-04-04T12:57:49.767Z</time></trkpt><trkpt lat="42.8588367" lon="13.4773183"><ele>286.0</ele><time>2026-04-04T12:57:50.766Z</time></trkpt><trkpt lat="42.8589517" lon="13.4772283"><ele>286.0</ele><time>2026-04-04T12:57:51.766Z</time></trkpt><trkpt lat="42.8590667" lon="13.4771467"><ele>286.25</ele><time>2026-04-04T12:57:52.767Z</time></trkpt><trkpt lat="42.8591833" lon="13.4770567"><ele>286.5</ele><time>2026-04-04T12:57:53.767Z</time></trkpt><trkpt lat="42.8592967" lon="13.47696"><ele>286.75</ele><time>2026-04-04T12:57:54.766Z</time></trkpt><trkpt lat="42.8594067" lon="13.4768583"><ele>287.0</ele><time>2026-04-04T12:57:55.767Z</time></trkpt><trkpt lat="42.8595067" lon="13.47676"><ele>287.0</ele><time>2026-04-04T12:57:56.767Z</time></trkpt><trkpt lat="42.8596" lon="13.4766883"><ele>287.0</ele><time>2026-04-04T12:57:57.767Z</time></trkpt><trkpt lat="42.8596867" lon="13.476625"><ele>287.0</ele><time>2026-04-04T12:57:58.767Z</time></trkpt><trkpt lat="42.85976" lon="13.47656"><ele>287.0</ele><time>2026-04-04T12:57:59.766Z</time></trkpt><trkpt lat="42.859825" lon="13.4765283"><ele>287.0</ele><time>2026-04-04T12:58:00.767Z</time></trkpt><trkpt lat="42.85994" lon="13.4765133"><ele>287.0</ele><time>2026-04-04T12:58:02.766Z</time></trkpt><trkpt lat="42.8600533" lon="13.4765067"><ele>287.0</ele><time>2026-04-04T12:58:04.766Z</time></trkpt><trkpt lat="42.8601217" lon="13.4764867"><ele>287.0</ele><time>2026-04-04T12:58:05.766Z</time></trkpt><trkpt lat="42.860195" lon="13.4764617"><ele>287.0</ele><time>2026-04-04T12:58:06.766Z</time></trkpt><trkpt lat="42.8602717" lon="13.4764233"><ele>287.0</ele><time>2026-04-04T12:58:07.766Z</time></trkpt><trkpt lat="42.8603467" lon="13.4763867"><ele>287.0</ele><time>2026-04-04T12:58:08.766Z</time></trkpt><trkpt lat="42.86041" lon="13.476345"><ele>287.0</ele><time>2026-04-04T12:58:09.767Z</time></trkpt><trkpt lat="42.860475" lon="13.47631"><ele>287.0</ele><time>2026-04-04T12:58:10.767Z</time></trkpt><trkpt lat="42.8605817" lon="13.4762483"><ele>287.0</ele><time>2026-04-04T12:58:12.767Z</time></trkpt><trkpt lat="42.86066" lon="13.476225"><ele>287.0</ele><time>2026-04-04T12:58:14.766Z</time></trkpt><trkpt lat="42.8607233" lon="13.4761983"><ele>287.0</ele><time>2026-04-04T12:58:17.767Z</time></trkpt><trkpt lat="42.86079" lon="13.4761483"><ele>287.0</ele><time>2026-04-04T13:03:33.765Z</time></trkpt><trkpt lat="42.860855" lon="13.4761083"><ele>287.8</ele><time>2026-04-04T13:03:35.765Z</time></trkpt><trkpt lat="42.86094" lon="13.47606"><ele>288.6</ele><time>2026-04-04T13:03:37.765Z</time></trkpt><trkpt lat="42.8610417" lon="13.4760017"><ele>289.40000000000003</ele><time>2026-04-04T13:03:39.766Z</time></trkpt><trkpt lat="42.8611283" lon="13.475935"><ele>290.2</ele><time>2026-04-04T13:03:41.765Z</time></trkpt><trkpt lat="42.8611733" lon="13.4758583"><ele>291.0</ele><time>2026-04-04T13:03:43.765Z</time></trkpt><trkpt lat="42.8612267" lon="13.4757617"><ele>291.0</ele><time>2026-04-04T13:04:20.766Z</time></trkpt><trkpt lat="42.8613167" lon="13.4756783"><ele>291.0</ele><time>2026-04-04T13:04:22.765Z</time></trkpt><trkpt lat="42.8613883" lon="13.47563"><ele>291.0</ele><time>2026-04-04T13:04:23.765Z</time></trkpt><trkpt lat="42.8614717" lon="13.4755667"><ele>291.0</ele><time>2026-04-04T13:04:24.766Z</time></trkpt><trkpt lat="42.861555" lon="13.4755183"><ele>291.0</ele><time>2026-04-04T13:04:25.765Z</time></trkpt><trkpt lat="42.861655" lon="13.4754733"><ele>292.2</ele><time>2026-04-04T13:04:26.766Z</time></trkpt><trkpt lat="42.8617467" lon="13.475425"><ele>293.40000000000003</ele><time>2026-04-04T13:04:27.766Z</time></trkpt><trkpt lat="42.86183" lon="13.47537"><ele>294.6</ele><time>2026-04-04T13:04:28.765Z</time></trkpt><trkpt lat="42.861925" lon="13.4753083"><ele>295.8</ele><time>2026-04-04T13:04:29.766Z</time></trkpt><trkpt lat="42.8620133" lon="13.4752417"><ele>297.0</ele><time>2026-04-04T13:04:30.765Z</time></trkpt><trkpt lat="42.8621117" lon="13.475195"><ele>297.0</ele><time>2026-04-04T13:04:31.766Z</time></trkpt><trkpt lat="42.8622117" lon="13.4751417"><ele>297.0</ele><time>2026-04-04T13:04:32.766Z</time></trkpt><trkpt lat="42.8623067" lon="13.475085"><ele>297.0</ele><time>2026-04-04T13:04:33.765Z</time></trkpt><trkpt lat="42.8624017" lon="13.4750233"><ele>297.0</ele><time>2026-04-04T13:04:34.765Z</time></trkpt><trkpt lat="42.8624917" lon="13.4749617"><ele>297.0</ele><time>2026-04-04T13:04:35.765Z</time></trkpt><trkpt lat="42.86259" lon="13.4749067"><ele>296.2</ele><time>2026-04-04T13:04:36.765Z</time></trkpt><trkpt lat="42.8626833" lon="13.4748583"><ele>295.4</ele><time>2026-04-04T13:04:37.765Z</time></trkpt><trkpt lat="42.86278" lon="13.4748083"><ele>294.6</ele><time>2026-04-04T13:04:38.765Z</time></trkpt><trkpt lat="42.8628783" lon="13.47475"><ele>293.8</ele><time>2026-04-04T13:04:39.765Z</time></trkpt><trkpt lat="42.862975" lon="13.4746833"><ele>293.0</ele><time>2026-04-04T13:04:40.766Z</time></trkpt><trkpt lat="42.86308" lon="13.4746267"><ele>294.25</ele><time>2026-04-04T13:04:41.765Z</time></trkpt><trkpt lat="42.8631817" lon="13.4745717"><ele>295.5</ele><time>2026-04-04T13:04:42.765Z</time></trkpt><trkpt lat="42.8632867" lon="13.4745133"><ele>296.75</ele><time>2026-04-04T13:04:43.766Z</time></trkpt><trkpt lat="42.8633867" lon="13.47445"><ele>298.0</ele><time>2026-04-04T13:04:44.765Z</time></trkpt><trkpt lat="42.8635017" lon="13.4743917"><ele>298.0</ele><time>2026-04-04T13:04:45.765Z</time></trkpt><trkpt lat="42.8636083" lon="13.4743383"><ele>298.0</ele><time>2026-04-04T13:04:46.765Z</time></trkpt><trkpt lat="42.8637083" lon="13.474285"><ele>298.0</ele><time>2026-04-04T13:04:47.765Z</time></trkpt><trkpt lat="42.863805" lon="13.4742267"><ele>298.0</ele><time>2026-04-04T13:04:48.765Z</time></trkpt><trkpt lat="42.8639067" lon="13.4741767"><ele>298.0</ele><time>2026-04-04T13:04:49.766Z</time></trkpt><trkpt lat="42.864005" lon="13.474105"><ele>298.0</ele><time>2026-04-04T13:04:50.765Z</time></trkpt><trkpt lat="42.864095" lon="13.47402"><ele>298.0</ele><time>2026-04-04T13:04:51.765Z</time></trkpt><trkpt lat="42.8641683" lon="13.4739117"><ele>298.0</ele><time>2026-04-04T13:04:52.765Z</time></trkpt><trkpt lat="42.8642367" lon="13.47379"><ele>298.0</ele><time>2026-04-04T13:04:53.766Z</time></trkpt><trkpt lat="42.8642967" lon="13.4736533"><ele>298.0</ele><time>2026-04-04T13:04:54.766Z</time></trkpt><trkpt lat="42.8643517" lon="13.47348"><ele>297.5</ele><time>2026-04-04T13:04:55.766Z</time></trkpt><trkpt lat="42.8644033" lon="13.4733017"><ele>297.0</ele><time>2026-04-04T13:04:56.765Z</time></trkpt><trkpt lat="42.86445" lon="13.4731417"><ele>296.5</ele><time>2026-04-04T13:04:57.765Z</time></trkpt><trkpt lat="42.8644833" lon="13.472995"><ele>296.0</ele><time>2026-04-04T13:04:58.765Z</time></trkpt><trkpt lat="42.8645167" lon="13.4728567"><ele>296.0</ele><time>2026-04-04T13:04:59.765Z</time></trkpt><trkpt lat="42.8645633" lon="13.4727067"><ele>296.0</ele><time>2026-04-04T13:05:00.765Z</time></trkpt><trkpt lat="42.864605" lon="13.4725533"><ele>296.0</ele><time>2026-04-04T13:05:01.765Z</time></trkpt><trkpt lat="42.8646467" lon="13.4724"><ele>296.0</ele><time>2026-04-04T13:05:02.766Z</time></trkpt><trkpt lat="42.8646833" lon="13.4722483"><ele>296.40000000000003</ele><time>2026-04-04T13:05:03.765Z</time></trkpt><trkpt lat="42.8647083" lon="13.472105"><ele>296.8</ele><time>2026-04-04T13:05:04.765Z</time></trkpt><trkpt lat="42.8647317" lon="13.4719617"><ele>297.20000000000005</ele><time>2026-04-04T13:05:05.766Z</time></trkpt><trkpt lat="42.864745" lon="13.4718083"><ele>297.6</ele><time>2026-04-04T13:05:06.765Z</time></trkpt><trkpt lat="42.8647517" lon="13.4716467"><ele>298.0</ele><time>2026-04-04T13:05:07.765Z</time></trkpt><trkpt lat="42.8647517" lon="13.471475"><ele>298.0</ele><time>2026-04-04T13:05:08.765Z</time></trkpt><trkpt lat="42.8647417" lon="13.4713083"><ele>298.0</ele><time>2026-04-04T13:05:09.765Z</time></trkpt><trkpt lat="42.8647317" lon="13.4711433"><ele>298.0</ele><time>2026-04-04T13:05:10.766Z</time></trkpt><trkpt lat="42.8647283" lon="13.47099"><ele>298.0</ele><time>2026-04-04T13:05:11.765Z</time></trkpt><trkpt lat="42.8647467" lon="13.4708417"><ele>299.0</ele><time>2026-04-04T13:05:12.766Z</time></trkpt><trkpt lat="42.8647967" lon="13.4706817"><ele>300.0</ele><time>2026-04-04T13:05:13.765Z</time></trkpt><trkpt lat="42.8648667" lon="13.4705317"><ele>301.0</ele><time>2026-04-04T13:05:14.765Z</time></trkpt><trkpt lat="42.864945" lon="13.4703817"><ele>302.0</ele><time>2026-04-04T13:05:15.766Z</time></trkpt><trkpt lat="42.8650217" lon="13.4702333"><ele>303.5</ele><time>2026-04-04T13:05:16.765Z</time></trkpt><trkpt lat="42.865105" lon="13.4700717"><ele>305.0</ele><time>2026-04-04T13:05:17.766Z</time></trkpt><trkpt lat="42.86518" lon="13.469915"><ele>306.5</ele><time>2026-04-04T13:05:18.765Z</time></trkpt><trkpt lat="42.865255" lon="13.46976"><ele>308.0</ele><time>2026-04-04T13:05:19.766Z</time></trkpt><trkpt lat="42.8653233" lon="13.469605"><ele>308.0</ele><time>2026-04-04T13:05:20.765Z</time></trkpt><trkpt lat="42.8654017" lon="13.46945"><ele>308.0</ele><time>2026-04-04T13:05:21.765Z</time></trkpt><trkpt lat="42.8654767" lon="13.469305"><ele>308.0</ele><time>2026-04-04T13:05:22.765Z</time></trkpt><trkpt lat="42.86556" lon="13.469155"><ele>308.0</ele><time>2026-04-04T13:05:23.765Z</time></trkpt><trkpt lat="42.86564" lon="13.4690033"><ele>308.0</ele><time>2026-04-04T13:05:24.765Z</time></trkpt><trkpt lat="42.8657183" lon="13.4688467"><ele>308.0</ele><time>2026-04-04T13:05:25.765Z</time></trkpt><trkpt lat="42.8657933" lon="13.468695"><ele>308.0</ele><time>2026-04-04T13:05:26.765Z</time></trkpt><trkpt lat="42.8658783" lon="13.46853"><ele>308.0</ele><time>2026-04-04T13:05:27.765Z</time></trkpt><trkpt lat="42.865965" lon="13.4683533"><ele>307.75</ele><time>2026-04-04T13:05:28.765Z</time></trkpt><trkpt lat="42.8660433" lon="13.4682083"><ele>307.5</ele><time>2026-04-04T13:05:29.766Z</time></trkpt><trkpt lat="42.8661267" lon="13.46806"><ele>307.25</ele><time>2026-04-04T13:05:30.765Z</time></trkpt><trkpt lat="42.8662167" lon="13.4679117"><ele>307.0</ele><time>2026-04-04T13:05:31.765Z</time></trkpt><trkpt lat="42.8663217" lon="13.4677717"><ele>307.0</ele><time>2026-04-04T13:05:32.766Z</time></trkpt><trkpt lat="42.8664217" lon="13.4676367"><ele>307.0</ele><time>2026-04-04T13:05:33.765Z</time></trkpt><trkpt lat="42.8665217" lon="13.467505"><ele>307.0</ele><time>2026-04-04T13:05:34.765Z</time></trkpt><trkpt lat="42.8666267" lon="13.4673717"><ele>307.0</ele><time>2026-04-04T13:05:35.765Z</time></trkpt><trkpt lat="42.866735" lon="13.467235"><ele>306.5</ele><time>2026-04-04T13:05:36.765Z</time></trkpt><trkpt lat="42.8668483" lon="13.4670983"><ele>306.0</ele><time>2026-04-04T13:05:37.766Z</time></trkpt><trkpt lat="42.8669533" lon="13.466965"><ele>305.5</ele><time>2026-04-04T13:05:38.766Z</time></trkpt><trkpt lat="42.8670617" lon="13.4668317"><ele>305.0</ele><time>2026-04-04T13:05:39.765Z</time></trkpt><trkpt lat="42.8671767" lon="13.466695"><ele>305.0</ele><time>2026-04-04T13:05:40.765Z</time></trkpt><trkpt lat="42.8672833" lon="13.4665567"><ele>305.0</ele><time>2026-04-04T13:05:41.764Z</time></trkpt><trkpt lat="42.86739" lon="13.4664167"><ele>305.0</ele><time>2026-04-04T13:05:42.764Z</time></trkpt><trkpt lat="42.8675" lon="13.4662717"><ele>305.0</ele><time>2026-04-04T13:05:43.764Z</time></trkpt><trkpt lat="42.86761" lon="13.4661217"><ele>305.0</ele><time>2026-04-04T13:05:44.764Z</time></trkpt><trkpt lat="42.8677217" lon="13.4659817"><ele>305.0</ele><time>2026-04-04T13:05:45.764Z</time></trkpt><trkpt lat="42.8678333" lon="13.4658417"><ele>305.0</ele><time>2026-04-04T13:05:46.764Z</time></trkpt><trkpt lat="42.8679433" lon="13.4657067"><ele>305.0</ele><time>2026-04-04T13:05:47.764Z</time></trkpt><trkpt lat="42.8680517" lon="13.4655733"><ele>305.0</ele><time>2026-04-04T13:05:48.765Z</time></trkpt><trkpt lat="42.8681583" lon="13.4654433"><ele>305.0</ele><time>2026-04-04T13:05:49.765Z</time></trkpt><trkpt lat="42.8682617" lon="13.46531"><ele>305.0</ele><time>2026-04-04T13:05:50.765Z</time></trkpt><trkpt lat="42.8683617" lon="13.4651817"><ele>304.75</ele><time>2026-04-04T13:05:51.764Z</time></trkpt><trkpt lat="42.868455" lon="13.465045"><ele>304.5</ele><time>2026-04-04T13:05:52.764Z</time></trkpt><trkpt lat="42.868555" lon="13.46492"><ele>304.25</ele><time>2026-04-04T13:05:53.764Z</time></trkpt><trkpt lat="42.8686617" lon="13.4647983"><ele>304.0</ele><time>2026-04-04T13:05:54.765Z</time></trkpt><trkpt lat="42.8687617" lon="13.4646667"><ele>304.5</ele><time>2026-04-04T13:05:55.764Z</time></trkpt><trkpt lat="42.868855" lon="13.4645383"><ele>305.0</ele><time>2026-04-04T13:05:56.764Z</time></trkpt><trkpt lat="42.8689567" lon="13.4644067"><ele>305.5</ele><time>2026-04-04T13:05:57.764Z</time></trkpt><trkpt lat="42.8690583" lon="13.4642817"><ele>306.0</ele><time>2026-04-04T13:05:58.765Z</time></trkpt><trkpt lat="42.869155" lon="13.4641583"><ele>306.0</ele><time>2026-04-04T13:05:59.764Z</time></trkpt><trkpt lat="42.86925" lon="13.4640233"><ele>306.0</ele><time>2026-04-04T13:06:00.764Z</time></trkpt><trkpt lat="42.8693417" lon="13.4638783"><ele>306.0</ele><time>2026-04-04T13:06:01.765Z</time></trkpt><trkpt lat="42.869435" lon="13.4637117"><ele>306.0</ele><time>2026-04-04T13:06:02.765Z</time></trkpt><trkpt lat="42.8695083" lon="13.463535"><ele>305.5</ele><time>2026-04-04T13:06:03.765Z</time></trkpt><trkpt lat="42.869565" lon="13.4633517"><ele>305.0</ele><time>2026-04-04T13:06:04.764Z</time></trkpt><trkpt lat="42.86961" lon="13.463165"><ele>304.5</ele><time>2026-04-04T13:06:05.765Z</time></trkpt><trkpt lat="42.8696533" lon="13.4629767"><ele>304.0</ele><time>2026-04-04T13:06:06.764Z</time></trkpt><trkpt lat="42.86971" lon="13.4627883"><ele>305.5</ele><time>2026-04-04T13:06:07.764Z</time></trkpt><trkpt lat="42.8697683" lon="13.4625967"><ele>307.0</ele><time>2026-04-04T13:06:08.765Z</time></trkpt><trkpt lat="42.8698233" lon="13.4624083"><ele>308.5</ele><time>2026-04-04T13:06:09.764Z</time></trkpt><trkpt lat="42.86988" lon="13.4622217"><ele>310.0</ele><time>2026-04-04T13:06:10.764Z</time></trkpt><trkpt lat="42.8699417" lon="13.46203"><ele>312.3333333333333</ele><time>2026-04-04T13:06:11.764Z</time></trkpt><trkpt lat="42.8699983" lon="13.4618367"><ele>314.6666666666667</ele><time>2026-04-04T13:06:12.764Z</time></trkpt><trkpt lat="42.8700583" lon="13.46165"><ele>317.0</ele><time>2026-04-04T13:06:13.764Z</time></trkpt><trkpt lat="42.8701217" lon="13.461465"><ele>314.0</ele><time>2026-04-04T13:06:14.764Z</time></trkpt><trkpt lat="42.8701833" lon="13.4612817"><ele>311.0</ele><time>2026-04-04T13:06:15.765Z</time></trkpt><trkpt lat="42.8702467" lon="13.4610883"><ele>308.0</ele><time>2026-04-04T13:06:16.764Z</time></trkpt><trkpt lat="42.8703067" lon="13.4608933"><ele>308.0</ele><time>2026-04-04T13:06:17.765Z</time></trkpt><trkpt lat="42.8703683" lon="13.460705"><ele>308.0</ele><time>2026-04-04T13:06:18.764Z</time></trkpt><trkpt lat="42.8704233" lon="13.4605183"><ele>308.0</ele><time>2026-04-04T13:06:19.764Z</time></trkpt><trkpt lat="42.870475" lon="13.4603267"><ele>308.0</ele><time>2026-04-04T13:06:20.764Z</time></trkpt><trkpt lat="42.8705283" lon="13.4601433"><ele>309.5</ele><time>2026-04-04T13:06:21.764Z</time></trkpt><trkpt lat="42.8705867" lon="13.459955"><ele>311.0</ele><time>2026-04-04T13:06:22.765Z</time></trkpt><trkpt lat="42.87064" lon="13.4597633"><ele>312.5</ele><time>2026-04-04T13:06:23.764Z</time></trkpt><trkpt lat="42.870695" lon="13.45958"><ele>314.0</ele><time>2026-04-04T13:06:24.764Z</time></trkpt><trkpt lat="42.8707533" lon="13.4593933"><ele>314.5</ele><time>2026-04-04T13:06:25.764Z</time></trkpt><trkpt lat="42.8707983" lon="13.4592033"><ele>315.0</ele><time>2026-04-04T13:06:26.764Z</time></trkpt><trkpt lat="42.8708333" lon="13.4590167"><ele>315.5</ele><time>2026-04-04T13:06:27.764Z</time></trkpt><trkpt lat="42.8708517" lon="13.4588167"><ele>316.0</ele><time>2026-04-04T13:06:28.765Z</time></trkpt><trkpt lat="42.8708617" lon="13.4586067"><ele>318.0</ele><time>2026-04-04T13:06:29.764Z</time></trkpt><trkpt lat="42.8708483" lon="13.4583983"><ele>320.0</ele><time>2026-04-04T13:06:30.765Z</time></trkpt><trkpt lat="42.8708467" lon="13.4581933"><ele>322.0</ele><time>2026-04-04T13:06:31.764Z</time></trkpt><trkpt lat="42.870845" lon="13.4579867"><ele>322.66666666666663</ele><time>2026-04-04T13:06:32.765Z</time></trkpt><trkpt lat="42.8708383" lon="13.4577867"><ele>323.3333333333333</ele><time>2026-04-04T13:06:33.765Z</time></trkpt><trkpt lat="42.8708383" lon="13.4575817"><ele>324.0</ele><time>2026-04-04T13:06:34.764Z</time></trkpt><trkpt lat="42.8708333" lon="13.4573733"><ele>324.0</ele><time>2026-04-04T13:06:35.764Z</time></trkpt><trkpt lat="42.8708417" lon="13.4571633"><ele>324.0</ele><time>2026-04-04T13:06:36.764Z</time></trkpt><trkpt lat="42.8708433" lon="13.4569683"><ele>324.0</ele><time>2026-04-04T13:06:37.765Z</time></trkpt><trkpt lat="42.8708533" lon="13.4567667"><ele>324.0</ele><time>2026-04-04T13:06:38.764Z</time></trkpt><trkpt lat="42.87087" lon="13.45657"><ele>324.25</ele><time>2026-04-04T13:06:39.764Z</time></trkpt><trkpt lat="42.870895" lon="13.4563817"><ele>324.5</ele><time>2026-04-04T13:06:40.765Z</time></trkpt><trkpt lat="42.870915" lon="13.4561883"><ele>324.75</ele><time>2026-04-04T13:06:41.765Z</time></trkpt><trkpt lat="42.8709367" lon="13.45599"><ele>325.0</ele><time>2026-04-04T13:06:42.764Z</time></trkpt><trkpt lat="42.8709633" lon="13.4557933"><ele>324.5</ele><time>2026-04-04T13:06:43.765Z</time></trkpt><trkpt lat="42.8709833" lon="13.4555983"><ele>324.0</ele><time>2026-04-04T13:06:44.765Z</time></trkpt><trkpt lat="42.871" lon="13.455405"><ele>323.5</ele><time>2026-04-04T13:06:45.764Z</time></trkpt><trkpt lat="42.871015" lon="13.4552067"><ele>323.0</ele><time>2026-04-04T13:06:46.764Z</time></trkpt><trkpt lat="42.8710133" lon="13.4550167"><ele>323.0</ele><time>2026-04-04T13:06:47.764Z</time></trkpt><trkpt lat="42.8709883" lon="13.45484"><ele>323.0</ele><time>2026-04-04T13:06:48.765Z</time></trkpt><trkpt lat="42.8709417" lon="13.4546733"><ele>323.0</ele><time>2026-04-04T13:06:49.764Z</time></trkpt><trkpt lat="42.8708583" lon="13.454525"><ele>323.0</ele><time>2026-04-04T13:06:50.764Z</time></trkpt><trkpt lat="42.8707617" lon="13.4543983"><ele>324.25</ele><time>2026-04-04T13:06:51.764Z</time></trkpt><trkpt lat="42.870655" lon="13.4543"><ele>325.5</ele><time>2026-04-04T13:06:52.764Z</time></trkpt><trkpt lat="42.870545" lon="13.4542017"><ele>326.75</ele><time>2026-04-04T13:06:53.765Z</time></trkpt><trkpt lat="42.8704433" lon="13.4541033"><ele>328.0</ele><time>2026-04-04T13:06:54.764Z</time></trkpt><trkpt lat="42.8703733" lon="13.4539833"><ele>328.0</ele><time>2026-04-04T13:06:55.764Z</time></trkpt><trkpt lat="42.870335" lon="13.4538717"><ele>328.0</ele><time>2026-04-04T13:06:56.765Z</time></trkpt><trkpt lat="42.870325" lon="13.4537583"><ele>328.0</ele><time>2026-04-04T13:06:57.764Z</time></trkpt><trkpt lat="42.8703517" lon="13.4536467"><ele>328.0</ele><time>2026-04-04T13:06:58.765Z</time></trkpt><trkpt lat="42.870425" lon="13.4535383"><ele>328.0</ele><time>2026-04-04T13:06:59.765Z</time></trkpt><trkpt lat="42.87052" lon="13.4534483"><ele>327.25</ele><time>2026-04-04T13:07:00.765Z</time></trkpt><trkpt lat="42.870625" lon="13.45336"><ele>326.5</ele><time>2026-04-04T13:07:01.765Z</time></trkpt><trkpt lat="42.8707383" lon="13.453255"><ele>325.75</ele><time>2026-04-04T13:07:02.765Z</time></trkpt><trkpt lat="42.87085" lon="13.45315"><ele>325.0</ele><time>2026-04-04T13:07:03.764Z</time></trkpt><trkpt lat="42.870965" lon="13.4530483"><ele>334.0</ele><time>2026-04-04T13:07:04.765Z</time></trkpt><trkpt lat="42.871075" lon="13.4529433"><ele>343.0</ele><time>2026-04-04T13:07:05.764Z</time></trkpt><trkpt lat="42.8711683" lon="13.4528283"><ele>352.0</ele><time>2026-04-04T13:07:06.764Z</time></trkpt><trkpt lat="42.8712333" lon="13.4527217"><ele>361.0</ele><time>2026-04-04T13:07:07.764Z</time></trkpt><trkpt lat="42.87127" lon="13.4526067"><ele>361.0</ele><time>2026-04-04T13:07:08.764Z</time></trkpt><trkpt lat="42.871265" lon="13.4524917"><ele>361.0</ele><time>2026-04-04T13:07:09.765Z</time></trkpt><trkpt lat="42.8712483" lon="13.4523767"><ele>361.0</ele><time>2026-04-04T13:07:10.764Z</time></trkpt><trkpt lat="42.8711883" lon="13.4522833"><ele>361.0</ele><time>2026-04-04T13:07:11.764Z</time></trkpt><trkpt lat="42.871055" lon="13.452265"><ele>361.0</ele><time>2026-04-04T13:07:12.764Z</time></trkpt><trkpt lat="42.8709283" lon="13.4522383"><ele>358.20000000000005</ele><time>2026-04-04T13:07:13.765Z</time></trkpt><trkpt lat="42.8708067" lon="13.4522367"><ele>355.40000000000003</ele><time>2026-04-04T13:07:14.765Z</time></trkpt><trkpt lat="42.8706933" lon="13.4522367"><ele>352.6</ele><time>2026-04-04T13:07:15.764Z</time></trkpt><trkpt lat="42.8706133" lon="13.4522083"><ele>349.8</ele><time>2026-04-04T13:07:16.765Z</time></trkpt><trkpt lat="42.8705417" lon="13.45214"><ele>347.0</ele><time>2026-04-04T13:07:17.765Z</time></trkpt><trkpt lat="42.870475" lon="13.4520533"><ele>347.0</ele><time>2026-04-04T13:07:18.764Z</time></trkpt><trkpt lat="42.8704167" lon="13.4519433"><ele>347.0</ele><time>2026-04-04T13:07:19.764Z</time></trkpt><trkpt lat="42.8703683" lon="13.451815"><ele>347.0</ele><time>2026-04-04T13:07:20.764Z</time></trkpt><trkpt lat="42.8703167" lon="13.4516667"><ele>347.0</ele><time>2026-04-04T13:07:21.765Z</time></trkpt><trkpt lat="42.870265" lon="13.45151"><ele>347.0</ele><time>2026-04-04T13:07:22.764Z</time></trkpt><trkpt lat="42.8702133" lon="13.4513367"><ele>347.0</ele><time>2026-04-04T13:07:23.764Z</time></trkpt><trkpt lat="42.87016" lon="13.4511567"><ele>347.0</ele><time>2026-04-04T13:07:24.764Z</time></trkpt><trkpt lat="42.8701067" lon="13.45097"><ele>347.0</ele><time>2026-04-04T13:07:25.765Z</time></trkpt><trkpt lat="42.8700533" lon="13.4507917"><ele>347.75</ele><time>2026-04-04T13:07:26.764Z</time></trkpt><trkpt lat="42.8699967" lon="13.45062"><ele>348.5</ele><time>2026-04-04T13:07:27.764Z</time></trkpt><trkpt lat="42.8699283" lon="13.450465"><ele>349.25</ele><time>2026-04-04T13:07:28.764Z</time></trkpt><trkpt lat="42.869855" lon="13.4503133"><ele>350.0</ele><time>2026-04-04T13:07:29.764Z</time></trkpt><trkpt lat="42.869775" lon="13.450155"><ele>350.0</ele><time>2026-04-04T13:07:30.764Z</time></trkpt><trkpt lat="42.8696933" lon="13.4500133"><ele>350.0</ele><time>2026-04-04T13:07:31.764Z</time></trkpt><trkpt lat="42.8696167" lon="13.4498733"><ele>350.0</ele><time>2026-04-04T13:07:32.765Z</time></trkpt><trkpt lat="42.8695367" lon="13.44973"><ele>350.0</ele><time>2026-04-04T13:07:33.764Z</time></trkpt><trkpt lat="42.8694617" lon="13.4495883"><ele>350.75</ele><time>2026-04-04T13:07:34.765Z</time></trkpt><trkpt lat="42.8693917" lon="13.4494517"><ele>351.5</ele><time>2026-04-04T13:07:35.764Z</time></trkpt><trkpt lat="42.8693217" lon="13.4493183"><ele>352.25</ele><time>2026-04-04T13:07:36.764Z</time></trkpt><trkpt lat="42.86925" lon="13.449195"><ele>353.0</ele><time>2026-04-04T13:07:37.764Z</time></trkpt><trkpt lat="42.86919" lon="13.4490867"><ele>353.0</ele><time>2026-04-04T13:07:38.764Z</time></trkpt><trkpt lat="42.8691333" lon="13.44899"><ele>353.0</ele><time>2026-04-04T13:07:39.764Z</time></trkpt><trkpt lat="42.8690817" lon="13.448905"><ele>353.0</ele><time>2026-04-04T13:07:40.764Z</time></trkpt><trkpt lat="42.8690317" lon="13.4488217"><ele>353.0</ele><time>2026-04-04T13:07:41.764Z</time></trkpt><trkpt lat="42.868975" lon="13.4487483"><ele>353.0</ele><time>2026-04-04T13:07:42.764Z</time></trkpt><trkpt lat="42.8689067" lon="13.448675"><ele>353.0</ele><time>2026-04-04T13:07:43.764Z</time></trkpt><trkpt lat="42.8688383" lon="13.4486117"><ele>354.1666666666667</ele><time>2026-04-04T13:07:44.764Z</time></trkpt><trkpt lat="42.8687633" lon="13.4485783"><ele>355.33333333333337</ele><time>2026-04-04T13:07:45.765Z</time></trkpt><trkpt lat="42.8686833" lon="13.4485567"><ele>356.5</ele><time>2026-04-04T13:07:46.764Z</time></trkpt><trkpt lat="42.8686" lon="13.4485333"><ele>357.6666666666667</ele><time>2026-04-04T13:07:47.765Z</time></trkpt><trkpt lat="42.8685283" lon="13.4484717"><ele>358.8333333333333</ele><time>2026-04-04T13:07:48.764Z</time></trkpt><trkpt lat="42.8684717" lon="13.4483767"><ele>360.0</ele><time>2026-04-04T13:07:49.764Z</time></trkpt><trkpt lat="42.868445" lon="13.448235"><ele>359.75</ele><time>2026-04-04T13:07:50.764Z</time></trkpt><trkpt lat="42.868425" lon="13.4480617"><ele>359.5</ele><time>2026-04-04T13:07:51.764Z</time></trkpt><trkpt lat="42.8684017" lon="13.4478817"><ele>359.25</ele><time>2026-04-04T13:07:52.764Z</time></trkpt><trkpt lat="42.8683783" lon="13.4476917"><ele>359.0</ele><time>2026-04-04T13:07:53.765Z</time></trkpt><trkpt lat="42.8683417" lon="13.4474817"><ele>359.0</ele><time>2026-04-04T13:07:54.765Z</time></trkpt><trkpt lat="42.868315" lon="13.4472783"><ele>359.0</ele><time>2026-04-04T13:07:55.764Z</time></trkpt><trkpt lat="42.8682933" lon="13.447075"><ele>359.0</ele><time>2026-04-04T13:07:56.764Z</time></trkpt><trkpt lat="42.8682817" lon="13.44688"><ele>359.0</ele><time>2026-04-04T13:07:57.764Z</time></trkpt><trkpt lat="42.8682817" lon="13.4466817"><ele>358.25</ele><time>2026-04-04T13:07:58.764Z</time></trkpt><trkpt lat="42.868295" lon="13.4464933"><ele>357.5</ele><time>2026-04-04T13:07:59.764Z</time></trkpt><trkpt lat="42.8683267" lon="13.44631"><ele>356.75</ele><time>2026-04-04T13:08:00.764Z</time></trkpt><trkpt lat="42.8683817" lon="13.4461233"><ele>356.0</ele><time>2026-04-04T13:08:01.764Z</time></trkpt><trkpt lat="42.868435" lon="13.4459483"><ele>356.75</ele><time>2026-04-04T13:08:02.764Z</time></trkpt><trkpt lat="42.8684917" lon="13.4457833"><ele>357.5</ele><time>2026-04-04T13:08:03.765Z</time></trkpt><trkpt lat="42.8685317" lon="13.4455883"><ele>358.25</ele><time>2026-04-04T13:08:04.764Z</time></trkpt><trkpt lat="42.8685817" lon="13.44539"><ele>359.0</ele><time>2026-04-04T13:08:05.764Z</time></trkpt><trkpt lat="42.8686433" lon="13.4451917"><ele>359.0</ele><time>2026-04-04T13:08:06.764Z</time></trkpt><trkpt lat="42.8687033" lon="13.4449917"><ele>359.0</ele><time>2026-04-04T13:08:07.765Z</time></trkpt><trkpt lat="42.868765" lon="13.4447933"><ele>359.0</ele><time>2026-04-04T13:08:08.764Z</time></trkpt><trkpt lat="42.8688233" lon="13.444605"><ele>358.25</ele><time>2026-04-04T13:08:09.764Z</time></trkpt><trkpt lat="42.8688733" lon="13.4444233"><ele>357.5</ele><time>2026-04-04T13:08:10.765Z</time></trkpt><trkpt lat="42.86892" lon="13.44424"><ele>356.75</ele><time>2026-04-04T13:08:11.764Z</time></trkpt><trkpt lat="42.8689633" lon="13.444055"><ele>356.0</ele><time>2026-04-04T13:08:12.765Z</time></trkpt><trkpt lat="42.8689983" lon="13.4438783"><ele>356.5</ele><time>2026-04-04T13:08:13.764Z</time></trkpt><trkpt lat="42.8690217" lon="13.44369"><ele>357.0</ele><time>2026-04-04T13:08:14.764Z</time></trkpt><trkpt lat="42.8690233" lon="13.4435033"><ele>357.5</ele><time>2026-04-04T13:08:15.764Z</time></trkpt><trkpt lat="42.8690267" lon="13.4433117"><ele>358.0</ele><time>2026-04-04T13:08:16.764Z</time></trkpt><trkpt lat="42.8690317" lon="13.4431267"><ele>359.75</ele><time>2026-04-04T13:08:17.764Z</time></trkpt><trkpt lat="42.8690217" lon="13.4429333"><ele>361.5</ele><time>2026-04-04T13:08:18.764Z</time></trkpt><trkpt lat="42.86899" lon="13.4427533"><ele>363.25</ele><time>2026-04-04T13:08:19.764Z</time></trkpt><trkpt lat="42.868945" lon="13.4425667"><ele>365.0</ele><time>2026-04-04T13:08:20.764Z</time></trkpt><trkpt lat="42.8689067" lon="13.44238"><ele>365.0</ele><time>2026-04-04T13:08:21.764Z</time></trkpt><trkpt lat="42.868855" lon="13.442195"><ele>365.0</ele><time>2026-04-04T13:08:22.765Z</time></trkpt><trkpt lat="42.8688083" lon="13.441995"><ele>365.0</ele><time>2026-04-04T13:08:23.764Z</time></trkpt><trkpt lat="42.8687567" lon="13.441805"><ele>365.0</ele><time>2026-04-04T13:08:24.764Z</time></trkpt><trkpt lat="42.86871" lon="13.4416117"><ele>368.6666666666667</ele><time>2026-04-04T13:08:25.765Z</time></trkpt><trkpt lat="42.8686583" lon="13.441415"><ele>372.3333333333333</ele><time>2026-04-04T13:08:26.764Z</time></trkpt><trkpt lat="42.8686133" lon="13.4412283"><ele>376.0</ele><time>2026-04-04T13:08:27.764Z</time></trkpt><trkpt lat="42.8685567" lon="13.4410317"><ele>377.66666666666663</ele><time>2026-04-04T13:08:28.765Z</time></trkpt><trkpt lat="42.8685" lon="13.4408317"><ele>379.3333333333333</ele><time>2026-04-04T13:08:29.764Z</time></trkpt><trkpt lat="42.86846" lon="13.44063"><ele>381.0</ele><time>2026-04-04T13:08:30.764Z</time></trkpt><trkpt lat="42.86841" lon="13.4404283"><ele>375.0</ele><time>2026-04-04T13:08:31.765Z</time></trkpt><trkpt lat="42.8683617" lon="13.4402483"><ele>369.0</ele><time>2026-04-04T13:08:32.764Z</time></trkpt><trkpt lat="42.8683183" lon="13.4400767"><ele>363.0</ele><time>2026-04-04T13:08:33.764Z</time></trkpt><trkpt lat="42.8682783" lon="13.4399267"><ele>357.0</ele><time>2026-04-04T13:08:34.765Z</time></trkpt><trkpt lat="42.8682517" lon="13.4397783"><ele>357.0</ele><time>2026-04-04T13:08:35.764Z</time></trkpt><trkpt lat="42.86822" lon="13.4396567"><ele>357.0</ele><time>2026-04-04T13:08:36.764Z</time></trkpt><trkpt lat="42.868185" lon="13.43955"><ele>357.0</ele><time>2026-04-04T13:08:37.765Z</time></trkpt><trkpt lat="42.868155" lon="13.4394417"><ele>357.0</ele><time>2026-04-04T13:08:38.764Z</time></trkpt><trkpt lat="42.8681217" lon="13.4393283"><ele>357.0</ele><time>2026-04-04T13:08:39.764Z</time></trkpt><trkpt lat="42.8680867" lon="13.4392117"><ele>357.0</ele><time>2026-04-04T13:08:40.765Z</time></trkpt><trkpt lat="42.86805" lon="13.4390983"><ele>356.6666666666667</ele><time>2026-04-04T13:08:41.764Z</time></trkpt><trkpt lat="42.8680267" lon="13.4390133"><ele>356.3333333333333</ele><time>2026-04-04T13:08:42.764Z</time></trkpt><trkpt lat="42.8679567" lon="13.4389833"><ele>356.0</ele><time>2026-04-04T13:08:44.764Z</time></trkpt><trkpt lat="42.86787" lon="13.4390517"><ele>355.66666666666663</ele><time>2026-04-04T13:08:46.764Z</time></trkpt><trkpt lat="42.8677733" lon="13.439075"><ele>355.3333333333333</ele><time>2026-04-04T13:09:05.765Z</time></trkpt><trkpt lat="42.8676867" lon="13.439095"><ele>355.0</ele><time>2026-04-04T13:09:07.764Z</time></trkpt><trkpt lat="42.8675683" lon="13.43907"><ele>355.0</ele><time>2026-04-04T13:09:09.764Z</time></trkpt><trkpt lat="42.8675133" lon="13.4390217"><ele>355.0</ele><time>2026-04-04T13:09:10.765Z</time></trkpt><trkpt lat="42.8674467" lon="13.4389733"><ele>355.0</ele><time>2026-04-04T13:09:11.764Z</time></trkpt><trkpt lat="42.8673817" lon="13.43893"><ele>355.0</ele><time>2026-04-04T13:09:12.765Z</time></trkpt><trkpt lat="42.8673283" lon="13.43886"><ele>355.0</ele><time>2026-04-04T13:09:13.764Z</time></trkpt><trkpt lat="42.8672983" lon="13.4387733"><ele>355.0</ele><time>2026-04-04T13:09:14.764Z</time></trkpt><trkpt lat="42.8672667" lon="13.4386767"><ele>355.0</ele><time>2026-04-04T13:09:15.765Z</time></trkpt><trkpt lat="42.8672283" lon="13.4385817"><ele>354.8</ele><time>2026-04-04T13:09:16.765Z</time></trkpt><trkpt lat="42.8671783" lon="13.4385133"><ele>354.6</ele><time>2026-04-04T13:09:17.765Z</time></trkpt><trkpt lat="42.8671117" lon="13.4384583"><ele>354.4</ele><time>2026-04-04T13:09:18.765Z</time></trkpt><trkpt lat="42.8670383" lon="13.438425"><ele>354.2</ele><time>2026-04-04T13:09:19.764Z</time></trkpt><trkpt lat="42.8669183" lon="13.43841"><ele>354.0</ele><time>2026-04-04T13:09:21.764Z</time></trkpt><trkpt lat="42.8668167" lon="13.4385083"><ele>355.6666666666667</ele><time>2026-04-04T13:09:23.764Z</time></trkpt><trkpt lat="42.8667733" lon="13.4385883"><ele>357.3333333333333</ele><time>2026-04-04T13:09:24.764Z</time></trkpt><trkpt lat="42.8667367" lon="13.4386817"><ele>359.0</ele><time>2026-04-04T13:09:25.765Z</time></trkpt><trkpt lat="42.8666967" lon="13.4387783"><ele>360.66666666666663</ele><time>2026-04-04T13:09:26.765Z</time></trkpt><trkpt lat="42.8666567" lon="13.43887"><ele>362.3333333333333</ele><time>2026-04-04T13:09:27.764Z</time></trkpt><trkpt lat="42.86663" lon="13.4389533"><ele>364.0</ele><time>2026-04-04T13:09:28.765Z</time></trkpt><trkpt lat="42.8666" lon="13.4390467"><ele>364.8333333333333</ele><time>2026-04-04T13:09:29.764Z</time></trkpt><trkpt lat="42.86656" lon="13.43913"><ele>365.66666666666663</ele><time>2026-04-04T13:09:30.764Z</time></trkpt><trkpt lat="42.866515" lon="13.4391933"><ele>366.5</ele><time>2026-04-04T13:09:31.765Z</time></trkpt><trkpt lat="42.8664483" lon="13.4392317"><ele>367.3333333333333</ele><time>2026-04-04T13:09:32.765Z</time></trkpt><trkpt lat="42.8663667" lon="13.4392633"><ele>368.1666666666667</ele><time>2026-04-04T13:09:33.764Z</time></trkpt><trkpt lat="42.8662833" lon="13.4393033"><ele>369.0</ele><time>2026-04-04T13:09:34.764Z</time></trkpt><trkpt lat="42.8661867" lon="13.4393583"><ele>369.0</ele><time>2026-04-04T13:09:35.765Z</time></trkpt><trkpt lat="42.866085" lon="13.4394317"><ele>369.0</ele><time>2026-04-04T13:09:36.764Z</time></trkpt><trkpt lat="42.865995" lon="13.439505"><ele>369.0</ele><time>2026-04-04T13:09:37.764Z</time></trkpt><trkpt lat="42.8659133" lon="13.4395833"><ele>369.0</ele><time>2026-04-04T13:09:38.764Z</time></trkpt><trkpt lat="42.8658317" lon="13.43964"><ele>369.0</ele><time>2026-04-04T13:09:39.764Z</time></trkpt><trkpt lat="42.8657533" lon="13.4396883"><ele>373.2</ele><time>2026-04-04T13:09:40.764Z</time></trkpt><trkpt lat="42.8656733" lon="13.4397267"><ele>377.4</ele><time>2026-04-04T13:09:41.764Z</time></trkpt><trkpt lat="42.865585" lon="13.43976"><ele>381.6</ele><time>2026-04-04T13:09:42.764Z</time></trkpt><trkpt lat="42.86549" lon="13.4397867"><ele>385.8</ele><time>2026-04-04T13:09:43.764Z</time></trkpt><trkpt lat="42.8654" lon="13.4398067"><ele>390.0</ele><time>2026-04-04T13:09:44.764Z</time></trkpt><trkpt lat="42.865305" lon="13.4398433"><ele>390.0</ele><time>2026-04-04T13:09:45.764Z</time></trkpt><trkpt lat="42.8652067" lon="13.4398917"><ele>390.0</ele><time>2026-04-04T13:09:46.764Z</time></trkpt><trkpt lat="42.86511" lon="13.4399417"><ele>390.0</ele><time>2026-04-04T13:09:47.764Z</time></trkpt><trkpt lat="42.8650167" lon="13.4399833"><ele>390.0</ele><time>2026-04-04T13:09:48.764Z</time></trkpt><trkpt lat="42.864925" lon="13.4399933"><ele>390.0</ele><time>2026-04-04T13:09:49.764Z</time></trkpt><trkpt lat="42.864825" lon="13.4400017"><ele>393.0</ele><time>2026-04-04T13:09:50.764Z</time></trkpt><trkpt lat="42.864715" lon="13.4400017"><ele>396.0</ele><time>2026-04-04T13:09:51.765Z</time></trkpt><trkpt lat="42.8646133" lon="13.4400083"><ele>399.0</ele><time>2026-04-04T13:09:52.765Z</time></trkpt><trkpt lat="42.8645183" lon="13.4400183"><ele>402.0</ele><time>2026-04-04T13:09:53.764Z</time></trkpt><trkpt lat="42.8644183" lon="13.4400267"><ele>405.0</ele><time>2026-04-04T13:09:54.764Z</time></trkpt><trkpt lat="42.8643233" lon="13.4400283"><ele>407.2</ele><time>2026-04-04T13:09:55.764Z</time></trkpt><trkpt lat="42.86423" lon="13.440005"><ele>409.4</ele><time>2026-04-04T13:09:56.765Z</time></trkpt><trkpt lat="42.864125" lon="13.439995"><ele>411.6</ele><time>2026-04-04T13:09:57.765Z</time></trkpt><trkpt lat="42.8640233" lon="13.4400033"><ele>413.8</ele><time>2026-04-04T13:09:58.764Z</time></trkpt><trkpt lat="42.863915" lon="13.4400417"><ele>416.0</ele><time>2026-04-04T13:09:59.765Z</time></trkpt><trkpt lat="42.8637933" lon="13.44006"><ele>416.0</ele><time>2026-04-04T13:10:00.764Z</time></trkpt><trkpt lat="42.8636783" lon="13.4400617"><ele>416.0</ele><time>2026-04-04T13:10:01.764Z</time></trkpt><trkpt lat="42.86359" lon="13.440055"><ele>416.0</ele><time>2026-04-04T13:10:02.764Z</time></trkpt><trkpt lat="42.8634983" lon="13.44008"><ele>416.0</ele><time>2026-04-04T13:10:03.765Z</time></trkpt><trkpt lat="42.8634133" lon="13.44013"><ele>416.0</ele><time>2026-04-04T13:10:04.765Z</time></trkpt><trkpt lat="42.8633283" lon="13.4401967"><ele>416.99999999999994</ele><time>2026-04-04T13:10:05.765Z</time></trkpt><trkpt lat="42.863245" lon="13.4402733"><ele>418.0</ele><time>2026-04-04T13:10:06.765Z</time></trkpt><trkpt lat="42.8631667" lon="13.4403433"><ele>419.0</ele><time>2026-04-04T13:10:07.764Z</time></trkpt><trkpt lat="42.8630983" lon="13.4404133"><ele>420.0</ele><time>2026-04-04T13:10:08.765Z</time></trkpt><trkpt lat="42.86303" lon="13.440455"><ele>420.99999999999994</ele><time>2026-04-04T13:10:09.764Z</time></trkpt><trkpt lat="42.8629483" lon="13.4404817"><ele>422.0</ele><time>2026-04-04T13:10:10.764Z</time></trkpt><trkpt lat="42.8628683" lon="13.4404867"><ele>422.0</ele><time>2026-04-04T13:10:11.764Z</time></trkpt><trkpt lat="42.8627867" lon="13.4405033"><ele>422.0</ele><time>2026-04-04T13:10:12.765Z</time></trkpt><trkpt lat="42.86271" lon="13.4405267"><ele>422.0</ele><time>2026-04-04T13:10:13.764Z</time></trkpt><trkpt lat="42.86263" lon="13.4405783"><ele>422.0</ele><time>2026-04-04T13:10:14.765Z</time></trkpt><trkpt lat="42.86255" lon="13.4406667"><ele>422.0</ele><time>2026-04-04T13:10:15.764Z</time></trkpt><trkpt lat="42.8624633" lon="13.4407383"><ele>424.16666666666663</ele><time>2026-04-04T13:10:16.764Z</time></trkpt><trkpt lat="42.8623767" lon="13.4407917"><ele>426.3333333333333</ele><time>2026-04-04T13:10:17.764Z</time></trkpt><trkpt lat="42.8623" lon="13.44081"><ele>428.5</ele><time>2026-04-04T13:10:18.765Z</time></trkpt><trkpt lat="42.8622283" lon="13.4407917"><ele>430.66666666666663</ele><time>2026-04-04T13:10:19.764Z</time></trkpt><trkpt lat="42.8621517" lon="13.4406733"><ele>432.8333333333333</ele><time>2026-04-04T13:10:21.764Z</time></trkpt><trkpt lat="42.8621517" lon="13.440585"><ele>435.0</ele><time>2026-04-04T13:10:22.764Z</time></trkpt><trkpt lat="42.8621767" lon="13.4404833"><ele>438.3333333333333</ele><time>2026-04-04T13:10:23.765Z</time></trkpt><trkpt lat="42.8622283" lon="13.440385"><ele>441.66666666666663</ele><time>2026-04-04T13:10:24.764Z</time></trkpt><trkpt lat="42.8622817" lon="13.4403167"><ele>445.0</ele><time>2026-04-04T13:10:25.764Z</time></trkpt><trkpt lat="42.8623333" lon="13.44026"><ele>448.3333333333333</ele><time>2026-04-04T13:10:26.764Z</time></trkpt><trkpt lat="42.8623717" lon="13.4401617"><ele>451.66666666666663</ele><time>2026-04-04T13:10:28.765Z</time></trkpt><trkpt lat="42.86232" lon="13.440105"><ele>455.0</ele><time>2026-04-04T13:10:30.764Z</time></trkpt><trkpt lat="42.8622067" lon="13.440125"><ele>455.0</ele><time>2026-04-04T13:10:32.764Z</time></trkpt><trkpt lat="42.8621183" lon="13.44014"><ele>455.0</ele><time>2026-04-04T13:10:33.765Z</time></trkpt><trkpt lat="42.8620167" lon="13.44016"><ele>455.0</ele><time>2026-04-04T13:10:34.764Z</time></trkpt><trkpt lat="42.8619067" lon="13.44018"><ele>455.0</ele><time>2026-04-04T13:10:35.763Z</time></trkpt><trkpt lat="42.8617817" lon="13.440235"><ele>455.0</ele><time>2026-04-04T13:10:36.763Z</time></trkpt><trkpt lat="42.8616783" lon="13.4402933"><ele>458.8</ele><time>2026-04-04T13:10:37.763Z</time></trkpt><trkpt lat="42.861575" lon="13.44033"><ele>462.6</ele><time>2026-04-04T13:10:38.763Z</time></trkpt><trkpt lat="42.86147" lon="13.4403483"><ele>466.4</ele><time>2026-04-04T13:10:39.764Z</time></trkpt><trkpt lat="42.8613733" lon="13.4403683"><ele>470.2</ele><time>2026-04-04T13:10:40.764Z</time></trkpt><trkpt lat="42.8612767" lon="13.440385"><ele>474.0</ele><time>2026-04-04T13:10:41.763Z</time></trkpt><trkpt lat="42.8611833" lon="13.4403883"><ele>474.0</ele><time>2026-04-04T13:10:42.763Z</time></trkpt><trkpt lat="42.86108" lon="13.4404033"><ele>474.0</ele><time>2026-04-04T13:10:43.763Z</time></trkpt><trkpt lat="42.8609783" lon="13.44043"><ele>474.0</ele><time>2026-04-04T13:10:44.763Z</time></trkpt><trkpt lat="42.860865" lon="13.4404717"><ele>474.0</ele><time>2026-04-04T13:10:45.764Z</time></trkpt><trkpt lat="42.860755" lon="13.440495"><ele>474.0</ele><time>2026-04-04T13:10:46.763Z</time></trkpt><trkpt lat="42.860645" lon="13.4405"><ele>472.0</ele><time>2026-04-04T13:10:47.764Z</time></trkpt><trkpt lat="42.8605383" lon="13.4404983"><ele>470.0</ele><time>2026-04-04T13:10:48.763Z</time></trkpt><trkpt lat="42.86044" lon="13.440495"><ele>468.0</ele><time>2026-04-04T13:10:49.763Z</time></trkpt><trkpt lat="42.8603367" lon="13.4405033"><ele>466.0</ele><time>2026-04-04T13:10:50.763Z</time></trkpt><trkpt lat="42.8602333" lon="13.440525"><ele>464.0</ele><time>2026-04-04T13:10:51.763Z</time></trkpt><trkpt lat="42.8601333" lon="13.4405417"><ele>466.4</ele><time>2026-04-04T13:10:52.764Z</time></trkpt><trkpt lat="42.8600267" lon="13.4405517"><ele>468.79999999999995</ele><time>2026-04-04T13:10:53.764Z</time></trkpt><trkpt lat="42.8599283" lon="13.440565"><ele>471.20000000000005</ele><time>2026-04-04T13:10:54.763Z</time></trkpt><trkpt lat="42.8598417" lon="13.4405767"><ele>473.6</ele><time>2026-04-04T13:10:55.764Z</time></trkpt><trkpt lat="42.8597133" lon="13.4405917"><ele>476.0</ele><time>2026-04-04T13:10:57.764Z</time></trkpt><trkpt lat="42.8596567" lon="13.4405367"><ele>481.20000000000005</ele><time>2026-04-04T13:10:59.763Z</time></trkpt><trkpt lat="42.85974" lon="13.440445"><ele>486.40000000000003</ele><time>2026-04-04T13:11:01.763Z</time></trkpt><trkpt lat="42.859805" lon="13.4404"><ele>491.6</ele><time>2026-04-04T13:11:02.763Z</time></trkpt><trkpt lat="42.8598833" lon="13.4403467"><ele>496.8</ele><time>2026-04-04T13:11:03.763Z</time></trkpt><trkpt lat="42.85998" lon="13.440285"><ele>502.0</ele><time>2026-04-04T13:11:04.763Z</time></trkpt><trkpt lat="42.8600817" lon="13.4402083"><ele>499.20000000000005</ele><time>2026-04-04T13:11:05.763Z</time></trkpt><trkpt lat="42.860165" lon="13.4401283"><ele>496.40000000000003</ele><time>2026-04-04T13:11:06.763Z</time></trkpt><trkpt lat="42.8602533" lon="13.44003"><ele>493.59999999999997</ele><time>2026-04-04T13:11:07.763Z</time></trkpt><trkpt lat="42.8603383" lon="13.4399333"><ele>490.79999999999995</ele><time>2026-04-04T13:11:08.764Z</time></trkpt><trkpt lat="42.8604333" lon="13.439845"><ele>488.0</ele><time>2026-04-04T13:11:09.764Z</time></trkpt><trkpt lat="42.8605383" lon="13.4397517"><ele>488.0</ele><time>2026-04-04T13:11:10.764Z</time></trkpt><trkpt lat="42.8606383" lon="13.4396667"><ele>487.99999999999994</ele><time>2026-04-04T13:11:11.764Z</time></trkpt><trkpt lat="42.860735" lon="13.439595"><ele>487.99999999999994</ele><time>2026-04-04T13:11:12.763Z</time></trkpt><trkpt lat="42.8608367" lon="13.439555"><ele>488.0</ele><time>2026-04-04T13:11:13.763Z</time></trkpt><trkpt lat="42.860945" lon="13.4395117"><ele>488.0</ele><time>2026-04-04T13:11:14.764Z</time></trkpt><trkpt lat="42.8610533" lon="13.43947"><ele>491.0</ele><time>2026-04-04T13:11:15.764Z</time></trkpt><trkpt lat="42.8611617" lon="13.4394333"><ele>494.0</ele><time>2026-04-04T13:11:16.764Z</time></trkpt><trkpt lat="42.8612717" lon="13.4394017"><ele>497.0</ele><time>2026-04-04T13:11:17.763Z</time></trkpt><trkpt lat="42.8613883" lon="13.43937"><ele>500.0</ele><time>2026-04-04T13:11:18.763Z</time></trkpt><trkpt lat="42.8614967" lon="13.4393333"><ele>500.0</ele><time>2026-04-04T13:11:19.764Z</time></trkpt><trkpt lat="42.8616067" lon="13.4392733"><ele>500.0</ele><time>2026-04-04T13:11:20.763Z</time></trkpt><trkpt lat="42.861715" lon="13.4392183"><ele>500.0</ele><time>2026-04-04T13:11:21.764Z</time></trkpt><trkpt lat="42.8618133" lon="13.4391767"><ele>500.0</ele><time>2026-04-04T13:11:22.763Z</time></trkpt><trkpt lat="42.8618983" lon="13.4391333"><ele>500.0</ele><time>2026-04-04T13:11:23.763Z</time></trkpt><trkpt lat="42.8619633" lon="13.4390533"><ele>501.4</ele><time>2026-04-04T13:11:24.764Z</time></trkpt><trkpt lat="42.8620017" lon="13.4389617"><ele>502.8</ele><time>2026-04-04T13:11:25.763Z</time></trkpt><trkpt lat="42.8620267" lon="13.4388533"><ele>504.20000000000005</ele><time>2026-04-04T13:11:26.764Z</time></trkpt><trkpt lat="42.862035" lon="13.438725"><ele>505.6</ele><time>2026-04-04T13:11:27.763Z</time></trkpt><trkpt lat="42.8620483" lon="13.438595"><ele>507.0</ele><time>2026-04-04T13:11:28.763Z</time></trkpt><trkpt lat="42.8620733" lon="13.4384517"><ele>507.0</ele><time>2026-04-04T13:11:29.763Z</time></trkpt><trkpt lat="42.862105" lon="13.4383333"><ele>507.00000000000006</ele><time>2026-04-04T13:11:30.763Z</time></trkpt><trkpt lat="42.8621533" lon="13.4382183"><ele>507.00000000000006</ele><time>2026-04-04T13:11:31.763Z</time></trkpt><trkpt lat="42.8622033" lon="13.4381167"><ele>507.0</ele><time>2026-04-04T13:11:32.763Z</time></trkpt><trkpt lat="42.8622583" lon="13.4380233"><ele>507.0</ele><time>2026-04-04T13:11:33.763Z</time></trkpt><trkpt lat="42.86232" lon="13.4379417"><ele>509.8</ele><time>2026-04-04T13:11:34.763Z</time></trkpt><trkpt lat="42.8624" lon="13.43787"><ele>512.6</ele><time>2026-04-04T13:11:35.763Z</time></trkpt><trkpt lat="42.8624933" lon="13.4377917"><ele>515.4000000000001</ele><time>2026-04-04T13:11:36.763Z</time></trkpt><trkpt lat="42.8625967" lon="13.4377167"><ele>518.2</ele><time>2026-04-04T13:11:37.764Z</time></trkpt><trkpt lat="42.8627117" lon="13.43768"><ele>521.0</ele><time>2026-04-04T13:11:38.763Z</time></trkpt><trkpt lat="42.8628267" lon="13.4376633"><ele>521.0</ele><time>2026-04-04T13:11:39.763Z</time></trkpt><trkpt lat="42.8629467" lon="13.4376567"><ele>521.0</ele><time>2026-04-04T13:11:40.763Z</time></trkpt><trkpt lat="42.8630667" lon="13.4376617"><ele>521.0</ele><time>2026-04-04T13:11:41.764Z</time></trkpt><trkpt lat="42.8631917" lon="13.4376483"><ele>521.0</ele><time>2026-04-04T13:11:42.764Z</time></trkpt><trkpt lat="42.863305" lon="13.4376383"><ele>521.0</ele><time>2026-04-04T13:11:43.763Z</time></trkpt><trkpt lat="42.863405" lon="13.4376117"><ele>521.0</ele><time>2026-04-04T13:11:44.764Z</time></trkpt><trkpt lat="42.8634783" lon="13.43757"><ele>521.0</ele><time>2026-04-04T13:11:45.764Z</time></trkpt><trkpt lat="42.8635333" lon="13.4375067"><ele>521.0</ele><time>2026-04-04T13:11:46.764Z</time></trkpt><trkpt lat="42.8635633" lon="13.4374283"><ele>521.0</ele><time>2026-04-04T13:11:47.763Z</time></trkpt><trkpt lat="42.8635417" lon="13.4373"><ele>521.0</ele><time>2026-04-04T13:11:49.763Z</time></trkpt><trkpt lat="42.86347" lon="13.4373217"><ele>521.0</ele><time>2026-04-04T13:11:50.763Z</time></trkpt><trkpt lat="42.8634033" lon="13.4373683"><ele>521.0</ele><time>2026-04-04T13:11:51.764Z</time></trkpt><trkpt lat="42.8633367" lon="13.4374067"><ele>521.0</ele><time>2026-04-04T13:11:52.763Z</time></trkpt><trkpt lat="42.863265" lon="13.4374283"><ele>521.0</ele><time>2026-04-04T13:11:53.764Z</time></trkpt><trkpt lat="42.8631867" lon="13.4374183"><ele>521.0</ele><time>2026-04-04T13:11:54.763Z</time></trkpt><trkpt lat="42.8630917" lon="13.437385"><ele>521.0</ele><time>2026-04-04T13:11:55.763Z</time></trkpt><trkpt lat="42.8629883" lon="13.4373383"><ele>521.0</ele><time>2026-04-04T13:11:56.763Z</time></trkpt><trkpt lat="42.8628833" lon="13.4372917"><ele>521.0</ele><time>2026-04-04T13:11:57.763Z</time></trkpt><trkpt lat="42.86279" lon="13.4372383"><ele>521.0</ele><time>2026-04-04T13:11:58.764Z</time></trkpt><trkpt lat="42.8626917" lon="13.4371833"><ele>521.0</ele><time>2026-04-04T13:11:59.764Z</time></trkpt><trkpt lat="42.8626133" lon="13.4371483"><ele>521.0</ele><time>2026-04-04T13:12:00.763Z</time></trkpt><trkpt lat="42.862535" lon="13.4371383"><ele>523.5</ele><time>2026-04-04T13:12:01.764Z</time></trkpt><trkpt lat="42.8624517" lon="13.4371567"><ele>526.0</ele><time>2026-04-04T13:12:02.763Z</time></trkpt><trkpt lat="42.8623767" lon="13.4372067"><ele>528.5</ele><time>2026-04-04T13:12:03.763Z</time></trkpt><trkpt lat="42.8623167" lon="13.4372767"><ele>531.0</ele><time>2026-04-04T13:12:04.764Z</time></trkpt><trkpt lat="42.8622717" lon="13.43736"><ele>533.5</ele><time>2026-04-04T13:12:05.764Z</time></trkpt><trkpt lat="42.8622167" lon="13.4374117"><ele>536.0</ele><time>2026-04-04T13:12:06.763Z</time></trkpt><trkpt lat="42.8620817" lon="13.4374367"><ele>536.0</ele><time>2026-04-04T13:12:08.764Z</time></trkpt><trkpt lat="42.8620017" lon="13.43743"><ele>536.0</ele><time>2026-04-04T13:12:09.763Z</time></trkpt><trkpt lat="42.861925" lon="13.4374217"><ele>536.0</ele><time>2026-04-04T13:12:10.763Z</time></trkpt><trkpt lat="42.8618433" lon="13.4374167"><ele>536.0</ele><time>2026-04-04T13:12:11.764Z</time></trkpt><trkpt lat="42.861755" lon="13.4374167"><ele>536.0</ele><time>2026-04-04T13:12:12.764Z</time></trkpt><trkpt lat="42.8616567" lon="13.4374217"><ele>536.0</ele><time>2026-04-04T13:12:13.764Z</time></trkpt><trkpt lat="42.86155" lon="13.4374383"><ele>538.6</ele><time>2026-04-04T13:12:14.764Z</time></trkpt><trkpt lat="42.86145" lon="13.437445"><ele>541.2</ele><time>2026-04-04T13:12:15.763Z</time></trkpt><trkpt lat="42.8613567" lon="13.43745"><ele>543.8</ele><time>2026-04-04T13:12:16.763Z</time></trkpt><trkpt lat="42.8612617" lon="13.4374467"><ele>546.4</ele><time>2026-04-04T13:12:17.763Z</time></trkpt><trkpt lat="42.8611617" lon="13.4374367"><ele>549.0</ele><time>2026-04-04T13:12:18.763Z</time></trkpt><trkpt lat="42.8610683" lon="13.4374183"><ele>549.0</ele><time>2026-04-04T13:12:19.763Z</time></trkpt><trkpt lat="42.8609717" lon="13.4374017"><ele>549.0</ele><time>2026-04-04T13:12:20.763Z</time></trkpt><trkpt lat="42.86088" lon="13.4373767"><ele>549.0</ele><time>2026-04-04T13:12:21.763Z</time></trkpt><trkpt lat="42.8607933" lon="13.43734"><ele>549.0</ele><time>2026-04-04T13:12:22.764Z</time></trkpt><trkpt lat="42.8607117" lon="13.437285"><ele>549.0</ele><time>2026-04-04T13:12:23.764Z</time></trkpt><trkpt lat="42.8606267" lon="13.43723"><ele>550.4</ele><time>2026-04-04T13:12:24.764Z</time></trkpt><trkpt lat="42.86054" lon="13.437205"><ele>551.8</ele><time>2026-04-04T13:12:25.763Z</time></trkpt><trkpt lat="42.8604483" lon="13.43721"><ele>553.2</ele><time>2026-04-04T13:12:26.764Z</time></trkpt><trkpt lat="42.8603567" lon="13.43724"><ele>554.6</ele><time>2026-04-04T13:12:27.764Z</time></trkpt><trkpt lat="42.8602667" lon="13.4372817"><ele>556.0</ele><time>2026-04-04T13:12:28.763Z</time></trkpt><trkpt lat="42.860175" lon="13.4373"><ele>558.4</ele><time>2026-04-04T13:12:29.764Z</time></trkpt><trkpt lat="42.86008" lon="13.43733"><ele>560.8</ele><time>2026-04-04T13:12:30.764Z</time></trkpt><trkpt lat="42.8599767" lon="13.4373483"><ele>563.1999999999999</ele><time>2026-04-04T13:12:31.764Z</time></trkpt><trkpt lat="42.859875" lon="13.4373667"><ele>565.6</ele><time>2026-04-04T13:12:32.763Z</time></trkpt><trkpt lat="42.8597717" lon="13.4373633"><ele>568.0</ele><time>2026-04-04T13:12:33.763Z</time></trkpt><trkpt lat="42.85967" lon="13.4373633"><ele>568.0</ele><time>2026-04-04T13:12:34.763Z</time></trkpt><trkpt lat="42.85956" lon="13.4373567"><ele>568.0</ele><time>2026-04-04T13:12:35.764Z</time></trkpt><trkpt lat="42.859445" lon="13.4373683"><ele>568.0</ele><time>2026-04-04T13:12:36.763Z</time></trkpt><trkpt lat="42.8593367" lon="13.4373833"><ele>568.0</ele><time>2026-04-04T13:12:37.763Z</time></trkpt><trkpt lat="42.85923" lon="13.43741"><ele>568.0</ele><time>2026-04-04T13:12:38.763Z</time></trkpt><trkpt lat="42.8591333" lon="13.4374233"><ele>570.8</ele><time>2026-04-04T13:12:39.764Z</time></trkpt><trkpt lat="42.8590333" lon="13.43744"><ele>573.5999999999999</ele><time>2026-04-04T13:12:40.764Z</time></trkpt><trkpt lat="42.8589317" lon="13.4374683"><ele>576.4000000000001</ele><time>2026-04-04T13:12:41.763Z</time></trkpt><trkpt lat="42.858835" lon="13.437525"><ele>579.2</ele><time>2026-04-04T13:12:42.763Z</time></trkpt><trkpt lat="42.85874" lon="13.4375717"><ele>582.0</ele><time>2026-04-04T13:12:43.764Z</time></trkpt><trkpt lat="42.8586567" lon="13.4376267"><ele>582.0</ele><time>2026-04-04T13:12:44.763Z</time></trkpt><trkpt lat="42.8585783" lon="13.4376767"><ele>582.0</ele><time>2026-04-04T13:12:45.763Z</time></trkpt><trkpt lat="42.8585017" lon="13.4377333"><ele>582.0</ele><time>2026-04-04T13:12:46.764Z</time></trkpt><trkpt lat="42.85843" lon="13.43779"><ele>582.0</ele><time>2026-04-04T13:12:47.763Z</time></trkpt><trkpt lat="42.8583617" lon="13.437855"><ele>582.0</ele><time>2026-04-04T13:12:48.763Z</time></trkpt><trkpt lat="42.8582983" lon="13.4378967"><ele>582.0</ele><time>2026-04-04T13:12:49.764Z</time></trkpt><trkpt lat="42.8582517" lon="13.437955"><ele>582.1666666666666</ele><time>2026-04-04T13:12:50.763Z</time></trkpt><trkpt lat="42.8581883" lon="13.438035"><ele>582.3333333333334</ele><time>2026-04-04T13:12:52.763Z</time></trkpt><trkpt lat="42.85812" lon="13.4380467"><ele>582.5</ele><time>2026-04-04T13:12:54.764Z</time></trkpt><trkpt lat="42.858025" lon="13.4379733"><ele>582.6666666666667</ele><time>2026-04-04T13:12:56.763Z</time></trkpt><trkpt lat="42.8579667" lon="13.4379283"><ele>582.8333333333334</ele><time>2026-04-04T13:12:57.763Z</time></trkpt><trkpt lat="42.8579017" lon="13.437885"><ele>583.0</ele><time>2026-04-04T13:12:58.763Z</time></trkpt><trkpt lat="42.8578367" lon="13.43783"><ele>583.5714285714287</ele><time>2026-04-04T13:12:59.763Z</time></trkpt><trkpt lat="42.85778" lon="13.4377583"><ele>584.1428571428571</ele><time>2026-04-04T13:13:00.763Z</time></trkpt><trkpt lat="42.8577283" lon="13.4376917"><ele>584.7142857142858</ele><time>2026-04-04T13:13:01.764Z</time></trkpt><trkpt lat="42.8576833" lon="13.4376183"><ele>585.2857142857143</ele><time>2026-04-04T13:13:02.763Z</time></trkpt><trkpt lat="42.857635" lon="13.4375517"><ele>585.8571428571429</ele><time>2026-04-04T13:13:03.764Z</time></trkpt><trkpt lat="42.857585" lon="13.4374983"><ele>586.4285714285714</ele><time>2026-04-04T13:13:04.763Z</time></trkpt><trkpt lat="42.8575233" lon="13.4374467"><ele>587.0</ele><time>2026-04-04T13:13:05.763Z</time></trkpt><trkpt lat="42.857455" lon="13.437415"><ele>591.6</ele><time>2026-04-04T13:13:06.763Z</time></trkpt><trkpt lat="42.857385" lon="13.4373917"><ele>596.2</ele><time>2026-04-04T13:13:07.764Z</time></trkpt><trkpt lat="42.857295" lon="13.4373617"><ele>600.8</ele><time>2026-04-04T13:13:08.763Z</time></trkpt><trkpt lat="42.8572067" lon="13.4373433"><ele>605.4</ele><time>2026-04-04T13:13:09.763Z</time></trkpt><trkpt lat="42.8571033" lon="13.4373283"><ele>610.0</ele><time>2026-04-04T13:13:10.763Z</time></trkpt><trkpt lat="42.8570067" lon="13.4373183"><ele>610.0</ele><time>2026-04-04T13:13:11.764Z</time></trkpt><trkpt lat="42.856915" lon="13.4373033"><ele>610.0</ele><time>2026-04-04T13:13:12.763Z</time></trkpt><trkpt lat="42.8568217" lon="13.4373017"><ele>610.0</ele><time>2026-04-04T13:13:13.764Z</time></trkpt><trkpt lat="42.8567317" lon="13.4372917"><ele>610.0</ele><time>2026-04-04T13:13:14.763Z</time></trkpt><trkpt lat="42.8566483" lon="13.43727"><ele>610.0</ele><time>2026-04-04T13:13:15.763Z</time></trkpt><trkpt lat="42.8565667" lon="13.43723"><ele>610.0</ele><time>2026-04-04T13:13:16.763Z</time></trkpt><trkpt lat="42.85649" lon="13.43718"><ele>607.5</ele><time>2026-04-04T13:13:17.763Z</time></trkpt><trkpt lat="42.8564217" lon="13.4371167"><ele>605.0</ele><time>2026-04-04T13:13:18.763Z</time></trkpt><trkpt lat="42.8563567" lon="13.4370633"><ele>602.5</ele><time>2026-04-04T13:13:19.763Z</time></trkpt><trkpt lat="42.8562867" lon="13.43702"><ele>600.0</ele><time>2026-04-04T13:13:20.763Z</time></trkpt><trkpt lat="42.856205" lon="13.436995"><ele>597.5</ele><time>2026-04-04T13:13:21.763Z</time></trkpt><trkpt lat="42.8561283" lon="13.436985"><ele>595.0</ele><time>2026-04-04T13:13:22.763Z</time></trkpt><trkpt lat="42.8560467" lon="13.436985"><ele>595.0</ele><time>2026-04-04T13:13:23.763Z</time></trkpt><trkpt lat="42.855965" lon="13.4369783"><ele>595.0</ele><time>2026-04-04T13:13:24.763Z</time></trkpt><trkpt lat="42.8558817" lon="13.436985"><ele>595.0</ele><time>2026-04-04T13:13:25.763Z</time></trkpt><trkpt lat="42.8558" lon="13.4369883"><ele>595.0</ele><time>2026-04-04T13:13:26.763Z</time></trkpt><trkpt lat="42.8557167" lon="13.436985"><ele>595.0</ele><time>2026-04-04T13:13:27.763Z</time></trkpt><trkpt lat="42.8556433" lon="13.43698"><ele>595.0</ele><time>2026-04-04T13:13:28.763Z</time></trkpt><trkpt lat="42.8555417" lon="13.4369633"><ele>598.0</ele><time>2026-04-04T13:13:30.764Z</time></trkpt><trkpt lat="42.8554433" lon="13.4369167"><ele>601.0</ele><time>2026-04-04T13:13:32.763Z</time></trkpt><trkpt lat="42.85535" lon="13.4368317"><ele>604.0</ele><time>2026-04-04T13:13:34.763Z</time></trkpt><trkpt lat="42.8552533" lon="13.4367733"><ele>607.0</ele><time>2026-04-04T13:13:36.764Z</time></trkpt><trkpt lat="42.85516" lon="13.4367333"><ele>610.0</ele><time>2026-04-04T13:13:38.764Z</time></trkpt><trkpt lat="42.85508" lon="13.4367017"><ele>613.4</ele><time>2026-04-04T13:13:40.763Z</time></trkpt><trkpt lat="42.8550333" lon="13.4366433"><ele>616.8</ele><time>2026-04-04T13:13:42.764Z</time></trkpt><trkpt lat="42.8549667" lon="13.436595"><ele>620.2</ele><time>2026-04-04T13:13:44.763Z</time></trkpt><trkpt lat="42.854865" lon="13.4366167"><ele>623.6</ele><time>2026-04-04T13:13:46.763Z</time></trkpt><trkpt lat="42.8547617" lon="13.4366533"><ele>627.0</ele><time>2026-04-04T13:13:48.763Z</time></trkpt><trkpt lat="42.8546467" lon="13.4366517"><ele>627.0</ele><time>2026-04-04T13:13:50.764Z</time></trkpt><trkpt lat="42.8545733" lon="13.4366533"><ele>627.0</ele><time>2026-04-04T13:13:51.764Z</time></trkpt><trkpt lat="42.8544983" lon="13.436665"><ele>627.0</ele><time>2026-04-04T13:13:52.763Z</time></trkpt><trkpt lat="42.85443" lon="13.4366717"><ele>627.0</ele><time>2026-04-04T13:13:53.763Z</time></trkpt><trkpt lat="42.8543667" lon="13.4366717"><ele>627.0</ele><time>2026-04-04T13:13:54.763Z</time></trkpt><trkpt lat="42.854265" lon="13.4366517"><ele>627.0</ele><time>2026-04-04T13:13:56.763Z</time></trkpt><trkpt lat="42.8541983" lon="13.4366383"><ele>627.5</ele><time>2026-04-04T13:13:58.763Z</time></trkpt><trkpt lat="42.8541183" lon="13.4366133"><ele>628.0</ele><time>2026-04-04T13:14:24.763Z</time></trkpt><trkpt lat="42.854025" lon="13.436565"><ele>628.5</ele><time>2026-04-04T13:14:26.763Z</time></trkpt><trkpt lat="42.8539733" lon="13.4364683"><ele>629.0</ele><time>2026-04-04T13:14:28.763Z</time></trkpt><trkpt lat="42.8539583" lon="13.4363783"><ele>629.5</ele><time>2026-04-04T13:14:31.763Z</time></trkpt><trkpt lat="42.853975" lon="13.436245"><ele>630.0</ele><time>2026-04-04T13:15:29.764Z</time></trkpt><trkpt lat="42.8539867" lon="13.4361"><ele>630.0</ele><time>2026-04-04T13:15:31.763Z</time></trkpt><trkpt lat="42.8539767" lon="13.4359967"><ele>630.0</ele><time>2026-04-04T13:15:32.763Z</time></trkpt><trkpt lat="42.8539467" lon="13.4358983"><ele>630.0</ele><time>2026-04-04T13:15:33.764Z</time></trkpt><trkpt lat="42.8539" lon="13.4358017"><ele>630.0</ele><time>2026-04-04T13:15:34.763Z</time></trkpt><trkpt lat="42.853835" lon="13.4357183"><ele>630.0</ele><time>2026-04-04T13:15:35.764Z</time></trkpt><trkpt lat="42.85377" lon="13.4356333"><ele>630.0</ele><time>2026-04-04T13:15:36.764Z</time></trkpt><trkpt lat="42.853705" lon="13.4355383"><ele>628.4</ele><time>2026-04-04T13:15:37.764Z</time></trkpt><trkpt lat="42.85365" lon="13.4354417"><ele>626.8</ele><time>2026-04-04T13:15:38.764Z</time></trkpt><trkpt lat="42.8536067" lon="13.4353217"><ele>625.2</ele><time>2026-04-04T13:15:39.763Z</time></trkpt><trkpt lat="42.8535817" lon="13.4351917"><ele>623.6</ele><time>2026-04-04T13:15:40.763Z</time></trkpt><trkpt lat="42.8535767" lon="13.4350533"><ele>622.0</ele><time>2026-04-04T13:15:41.763Z</time></trkpt><trkpt lat="42.8535683" lon="13.4349183"><ele>622.0</ele><time>2026-04-04T13:15:42.763Z</time></trkpt><trkpt lat="42.8535533" lon="13.4347933"><ele>622.0</ele><time>2026-04-04T13:15:43.763Z</time></trkpt><trkpt lat="42.8535283" lon="13.4346667"><ele>622.0</ele><time>2026-04-04T13:15:44.763Z</time></trkpt><trkpt lat="42.85351" lon="13.4345433"><ele>622.0</ele><time>2026-04-04T13:15:45.763Z</time></trkpt><trkpt lat="42.8535033" lon="13.4344267"><ele>622.0</ele><time>2026-04-04T13:15:46.764Z</time></trkpt><trkpt lat="42.8535083" lon="13.4343083"><ele>624.0</ele><time>2026-04-04T13:15:47.763Z</time></trkpt><trkpt lat="42.8535217" lon="13.4341867"><ele>626.0</ele><time>2026-04-04T13:15:48.763Z</time></trkpt><trkpt lat="42.8535467" lon="13.434075"><ele>628.0</ele><time>2026-04-04T13:15:49.763Z</time></trkpt><trkpt lat="42.8535933" lon="13.4339667"><ele>630.0</ele><time>2026-04-04T13:15:50.764Z</time></trkpt><trkpt lat="42.853645" lon="13.4338567"><ele>632.0</ele><time>2026-04-04T13:15:51.763Z</time></trkpt><trkpt lat="42.85372" lon="13.4338033"><ele>634.0</ele><time>2026-04-04T13:15:52.764Z</time></trkpt><trkpt lat="42.8538033" lon="13.4337333"><ele>638.0</ele><time>2026-04-04T13:15:53.763Z</time></trkpt><trkpt lat="42.8538817" lon="13.4336917"><ele>642.0</ele><time>2026-04-04T13:15:54.764Z</time></trkpt><trkpt lat="42.8540033" lon="13.433675"><ele>646.0</ele><time>2026-04-04T13:15:56.762Z</time></trkpt><trkpt lat="42.85409" lon="13.4336433"><ele>650.0</ele><time>2026-04-04T13:15:57.763Z</time></trkpt><trkpt lat="42.8541783" lon="13.4336067"><ele>654.0</ele><time>2026-04-04T13:15:58.762Z</time></trkpt><trkpt lat="42.85426" lon="13.43356"><ele>646.6</ele><time>2026-04-04T13:15:59.763Z</time></trkpt><trkpt lat="42.8543317" lon="13.433475"><ele>639.2</ele><time>2026-04-04T13:16:00.762Z</time></trkpt><trkpt lat="42.8543867" lon="13.4333667"><ele>631.8000000000001</ele><time>2026-04-04T13:16:01.762Z</time></trkpt><trkpt lat="42.854425" lon="13.4332467"><ele>624.4000000000001</ele><time>2026-04-04T13:16:02.763Z</time></trkpt><trkpt lat="42.854435" lon="13.4331133"><ele>617.0</ele><time>2026-04-04T13:16:03.763Z</time></trkpt><trkpt lat="42.8544383" lon="13.4329817"><ele>617.1666666666666</ele><time>2026-04-04T13:16:04.762Z</time></trkpt><trkpt lat="42.8544317" lon="13.4328667"><ele>617.3333333333333</ele><time>2026-04-04T13:16:05.762Z</time></trkpt><trkpt lat="42.8544167" lon="13.4327583"><ele>617.5</ele><time>2026-04-04T13:16:06.763Z</time></trkpt><trkpt lat="42.854385" lon="13.4326483"><ele>617.6666666666666</ele><time>2026-04-04T13:16:07.763Z</time></trkpt><trkpt lat="42.8543467" lon="13.432545"><ele>617.8333333333334</ele><time>2026-04-04T13:16:08.763Z</time></trkpt><trkpt lat="42.8542983" lon="13.432435"><ele>618.0</ele><time>2026-04-04T13:16:09.762Z</time></trkpt><trkpt lat="42.854245" lon="13.432325"><ele>624.5</ele><time>2026-04-04T13:16:10.763Z</time></trkpt><trkpt lat="42.8541983" lon="13.4322167"><ele>631.0</ele><time>2026-04-04T13:16:11.762Z</time></trkpt><trkpt lat="42.8541667" lon="13.432115"><ele>637.5</ele><time>2026-04-04T13:16:12.763Z</time></trkpt><trkpt lat="42.8541483" lon="13.43202"><ele>644.0</ele><time>2026-04-04T13:16:13.762Z</time></trkpt><trkpt lat="42.8541483" lon="13.431915"><ele>650.5</ele><time>2026-04-04T13:16:14.762Z</time></trkpt><trkpt lat="42.854195" lon="13.4318133"><ele>657.0</ele><time>2026-04-04T13:16:15.762Z</time></trkpt><trkpt lat="42.854275" lon="13.4317083"><ele>650.75</ele><time>2026-04-04T13:16:16.762Z</time></trkpt><trkpt lat="42.8543667" lon="13.431605"><ele>644.5</ele><time>2026-04-04T13:16:17.762Z</time></trkpt><trkpt lat="42.85446" lon="13.4315067"><ele>638.25</ele><time>2026-04-04T13:16:18.762Z</time></trkpt><trkpt lat="42.8545533" lon="13.43142"><ele>632.0</ele><time>2026-04-04T13:16:19.763Z</time></trkpt><trkpt lat="42.8546517" lon="13.4313617"><ele>636.0</ele><time>2026-04-04T13:16:20.762Z</time></trkpt><trkpt lat="42.8547433" lon="13.4312883"><ele>640.0</ele><time>2026-04-04T13:16:21.763Z</time></trkpt><trkpt lat="42.8548217" lon="13.4312017"><ele>644.0</ele><time>2026-04-04T13:16:22.763Z</time></trkpt><trkpt lat="42.8549033" lon="13.43112"><ele>648.0</ele><time>2026-04-04T13:16:23.762Z</time></trkpt><trkpt lat="42.8549967" lon="13.43105"><ele>652.0</ele><time>2026-04-04T13:16:24.763Z</time></trkpt><trkpt lat="42.8550883" lon="13.430995"><ele>651.8333333333334</ele><time>2026-04-04T13:16:25.763Z</time></trkpt><trkpt lat="42.8551867" lon="13.430965"><ele>651.6666666666667</ele><time>2026-04-04T13:16:26.763Z</time></trkpt><trkpt lat="42.855265" lon="13.4309417"><ele>651.5</ele><time>2026-04-04T13:16:27.762Z</time></trkpt><trkpt lat="42.8553383" lon="13.430905"><ele>651.3333333333334</ele><time>2026-04-04T13:16:28.762Z</time></trkpt><trkpt lat="42.8553983" lon="13.430795"><ele>651.1666666666666</ele><time>2026-04-04T13:16:30.762Z</time></trkpt><trkpt lat="42.855355" lon="13.4306967"><ele>651.0</ele><time>2026-04-04T13:16:32.762Z</time></trkpt><trkpt lat="42.8552783" lon="13.4306817"><ele>651.0</ele><time>2026-04-04T13:16:33.762Z</time></trkpt><trkpt lat="42.855195" lon="13.4306933"><ele>651.0</ele><time>2026-04-04T13:16:34.762Z</time></trkpt><trkpt lat="42.855105" lon="13.43071"><ele>651.0</ele><time>2026-04-04T13:16:35.763Z</time></trkpt><trkpt lat="42.8550083" lon="13.4307233"><ele>651.0</ele><time>2026-04-04T13:16:36.763Z</time></trkpt><trkpt lat="42.8548983" lon="13.43074"><ele>651.0</ele><time>2026-04-04T13:16:37.763Z</time></trkpt><trkpt lat="42.8547867" lon="13.4307517"><ele>651.1999999999999</ele><time>2026-04-04T13:16:38.763Z</time></trkpt><trkpt lat="42.8546717" lon="13.430755"><ele>651.4</ele><time>2026-04-04T13:16:39.762Z</time></trkpt><trkpt lat="42.8545633" lon="13.4307633"><ele>651.6</ele><time>2026-04-04T13:16:40.762Z</time></trkpt><trkpt lat="42.8544633" lon="13.4307717"><ele>651.8</ele><time>2026-04-04T13:16:41.762Z</time></trkpt><trkpt lat="42.8543683" lon="13.4307767"><ele>652.0</ele><time>2026-04-04T13:16:42.762Z</time></trkpt><trkpt lat="42.8542767" lon="13.43079"><ele>656.2</ele><time>2026-04-04T13:16:43.762Z</time></trkpt><trkpt lat="42.8541917" lon="13.4308233"><ele>660.4000000000001</ele><time>2026-04-04T13:16:44.762Z</time></trkpt><trkpt lat="42.8541167" lon="13.4308867"><ele>664.5999999999999</ele><time>2026-04-04T13:16:45.762Z</time></trkpt><trkpt lat="42.8540467" lon="13.4309783"><ele>668.8</ele><time>2026-04-04T13:16:46.762Z</time></trkpt><trkpt lat="42.8539767" lon="13.43108"><ele>673.0</ele><time>2026-04-04T13:16:47.763Z</time></trkpt><trkpt lat="42.8539083" lon="13.43118"><ele>673.0</ele><time>2026-04-04T13:16:48.762Z</time></trkpt><trkpt lat="42.8538333" lon="13.431275"><ele>673.0</ele><time>2026-04-04T13:16:49.763Z</time></trkpt><trkpt lat="42.8537683" lon="13.4313483"><ele>673.0</ele><time>2026-04-04T13:16:50.762Z</time></trkpt><trkpt lat="42.8537117" lon="13.4314083"><ele>673.0</ele><time>2026-04-04T13:16:51.762Z</time></trkpt><trkpt lat="42.8536433" lon="13.4314583"><ele>673.0</ele><time>2026-04-04T13:16:53.763Z</time></trkpt><trkpt lat="42.8536033" lon="13.4313833"><ele>673.0</ele><time>2026-04-04T13:16:55.763Z</time></trkpt><trkpt lat="42.8536517" lon="13.43124"><ele>673.0</ele><time>2026-04-04T13:16:57.763Z</time></trkpt><trkpt lat="42.8536767" lon="13.43116"><ele>673.0</ele><time>2026-04-04T13:16:58.763Z</time></trkpt><trkpt lat="42.8537017" lon="13.4310633"><ele>673.0</ele><time>2026-04-04T13:16:59.763Z</time></trkpt><trkpt lat="42.853705" lon="13.4309367"><ele>673.0</ele><time>2026-04-04T13:17:00.762Z</time></trkpt><trkpt lat="42.8536833" lon="13.4308133"><ele>673.0</ele><time>2026-04-04T13:17:01.763Z</time></trkpt><trkpt lat="42.853655" lon="13.4306867"><ele>673.0</ele><time>2026-04-04T13:17:02.762Z</time></trkpt><trkpt lat="42.8536067" lon="13.4305583"><ele>674.2</ele><time>2026-04-04T13:17:03.763Z</time></trkpt><trkpt lat="42.8535717" lon="13.430425"><ele>675.4</ele><time>2026-04-04T13:17:04.762Z</time></trkpt><trkpt lat="42.85355" lon="13.430295"><ele>676.6</ele><time>2026-04-04T13:17:05.762Z</time></trkpt><trkpt lat="42.8535333" lon="13.4301683"><ele>677.8000000000001</ele><time>2026-04-04T13:17:06.763Z</time></trkpt><trkpt lat="42.8535217" lon="13.4300367"><ele>679.0</ele><time>2026-04-04T13:17:07.762Z</time></trkpt><trkpt lat="42.8535167" lon="13.4299167"><ele>679.0</ele><time>2026-04-04T13:17:08.762Z</time></trkpt><trkpt lat="42.8535283" lon="13.4297983"><ele>679.0</ele><time>2026-04-04T13:17:09.762Z</time></trkpt><trkpt lat="42.8535567" lon="13.4296833"><ele>679.0</ele><time>2026-04-04T13:17:10.762Z</time></trkpt><trkpt lat="42.8536" lon="13.429595"><ele>679.0</ele><time>2026-04-04T13:17:11.762Z</time></trkpt><trkpt lat="42.8536633" lon="13.42948"><ele>679.0</ele><time>2026-04-04T13:17:12.762Z</time></trkpt><trkpt lat="42.8537217" lon="13.4293767"><ele>682.0</ele><time>2026-04-04T13:17:13.762Z</time></trkpt><trkpt lat="42.8537783" lon="13.42929"><ele>685.0</ele><time>2026-04-04T13:17:14.762Z</time></trkpt><trkpt lat="42.85382" lon="13.4292167"><ele>688.0</ele><time>2026-04-04T13:17:15.762Z</time></trkpt><trkpt lat="42.8538533" lon="13.429125"><ele>691.0</ele><time>2026-04-04T13:17:16.762Z</time></trkpt><trkpt lat="42.85387" lon="13.4290167"><ele>694.0</ele><time>2026-04-04T13:17:17.762Z</time></trkpt><trkpt lat="42.8538633" lon="13.4288983"><ele>697.0</ele><time>2026-04-04T13:17:18.762Z</time></trkpt><trkpt lat="42.8538317" lon="13.4287783"><ele>697.2</ele><time>2026-04-04T13:17:19.763Z</time></trkpt><trkpt lat="42.8537983" lon="13.4286517"><ele>697.4000000000001</ele><time>2026-04-04T13:17:20.762Z</time></trkpt><trkpt lat="42.8537417" lon="13.4285483"><ele>697.5999999999999</ele><time>2026-04-04T13:17:21.762Z</time></trkpt><trkpt lat="42.8536733" lon="13.4284417"><ele>697.8</ele><time>2026-04-04T13:17:22.763Z</time></trkpt><trkpt lat="42.85359" lon="13.4283483"><ele>698.0</ele><time>2026-04-04T13:17:23.762Z</time></trkpt><trkpt lat="42.8535" lon="13.4282783"><ele>699.6666666666666</ele><time>2026-04-04T13:17:24.762Z</time></trkpt><trkpt lat="42.8534233" lon="13.4282233"><ele>701.3333333333333</ele><time>2026-04-04T13:17:25.763Z</time></trkpt><trkpt lat="42.853335" lon="13.4281833"><ele>703.0</ele><time>2026-04-04T13:17:26.762Z</time></trkpt><trkpt lat="42.8532533" lon="13.4281567"><ele>704.6666666666666</ele><time>2026-04-04T13:17:27.762Z</time></trkpt><trkpt lat="42.8531917" lon="13.4281183"><ele>706.3333333333334</ele><time>2026-04-04T13:17:28.763Z</time></trkpt><trkpt lat="42.8531383" lon="13.4280567"><ele>708.0</ele><time>2026-04-04T13:17:29.762Z</time></trkpt><trkpt lat="42.8530883" lon="13.4279917"><ele>704.0</ele><time>2026-04-04T13:17:30.762Z</time></trkpt><trkpt lat="42.8530433" lon="13.42788"><ele>700.0</ele><time>2026-04-04T13:17:31.762Z</time></trkpt><trkpt lat="42.8530083" lon="13.4277317"><ele>696.0</ele><time>2026-04-04T13:17:32.762Z</time></trkpt><trkpt lat="42.8529783" lon="13.4275683"><ele>692.0</ele><time>2026-04-04T13:17:33.763Z</time></trkpt><trkpt lat="42.8529467" lon="13.4274"><ele>692.0</ele><time>2026-04-04T13:17:34.762Z</time></trkpt><trkpt lat="42.8529117" lon="13.4272383"><ele>692.0</ele><time>2026-04-04T13:17:35.762Z</time></trkpt><trkpt lat="42.8528833" lon="13.4270967"><ele>692.0</ele><time>2026-04-04T13:17:36.762Z</time></trkpt><trkpt lat="42.8528583" lon="13.426965"><ele>692.0</ele><time>2026-04-04T13:17:37.763Z</time></trkpt><trkpt lat="42.8528433" lon="13.4268283"><ele>692.0</ele><time>2026-04-04T13:17:38.763Z</time></trkpt><trkpt lat="42.8528517" lon="13.4266867"><ele>691.6</ele><time>2026-04-04T13:17:39.762Z</time></trkpt><trkpt lat="42.852875" lon="13.426545"><ele>691.2</ele><time>2026-04-04T13:17:40.762Z</time></trkpt><trkpt lat="42.852905" lon="13.4264117"><ele>690.8</ele><time>2026-04-04T13:17:41.763Z</time></trkpt><trkpt lat="42.85294" lon="13.42628"><ele>690.4</ele><time>2026-04-04T13:17:42.763Z</time></trkpt><trkpt lat="42.85297" lon="13.4261567"><ele>690.0</ele><time>2026-04-04T13:17:43.763Z</time></trkpt><trkpt lat="42.8530083" lon="13.42604"><ele>692.3333333333334</ele><time>2026-04-04T13:17:44.762Z</time></trkpt><trkpt lat="42.85306" lon="13.42593"><ele>694.6666666666666</ele><time>2026-04-04T13:17:45.763Z</time></trkpt><trkpt lat="42.8531067" lon="13.4258317"><ele>697.0</ele><time>2026-04-04T13:17:46.762Z</time></trkpt><trkpt lat="42.8531467" lon="13.425735"><ele>699.3333333333333</ele><time>2026-04-04T13:17:47.763Z</time></trkpt><trkpt lat="42.853175" lon="13.42563"><ele>701.6666666666666</ele><time>2026-04-04T13:17:48.762Z</time></trkpt><trkpt lat="42.85318" lon="13.425525"><ele>704.0</ele><time>2026-04-04T13:17:49.763Z</time></trkpt><trkpt lat="42.8531533" lon="13.4254217"><ele>706.0</ele><time>2026-04-04T13:17:50.762Z</time></trkpt><trkpt lat="42.8531083" lon="13.4252967"><ele>708.0</ele><time>2026-04-04T13:17:51.762Z</time></trkpt><trkpt lat="42.8530633" lon="13.4251667"><ele>710.0</ele><time>2026-04-04T13:17:52.763Z</time></trkpt><trkpt lat="42.8530217" lon="13.4250267"><ele>712.0</ele><time>2026-04-04T13:17:53.763Z</time></trkpt><trkpt lat="42.8530033" lon="13.4248967"><ele>714.0</ele><time>2026-04-04T13:17:54.762Z</time></trkpt><trkpt lat="42.8529867" lon="13.4247667"><ele>714.0</ele><time>2026-04-04T13:17:55.762Z</time></trkpt><trkpt lat="42.8529583" lon="13.4246283"><ele>714.0</ele><time>2026-04-04T13:17:56.762Z</time></trkpt><trkpt lat="42.8529167" lon="13.424505"><ele>714.0</ele><time>2026-04-04T13:17:57.762Z</time></trkpt><trkpt lat="42.8528833" lon="13.42439"><ele>714.0</ele><time>2026-04-04T13:17:58.762Z</time></trkpt><trkpt lat="42.8528283" lon="13.42429"><ele>714.0</ele><time>2026-04-04T13:17:59.762Z</time></trkpt><trkpt lat="42.852755" lon="13.424205"><ele>714.0</ele><time>2026-04-04T13:18:00.762Z</time></trkpt><trkpt lat="42.8526667" lon="13.42413"><ele>714.0</ele><time>2026-04-04T13:18:01.763Z</time></trkpt><trkpt lat="42.8525767" lon="13.4240583"><ele>714.0</ele><time>2026-04-04T13:18:02.763Z</time></trkpt><trkpt lat="42.8524817" lon="13.4239967"><ele>714.0</ele><time>2026-04-04T13:18:03.762Z</time></trkpt><trkpt lat="42.852385" lon="13.4239317"><ele>714.0</ele><time>2026-04-04T13:18:04.762Z</time></trkpt><trkpt lat="42.8522867" lon="13.4238533"><ele>716.5</ele><time>2026-04-04T13:18:05.762Z</time></trkpt><trkpt lat="42.85219" lon="13.4237483"><ele>719.0</ele><time>2026-04-04T13:18:06.762Z</time></trkpt><trkpt lat="42.8520983" lon="13.42359"><ele>721.5</ele><time>2026-04-04T13:18:07.762Z</time></trkpt><trkpt lat="42.8519867" lon="13.4234483"><ele>724.0</ele><time>2026-04-04T13:18:08.762Z</time></trkpt><trkpt lat="42.8518733" lon="13.4233267"><ele>724.0</ele><time>2026-04-04T13:18:09.763Z</time></trkpt><trkpt lat="42.8517717" lon="13.4232067"><ele>724.0</ele><time>2026-04-04T13:18:10.763Z</time></trkpt><trkpt lat="42.8516767" lon="13.4230817"><ele>724.0</ele><time>2026-04-04T13:18:11.762Z</time></trkpt><trkpt lat="42.8516017" lon="13.42298"><ele>724.0</ele><time>2026-04-04T13:18:12.763Z</time></trkpt><trkpt lat="42.8515333" lon="13.4228967"><ele>723.5</ele><time>2026-04-04T13:18:13.763Z</time></trkpt><trkpt lat="42.8514783" lon="13.4228317"><ele>723.0</ele><time>2026-04-04T13:18:14.763Z</time></trkpt><trkpt lat="42.8514217" lon="13.4227467"><ele>722.5</ele><time>2026-04-04T13:18:16.762Z</time></trkpt><trkpt lat="42.8513917" lon="13.422645"><ele>722.0</ele><time>2026-04-04T13:18:47.762Z</time></trkpt><trkpt lat="42.8513583" lon="13.422535"><ele>721.5</ele><time>2026-04-04T13:18:49.762Z</time></trkpt><trkpt lat="42.851325" lon="13.42245"><ele>721.0</ele><time>2026-04-04T13:18:50.763Z</time></trkpt><trkpt lat="42.85128" lon="13.422335"><ele>721.0</ele><time>2026-04-04T13:18:51.762Z</time></trkpt><trkpt lat="42.851225" lon="13.4222217"><ele>721.0</ele><time>2026-04-04T13:18:52.763Z</time></trkpt><trkpt lat="42.85117" lon="13.4221083"><ele>721.0</ele><time>2026-04-04T13:18:53.762Z</time></trkpt><trkpt lat="42.85111" lon="13.422005"><ele>721.0</ele><time>2026-04-04T13:18:54.762Z</time></trkpt><trkpt lat="42.8510233" lon="13.421915"><ele>721.0</ele><time>2026-04-04T13:18:55.763Z</time></trkpt><trkpt lat="42.85093" lon="13.4218517"><ele>721.5</ele><time>2026-04-04T13:18:56.763Z</time></trkpt><trkpt lat="42.850845" lon="13.42179"><ele>722.0</ele><time>2026-04-04T13:18:57.762Z</time></trkpt><trkpt lat="42.8507817" lon="13.42171"><ele>722.5</ele><time>2026-04-04T13:18:58.762Z</time></trkpt><trkpt lat="42.8507433" lon="13.4216067"><ele>723.0</ele><time>2026-04-04T13:18:59.763Z</time></trkpt><trkpt lat="42.8507267" lon="13.421495"><ele>723.5</ele><time>2026-04-04T13:19:00.762Z</time></trkpt><trkpt lat="42.8507267" lon="13.4213667"><ele>724.0</ele><time>2026-04-04T13:19:01.762Z</time></trkpt><trkpt lat="42.8507567" lon="13.4212283"><ele>725.8333333333334</ele><time>2026-04-04T13:19:02.762Z</time></trkpt><trkpt lat="42.8508" lon="13.4211017"><ele>727.6666666666667</ele><time>2026-04-04T13:19:03.763Z</time></trkpt><trkpt lat="42.8508467" lon="13.4210067"><ele>729.5</ele><time>2026-04-04T13:19:04.762Z</time></trkpt><trkpt lat="42.8508983" lon="13.42092"><ele>731.3333333333334</ele><time>2026-04-04T13:19:05.762Z</time></trkpt><trkpt lat="42.8509367" lon="13.4208333"><ele>733.1666666666666</ele><time>2026-04-04T13:19:06.763Z</time></trkpt><trkpt lat="42.850975" lon="13.4207383"><ele>735.0</ele><time>2026-04-04T13:19:07.762Z</time></trkpt><trkpt lat="42.8510067" lon="13.4206217"><ele>737.1666666666666</ele><time>2026-04-04T13:19:08.762Z</time></trkpt><trkpt lat="42.8510217" lon="13.4204933"><ele>739.3333333333334</ele><time>2026-04-04T13:19:09.762Z</time></trkpt><trkpt lat="42.8510267" lon="13.4203667"><ele>741.5</ele><time>2026-04-04T13:19:10.762Z</time></trkpt><trkpt lat="42.8510167" lon="13.4202583"><ele>743.6666666666667</ele><time>2026-04-04T13:19:11.762Z</time></trkpt><trkpt lat="42.8509817" lon="13.4201583"><ele>745.8333333333334</ele><time>2026-04-04T13:19:12.762Z</time></trkpt><trkpt lat="42.8509417" lon="13.42006"><ele>748.0</ele><time>2026-04-04T13:19:13.763Z</time></trkpt><trkpt lat="42.8509133" lon="13.4199683"><ele>748.0</ele><time>2026-04-04T13:19:14.763Z</time></trkpt><trkpt lat="42.8508917" lon="13.4198117"><ele>748.0</ele><time>2026-04-04T13:19:16.762Z</time></trkpt><trkpt lat="42.8509117" lon="13.4196183"><ele>748.0</ele><time>2026-04-04T13:19:18.762Z</time></trkpt><trkpt lat="42.8509367" lon="13.4195183"><ele>748.0</ele><time>2026-04-04T13:19:19.763Z</time></trkpt><trkpt lat="42.85096" lon="13.4193967"><ele>748.0</ele><time>2026-04-04T13:19:20.762Z</time></trkpt><trkpt lat="42.8509717" lon="13.4192767"><ele>750.0</ele><time>2026-04-04T13:19:21.762Z</time></trkpt><trkpt lat="42.8509567" lon="13.4191517"><ele>752.0</ele><time>2026-04-04T13:19:22.762Z</time></trkpt><trkpt lat="42.8509283" lon="13.4190267"><ele>754.0</ele><time>2026-04-04T13:19:23.763Z</time></trkpt><trkpt lat="42.8508733" lon="13.418865"><ele>756.0</ele><time>2026-04-04T13:19:24.762Z</time></trkpt><trkpt lat="42.8508183" lon="13.418685"><ele>756.4</ele><time>2026-04-04T13:19:25.763Z</time></trkpt><trkpt lat="42.8507917" lon="13.4185317"><ele>756.8</ele><time>2026-04-04T13:19:26.762Z</time></trkpt><trkpt lat="42.8507833" lon="13.41839"><ele>757.1999999999999</ele><time>2026-04-04T13:19:27.762Z</time></trkpt><trkpt lat="42.85078" lon="13.4182483"><ele>757.5999999999999</ele><time>2026-04-04T13:19:28.763Z</time></trkpt><trkpt lat="42.850775" lon="13.418105"><ele>758.0</ele><time>2026-04-04T13:19:29.762Z</time></trkpt><trkpt lat="42.8507483" lon="13.417955"><ele>758.2</ele><time>2026-04-04T13:19:30.762Z</time></trkpt><trkpt lat="42.850705" lon="13.4178283"><ele>758.4</ele><time>2026-04-04T13:19:31.763Z</time></trkpt><trkpt lat="42.85065" lon="13.417695"><ele>758.6</ele><time>2026-04-04T13:19:32.762Z</time></trkpt><trkpt lat="42.8505817" lon="13.4175867"><ele>758.8000000000001</ele><time>2026-04-04T13:19:33.763Z</time></trkpt><trkpt lat="42.85053" lon="13.417495"><ele>759.0</ele><time>2026-04-04T13:19:34.762Z</time></trkpt><trkpt lat="42.8504817" lon="13.4173817"><ele>759.0</ele><time>2026-04-04T13:19:35.762Z</time></trkpt><trkpt lat="42.85044" lon="13.4172567"><ele>759.0</ele><time>2026-04-04T13:19:36.762Z</time></trkpt><trkpt lat="42.8504017" lon="13.417125"><ele>759.0</ele><time>2026-04-04T13:19:37.762Z</time></trkpt><trkpt lat="42.8503533" lon="13.4170083"><ele>759.0</ele><time>2026-04-04T13:19:38.762Z</time></trkpt><trkpt lat="42.8502933" lon="13.4169067"><ele>759.0</ele><time>2026-04-04T13:19:39.763Z</time></trkpt><trkpt lat="42.8502067" lon="13.41683"><ele>757.25</ele><time>2026-04-04T13:19:40.762Z</time></trkpt><trkpt lat="42.8501283" lon="13.416765"><ele>755.5</ele><time>2026-04-04T13:19:41.762Z</time></trkpt><trkpt lat="42.85004" lon="13.416695"><ele>753.75</ele><time>2026-04-04T13:19:42.762Z</time></trkpt><trkpt lat="42.8499383" lon="13.4166"><ele>752.0</ele><time>2026-04-04T13:19:43.763Z</time></trkpt><trkpt lat="42.84983" lon="13.4164767"><ele>756.0</ele><time>2026-04-04T13:19:44.763Z</time></trkpt><trkpt lat="42.8497417" lon="13.416365"><ele>760.0</ele><time>2026-04-04T13:19:45.763Z</time></trkpt><trkpt lat="42.8496683" lon="13.4162717"><ele>764.0</ele><time>2026-04-04T13:19:46.762Z</time></trkpt><trkpt lat="42.8496" lon="13.41619"><ele>768.0</ele><time>2026-04-04T13:19:47.762Z</time></trkpt><trkpt lat="42.849535" lon="13.4161133"><ele>772.0</ele><time>2026-04-04T13:19:48.762Z</time></trkpt><trkpt lat="42.8494833" lon="13.4160217"><ele>772.0</ele><time>2026-04-04T13:19:49.762Z</time></trkpt><trkpt lat="42.8494417" lon="13.4159133"><ele>772.0</ele><time>2026-04-04T13:19:50.762Z</time></trkpt><trkpt lat="42.8493983" lon="13.41579"><ele>772.0</ele><time>2026-04-04T13:19:51.763Z</time></trkpt><trkpt lat="42.8493483" lon="13.41567"><ele>772.0</ele><time>2026-04-04T13:19:52.762Z</time></trkpt><trkpt lat="42.8492867" lon="13.4155533"><ele>772.0</ele><time>2026-04-04T13:19:53.762Z</time></trkpt><trkpt lat="42.849225" lon="13.4154433"><ele>775.8</ele><time>2026-04-04T13:19:54.762Z</time></trkpt><trkpt lat="42.8491667" lon="13.415325"><ele>779.6</ele><time>2026-04-04T13:19:55.762Z</time></trkpt><trkpt lat="42.849115" lon="13.4152067"><ele>783.4</ele><time>2026-04-04T13:19:56.763Z</time></trkpt><trkpt lat="42.849085" lon="13.4150783"><ele>787.1999999999999</ele><time>2026-04-04T13:19:57.762Z</time></trkpt><trkpt lat="42.84906" lon="13.4149467"><ele>791.0</ele><time>2026-04-04T13:19:58.763Z</time></trkpt><trkpt lat="42.8490467" lon="13.414815"><ele>791.0</ele><time>2026-04-04T13:19:59.762Z</time></trkpt><trkpt lat="42.84904" lon="13.4146783"><ele>791.0</ele><time>2026-04-04T13:20:00.763Z</time></trkpt><trkpt lat="42.849025" lon="13.4145217"><ele>791.0</ele><time>2026-04-04T13:20:01.763Z</time></trkpt><trkpt lat="42.8490083" lon="13.4143733"><ele>791.0</ele><time>2026-04-04T13:20:02.762Z</time></trkpt><trkpt lat="42.8489933" lon="13.4142283"><ele>791.0</ele><time>2026-04-04T13:20:03.762Z</time></trkpt><trkpt lat="42.8489767" lon="13.4140983"><ele>791.8333333333334</ele><time>2026-04-04T13:20:04.762Z</time></trkpt><trkpt lat="42.8489633" lon="13.4139817"><ele>792.6666666666667</ele><time>2026-04-04T13:20:05.763Z</time></trkpt><trkpt lat="42.8489583" lon="13.4138767"><ele>793.5</ele><time>2026-04-04T13:20:06.762Z</time></trkpt><trkpt lat="42.8489733" lon="13.4137817"><ele>794.3333333333333</ele><time>2026-04-04T13:20:07.763Z</time></trkpt><trkpt lat="42.8489917" lon="13.4136883"><ele>795.1666666666666</ele><time>2026-04-04T13:20:08.763Z</time></trkpt><trkpt lat="42.8489867" lon="13.41358"><ele>796.0</ele><time>2026-04-04T13:20:10.762Z</time></trkpt><trkpt lat="42.8489633" lon="13.4134783"><ele>798.0</ele><time>2026-04-04T13:20:12.762Z</time></trkpt><trkpt lat="42.8489567" lon="13.4133183"><ele>800.0</ele><time>2026-04-04T13:20:14.762Z</time></trkpt><trkpt lat="42.848965" lon="13.4131983"><ele>802.0</ele><time>2026-04-04T13:20:15.763Z</time></trkpt><trkpt lat="42.8489767" lon="13.41306"><ele>804.0</ele><time>2026-04-04T13:20:16.762Z</time></trkpt><trkpt lat="42.8489983" lon="13.4129217"><ele>806.0</ele><time>2026-04-04T13:20:17.763Z</time></trkpt><trkpt lat="42.8490267" lon="13.4127767"><ele>807.1666666666667</ele><time>2026-04-04T13:20:18.762Z</time></trkpt><trkpt lat="42.84905" lon="13.4126467"><ele>808.3333333333334</ele><time>2026-04-04T13:20:19.762Z</time></trkpt><trkpt lat="42.8490833" lon="13.412545"><ele>809.5</ele><time>2026-04-04T13:20:20.762Z</time></trkpt><trkpt lat="42.8491367" lon="13.412475"><ele>810.6666666666667</ele><time>2026-04-04T13:20:21.763Z</time></trkpt><trkpt lat="42.8491983" lon="13.4124283"><ele>811.8333333333334</ele><time>2026-04-04T13:20:22.763Z</time></trkpt><trkpt lat="42.84927" lon="13.4124117"><ele>813.0</ele><time>2026-04-04T13:20:23.763Z</time></trkpt><trkpt lat="42.84934" lon="13.4123917"><ele>813.0</ele><time>2026-04-04T13:20:24.762Z</time></trkpt><trkpt lat="42.849425" lon="13.4122733"><ele>813.0</ele><time>2026-04-04T13:20:26.762Z</time></trkpt><trkpt lat="42.84945" lon="13.41218"><ele>813.0</ele><time>2026-04-04T13:20:27.762Z</time></trkpt><trkpt lat="42.84943" lon="13.4120467"><ele>813.0</ele><time>2026-04-04T13:20:28.762Z</time></trkpt><trkpt lat="42.8493817" lon="13.4118967"><ele>813.0</ele><time>2026-04-04T13:20:29.762Z</time></trkpt><trkpt lat="42.849335" lon="13.4117633"><ele>813.1666666666666</ele><time>2026-04-04T13:20:30.762Z</time></trkpt><trkpt lat="42.84928" lon="13.41164"><ele>813.3333333333333</ele><time>2026-04-04T13:20:31.762Z</time></trkpt><trkpt lat="42.84923" lon="13.411535"><ele>813.5</ele><time>2026-04-04T13:20:32.762Z</time></trkpt><trkpt lat="42.8491883" lon="13.41145"><ele>813.6666666666666</ele><time>2026-04-04T13:20:33.763Z</time></trkpt><trkpt lat="42.849155" lon="13.4113683"><ele>813.8333333333333</ele><time>2026-04-04T13:20:34.762Z</time></trkpt><trkpt lat="42.8490817" lon="13.4112617"><ele>814.0</ele><time>2026-04-04T13:20:36.763Z</time></trkpt><trkpt lat="42.8490117" lon="13.4111517"><ele>813.9999999999999</ele><time>2026-04-04T13:20:38.762Z</time></trkpt><trkpt lat="42.8489583" lon="13.411095"><ele>814.0</ele><time>2026-04-04T13:20:39.763Z</time></trkpt><trkpt lat="42.8488983" lon="13.4110283"><ele>814.0</ele><time>2026-04-04T13:20:40.762Z</time></trkpt><trkpt lat="42.8488367" lon="13.4109467"><ele>814.0</ele><time>2026-04-04T13:20:41.763Z</time></trkpt><trkpt lat="42.8487783" lon="13.4108617"><ele>813.9999999999999</ele><time>2026-04-04T13:20:42.762Z</time></trkpt><trkpt lat="42.8487183" lon="13.410785"><ele>814.0</ele><time>2026-04-04T13:20:43.762Z</time></trkpt><trkpt lat="42.848655" lon="13.41071"><ele>813.9999999999999</ele><time>2026-04-04T13:20:44.762Z</time></trkpt><trkpt lat="42.8485883" lon="13.4106433"><ele>814.0</ele><time>2026-04-04T13:20:45.763Z</time></trkpt><trkpt lat="42.8485267" lon="13.4105733"><ele>814.0</ele><time>2026-04-04T13:20:46.762Z</time></trkpt><trkpt lat="42.8484733" lon="13.41049"><ele>814.0</ele><time>2026-04-04T13:20:47.762Z</time></trkpt><trkpt lat="42.8484217" lon="13.4103883"><ele>813.9999999999999</ele><time>2026-04-04T13:20:48.762Z</time></trkpt><trkpt lat="42.8483667" lon="13.4102633"><ele>814.0</ele><time>2026-04-04T13:20:50.762Z</time></trkpt><trkpt lat="42.8484367" lon="13.4103717"><ele>813.9999999999999</ele><time>2026-04-04T13:24:26.761Z</time></trkpt><trkpt lat="42.8485133" lon="13.4105033"><ele>814.0</ele><time>2026-04-04T13:24:28.762Z</time></trkpt><trkpt lat="42.8485567" lon="13.4105767"><ele>814.0</ele><time>2026-04-04T13:24:29.761Z</time></trkpt><trkpt lat="42.8486083" lon="13.41065"><ele>814.0</ele><time>2026-04-04T13:24:30.762Z</time></trkpt><trkpt lat="42.848665" lon="13.41072"><ele>813.9999999999999</ele><time>2026-04-04T13:24:31.761Z</time></trkpt><trkpt lat="42.84872" lon="13.4107883"><ele>814.0</ele><time>2026-04-04T13:24:32.762Z</time></trkpt><trkpt lat="42.8487717" lon="13.4108767"><ele>814.0</ele><time>2026-04-04T13:24:33.761Z</time></trkpt><trkpt lat="42.8488217" lon="13.4109567"><ele>814.0</ele><time>2026-04-04T13:24:34.761Z</time></trkpt><trkpt lat="42.848865" lon="13.41102"><ele>814.0</ele><time>2026-04-04T13:24:35.762Z</time></trkpt><trkpt lat="42.8489567" lon="13.4111167"><ele>814.0</ele><time>2026-04-04T13:24:37.761Z</time></trkpt><trkpt lat="42.8490333" lon="13.411205"><ele>814.0</ele><time>2026-04-04T13:24:39.762Z</time></trkpt><trkpt lat="42.8491133" lon="13.4113183"><ele>813.2857142857143</ele><time>2026-04-04T13:24:41.762Z</time></trkpt><trkpt lat="42.8491583" lon="13.4113933"><ele>812.5714285714286</ele><time>2026-04-04T13:24:42.761Z</time></trkpt><trkpt lat="42.8491883" lon="13.41147"><ele>811.8571428571429</ele><time>2026-04-04T13:24:43.761Z</time></trkpt><trkpt lat="42.8492183" lon="13.4115483"><ele>811.1428571428571</ele><time>2026-04-04T13:24:44.762Z</time></trkpt><trkpt lat="42.8492533" lon="13.41163"><ele>810.4285714285714</ele><time>2026-04-04T13:24:45.761Z</time></trkpt><trkpt lat="42.8492883" lon="13.4117067"><ele>809.7142857142858</ele><time>2026-04-04T13:24:46.761Z</time></trkpt><trkpt lat="42.84935" lon="13.4118283"><ele>809.0</ele><time>2026-04-04T13:24:48.761Z</time></trkpt><trkpt lat="42.84938" lon="13.4119533"><ele>809.0000000000001</ele><time>2026-04-04T13:24:50.761Z</time></trkpt><trkpt lat="42.8493933" lon="13.4120783"><ele>809.0</ele><time>2026-04-04T13:24:52.762Z</time></trkpt><trkpt lat="42.8493967" lon="13.412195"><ele>809.0</ele><time>2026-04-04T13:24:54.761Z</time></trkpt><trkpt lat="42.849405" lon="13.4122817"><ele>809.0</ele><time>2026-04-04T13:24:56.761Z</time></trkpt><trkpt lat="42.849365" lon="13.412365"><ele>809.0000000000001</ele><time>2026-04-04T13:24:59.761Z</time></trkpt><trkpt lat="42.849295" lon="13.4124"><ele>809.0</ele><time>2026-04-04T13:25:06.761Z</time></trkpt><trkpt lat="42.849215" lon="13.4124367"><ele>811.2</ele><time>2026-04-04T13:25:07.761Z</time></trkpt><trkpt lat="42.8491417" lon="13.4124917"><ele>813.4000000000001</ele><time>2026-04-04T13:25:08.761Z</time></trkpt><trkpt lat="42.8490817" lon="13.4125567"><ele>815.6</ele><time>2026-04-04T13:25:09.762Z</time></trkpt><trkpt lat="42.8490433" lon="13.412645"><ele>817.8</ele><time>2026-04-04T13:25:10.762Z</time></trkpt><trkpt lat="42.8490117" lon="13.4127783"><ele>820.0</ele><time>2026-04-04T13:25:11.761Z</time></trkpt><trkpt lat="42.848995" lon="13.4129667"><ele>817.2</ele><time>2026-04-04T13:25:12.761Z</time></trkpt><trkpt lat="42.84897" lon="13.4131483"><ele>814.4</ele><time>2026-04-04T13:25:13.761Z</time></trkpt><trkpt lat="42.8489483" lon="13.413305"><ele>811.5999999999999</ele><time>2026-04-04T13:25:14.761Z</time></trkpt><trkpt lat="42.848945" lon="13.4134233"><ele>808.8</ele><time>2026-04-04T13:25:15.761Z</time></trkpt><trkpt lat="42.848935" lon="13.4135117"><ele>806.0</ele><time>2026-04-04T13:25:16.762Z</time></trkpt><trkpt lat="42.848915" lon="13.41366"><ele>806.0</ele><time>2026-04-04T13:25:18.761Z</time></trkpt><trkpt lat="42.8488483" lon="13.4138067"><ele>806.0</ele><time>2026-04-04T13:25:20.761Z</time></trkpt><trkpt lat="42.8488017" lon="13.4138767"><ele>806.0</ele><time>2026-04-04T13:25:21.761Z</time></trkpt><trkpt lat="42.84875" lon="13.41393"><ele>806.0</ele><time>2026-04-04T13:25:22.762Z</time></trkpt><trkpt lat="42.8486483" lon="13.41394"><ele>806.0</ele><time>2026-04-04T13:25:24.761Z</time></trkpt><trkpt lat="42.8485417" lon="13.4138633"><ele>806.0</ele><time>2026-04-04T13:25:26.762Z</time></trkpt><trkpt lat="42.8484833" lon="13.41381"><ele>806.0</ele><time>2026-04-04T13:25:27.761Z</time></trkpt><trkpt lat="42.8483933" lon="13.41369"><ele>806.0</ele><time>2026-04-04T13:25:29.761Z</time></trkpt><trkpt lat="42.8483317" lon="13.4136167"><ele>806.0</ele><time>2026-04-04T13:25:30.762Z</time></trkpt><trkpt lat="42.8482483" lon="13.4135417"><ele>806.0</ele><time>2026-04-04T13:25:31.761Z</time></trkpt><trkpt lat="42.84815" lon="13.413455"><ele>808.4</ele><time>2026-04-04T13:25:32.761Z</time></trkpt><trkpt lat="42.8480417" lon="13.41337"><ele>810.8</ele><time>2026-04-04T13:25:33.761Z</time></trkpt><trkpt lat="42.8479517" lon="13.4133067"><ele>813.1999999999999</ele><time>2026-04-04T13:25:34.761Z</time></trkpt><trkpt lat="42.8478667" lon="13.413265"><ele>815.5999999999999</ele><time>2026-04-04T13:25:35.762Z</time></trkpt><trkpt lat="42.8477917" lon="13.4132433"><ele>818.0</ele><time>2026-04-04T13:25:36.761Z</time></trkpt><trkpt lat="42.8477133" lon="13.4132267"><ele>818.0000000000001</ele><time>2026-04-04T13:25:37.762Z</time></trkpt><trkpt lat="42.8476317" lon="13.4132333"><ele>818.0</ele><time>2026-04-04T13:25:38.761Z</time></trkpt><trkpt lat="42.84755" lon="13.4132583"><ele>818.0</ele><time>2026-04-04T13:25:39.761Z</time></trkpt><trkpt lat="42.847475" lon="13.4133033"><ele>818.0</ele><time>2026-04-04T13:25:40.762Z</time></trkpt><trkpt lat="42.847405" lon="13.413365"><ele>818.0000000000001</ele><time>2026-04-04T13:25:41.761Z</time></trkpt><trkpt lat="42.8473333" lon="13.4134283"><ele>818.0</ele><time>2026-04-04T13:25:42.761Z</time></trkpt><trkpt lat="42.847265" lon="13.4134883"><ele>814.5999999999999</ele><time>2026-04-04T13:25:43.761Z</time></trkpt><trkpt lat="42.8472067" lon="13.4135467"><ele>811.1999999999999</ele><time>2026-04-04T13:25:44.761Z</time></trkpt><trkpt lat="42.847105" lon="13.4136283"><ele>807.8</ele><time>2026-04-04T13:25:46.761Z</time></trkpt><trkpt lat="42.8469917" lon="13.4137367"><ele>804.4</ele><time>2026-04-04T13:25:48.761Z</time></trkpt><trkpt lat="42.846925" lon="13.4138017"><ele>801.0</ele><time>2026-04-04T13:25:49.761Z</time></trkpt><trkpt lat="42.846855" lon="13.4138767"><ele>796.5999999999999</ele><time>2026-04-04T13:25:50.761Z</time></trkpt><trkpt lat="42.84678" lon="13.413965"><ele>792.2</ele><time>2026-04-04T13:25:51.761Z</time></trkpt><trkpt lat="42.8467067" lon="13.4140483"><ele>787.8</ele><time>2026-04-04T13:25:52.761Z</time></trkpt><trkpt lat="42.8466383" lon="13.4141333"><ele>783.4000000000001</ele><time>2026-04-04T13:25:53.761Z</time></trkpt><trkpt lat="42.8465767" lon="13.4142083"><ele>779.0</ele><time>2026-04-04T13:25:54.761Z</time></trkpt><trkpt lat="42.84651" lon="13.4142783"><ele>779.0000000000001</ele><time>2026-04-04T13:25:55.761Z</time></trkpt><trkpt lat="42.8464383" lon="13.4143517"><ele>779.0</ele><time>2026-04-04T13:25:56.761Z</time></trkpt><trkpt lat="42.84637" lon="13.41443"><ele>779.0</ele><time>2026-04-04T13:25:57.762Z</time></trkpt><trkpt lat="42.84631" lon="13.4145067"><ele>779.0</ele><time>2026-04-04T13:25:58.762Z</time></trkpt><trkpt lat="42.8462433" lon="13.4145833"><ele>779.0000000000001</ele><time>2026-04-04T13:25:59.762Z</time></trkpt><trkpt lat="42.8461817" lon="13.4146533"><ele>779.0</ele><time>2026-04-04T13:26:00.762Z</time></trkpt><trkpt lat="42.8461133" lon="13.4147233"><ele>775.6</ele><time>2026-04-04T13:26:01.761Z</time></trkpt><trkpt lat="42.8460383" lon="13.414805"><ele>772.2</ele><time>2026-04-04T13:26:02.761Z</time></trkpt><trkpt lat="42.8459583" lon="13.4148917"><ele>768.8000000000001</ele><time>2026-04-04T13:26:03.761Z</time></trkpt><trkpt lat="42.845885" lon="13.4149867"><ele>765.4000000000001</ele><time>2026-04-04T13:26:04.761Z</time></trkpt><trkpt lat="42.84581" lon="13.41509"><ele>762.0</ele><time>2026-04-04T13:26:05.761Z</time></trkpt><trkpt lat="42.845735" lon="13.4151883"><ele>762.0</ele><time>2026-04-04T13:26:06.761Z</time></trkpt><trkpt lat="42.8456667" lon="13.415285"><ele>762.0</ele><time>2026-04-04T13:26:07.762Z</time></trkpt><trkpt lat="42.8456033" lon="13.4153767"><ele>762.0</ele><time>2026-04-04T13:26:08.761Z</time></trkpt><trkpt lat="42.84555" lon="13.41546"><ele>762.0</ele><time>2026-04-04T13:26:09.761Z</time></trkpt><trkpt lat="42.8454817" lon="13.4155933"><ele>762.0</ele><time>2026-04-04T13:26:11.762Z</time></trkpt><trkpt lat="42.84544" lon="13.41569"><ele>762.0</ele><time>2026-04-04T13:26:13.762Z</time></trkpt><trkpt lat="42.84537" lon="13.4157033"><ele>762.0</ele><time>2026-04-04T13:26:16.761Z</time></trkpt><trkpt lat="42.8453083" lon="13.4156017"><ele>762.0</ele><time>2026-04-04T13:26:18.762Z</time></trkpt><trkpt lat="42.84527" lon="13.415505"><ele>762.0</ele><time>2026-04-04T13:26:19.761Z</time></trkpt><trkpt lat="42.8452317" lon="13.4153833"><ele>762.0</ele><time>2026-04-04T13:26:20.762Z</time></trkpt><trkpt lat="42.8451917" lon="13.415265"><ele>762.0</ele><time>2026-04-04T13:26:21.761Z</time></trkpt><trkpt lat="42.845145" lon="13.41515"><ele>757.8</ele><time>2026-04-04T13:26:22.761Z</time></trkpt><trkpt lat="42.8451067" lon="13.415035"><ele>753.6</ele><time>2026-04-04T13:26:23.761Z</time></trkpt><trkpt lat="42.8450867" lon="13.41491"><ele>749.4</ele><time>2026-04-04T13:26:24.761Z</time></trkpt><trkpt lat="42.8450733" lon="13.414765"><ele>745.1999999999999</ele><time>2026-04-04T13:26:25.761Z</time></trkpt><trkpt lat="42.8450583" lon="13.4146017"><ele>741.0</ele><time>2026-04-04T13:26:26.762Z</time></trkpt><trkpt lat="42.84504" lon="13.4144383"><ele>741.0</ele><time>2026-04-04T13:26:27.762Z</time></trkpt><trkpt lat="42.84501" lon="13.4142683"><ele>741.0</ele><time>2026-04-04T13:26:28.761Z</time></trkpt><trkpt lat="42.8449967" lon="13.41409"><ele>741.0</ele><time>2026-04-04T13:26:29.761Z</time></trkpt><trkpt lat="42.8449867" lon="13.4139117"><ele>741.0</ele><time>2026-04-04T13:26:30.761Z</time></trkpt><trkpt lat="42.8449683" lon="13.413745"><ele>742.1999999999999</ele><time>2026-04-04T13:26:31.761Z</time></trkpt><trkpt lat="42.8449333" lon="13.413595"><ele>743.4</ele><time>2026-04-04T13:26:32.761Z</time></trkpt><trkpt lat="42.8448867" lon="13.4134567"><ele>744.6</ele><time>2026-04-04T13:26:33.761Z</time></trkpt><trkpt lat="42.8448167" lon="13.413345"><ele>745.8</ele><time>2026-04-04T13:26:34.762Z</time></trkpt><trkpt lat="42.8447583" lon="13.4132417"><ele>747.0</ele><time>2026-04-04T13:26:35.761Z</time></trkpt><trkpt lat="42.844725" lon="13.4131417"><ele>747.0</ele><time>2026-04-04T13:26:36.761Z</time></trkpt><trkpt lat="42.8447133" lon="13.4130067"><ele>747.0</ele><time>2026-04-04T13:26:37.761Z</time></trkpt><trkpt lat="42.8447083" lon="13.4128667"><ele>747.0</ele><time>2026-04-04T13:26:38.761Z</time></trkpt><trkpt lat="42.844705" lon="13.4127133"><ele>747.0</ele><time>2026-04-04T13:26:39.761Z</time></trkpt><trkpt lat="42.8446867" lon="13.4125617"><ele>747.0</ele><time>2026-04-04T13:26:40.761Z</time></trkpt><trkpt lat="42.844655" lon="13.4124033"><ele>747.6</ele><time>2026-04-04T13:26:41.761Z</time></trkpt><trkpt lat="42.8446217" lon="13.4122683"><ele>748.2</ele><time>2026-04-04T13:26:42.761Z</time></trkpt><trkpt lat="42.8445733" lon="13.4121617"><ele>748.8</ele><time>2026-04-04T13:26:43.761Z</time></trkpt><trkpt lat="42.8445033" lon="13.4120967"><ele>749.4</ele><time>2026-04-04T13:26:44.761Z</time></trkpt><trkpt lat="42.8444167" lon="13.412045"><ele>750.0</ele><time>2026-04-04T13:26:45.761Z</time></trkpt><trkpt lat="42.8443033" lon="13.4120217"><ele>748.2</ele><time>2026-04-04T13:26:46.761Z</time></trkpt><trkpt lat="42.8441967" lon="13.412005"><ele>746.4</ele><time>2026-04-04T13:26:47.761Z</time></trkpt><trkpt lat="42.84409" lon="13.4120083"><ele>744.5999999999999</ele><time>2026-04-04T13:26:48.762Z</time></trkpt><trkpt lat="42.8439817" lon="13.4120367"><ele>742.8</ele><time>2026-04-04T13:26:49.761Z</time></trkpt><trkpt lat="42.84388" lon="13.412075"><ele>741.0</ele><time>2026-04-04T13:26:50.762Z</time></trkpt><trkpt lat="42.843785" lon="13.4120933"><ele>741.0</ele><time>2026-04-04T13:26:51.761Z</time></trkpt><trkpt lat="42.84371" lon="13.412085"><ele>741.0</ele><time>2026-04-04T13:26:52.761Z</time></trkpt><trkpt lat="42.8436517" lon="13.4120283"><ele>741.0</ele><time>2026-04-04T13:26:53.761Z</time></trkpt><trkpt lat="42.8436133" lon="13.4119367"><ele>741.0</ele><time>2026-04-04T13:26:54.761Z</time></trkpt><trkpt lat="42.84359" lon="13.4118117"><ele>741.0</ele><time>2026-04-04T13:26:55.761Z</time></trkpt><trkpt lat="42.8435867" lon="13.4116717"><ele>741.0</ele><time>2026-04-04T13:26:56.762Z</time></trkpt><trkpt lat="42.8435817" lon="13.4115283"><ele>741.0</ele><time>2026-04-04T13:26:57.762Z</time></trkpt><trkpt lat="42.8435767" lon="13.4113883"><ele>741.0</ele><time>2026-04-04T13:26:58.762Z</time></trkpt><trkpt lat="42.8435433" lon="13.411285"><ele>741.0</ele><time>2026-04-04T13:26:59.762Z</time></trkpt><trkpt lat="42.84349" lon="13.411205"><ele>741.0</ele><time>2026-04-04T13:27:00.762Z</time></trkpt><trkpt lat="42.8434233" lon="13.4111383"><ele>741.0</ele><time>2026-04-04T13:27:01.761Z</time></trkpt><trkpt lat="42.843355" lon="13.411105"><ele>741.0</ele><time>2026-04-04T13:27:02.761Z</time></trkpt><trkpt lat="42.8432717" lon="13.4110983"><ele>740.4</ele><time>2026-04-04T13:27:03.761Z</time></trkpt><trkpt lat="42.843185" lon="13.411125"><ele>739.8</ele><time>2026-04-04T13:27:04.761Z</time></trkpt><trkpt lat="42.8431" lon="13.41116"><ele>739.1999999999999</ele><time>2026-04-04T13:27:05.761Z</time></trkpt><trkpt lat="42.84301" lon="13.4111817"><ele>738.5999999999999</ele><time>2026-04-04T13:27:06.761Z</time></trkpt><trkpt lat="42.8429133" lon="13.411175"><ele>738.0</ele><time>2026-04-04T13:27:07.762Z</time></trkpt><trkpt lat="42.8428317" lon="13.4111333"><ele>738.0</ele><time>2026-04-04T13:27:08.762Z</time></trkpt><trkpt lat="42.8427867" lon="13.4110517"><ele>738.0</ele><time>2026-04-04T13:27:09.761Z</time></trkpt><trkpt lat="42.8427633" lon="13.41095"><ele>738.0</ele><time>2026-04-04T13:27:10.762Z</time></trkpt><trkpt lat="42.8427567" lon="13.410825"><ele>738.0</ele><time>2026-04-04T13:27:11.761Z</time></trkpt><trkpt lat="42.8427633" lon="13.410685"><ele>738.0</ele><time>2026-04-04T13:27:12.762Z</time></trkpt><trkpt lat="42.8427667" lon="13.4105467"><ele>738.0</ele><time>2026-04-04T13:27:13.761Z</time></trkpt><trkpt lat="42.8427533" lon="13.4104317"><ele>736.1666666666666</ele><time>2026-04-04T13:27:14.761Z</time></trkpt><trkpt lat="42.842715" lon="13.4103233"><ele>734.3333333333334</ele><time>2026-04-04T13:27:15.761Z</time></trkpt><trkpt lat="42.84267" lon="13.4102267"><ele>732.5</ele><time>2026-04-04T13:27:16.762Z</time></trkpt><trkpt lat="42.8426133" lon="13.410145"><ele>730.6666666666667</ele><time>2026-04-04T13:27:17.761Z</time></trkpt><trkpt lat="42.842545" lon="13.4100617"><ele>728.8333333333334</ele><time>2026-04-04T13:27:18.761Z</time></trkpt><trkpt lat="42.842485" lon="13.409995"><ele>727.0</ele><time>2026-04-04T13:27:19.762Z</time></trkpt><trkpt lat="42.84243" lon="13.4099333"><ele>727.0</ele><time>2026-04-04T13:27:20.762Z</time></trkpt><trkpt lat="42.8423717" lon="13.4098983"><ele>727.0</ele><time>2026-04-04T13:27:21.761Z</time></trkpt><trkpt lat="42.8422683" lon="13.4098883"><ele>727.0</ele><time>2026-04-04T13:27:23.762Z</time></trkpt><trkpt lat="42.8421533" lon="13.4099483"><ele>727.0</ele><time>2026-04-04T13:27:25.761Z</time></trkpt><trkpt lat="42.8420833" lon="13.40998"><ele>727.0</ele><time>2026-04-04T13:27:26.761Z</time></trkpt><trkpt lat="42.8420017" lon="13.4100133"><ele>727.0</ele><time>2026-04-04T13:27:27.761Z</time></trkpt><trkpt lat="42.8419283" lon="13.410015"><ele>727.0</ele><time>2026-04-04T13:27:28.761Z</time></trkpt><trkpt lat="42.8418633" lon="13.40997"><ele>727.0</ele><time>2026-04-04T13:27:29.761Z</time></trkpt><trkpt lat="42.8418067" lon="13.4098767"><ele>727.0</ele><time>2026-04-04T13:27:30.761Z</time></trkpt><trkpt lat="42.841765" lon="13.4097517"><ele>727.0</ele><time>2026-04-04T13:27:31.761Z</time></trkpt><trkpt lat="42.841725" lon="13.409615"><ele>727.0</ele><time>2026-04-04T13:27:32.762Z</time></trkpt><trkpt lat="42.8416867" lon="13.40948"><ele>728.0</ele><time>2026-04-04T13:27:33.762Z</time></trkpt><trkpt lat="42.841655" lon="13.4093467"><ele>729.0</ele><time>2026-04-04T13:27:34.761Z</time></trkpt><trkpt lat="42.84163" lon="13.40924"><ele>730.0</ele><time>2026-04-04T13:27:35.761Z</time></trkpt><trkpt lat="42.8415933" lon="13.40916"><ele>731.0</ele><time>2026-04-04T13:27:36.761Z</time></trkpt><trkpt lat="42.841495" lon="13.4090917"><ele>732.0</ele><time>2026-04-04T13:27:38.761Z</time></trkpt><trkpt lat="42.8414133" lon="13.4091383"><ele>732.0</ele><time>2026-04-04T13:27:39.762Z</time></trkpt><trkpt lat="42.8413383" lon="13.4091867"><ele>732.0</ele><time>2026-04-04T13:27:40.761Z</time></trkpt><trkpt lat="42.841265" lon="13.40921"><ele>732.0</ele><time>2026-04-04T13:27:41.762Z</time></trkpt><trkpt lat="42.841195" lon="13.4092017"><ele>732.0</ele><time>2026-04-04T13:27:42.761Z</time></trkpt><trkpt lat="42.84112" lon="13.4091667"><ele>732.0</ele><time>2026-04-04T13:27:43.761Z</time></trkpt><trkpt lat="42.8410317" lon="13.4091083"><ele>732.0</ele><time>2026-04-04T13:27:44.761Z</time></trkpt><trkpt lat="42.8409533" lon="13.4090217"><ele>734.4000000000001</ele><time>2026-04-04T13:27:45.762Z</time></trkpt><trkpt lat="42.8408967" lon="13.4088917"><ele>736.8000000000001</ele><time>2026-04-04T13:27:46.762Z</time></trkpt><trkpt lat="42.840855" lon="13.4087667"><ele>739.2</ele><time>2026-04-04T13:27:47.761Z</time></trkpt><trkpt lat="42.8408033" lon="13.4086633"><ele>741.6</ele><time>2026-04-04T13:27:48.761Z</time></trkpt><trkpt lat="42.8407517" lon="13.4085867"><ele>744.0</ele><time>2026-04-04T13:27:49.762Z</time></trkpt><trkpt lat="42.840655" lon="13.4085967"><ele>744.0</ele><time>2026-04-04T13:27:51.762Z</time></trkpt><trkpt lat="42.8405983" lon="13.4086683"><ele>744.0</ele><time>2026-04-04T13:27:52.761Z</time></trkpt><trkpt lat="42.8405267" lon="13.4087533"><ele>744.0</ele><time>2026-04-04T13:27:53.761Z</time></trkpt><trkpt lat="42.840465" lon="13.4088583"><ele>744.0</ele><time>2026-04-04T13:27:54.761Z</time></trkpt><trkpt lat="42.8403983" lon="13.4089633"><ele>744.0</ele><time>2026-04-04T13:27:55.761Z</time></trkpt><trkpt lat="42.84034" lon="13.4090567"><ele>741.0</ele><time>2026-04-04T13:27:56.762Z</time></trkpt><trkpt lat="42.840275" lon="13.40912"><ele>738.0</ele><time>2026-04-04T13:27:57.761Z</time></trkpt><trkpt lat="42.8402117" lon="13.4091467"><ele>735.0</ele><time>2026-04-04T13:27:58.762Z</time></trkpt><trkpt lat="42.84013" lon="13.409145"><ele>732.0</ele><time>2026-04-04T13:27:59.761Z</time></trkpt><trkpt lat="42.84004" lon="13.40914"><ele>729.0</ele><time>2026-04-04T13:28:00.761Z</time></trkpt><trkpt lat="42.839935" lon="13.40913"><ele>726.0</ele><time>2026-04-04T13:28:01.761Z</time></trkpt><trkpt lat="42.8398217" lon="13.4091183"><ele>726.0</ele><time>2026-04-04T13:28:02.762Z</time></trkpt><trkpt lat="42.83971" lon="13.4091033"><ele>726.0</ele><time>2026-04-04T13:28:03.762Z</time></trkpt><trkpt lat="42.8396133" lon="13.40907"><ele>726.0</ele><time>2026-04-04T13:28:04.761Z</time></trkpt><trkpt lat="42.8395217" lon="13.4090217"><ele>726.0</ele><time>2026-04-04T13:28:05.761Z</time></trkpt><trkpt lat="42.8394367" lon="13.408955"><ele>726.0</ele><time>2026-04-04T13:28:06.761Z</time></trkpt><trkpt lat="42.8393483" lon="13.4088683"><ele>729.5999999999999</ele><time>2026-04-04T13:28:07.761Z</time></trkpt><trkpt lat="42.8392717" lon="13.4087633"><ele>733.2</ele><time>2026-04-04T13:28:08.761Z</time></trkpt><trkpt lat="42.8392017" lon="13.40866"><ele>736.8</ele><time>2026-04-04T13:28:09.761Z</time></trkpt><trkpt lat="42.83912" lon="13.4085617"><ele>740.4000000000001</ele><time>2026-04-04T13:28:10.761Z</time></trkpt><trkpt lat="42.839035" lon="13.40846"><ele>744.0</ele><time>2026-04-04T13:28:11.762Z</time></trkpt><trkpt lat="42.8389483" lon="13.4083533"><ele>744.0</ele><time>2026-04-04T13:28:12.761Z</time></trkpt><trkpt lat="42.8388683" lon="13.4082517"><ele>744.0</ele><time>2026-04-04T13:28:13.761Z</time></trkpt><trkpt lat="42.8388017" lon="13.40815"><ele>744.0</ele><time>2026-04-04T13:28:14.761Z</time></trkpt><trkpt lat="42.83874" lon="13.4080333"><ele>744.0</ele><time>2026-04-04T13:28:15.761Z</time></trkpt><trkpt lat="42.8386817" lon="13.4079083"><ele>744.0</ele><time>2026-04-04T13:28:16.762Z</time></trkpt><trkpt lat="42.8386283" lon="13.40778"><ele>743.6666666666666</ele><time>2026-04-04T13:28:17.762Z</time></trkpt><trkpt lat="42.83858" lon="13.4076567"><ele>743.3333333333334</ele><time>2026-04-04T13:28:18.761Z</time></trkpt><trkpt lat="42.8385333" lon="13.40754"><ele>743.0</ele><time>2026-04-04T13:28:19.762Z</time></trkpt><trkpt lat="42.8384983" lon="13.4074267"><ele>742.6666666666667</ele><time>2026-04-04T13:28:20.761Z</time></trkpt><trkpt lat="42.8384767" lon="13.4073167"><ele>742.3333333333334</ele><time>2026-04-04T13:28:21.762Z</time></trkpt><trkpt lat="42.83845" lon="13.4072233"><ele>742.0</ele><time>2026-04-04T13:28:22.761Z</time></trkpt><trkpt lat="42.8383867" lon="13.4071183"><ele>742.0</ele><time>2026-04-04T13:28:24.762Z</time></trkpt><trkpt lat="42.8382867" lon="13.4071517"><ele>742.0</ele><time>2026-04-04T13:28:26.762Z</time></trkpt><trkpt lat="42.8382283" lon="13.4072283"><ele>742.0</ele><time>2026-04-04T13:28:27.761Z</time></trkpt><trkpt lat="42.8381767" lon="13.4073283"><ele>742.0</ele><time>2026-04-04T13:28:28.762Z</time></trkpt><trkpt lat="42.8381317" lon="13.407445"><ele>742.0</ele><time>2026-04-04T13:28:29.761Z</time></trkpt><trkpt lat="42.8380917" lon="13.4075767"><ele>742.0</ele><time>2026-04-04T13:28:30.761Z</time></trkpt><trkpt lat="42.838045" lon="13.407705"><ele>742.0</ele><time>2026-04-04T13:28:31.761Z</time></trkpt><trkpt lat="42.8380017" lon="13.407825"><ele>742.0</ele><time>2026-04-04T13:28:32.762Z</time></trkpt><trkpt lat="42.83796" lon="13.4079617"><ele>742.0</ele><time>2026-04-04T13:28:33.762Z</time></trkpt><trkpt lat="42.83793" lon="13.4080917"><ele>742.0</ele><time>2026-04-04T13:28:34.762Z</time></trkpt><trkpt lat="42.8379033" lon="13.4082217"><ele>740.0</ele><time>2026-04-04T13:28:35.761Z</time></trkpt><trkpt lat="42.83789" lon="13.4083467"><ele>738.0</ele><time>2026-04-04T13:28:36.761Z</time></trkpt><trkpt lat="42.837885" lon="13.4084733"><ele>736.0</ele><time>2026-04-04T13:28:37.762Z</time></trkpt><trkpt lat="42.8378883" lon="13.4086033"><ele>734.0</ele><time>2026-04-04T13:28:38.762Z</time></trkpt><trkpt lat="42.8379117" lon="13.408745"><ele>732.0</ele><time>2026-04-04T13:28:39.761Z</time></trkpt><trkpt lat="42.8379433" lon="13.40889"><ele>731.4000000000001</ele><time>2026-04-04T13:28:40.762Z</time></trkpt><trkpt lat="42.8379883" lon="13.4090117"><ele>730.8000000000001</ele><time>2026-04-04T13:28:41.762Z</time></trkpt><trkpt lat="42.8380283" lon="13.4091383"><ele>730.2</ele><time>2026-04-04T13:28:42.761Z</time></trkpt><trkpt lat="42.8380567" lon="13.4092733"><ele>729.6</ele><time>2026-04-04T13:28:43.761Z</time></trkpt><trkpt lat="42.8380833" lon="13.409405"><ele>729.0</ele><time>2026-04-04T13:28:44.761Z</time></trkpt><trkpt lat="42.83808" lon="13.4095183"><ele>729.0</ele><time>2026-04-04T13:28:45.761Z</time></trkpt><trkpt lat="42.8380567" lon="13.4096117"><ele>729.0</ele><time>2026-04-04T13:28:46.761Z</time></trkpt><trkpt lat="42.838" lon="13.409705"><ele>729.0</ele><time>2026-04-04T13:28:47.762Z</time></trkpt><trkpt lat="42.837925" lon="13.409805"><ele>729.0</ele><time>2026-04-04T13:28:48.761Z</time></trkpt><trkpt lat="42.83787" lon="13.4099083"><ele>729.0</ele><time>2026-04-04T13:28:49.762Z</time></trkpt><trkpt lat="42.8378317" lon="13.41002"><ele>730.4000000000001</ele><time>2026-04-04T13:28:50.761Z</time></trkpt><trkpt lat="42.8378333" lon="13.4101633"><ele>731.8</ele><time>2026-04-04T13:28:51.761Z</time></trkpt><trkpt lat="42.83786" lon="13.4102917"><ele>733.2</ele><time>2026-04-04T13:28:52.761Z</time></trkpt><trkpt lat="42.8378983" lon="13.4104233"><ele>734.5999999999999</ele><time>2026-04-04T13:28:53.76Z</time></trkpt><trkpt lat="42.8379483" lon="13.4105667"><ele>736.0</ele><time>2026-04-04T13:28:54.76Z</time></trkpt><trkpt lat="42.8379883" lon="13.41071"><ele>738.75</ele><time>2026-04-04T13:28:55.76Z</time></trkpt><trkpt lat="42.83802" lon="13.4108517"><ele>741.5</ele><time>2026-04-04T13:28:56.761Z</time></trkpt><trkpt lat="42.838045" lon="13.4110017"><ele>744.25</ele><time>2026-04-04T13:28:57.761Z</time></trkpt><trkpt lat="42.8380683" lon="13.4111583"><ele>747.0</ele><time>2026-04-04T13:28:58.76Z</time></trkpt><trkpt lat="42.838085" lon="13.41131"><ele>750.5</ele><time>2026-04-04T13:28:59.76Z</time></trkpt><trkpt lat="42.8380883" lon="13.411465"><ele>754.0</ele><time>2026-04-04T13:29:00.761Z</time></trkpt><trkpt lat="42.8381083" lon="13.4116183"><ele>757.5</ele><time>2026-04-04T13:29:01.76Z</time></trkpt><trkpt lat="42.8381383" lon="13.4117733"><ele>761.0</ele><time>2026-04-04T13:29:02.76Z</time></trkpt><trkpt lat="42.8381917" lon="13.4119133"><ele>761.0</ele><time>2026-04-04T13:29:03.76Z</time></trkpt><trkpt lat="42.8382683" lon="13.4120467"><ele>761.0</ele><time>2026-04-04T13:29:04.761Z</time></trkpt><trkpt lat="42.83836" lon="13.41217"><ele>761.0</ele><time>2026-04-04T13:29:05.76Z</time></trkpt><trkpt lat="42.8384583" lon="13.4122967"><ele>761.0</ele><time>2026-04-04T13:29:06.761Z</time></trkpt><trkpt lat="42.8385683" lon="13.4124167"><ele>760.25</ele><time>2026-04-04T13:29:07.76Z</time></trkpt><trkpt lat="42.838675" lon="13.4125417"><ele>759.5</ele><time>2026-04-04T13:29:08.76Z</time></trkpt><trkpt lat="42.8387767" lon="13.412665"><ele>758.75</ele><time>2026-04-04T13:29:09.76Z</time></trkpt><trkpt lat="42.83886" lon="13.4127783"><ele>758.0</ele><time>2026-04-04T13:29:10.761Z</time></trkpt><trkpt lat="42.8389267" lon="13.41292"><ele>760.0</ele><time>2026-04-04T13:29:11.76Z</time></trkpt><trkpt lat="42.8389867" lon="13.41306"><ele>762.0</ele><time>2026-04-04T13:29:12.76Z</time></trkpt><trkpt lat="42.8390367" lon="13.4132"><ele>764.0</ele><time>2026-04-04T13:29:13.761Z</time></trkpt><trkpt lat="42.8390717" lon="13.413335"><ele>766.0</ele><time>2026-04-04T13:29:14.76Z</time></trkpt><trkpt lat="42.8391117" lon="13.4134633"><ele>768.0</ele><time>2026-04-04T13:29:15.76Z</time></trkpt><trkpt lat="42.8391517" lon="13.41358"><ele>768.0</ele><time>2026-04-04T13:29:16.761Z</time></trkpt><trkpt lat="42.8391833" lon="13.41368"><ele>768.0</ele><time>2026-04-04T13:29:17.761Z</time></trkpt><trkpt lat="42.83921" lon="13.4137833"><ele>768.0</ele><time>2026-04-04T13:29:18.76Z</time></trkpt><trkpt lat="42.839225" lon="13.413885"><ele>768.0</ele><time>2026-04-04T13:29:19.76Z</time></trkpt><trkpt lat="42.839225" lon="13.4140483"><ele>768.0</ele><time>2026-04-04T13:29:21.761Z</time></trkpt><trkpt lat="42.839205" lon="13.41414"><ele>768.0</ele><time>2026-04-04T13:29:31.761Z</time></trkpt><trkpt lat="42.8391367" lon="13.4142083"><ele>768.3333333333334</ele><time>2026-04-04T13:29:33.76Z</time></trkpt><trkpt lat="42.839075" lon="13.41423"><ele>768.6666666666667</ele><time>2026-04-04T13:29:34.761Z</time></trkpt><trkpt lat="42.8389967" lon="13.41423"><ele>769.0</ele><time>2026-04-04T13:29:35.76Z</time></trkpt><trkpt lat="42.8389083" lon="13.4142033"><ele>769.3333333333334</ele><time>2026-04-04T13:29:36.76Z</time></trkpt><trkpt lat="42.8388183" lon="13.4141517"><ele>769.6666666666667</ele><time>2026-04-04T13:29:37.761Z</time></trkpt><trkpt lat="42.83872" lon="13.4140783"><ele>770.0</ele><time>2026-04-04T13:29:38.761Z</time></trkpt><trkpt lat="42.8386217" lon="13.413985"><ele>770.0</ele><time>2026-04-04T13:29:39.76Z</time></trkpt><trkpt lat="42.838525" lon="13.4138967"><ele>770.0</ele><time>2026-04-04T13:29:40.761Z</time></trkpt><trkpt lat="42.8384267" lon="13.4138133"><ele>770.0</ele><time>2026-04-04T13:29:41.761Z</time></trkpt><trkpt lat="42.8383367" lon="13.4137317"><ele>770.0</ele><time>2026-04-04T13:29:42.761Z</time></trkpt><trkpt lat="42.8382433" lon="13.4136517"><ele>771.2</ele><time>2026-04-04T13:29:43.761Z</time></trkpt><trkpt lat="42.8381567" lon="13.4135767"><ele>772.4</ele><time>2026-04-04T13:29:44.76Z</time></trkpt><trkpt lat="42.8380717" lon="13.4135017"><ele>773.5999999999999</ele><time>2026-04-04T13:29:45.76Z</time></trkpt><trkpt lat="42.83799" lon="13.4134317"><ele>774.8</ele><time>2026-04-04T13:29:46.761Z</time></trkpt><trkpt lat="42.8379117" lon="13.4133683"><ele>776.0</ele><time>2026-04-04T13:29:47.761Z</time></trkpt><trkpt lat="42.8378267" lon="13.4133083"><ele>776.0</ele><time>2026-04-04T13:29:48.76Z</time></trkpt><trkpt lat="42.8377383" lon="13.413265"><ele>776.0</ele><time>2026-04-04T13:29:49.76Z</time></trkpt><trkpt lat="42.8376467" lon="13.4132317"><ele>776.0</ele><time>2026-04-04T13:29:50.76Z</time></trkpt><trkpt lat="42.8375513" lon="13.4132082"><ele>776.0</ele><time>2026-04-04T13:29:51.761Z</time></trkpt><trkpt lat="42.8374525" lon="13.4131926"><ele>776.0</ele><time>2026-04-04T13:29:52.76Z</time></trkpt><trkpt lat="42.8373561" lon="13.4131921"><ele>774.4</ele><time>2026-04-04T13:29:53.761Z</time></trkpt><trkpt lat="42.8372656" lon="13.4132175"><ele>772.8</ele><time>2026-04-04T13:29:54.76Z</time></trkpt><trkpt lat="42.8371782" lon="13.4132606"><ele>771.1999999999999</ele><time>2026-04-04T13:29:55.761Z</time></trkpt><trkpt lat="42.8370954" lon="13.4133337"><ele>769.5999999999999</ele><time>2026-04-04T13:29:56.76Z</time></trkpt><trkpt lat="42.8370345" lon="13.4134295"><ele>768.0</ele><time>2026-04-04T13:29:57.76Z</time></trkpt><trkpt lat="42.8369964" lon="13.4135455"><ele>768.0</ele><time>2026-04-04T13:29:58.761Z</time></trkpt><trkpt lat="42.8369757" lon="13.4136709"><ele>768.0</ele><time>2026-04-04T13:29:59.761Z</time></trkpt><trkpt lat="42.83696" lon="13.4137924"><ele>768.0</ele><time>2026-04-04T13:30:00.761Z</time></trkpt><trkpt lat="42.8369378" lon="13.4139059"><ele>768.0</ele><time>2026-04-04T13:30:01.76Z</time></trkpt><trkpt lat="42.8369114" lon="13.414024"><ele>768.0</ele><time>2026-04-04T13:30:02.76Z</time></trkpt><trkpt lat="42.8368754" lon="13.4141347"><ele>765.5999999999999</ele><time>2026-04-04T13:30:03.761Z</time></trkpt><trkpt lat="42.8368353" lon="13.4142386"><ele>763.1999999999999</ele><time>2026-04-04T13:30:04.76Z</time></trkpt><trkpt lat="42.8368028" lon="13.4143551"><ele>760.8</ele><time>2026-04-04T13:30:05.76Z</time></trkpt><trkpt lat="42.8367769" lon="13.4144839"><ele>758.4</ele><time>2026-04-04T13:30:06.76Z</time></trkpt><trkpt lat="42.8367632" lon="13.4146288"><ele>756.0</ele><time>2026-04-04T13:30:07.76Z</time></trkpt><trkpt lat="42.836765" lon="13.4147758"><ele>755.3333333333334</ele><time>2026-04-04T13:30:08.76Z</time></trkpt><trkpt lat="42.8367637" lon="13.414915"><ele>754.6666666666666</ele><time>2026-04-04T13:30:09.76Z</time></trkpt><trkpt lat="42.8367569" lon="13.4150431"><ele>754.0</ele><time>2026-04-04T13:30:10.761Z</time></trkpt><trkpt lat="42.8367459" lon="13.4151588"><ele>753.3333333333333</ele><time>2026-04-04T13:30:11.76Z</time></trkpt><trkpt lat="42.8367253" lon="13.4152649"><ele>752.6666666666666</ele><time>2026-04-04T13:30:12.761Z</time></trkpt><trkpt lat="42.8367067" lon="13.4153559"><ele>752.0</ele><time>2026-04-04T13:30:13.761Z</time></trkpt><trkpt lat="42.8366928" lon="13.4154765"><ele>752.0</ele><time>2026-04-04T13:30:15.76Z</time></trkpt><trkpt lat="42.8366165" lon="13.4154233"><ele>752.0</ele><time>2026-04-04T13:30:23.76Z</time></trkpt><trkpt lat="42.8365536" lon="13.415256"><ele>752.0</ele><time>2026-04-04T13:30:25.761Z</time></trkpt><trkpt lat="42.8365217" lon="13.4151399"><ele>752.0</ele><time>2026-04-04T13:30:26.761Z</time></trkpt><trkpt lat="42.8364908" lon="13.4150049"><ele>752.0</ele><time>2026-04-04T13:30:27.761Z</time></trkpt><trkpt lat="42.8364659" lon="13.4148553"><ele>752.0</ele><time>2026-04-04T13:30:28.76Z</time></trkpt><trkpt lat="42.8364394" lon="13.4147114"><ele>752.0</ele><time>2026-04-04T13:30:29.761Z</time></trkpt><trkpt lat="42.8364105" lon="13.4145778"><ele>752.0</ele><time>2026-04-04T13:30:30.76Z</time></trkpt><trkpt lat="42.8363823" lon="13.4144558"><ele>752.0</ele><time>2026-04-04T13:30:31.761Z</time></trkpt><trkpt lat="42.8363462" lon="13.4143554"><ele>752.0</ele><time>2026-04-04T13:30:32.761Z</time></trkpt><trkpt lat="42.8363013" lon="13.4142808"><ele>752.6666666666666</ele><time>2026-04-04T13:30:33.761Z</time></trkpt><trkpt lat="42.8362432" lon="13.4142305"><ele>753.3333333333333</ele><time>2026-04-04T13:30:34.761Z</time></trkpt><trkpt lat="42.8361889" lon="13.4141859"><ele>754.0</ele><time>2026-04-04T13:30:35.76Z</time></trkpt><trkpt lat="42.8360992" lon="13.4140732"><ele>754.6666666666666</ele><time>2026-04-04T13:30:37.76Z</time></trkpt><trkpt lat="42.8360637" lon="13.4139904"><ele>755.3333333333334</ele><time>2026-04-04T13:30:38.761Z</time></trkpt><trkpt lat="42.8360283" lon="13.4138828"><ele>756.0</ele><time>2026-04-04T13:30:39.76Z</time></trkpt><trkpt lat="42.8359778" lon="13.4137719"><ele>756.0</ele><time>2026-04-04T13:30:40.761Z</time></trkpt><trkpt lat="42.8359211" lon="13.4136608"><ele>756.0</ele><time>2026-04-04T13:30:41.76Z</time></trkpt><trkpt lat="42.8358708" lon="13.4135321"><ele>756.0</ele><time>2026-04-04T13:30:42.76Z</time></trkpt><trkpt lat="42.8358295" lon="13.413391"><ele>756.0</ele><time>2026-04-04T13:30:43.76Z</time></trkpt><trkpt lat="42.8357779" lon="13.413264"><ele>756.0</ele><time>2026-04-04T13:30:44.761Z</time></trkpt><trkpt lat="42.8357098" lon="13.4131674"><ele>756.0</ele><time>2026-04-04T13:30:45.761Z</time></trkpt><trkpt lat="42.835632" lon="13.4130907"><ele>756.0</ele><time>2026-04-04T13:30:46.76Z</time></trkpt><trkpt lat="42.8355601" lon="13.4130291"><ele>756.0</ele><time>2026-04-04T13:30:47.76Z</time></trkpt><trkpt lat="42.8354995" lon="13.4129783"><ele>756.0</ele><time>2026-04-04T13:30:48.761Z</time></trkpt><trkpt lat="42.8354328" lon="13.4128516"><ele>756.0</ele><time>2026-04-04T13:30:50.76Z</time></trkpt><trkpt lat="42.8354153" lon="13.4127636"><ele>756.0</ele><time>2026-04-04T13:30:51.76Z</time></trkpt><trkpt lat="42.8353985" lon="13.4126468"><ele>760.8</ele><time>2026-04-04T13:30:52.761Z</time></trkpt><trkpt lat="42.8353737" lon="13.4125136"><ele>765.5999999999999</ele><time>2026-04-04T13:30:53.761Z</time></trkpt><trkpt lat="42.835347" lon="13.4123733"><ele>770.4</ele><time>2026-04-04T13:30:54.76Z</time></trkpt><trkpt lat="42.8353228" lon="13.4122302"><ele>775.2</ele><time>2026-04-04T13:30:55.76Z</time></trkpt><trkpt lat="42.8352937" lon="13.4120918"><ele>780.0</ele><time>2026-04-04T13:30:56.761Z</time></trkpt><trkpt lat="42.8352544" lon="13.4119634"><ele>783.4</ele><time>2026-04-04T13:30:57.76Z</time></trkpt><trkpt lat="42.8352022" lon="13.4118518"><ele>786.8</ele><time>2026-04-04T13:30:58.761Z</time></trkpt><trkpt lat="42.8351373" lon="13.4117506"><ele>790.2</ele><time>2026-04-04T13:30:59.76Z</time></trkpt><trkpt lat="42.835058" lon="13.4116624"><ele>793.6</ele><time>2026-04-04T13:31:00.761Z</time></trkpt><trkpt lat="42.8349694" lon="13.4115954"><ele>797.0</ele><time>2026-04-04T13:31:01.76Z</time></trkpt><trkpt lat="42.834879" lon="13.4115566"><ele>789.3333333333334</ele><time>2026-04-04T13:31:02.76Z</time></trkpt><trkpt lat="42.8347838" lon="13.4115408"><ele>781.6666666666667</ele><time>2026-04-04T13:31:03.761Z</time></trkpt><trkpt lat="42.8346957" lon="13.411557"><ele>774.0</ele><time>2026-04-04T13:31:04.761Z</time></trkpt><trkpt lat="42.8346075" lon="13.4115738"><ele>766.3333333333334</ele><time>2026-04-04T13:31:05.761Z</time></trkpt><trkpt lat="42.8345259" lon="13.4115879"><ele>758.6666666666667</ele><time>2026-04-04T13:31:06.76Z</time></trkpt><trkpt lat="42.8344499" lon="13.4115921"><ele>751.0</ele><time>2026-04-04T13:31:07.76Z</time></trkpt><trkpt lat="42.834379" lon="13.4115718"><ele>751.1999999999999</ele><time>2026-04-04T13:31:08.761Z</time></trkpt><trkpt lat="42.8342733" lon="13.4114745"><ele>751.4</ele><time>2026-04-04T13:31:10.76Z</time></trkpt><trkpt lat="42.834239" lon="13.4113703"><ele>751.6</ele><time>2026-04-04T13:31:11.76Z</time></trkpt><trkpt lat="42.8342163" lon="13.411234"><ele>751.8</ele><time>2026-04-04T13:31:12.76Z</time></trkpt><trkpt lat="42.834204" lon="13.4110793"><ele>752.0</ele><time>2026-04-04T13:31:13.76Z</time></trkpt><trkpt lat="42.8341879" lon="13.4109229"><ele>752.0</ele><time>2026-04-04T13:31:14.76Z</time></trkpt><trkpt lat="42.8341607" lon="13.4107846"><ele>752.0</ele><time>2026-04-04T13:31:15.761Z</time></trkpt><trkpt lat="42.8341199" lon="13.4106699"><ele>752.0</ele><time>2026-04-04T13:31:16.76Z</time></trkpt><trkpt lat="42.8340556" lon="13.4105827"><ele>752.0</ele><time>2026-04-04T13:31:17.76Z</time></trkpt><trkpt lat="42.8339813" lon="13.4105355"><ele>752.0</ele><time>2026-04-04T13:31:18.761Z</time></trkpt><trkpt lat="42.8338984" lon="13.4105103"><ele>752.0</ele><time>2026-04-04T13:31:19.761Z</time></trkpt><trkpt lat="42.8338116" lon="13.4105153"><ele>752.0</ele><time>2026-04-04T13:31:20.761Z</time></trkpt><trkpt lat="42.8337212" lon="13.4105365"><ele>752.0</ele><time>2026-04-04T13:31:21.76Z</time></trkpt><trkpt lat="42.8336404" lon="13.410549"><ele>752.0</ele><time>2026-04-04T13:31:22.76Z</time></trkpt><trkpt lat="42.8335727" lon="13.4105329"><ele>752.0</ele><time>2026-04-04T13:31:23.761Z</time></trkpt><trkpt lat="42.83348" lon="13.410435"><ele>752.0</ele><time>2026-04-04T13:31:25.761Z</time></trkpt><trkpt lat="42.8334603" lon="13.4103402"><ele>750.0</ele><time>2026-04-04T13:31:26.76Z</time></trkpt><trkpt lat="42.8334497" lon="13.4102155"><ele>748.0</ele><time>2026-04-04T13:31:27.761Z</time></trkpt><trkpt lat="42.8334326" lon="13.4100494"><ele>746.0</ele><time>2026-04-04T13:31:28.761Z</time></trkpt><trkpt lat="42.8334082" lon="13.4098595"><ele>744.0</ele><time>2026-04-04T13:31:29.76Z</time></trkpt><trkpt lat="42.8333842" lon="13.4096636"><ele>748.25</ele><time>2026-04-04T13:31:30.76Z</time></trkpt><trkpt lat="42.8333637" lon="13.409479"><ele>752.5</ele><time>2026-04-04T13:31:31.761Z</time></trkpt><trkpt lat="42.8333478" lon="13.4093168"><ele>756.75</ele><time>2026-04-04T13:31:32.761Z</time></trkpt><trkpt lat="42.833322" lon="13.4091639"><ele>761.0</ele><time>2026-04-04T13:31:33.76Z</time></trkpt><trkpt lat="42.8332925" lon="13.409026"><ele>761.0</ele><time>2026-04-04T13:31:34.76Z</time></trkpt><trkpt lat="42.833244" lon="13.4089106"><ele>761.0</ele><time>2026-04-04T13:31:35.761Z</time></trkpt><trkpt lat="42.8331838" lon="13.4088254"><ele>761.0</ele><time>2026-04-04T13:31:36.76Z</time></trkpt><trkpt lat="42.8331126" lon="13.4087753"><ele>761.0</ele><time>2026-04-04T13:31:37.76Z</time></trkpt><trkpt lat="42.8330358" lon="13.4087528"><ele>761.0</ele><time>2026-04-04T13:31:38.76Z</time></trkpt><trkpt lat="42.8329499" lon="13.4087621"><ele>761.0</ele><time>2026-04-04T13:31:39.76Z</time></trkpt><trkpt lat="42.8328603" lon="13.4087822"><ele>759.8333333333333</ele><time>2026-04-04T13:31:40.76Z</time></trkpt><trkpt lat="42.8327719" lon="13.4087894"><ele>758.6666666666666</ele><time>2026-04-04T13:31:41.76Z</time></trkpt><trkpt lat="42.8326978" lon="13.4087644"><ele>757.5</ele><time>2026-04-04T13:31:42.761Z</time></trkpt><trkpt lat="42.832642" lon="13.4087198"><ele>756.3333333333334</ele><time>2026-04-04T13:31:43.76Z</time></trkpt><trkpt lat="42.8326059" lon="13.4086484"><ele>755.1666666666667</ele><time>2026-04-04T13:31:44.76Z</time></trkpt><trkpt lat="42.8325751" lon="13.4085392"><ele>754.0</ele><time>2026-04-04T13:31:45.76Z</time></trkpt><trkpt lat="42.832528" lon="13.4084206"><ele>754.0</ele><time>2026-04-04T13:31:46.761Z</time></trkpt><trkpt lat="42.832475" lon="13.4082904"><ele>754.0</ele><time>2026-04-04T13:31:47.76Z</time></trkpt><trkpt lat="42.8324199" lon="13.4081738"><ele>754.0</ele><time>2026-04-04T13:31:48.76Z</time></trkpt><trkpt lat="42.8323569" lon="13.4080905"><ele>754.0</ele><time>2026-04-04T13:31:49.76Z</time></trkpt><trkpt lat="42.832294" lon="13.4080404"><ele>754.0</ele><time>2026-04-04T13:31:50.76Z</time></trkpt><trkpt lat="42.8322275" lon="13.4080228"><ele>754.0</ele><time>2026-04-04T13:31:51.761Z</time></trkpt><trkpt lat="42.8321425" lon="13.4080456"><ele>754.0</ele><time>2026-04-04T13:31:52.76Z</time></trkpt><trkpt lat="42.8320622" lon="13.4080874"><ele>754.0</ele><time>2026-04-04T13:31:53.76Z</time></trkpt><trkpt lat="42.8319898" lon="13.4081228"><ele>754.0</ele><time>2026-04-04T13:31:54.76Z</time></trkpt><trkpt lat="42.8318673" lon="13.4080758"><ele>754.0</ele><time>2026-04-04T13:31:56.76Z</time></trkpt><trkpt lat="42.8318149" lon="13.4080123"><ele>754.0</ele><time>2026-04-04T13:31:57.76Z</time></trkpt><trkpt lat="42.8317698" lon="13.4079163"><ele>754.0</ele><time>2026-04-04T13:31:58.76Z</time></trkpt><trkpt lat="42.831725" lon="13.4077817"><ele>756.6</ele><time>2026-04-04T13:31:59.76Z</time></trkpt><trkpt lat="42.8316667" lon="13.4076733"><ele>759.2</ele><time>2026-04-04T13:32:00.761Z</time></trkpt><trkpt lat="42.8316117" lon="13.407585"><ele>761.8000000000001</ele><time>2026-04-04T13:32:01.76Z</time></trkpt><trkpt lat="42.8315683" lon="13.40751"><ele>764.4000000000001</ele><time>2026-04-04T13:32:02.76Z</time></trkpt><trkpt lat="42.83146" lon="13.40746"><ele>767.0</ele><time>2026-04-04T13:32:04.76Z</time></trkpt><trkpt lat="42.8313433" lon="13.4075267"><ele>767.0</ele><time>2026-04-04T13:32:06.761Z</time></trkpt><trkpt lat="42.8312733" lon="13.407585"><ele>767.0</ele><time>2026-04-04T13:32:07.76Z</time></trkpt><trkpt lat="42.831195" lon="13.40763"><ele>767.0</ele><time>2026-04-04T13:32:08.761Z</time></trkpt><trkpt lat="42.8311117" lon="13.40766"><ele>767.0</ele><time>2026-04-04T13:32:09.76Z</time></trkpt><trkpt lat="42.8310217" lon="13.407695"><ele>767.0</ele><time>2026-04-04T13:32:10.761Z</time></trkpt><trkpt lat="42.8309417" lon="13.4077717"><ele>767.0</ele><time>2026-04-04T13:32:11.76Z</time></trkpt><trkpt lat="42.8309167" lon="13.4078783"><ele>763.6</ele><time>2026-04-04T13:32:12.76Z</time></trkpt><trkpt lat="42.8308917" lon="13.4080083"><ele>760.2</ele><time>2026-04-04T13:32:13.76Z</time></trkpt><trkpt lat="42.8308667" lon="13.40814"><ele>756.8</ele><time>2026-04-04T13:32:14.76Z</time></trkpt><trkpt lat="42.830825" lon="13.4082633"><ele>753.4</ele><time>2026-04-04T13:32:15.76Z</time></trkpt><trkpt lat="42.8307933" lon="13.4083617"><ele>750.0</ele><time>2026-04-04T13:32:16.761Z</time></trkpt><trkpt lat="42.8307533" lon="13.408445"><ele>750.0</ele><time>2026-04-04T13:32:17.76Z</time></trkpt><trkpt lat="42.8307033" lon="13.40851"><ele>750.0</ele><time>2026-04-04T13:32:18.761Z</time></trkpt><trkpt lat="42.8306383" lon="13.4085667"><ele>750.0</ele><time>2026-04-04T13:32:19.761Z</time></trkpt><trkpt lat="42.8305533" lon="13.4086083"><ele>750.0</ele><time>2026-04-04T13:32:20.76Z</time></trkpt><trkpt lat="42.83045" lon="13.408635"><ele>750.0</ele><time>2026-04-04T13:32:21.76Z</time></trkpt><trkpt lat="42.8303483" lon="13.4086567"><ele>750.0</ele><time>2026-04-04T13:32:22.76Z</time></trkpt><trkpt lat="42.8302583" lon="13.4086867"><ele>750.0</ele><time>2026-04-04T13:32:23.761Z</time></trkpt><trkpt lat="42.8301983" lon="13.4087233"><ele>750.0</ele><time>2026-04-04T13:32:24.76Z</time></trkpt><trkpt lat="42.83014" lon="13.4087667"><ele>750.0</ele><time>2026-04-04T13:32:25.76Z</time></trkpt><trkpt lat="42.8300733" lon="13.4088833"><ele>750.0</ele><time>2026-04-04T13:32:27.761Z</time></trkpt><trkpt lat="42.8300317" lon="13.4090367"><ele>750.0</ele><time>2026-04-04T13:32:29.76Z</time></trkpt><trkpt lat="42.8300083" lon="13.4091267"><ele>750.0</ele><time>2026-04-04T13:32:30.76Z</time></trkpt><trkpt lat="42.82999" lon="13.4092233"><ele>752.5</ele><time>2026-04-04T13:32:31.76Z</time></trkpt><trkpt lat="42.8300067" lon="13.4093367"><ele>755.0</ele><time>2026-04-04T13:32:32.761Z</time></trkpt><trkpt lat="42.8300417" lon="13.4094433"><ele>757.5</ele><time>2026-04-04T13:32:33.761Z</time></trkpt><trkpt lat="42.8300867" lon="13.4095433"><ele>760.0</ele><time>2026-04-04T13:32:34.76Z</time></trkpt><trkpt lat="42.830155" lon="13.40963"><ele>762.5</ele><time>2026-04-04T13:32:35.76Z</time></trkpt><trkpt lat="42.8302283" lon="13.4097083"><ele>765.0</ele><time>2026-04-04T13:32:36.76Z</time></trkpt><trkpt lat="42.830305" lon="13.409785"><ele>762.8</ele><time>2026-04-04T13:32:37.761Z</time></trkpt><trkpt lat="42.8303633" lon="13.40986"><ele>760.6</ele><time>2026-04-04T13:32:38.761Z</time></trkpt><trkpt lat="42.8303817" lon="13.4099517"><ele>758.4000000000001</ele><time>2026-04-04T13:32:39.76Z</time></trkpt><trkpt lat="42.8303183" lon="13.410095"><ele>756.2</ele><time>2026-04-04T13:32:41.76Z</time></trkpt><trkpt lat="42.8302333" lon="13.41015"><ele>754.0</ele><time>2026-04-04T13:32:42.761Z</time></trkpt><trkpt lat="42.8301283" lon="13.41022"><ele>754.0</ele><time>2026-04-04T13:32:43.76Z</time></trkpt><trkpt lat="42.8300183" lon="13.410285"><ele>754.0</ele><time>2026-04-04T13:32:44.761Z</time></trkpt><trkpt lat="42.8299133" lon="13.4103433"><ele>754.0</ele><time>2026-04-04T13:32:45.76Z</time></trkpt><trkpt lat="42.8298083" lon="13.41037"><ele>754.0</ele><time>2026-04-04T13:32:46.761Z</time></trkpt><trkpt lat="42.82971" lon="13.410365"><ele>754.0</ele><time>2026-04-04T13:32:47.761Z</time></trkpt><trkpt lat="42.8296233" lon="13.4103417"><ele>754.0</ele><time>2026-04-04T13:32:48.76Z</time></trkpt><trkpt lat="42.8295417" lon="13.41033"><ele>754.0</ele><time>2026-04-04T13:32:49.761Z</time></trkpt><trkpt lat="42.8294667" lon="13.410335"><ele>754.0</ele><time>2026-04-04T13:32:50.761Z</time></trkpt><trkpt lat="42.8293867" lon="13.4103717"><ele>754.0</ele><time>2026-04-04T13:32:51.761Z</time></trkpt><trkpt lat="42.8293183" lon="13.41043"><ele>754.0</ele><time>2026-04-04T13:32:52.76Z</time></trkpt><trkpt lat="42.8292667" lon="13.410525"><ele>754.0</ele><time>2026-04-04T13:32:53.76Z</time></trkpt><trkpt lat="42.8292367" lon="13.4106467"><ele>756.0</ele><time>2026-04-04T13:32:54.761Z</time></trkpt><trkpt lat="42.8292233" lon="13.4107817"><ele>758.0</ele><time>2026-04-04T13:32:55.76Z</time></trkpt><trkpt lat="42.82924" lon="13.410905"><ele>760.0</ele><time>2026-04-04T13:32:56.76Z</time></trkpt><trkpt lat="42.8292517" lon="13.4110217"><ele>762.0</ele><time>2026-04-04T13:32:57.76Z</time></trkpt><trkpt lat="42.8292733" lon="13.411125"><ele>764.0</ele><time>2026-04-04T13:32:58.76Z</time></trkpt><trkpt lat="42.8293067" lon="13.4112267"><ele>766.0</ele><time>2026-04-04T13:32:59.761Z</time></trkpt><trkpt lat="42.8293583" lon="13.4113217"><ele>756.25</ele><time>2026-04-04T13:33:00.761Z</time></trkpt><trkpt lat="42.8294267" lon="13.4114317"><ele>746.5</ele><time>2026-04-04T13:33:01.761Z</time></trkpt><trkpt lat="42.8295183" lon="13.41156"><ele>736.75</ele><time>2026-04-04T13:33:02.76Z</time></trkpt><trkpt lat="42.8296117" lon="13.41169"><ele>727.0</ele><time>2026-04-04T13:33:03.76Z</time></trkpt><trkpt lat="42.829725" lon="13.411805"><ele>727.0</ele><time>2026-04-04T13:33:04.76Z</time></trkpt><trkpt lat="42.8298467" lon="13.4119133"><ele>727.0</ele><time>2026-04-04T13:33:05.761Z</time></trkpt><trkpt lat="42.82996" lon="13.4120183"><ele>727.0</ele><time>2026-04-04T13:33:06.76Z</time></trkpt><trkpt lat="42.8300533" lon="13.4121167"><ele>727.0</ele><time>2026-04-04T13:33:07.761Z</time></trkpt><trkpt lat="42.8301133" lon="13.4122233"><ele>722.0</ele><time>2026-04-04T13:33:08.761Z</time></trkpt><trkpt lat="42.8301617" lon="13.4123367"><ele>717.0</ele><time>2026-04-04T13:33:09.76Z</time></trkpt><trkpt lat="42.8302167" lon="13.4124583"><ele>712.0</ele><time>2026-04-04T13:33:10.76Z</time></trkpt><trkpt lat="42.8302533" lon="13.4125833"><ele>707.0</ele><time>2026-04-04T13:33:11.761Z</time></trkpt><trkpt lat="42.8302667" lon="13.41272"><ele>702.0</ele><time>2026-04-04T13:33:12.76Z</time></trkpt><trkpt lat="42.8302533" lon="13.4128567"><ele>702.0</ele><time>2026-04-04T13:33:13.76Z</time></trkpt><trkpt lat="42.830235" lon="13.41299"><ele>702.0</ele><time>2026-04-04T13:33:14.76Z</time></trkpt><trkpt lat="42.8302067" lon="13.41309"><ele>702.0</ele><time>2026-04-04T13:33:15.761Z</time></trkpt><trkpt lat="42.8300883" lon="13.41314"><ele>702.0</ele><time>2026-04-04T13:33:17.76Z</time></trkpt><trkpt lat="42.8300067" lon="13.4131183"><ele>702.0</ele><time>2026-04-04T13:33:18.76Z</time></trkpt><trkpt lat="42.829915" lon="13.4130717"><ele>706.4000000000001</ele><time>2026-04-04T13:33:19.76Z</time></trkpt><trkpt lat="42.8298317" lon="13.413005"><ele>710.8000000000001</ele><time>2026-04-04T13:33:20.761Z</time></trkpt><trkpt lat="42.8297333" lon="13.4129533"><ele>715.2</ele><time>2026-04-04T13:33:21.761Z</time></trkpt><trkpt lat="42.8296233" lon="13.4129383"><ele>719.6</ele><time>2026-04-04T13:33:22.76Z</time></trkpt><trkpt lat="42.8295017" lon="13.4129417"><ele>724.0</ele><time>2026-04-04T13:33:23.76Z</time></trkpt><trkpt lat="42.82938" lon="13.4129283"><ele>731.0</ele><time>2026-04-04T13:33:24.76Z</time></trkpt><trkpt lat="42.8292733" lon="13.4129117"><ele>738.0</ele><time>2026-04-04T13:33:25.76Z</time></trkpt><trkpt lat="42.8291767" lon="13.4128917"><ele>745.0</ele><time>2026-04-04T13:33:26.76Z</time></trkpt><trkpt lat="42.8290883" lon="13.4128683"><ele>752.0</ele><time>2026-04-04T13:33:27.761Z</time></trkpt><trkpt lat="42.829005" lon="13.4128433"><ele>759.0</ele><time>2026-04-04T13:33:28.76Z</time></trkpt><trkpt lat="42.8289317" lon="13.4128"><ele>759.0</ele><time>2026-04-04T13:33:29.761Z</time></trkpt><trkpt lat="42.8288633" lon="13.41273"><ele>759.0</ele><time>2026-04-04T13:33:30.761Z</time></trkpt><trkpt lat="42.828805" lon="13.4126517"><ele>759.0</ele><time>2026-04-04T13:33:31.761Z</time></trkpt><trkpt lat="42.8287433" lon="13.4125983"><ele>759.0</ele><time>2026-04-04T13:33:32.761Z</time></trkpt><trkpt lat="42.8286683" lon="13.412575"><ele>759.0</ele><time>2026-04-04T13:33:33.76Z</time></trkpt><trkpt lat="42.8285817" lon="13.4125717"><ele>759.0</ele><time>2026-04-04T13:33:34.76Z</time></trkpt><trkpt lat="42.82849" lon="13.41258"><ele>758.6</ele><time>2026-04-04T13:33:35.76Z</time></trkpt><trkpt lat="42.8283967" lon="13.41258"><ele>758.2</ele><time>2026-04-04T13:33:36.761Z</time></trkpt><trkpt lat="42.8283067" lon="13.41258"><ele>757.8000000000001</ele><time>2026-04-04T13:33:37.76Z</time></trkpt><trkpt lat="42.8282267" lon="13.41261"><ele>757.4000000000001</ele><time>2026-04-04T13:33:38.761Z</time></trkpt><trkpt lat="42.8281583" lon="13.412695"><ele>757.0</ele><time>2026-04-04T13:33:39.761Z</time></trkpt><trkpt lat="42.8281083" lon="13.4128217"><ele>757.0</ele><time>2026-04-04T13:33:40.76Z</time></trkpt><trkpt lat="42.8280817" lon="13.4129383"><ele>757.0</ele><time>2026-04-04T13:33:41.76Z</time></trkpt><trkpt lat="42.82805" lon="13.4130367"><ele>757.0</ele><time>2026-04-04T13:33:42.76Z</time></trkpt><trkpt lat="42.8279917" lon="13.4131017"><ele>757.0</ele><time>2026-04-04T13:33:43.761Z</time></trkpt><trkpt lat="42.8279233" lon="13.4131317"><ele>757.0</ele><time>2026-04-04T13:33:44.761Z</time></trkpt><trkpt lat="42.8278417" lon="13.4131617"><ele>757.0</ele><time>2026-04-04T13:33:45.761Z</time></trkpt><trkpt lat="42.8277517" lon="13.41318"><ele>757.5</ele><time>2026-04-04T13:33:46.761Z</time></trkpt><trkpt lat="42.8276617" lon="13.4131817"><ele>758.0</ele><time>2026-04-04T13:33:47.761Z</time></trkpt><trkpt lat="42.827575" lon="13.4131933"><ele>758.5</ele><time>2026-04-04T13:33:48.761Z</time></trkpt><trkpt lat="42.82749" lon="13.41322"><ele>759.0</ele><time>2026-04-04T13:33:49.76Z</time></trkpt><trkpt lat="42.82745" lon="13.4132967"><ele>759.5</ele><time>2026-04-04T13:33:50.76Z</time></trkpt><trkpt lat="42.8274267" lon="13.4134117"><ele>760.0</ele><time>2026-04-04T13:33:51.76Z</time></trkpt><trkpt lat="42.8274167" lon="13.413545"><ele>760.0</ele><time>2026-04-04T13:33:52.76Z</time></trkpt><trkpt lat="42.8274217" lon="13.4136783"><ele>760.0</ele><time>2026-04-04T13:33:53.76Z</time></trkpt><trkpt lat="42.8274333" lon="13.4138083"><ele>760.0</ele><time>2026-04-04T13:33:54.76Z</time></trkpt><trkpt lat="42.8274633" lon="13.4139033"><ele>760.0</ele><time>2026-04-04T13:33:55.76Z</time></trkpt><trkpt lat="42.8275133" lon="13.41399"><ele>760.0</ele><time>2026-04-04T13:33:56.761Z</time></trkpt><trkpt lat="42.8275833" lon="13.4140617"><ele>760.0</ele><time>2026-04-04T13:33:57.76Z</time></trkpt><trkpt lat="42.827645" lon="13.4141117"><ele>754.3333333333334</ele><time>2026-04-04T13:33:58.76Z</time></trkpt><trkpt lat="42.827705" lon="13.4141683"><ele>748.6666666666667</ele><time>2026-04-04T13:33:59.76Z</time></trkpt><trkpt lat="42.8277683" lon="13.41423"><ele>743.0</ele><time>2026-04-04T13:34:00.76Z</time></trkpt><trkpt lat="42.827825" lon="13.41429"><ele>737.3333333333334</ele><time>2026-04-04T13:34:01.76Z</time></trkpt><trkpt lat="42.8279417" lon="13.4143833"><ele>731.6666666666666</ele><time>2026-04-04T13:34:03.76Z</time></trkpt><trkpt lat="42.8280067" lon="13.4144267"><ele>726.0</ele><time>2026-04-04T13:34:04.76Z</time></trkpt><trkpt lat="42.8280733" lon="13.414485"><ele>726.0</ele><time>2026-04-04T13:34:05.76Z</time></trkpt><trkpt lat="42.82814" lon="13.4145617"><ele>726.0</ele><time>2026-04-04T13:34:06.76Z</time></trkpt><trkpt lat="42.8282033" lon="13.4146533"><ele>726.0</ele><time>2026-04-04T13:34:07.761Z</time></trkpt><trkpt lat="42.828245" lon="13.4147367"><ele>726.0</ele><time>2026-04-04T13:34:08.76Z</time></trkpt><trkpt lat="42.8282483" lon="13.41486"><ele>726.0</ele><time>2026-04-04T13:34:10.76Z</time></trkpt><trkpt lat="42.828135" lon="13.4149367"><ele>727.0</ele><time>2026-04-04T13:34:12.761Z</time></trkpt><trkpt lat="42.8280617" lon="13.4149733"><ele>728.0</ele><time>2026-04-04T13:34:13.761Z</time></trkpt><trkpt lat="42.8280017" lon="13.4150383"><ele>729.0</ele><time>2026-04-04T13:34:14.76Z</time></trkpt><trkpt lat="42.8279667" lon="13.4151367"><ele>730.0</ele><time>2026-04-04T13:34:15.76Z</time></trkpt><trkpt lat="42.82797" lon="13.41525"><ele>731.0</ele><time>2026-04-04T13:34:16.761Z</time></trkpt><trkpt lat="42.8280033" lon="13.4153733"><ele>732.0</ele><time>2026-04-04T13:34:17.76Z</time></trkpt><trkpt lat="42.8280617" lon="13.4154933"><ele>732.5</ele><time>2026-04-04T13:34:18.761Z</time></trkpt><trkpt lat="42.8281433" lon="13.4156117"><ele>733.0</ele><time>2026-04-04T13:34:19.76Z</time></trkpt><trkpt lat="42.8282417" lon="13.4157367"><ele>733.5</ele><time>2026-04-04T13:34:20.761Z</time></trkpt><trkpt lat="42.8283367" lon="13.4158517"><ele>734.0</ele><time>2026-04-04T13:34:21.76Z</time></trkpt><trkpt lat="42.8284067" lon="13.4159667"><ele>734.0</ele><time>2026-04-04T13:34:22.761Z</time></trkpt><trkpt lat="42.828445" lon="13.416055"><ele>734.0</ele><time>2026-04-04T13:34:23.761Z</time></trkpt><trkpt lat="42.8284217" lon="13.4161833"><ele>734.0</ele><time>2026-04-04T13:34:25.76Z</time></trkpt><trkpt lat="42.82836" lon="13.416225"><ele>734.0</ele><time>2026-04-04T13:34:26.761Z</time></trkpt><trkpt lat="42.8282817" lon="13.4162483"><ele>734.0</ele><time>2026-04-04T13:34:27.76Z</time></trkpt><trkpt lat="42.828185" lon="13.4162733"><ele>734.0</ele><time>2026-04-04T13:34:28.761Z</time></trkpt><trkpt lat="42.8280733" lon="13.41629"><ele>734.0</ele><time>2026-04-04T13:34:29.761Z</time></trkpt><trkpt lat="42.8279567" lon="13.4162967"><ele>734.0</ele><time>2026-04-04T13:34:30.76Z</time></trkpt><trkpt lat="42.827845" lon="13.41631"><ele>734.0</ele><time>2026-04-04T13:34:31.76Z</time></trkpt><trkpt lat="42.82774" lon="13.416345"><ele>734.0</ele><time>2026-04-04T13:34:32.761Z</time></trkpt><trkpt lat="42.8276517" lon="13.4163983"><ele>734.0</ele><time>2026-04-04T13:34:33.76Z</time></trkpt><trkpt lat="42.82759" lon="13.4164767"><ele>734.6666666666666</ele><time>2026-04-04T13:34:34.76Z</time></trkpt><trkpt lat="42.8275417" lon="13.4165817"><ele>735.3333333333333</ele><time>2026-04-04T13:34:35.76Z</time></trkpt><trkpt lat="42.82751" lon="13.41669"><ele>736.0</ele><time>2026-04-04T13:34:36.761Z</time></trkpt><trkpt lat="42.8274883" lon="13.4168"><ele>736.6666666666666</ele><time>2026-04-04T13:34:37.761Z</time></trkpt><trkpt lat="42.8274683" lon="13.416915"><ele>737.3333333333334</ele><time>2026-04-04T13:34:38.761Z</time></trkpt><trkpt lat="42.82745" lon="13.4170283"><ele>738.0</ele><time>2026-04-04T13:34:39.761Z</time></trkpt><trkpt lat="42.8274367" lon="13.4171283"><ele>735.5</ele><time>2026-04-04T13:34:40.761Z</time></trkpt><trkpt lat="42.827425" lon="13.41722"><ele>733.0</ele><time>2026-04-04T13:34:41.761Z</time></trkpt><trkpt lat="42.8273817" lon="13.4173567"><ele>730.5</ele><time>2026-04-04T13:34:43.76Z</time></trkpt><trkpt lat="42.8273183" lon="13.4173767"><ele>728.0</ele><time>2026-04-04T13:34:45.761Z</time></trkpt><trkpt lat="42.827225" lon="13.4172833"><ele>725.5</ele><time>2026-04-04T13:34:47.76Z</time></trkpt><trkpt lat="42.82716" lon="13.4172233"><ele>723.0</ele><time>2026-04-04T13:34:48.76Z</time></trkpt><trkpt lat="42.8270983" lon="13.4171567"><ele>726.0</ele><time>2026-04-04T13:34:49.76Z</time></trkpt><trkpt lat="42.8270317" lon="13.4170667"><ele>729.0</ele><time>2026-04-04T13:34:50.76Z</time></trkpt><trkpt lat="42.826965" lon="13.4169667"><ele>732.0</ele><time>2026-04-04T13:34:51.76Z</time></trkpt><trkpt lat="42.8269067" lon="13.41686"><ele>735.0</ele><time>2026-04-04T13:34:52.76Z</time></trkpt><trkpt lat="42.8268667" lon="13.4167367"><ele>738.0</ele><time>2026-04-04T13:34:53.759Z</time></trkpt><trkpt lat="42.82684" lon="13.41662"><ele>738.0</ele><time>2026-04-04T13:34:54.759Z</time></trkpt><trkpt lat="42.8268133" lon="13.4165083"><ele>738.0</ele><time>2026-04-04T13:34:55.759Z</time></trkpt><trkpt lat="42.8267733" lon="13.416415"><ele>738.0</ele><time>2026-04-04T13:34:56.759Z</time></trkpt><trkpt lat="42.8267133" lon="13.4163483"><ele>738.0</ele><time>2026-04-04T13:34:57.76Z</time></trkpt><trkpt lat="42.8266433" lon="13.416305"><ele>738.0</ele><time>2026-04-04T13:34:58.759Z</time></trkpt><trkpt lat="42.8265717" lon="13.4162867"><ele>738.0</ele><time>2026-04-04T13:34:59.76Z</time></trkpt><trkpt lat="42.8265017" lon="13.4162717"><ele>741.3333333333334</ele><time>2026-04-04T13:35:00.76Z</time></trkpt><trkpt lat="42.82643" lon="13.41624"><ele>744.6666666666666</ele><time>2026-04-04T13:35:01.759Z</time></trkpt><trkpt lat="42.82636" lon="13.4161883"><ele>748.0</ele><time>2026-04-04T13:35:02.759Z</time></trkpt><trkpt lat="42.826285" lon="13.4161367"><ele>751.3333333333333</ele><time>2026-04-04T13:35:03.759Z</time></trkpt><trkpt lat="42.8262217" lon="13.4160583"><ele>754.6666666666666</ele><time>2026-04-04T13:35:04.76Z</time></trkpt><trkpt lat="42.826165" lon="13.4159633"><ele>758.0</ele><time>2026-04-04T13:35:05.759Z</time></trkpt><trkpt lat="42.82612" lon="13.4158417"><ele>758.0</ele><time>2026-04-04T13:35:06.76Z</time></trkpt><trkpt lat="42.82608" lon="13.4157"><ele>758.0</ele><time>2026-04-04T13:35:07.76Z</time></trkpt><trkpt lat="42.8260483" lon="13.4155533"><ele>758.0</ele><time>2026-04-04T13:35:08.759Z</time></trkpt><trkpt lat="42.8260133" lon="13.4154133"><ele>758.0</ele><time>2026-04-04T13:35:09.759Z</time></trkpt><trkpt lat="42.8259783" lon="13.4152667"><ele>758.0</ele><time>2026-04-04T13:35:10.76Z</time></trkpt><trkpt lat="42.8259417" lon="13.4151183"><ele>759.8</ele><time>2026-04-04T13:35:11.759Z</time></trkpt><trkpt lat="42.8259" lon="13.4149733"><ele>761.5999999999999</ele><time>2026-04-04T13:35:12.759Z</time></trkpt><trkpt lat="42.825845" lon="13.41486"><ele>763.4000000000001</ele><time>2026-04-04T13:35:13.76Z</time></trkpt><trkpt lat="42.8257733" lon="13.4147683"><ele>765.2</ele><time>2026-04-04T13:35:14.759Z</time></trkpt><trkpt lat="42.825695" lon="13.414685"><ele>767.0</ele><time>2026-04-04T13:35:15.759Z</time></trkpt><trkpt lat="42.8256117" lon="13.4146067"><ele>767.0</ele><time>2026-04-04T13:35:16.76Z</time></trkpt><trkpt lat="42.82553" lon="13.41453"><ele>767.0</ele><time>2026-04-04T13:35:17.759Z</time></trkpt><trkpt lat="42.825455" lon="13.4144533"><ele>767.0</ele><time>2026-04-04T13:35:18.759Z</time></trkpt><trkpt lat="42.8253833" lon="13.4143617"><ele>767.0</ele><time>2026-04-04T13:35:19.76Z</time></trkpt><trkpt lat="42.8253067" lon="13.4142583"><ele>767.0</ele><time>2026-04-04T13:35:20.759Z</time></trkpt><trkpt lat="42.8252117" lon="13.4141683"><ele>762.0</ele><time>2026-04-04T13:35:21.76Z</time></trkpt><trkpt lat="42.82512" lon="13.414095"><ele>757.0</ele><time>2026-04-04T13:35:22.759Z</time></trkpt><trkpt lat="42.8250067" lon="13.4140617"><ele>752.0</ele><time>2026-04-04T13:35:23.76Z</time></trkpt><trkpt lat="42.824885" lon="13.4140683"><ele>747.0</ele><time>2026-04-04T13:35:24.76Z</time></trkpt><trkpt lat="42.8247683" lon="13.4140867"><ele>747.0</ele><time>2026-04-04T13:35:25.759Z</time></trkpt><trkpt lat="42.8246567" lon="13.4141117"><ele>747.0</ele><time>2026-04-04T13:35:26.759Z</time></trkpt><trkpt lat="42.8245483" lon="13.4141483"><ele>747.0</ele><time>2026-04-04T13:35:27.76Z</time></trkpt><trkpt lat="42.8244417" lon="13.4142033"><ele>747.0</ele><time>2026-04-04T13:35:28.759Z</time></trkpt><trkpt lat="42.8243317" lon="13.4142833"><ele>746.25</ele><time>2026-04-04T13:35:29.759Z</time></trkpt><trkpt lat="42.824235" lon="13.4143933"><ele>745.5</ele><time>2026-04-04T13:35:30.759Z</time></trkpt><trkpt lat="42.824145" lon="13.41452"><ele>744.75</ele><time>2026-04-04T13:35:31.76Z</time></trkpt><trkpt lat="42.8240667" lon="13.4146333"><ele>744.0</ele><time>2026-04-04T13:35:32.759Z</time></trkpt><trkpt lat="42.82398" lon="13.414735"><ele>740.75</ele><time>2026-04-04T13:35:33.76Z</time></trkpt><trkpt lat="42.8238917" lon="13.4148267"><ele>737.5</ele><time>2026-04-04T13:35:34.759Z</time></trkpt><trkpt lat="42.8237983" lon="13.4149133"><ele>734.25</ele><time>2026-04-04T13:35:35.76Z</time></trkpt><trkpt lat="42.8237017" lon="13.4149967"><ele>731.0</ele><time>2026-04-04T13:35:36.76Z</time></trkpt><trkpt lat="42.8235967" lon="13.4150683"><ele>731.0</ele><time>2026-04-04T13:35:37.76Z</time></trkpt><trkpt lat="42.8235" lon="13.41513"><ele>731.0</ele><time>2026-04-04T13:35:38.759Z</time></trkpt><trkpt lat="42.8234017" lon="13.4151817"><ele>731.0</ele><time>2026-04-04T13:35:39.759Z</time></trkpt><trkpt lat="42.823305" lon="13.4152317"><ele>731.0</ele><time>2026-04-04T13:35:40.759Z</time></trkpt><trkpt lat="42.8232133" lon="13.415295"><ele>731.0</ele><time>2026-04-04T13:35:41.76Z</time></trkpt><trkpt lat="42.8231333" lon="13.4153683"><ele>731.0</ele><time>2026-04-04T13:35:42.759Z</time></trkpt><trkpt lat="42.8230567" lon="13.4154483"><ele>731.0</ele><time>2026-04-04T13:35:43.76Z</time></trkpt><trkpt lat="42.8229783" lon="13.4155383"><ele>731.0</ele><time>2026-04-04T13:35:44.76Z</time></trkpt><trkpt lat="42.8229" lon="13.415645"><ele>731.0</ele><time>2026-04-04T13:35:45.759Z</time></trkpt><trkpt lat="42.822825" lon="13.4157583"><ele>731.0</ele><time>2026-04-04T13:35:46.76Z</time></trkpt><trkpt lat="42.8227583" lon="13.415865"><ele>731.0</ele><time>2026-04-04T13:35:47.759Z</time></trkpt><trkpt lat="42.8226983" lon="13.4159567"><ele>731.0</ele><time>2026-04-04T13:35:48.76Z</time></trkpt><trkpt lat="42.8226367" lon="13.4160383"><ele>731.0</ele><time>2026-04-04T13:35:49.76Z</time></trkpt><trkpt lat="42.8225833" lon="13.41611"><ele>731.0</ele><time>2026-04-04T13:35:50.759Z</time></trkpt><trkpt lat="42.8224783" lon="13.4161633"><ele>731.0</ele><time>2026-04-04T13:35:52.759Z</time></trkpt><trkpt lat="42.8224117" lon="13.4161517"><ele>731.0</ele><time>2026-04-04T13:35:53.76Z</time></trkpt><trkpt lat="42.8223433" lon="13.4161167"><ele>732.5999999999999</ele><time>2026-04-04T13:35:54.76Z</time></trkpt><trkpt lat="42.8222683" lon="13.4160383"><ele>734.2</ele><time>2026-04-04T13:35:55.759Z</time></trkpt><trkpt lat="42.8221717" lon="13.415975"><ele>735.8</ele><time>2026-04-04T13:35:56.76Z</time></trkpt><trkpt lat="42.8220567" lon="13.4159333"><ele>737.4000000000001</ele><time>2026-04-04T13:35:57.759Z</time></trkpt><trkpt lat="42.82193" lon="13.415905"><ele>739.0</ele><time>2026-04-04T13:35:58.759Z</time></trkpt><trkpt lat="42.821805" lon="13.4158917"><ele>739.0</ele><time>2026-04-04T13:35:59.76Z</time></trkpt><trkpt lat="42.821685" lon="13.4158817"><ele>739.0</ele><time>2026-04-04T13:36:00.76Z</time></trkpt><trkpt lat="42.8215683" lon="13.4158717"><ele>739.0</ele><time>2026-04-04T13:36:01.759Z</time></trkpt><trkpt lat="42.8214617" lon="13.41586"><ele>739.0</ele><time>2026-04-04T13:36:02.759Z</time></trkpt><trkpt lat="42.8213517" lon="13.4158383"><ele>739.0</ele><time>2026-04-04T13:36:03.759Z</time></trkpt><trkpt lat="42.82125" lon="13.415825"><ele>739.0</ele><time>2026-04-04T13:36:04.759Z</time></trkpt><trkpt lat="42.8211683" lon="13.415805"><ele>739.0</ele><time>2026-04-04T13:36:05.76Z</time></trkpt><trkpt lat="42.8210917" lon="13.4158017"><ele>739.0</ele><time>2026-04-04T13:36:06.759Z</time></trkpt><trkpt lat="42.8210167" lon="13.41582"><ele>739.0</ele><time>2026-04-04T13:36:07.76Z</time></trkpt><trkpt lat="42.82095" lon="13.4159033"><ele>739.0</ele><time>2026-04-04T13:36:08.759Z</time></trkpt><trkpt lat="42.8208867" lon="13.4160267"><ele>735.25</ele><time>2026-04-04T13:36:09.76Z</time></trkpt><trkpt lat="42.8208283" lon="13.416175"><ele>731.5</ele><time>2026-04-04T13:36:10.759Z</time></trkpt><trkpt lat="42.8207717" lon="13.4163333"><ele>727.75</ele><time>2026-04-04T13:36:11.76Z</time></trkpt><trkpt lat="42.8207117" lon="13.41648"><ele>724.0</ele><time>2026-04-04T13:36:12.76Z</time></trkpt><trkpt lat="42.82066" lon="13.4166217"><ele>724.0</ele><time>2026-04-04T13:36:13.759Z</time></trkpt><trkpt lat="42.820615" lon="13.4167633"><ele>724.0</ele><time>2026-04-04T13:36:14.76Z</time></trkpt><trkpt lat="42.8205767" lon="13.4169033"><ele>724.0</ele><time>2026-04-04T13:36:15.759Z</time></trkpt><trkpt lat="42.8205467" lon="13.4170417"><ele>724.0</ele><time>2026-04-04T13:36:16.759Z</time></trkpt><trkpt lat="42.820515" lon="13.41718"><ele>724.0</ele><time>2026-04-04T13:36:17.759Z</time></trkpt><trkpt lat="42.8204717" lon="13.4173167"><ele>722.4000000000001</ele><time>2026-04-04T13:36:18.759Z</time></trkpt><trkpt lat="42.820415" lon="13.4174433"><ele>720.8</ele><time>2026-04-04T13:36:19.76Z</time></trkpt><trkpt lat="42.82036" lon="13.4175617"><ele>719.2</ele><time>2026-04-04T13:36:20.76Z</time></trkpt><trkpt lat="42.8202883" lon="13.4176617"><ele>717.5999999999999</ele><time>2026-04-04T13:36:21.76Z</time></trkpt><trkpt lat="42.8201967" lon="13.41774"><ele>716.0</ele><time>2026-04-04T13:36:22.759Z</time></trkpt><trkpt lat="42.8200917" lon="13.417815"><ele>716.0</ele><time>2026-04-04T13:36:23.759Z</time></trkpt><trkpt lat="42.8199833" lon="13.4179033"><ele>716.0</ele><time>2026-04-04T13:36:24.759Z</time></trkpt><trkpt lat="42.8198783" lon="13.4180183"><ele>716.0</ele><time>2026-04-04T13:36:25.759Z</time></trkpt><trkpt lat="42.8197817" lon="13.418145"><ele>716.0</ele><time>2026-04-04T13:36:26.759Z</time></trkpt><trkpt lat="42.8196867" lon="13.4182733"><ele>713.0</ele><time>2026-04-04T13:36:27.759Z</time></trkpt><trkpt lat="42.8196033" lon="13.4184067"><ele>710.0</ele><time>2026-04-04T13:36:28.759Z</time></trkpt><trkpt lat="42.819525" lon="13.418545"><ele>707.0</ele><time>2026-04-04T13:36:29.76Z</time></trkpt><trkpt lat="42.819445" lon="13.418685"><ele>704.0</ele><time>2026-04-04T13:36:30.76Z</time></trkpt><trkpt lat="42.8193767" lon="13.41883"><ele>704.5</ele><time>2026-04-04T13:36:31.759Z</time></trkpt><trkpt lat="42.8193067" lon="13.41897"><ele>705.0</ele><time>2026-04-04T13:36:32.76Z</time></trkpt><trkpt lat="42.81924" lon="13.41911"><ele>705.5</ele><time>2026-04-04T13:36:33.759Z</time></trkpt><trkpt lat="42.8191767" lon="13.41925"><ele>706.0</ele><time>2026-04-04T13:36:34.76Z</time></trkpt><trkpt lat="42.81911" lon="13.4193967"><ele>706.0</ele><time>2026-04-04T13:36:35.759Z</time></trkpt><trkpt lat="42.8190417" lon="13.4195467"><ele>706.0</ele><time>2026-04-04T13:36:36.76Z</time></trkpt><trkpt lat="42.81897" lon="13.4196867"><ele>706.0</ele><time>2026-04-04T13:36:37.76Z</time></trkpt><trkpt lat="42.8188917" lon="13.41981"><ele>706.0</ele><time>2026-04-04T13:36:38.759Z</time></trkpt><trkpt lat="42.8188167" lon="13.419925"><ele>704.25</ele><time>2026-04-04T13:36:39.759Z</time></trkpt><trkpt lat="42.818725" lon="13.4200317"><ele>702.5</ele><time>2026-04-04T13:36:40.759Z</time></trkpt><trkpt lat="42.8186333" lon="13.4201417"><ele>700.75</ele><time>2026-04-04T13:36:41.759Z</time></trkpt><trkpt lat="42.8185383" lon="13.4202533"><ele>699.0</ele><time>2026-04-04T13:36:42.76Z</time></trkpt><trkpt lat="42.818435" lon="13.4203633"><ele>700.25</ele><time>2026-04-04T13:36:43.76Z</time></trkpt><trkpt lat="42.8183383" lon="13.4204733"><ele>701.5</ele><time>2026-04-04T13:36:44.759Z</time></trkpt><trkpt lat="42.8182533" lon="13.4205867"><ele>702.75</ele><time>2026-04-04T13:36:45.76Z</time></trkpt><trkpt lat="42.8181733" lon="13.4207117"><ele>704.0</ele><time>2026-04-04T13:36:46.76Z</time></trkpt><trkpt lat="42.8181183" lon="13.42086"><ele>704.0</ele><time>2026-04-04T13:36:47.759Z</time></trkpt><trkpt lat="42.81809" lon="13.4210317"><ele>704.0</ele><time>2026-04-04T13:36:48.759Z</time></trkpt><trkpt lat="42.8180667" lon="13.42121"><ele>704.0</ele><time>2026-04-04T13:36:49.76Z</time></trkpt><trkpt lat="42.818035" lon="13.4213783"><ele>704.0</ele><time>2026-04-04T13:36:50.759Z</time></trkpt><trkpt lat="42.8179867" lon="13.4215383"><ele>701.2</ele><time>2026-04-04T13:36:51.759Z</time></trkpt><trkpt lat="42.8179333" lon="13.4216833"><ele>698.4000000000001</ele><time>2026-04-04T13:36:52.759Z</time></trkpt><trkpt lat="42.8178783" lon="13.42182"><ele>695.6</ele><time>2026-04-04T13:36:53.759Z</time></trkpt><trkpt lat="42.8178333" lon="13.4219417"><ele>692.8</ele><time>2026-04-04T13:36:54.759Z</time></trkpt><trkpt lat="42.8177933" lon="13.4220583"><ele>690.0</ele><time>2026-04-04T13:36:55.759Z</time></trkpt><trkpt lat="42.8177517" lon="13.42217"><ele>688.3333333333334</ele><time>2026-04-04T13:36:56.759Z</time></trkpt><trkpt lat="42.817715" lon="13.4222617"><ele>686.6666666666666</ele><time>2026-04-04T13:36:57.759Z</time></trkpt><trkpt lat="42.8176683" lon="13.42237"><ele>685.0</ele><time>2026-04-04T13:36:59.759Z</time></trkpt><trkpt lat="42.8176483" lon="13.4224617"><ele>683.3333333333333</ele><time>2026-04-04T13:37:02.759Z</time></trkpt><trkpt lat="42.8176333" lon="13.4225717"><ele>681.6666666666666</ele><time>2026-04-04T13:37:06.76Z</time></trkpt><trkpt lat="42.81757" lon="13.4226183"><ele>680.0</ele><time>2026-04-04T13:37:09.759Z</time></trkpt><trkpt lat="42.8175067" lon="13.4226267"><ele>682.0</ele><time>2026-04-04T13:37:12.76Z</time></trkpt><trkpt lat="42.8174833" lon="13.42271"><ele>684.0</ele><time>2026-04-04T13:37:28.76Z</time></trkpt><trkpt lat="42.8174667" lon="13.4228367"><ele>686.0</ele><time>2026-04-04T13:37:31.759Z</time></trkpt><trkpt lat="42.8174333" lon="13.422915"><ele>688.0</ele><time>2026-04-04T13:37:34.759Z</time></trkpt><trkpt lat="42.8174067" lon="13.4229933"><ele>690.0</ele><time>2026-04-04T13:37:40.76Z</time></trkpt><trkpt lat="42.8174683" lon="13.4230717"><ele>692.0</ele><time>2026-04-04T13:37:43.76Z</time></trkpt><trkpt lat="42.817535" lon="13.4231033"><ele>694.0</ele><time>2026-04-04T13:38:15.759Z</time></trkpt><trkpt lat="42.8176083" lon="13.42312"><ele>691.6666666666667</ele><time>2026-04-04T13:38:18.759Z</time></trkpt><trkpt lat="42.81771" lon="13.423135"><ele>689.3333333333334</ele><time>2026-04-04T13:38:22.759Z</time></trkpt><trkpt lat="42.81779" lon="13.423085"><ele>687.0</ele><time>2026-04-04T13:38:24.759Z</time></trkpt><trkpt lat="42.8178583" lon="13.4230567"><ele>684.6666666666666</ele><time>2026-04-04T13:38:26.759Z</time></trkpt><trkpt lat="42.8179417" lon="13.4230033"><ele>682.3333333333333</ele><time>2026-04-04T13:38:28.76Z</time></trkpt><trkpt lat="42.8179833" lon="13.42293"><ele>680.0</ele><time>2026-04-04T13:38:31.76Z</time></trkpt><trkpt lat="42.8180283" lon="13.4228067"><ele>680.0</ele><time>2026-04-04T13:41:00.759Z</time></trkpt><trkpt lat="42.818035" lon="13.4226817"><ele>680.0</ele><time>2026-04-04T13:41:02.759Z</time></trkpt><trkpt lat="42.8180383" lon="13.4225617"><ele>680.0</ele><time>2026-04-04T13:41:04.759Z</time></trkpt><trkpt lat="42.8180683" lon="13.4224317"><ele>680.0</ele><time>2026-04-04T13:41:06.759Z</time></trkpt><trkpt lat="42.8180833" lon="13.4223217"><ele>680.0</ele><time>2026-04-04T13:41:09.76Z</time></trkpt><trkpt lat="42.8180717" lon="13.4221883"><ele>681.6666666666666</ele><time>2026-04-04T13:41:47.759Z</time></trkpt><trkpt lat="42.81808" lon="13.4220633"><ele>683.3333333333333</ele><time>2026-04-04T13:41:49.759Z</time></trkpt><trkpt lat="42.81812" lon="13.4219517"><ele>685.0</ele><time>2026-04-04T13:41:51.759Z</time></trkpt><trkpt lat="42.8181067" lon="13.4218433"><ele>686.6666666666666</ele><time>2026-04-04T13:41:54.759Z</time></trkpt><trkpt lat="42.8180217" lon="13.421895"><ele>688.3333333333334</ele><time>2026-04-04T13:41:57.758Z</time></trkpt><trkpt lat="42.8179498" lon="13.4219713"><ele>690.0</ele><time>2026-04-04T13:41:59.758Z</time></trkpt><trkpt lat="42.8178762" lon="13.4220764"><ele>688.0</ele><time>2026-04-04T13:42:01.759Z</time></trkpt><trkpt lat="42.8178181" lon="13.4221974"><ele>686.0</ele><time>2026-04-04T13:42:03.758Z</time></trkpt><trkpt lat="42.8177743" lon="13.4223227"><ele>684.0</ele><time>2026-04-04T13:42:05.758Z</time></trkpt><trkpt lat="42.8177266" lon="13.4224168"><ele>682.0</ele><time>2026-04-04T13:42:07.758Z</time></trkpt><trkpt lat="42.8176587" lon="13.422439"><ele>680.0</ele><time>2026-04-04T13:42:17.758Z</time></trkpt><trkpt lat="42.8175683" lon="13.4224385"><ele>686.0</ele><time>2026-04-04T13:42:19.758Z</time></trkpt><trkpt lat="42.8174598" lon="13.4224002"><ele>692.0</ele><time>2026-04-04T13:42:21.758Z</time></trkpt><trkpt lat="42.8173867" lon="13.4223533"><ele>698.0</ele><time>2026-04-04T13:42:23.759Z</time></trkpt><trkpt lat="42.8172983" lon="13.422295"><ele>704.0</ele><time>2026-04-04T13:42:26.758Z</time></trkpt><trkpt lat="42.8172017" lon="13.4222383"><ele>710.0</ele><time>2026-04-04T13:42:28.758Z</time></trkpt><trkpt lat="42.8171433" lon="13.4221967"><ele>710.0</ele><time>2026-04-04T13:42:29.758Z</time></trkpt><trkpt lat="42.8170833" lon="13.422155"><ele>710.0</ele><time>2026-04-04T13:42:30.758Z</time></trkpt><trkpt lat="42.817025" lon="13.4221133"><ele>710.0</ele><time>2026-04-04T13:42:31.758Z</time></trkpt><trkpt lat="42.816915" lon="13.4220167"><ele>710.0</ele><time>2026-04-04T13:42:33.759Z</time></trkpt><trkpt lat="42.8168533" lon="13.4219667"><ele>710.0</ele><time>2026-04-04T13:42:34.759Z</time></trkpt><trkpt lat="42.8167867" lon="13.421915"><ele>710.0</ele><time>2026-04-04T13:42:35.758Z</time></trkpt><trkpt lat="42.8167233" lon="13.4218533"><ele>709.6666666666666</ele><time>2026-04-04T13:42:36.759Z</time></trkpt><trkpt lat="42.81665" lon="13.4218"><ele>709.3333333333333</ele><time>2026-04-04T13:42:37.758Z</time></trkpt><trkpt lat="42.8165817" lon="13.4217483"><ele>709.0</ele><time>2026-04-04T13:42:38.759Z</time></trkpt><trkpt lat="42.816495" lon="13.4216983"><ele>708.6666666666666</ele><time>2026-04-04T13:42:39.758Z</time></trkpt><trkpt lat="42.816415" lon="13.4216617"><ele>708.3333333333334</ele><time>2026-04-04T13:42:40.758Z</time></trkpt><trkpt lat="42.8163367" lon="13.4216367"><ele>708.0</ele><time>2026-04-04T13:42:41.758Z</time></trkpt><trkpt lat="42.81626" lon="13.421625"><ele>708.0</ele><time>2026-04-04T13:42:42.758Z</time></trkpt><trkpt lat="42.8161533" lon="13.4216317"><ele>708.0</ele><time>2026-04-04T13:42:44.758Z</time></trkpt><trkpt lat="42.816035" lon="13.4217233"><ele>708.0</ele><time>2026-04-04T13:42:46.759Z</time></trkpt><trkpt lat="42.8159683" lon="13.42179"><ele>708.0</ele><time>2026-04-04T13:42:47.758Z</time></trkpt><trkpt lat="42.815895" lon="13.4218533"><ele>708.0</ele><time>2026-04-04T13:42:48.758Z</time></trkpt><trkpt lat="42.815815" lon="13.4219133"><ele>705.2</ele><time>2026-04-04T13:42:49.759Z</time></trkpt><trkpt lat="42.8157283" lon="13.42196"><ele>702.4</ele><time>2026-04-04T13:42:50.758Z</time></trkpt><trkpt lat="42.81564" lon="13.4219883"><ele>699.6</ele><time>2026-04-04T13:42:51.758Z</time></trkpt><trkpt lat="42.8155433" lon="13.4220233"><ele>696.8000000000001</ele><time>2026-04-04T13:42:52.759Z</time></trkpt><trkpt lat="42.815445" lon="13.4220433"><ele>694.0</ele><time>2026-04-04T13:42:53.758Z</time></trkpt><trkpt lat="42.8153483" lon="13.422065"><ele>694.0</ele><time>2026-04-04T13:42:54.758Z</time></trkpt><trkpt lat="42.8152433" lon="13.4220867"><ele>694.0</ele><time>2026-04-04T13:42:55.758Z</time></trkpt><trkpt lat="42.81513" lon="13.422115"><ele>694.0</ele><time>2026-04-04T13:42:56.758Z</time></trkpt><trkpt lat="42.8150233" lon="13.4221517"><ele>694.0</ele><time>2026-04-04T13:42:57.759Z</time></trkpt><trkpt lat="42.8149283" lon="13.42219"><ele>694.0</ele><time>2026-04-04T13:42:58.759Z</time></trkpt><trkpt lat="42.8148333" lon="13.42221"><ele>694.2</ele><time>2026-04-04T13:42:59.758Z</time></trkpt><trkpt lat="42.8147267" lon="13.42223"><ele>694.4000000000001</ele><time>2026-04-04T13:43:00.759Z</time></trkpt><trkpt lat="42.8146267" lon="13.4222517"><ele>694.6</ele><time>2026-04-04T13:43:01.758Z</time></trkpt><trkpt lat="42.8145233" lon="13.422285"><ele>694.8</ele><time>2026-04-04T13:43:02.758Z</time></trkpt><trkpt lat="42.8144267" lon="13.4223367"><ele>695.0</ele><time>2026-04-04T13:43:03.758Z</time></trkpt><trkpt lat="42.8143283" lon="13.4224083"><ele>694.0</ele><time>2026-04-04T13:43:04.758Z</time></trkpt><trkpt lat="42.8142417" lon="13.4224717"><ele>693.0</ele><time>2026-04-04T13:43:05.758Z</time></trkpt><trkpt lat="42.8141533" lon="13.422525"><ele>692.0</ele><time>2026-04-04T13:43:06.759Z</time></trkpt><trkpt lat="42.8140767" lon="13.4225783"><ele>691.0</ele><time>2026-04-04T13:43:07.758Z</time></trkpt><trkpt lat="42.8139917" lon="13.4226367"><ele>690.0</ele><time>2026-04-04T13:43:08.758Z</time></trkpt><trkpt lat="42.81391" lon="13.4226967"><ele>690.0</ele><time>2026-04-04T13:43:09.758Z</time></trkpt><trkpt lat="42.81383" lon="13.42276"><ele>690.0</ele><time>2026-04-04T13:43:10.758Z</time></trkpt><trkpt lat="42.8137533" lon="13.4228233"><ele>690.0</ele><time>2026-04-04T13:43:11.758Z</time></trkpt><trkpt lat="42.8136767" lon="13.4228833"><ele>690.0</ele><time>2026-04-04T13:43:12.759Z</time></trkpt><trkpt lat="42.8135983" lon="13.4229283"><ele>690.0</ele><time>2026-04-04T13:43:13.758Z</time></trkpt><trkpt lat="42.8135233" lon="13.42297"><ele>690.0</ele><time>2026-04-04T13:43:14.758Z</time></trkpt><trkpt lat="42.8134533" lon="13.4230083"><ele>689.7142857142858</ele><time>2026-04-04T13:43:15.759Z</time></trkpt><trkpt lat="42.81339" lon="13.423075"><ele>689.4285714285714</ele><time>2026-04-04T13:43:16.758Z</time></trkpt><trkpt lat="42.8133317" lon="13.4231383"><ele>689.1428571428571</ele><time>2026-04-04T13:43:17.758Z</time></trkpt><trkpt lat="42.813275" lon="13.4232067"><ele>688.8571428571429</ele><time>2026-04-04T13:43:18.759Z</time></trkpt><trkpt lat="42.8132217" lon="13.4232683"><ele>688.5714285714286</ele><time>2026-04-04T13:43:19.758Z</time></trkpt><trkpt lat="42.8131617" lon="13.4233133"><ele>688.2857142857143</ele><time>2026-04-04T13:43:20.758Z</time></trkpt><trkpt lat="42.8130967" lon="13.42335"><ele>688.0</ele><time>2026-04-04T13:43:21.758Z</time></trkpt><trkpt lat="42.8130183" lon="13.42339"><ele>688.0</ele><time>2026-04-04T13:43:22.758Z</time></trkpt><trkpt lat="42.8129383" lon="13.4234383"><ele>688.0</ele><time>2026-04-04T13:43:23.758Z</time></trkpt><trkpt lat="42.8128633" lon="13.423485"><ele>688.0</ele><time>2026-04-04T13:43:24.758Z</time></trkpt><trkpt lat="42.8127933" lon="13.423525"><ele>688.0</ele><time>2026-04-04T13:43:25.758Z</time></trkpt><trkpt lat="42.8127267" lon="13.4235667"><ele>688.0</ele><time>2026-04-04T13:43:26.758Z</time></trkpt><trkpt lat="42.8126683" lon="13.4236133"><ele>688.0</ele><time>2026-04-04T13:43:27.758Z</time></trkpt><trkpt lat="42.81258" lon="13.4237"><ele>685.7142857142858</ele><time>2026-04-04T13:43:29.758Z</time></trkpt><trkpt lat="42.8125317" lon="13.42379"><ele>683.4285714285714</ele><time>2026-04-04T13:43:31.758Z</time></trkpt><trkpt lat="42.8124983" lon="13.4238683"><ele>681.1428571428571</ele><time>2026-04-04T14:04:55.757Z</time></trkpt><trkpt lat="42.812475" lon="13.423965"><ele>678.8571428571429</ele><time>2026-04-04T14:04:58.756Z</time></trkpt><trkpt lat="42.812455" lon="13.4240617"><ele>676.5714285714286</ele><time>2026-04-04T14:05:01.757Z</time></trkpt><trkpt lat="42.8124333" lon="13.4241667"><ele>674.2857142857143</ele><time>2026-04-04T14:05:04.757Z</time></trkpt><trkpt lat="42.81241" lon="13.4242517"><ele>672.0</ele><time>2026-04-04T14:05:07.757Z</time></trkpt><trkpt lat="42.8124" lon="13.42436"><ele>672.0</ele><time>2026-04-04T14:07:38.755Z</time></trkpt><trkpt lat="42.81238" lon="13.4244817"><ele>672.0</ele><time>2026-04-04T14:07:40.755Z</time></trkpt><trkpt lat="42.8123633" lon="13.424585"><ele>672.0</ele><time>2026-04-04T14:07:42.755Z</time></trkpt><trkpt lat="42.812315" lon="13.4246683"><ele>672.0</ele><time>2026-04-04T14:07:52.755Z</time></trkpt><trkpt lat="42.8122467" lon="13.4247467"><ele>672.0</ele><time>2026-04-04T14:07:54.755Z</time></trkpt><trkpt lat="42.8121433" lon="13.4248267"><ele>672.0</ele><time>2026-04-04T14:07:56.756Z</time></trkpt><trkpt lat="42.812025" lon="13.424885"><ele>672.0</ele><time>2026-04-04T14:07:58.755Z</time></trkpt><trkpt lat="42.8119183" lon="13.424955"><ele>672.0</ele><time>2026-04-04T14:08:00.755Z</time></trkpt><trkpt lat="42.8118533" lon="13.4250833"><ele>672.0</ele><time>2026-04-04T14:08:02.756Z</time></trkpt><trkpt lat="42.811815" lon="13.4252383"><ele>672.0</ele><time>2026-04-04T14:08:04.755Z</time></trkpt><trkpt lat="42.81181" lon="13.4253483"><ele>672.0</ele><time>2026-04-04T14:08:05.755Z</time></trkpt><trkpt lat="42.8118117" lon="13.4254533"><ele>672.0</ele><time>2026-04-04T14:08:06.756Z</time></trkpt><trkpt lat="42.8118217" lon="13.4255483"><ele>672.0</ele><time>2026-04-04T14:08:07.755Z</time></trkpt><trkpt lat="42.811835" lon="13.4256383"><ele>672.0</ele><time>2026-04-04T14:08:08.756Z</time></trkpt><trkpt lat="42.81185" lon="13.425725"><ele>672.0</ele><time>2026-04-04T14:08:09.755Z</time></trkpt><trkpt lat="42.8118633" lon="13.42581"><ele>672.0</ele><time>2026-04-04T14:08:10.755Z</time></trkpt><trkpt lat="42.8118733" lon="13.4259733"><ele>672.0</ele><time>2026-04-04T14:08:12.755Z</time></trkpt><trkpt lat="42.811835" lon="13.42611"><ele>672.0</ele><time>2026-04-04T14:08:14.756Z</time></trkpt><trkpt lat="42.8117933" lon="13.4261783"><ele>672.0</ele><time>2026-04-04T14:08:15.756Z</time></trkpt><trkpt lat="42.8116933" lon="13.4262983"><ele>672.0</ele><time>2026-04-04T14:08:17.755Z</time></trkpt><trkpt lat="42.8116317" lon="13.426365"><ele>672.0</ele><time>2026-04-04T14:08:18.755Z</time></trkpt><trkpt lat="42.8115733" lon="13.4264367"><ele>672.6666666666666</ele><time>2026-04-04T14:08:19.755Z</time></trkpt><trkpt lat="42.8115117" lon="13.4265083"><ele>673.3333333333334</ele><time>2026-04-04T14:08:20.755Z</time></trkpt><trkpt lat="42.8114483" lon="13.4265833"><ele>674.0</ele><time>2026-04-04T14:08:21.755Z</time></trkpt><trkpt lat="42.8113767" lon="13.426655"><ele>674.6666666666667</ele><time>2026-04-04T14:08:22.756Z</time></trkpt><trkpt lat="42.81131" lon="13.4267217"><ele>675.3333333333334</ele><time>2026-04-04T14:08:23.756Z</time></trkpt><trkpt lat="42.8112433" lon="13.4267967"><ele>676.0</ele><time>2026-04-04T14:08:24.756Z</time></trkpt><trkpt lat="42.8111817" lon="13.4268833"><ele>676.0</ele><time>2026-04-04T14:08:25.755Z</time></trkpt><trkpt lat="42.811125" lon="13.4269817"><ele>676.0</ele><time>2026-04-04T14:08:26.756Z</time></trkpt><trkpt lat="42.81109" lon="13.4270867"><ele>676.0</ele><time>2026-04-04T14:08:27.756Z</time></trkpt><trkpt lat="42.8110617" lon="13.4271683"><ele>676.0</ele><time>2026-04-04T14:08:28.755Z</time></trkpt><trkpt lat="42.8109983" lon="13.4273"><ele>676.0</ele><time>2026-04-04T14:08:30.755Z</time></trkpt><trkpt lat="42.81092" lon="13.4274183"><ele>675.5</ele><time>2026-04-04T14:08:32.755Z</time></trkpt><trkpt lat="42.810825" lon="13.42752"><ele>675.0</ele><time>2026-04-04T14:08:34.756Z</time></trkpt><trkpt lat="42.81077" lon="13.427565"><ele>674.5</ele><time>2026-04-04T14:08:35.756Z</time></trkpt><trkpt lat="42.8107117" lon="13.4276083"><ele>674.0</ele><time>2026-04-04T14:08:36.756Z</time></trkpt><trkpt lat="42.8106467" lon="13.4276533"><ele>673.5</ele><time>2026-04-04T14:08:37.755Z</time></trkpt><trkpt lat="42.81058" lon="13.4276933"><ele>673.0</ele><time>2026-04-04T14:08:38.755Z</time></trkpt><trkpt lat="42.8105067" lon="13.4277367"><ele>673.0</ele><time>2026-04-04T14:08:39.755Z</time></trkpt><trkpt lat="42.810435" lon="13.42779"><ele>673.0</ele><time>2026-04-04T14:08:40.755Z</time></trkpt><trkpt lat="42.8103533" lon="13.42784"><ele>673.0</ele><time>2026-04-04T14:08:41.755Z</time></trkpt><trkpt lat="42.8102767" lon="13.4278883"><ele>673.0</ele><time>2026-04-04T14:08:42.755Z</time></trkpt><trkpt lat="42.8102017" lon="13.4279383"><ele>673.0</ele><time>2026-04-04T14:08:43.756Z</time></trkpt><trkpt lat="42.810125" lon="13.42798"><ele>673.0</ele><time>2026-04-04T14:08:44.755Z</time></trkpt><trkpt lat="42.81005" lon="13.428015"><ele>675.1666666666667</ele><time>2026-04-04T14:08:45.756Z</time></trkpt><trkpt lat="42.80998" lon="13.428055"><ele>677.3333333333334</ele><time>2026-04-04T14:08:46.755Z</time></trkpt><trkpt lat="42.809905" lon="13.4281133"><ele>679.5</ele><time>2026-04-04T14:08:47.755Z</time></trkpt><trkpt lat="42.8098383" lon="13.4281683"><ele>681.6666666666666</ele><time>2026-04-04T14:08:48.756Z</time></trkpt><trkpt lat="42.8097733" lon="13.4282217"><ele>683.8333333333333</ele><time>2026-04-04T14:08:49.755Z</time></trkpt><trkpt lat="42.8097133" lon="13.42827"><ele>686.0</ele><time>2026-04-04T14:08:50.755Z</time></trkpt><trkpt lat="42.809615" lon="13.4283467"><ele>686.0</ele><time>2026-04-04T14:08:52.755Z</time></trkpt><trkpt lat="42.809525" lon="13.4284433"><ele>686.0</ele><time>2026-04-04T14:08:54.755Z</time></trkpt><trkpt lat="42.8094583" lon="13.428575"><ele>686.0</ele><time>2026-04-04T14:08:56.756Z</time></trkpt><trkpt lat="42.8094267" lon="13.4286517"><ele>686.0</ele><time>2026-04-04T14:08:57.756Z</time></trkpt><trkpt lat="42.8094" lon="13.4287517"><ele>686.0</ele><time>2026-04-04T14:08:58.755Z</time></trkpt><trkpt lat="42.80937" lon="13.4288583"><ele>685.1999999999999</ele><time>2026-04-04T14:08:59.755Z</time></trkpt><trkpt lat="42.8093417" lon="13.4289717"><ele>684.4</ele><time>2026-04-04T14:09:00.755Z</time></trkpt><trkpt lat="42.8093083" lon="13.4290967"><ele>683.6</ele><time>2026-04-04T14:09:01.755Z</time></trkpt><trkpt lat="42.809265" lon="13.4292417"><ele>682.8</ele><time>2026-04-04T14:09:02.755Z</time></trkpt><trkpt lat="42.8092267" lon="13.4293883"><ele>682.0</ele><time>2026-04-04T14:09:03.755Z</time></trkpt><trkpt lat="42.8091883" lon="13.4295483"><ele>681.5</ele><time>2026-04-04T14:09:04.755Z</time></trkpt><trkpt lat="42.80916" lon="13.4297033"><ele>681.0</ele><time>2026-04-04T14:09:05.755Z</time></trkpt><trkpt lat="42.8091367" lon="13.4298617"><ele>680.5</ele><time>2026-04-04T14:09:06.756Z</time></trkpt><trkpt lat="42.809125" lon="13.430025"><ele>680.0</ele><time>2026-04-04T14:09:07.755Z</time></trkpt><trkpt lat="42.80911" lon="13.4301883"><ele>680.0</ele><time>2026-04-04T14:09:08.755Z</time></trkpt><trkpt lat="42.8091133" lon="13.4303617"><ele>680.0</ele><time>2026-04-04T14:09:09.756Z</time></trkpt><trkpt lat="42.8091167" lon="13.430545"><ele>680.0</ele><time>2026-04-04T14:09:10.756Z</time></trkpt><trkpt lat="42.80912" lon="13.430725"><ele>680.0</ele><time>2026-04-04T14:09:11.756Z</time></trkpt><trkpt lat="42.80913" lon="13.4309033"><ele>680.0</ele><time>2026-04-04T14:09:12.755Z</time></trkpt><trkpt lat="42.80914" lon="13.4311033"><ele>680.0</ele><time>2026-04-04T14:09:13.755Z</time></trkpt><trkpt lat="42.80916" lon="13.4312833"><ele>680.0</ele><time>2026-04-04T14:09:14.755Z</time></trkpt><trkpt lat="42.8091883" lon="13.4314317"><ele>680.0</ele><time>2026-04-04T14:09:15.755Z</time></trkpt><trkpt lat="42.8092317" lon="13.431565"><ele>680.0</ele><time>2026-04-04T14:09:16.756Z</time></trkpt><trkpt lat="42.8092917" lon="13.4316983"><ele>680.0</ele><time>2026-04-04T14:09:17.756Z</time></trkpt><trkpt lat="42.8093617" lon="13.4318283"><ele>680.0</ele><time>2026-04-04T14:09:18.755Z</time></trkpt><trkpt lat="42.8094333" lon="13.4319367"><ele>680.0</ele><time>2026-04-04T14:09:19.755Z</time></trkpt><trkpt lat="42.8095067" lon="13.4320433"><ele>680.0</ele><time>2026-04-04T14:09:20.756Z</time></trkpt><trkpt lat="42.8095967" lon="13.4321617"><ele>678.0</ele><time>2026-04-04T14:09:21.755Z</time></trkpt><trkpt lat="42.8096833" lon="13.432295"><ele>676.0</ele><time>2026-04-04T14:09:22.755Z</time></trkpt><trkpt lat="42.8097517" lon="13.4324167"><ele>674.0</ele><time>2026-04-04T14:09:23.755Z</time></trkpt><trkpt lat="42.809825" lon="13.4325533"><ele>672.0</ele><time>2026-04-04T14:09:24.756Z</time></trkpt><trkpt lat="42.809905" lon="13.432705"><ele>672.0</ele><time>2026-04-04T14:09:25.755Z</time></trkpt><trkpt lat="42.80997" lon="13.4328483"><ele>672.0</ele><time>2026-04-04T14:09:26.756Z</time></trkpt><trkpt lat="42.810035" lon="13.432965"><ele>672.0</ele><time>2026-04-04T14:09:27.756Z</time></trkpt><trkpt lat="42.810085" lon="13.433065"><ele>672.0</ele><time>2026-04-04T14:09:28.755Z</time></trkpt><trkpt lat="42.810125" lon="13.4331483"><ele>672.0</ele><time>2026-04-04T14:09:29.755Z</time></trkpt><trkpt lat="42.81016" lon="13.4332317"><ele>669.5</ele><time>2026-04-04T14:09:30.755Z</time></trkpt><trkpt lat="42.81019" lon="13.4333183"><ele>667.0</ele><time>2026-04-04T14:09:31.755Z</time></trkpt><trkpt lat="42.8102117" lon="13.4334233"><ele>664.5</ele><time>2026-04-04T14:09:32.755Z</time></trkpt><trkpt lat="42.8102317" lon="13.4335367"><ele>662.0</ele><time>2026-04-04T14:09:33.755Z</time></trkpt><trkpt lat="42.810255" lon="13.4336533"><ele>659.5</ele><time>2026-04-04T14:09:34.756Z</time></trkpt><trkpt lat="42.81027" lon="13.4337817"><ele>657.0</ele><time>2026-04-04T14:09:35.756Z</time></trkpt><trkpt lat="42.8102683" lon="13.4339217"><ele>656.4000000000001</ele><time>2026-04-04T14:09:36.755Z</time></trkpt><trkpt lat="42.810265" lon="13.43406"><ele>655.8000000000001</ele><time>2026-04-04T14:09:37.756Z</time></trkpt><trkpt lat="42.8102633" lon="13.4341933"><ele>655.2</ele><time>2026-04-04T14:09:38.756Z</time></trkpt><trkpt lat="42.8102417" lon="13.43431"><ele>654.6</ele><time>2026-04-04T14:09:39.755Z</time></trkpt><trkpt lat="42.8102" lon="13.4344117"><ele>654.0</ele><time>2026-04-04T14:09:40.755Z</time></trkpt><trkpt lat="42.8101417" lon="13.4345167"><ele>657.0</ele><time>2026-04-04T14:09:41.756Z</time></trkpt><trkpt lat="42.8100667" lon="13.4346117"><ele>660.0</ele><time>2026-04-04T14:09:42.756Z</time></trkpt><trkpt lat="42.8099883" lon="13.434695"><ele>663.0</ele><time>2026-04-04T14:09:43.755Z</time></trkpt><trkpt lat="42.80991" lon="13.4347767"><ele>666.0</ele><time>2026-04-04T14:09:44.756Z</time></trkpt><trkpt lat="42.8098433" lon="13.43488"><ele>669.0</ele><time>2026-04-04T14:09:45.756Z</time></trkpt><trkpt lat="42.8097883" lon="13.435005"><ele>669.0</ele><time>2026-04-04T14:09:46.755Z</time></trkpt><trkpt lat="42.8097483" lon="13.4351417"><ele>669.0</ele><time>2026-04-04T14:09:47.755Z</time></trkpt><trkpt lat="42.8097317" lon="13.435285"><ele>669.0</ele><time>2026-04-04T14:09:48.755Z</time></trkpt><trkpt lat="42.80972" lon="13.4354367"><ele>669.0</ele><time>2026-04-04T14:09:49.755Z</time></trkpt><trkpt lat="42.8097067" lon="13.4355867"><ele>669.0</ele><time>2026-04-04T14:09:50.755Z</time></trkpt><trkpt lat="42.8096817" lon="13.435725"><ele>668.4000000000001</ele><time>2026-04-04T14:09:51.755Z</time></trkpt><trkpt lat="42.8096567" lon="13.43586"><ele>667.8</ele><time>2026-04-04T14:09:52.755Z</time></trkpt><trkpt lat="42.80964" lon="13.435995"><ele>667.2</ele><time>2026-04-04T14:09:53.755Z</time></trkpt><trkpt lat="42.8096417" lon="13.4361267"><ele>666.5999999999999</ele><time>2026-04-04T14:09:54.755Z</time></trkpt><trkpt lat="42.8096633" lon="13.43627"><ele>666.0</ele><time>2026-04-04T14:09:55.756Z</time></trkpt><trkpt lat="42.8097017" lon="13.4364067"><ele>668.4</ele><time>2026-04-04T14:09:56.756Z</time></trkpt><trkpt lat="42.80974" lon="13.4365283"><ele>670.8</ele><time>2026-04-04T14:09:57.756Z</time></trkpt><trkpt lat="42.8097817" lon="13.4366517"><ele>673.1999999999999</ele><time>2026-04-04T14:09:58.755Z</time></trkpt><trkpt lat="42.80981" lon="13.4367767"><ele>675.5999999999999</ele><time>2026-04-04T14:09:59.755Z</time></trkpt><trkpt lat="42.80983" lon="13.4369083"><ele>678.0</ele><time>2026-04-04T14:10:00.755Z</time></trkpt><trkpt lat="42.80984" lon="13.4370283"><ele>678.5</ele><time>2026-04-04T14:10:01.755Z</time></trkpt><trkpt lat="42.8098333" lon="13.437145"><ele>679.0</ele><time>2026-04-04T14:10:02.755Z</time></trkpt><trkpt lat="42.8098167" lon="13.4372517"><ele>679.5</ele><time>2026-04-04T14:10:03.755Z</time></trkpt><trkpt lat="42.809785" lon="13.4373467"><ele>680.0</ele><time>2026-04-04T14:10:04.755Z</time></trkpt><trkpt lat="42.80975" lon="13.4374283"><ele>680.5</ele><time>2026-04-04T14:10:05.755Z</time></trkpt><trkpt lat="42.8097017" lon="13.4375133"><ele>681.0</ele><time>2026-04-04T14:10:06.755Z</time></trkpt><trkpt lat="42.80963" lon="13.43758"><ele>681.0</ele><time>2026-04-04T14:10:07.755Z</time></trkpt><trkpt lat="42.809555" lon="13.4376533"><ele>681.0</ele><time>2026-04-04T14:10:08.756Z</time></trkpt><trkpt lat="42.8094717" lon="13.4377233"><ele>681.0</ele><time>2026-04-04T14:10:09.755Z</time></trkpt><trkpt lat="42.8093817" lon="13.437795"><ele>681.0</ele><time>2026-04-04T14:10:10.755Z</time></trkpt><trkpt lat="42.8092933" lon="13.4378817"><ele>681.0</ele><time>2026-04-04T14:10:11.755Z</time></trkpt><trkpt lat="42.8092067" lon="13.437985"><ele>681.4</ele><time>2026-04-04T14:10:12.755Z</time></trkpt><trkpt lat="42.8091417" lon="13.4381017"><ele>681.8</ele><time>2026-04-04T14:10:13.755Z</time></trkpt><trkpt lat="42.8090833" lon="13.4382317"><ele>682.1999999999999</ele><time>2026-04-04T14:10:14.756Z</time></trkpt><trkpt lat="42.80903" lon="13.4383633"><ele>682.5999999999999</ele><time>2026-04-04T14:10:15.756Z</time></trkpt><trkpt lat="42.8089767" lon="13.438495"><ele>683.0</ele><time>2026-04-04T14:10:16.755Z</time></trkpt><trkpt lat="42.808935" lon="13.4386267"><ele>683.0</ele><time>2026-04-04T14:10:17.756Z</time></trkpt><trkpt lat="42.8089067" lon="13.4387467"><ele>683.0</ele><time>2026-04-04T14:10:18.756Z</time></trkpt><trkpt lat="42.8088733" lon="13.438865"><ele>683.0</ele><time>2026-04-04T14:10:19.755Z</time></trkpt><trkpt lat="42.8088417" lon="13.4389783"><ele>683.0</ele><time>2026-04-04T14:10:20.755Z</time></trkpt><trkpt lat="42.80879" lon="13.4390833"><ele>683.0</ele><time>2026-04-04T14:10:21.755Z</time></trkpt><trkpt lat="42.8087467" lon="13.43919"><ele>682.0</ele><time>2026-04-04T14:10:22.756Z</time></trkpt><trkpt lat="42.808705" lon="13.4393117"><ele>681.0</ele><time>2026-04-04T14:10:23.755Z</time></trkpt><trkpt lat="42.8086783" lon="13.4394283"><ele>680.0</ele><time>2026-04-04T14:10:24.756Z</time></trkpt><trkpt lat="42.8086517" lon="13.43954"><ele>679.0</ele><time>2026-04-04T14:10:25.755Z</time></trkpt><trkpt lat="42.808635" lon="13.4396433"><ele>678.0</ele><time>2026-04-04T14:10:26.756Z</time></trkpt><trkpt lat="42.8086367" lon="13.4397633"><ele>677.0</ele><time>2026-04-04T14:10:27.755Z</time></trkpt><trkpt lat="42.8086517" lon="13.43989"><ele>677.5</ele><time>2026-04-04T14:10:28.756Z</time></trkpt><trkpt lat="42.8086867" lon="13.4400083"><ele>678.0</ele><time>2026-04-04T14:10:29.755Z</time></trkpt><trkpt lat="42.8087233" lon="13.4401233"><ele>678.5</ele><time>2026-04-04T14:10:30.756Z</time></trkpt><trkpt lat="42.80876" lon="13.4402217"><ele>679.0</ele><time>2026-04-04T14:10:31.756Z</time></trkpt><trkpt lat="42.80881" lon="13.4403183"><ele>679.5</ele><time>2026-04-04T14:10:32.755Z</time></trkpt><trkpt lat="42.8088617" lon="13.4404033"><ele>680.0</ele><time>2026-04-04T14:10:33.755Z</time></trkpt><trkpt lat="42.8089167" lon="13.4404833"><ele>680.0</ele><time>2026-04-04T14:10:34.756Z</time></trkpt><trkpt lat="42.8089533" lon="13.4405667"><ele>680.0</ele><time>2026-04-04T14:10:35.755Z</time></trkpt><trkpt lat="42.809" lon="13.440645"><ele>680.0</ele><time>2026-04-04T14:10:36.755Z</time></trkpt><trkpt lat="42.8090567" lon="13.4407083"><ele>680.0</ele><time>2026-04-04T14:10:37.756Z</time></trkpt><trkpt lat="42.8091117" lon="13.4407633"><ele>680.0</ele><time>2026-04-04T14:10:38.755Z</time></trkpt><trkpt lat="42.8091833" lon="13.4408117"><ele>680.0</ele><time>2026-04-04T14:10:39.755Z</time></trkpt><trkpt lat="42.8092517" lon="13.440865"><ele>680.0</ele><time>2026-04-04T14:10:40.755Z</time></trkpt><trkpt lat="42.80932" lon="13.44092"><ele>677.3333333333333</ele><time>2026-04-04T14:10:41.755Z</time></trkpt><trkpt lat="42.809395" lon="13.44097"><ele>674.6666666666666</ele><time>2026-04-04T14:10:42.756Z</time></trkpt><trkpt lat="42.809465" lon="13.4410383"><ele>672.0</ele><time>2026-04-04T14:10:43.755Z</time></trkpt><trkpt lat="42.809535" lon="13.4411133"><ele>669.3333333333334</ele><time>2026-04-04T14:10:44.756Z</time></trkpt><trkpt lat="42.8095933" lon="13.441185"><ele>666.6666666666667</ele><time>2026-04-04T14:10:45.755Z</time></trkpt><trkpt lat="42.8096383" lon="13.4412717"><ele>664.0</ele><time>2026-04-04T14:10:46.755Z</time></trkpt><trkpt lat="42.8096817" lon="13.4413717"><ele>664.0</ele><time>2026-04-04T14:10:47.755Z</time></trkpt><trkpt lat="42.8097167" lon="13.44147"><ele>664.0</ele><time>2026-04-04T14:10:48.755Z</time></trkpt><trkpt lat="42.80976" lon="13.4415683"><ele>664.0</ele><time>2026-04-04T14:10:49.755Z</time></trkpt><trkpt lat="42.8098083" lon="13.4416733"><ele>664.0</ele><time>2026-04-04T14:10:50.756Z</time></trkpt><trkpt lat="42.8098733" lon="13.4417617"><ele>664.0</ele><time>2026-04-04T14:10:51.755Z</time></trkpt><trkpt lat="42.8099417" lon="13.4418317"><ele>664.0</ele><time>2026-04-04T14:10:52.755Z</time></trkpt><trkpt lat="42.8100283" lon="13.4419"><ele>664.0</ele><time>2026-04-04T14:10:53.755Z</time></trkpt><trkpt lat="42.8101317" lon="13.4419767"><ele>664.0</ele><time>2026-04-04T14:10:54.755Z</time></trkpt><trkpt lat="42.8102283" lon="13.442065"><ele>664.0</ele><time>2026-04-04T14:10:55.755Z</time></trkpt><trkpt lat="42.8103217" lon="13.44217"><ele>664.0</ele><time>2026-04-04T14:10:56.755Z</time></trkpt><trkpt lat="42.8104167" lon="13.4422833"><ele>662.8000000000001</ele><time>2026-04-04T14:10:57.756Z</time></trkpt><trkpt lat="42.8105" lon="13.4423867"><ele>661.6</ele><time>2026-04-04T14:10:58.755Z</time></trkpt><trkpt lat="42.8105617" lon="13.4425"><ele>660.4</ele><time>2026-04-04T14:10:59.756Z</time></trkpt><trkpt lat="42.8106033" lon="13.4426117"><ele>659.2</ele><time>2026-04-04T14:11:00.755Z</time></trkpt><trkpt lat="42.8106467" lon="13.44272"><ele>658.0</ele><time>2026-04-04T14:11:01.755Z</time></trkpt><trkpt lat="42.8106867" lon="13.442815"><ele>658.0</ele><time>2026-04-04T14:11:02.755Z</time></trkpt><trkpt lat="42.8107283" lon="13.442885"><ele>658.0</ele><time>2026-04-04T14:11:03.756Z</time></trkpt><trkpt lat="42.8108117" lon="13.442985"><ele>658.0</ele><time>2026-04-04T14:11:05.756Z</time></trkpt><trkpt lat="42.8108733" lon="13.44302"><ele>658.0</ele><time>2026-04-04T14:11:06.756Z</time></trkpt><trkpt lat="42.8109383" lon="13.4430483"><ele>658.0</ele><time>2026-04-04T14:11:07.755Z</time></trkpt><trkpt lat="42.8110117" lon="13.44307"><ele>658.0</ele><time>2026-04-04T14:11:08.755Z</time></trkpt><trkpt lat="42.8110917" lon="13.443075"><ele>658.1666666666667</ele><time>2026-04-04T14:11:09.756Z</time></trkpt><trkpt lat="42.8111717" lon="13.4430867"><ele>658.3333333333334</ele><time>2026-04-04T14:11:10.756Z</time></trkpt><trkpt lat="42.8112483" lon="13.44312"><ele>658.5</ele><time>2026-04-04T14:11:11.756Z</time></trkpt><trkpt lat="42.8113283" lon="13.4431633"><ele>658.6666666666666</ele><time>2026-04-04T14:11:12.756Z</time></trkpt><trkpt lat="42.8114117" lon="13.4432217"><ele>658.8333333333333</ele><time>2026-04-04T14:11:13.756Z</time></trkpt><trkpt lat="42.811495" lon="13.443285"><ele>659.0</ele><time>2026-04-04T14:11:14.756Z</time></trkpt><trkpt lat="42.81157" lon="13.4433483"><ele>659.0</ele><time>2026-04-04T14:11:15.755Z</time></trkpt><trkpt lat="42.8116433" lon="13.443415"><ele>659.0</ele><time>2026-04-04T14:11:16.755Z</time></trkpt><trkpt lat="42.8117117" lon="13.443485"><ele>659.0</ele><time>2026-04-04T14:11:17.756Z</time></trkpt><trkpt lat="42.8117667" lon="13.443565"><ele>659.0</ele><time>2026-04-04T14:11:18.756Z</time></trkpt><trkpt lat="42.8118117" lon="13.443655"><ele>659.0</ele><time>2026-04-04T14:11:19.756Z</time></trkpt><trkpt lat="42.8118633" lon="13.4437567"><ele>659.0</ele><time>2026-04-04T14:11:20.755Z</time></trkpt><trkpt lat="42.811895" lon="13.4438717"><ele>654.0</ele><time>2026-04-04T14:11:21.756Z</time></trkpt><trkpt lat="42.8119033" lon="13.444"><ele>649.0</ele><time>2026-04-04T14:11:22.755Z</time></trkpt><trkpt lat="42.811915" lon="13.4441333"><ele>644.0</ele><time>2026-04-04T14:11:23.755Z</time></trkpt><trkpt lat="42.8119283" lon="13.4442667"><ele>639.0</ele><time>2026-04-04T14:11:24.755Z</time></trkpt><trkpt lat="42.8119483" lon="13.4443867"><ele>634.0</ele><time>2026-04-04T14:11:25.755Z</time></trkpt><trkpt lat="42.811955" lon="13.444505"><ele>634.0</ele><time>2026-04-04T14:11:26.756Z</time></trkpt><trkpt lat="42.8119567" lon="13.4446167"><ele>634.0</ele><time>2026-04-04T14:11:27.756Z</time></trkpt><trkpt lat="42.8119383" lon="13.4447217"><ele>634.0</ele><time>2026-04-04T14:11:28.755Z</time></trkpt><trkpt lat="42.81192" lon="13.4448233"><ele>634.0</ele><time>2026-04-04T14:11:29.755Z</time></trkpt><trkpt lat="42.8119067" lon="13.4449167"><ele>634.0</ele><time>2026-04-04T14:11:30.754Z</time></trkpt><trkpt lat="42.8119" lon="13.44502"><ele>634.0</ele><time>2026-04-04T14:11:31.754Z</time></trkpt><trkpt lat="42.8118917" lon="13.44514"><ele>631.8333333333334</ele><time>2026-04-04T14:11:32.754Z</time></trkpt><trkpt lat="42.81189" lon="13.4452583"><ele>629.6666666666667</ele><time>2026-04-04T14:11:33.754Z</time></trkpt><trkpt lat="42.8118983" lon="13.44537"><ele>627.5</ele><time>2026-04-04T14:11:34.755Z</time></trkpt><trkpt lat="42.8119133" lon="13.4454833"><ele>625.3333333333334</ele><time>2026-04-04T14:11:35.754Z</time></trkpt><trkpt lat="42.8119133" lon="13.4455917"><ele>623.1666666666666</ele><time>2026-04-04T14:11:36.755Z</time></trkpt><trkpt lat="42.8119233" lon="13.4456883"><ele>621.0</ele><time>2026-04-04T14:11:37.754Z</time></trkpt><trkpt lat="42.8119367" lon="13.4457883"><ele>619.6666666666666</ele><time>2026-04-04T14:11:38.754Z</time></trkpt><trkpt lat="42.8119483" lon="13.4458883"><ele>618.3333333333334</ele><time>2026-04-04T14:11:39.755Z</time></trkpt><trkpt lat="42.81195" lon="13.445995"><ele>617.0</ele><time>2026-04-04T14:11:40.754Z</time></trkpt><trkpt lat="42.811945" lon="13.446105"><ele>615.6666666666667</ele><time>2026-04-04T14:11:41.754Z</time></trkpt><trkpt lat="42.8119433" lon="13.44622"><ele>614.3333333333334</ele><time>2026-04-04T14:11:42.754Z</time></trkpt><trkpt lat="42.8119633" lon="13.44633"><ele>613.0</ele><time>2026-04-04T14:11:43.754Z</time></trkpt><trkpt lat="42.8119883" lon="13.44645"><ele>612.4</ele><time>2026-04-04T14:11:44.754Z</time></trkpt><trkpt lat="42.81199" lon="13.446575"><ele>611.8</ele><time>2026-04-04T14:11:45.754Z</time></trkpt><trkpt lat="42.8119767" lon="13.4466983"><ele>611.2</ele><time>2026-04-04T14:11:46.755Z</time></trkpt><trkpt lat="42.81196" lon="13.4468333"><ele>610.6</ele><time>2026-04-04T14:11:47.754Z</time></trkpt><trkpt lat="42.811945" lon="13.44698"><ele>610.0</ele><time>2026-04-04T14:11:48.755Z</time></trkpt><trkpt lat="42.8119317" lon="13.4471283"><ele>610.0</ele><time>2026-04-04T14:11:49.755Z</time></trkpt><trkpt lat="42.8119117" lon="13.4472783"><ele>610.0</ele><time>2026-04-04T14:11:50.754Z</time></trkpt><trkpt lat="42.8119033" lon="13.4474183"><ele>610.0</ele><time>2026-04-04T14:11:51.754Z</time></trkpt><trkpt lat="42.8118883" lon="13.44755"><ele>610.0</ele><time>2026-04-04T14:11:52.754Z</time></trkpt><trkpt lat="42.811885" lon="13.44768"><ele>610.0</ele><time>2026-04-04T14:11:53.755Z</time></trkpt><trkpt lat="42.8118783" lon="13.44781"><ele>610.0</ele><time>2026-04-04T14:11:54.754Z</time></trkpt><trkpt lat="42.8118783" lon="13.4479267"><ele>610.0</ele><time>2026-04-04T14:11:55.754Z</time></trkpt><trkpt lat="42.8118817" lon="13.4480533"><ele>610.0</ele><time>2026-04-04T14:11:56.754Z</time></trkpt><trkpt lat="42.81189" lon="13.4481817"><ele>610.0</ele><time>2026-04-04T14:11:57.755Z</time></trkpt><trkpt lat="42.8118883" lon="13.4483117"><ele>610.0</ele><time>2026-04-04T14:11:58.754Z</time></trkpt><trkpt lat="42.8118917" lon="13.448455"><ele>610.6</ele><time>2026-04-04T14:11:59.755Z</time></trkpt><trkpt lat="42.81189" lon="13.4486017"><ele>611.2</ele><time>2026-04-04T14:12:00.754Z</time></trkpt><trkpt lat="42.8118867" lon="13.4487533"><ele>611.8</ele><time>2026-04-04T14:12:01.754Z</time></trkpt><trkpt lat="42.8118767" lon="13.4489083"><ele>612.4</ele><time>2026-04-04T14:12:02.754Z</time></trkpt><trkpt lat="42.8118683" lon="13.4490583"><ele>613.0</ele><time>2026-04-04T14:12:03.754Z</time></trkpt><trkpt lat="42.8118633" lon="13.449195"><ele>609.6</ele><time>2026-04-04T14:12:04.755Z</time></trkpt><trkpt lat="42.81187" lon="13.4493283"><ele>606.1999999999999</ele><time>2026-04-04T14:12:05.755Z</time></trkpt><trkpt lat="42.8118683" lon="13.4494683"><ele>602.8</ele><time>2026-04-04T14:12:06.754Z</time></trkpt><trkpt lat="42.8118583" lon="13.4496067"><ele>599.4</ele><time>2026-04-04T14:12:07.754Z</time></trkpt><trkpt lat="42.8118483" lon="13.4497317"><ele>596.0</ele><time>2026-04-04T14:12:08.755Z</time></trkpt><trkpt lat="42.8118333" lon="13.449845"><ele>600.6</ele><time>2026-04-04T14:12:09.754Z</time></trkpt><trkpt lat="42.8118033" lon="13.4499433"><ele>605.2</ele><time>2026-04-04T14:12:10.754Z</time></trkpt><trkpt lat="42.8117417" lon="13.450045"><ele>609.8</ele><time>2026-04-04T14:12:11.754Z</time></trkpt><trkpt lat="42.8116833" lon="13.4501633"><ele>614.4</ele><time>2026-04-04T14:12:12.754Z</time></trkpt><trkpt lat="42.8116317" lon="13.450295"><ele>619.0</ele><time>2026-04-04T14:12:13.754Z</time></trkpt><trkpt lat="42.8115867" lon="13.4504333"><ele>615.6</ele><time>2026-04-04T14:12:14.754Z</time></trkpt><trkpt lat="42.8115467" lon="13.4505583"><ele>612.2</ele><time>2026-04-04T14:12:15.755Z</time></trkpt><trkpt lat="42.8115083" lon="13.4506817"><ele>608.8000000000001</ele><time>2026-04-04T14:12:16.754Z</time></trkpt><trkpt lat="42.8114733" lon="13.4508033"><ele>605.4</ele><time>2026-04-04T14:12:17.754Z</time></trkpt><trkpt lat="42.8114333" lon="13.45092"><ele>602.0</ele><time>2026-04-04T14:12:18.754Z</time></trkpt><trkpt lat="42.81138" lon="13.451025"><ele>602.0</ele><time>2026-04-04T14:12:19.755Z</time></trkpt><trkpt lat="42.8113267" lon="13.4511217"><ele>602.0</ele><time>2026-04-04T14:12:20.754Z</time></trkpt><trkpt lat="42.8112683" lon="13.45121"><ele>602.0</ele><time>2026-04-04T14:12:21.755Z</time></trkpt><trkpt lat="42.8112017" lon="13.4512983"><ele>602.0</ele><time>2026-04-04T14:12:22.754Z</time></trkpt><trkpt lat="42.8111233" lon="13.4513817"><ele>602.0</ele><time>2026-04-04T14:12:23.754Z</time></trkpt><trkpt lat="42.811035" lon="13.4514483"><ele>599.8000000000001</ele><time>2026-04-04T14:12:24.754Z</time></trkpt><trkpt lat="42.81095" lon="13.45151"><ele>597.6</ele><time>2026-04-04T14:12:25.755Z</time></trkpt><trkpt lat="42.810865" lon="13.4515717"><ele>595.4000000000001</ele><time>2026-04-04T14:12:26.755Z</time></trkpt><trkpt lat="42.8107817" lon="13.4516383"><ele>593.2</ele><time>2026-04-04T14:12:27.754Z</time></trkpt><trkpt lat="42.8107" lon="13.4516933"><ele>591.0</ele><time>2026-04-04T14:12:28.755Z</time></trkpt><trkpt lat="42.810625" lon="13.4517617"><ele>591.0</ele><time>2026-04-04T14:12:29.754Z</time></trkpt><trkpt lat="42.8105567" lon="13.4518617"><ele>591.0</ele><time>2026-04-04T14:12:30.755Z</time></trkpt><trkpt lat="42.8105033" lon="13.4519667"><ele>591.0</ele><time>2026-04-04T14:12:31.754Z</time></trkpt><trkpt lat="42.8104583" lon="13.452095"><ele>591.0</ele><time>2026-04-04T14:12:32.754Z</time></trkpt><trkpt lat="42.81041" lon="13.45223"><ele>591.0</ele><time>2026-04-04T14:12:33.754Z</time></trkpt><trkpt lat="42.8103633" lon="13.4523767"><ele>588.6</ele><time>2026-04-04T14:12:34.755Z</time></trkpt><trkpt lat="42.8103367" lon="13.4525133"><ele>586.2</ele><time>2026-04-04T14:12:35.754Z</time></trkpt><trkpt lat="42.8103133" lon="13.4526433"><ele>583.8</ele><time>2026-04-04T14:12:36.755Z</time></trkpt><trkpt lat="42.8102967" lon="13.4527717"><ele>581.4</ele><time>2026-04-04T14:12:37.754Z</time></trkpt><trkpt lat="42.8102683" lon="13.45289"><ele>579.0</ele><time>2026-04-04T14:12:38.754Z</time></trkpt><trkpt lat="42.8102383" lon="13.4530183"><ele>579.4</ele><time>2026-04-04T14:12:39.754Z</time></trkpt><trkpt lat="42.81019" lon="13.4531383"><ele>579.8</ele><time>2026-04-04T14:12:40.754Z</time></trkpt><trkpt lat="42.810135" lon="13.4532767"><ele>580.2</ele><time>2026-04-04T14:12:41.754Z</time></trkpt><trkpt lat="42.8100767" lon="13.4534133"><ele>580.6</ele><time>2026-04-04T14:12:42.754Z</time></trkpt><trkpt lat="42.810015" lon="13.453545"><ele>581.0</ele><time>2026-04-04T14:12:43.755Z</time></trkpt><trkpt lat="42.8099517" lon="13.4536733"><ele>578.0</ele><time>2026-04-04T14:12:44.755Z</time></trkpt><trkpt lat="42.8099133" lon="13.4537917"><ele>575.0</ele><time>2026-04-04T14:12:45.754Z</time></trkpt><trkpt lat="42.809855" lon="13.4538983"><ele>572.0</ele><time>2026-04-04T14:12:46.755Z</time></trkpt><trkpt lat="42.8097917" lon="13.4540117"><ele>569.0</ele><time>2026-04-04T14:12:47.754Z</time></trkpt><trkpt lat="42.8097233" lon="13.4540983"><ele>566.0</ele><time>2026-04-04T14:12:48.755Z</time></trkpt><trkpt lat="42.80965" lon="13.45418"><ele>566.0</ele><time>2026-04-04T14:12:49.754Z</time></trkpt><trkpt lat="42.8095733" lon="13.4542483"><ele>566.0</ele><time>2026-04-04T14:12:50.754Z</time></trkpt><trkpt lat="42.8095" lon="13.45431"><ele>566.0</ele><time>2026-04-04T14:12:51.755Z</time></trkpt><trkpt lat="42.8094233" lon="13.45437"><ele>566.0</ele><time>2026-04-04T14:12:52.755Z</time></trkpt><trkpt lat="42.8093417" lon="13.4544083"><ele>566.0</ele><time>2026-04-04T14:12:53.754Z</time></trkpt><trkpt lat="42.8092517" lon="13.4544217"><ele>566.0</ele><time>2026-04-04T14:12:54.754Z</time></trkpt><trkpt lat="42.8091683" lon="13.45441"><ele>565.8333333333333</ele><time>2026-04-04T14:12:55.754Z</time></trkpt><trkpt lat="42.80909" lon="13.4543767"><ele>565.6666666666666</ele><time>2026-04-04T14:12:56.755Z</time></trkpt><trkpt lat="42.80901" lon="13.4543567"><ele>565.5</ele><time>2026-04-04T14:12:57.754Z</time></trkpt><trkpt lat="42.8089317" lon="13.45436"><ele>565.3333333333334</ele><time>2026-04-04T14:12:58.755Z</time></trkpt><trkpt lat="42.8088467" lon="13.4543867"><ele>565.1666666666667</ele><time>2026-04-04T14:12:59.754Z</time></trkpt><trkpt lat="42.808755" lon="13.454435"><ele>565.0</ele><time>2026-04-04T14:13:00.754Z</time></trkpt><trkpt lat="42.8086667" lon="13.4544833"><ele>565.0</ele><time>2026-04-04T14:13:01.755Z</time></trkpt><trkpt lat="42.8085783" lon="13.4545283"><ele>565.0</ele><time>2026-04-04T14:13:02.755Z</time></trkpt><trkpt lat="42.8084983" lon="13.4545617"><ele>565.0</ele><time>2026-04-04T14:13:03.755Z</time></trkpt><trkpt lat="42.8084267" lon="13.4545867"><ele>565.0</ele><time>2026-04-04T14:13:04.755Z</time></trkpt><trkpt lat="42.80836" lon="13.4546233"><ele>565.0</ele><time>2026-04-04T14:13:05.754Z</time></trkpt><trkpt lat="42.8082933" lon="13.4546583"><ele>565.0</ele><time>2026-04-04T14:13:06.754Z</time></trkpt><trkpt lat="42.80821" lon="13.4546983"><ele>561.4</ele><time>2026-04-04T14:13:07.755Z</time></trkpt><trkpt lat="42.8081167" lon="13.4547417"><ele>557.8</ele><time>2026-04-04T14:13:08.754Z</time></trkpt><trkpt lat="42.8080117" lon="13.4547917"><ele>554.2</ele><time>2026-04-04T14:13:09.754Z</time></trkpt><trkpt lat="42.8078983" lon="13.4548367"><ele>550.6</ele><time>2026-04-04T14:13:10.754Z</time></trkpt><trkpt lat="42.8077833" lon="13.45488"><ele>547.0</ele><time>2026-04-04T14:13:11.754Z</time></trkpt><trkpt lat="42.8076617" lon="13.4549233"><ele>546.6</ele><time>2026-04-04T14:13:12.754Z</time></trkpt><trkpt lat="42.80756" lon="13.4549733"><ele>546.2</ele><time>2026-04-04T14:13:13.754Z</time></trkpt><trkpt lat="42.8074767" lon="13.4550483"><ele>545.8</ele><time>2026-04-04T14:13:14.754Z</time></trkpt><trkpt lat="42.8074017" lon="13.4551167"><ele>545.4</ele><time>2026-04-04T14:13:15.755Z</time></trkpt><trkpt lat="42.80732" lon="13.45515"><ele>545.0</ele><time>2026-04-04T14:13:16.754Z</time></trkpt><trkpt lat="42.80724" lon="13.4551683"><ele>545.0</ele><time>2026-04-04T14:13:17.754Z</time></trkpt><trkpt lat="42.80714" lon="13.455165"><ele>545.0</ele><time>2026-04-04T14:13:18.754Z</time></trkpt><trkpt lat="42.8070317" lon="13.45515"><ele>545.0</ele><time>2026-04-04T14:13:19.755Z</time></trkpt><trkpt lat="42.8069133" lon="13.455155"><ele>545.0</ele><time>2026-04-04T14:13:20.754Z</time></trkpt><trkpt lat="42.8068017" lon="13.4551683"><ele>545.0</ele><time>2026-04-04T14:13:21.754Z</time></trkpt><trkpt lat="42.8067" lon="13.45518"><ele>542.6</ele><time>2026-04-04T14:13:22.754Z</time></trkpt><trkpt lat="42.80662" lon="13.45519"><ele>540.2</ele><time>2026-04-04T14:13:23.754Z</time></trkpt><trkpt lat="42.8065217" lon="13.45514"><ele>537.8</ele><time>2026-04-04T14:13:25.754Z</time></trkpt><trkpt lat="42.806545" lon="13.4549933"><ele>535.4</ele><time>2026-04-04T14:13:27.755Z</time></trkpt><trkpt lat="42.8065967" lon="13.4549133"><ele>533.0</ele><time>2026-04-04T14:13:28.754Z</time></trkpt><trkpt lat="42.806665" lon="13.4548383"><ele>533.0</ele><time>2026-04-04T14:13:29.754Z</time></trkpt><trkpt lat="42.80674" lon="13.4547567"><ele>533.0</ele><time>2026-04-04T14:13:30.755Z</time></trkpt><trkpt lat="42.8068133" lon="13.4546717"><ele>533.0</ele><time>2026-04-04T14:13:31.755Z</time></trkpt><trkpt lat="42.80689" lon="13.4545967"><ele>533.0</ele><time>2026-04-04T14:13:32.754Z</time></trkpt><trkpt lat="42.8069733" lon="13.4545383"><ele>533.0</ele><time>2026-04-04T14:13:33.754Z</time></trkpt><trkpt lat="42.8070533" lon="13.4544883"><ele>531.6</ele><time>2026-04-04T14:13:34.754Z</time></trkpt><trkpt lat="42.807135" lon="13.4544417"><ele>530.1999999999999</ele><time>2026-04-04T14:13:35.755Z</time></trkpt><trkpt lat="42.80722" lon="13.4543983"><ele>528.8</ele><time>2026-04-04T14:13:36.755Z</time></trkpt><trkpt lat="42.8073083" lon="13.454355"><ele>527.4</ele><time>2026-04-04T14:13:37.755Z</time></trkpt><trkpt lat="42.8073983" lon="13.4543033"><ele>526.0</ele><time>2026-04-04T14:13:38.754Z</time></trkpt><trkpt lat="42.8074817" lon="13.454265"><ele>526.0</ele><time>2026-04-04T14:13:39.754Z</time></trkpt><trkpt lat="42.80756" lon="13.45422"><ele>526.0</ele><time>2026-04-04T14:13:40.755Z</time></trkpt><trkpt lat="42.80764" lon="13.4541667"><ele>526.0</ele><time>2026-04-04T14:13:41.755Z</time></trkpt><trkpt lat="42.80771" lon="13.45411"><ele>526.0</ele><time>2026-04-04T14:13:42.754Z</time></trkpt><trkpt lat="42.8077667" lon="13.4540367"><ele>526.0</ele><time>2026-04-04T14:13:43.754Z</time></trkpt><trkpt lat="42.8078067" lon="13.4539433"><ele>526.0</ele><time>2026-04-04T14:13:44.755Z</time></trkpt><trkpt lat="42.807825" lon="13.45385"><ele>526.0</ele><time>2026-04-04T14:13:45.755Z</time></trkpt><trkpt lat="42.8078317" lon="13.4537583"><ele>526.0</ele><time>2026-04-04T14:13:46.754Z</time></trkpt><trkpt lat="42.8077817" lon="13.4536783"><ele>526.0</ele><time>2026-04-04T14:13:48.754Z</time></trkpt><trkpt lat="42.8077133" lon="13.4537217"><ele>526.0</ele><time>2026-04-04T14:13:50.754Z</time></trkpt><trkpt lat="42.8076567" lon="13.4538233"><ele>526.0</ele><time>2026-04-04T14:13:51.754Z</time></trkpt><trkpt lat="42.8075917" lon="13.45393"><ele>526.0</ele><time>2026-04-04T14:13:52.754Z</time></trkpt><trkpt lat="42.8075133" lon="13.4540017"><ele>526.0</ele><time>2026-04-04T14:13:53.755Z</time></trkpt><trkpt lat="42.80743" lon="13.4540367"><ele>526.0</ele><time>2026-04-04T14:13:54.754Z</time></trkpt><trkpt lat="42.8073183" lon="13.4540483"><ele>526.0</ele><time>2026-04-04T14:13:55.755Z</time></trkpt><trkpt lat="42.80719" lon="13.4540433"><ele>526.0</ele><time>2026-04-04T14:13:56.754Z</time></trkpt><trkpt lat="42.8070717" lon="13.4540317"><ele>526.0</ele><time>2026-04-04T14:13:57.755Z</time></trkpt><trkpt lat="42.8069717" lon="13.4540267"><ele>526.0</ele><time>2026-04-04T14:13:58.754Z</time></trkpt><trkpt lat="42.8068767" lon="13.4540383"><ele>526.0</ele><time>2026-04-04T14:13:59.755Z</time></trkpt><trkpt lat="42.8067767" lon="13.454075"><ele>526.0</ele><time>2026-04-04T14:14:00.754Z</time></trkpt><trkpt lat="42.8066867" lon="13.4541317"><ele>526.0</ele><time>2026-04-04T14:14:01.754Z</time></trkpt><trkpt lat="42.8065867" lon="13.454195"><ele>526.0</ele><time>2026-04-04T14:14:02.754Z</time></trkpt><trkpt lat="42.8064783" lon="13.4542467"><ele>522.0</ele><time>2026-04-04T14:14:03.755Z</time></trkpt><trkpt lat="42.8063767" lon="13.4542883"><ele>518.0</ele><time>2026-04-04T14:14:04.754Z</time></trkpt><trkpt lat="42.80627" lon="13.4543333"><ele>514.0</ele><time>2026-04-04T14:14:05.755Z</time></trkpt><trkpt lat="42.806165" lon="13.4543817"><ele>510.0</ele><time>2026-04-04T14:14:06.755Z</time></trkpt><trkpt lat="42.806055" lon="13.45443"><ele>506.0</ele><time>2026-04-04T14:14:07.754Z</time></trkpt><trkpt lat="42.8059417" lon="13.4544733"><ele>501.6</ele><time>2026-04-04T14:14:08.754Z</time></trkpt><trkpt lat="42.8058383" lon="13.454505"><ele>497.20000000000005</ele><time>2026-04-04T14:14:09.754Z</time></trkpt><trkpt lat="42.8057417" lon="13.454525"><ele>492.79999999999995</ele><time>2026-04-04T14:14:10.754Z</time></trkpt><trkpt lat="42.80564" lon="13.4545567"><ele>488.4</ele><time>2026-04-04T14:14:11.755Z</time></trkpt><trkpt lat="42.8055433" lon="13.4545833"><ele>484.0</ele><time>2026-04-04T14:14:12.755Z</time></trkpt><trkpt lat="42.8054483" lon="13.454605"><ele>483.00000000000006</ele><time>2026-04-04T14:14:13.754Z</time></trkpt><trkpt lat="42.8053683" lon="13.454625"><ele>482.0</ele><time>2026-04-04T14:14:14.754Z</time></trkpt><trkpt lat="42.805295" lon="13.454635"><ele>481.0</ele><time>2026-04-04T14:14:15.754Z</time></trkpt><trkpt lat="42.80523" lon="13.4546533"><ele>480.0</ele><time>2026-04-04T14:14:16.755Z</time></trkpt><trkpt lat="42.8051633" lon="13.4547667"><ele>479.00000000000006</ele><time>2026-04-04T14:14:18.754Z</time></trkpt><trkpt lat="42.8051333" lon="13.4548433"><ele>478.0</ele><time>2026-04-04T14:14:19.755Z</time></trkpt><trkpt lat="42.8050383" lon="13.45493"><ele>478.0</ele><time>2026-04-04T14:14:21.754Z</time></trkpt><trkpt lat="42.8049583" lon="13.4549433"><ele>478.0</ele><time>2026-04-04T14:14:22.754Z</time></trkpt><trkpt lat="42.804845" lon="13.454935"><ele>478.0</ele><time>2026-04-04T14:14:23.754Z</time></trkpt><trkpt lat="42.804705" lon="13.454915"><ele>478.0</ele><time>2026-04-04T14:14:24.755Z</time></trkpt><trkpt lat="42.804575" lon="13.454895"><ele>478.0</ele><time>2026-04-04T14:14:25.755Z</time></trkpt><trkpt lat="42.80445" lon="13.4548717"><ele>477.99999999999994</ele><time>2026-04-04T14:14:26.755Z</time></trkpt><trkpt lat="42.804365" lon="13.45485"><ele>477.99999999999994</ele><time>2026-04-04T14:14:27.754Z</time></trkpt><trkpt lat="42.8042833" lon="13.4548133"><ele>478.0</ele><time>2026-04-04T14:14:28.755Z</time></trkpt><trkpt lat="42.8042067" lon="13.4547583"><ele>478.0</ele><time>2026-04-04T14:14:29.754Z</time></trkpt><trkpt lat="42.80415" lon="13.454685"><ele>474.0</ele><time>2026-04-04T14:14:30.754Z</time></trkpt><trkpt lat="42.80404" lon="13.4546233"><ele>469.99999999999994</ele><time>2026-04-04T14:14:32.755Z</time></trkpt><trkpt lat="42.8039783" lon="13.4546583"><ele>465.99999999999994</ele><time>2026-04-04T14:14:33.754Z</time></trkpt><trkpt lat="42.8038617" lon="13.4547733"><ele>462.0</ele><time>2026-04-04T14:14:35.754Z</time></trkpt><trkpt lat="42.8037733" lon="13.4548417"><ele>458.0</ele><time>2026-04-04T14:14:36.754Z</time></trkpt><trkpt lat="42.803675" lon="13.4548883"><ele>458.0</ele><time>2026-04-04T14:14:37.755Z</time></trkpt><trkpt lat="42.8035617" lon="13.4549217"><ele>458.0</ele><time>2026-04-04T14:14:38.755Z</time></trkpt><trkpt lat="42.8034533" lon="13.454955"><ele>458.0</ele><time>2026-04-04T14:14:39.754Z</time></trkpt><trkpt lat="42.803335" lon="13.4549967"><ele>458.0</ele><time>2026-04-04T14:14:40.754Z</time></trkpt><trkpt lat="42.80322" lon="13.455025"><ele>456.4</ele><time>2026-04-04T14:14:41.755Z</time></trkpt><trkpt lat="42.80311" lon="13.4550633"><ele>454.79999999999995</ele><time>2026-04-04T14:14:42.753Z</time></trkpt><trkpt lat="42.8030017" lon="13.4550817"><ele>453.2</ele><time>2026-04-04T14:14:43.755Z</time></trkpt><trkpt lat="42.8028967" lon="13.455115"><ele>451.6</ele><time>2026-04-04T14:14:44.755Z</time></trkpt><trkpt lat="42.8028" lon="13.4551433"><ele>450.0</ele><time>2026-04-04T14:14:45.754Z</time></trkpt><trkpt lat="42.8027" lon="13.45515"><ele>447.25</ele><time>2026-04-04T14:14:46.754Z</time></trkpt><trkpt lat="42.8026033" lon="13.4551583"><ele>444.5</ele><time>2026-04-04T14:14:47.754Z</time></trkpt><trkpt lat="42.8024933" lon="13.4551633"><ele>441.75</ele><time>2026-04-04T14:14:48.755Z</time></trkpt><trkpt lat="42.80237" lon="13.4551683"><ele>439.0</ele><time>2026-04-04T14:14:49.754Z</time></trkpt><trkpt lat="42.8022483" lon="13.4551783"><ele>439.0</ele><time>2026-04-04T14:14:50.754Z</time></trkpt><trkpt lat="42.8021483" lon="13.455185"><ele>439.0</ele><time>2026-04-04T14:14:51.754Z</time></trkpt><trkpt lat="42.8020717" lon="13.4551767"><ele>439.0</ele><time>2026-04-04T14:14:52.754Z</time></trkpt><trkpt lat="42.8020083" lon="13.45516"><ele>439.0</ele><time>2026-04-04T14:14:53.755Z</time></trkpt><trkpt lat="42.8019417" lon="13.4551217"><ele>439.0</ele><time>2026-04-04T14:14:54.754Z</time></trkpt><trkpt lat="42.8019" lon="13.455055"><ele>439.0</ele><time>2026-04-04T14:14:55.755Z</time></trkpt><trkpt lat="42.8018417" lon="13.4550017"><ele>439.0</ele><time>2026-04-04T14:14:56.755Z</time></trkpt><trkpt lat="42.8017767" lon="13.4549767"><ele>437.00000000000006</ele><time>2026-04-04T14:14:57.754Z</time></trkpt><trkpt lat="42.8016983" lon="13.4549817"><ele>435.0</ele><time>2026-04-04T14:14:58.754Z</time></trkpt><trkpt lat="42.801625" lon="13.45502"><ele>433.0</ele><time>2026-04-04T14:14:59.755Z</time></trkpt><trkpt lat="42.8015767" lon="13.4551017"><ele>431.0</ele><time>2026-04-04T14:15:00.755Z</time></trkpt><trkpt lat="42.8015883" lon="13.4552083"><ele>429.00000000000006</ele><time>2026-04-04T14:15:01.754Z</time></trkpt><trkpt lat="42.8016333" lon="13.4553033"><ele>427.0</ele><time>2026-04-04T14:15:02.755Z</time></trkpt><trkpt lat="42.80171" lon="13.455365"><ele>427.0</ele><time>2026-04-04T14:15:03.754Z</time></trkpt><trkpt lat="42.8018117" lon="13.455435"><ele>427.0</ele><time>2026-04-04T14:15:04.754Z</time></trkpt><trkpt lat="42.8019367" lon="13.4554983"><ele>427.0</ele><time>2026-04-04T14:15:05.754Z</time></trkpt><trkpt lat="42.802065" lon="13.4555533"><ele>427.0</ele><time>2026-04-04T14:15:06.754Z</time></trkpt><trkpt lat="42.802185" lon="13.4555967"><ele>425.0</ele><time>2026-04-04T14:15:07.754Z</time></trkpt><trkpt lat="42.8022867" lon="13.4556433"><ele>423.0</ele><time>2026-04-04T14:15:08.755Z</time></trkpt><trkpt lat="42.8024017" lon="13.4556917"><ele>421.0</ele><time>2026-04-04T14:15:09.754Z</time></trkpt><trkpt lat="42.802525" lon="13.45574"><ele>419.0</ele><time>2026-04-04T14:15:10.754Z</time></trkpt><trkpt lat="42.8026483" lon="13.4557917"><ele>420.25</ele><time>2026-04-04T14:15:11.755Z</time></trkpt><trkpt lat="42.8027633" lon="13.45584"><ele>421.5</ele><time>2026-04-04T14:15:12.755Z</time></trkpt><trkpt lat="42.8028783" lon="13.4558733"><ele>422.75</ele><time>2026-04-04T14:15:13.754Z</time></trkpt><trkpt lat="42.80299" lon="13.4559067"><ele>424.0</ele><time>2026-04-04T14:15:14.755Z</time></trkpt><trkpt lat="42.8031" lon="13.4559317"><ele>424.0</ele><time>2026-04-04T14:15:15.754Z</time></trkpt><trkpt lat="42.80321" lon="13.4559467"><ele>424.0</ele><time>2026-04-04T14:15:16.755Z</time></trkpt><trkpt lat="42.8033133" lon="13.4559567"><ele>424.0</ele><time>2026-04-04T14:15:17.755Z</time></trkpt><trkpt lat="42.8034033" lon="13.4559917"><ele>424.0</ele><time>2026-04-04T14:15:18.754Z</time></trkpt><trkpt lat="42.8034783" lon="13.4560283"><ele>424.0</ele><time>2026-04-04T14:15:19.754Z</time></trkpt><trkpt lat="42.8035333" lon="13.4560783"><ele>426.00000000000006</ele><time>2026-04-04T14:15:20.755Z</time></trkpt><trkpt lat="42.803595" lon="13.4561417"><ele>428.0</ele><time>2026-04-04T14:15:21.754Z</time></trkpt><trkpt lat="42.8036533" lon="13.4562417"><ele>430.0</ele><time>2026-04-04T14:15:22.755Z</time></trkpt><trkpt lat="42.8036883" lon="13.45634"><ele>432.0</ele><time>2026-04-04T14:15:23.754Z</time></trkpt><trkpt lat="42.8037" lon="13.4564467"><ele>434.00000000000006</ele><time>2026-04-04T14:15:24.754Z</time></trkpt><trkpt lat="42.8036767" lon="13.456535"><ele>436.0</ele><time>2026-04-04T14:15:25.755Z</time></trkpt><trkpt lat="42.803625" lon="13.4566167"><ele>436.00000000000006</ele><time>2026-04-04T14:15:26.754Z</time></trkpt><trkpt lat="42.8035683" lon="13.45669"><ele>436.0</ele><time>2026-04-04T14:15:27.754Z</time></trkpt><trkpt lat="42.8035067" lon="13.45676"><ele>436.0</ele><time>2026-04-04T14:15:28.754Z</time></trkpt><trkpt lat="42.8034433" lon="13.4568333"><ele>436.0</ele><time>2026-04-04T14:15:29.754Z</time></trkpt><trkpt lat="42.80338" lon="13.4569133"><ele>436.00000000000006</ele><time>2026-04-04T14:15:30.754Z</time></trkpt><trkpt lat="42.80332" lon="13.457"><ele>436.0</ele><time>2026-04-04T14:15:31.754Z</time></trkpt><trkpt lat="42.80327" lon="13.4570733"><ele>428.20000000000005</ele><time>2026-04-04T14:15:32.754Z</time></trkpt><trkpt lat="42.8032267" lon="13.4571383"><ele>420.40000000000003</ele><time>2026-04-04T14:15:33.754Z</time></trkpt><trkpt lat="42.8031517" lon="13.4571933"><ele>412.6</ele><time>2026-04-04T14:15:35.755Z</time></trkpt><trkpt lat="42.8031067" lon="13.4570983"><ele>404.8</ele><time>2026-04-04T14:15:38.755Z</time></trkpt><trkpt lat="42.8031583" lon="13.456945"><ele>397.0</ele><time>2026-04-04T14:15:40.754Z</time></trkpt><trkpt lat="42.80315" lon="13.4568183"><ele>397.00000000000006</ele><time>2026-04-04T14:15:42.754Z</time></trkpt><trkpt lat="42.8030683" lon="13.4568267"><ele>397.0</ele><time>2026-04-04T14:15:44.755Z</time></trkpt><trkpt lat="42.8030333" lon="13.4569217"><ele>397.0</ele><time>2026-04-04T14:15:45.754Z</time></trkpt><trkpt lat="42.8030033" lon="13.457015"><ele>397.0</ele><time>2026-04-04T14:15:46.755Z</time></trkpt><trkpt lat="42.8029667" lon="13.45711"><ele>397.00000000000006</ele><time>2026-04-04T14:15:47.754Z</time></trkpt><trkpt lat="42.80292" lon="13.457195"><ele>397.0</ele><time>2026-04-04T14:15:48.755Z</time></trkpt><trkpt lat="42.802855" lon="13.457255"><ele>396.8</ele><time>2026-04-04T14:15:49.754Z</time></trkpt><trkpt lat="42.8027667" lon="13.45731"><ele>396.6</ele><time>2026-04-04T14:15:50.754Z</time></trkpt><trkpt lat="42.80266" lon="13.4573617"><ele>396.40000000000003</ele><time>2026-04-04T14:15:51.754Z</time></trkpt><trkpt lat="42.8025583" lon="13.4574283"><ele>396.20000000000005</ele><time>2026-04-04T14:15:52.755Z</time></trkpt><trkpt lat="42.802455" lon="13.4574933"><ele>396.0</ele><time>2026-04-04T14:15:53.754Z</time></trkpt><trkpt lat="42.8023583" lon="13.4575633"><ele>391.4</ele><time>2026-04-04T14:15:54.755Z</time></trkpt><trkpt lat="42.80226" lon="13.457625"><ele>386.8</ele><time>2026-04-04T14:15:55.755Z</time></trkpt><trkpt lat="42.8021633" lon="13.4577017"><ele>382.2</ele><time>2026-04-04T14:15:56.754Z</time></trkpt><trkpt lat="42.8020667" lon="13.4577733"><ele>377.59999999999997</ele><time>2026-04-04T14:15:57.754Z</time></trkpt><trkpt lat="42.801965" lon="13.4578317"><ele>373.0</ele><time>2026-04-04T14:15:58.755Z</time></trkpt><trkpt lat="42.801865" lon="13.457905"><ele>371.0</ele><time>2026-04-04T14:15:59.754Z</time></trkpt><trkpt lat="42.8017767" lon="13.4579817"><ele>369.0</ele><time>2026-04-04T14:16:00.755Z</time></trkpt><trkpt lat="42.801695" lon="13.458045"><ele>367.0</ele><time>2026-04-04T14:16:01.754Z</time></trkpt><trkpt lat="42.8016317" lon="13.4581167"><ele>365.0</ele><time>2026-04-04T14:16:02.754Z</time></trkpt><trkpt lat="42.801575" lon="13.4581883"><ele>363.0</ele><time>2026-04-04T14:16:03.755Z</time></trkpt><trkpt lat="42.8015183" lon="13.4582617"><ele>361.0</ele><time>2026-04-04T14:16:04.755Z</time></trkpt><trkpt lat="42.80147" lon="13.4583233"><ele>361.0</ele><time>2026-04-04T14:16:05.754Z</time></trkpt><trkpt lat="42.8014" lon="13.4583583"><ele>361.0</ele><time>2026-04-04T14:16:07.755Z</time></trkpt><trkpt lat="42.8013817" lon="13.4582433"><ele>361.0</ele><time>2026-04-04T14:16:09.754Z</time></trkpt><trkpt lat="42.8014017" lon="13.4581617"><ele>361.0</ele><time>2026-04-04T14:16:10.754Z</time></trkpt><trkpt lat="42.80145" lon="13.4580867"><ele>361.0</ele><time>2026-04-04T14:16:11.754Z</time></trkpt><trkpt lat="42.8015117" lon="13.4580083"><ele>361.0</ele><time>2026-04-04T14:16:12.754Z</time></trkpt><trkpt lat="42.80158" lon="13.457935"><ele>358.6</ele><time>2026-04-04T14:16:13.754Z</time></trkpt><trkpt lat="42.80164" lon="13.4578567"><ele>356.20000000000005</ele><time>2026-04-04T14:16:14.754Z</time></trkpt><trkpt lat="42.8017083" lon="13.457725"><ele>353.79999999999995</ele><time>2026-04-04T14:16:16.754Z</time></trkpt><trkpt lat="42.80169" lon="13.4576117"><ele>351.4</ele><time>2026-04-04T14:16:18.755Z</time></trkpt><trkpt lat="42.8016" lon="13.457565"><ele>349.0</ele><time>2026-04-04T14:16:20.755Z</time></trkpt><trkpt lat="42.801535" lon="13.4575383"><ele>349.0</ele><time>2026-04-04T14:16:21.754Z</time></trkpt><trkpt lat="42.801455" lon="13.457485"><ele>349.0</ele><time>2026-04-04T14:16:22.754Z</time></trkpt><trkpt lat="42.801375" lon="13.4574367"><ele>349.0</ele><time>2026-04-04T14:16:23.755Z</time></trkpt><trkpt lat="42.80129" lon="13.4574017"><ele>349.0</ele><time>2026-04-04T14:16:24.754Z</time></trkpt><trkpt lat="42.80121" lon="13.4573933"><ele>349.0</ele><time>2026-04-04T14:16:25.754Z</time></trkpt><trkpt lat="42.8011317" lon="13.4573917"><ele>349.0</ele><time>2026-04-04T14:16:26.755Z</time></trkpt><trkpt lat="42.801055" lon="13.457415"><ele>347.2</ele><time>2026-04-04T14:16:27.755Z</time></trkpt><trkpt lat="42.800985" lon="13.4574383"><ele>345.4</ele><time>2026-04-04T14:16:28.754Z</time></trkpt><trkpt lat="42.8009183" lon="13.45746"><ele>343.6</ele><time>2026-04-04T14:16:29.754Z</time></trkpt><trkpt lat="42.800805" lon="13.4575283"><ele>341.8</ele><time>2026-04-04T14:16:31.754Z</time></trkpt><trkpt lat="42.8007167" lon="13.4575983"><ele>340.0</ele><time>2026-04-04T14:16:33.754Z</time></trkpt><trkpt lat="42.80071" lon="13.45772"><ele>340.0</ele><time>2026-04-04T14:16:35.754Z</time></trkpt><trkpt lat="42.8007533" lon="13.4577967"><ele>340.0</ele><time>2026-04-04T14:16:36.754Z</time></trkpt><trkpt lat="42.8007983" lon="13.457885"><ele>340.0</ele><time>2026-04-04T14:16:37.754Z</time></trkpt><trkpt lat="42.8008383" lon="13.4579833"><ele>340.0</ele><time>2026-04-04T14:16:38.754Z</time></trkpt><trkpt lat="42.80086" lon="13.4580767"><ele>340.0</ele><time>2026-04-04T14:16:39.754Z</time></trkpt><trkpt lat="42.80085" lon="13.458215"><ele>340.0</ele><time>2026-04-04T14:16:41.754Z</time></trkpt><trkpt lat="42.80077" lon="13.4582717"><ele>337.8</ele><time>2026-04-04T14:16:43.754Z</time></trkpt><trkpt lat="42.800705" lon="13.4582783"><ele>335.6</ele><time>2026-04-04T14:16:44.755Z</time></trkpt><trkpt lat="42.800625" lon="13.45825"><ele>333.4</ele><time>2026-04-04T14:16:45.754Z</time></trkpt><trkpt lat="42.8005117" lon="13.458235"><ele>331.2</ele><time>2026-04-04T14:16:46.754Z</time></trkpt><trkpt lat="42.8004117" lon="13.4582567"><ele>329.0</ele><time>2026-04-04T14:16:47.755Z</time></trkpt><trkpt lat="42.8003167" lon="13.4583033"><ele>329.0</ele><time>2026-04-04T14:16:48.754Z</time></trkpt><trkpt lat="42.8002283" lon="13.45835"><ele>329.0</ele><time>2026-04-04T14:16:49.754Z</time></trkpt><trkpt lat="42.80014" lon="13.4584017"><ele>329.0</ele><time>2026-04-04T14:16:50.754Z</time></trkpt><trkpt lat="42.8000483" lon="13.4584583"><ele>329.0</ele><time>2026-04-04T14:16:51.754Z</time></trkpt><trkpt lat="42.79996" lon="13.45851"><ele>329.0</ele><time>2026-04-04T14:16:52.754Z</time></trkpt><trkpt lat="42.799875" lon="13.4585617"><ele>327.2</ele><time>2026-04-04T14:16:53.754Z</time></trkpt><trkpt lat="42.7997967" lon="13.45862"><ele>325.4</ele><time>2026-04-04T14:16:54.754Z</time></trkpt><trkpt lat="42.7997167" lon="13.4586683"><ele>323.6</ele><time>2026-04-04T14:16:55.754Z</time></trkpt><trkpt lat="42.7996317" lon="13.4587033"><ele>321.8</ele><time>2026-04-04T14:16:56.755Z</time></trkpt><trkpt lat="42.79956" lon="13.4587317"><ele>320.0</ele><time>2026-04-04T14:16:57.754Z</time></trkpt><trkpt lat="42.79944" lon="13.458805"><ele>320.0</ele><time>2026-04-04T14:16:59.753Z</time></trkpt><trkpt lat="42.7993933" lon="13.4588733"><ele>320.0</ele><time>2026-04-04T14:17:00.754Z</time></trkpt><trkpt lat="42.79936" lon="13.4589483"><ele>320.0</ele><time>2026-04-04T14:17:01.753Z</time></trkpt><trkpt lat="42.7993667" lon="13.4590433"><ele>320.0</ele><time>2026-04-04T14:17:02.753Z</time></trkpt><trkpt lat="42.799355" lon="13.4591367"><ele>320.0</ele><time>2026-04-04T14:17:03.754Z</time></trkpt><trkpt lat="42.79932" lon="13.4592083"><ele>320.0</ele><time>2026-04-04T14:17:04.754Z</time></trkpt><trkpt lat="42.7992683" lon="13.4592717"><ele>320.0</ele><time>2026-04-04T14:17:05.753Z</time></trkpt><trkpt lat="42.799215" lon="13.4593417"><ele>315.0</ele><time>2026-04-04T14:17:06.753Z</time></trkpt><trkpt lat="42.7991717" lon="13.4594283"><ele>310.0</ele><time>2026-04-04T14:17:07.753Z</time></trkpt><trkpt lat="42.7991417" lon="13.4595317"><ele>305.0</ele><time>2026-04-04T14:17:08.753Z</time></trkpt><trkpt lat="42.7991083" lon="13.4596433"><ele>300.0</ele><time>2026-04-04T14:17:09.754Z</time></trkpt><trkpt lat="42.7990667" lon="13.4597517"><ele>295.0</ele><time>2026-04-04T14:17:10.753Z</time></trkpt><trkpt lat="42.799025" lon="13.4598583"><ele>290.0</ele><time>2026-04-04T14:17:11.753Z</time></trkpt><trkpt lat="42.7989783" lon="13.4599517"><ele>290.0</ele><time>2026-04-04T14:17:12.754Z</time></trkpt><trkpt lat="42.7989333" lon="13.4600633"><ele>290.0</ele><time>2026-04-04T14:17:13.754Z</time></trkpt><trkpt lat="42.798885" lon="13.46014"><ele>290.0</ele><time>2026-04-04T14:17:14.754Z</time></trkpt><trkpt lat="42.7988383" lon="13.4602217"><ele>290.0</ele><time>2026-04-04T14:17:15.753Z</time></trkpt><trkpt lat="42.79879" lon="13.4602883"><ele>290.0</ele><time>2026-04-04T14:17:16.753Z</time></trkpt><trkpt lat="42.7987367" lon="13.4603517"><ele>290.0</ele><time>2026-04-04T14:17:17.754Z</time></trkpt><trkpt lat="42.7986767" lon="13.4604033"><ele>290.0</ele><time>2026-04-04T14:17:18.753Z</time></trkpt><trkpt lat="42.79859" lon="13.46043"><ele>290.0</ele><time>2026-04-04T14:17:20.753Z</time></trkpt><trkpt lat="42.7985217" lon="13.4605083"><ele>290.0</ele><time>2026-04-04T14:17:25.753Z</time></trkpt><trkpt lat="42.7984933" lon="13.4606433"><ele>290.0</ele><time>2026-04-04T14:17:27.753Z</time></trkpt><trkpt lat="42.7984967" lon="13.4607517"><ele>290.0</ele><time>2026-04-04T14:17:28.754Z</time></trkpt><trkpt lat="42.798505" lon="13.460855"><ele>290.0</ele><time>2026-04-04T14:17:29.753Z</time></trkpt><trkpt lat="42.7985167" lon="13.460955"><ele>291.7142857142857</ele><time>2026-04-04T14:17:30.754Z</time></trkpt><trkpt lat="42.7985217" lon="13.4610467"><ele>293.42857142857144</ele><time>2026-04-04T14:17:31.753Z</time></trkpt><trkpt lat="42.798525" lon="13.461145"><ele>295.14285714285717</ele><time>2026-04-04T14:17:32.754Z</time></trkpt><trkpt lat="42.798515" lon="13.4612333"><ele>296.8571428571429</ele><time>2026-04-04T14:17:33.754Z</time></trkpt><trkpt lat="42.7985033" lon="13.46132"><ele>298.57142857142856</ele><time>2026-04-04T14:17:34.754Z</time></trkpt><trkpt lat="42.7984617" lon="13.4614583"><ele>300.28571428571433</ele><time>2026-04-04T14:17:36.753Z</time></trkpt><trkpt lat="42.7984267" lon="13.4615383"><ele>302.0</ele><time>2026-04-04T14:17:38.754Z</time></trkpt><trkpt lat="42.79839" lon="13.4618033"><ele>296.2</ele><time>2026-04-04T14:17:41.753Z</time></trkpt><trkpt lat="42.79837" lon="13.4619417"><ele>290.4</ele><time>2026-04-04T14:17:42.753Z</time></trkpt><trkpt lat="42.7983333" lon="13.4620933"><ele>284.6</ele><time>2026-04-04T14:17:43.754Z</time></trkpt><trkpt lat="42.7982917" lon="13.4622267"><ele>278.8</ele><time>2026-04-04T14:17:44.753Z</time></trkpt><trkpt lat="42.79827" lon="13.4623667"><ele>273.0</ele><time>2026-04-04T14:17:45.753Z</time></trkpt><trkpt lat="42.7982367" lon="13.4625083"><ele>273.0</ele><time>2026-04-04T14:17:46.754Z</time></trkpt><trkpt lat="42.798205" lon="13.4626417"><ele>273.0</ele><time>2026-04-04T14:17:47.753Z</time></trkpt><trkpt lat="42.7981717" lon="13.46278"><ele>273.0</ele><time>2026-04-04T14:17:48.754Z</time></trkpt><trkpt lat="42.7981417" lon="13.4629233"><ele>273.0</ele><time>2026-04-04T14:17:49.753Z</time></trkpt><trkpt lat="42.7981" lon="13.4630683"><ele>273.0</ele><time>2026-04-04T14:17:50.753Z</time></trkpt><trkpt lat="42.7980633" lon="13.4632167"><ele>274.0</ele><time>2026-04-04T14:17:51.753Z</time></trkpt><trkpt lat="42.7980233" lon="13.46337"><ele>275.0</ele><time>2026-04-04T14:17:52.753Z</time></trkpt><trkpt lat="42.7979833" lon="13.4635233"><ele>276.0</ele><time>2026-04-04T14:17:53.754Z</time></trkpt><trkpt lat="42.7979433" lon="13.4636767"><ele>277.0</ele><time>2026-04-04T14:17:54.753Z</time></trkpt><trkpt lat="42.79791" lon="13.463835"><ele>277.0</ele><time>2026-04-04T14:17:55.753Z</time></trkpt><trkpt lat="42.79787" lon="13.4639833"><ele>277.0</ele><time>2026-04-04T14:17:56.753Z</time></trkpt><trkpt lat="42.79783" lon="13.4641267"><ele>277.0</ele><time>2026-04-04T14:17:57.753Z</time></trkpt><trkpt lat="42.7977867" lon="13.4642683"><ele>277.0</ele><time>2026-04-04T14:17:58.754Z</time></trkpt><trkpt lat="42.7977567" lon="13.4643933"><ele>277.0</ele><time>2026-04-04T14:17:59.753Z</time></trkpt><trkpt lat="42.79773" lon="13.4645183"><ele>275.2</ele><time>2026-04-04T14:18:00.754Z</time></trkpt><trkpt lat="42.797705" lon="13.46464"><ele>273.4</ele><time>2026-04-04T14:18:01.754Z</time></trkpt><trkpt lat="42.7977" lon="13.46476"><ele>271.6</ele><time>2026-04-04T14:18:02.753Z</time></trkpt><trkpt lat="42.797715" lon="13.4648767"><ele>269.8</ele><time>2026-04-04T14:18:03.753Z</time></trkpt><trkpt lat="42.797775" lon="13.4649817"><ele>268.0</ele><time>2026-04-04T14:18:04.753Z</time></trkpt><trkpt lat="42.7978617" lon="13.4650467"><ele>268.0</ele><time>2026-04-04T14:18:05.753Z</time></trkpt><trkpt lat="42.7979583" lon="13.465075"><ele>268.0</ele><time>2026-04-04T14:18:06.754Z</time></trkpt><trkpt lat="42.7980733" lon="13.4650683"><ele>268.0</ele><time>2026-04-04T14:18:07.753Z</time></trkpt><trkpt lat="42.79818" lon="13.46501"><ele>268.0</ele><time>2026-04-04T14:18:08.753Z</time></trkpt><trkpt lat="42.7982867" lon="13.464925"><ele>268.0</ele><time>2026-04-04T14:18:09.753Z</time></trkpt><trkpt lat="42.7983917" lon="13.4648217"><ele>268.0</ele><time>2026-04-04T14:18:10.753Z</time></trkpt><trkpt lat="42.7984817" lon="13.4647"><ele>268.0</ele><time>2026-04-04T14:18:11.754Z</time></trkpt><trkpt lat="42.7985767" lon="13.46459"><ele>268.0</ele><time>2026-04-04T14:18:12.754Z</time></trkpt><trkpt lat="42.7986683" lon="13.46447"><ele>267.75</ele><time>2026-04-04T14:18:13.754Z</time></trkpt><trkpt lat="42.7987667" lon="13.4643567"><ele>267.5</ele><time>2026-04-04T14:18:14.753Z</time></trkpt><trkpt lat="42.7988667" lon="13.4642417"><ele>267.25</ele><time>2026-04-04T14:18:15.754Z</time></trkpt><trkpt lat="42.7989617" lon="13.46412"><ele>267.0</ele><time>2026-04-04T14:18:16.753Z</time></trkpt><trkpt lat="42.7990617" lon="13.464"><ele>267.0</ele><time>2026-04-04T14:18:17.753Z</time></trkpt><trkpt lat="42.79916" lon="13.4638833"><ele>267.0</ele><time>2026-04-04T14:18:18.753Z</time></trkpt><trkpt lat="42.7992583" lon="13.46377"><ele>267.0</ele><time>2026-04-04T14:18:19.753Z</time></trkpt><trkpt lat="42.7993583" lon="13.46367"><ele>267.0</ele><time>2026-04-04T14:18:20.753Z</time></trkpt><trkpt lat="42.7994483" lon="13.4635733"><ele>268.75</ele><time>2026-04-04T14:18:21.753Z</time></trkpt><trkpt lat="42.7995433" lon="13.4634783"><ele>270.5</ele><time>2026-04-04T14:18:22.753Z</time></trkpt><trkpt lat="42.7996433" lon="13.4633917"><ele>272.25</ele><time>2026-04-04T14:18:23.753Z</time></trkpt><trkpt lat="42.79974" lon="13.463315"><ele>274.0</ele><time>2026-04-04T14:18:24.753Z</time></trkpt><trkpt lat="42.7998567" lon="13.4632517"><ele>274.0</ele><time>2026-04-04T14:18:25.754Z</time></trkpt><trkpt lat="42.7999817" lon="13.463215"><ele>274.0</ele><time>2026-04-04T14:18:26.753Z</time></trkpt><trkpt lat="42.8001133" lon="13.4631817"><ele>274.0</ele><time>2026-04-04T14:18:27.753Z</time></trkpt><trkpt lat="42.8002483" lon="13.4631483"><ele>274.0</ele><time>2026-04-04T14:18:28.753Z</time></trkpt><trkpt lat="42.8003917" lon="13.4631233"><ele>271.5</ele><time>2026-04-04T14:18:29.753Z</time></trkpt><trkpt lat="42.8005217" lon="13.4630833"><ele>269.0</ele><time>2026-04-04T14:18:30.753Z</time></trkpt><trkpt lat="42.80065" lon="13.4630483"><ele>266.5</ele><time>2026-04-04T14:18:31.754Z</time></trkpt><trkpt lat="42.8007683" lon="13.46302"><ele>264.0</ele><time>2026-04-04T14:18:32.753Z</time></trkpt><trkpt lat="42.8008767" lon="13.4629833"><ele>264.0</ele><time>2026-04-04T14:18:33.753Z</time></trkpt><trkpt lat="42.8009783" lon="13.4629683"><ele>264.0</ele><time>2026-04-04T14:18:34.754Z</time></trkpt><trkpt lat="42.8010767" lon="13.4629733"><ele>264.0</ele><time>2026-04-04T14:18:35.753Z</time></trkpt><trkpt lat="42.8011733" lon="13.4630233"><ele>264.0</ele><time>2026-04-04T14:18:36.754Z</time></trkpt><trkpt lat="42.8012733" lon="13.4631083"><ele>264.0</ele><time>2026-04-04T14:18:37.754Z</time></trkpt><trkpt lat="42.801375" lon="13.46322"><ele>267.0</ele><time>2026-04-04T14:18:38.753Z</time></trkpt><trkpt lat="42.80146" lon="13.4633433"><ele>270.0</ele><time>2026-04-04T14:18:39.753Z</time></trkpt><trkpt lat="42.8015567" lon="13.4634683"><ele>273.0</ele><time>2026-04-04T14:18:40.754Z</time></trkpt><trkpt lat="42.8016417" lon="13.4635867"><ele>276.0</ele><time>2026-04-04T14:18:41.753Z</time></trkpt><trkpt lat="42.80173" lon="13.4637183"><ele>277.5</ele><time>2026-04-04T14:18:42.753Z</time></trkpt><trkpt lat="42.8019633" lon="13.464145"><ele>279.0</ele><time>2026-04-04T14:18:45.754Z</time></trkpt><trkpt lat="42.8020133" lon="13.4643033"><ele>279.0</ele><time>2026-04-04T14:18:46.753Z</time></trkpt><trkpt lat="42.80205" lon="13.46446"><ele>279.0</ele><time>2026-04-04T14:18:47.753Z</time></trkpt><trkpt lat="42.8020883" lon="13.4646283"><ele>279.0</ele><time>2026-04-04T14:18:48.753Z</time></trkpt><trkpt lat="42.802125" lon="13.4647867"><ele>279.0</ele><time>2026-04-04T14:18:49.753Z</time></trkpt><trkpt lat="42.8021733" lon="13.46493"><ele>276.4</ele><time>2026-04-04T14:18:50.754Z</time></trkpt><trkpt lat="42.8022217" lon="13.4650517"><ele>273.79999999999995</ele><time>2026-04-04T14:18:51.753Z</time></trkpt><trkpt lat="42.80227" lon="13.46518"><ele>271.20000000000005</ele><time>2026-04-04T14:18:52.754Z</time></trkpt><trkpt lat="42.8023183" lon="13.4653117"><ele>268.6</ele><time>2026-04-04T14:18:53.753Z</time></trkpt><trkpt lat="42.8023667" lon="13.4654567"><ele>266.0</ele><time>2026-04-04T14:18:54.754Z</time></trkpt><trkpt lat="42.80242" lon="13.4656083"><ele>265.25</ele><time>2026-04-04T14:18:55.753Z</time></trkpt><trkpt lat="42.802465" lon="13.4657767"><ele>264.5</ele><time>2026-04-04T14:18:56.753Z</time></trkpt><trkpt lat="42.80251" lon="13.4659533"><ele>263.75</ele><time>2026-04-04T14:18:57.754Z</time></trkpt><trkpt lat="42.8025367" lon="13.466145"><ele>263.0</ele><time>2026-04-04T14:18:58.753Z</time></trkpt><trkpt lat="42.8025533" lon="13.46635"><ele>263.0</ele><time>2026-04-04T14:18:59.753Z</time></trkpt><trkpt lat="42.8025633" lon="13.466565"><ele>263.0</ele><time>2026-04-04T14:19:00.753Z</time></trkpt><trkpt lat="42.8025717" lon="13.4667733"><ele>263.0</ele><time>2026-04-04T14:19:01.753Z</time></trkpt><trkpt lat="42.8025667" lon="13.4669683"><ele>263.5</ele><time>2026-04-04T14:19:02.753Z</time></trkpt><trkpt lat="42.8025617" lon="13.4671533"><ele>264.0</ele><time>2026-04-04T14:19:03.753Z</time></trkpt><trkpt lat="42.8025417" lon="13.4673517"><ele>264.5</ele><time>2026-04-04T14:19:04.753Z</time></trkpt><trkpt lat="42.8025283" lon="13.4675567"><ele>265.0</ele><time>2026-04-04T14:19:05.754Z</time></trkpt><trkpt lat="42.802515" lon="13.4677567"><ele>265.5</ele><time>2026-04-04T14:19:06.753Z</time></trkpt><trkpt lat="42.8024867" lon="13.4679533"><ele>266.0</ele><time>2026-04-04T14:19:07.754Z</time></trkpt><trkpt lat="42.80245" lon="13.4681467"><ele>266.5</ele><time>2026-04-04T14:19:08.754Z</time></trkpt><trkpt lat="42.8024167" lon="13.4683317"><ele>267.0</ele><time>2026-04-04T14:19:09.754Z</time></trkpt><trkpt lat="42.8023933" lon="13.4685133"><ele>267.0</ele><time>2026-04-04T14:19:10.753Z</time></trkpt><trkpt lat="42.8023517" lon="13.4686867"><ele>267.0</ele><time>2026-04-04T14:19:11.754Z</time></trkpt><trkpt lat="42.80232" lon="13.4688217"><ele>267.0</ele><time>2026-04-04T14:19:12.753Z</time></trkpt><trkpt lat="42.8023017" lon="13.4689183"><ele>267.0</ele><time>2026-04-04T14:19:13.754Z</time></trkpt><trkpt lat="42.80226" lon="13.4690233"><ele>267.0</ele><time>2026-04-04T14:19:15.753Z</time></trkpt><trkpt lat="42.8022" lon="13.4691183"><ele>266.6666666666667</ele><time>2026-04-04T14:19:17.753Z</time></trkpt><trkpt lat="42.8021533" lon="13.4692083"><ele>266.3333333333333</ele><time>2026-04-04T14:19:19.753Z</time></trkpt><trkpt lat="42.8020983" lon="13.4692833"><ele>266.0</ele><time>2026-04-04T14:19:22.753Z</time></trkpt><trkpt lat="42.8020583" lon="13.46918"><ele>265.66666666666663</ele><time>2026-04-04T14:19:26.753Z</time></trkpt><trkpt lat="42.8020733" lon="13.4690667"><ele>265.3333333333333</ele><time>2026-04-04T14:19:28.754Z</time></trkpt><trkpt lat="42.80208" lon="13.46897"><ele>265.0</ele><time>2026-04-04T14:19:30.753Z</time></trkpt><trkpt lat="42.8020567" lon="13.46888"><ele>265.0</ele><time>2026-04-04T14:19:34.754Z</time></trkpt><trkpt lat="42.80199" lon="13.46882"><ele>265.0</ele><time>2026-04-04T14:21:23.753Z</time></trkpt><trkpt lat="42.8019233" lon="13.4688233"><ele>265.0</ele><time>2026-04-04T14:21:27.754Z</time></trkpt><trkpt lat="42.8018817" lon="13.4687483"><ele>265.0</ele><time>2026-04-04T14:22:50.754Z</time></trkpt><trkpt lat="42.8018433" lon="13.468655"><ele>265.0</ele><time>2026-04-04T14:22:53.753Z</time></trkpt><trkpt lat="42.80175" lon="13.4686233"><ele>265.0</ele><time>2026-04-04T14:22:56.752Z</time></trkpt><trkpt lat="42.80168" lon="13.4686317"><ele>263.0</ele><time>2026-04-04T14:22:58.752Z</time></trkpt><trkpt lat="42.801625" lon="13.4687067"><ele>261.0</ele><time>2026-04-04T14:23:00.753Z</time></trkpt><trkpt lat="42.8015683" lon="13.4687617"><ele>259.0</ele><time>2026-04-04T14:23:02.752Z</time></trkpt><trkpt lat="42.801475" lon="13.4687967"><ele>257.0</ele><time>2026-04-04T14:23:04.753Z</time></trkpt><trkpt lat="42.8013633" lon="13.4688133"><ele>255.0</ele><time>2026-04-04T14:23:06.753Z</time></trkpt><trkpt lat="42.8012583" lon="13.4688133"><ele>254.33333333333334</ele><time>2026-04-04T14:23:08.752Z</time></trkpt><trkpt lat="42.8011867" lon="13.4688133"><ele>253.66666666666669</ele><time>2026-04-04T14:23:10.752Z</time></trkpt><trkpt lat="42.80113" lon="13.4688967"><ele>253.0</ele><time>2026-04-04T14:23:19.752Z</time></trkpt><trkpt lat="42.8011283" lon="13.4690167"><ele>252.33333333333334</ele><time>2026-04-04T14:23:21.752Z</time></trkpt><trkpt lat="42.80112" lon="13.4691317"><ele>251.66666666666669</ele><time>2026-04-04T14:23:23.753Z</time></trkpt><trkpt lat="42.8010983" lon="13.4692317"><ele>251.0</ele><time>2026-04-04T14:23:25.752Z</time></trkpt><trkpt lat="42.8010783" lon="13.4693333"><ele>251.00000000000003</ele><time>2026-04-04T14:23:27.752Z</time></trkpt><trkpt lat="42.8010617" lon="13.46944"><ele>251.0</ele><time>2026-04-04T14:23:29.752Z</time></trkpt><trkpt lat="42.80104" lon="13.4695483"><ele>251.0</ele><time>2026-04-04T14:23:31.753Z</time></trkpt><trkpt lat="42.8010167" lon="13.4696583"><ele>251.0</ele><time>2026-04-04T14:23:33.752Z</time></trkpt><trkpt lat="42.8009667" lon="13.4697683"><ele>251.00000000000003</ele><time>2026-04-04T14:23:35.752Z</time></trkpt><trkpt lat="42.800925" lon="13.4698667"><ele>251.0</ele><time>2026-04-04T14:23:37.752Z</time></trkpt><trkpt lat="42.800875" lon="13.4699417"><ele>251.66666666666669</ele><time>2026-04-04T14:23:39.752Z</time></trkpt><trkpt lat="42.800785" lon="13.47003"><ele>252.33333333333334</ele><time>2026-04-04T14:23:41.752Z</time></trkpt><trkpt lat="42.8007567" lon="13.4701233"><ele>253.0</ele><time>2026-04-04T14:23:43.753Z</time></trkpt><trkpt lat="42.800745" lon="13.4702283"><ele>253.66666666666669</ele><time>2026-04-04T14:23:45.752Z</time></trkpt><trkpt lat="42.8007267" lon="13.4703467"><ele>254.33333333333334</ele><time>2026-04-04T14:23:47.752Z</time></trkpt><trkpt lat="42.8007017" lon="13.4704567"><ele>255.0</ele><time>2026-04-04T14:23:49.753Z</time></trkpt><trkpt lat="42.8006783" lon="13.4705483"><ele>255.0</ele><time>2026-04-04T14:23:51.752Z</time></trkpt><trkpt lat="42.80067" lon="13.4706433"><ele>255.0</ele><time>2026-04-04T14:23:53.752Z</time></trkpt><trkpt lat="42.800675" lon="13.47075"><ele>255.0</ele><time>2026-04-04T14:23:56.752Z</time></trkpt><trkpt lat="42.8006667" lon="13.470855"><ele>255.0</ele><time>2026-04-04T14:24:28.753Z</time></trkpt><trkpt lat="42.8006367" lon="13.4709483"><ele>255.0</ele><time>2026-04-04T14:24:30.752Z</time></trkpt><trkpt lat="42.800615" lon="13.4710417"><ele>255.0</ele><time>2026-04-04T14:24:32.753Z</time></trkpt><trkpt lat="42.8005817" lon="13.4711483"><ele>255.0</ele><time>2026-04-04T14:24:34.752Z</time></trkpt><trkpt lat="42.8005783" lon="13.471265"><ele>255.0</ele><time>2026-04-04T14:24:37.753Z</time></trkpt><trkpt lat="42.8005867" lon="13.4713517"><ele>255.0</ele><time>2026-04-04T14:24:39.752Z</time></trkpt><trkpt lat="42.8006017" lon="13.4714617"><ele>255.0</ele><time>2026-04-04T14:24:42.752Z</time></trkpt><trkpt lat="42.800615" lon="13.4715717"><ele>255.0</ele><time>2026-04-04T14:24:45.753Z</time></trkpt><trkpt lat="42.8006217" lon="13.4716733"><ele>255.0</ele><time>2026-04-04T14:24:48.752Z</time></trkpt><trkpt lat="42.8005683" lon="13.4717867"><ele>254.33333333333334</ele><time>2026-04-04T14:24:51.753Z</time></trkpt><trkpt lat="42.8005117" lon="13.4718667"><ele>253.66666666666669</ele><time>2026-04-04T14:24:53.753Z</time></trkpt><trkpt lat="42.800435" lon="13.4719533"><ele>253.0</ele><time>2026-04-04T14:24:55.752Z</time></trkpt><trkpt lat="42.800395" lon="13.47204"><ele>252.33333333333334</ele><time>2026-04-04T14:24:57.752Z</time></trkpt><trkpt lat="42.8003833" lon="13.4721333"><ele>251.66666666666669</ele><time>2026-04-04T14:25:35.753Z</time></trkpt><trkpt lat="42.8003717" lon="13.472235"><ele>251.0</ele><time>2026-04-04T14:25:37.752Z</time></trkpt><trkpt lat="42.8003633" lon="13.4723333"><ele>251.00000000000003</ele><time>2026-04-04T14:25:39.752Z</time></trkpt><trkpt lat="42.80036" lon="13.472235"><ele>251.0</ele><time>2026-04-04T14:26:13.752Z</time></trkpt><trkpt lat="42.8003717" lon="13.47214"><ele>251.0</ele><time>2026-04-04T14:26:15.752Z</time></trkpt><trkpt lat="42.8004033" lon="13.4720283"><ele>251.0</ele><time>2026-04-04T14:26:29.752Z</time></trkpt><trkpt lat="42.8004583" lon="13.47192"><ele>251.00000000000003</ele><time>2026-04-04T14:26:31.753Z</time></trkpt><trkpt lat="42.8005083" lon="13.4718333"><ele>251.0</ele><time>2026-04-04T14:26:33.752Z</time></trkpt><trkpt lat="42.8005633" lon="13.4717683"><ele>251.00000000000003</ele><time>2026-04-04T14:26:35.752Z</time></trkpt><trkpt lat="42.8006067" lon="13.471685"><ele>251.0</ele><time>2026-04-04T14:26:37.752Z</time></trkpt><trkpt lat="42.8006233" lon="13.4715733"><ele>251.0</ele><time>2026-04-04T14:26:39.753Z</time></trkpt><trkpt lat="42.800625" lon="13.4714367"><ele>251.0</ele><time>2026-04-04T14:26:41.752Z</time></trkpt><trkpt lat="42.8006067" lon="13.471335"><ele>251.00000000000003</ele><time>2026-04-04T14:26:43.753Z</time></trkpt><trkpt lat="42.8005983" lon="13.4712333"><ele>251.0</ele><time>2026-04-04T14:26:45.753Z</time></trkpt><trkpt lat="42.800595" lon="13.4711167"><ele>251.66666666666669</ele><time>2026-04-04T14:26:47.753Z</time></trkpt><trkpt lat="42.8006133" lon="13.4710133"><ele>252.33333333333334</ele><time>2026-04-04T14:26:49.752Z</time></trkpt><trkpt lat="42.8006433" lon="13.4709183"><ele>253.0</ele><time>2026-04-04T14:26:51.753Z</time></trkpt><trkpt lat="42.800665" lon="13.4708333"><ele>253.66666666666669</ele><time>2026-04-04T14:26:53.752Z</time></trkpt><trkpt lat="42.8006933" lon="13.4707267"><ele>254.33333333333334</ele><time>2026-04-04T14:26:55.752Z</time></trkpt><trkpt lat="42.8007083" lon="13.47062"><ele>255.0</ele><time>2026-04-04T14:26:57.753Z</time></trkpt><trkpt lat="42.8007117" lon="13.4704917"><ele>257.6666666666667</ele><time>2026-04-04T14:26:59.753Z</time></trkpt><trkpt lat="42.80071" lon="13.4703767"><ele>260.3333333333333</ele><time>2026-04-04T14:27:01.753Z</time></trkpt><trkpt lat="42.800715" lon="13.4702567"><ele>263.0</ele><time>2026-04-04T14:27:03.752Z</time></trkpt><trkpt lat="42.80072" lon="13.470115"><ele>265.66666666666663</ele><time>2026-04-04T14:27:05.752Z</time></trkpt><trkpt lat="42.8007517" lon="13.4700317"><ele>268.3333333333333</ele><time>2026-04-04T14:27:07.752Z</time></trkpt><trkpt lat="42.8008183" lon="13.4699617"><ele>271.0</ele><time>2026-04-04T14:27:10.752Z</time></trkpt><trkpt lat="42.8008717" lon="13.469915"><ele>271.0</ele><time>2026-04-04T14:27:12.752Z</time></trkpt><trkpt lat="42.8009283" lon="13.4698183"><ele>271.0</ele><time>2026-04-04T14:27:15.752Z</time></trkpt><trkpt lat="42.8009567" lon="13.46972"><ele>271.0</ele><time>2026-04-04T14:27:17.753Z</time></trkpt><trkpt lat="42.80099" lon="13.469615"><ele>271.0</ele><time>2026-04-04T14:27:19.752Z</time></trkpt><trkpt lat="42.8010083" lon="13.4695083"><ele>271.0</ele><time>2026-04-04T14:27:21.752Z</time></trkpt><trkpt lat="42.801025" lon="13.4694133"><ele>271.0</ele><time>2026-04-04T14:27:23.753Z</time></trkpt><trkpt lat="42.8010517" lon="13.4693"><ele>267.0</ele><time>2026-04-04T14:27:25.752Z</time></trkpt><trkpt lat="42.8010683" lon="13.4691667"><ele>263.0</ele><time>2026-04-04T14:27:27.752Z</time></trkpt><trkpt lat="42.8010767" lon="13.4690333"><ele>259.0</ele><time>2026-04-04T14:27:29.753Z</time></trkpt><trkpt lat="42.80107" lon="13.4688983"><ele>255.0</ele><time>2026-04-04T14:27:31.753Z</time></trkpt><trkpt lat="42.8011567" lon="13.4688183"><ele>251.0</ele><time>2026-04-04T14:27:37.752Z</time></trkpt><trkpt lat="42.801225" lon="13.4688083"><ele>251.00000000000003</ele><time>2026-04-04T14:27:39.753Z</time></trkpt><trkpt lat="42.8013083" lon="13.4688"><ele>251.0</ele><time>2026-04-04T14:27:41.752Z</time></trkpt><trkpt lat="42.8013967" lon="13.4687917"><ele>251.0</ele><time>2026-04-04T14:27:43.753Z</time></trkpt><trkpt lat="42.80149" lon="13.4687867"><ele>251.0</ele><time>2026-04-04T14:27:45.752Z</time></trkpt><trkpt lat="42.801575" lon="13.4687617"><ele>251.00000000000003</ele><time>2026-04-04T14:27:47.752Z</time></trkpt><trkpt lat="42.8016367" lon="13.4686817"><ele>251.0</ele><time>2026-04-04T14:27:50.753Z</time></trkpt><trkpt lat="42.8016967" lon="13.4686133"><ele>251.57142857142856</ele><time>2026-04-04T14:27:54.752Z</time></trkpt><trkpt lat="42.8017767" lon="13.4686233"><ele>252.14285714285714</ele><time>2026-04-04T14:27:57.752Z</time></trkpt><trkpt lat="42.8018367" lon="13.4686667"><ele>252.71428571428572</ele><time>2026-04-04T14:28:00.752Z</time></trkpt><trkpt lat="42.8018717" lon="13.4687433"><ele>253.28571428571428</ele><time>2026-04-04T14:28:04.753Z</time></trkpt><trkpt lat="42.8019267" lon="13.4688067"><ele>253.8571428571429</ele><time>2026-04-04T14:28:07.752Z</time></trkpt><trkpt lat="42.801995" lon="13.4688483"><ele>254.42857142857144</ele><time>2026-04-04T14:28:10.753Z</time></trkpt><trkpt lat="42.80204" lon="13.46892"><ele>255.0</ele><time>2026-04-04T14:28:13.753Z</time></trkpt><trkpt lat="42.802055" lon="13.4690083"><ele>256.6666666666667</ele><time>2026-04-04T14:28:15.752Z</time></trkpt><trkpt lat="42.8020517" lon="13.4691417"><ele>258.3333333333333</ele><time>2026-04-04T14:28:17.752Z</time></trkpt><trkpt lat="42.8020567" lon="13.4692633"><ele>260.0</ele><time>2026-04-04T14:28:19.753Z</time></trkpt><trkpt lat="42.802115" lon="13.469315"><ele>261.66666666666663</ele><time>2026-04-04T14:28:22.753Z</time></trkpt><trkpt lat="42.8021567" lon="13.4692367"><ele>263.3333333333333</ele><time>2026-04-04T14:28:24.752Z</time></trkpt><trkpt lat="42.8021867" lon="13.4691433"><ele>265.0</ele><time>2026-04-04T14:28:26.752Z</time></trkpt><trkpt lat="42.8022167" lon="13.4690533"><ele>265.0</ele><time>2026-04-04T14:28:28.752Z</time></trkpt><trkpt lat="42.8022533" lon="13.4689633"><ele>265.0</ele><time>2026-04-04T14:28:30.752Z</time></trkpt><trkpt lat="42.8022733" lon="13.4690467"><ele>265.0</ele><time>2026-04-04T14:28:44.752Z</time></trkpt><trkpt lat="42.8022483" lon="13.46914"><ele>265.0</ele><time>2026-04-04T14:28:45.752Z</time></trkpt><trkpt lat="42.8022267" lon="13.4692567"><ele>265.0</ele><time>2026-04-04T14:28:46.753Z</time></trkpt><trkpt lat="42.8022083" lon="13.4693917"><ele>265.0</ele><time>2026-04-04T14:28:47.753Z</time></trkpt><trkpt lat="42.80218" lon="13.4695433"><ele>265.0</ele><time>2026-04-04T14:28:48.752Z</time></trkpt><trkpt lat="42.8021533" lon="13.4696933"><ele>265.0</ele><time>2026-04-04T14:28:49.752Z</time></trkpt><trkpt lat="42.80212" lon="13.469845"><ele>265.0</ele><time>2026-04-04T14:28:50.752Z</time></trkpt><trkpt lat="42.8020867" lon="13.4699983"><ele>265.0</ele><time>2026-04-04T14:28:51.752Z</time></trkpt><trkpt lat="42.8020567" lon="13.4701633"><ele>265.0</ele><time>2026-04-04T14:28:52.753Z</time></trkpt><trkpt lat="42.8020283" lon="13.4703333"><ele>265.0</ele><time>2026-04-04T14:28:53.752Z</time></trkpt><trkpt lat="42.802" lon="13.47051"><ele>265.0</ele><time>2026-04-04T14:28:54.752Z</time></trkpt><trkpt lat="42.801975" lon="13.47068"><ele>265.0</ele><time>2026-04-04T14:28:55.752Z</time></trkpt><trkpt lat="42.8019367" lon="13.4708417"><ele>266.4</ele><time>2026-04-04T14:28:56.752Z</time></trkpt><trkpt lat="42.801905" lon="13.470995"><ele>267.8</ele><time>2026-04-04T14:28:57.751Z</time></trkpt><trkpt lat="42.8018783" lon="13.4711367"><ele>269.2</ele><time>2026-04-04T14:28:58.751Z</time></trkpt><trkpt lat="42.8018567" lon="13.4712683"><ele>270.6</ele><time>2026-04-04T14:28:59.751Z</time></trkpt><trkpt lat="42.8018333" lon="13.4713883"><ele>272.0</ele><time>2026-04-04T14:29:00.752Z</time></trkpt><trkpt lat="42.8018083" lon="13.4715033"><ele>269.0</ele><time>2026-04-04T14:29:01.751Z</time></trkpt><trkpt lat="42.8017867" lon="13.471625"><ele>266.0</ele><time>2026-04-04T14:29:02.752Z</time></trkpt><trkpt lat="42.801775" lon="13.4717533"><ele>263.0</ele><time>2026-04-04T14:29:03.752Z</time></trkpt><trkpt lat="42.8017667" lon="13.4718933"><ele>260.0</ele><time>2026-04-04T14:29:04.751Z</time></trkpt><trkpt lat="42.8017567" lon="13.47204"><ele>257.0</ele><time>2026-04-04T14:29:05.751Z</time></trkpt><trkpt lat="42.8017517" lon="13.472355"><ele>256.75</ele><time>2026-04-04T14:29:07.751Z</time></trkpt><trkpt lat="42.8017533" lon="13.4725217"><ele>256.5</ele><time>2026-04-04T14:29:08.752Z</time></trkpt><trkpt lat="42.8017583" lon="13.472685"><ele>256.25</ele><time>2026-04-04T14:29:09.752Z</time></trkpt><trkpt lat="42.801765" lon="13.4728583"><ele>256.0</ele><time>2026-04-04T14:29:10.751Z</time></trkpt><trkpt lat="42.8017767" lon="13.4730267"><ele>255.75</ele><time>2026-04-04T14:29:11.751Z</time></trkpt><trkpt lat="42.8017933" lon="13.4731883"><ele>255.5</ele><time>2026-04-04T14:29:12.751Z</time></trkpt><trkpt lat="42.80181" lon="13.47336"><ele>255.25</ele><time>2026-04-04T14:29:13.752Z</time></trkpt><trkpt lat="42.8018283" lon="13.4735333"><ele>255.0</ele><time>2026-04-04T14:29:14.752Z</time></trkpt><trkpt lat="42.8018467" lon="13.4737083"><ele>258.0</ele><time>2026-04-04T14:29:15.751Z</time></trkpt><trkpt lat="42.801865" lon="13.4738883"><ele>261.0</ele><time>2026-04-04T14:29:16.751Z</time></trkpt><trkpt lat="42.8018767" lon="13.47407"><ele>264.0</ele><time>2026-04-04T14:29:17.751Z</time></trkpt><trkpt lat="42.8018983" lon="13.4742483"><ele>267.0</ele><time>2026-04-04T14:29:18.752Z</time></trkpt><trkpt lat="42.801925" lon="13.47442"><ele>267.0</ele><time>2026-04-04T14:29:19.751Z</time></trkpt><trkpt lat="42.8019467" lon="13.4745867"><ele>267.0</ele><time>2026-04-04T14:29:20.751Z</time></trkpt><trkpt lat="42.8019717" lon="13.4747517"><ele>267.0</ele><time>2026-04-04T14:29:21.752Z</time></trkpt><trkpt lat="42.8020033" lon="13.4749217"><ele>267.0</ele><time>2026-04-04T14:29:22.752Z</time></trkpt><trkpt lat="42.8020233" lon="13.47509"><ele>265.0</ele><time>2026-04-04T14:29:23.752Z</time></trkpt><trkpt lat="42.8020483" lon="13.4752617"><ele>263.0</ele><time>2026-04-04T14:29:24.751Z</time></trkpt><trkpt lat="42.802075" lon="13.4754233"><ele>261.0</ele><time>2026-04-04T14:29:25.751Z</time></trkpt><trkpt lat="42.8020933" lon="13.4755883"><ele>259.0</ele><time>2026-04-04T14:29:26.752Z</time></trkpt><trkpt lat="42.8021233" lon="13.475755"><ele>257.25</ele><time>2026-04-04T14:29:27.752Z</time></trkpt><trkpt lat="42.8021433" lon="13.4759283"><ele>255.5</ele><time>2026-04-04T14:29:28.751Z</time></trkpt><trkpt lat="42.8021683" lon="13.4760983"><ele>253.75</ele><time>2026-04-04T14:29:29.752Z</time></trkpt><trkpt lat="42.8021983" lon="13.4762683"><ele>252.0</ele><time>2026-04-04T14:29:30.751Z</time></trkpt><trkpt lat="42.8022283" lon="13.4764367"><ele>250.5</ele><time>2026-04-04T14:29:31.751Z</time></trkpt><trkpt lat="42.8022483" lon="13.4766117"><ele>249.0</ele><time>2026-04-04T14:29:32.751Z</time></trkpt><trkpt lat="42.8022667" lon="13.47679"><ele>247.5</ele><time>2026-04-04T14:29:33.751Z</time></trkpt><trkpt lat="42.802285" lon="13.4769583"><ele>246.0</ele><time>2026-04-04T14:29:34.751Z</time></trkpt><trkpt lat="42.8023117" lon="13.4771333"><ele>245.5</ele><time>2026-04-04T14:29:35.752Z</time></trkpt><trkpt lat="42.8023383" lon="13.4773017"><ele>245.0</ele><time>2026-04-04T14:29:36.751Z</time></trkpt><trkpt lat="42.8023633" lon="13.477475"><ele>244.5</ele><time>2026-04-04T14:29:37.751Z</time></trkpt><trkpt lat="42.8023917" lon="13.4776483"><ele>244.0</ele><time>2026-04-04T14:29:38.751Z</time></trkpt><trkpt lat="42.8024217" lon="13.4778267"><ele>245.75</ele><time>2026-04-04T14:29:39.752Z</time></trkpt><trkpt lat="42.80245" lon="13.47801"><ele>247.5</ele><time>2026-04-04T14:29:40.751Z</time></trkpt><trkpt lat="42.8024783" lon="13.4781833"><ele>249.25</ele><time>2026-04-04T14:29:41.751Z</time></trkpt><trkpt lat="42.8024933" lon="13.47837"><ele>251.0</ele><time>2026-04-04T14:29:42.751Z</time></trkpt><trkpt lat="42.80252" lon="13.47855"><ele>251.0</ele><time>2026-04-04T14:29:43.752Z</time></trkpt><trkpt lat="42.802535" lon="13.4787317"><ele>251.0</ele><time>2026-04-04T14:29:44.752Z</time></trkpt><trkpt lat="42.8025733" lon="13.4789217"><ele>251.0</ele><time>2026-04-04T14:29:45.751Z</time></trkpt><trkpt lat="42.80259" lon="13.4790983"><ele>251.0</ele><time>2026-04-04T14:29:46.751Z</time></trkpt><trkpt lat="42.8026117" lon="13.4792767"><ele>248.66666666666669</ele><time>2026-04-04T14:29:47.751Z</time></trkpt><trkpt lat="42.8026683" lon="13.479655"><ele>246.33333333333331</ele><time>2026-04-04T14:29:49.752Z</time></trkpt><trkpt lat="42.8026933" lon="13.4798433"><ele>244.0</ele><time>2026-04-04T14:29:50.752Z</time></trkpt><trkpt lat="42.80272" lon="13.4800383"><ele>244.0</ele><time>2026-04-04T14:29:51.752Z</time></trkpt><trkpt lat="42.80275" lon="13.4802167"><ele>244.0</ele><time>2026-04-04T14:29:52.752Z</time></trkpt><trkpt lat="42.8027783" lon="13.4804033"><ele>244.0</ele><time>2026-04-04T14:29:53.752Z</time></trkpt><trkpt lat="42.80281" lon="13.48059"><ele>244.0</ele><time>2026-04-04T14:29:54.752Z</time></trkpt><trkpt lat="42.8028433" lon="13.48078"><ele>244.0</ele><time>2026-04-04T14:29:55.751Z</time></trkpt><trkpt lat="42.8028767" lon="13.48097"><ele>244.0</ele><time>2026-04-04T14:29:56.751Z</time></trkpt><trkpt lat="42.8029083" lon="13.4811583"><ele>244.0</ele><time>2026-04-04T14:29:57.751Z</time></trkpt><trkpt lat="42.8029367" lon="13.4813433"><ele>244.0</ele><time>2026-04-04T14:29:58.752Z</time></trkpt><trkpt lat="42.8029683" lon="13.48152"><ele>244.0</ele><time>2026-04-04T14:29:59.752Z</time></trkpt><trkpt lat="42.803" lon="13.4817017"><ele>244.0</ele><time>2026-04-04T14:30:00.751Z</time></trkpt><trkpt lat="42.8030333" lon="13.4818867"><ele>244.0</ele><time>2026-04-04T14:30:01.751Z</time></trkpt><trkpt lat="42.8030667" lon="13.482065"><ele>244.0</ele><time>2026-04-04T14:30:02.752Z</time></trkpt><trkpt lat="42.8030883" lon="13.4822483"><ele>244.0</ele><time>2026-04-04T14:30:03.751Z</time></trkpt><trkpt lat="42.803115" lon="13.4824383"><ele>244.0</ele><time>2026-04-04T14:30:04.752Z</time></trkpt><trkpt lat="42.8031367" lon="13.4826217"><ele>244.0</ele><time>2026-04-04T14:30:05.751Z</time></trkpt><trkpt lat="42.80317" lon="13.4828067"><ele>244.0</ele><time>2026-04-04T14:30:06.752Z</time></trkpt><trkpt lat="42.8032017" lon="13.4829967"><ele>243.25</ele><time>2026-04-04T14:30:07.752Z</time></trkpt><trkpt lat="42.8032333" lon="13.4831867"><ele>242.5</ele><time>2026-04-04T14:30:08.751Z</time></trkpt><trkpt lat="42.8032667" lon="13.4833817"><ele>241.75</ele><time>2026-04-04T14:30:09.751Z</time></trkpt><trkpt lat="42.8032933" lon="13.48357"><ele>241.0</ele><time>2026-04-04T14:30:10.752Z</time></trkpt><trkpt lat="42.8033217" lon="13.4837617"><ele>240.25</ele><time>2026-04-04T14:30:11.751Z</time></trkpt><trkpt lat="42.80335" lon="13.4839533"><ele>239.5</ele><time>2026-04-04T14:30:12.751Z</time></trkpt><trkpt lat="42.803385" lon="13.4841417"><ele>238.75</ele><time>2026-04-04T14:30:13.751Z</time></trkpt><trkpt lat="42.80341" lon="13.4843333"><ele>238.0</ele><time>2026-04-04T14:30:14.751Z</time></trkpt><trkpt lat="42.8034317" lon="13.4845317"><ele>237.75</ele><time>2026-04-04T14:30:15.751Z</time></trkpt><trkpt lat="42.8034683" lon="13.4847267"><ele>237.5</ele><time>2026-04-04T14:30:16.752Z</time></trkpt><trkpt lat="42.8035117" lon="13.48492"><ele>237.25</ele><time>2026-04-04T14:30:17.751Z</time></trkpt><trkpt lat="42.8035533" lon="13.48512"><ele>237.0</ele><time>2026-04-04T14:30:18.751Z</time></trkpt><trkpt lat="42.803605" lon="13.4853233"><ele>238.0</ele><time>2026-04-04T14:30:19.751Z</time></trkpt><trkpt lat="42.8036483" lon="13.4855183"><ele>239.0</ele><time>2026-04-04T14:30:20.751Z</time></trkpt><trkpt lat="42.8036867" lon="13.48571"><ele>240.0</ele><time>2026-04-04T14:30:21.752Z</time></trkpt><trkpt lat="42.803735" lon="13.4859083"><ele>241.0</ele><time>2026-04-04T14:30:22.751Z</time></trkpt><trkpt lat="42.80379" lon="13.486105"><ele>240.33333333333331</ele><time>2026-04-04T14:30:23.752Z</time></trkpt><trkpt lat="42.80385" lon="13.4862983"><ele>239.66666666666669</ele><time>2026-04-04T14:30:24.751Z</time></trkpt><trkpt lat="42.8039083" lon="13.4864933"><ele>239.0</ele><time>2026-04-04T14:30:25.751Z</time></trkpt><trkpt lat="42.8039783" lon="13.4866883"><ele>239.0</ele><time>2026-04-04T14:30:26.751Z</time></trkpt><trkpt lat="42.804045" lon="13.4868817"><ele>239.0</ele><time>2026-04-04T14:30:27.751Z</time></trkpt><trkpt lat="42.804125" lon="13.4870633"><ele>239.0</ele><time>2026-04-04T14:30:28.752Z</time></trkpt><trkpt lat="42.804205" lon="13.4872467"><ele>239.0</ele><time>2026-04-04T14:30:29.752Z</time></trkpt><trkpt lat="42.804285" lon="13.4874333"><ele>239.0</ele><time>2026-04-04T14:30:30.752Z</time></trkpt><trkpt lat="42.8043683" lon="13.48762"><ele>239.0</ele><time>2026-04-04T14:30:31.751Z</time></trkpt><trkpt lat="42.8044567" lon="13.4878083"><ele>237.66666666666669</ele><time>2026-04-04T14:30:32.751Z</time></trkpt><trkpt lat="42.8045417" lon="13.48799"><ele>236.33333333333331</ele><time>2026-04-04T14:30:33.751Z</time></trkpt><trkpt lat="42.8046267" lon="13.4881733"><ele>235.0</ele><time>2026-04-04T14:30:34.751Z</time></trkpt><trkpt lat="42.8047033" lon="13.4883517"><ele>235.0</ele><time>2026-04-04T14:30:35.751Z</time></trkpt><trkpt lat="42.8047867" lon="13.488525"><ele>235.0</ele><time>2026-04-04T14:30:36.752Z</time></trkpt><trkpt lat="42.804865" lon="13.488705"><ele>235.0</ele><time>2026-04-04T14:30:37.752Z</time></trkpt><trkpt lat="42.8049533" lon="13.48888"><ele>233.75</ele><time>2026-04-04T14:30:38.751Z</time></trkpt><trkpt lat="42.8050317" lon="13.4890433"><ele>232.5</ele><time>2026-04-04T14:30:39.751Z</time></trkpt><trkpt lat="42.8051017" lon="13.48921"><ele>231.25</ele><time>2026-04-04T14:30:40.752Z</time></trkpt><trkpt lat="42.8051767" lon="13.4893783"><ele>230.0</ele><time>2026-04-04T14:30:41.751Z</time></trkpt><trkpt lat="42.80526" lon="13.4895417"><ele>230.5</ele><time>2026-04-04T14:30:42.752Z</time></trkpt><trkpt lat="42.8053433" lon="13.4897067"><ele>231.0</ele><time>2026-04-04T14:30:43.751Z</time></trkpt><trkpt lat="42.8054317" lon="13.4898717"><ele>231.5</ele><time>2026-04-04T14:30:44.752Z</time></trkpt><trkpt lat="42.8055133" lon="13.4900367"><ele>232.0</ele><time>2026-04-04T14:30:45.751Z</time></trkpt><trkpt lat="42.805595" lon="13.4902083"><ele>232.0</ele><time>2026-04-04T14:30:46.752Z</time></trkpt><trkpt lat="42.8056717" lon="13.4903683"><ele>232.0</ele><time>2026-04-04T14:30:47.751Z</time></trkpt><trkpt lat="42.8057417" lon="13.4905417"><ele>232.0</ele><time>2026-04-04T14:30:48.751Z</time></trkpt><trkpt lat="42.80582" lon="13.4907033"><ele>232.0</ele><time>2026-04-04T14:30:49.752Z</time></trkpt><trkpt lat="42.80589" lon="13.4908667"><ele>232.0</ele><time>2026-04-04T14:30:50.752Z</time></trkpt><trkpt lat="42.805965" lon="13.4910283"><ele>232.0</ele><time>2026-04-04T14:30:51.751Z</time></trkpt><trkpt lat="42.8060383" lon="13.49119"><ele>232.0</ele><time>2026-04-04T14:30:52.751Z</time></trkpt><trkpt lat="42.8061167" lon="13.491355"><ele>232.0</ele><time>2026-04-04T14:30:53.751Z</time></trkpt><trkpt lat="42.8061967" lon="13.491515"><ele>233.0</ele><time>2026-04-04T14:30:54.751Z</time></trkpt><trkpt lat="42.806275" lon="13.4916717"><ele>234.0</ele><time>2026-04-04T14:30:55.752Z</time></trkpt><trkpt lat="42.80635" lon="13.4918383"><ele>235.0</ele><time>2026-04-04T14:30:56.752Z</time></trkpt><trkpt lat="42.8064317" lon="13.492005"><ele>236.0</ele><time>2026-04-04T14:30:57.751Z</time></trkpt><trkpt lat="42.8065117" lon="13.4921733"><ele>234.75</ele><time>2026-04-04T14:30:58.751Z</time></trkpt><trkpt lat="42.806595" lon="13.4923417"><ele>233.5</ele><time>2026-04-04T14:30:59.751Z</time></trkpt><trkpt lat="42.8066733" lon="13.49251"><ele>232.25</ele><time>2026-04-04T14:31:00.751Z</time></trkpt><trkpt lat="42.8067633" lon="13.4926733"><ele>231.0</ele><time>2026-04-04T14:31:01.751Z</time></trkpt><trkpt lat="42.8068417" lon="13.4928367"><ele>231.75</ele><time>2026-04-04T14:31:02.751Z</time></trkpt><trkpt lat="42.806915" lon="13.493005"><ele>232.5</ele><time>2026-04-04T14:31:03.752Z</time></trkpt><trkpt lat="42.8069883" lon="13.4931717"><ele>233.25</ele><time>2026-04-04T14:31:04.751Z</time></trkpt><trkpt lat="42.8070583" lon="13.4933417"><ele>234.0</ele><time>2026-04-04T14:31:05.751Z</time></trkpt><trkpt lat="42.8071233" lon="13.4935167"><ele>234.0</ele><time>2026-04-04T14:31:06.751Z</time></trkpt><trkpt lat="42.80719" lon="13.4936933"><ele>234.0</ele><time>2026-04-04T14:31:07.751Z</time></trkpt><trkpt lat="42.8072533" lon="13.4938767"><ele>234.0</ele><time>2026-04-04T14:31:08.751Z</time></trkpt><trkpt lat="42.80733" lon="13.494055"><ele>234.0</ele><time>2026-04-04T14:31:09.752Z</time></trkpt><trkpt lat="42.8073917" lon="13.494235"><ele>236.0</ele><time>2026-04-04T14:31:10.751Z</time></trkpt><trkpt lat="42.807455" lon="13.494425"><ele>238.0</ele><time>2026-04-04T14:31:11.751Z</time></trkpt><trkpt lat="42.80752" lon="13.4946167"><ele>240.0</ele><time>2026-04-04T14:31:12.751Z</time></trkpt><trkpt lat="42.8075733" lon="13.4948117"><ele>240.0</ele><time>2026-04-04T14:31:13.751Z</time></trkpt><trkpt lat="42.8076317" lon="13.4950067"><ele>240.0</ele><time>2026-04-04T14:31:14.752Z</time></trkpt><trkpt lat="42.8076867" lon="13.4952017"><ele>240.0</ele><time>2026-04-04T14:31:15.752Z</time></trkpt><trkpt lat="42.80775" lon="13.4953983"><ele>239.0</ele><time>2026-04-04T14:31:16.752Z</time></trkpt><trkpt lat="42.8078067" lon="13.4956083"><ele>238.0</ele><time>2026-04-04T14:31:17.752Z</time></trkpt><trkpt lat="42.80786" lon="13.4957967"><ele>237.0</ele><time>2026-04-04T14:31:18.751Z</time></trkpt><trkpt lat="42.8079083" lon="13.4959783"><ele>237.0</ele><time>2026-04-04T14:31:19.752Z</time></trkpt><trkpt lat="42.807965" lon="13.4961683"><ele>237.0</ele><time>2026-04-04T14:31:20.751Z</time></trkpt><trkpt lat="42.80802" lon="13.496355"><ele>237.0</ele><time>2026-04-04T14:31:21.751Z</time></trkpt><trkpt lat="42.8080817" lon="13.4965433"><ele>237.0</ele><time>2026-04-04T14:31:22.752Z</time></trkpt><trkpt lat="42.8081433" lon="13.4967283"><ele>235.75</ele><time>2026-04-04T14:31:23.751Z</time></trkpt><trkpt lat="42.8082017" lon="13.496915"><ele>234.5</ele><time>2026-04-04T14:31:24.751Z</time></trkpt><trkpt lat="42.808255" lon="13.497095"><ele>233.25</ele><time>2026-04-04T14:31:25.751Z</time></trkpt><trkpt lat="42.8083017" lon="13.497265"><ele>232.0</ele><time>2026-04-04T14:31:26.751Z</time></trkpt><trkpt lat="42.80835" lon="13.497435"><ele>232.75</ele><time>2026-04-04T14:31:27.752Z</time></trkpt><trkpt lat="42.8083933" lon="13.497605"><ele>233.5</ele><time>2026-04-04T14:31:28.751Z</time></trkpt><trkpt lat="42.80845" lon="13.4977833"><ele>234.25</ele><time>2026-04-04T14:31:29.752Z</time></trkpt><trkpt lat="42.808505" lon="13.497955"><ele>235.0</ele><time>2026-04-04T14:31:30.751Z</time></trkpt><trkpt lat="42.808555" lon="13.49813"><ele>235.0</ele><time>2026-04-04T14:31:31.752Z</time></trkpt><trkpt lat="42.8086117" lon="13.4983067"><ele>235.0</ele><time>2026-04-04T14:31:32.752Z</time></trkpt><trkpt lat="42.8086633" lon="13.4984783"><ele>235.0</ele><time>2026-04-04T14:31:33.752Z</time></trkpt><trkpt lat="42.8087083" lon="13.4986567"><ele>235.0</ele><time>2026-04-04T14:31:34.751Z</time></trkpt><trkpt lat="42.8087533" lon="13.4988417"><ele>235.75</ele><time>2026-04-04T14:31:35.752Z</time></trkpt><trkpt lat="42.8088067" lon="13.49902"><ele>236.5</ele><time>2026-04-04T14:31:36.751Z</time></trkpt><trkpt lat="42.8088583" lon="13.4991967"><ele>237.25</ele><time>2026-04-04T14:31:37.751Z</time></trkpt><trkpt lat="42.8089183" lon="13.499365"><ele>238.0</ele><time>2026-04-04T14:31:38.751Z</time></trkpt><trkpt lat="42.8089783" lon="13.499535"><ele>237.5</ele><time>2026-04-04T14:31:39.751Z</time></trkpt><trkpt lat="42.8090367" lon="13.4997233"><ele>237.0</ele><time>2026-04-04T14:31:40.751Z</time></trkpt><trkpt lat="42.8091083" lon="13.499905"><ele>236.5</ele><time>2026-04-04T14:31:41.751Z</time></trkpt><trkpt lat="42.8091883" lon="13.5000717"><ele>236.0</ele><time>2026-04-04T14:31:42.752Z</time></trkpt><trkpt lat="42.8092717" lon="13.50024"><ele>239.0</ele><time>2026-04-04T14:31:43.751Z</time></trkpt><trkpt lat="42.80936" lon="13.5004033"><ele>242.0</ele><time>2026-04-04T14:31:44.751Z</time></trkpt><trkpt lat="42.8094467" lon="13.5005633"><ele>245.0</ele><time>2026-04-04T14:31:45.751Z</time></trkpt><trkpt lat="42.8095367" lon="13.5007133"><ele>248.0</ele><time>2026-04-04T14:31:46.751Z</time></trkpt><trkpt lat="42.8096267" lon="13.50086"><ele>248.0</ele><time>2026-04-04T14:31:47.751Z</time></trkpt><trkpt lat="42.8097317" lon="13.5010017"><ele>248.0</ele><time>2026-04-04T14:31:48.751Z</time></trkpt><trkpt lat="42.8098367" lon="13.5011367"><ele>248.0</ele><time>2026-04-04T14:31:49.751Z</time></trkpt><trkpt lat="42.809945" lon="13.5012667"><ele>248.0</ele><time>2026-04-04T14:31:50.751Z</time></trkpt><trkpt lat="42.8100617" lon="13.5014017"><ele>247.0</ele><time>2026-04-04T14:31:51.752Z</time></trkpt><trkpt lat="42.8101767" lon="13.5015267"><ele>246.0</ele><time>2026-04-04T14:31:52.752Z</time></trkpt><trkpt lat="42.8102917" lon="13.501645"><ele>245.0</ele><time>2026-04-04T14:31:53.752Z</time></trkpt><trkpt lat="42.8104217" lon="13.5017583"><ele>244.0</ele><time>2026-04-04T14:31:54.751Z</time></trkpt><trkpt lat="42.81055" lon="13.5018683"><ele>244.0</ele><time>2026-04-04T14:31:55.751Z</time></trkpt><trkpt lat="42.8106867" lon="13.50197"><ele>244.0</ele><time>2026-04-04T14:31:56.751Z</time></trkpt><trkpt lat="42.810825" lon="13.502065"><ele>244.0</ele><time>2026-04-04T14:31:57.752Z</time></trkpt><trkpt lat="42.8109667" lon="13.5021517"><ele>241.33333333333331</ele><time>2026-04-04T14:31:58.751Z</time></trkpt><trkpt lat="42.8111083" lon="13.5022433"><ele>238.66666666666669</ele><time>2026-04-04T14:31:59.752Z</time></trkpt><trkpt lat="42.8112483" lon="13.5023167"><ele>236.0</ele><time>2026-04-04T14:32:00.751Z</time></trkpt><trkpt lat="42.81139" lon="13.50239"><ele>236.0</ele><time>2026-04-04T14:32:01.751Z</time></trkpt><trkpt lat="42.811535" lon="13.5024583"><ele>236.0</ele><time>2026-04-04T14:32:02.751Z</time></trkpt><trkpt lat="42.8116833" lon="13.5025283"><ele>236.0</ele><time>2026-04-04T14:32:03.751Z</time></trkpt><trkpt lat="42.8118283" lon="13.5026217"><ele>241.33333333333334</ele><time>2026-04-04T14:32:04.752Z</time></trkpt><trkpt lat="42.8119933" lon="13.5027133"><ele>246.66666666666669</ele><time>2026-04-04T14:32:05.752Z</time></trkpt><trkpt lat="42.8121567" lon="13.5028067"><ele>252.0</ele><time>2026-04-04T14:32:06.751Z</time></trkpt><trkpt lat="42.8122733" lon="13.5028967"><ele>246.75</ele><time>2026-04-04T14:32:07.751Z</time></trkpt><trkpt lat="42.8124" lon="13.5029967"><ele>241.5</ele><time>2026-04-04T14:32:08.752Z</time></trkpt><trkpt lat="42.8125317" lon="13.503095"><ele>236.25</ele><time>2026-04-04T14:32:09.751Z</time></trkpt><trkpt lat="42.81267" lon="13.5031667"><ele>231.0</ele><time>2026-04-04T14:32:10.751Z</time></trkpt><trkpt lat="42.8128167" lon="13.5032233"><ele>231.0</ele><time>2026-04-04T14:32:11.751Z</time></trkpt><trkpt lat="42.812975" lon="13.50327"><ele>231.0</ele><time>2026-04-04T14:32:12.752Z</time></trkpt><trkpt lat="42.8131317" lon="13.503295"><ele>231.0</ele><time>2026-04-04T14:32:13.752Z</time></trkpt><trkpt lat="42.8132833" lon="13.50332"><ele>231.0</ele><time>2026-04-04T14:32:14.751Z</time></trkpt><trkpt lat="42.8134367" lon="13.503325"><ele>231.0</ele><time>2026-04-04T14:32:15.752Z</time></trkpt><trkpt lat="42.8135933" lon="13.50334"><ele>231.0</ele><time>2026-04-04T14:32:16.751Z</time></trkpt><trkpt lat="42.8137433" lon="13.5033483"><ele>230.5</ele><time>2026-04-04T14:32:17.752Z</time></trkpt><trkpt lat="42.813895" lon="13.5033617"><ele>230.0</ele><time>2026-04-04T14:32:18.751Z</time></trkpt><trkpt lat="42.8140367" lon="13.5033733"><ele>229.5</ele><time>2026-04-04T14:32:19.752Z</time></trkpt><trkpt lat="42.8141867" lon="13.503375"><ele>229.0</ele><time>2026-04-04T14:32:20.751Z</time></trkpt><trkpt lat="42.8143383" lon="13.503375"><ele>229.0</ele><time>2026-04-04T14:32:21.752Z</time></trkpt><trkpt lat="42.81448" lon="13.5033783"><ele>229.0</ele><time>2026-04-04T14:32:22.752Z</time></trkpt><trkpt lat="42.8146267" lon="13.5033783"><ele>229.0</ele><time>2026-04-04T14:32:23.751Z</time></trkpt><trkpt lat="42.8147733" lon="13.5033867"><ele>229.0</ele><time>2026-04-04T14:32:24.751Z</time></trkpt><trkpt lat="42.8149233" lon="13.5033917"><ele>229.0</ele><time>2026-04-04T14:32:25.752Z</time></trkpt><trkpt lat="42.81507" lon="13.5033933"><ele>229.0</ele><time>2026-04-04T14:32:26.752Z</time></trkpt><trkpt lat="42.815215" lon="13.5034"><ele>229.0</ele><time>2026-04-04T14:32:27.752Z</time></trkpt><trkpt lat="42.8153517" lon="13.5034117"><ele>229.0</ele><time>2026-04-04T14:32:28.752Z</time></trkpt><trkpt lat="42.8155033" lon="13.503425"><ele>230.0</ele><time>2026-04-04T14:32:29.751Z</time></trkpt><trkpt lat="42.81565" lon="13.5034417"><ele>231.0</ele><time>2026-04-04T14:32:30.751Z</time></trkpt><trkpt lat="42.8157983" lon="13.5034767"><ele>232.0</ele><time>2026-04-04T14:32:31.752Z</time></trkpt><trkpt lat="42.8159533" lon="13.5035"><ele>232.0</ele><time>2026-04-04T14:32:32.751Z</time></trkpt><trkpt lat="42.8161017" lon="13.5035283"><ele>232.0</ele><time>2026-04-04T14:32:33.751Z</time></trkpt><trkpt lat="42.8162567" lon="13.5035567"><ele>232.0</ele><time>2026-04-04T14:32:34.752Z</time></trkpt><trkpt lat="42.8164067" lon="13.5035883"><ele>232.0</ele><time>2026-04-04T14:32:35.751Z</time></trkpt><trkpt lat="42.8165667" lon="13.5036167"><ele>232.0</ele><time>2026-04-04T14:32:36.752Z</time></trkpt><trkpt lat="42.8167183" lon="13.50364"><ele>232.0</ele><time>2026-04-04T14:32:37.752Z</time></trkpt><trkpt lat="42.816875" lon="13.50367"><ele>235.33333333333331</ele><time>2026-04-04T14:32:38.752Z</time></trkpt><trkpt lat="42.817025" lon="13.5037033"><ele>238.66666666666669</ele><time>2026-04-04T14:32:39.751Z</time></trkpt><trkpt lat="42.81717" lon="13.5037383"><ele>242.0</ele><time>2026-04-04T14:32:40.752Z</time></trkpt><trkpt lat="42.817325" lon="13.503765"><ele>234.66666666666669</ele><time>2026-04-04T14:32:41.751Z</time></trkpt><trkpt lat="42.81747" lon="13.5037967"><ele>227.33333333333331</ele><time>2026-04-04T14:32:42.751Z</time></trkpt><trkpt lat="42.817625" lon="13.50382"><ele>220.0</ele><time>2026-04-04T14:32:43.751Z</time></trkpt><trkpt lat="42.817775" lon="13.503845"><ele>220.0</ele><time>2026-04-04T14:32:44.752Z</time></trkpt><trkpt lat="42.8179283" lon="13.5038717"><ele>220.0</ele><time>2026-04-04T14:32:45.752Z</time></trkpt><trkpt lat="42.8180817" lon="13.5039017"><ele>220.0</ele><time>2026-04-04T14:32:46.751Z</time></trkpt><trkpt lat="42.8182383" lon="13.50393"><ele>220.0</ele><time>2026-04-04T14:32:47.751Z</time></trkpt><trkpt lat="42.818395" lon="13.50396"><ele>220.0</ele><time>2026-04-04T14:32:48.751Z</time></trkpt><trkpt lat="42.8185517" lon="13.5039917"><ele>220.0</ele><time>2026-04-04T14:32:49.751Z</time></trkpt><trkpt lat="42.8187133" lon="13.5040233"><ele>219.66666666666666</ele><time>2026-04-04T14:32:50.752Z</time></trkpt><trkpt lat="42.81887" lon="13.5040433"><ele>219.33333333333331</ele><time>2026-04-04T14:32:51.751Z</time></trkpt><trkpt lat="42.819025" lon="13.5040767"><ele>219.0</ele><time>2026-04-04T14:32:52.751Z</time></trkpt><trkpt lat="42.8191817" lon="13.5041117"><ele>222.33333333333331</ele><time>2026-04-04T14:32:53.752Z</time></trkpt><trkpt lat="42.8193367" lon="13.5041517"><ele>225.66666666666666</ele><time>2026-04-04T14:32:54.751Z</time></trkpt><trkpt lat="42.8194933" lon="13.5041967"><ele>229.0</ele><time>2026-04-04T14:32:55.751Z</time></trkpt><trkpt lat="42.8196567" lon="13.5042483"><ele>229.0</ele><time>2026-04-04T14:32:56.751Z</time></trkpt><trkpt lat="42.819815" lon="13.5043217"><ele>229.0</ele><time>2026-04-04T14:32:57.751Z</time></trkpt><trkpt lat="42.81996" lon="13.5044"><ele>229.0</ele><time>2026-04-04T14:32:58.752Z</time></trkpt><trkpt lat="42.82011" lon="13.504495"><ele>228.0</ele><time>2026-04-04T14:32:59.751Z</time></trkpt><trkpt lat="42.8202533" lon="13.5045933"><ele>227.0</ele><time>2026-04-04T14:33:00.751Z</time></trkpt><trkpt lat="42.8203883" lon="13.504695"><ele>226.0</ele><time>2026-04-04T14:33:01.751Z</time></trkpt><trkpt lat="42.820515" lon="13.5048183"><ele>226.0</ele><time>2026-04-04T14:33:02.751Z</time></trkpt><trkpt lat="42.8206383" lon="13.50493"><ele>226.0</ele><time>2026-04-04T14:33:03.751Z</time></trkpt><trkpt lat="42.8207567" lon="13.5050383"><ele>226.0</ele><time>2026-04-04T14:33:04.751Z</time></trkpt><trkpt lat="42.820875" lon="13.505145"><ele>226.0</ele><time>2026-04-04T14:33:05.751Z</time></trkpt><trkpt lat="42.8209833" lon="13.5052533"><ele>224.25</ele><time>2026-04-04T14:33:06.752Z</time></trkpt><trkpt lat="42.8210917" lon="13.50536"><ele>222.5</ele><time>2026-04-04T14:33:07.751Z</time></trkpt><trkpt lat="42.821205" lon="13.5054483"><ele>220.75</ele><time>2026-04-04T14:33:08.751Z</time></trkpt><trkpt lat="42.8213017" lon="13.50554"><ele>219.0</ele><time>2026-04-04T14:33:09.751Z</time></trkpt><trkpt lat="42.8213967" lon="13.5056533"><ele>218.25</ele><time>2026-04-04T14:33:10.752Z</time></trkpt><trkpt lat="42.8214733" lon="13.5057817"><ele>217.5</ele><time>2026-04-04T14:33:11.751Z</time></trkpt><trkpt lat="42.821545" lon="13.5059167"><ele>216.75</ele><time>2026-04-04T14:33:12.751Z</time></trkpt><trkpt lat="42.8216083" lon="13.50606"><ele>216.0</ele><time>2026-04-04T14:33:13.751Z</time></trkpt><trkpt lat="42.821665" lon="13.5062367"><ele>214.5</ele><time>2026-04-04T14:33:14.752Z</time></trkpt><trkpt lat="42.8217" lon="13.5064133"><ele>213.0</ele><time>2026-04-04T14:33:15.751Z</time></trkpt><trkpt lat="42.82173" lon="13.5065933"><ele>211.5</ele><time>2026-04-04T14:33:16.751Z</time></trkpt><trkpt lat="42.82177" lon="13.506775"><ele>210.0</ele><time>2026-04-04T14:33:17.751Z</time></trkpt><trkpt lat="42.8218083" lon="13.506965"><ele>208.5</ele><time>2026-04-04T14:33:18.751Z</time></trkpt><trkpt lat="42.821845" lon="13.5071517"><ele>207.0</ele><time>2026-04-04T14:33:19.751Z</time></trkpt><trkpt lat="42.8218867" lon="13.5073367"><ele>205.5</ele><time>2026-04-04T14:33:20.751Z</time></trkpt><trkpt lat="42.8219283" lon="13.5075083"><ele>204.0</ele><time>2026-04-04T14:33:21.751Z</time></trkpt><trkpt lat="42.8219767" lon="13.5076717"><ele>204.0</ele><time>2026-04-04T14:33:22.752Z</time></trkpt><trkpt lat="42.8220283" lon="13.5078233"><ele>204.0</ele><time>2026-04-04T14:33:23.752Z</time></trkpt><trkpt lat="42.8220883" lon="13.5079517"><ele>204.0</ele><time>2026-04-04T14:33:24.752Z</time></trkpt><trkpt lat="42.8221767" lon="13.508065"><ele>204.0</ele><time>2026-04-04T14:33:25.752Z</time></trkpt><trkpt lat="42.8222783" lon="13.5081467"><ele>204.5</ele><time>2026-04-04T14:33:26.751Z</time></trkpt><trkpt lat="42.8223933" lon="13.5082"><ele>205.0</ele><time>2026-04-04T14:33:27.751Z</time></trkpt><trkpt lat="42.8225217" lon="13.5082417"><ele>205.5</ele><time>2026-04-04T14:33:28.751Z</time></trkpt><trkpt lat="42.8226583" lon="13.5082883"><ele>206.0</ele><time>2026-04-04T14:33:29.752Z</time></trkpt><trkpt lat="42.8228017" lon="13.5083417"><ele>206.0</ele><time>2026-04-04T14:33:30.752Z</time></trkpt><trkpt lat="42.8229467" lon="13.5083983"><ele>206.0</ele><time>2026-04-04T14:33:31.751Z</time></trkpt><trkpt lat="42.82309" lon="13.508455"><ele>206.0</ele><time>2026-04-04T14:33:32.751Z</time></trkpt><trkpt lat="42.823235" lon="13.5084917"><ele>206.0</ele><time>2026-04-04T14:33:33.751Z</time></trkpt><trkpt lat="42.82337" lon="13.5085317"><ele>208.5</ele><time>2026-04-04T14:33:34.752Z</time></trkpt><trkpt lat="42.8235033" lon="13.5085833"><ele>211.0</ele><time>2026-04-04T14:33:35.751Z</time></trkpt><trkpt lat="42.8236333" lon="13.5086233"><ele>213.5</ele><time>2026-04-04T14:33:36.751Z</time></trkpt><trkpt lat="42.8237567" lon="13.5086683"><ele>216.0</ele><time>2026-04-04T14:33:37.751Z</time></trkpt><trkpt lat="42.8238833" lon="13.5087117"><ele>213.75</ele><time>2026-04-04T14:33:38.752Z</time></trkpt><trkpt lat="42.82401" lon="13.50876"><ele>211.5</ele><time>2026-04-04T14:33:39.751Z</time></trkpt><trkpt lat="42.82413" lon="13.5088067"><ele>209.25</ele><time>2026-04-04T14:33:40.752Z</time></trkpt><trkpt lat="42.8242517" lon="13.50886"><ele>207.0</ele><time>2026-04-04T14:33:41.751Z</time></trkpt><trkpt lat="42.8243733" lon="13.5089067"><ele>207.0</ele><time>2026-04-04T14:33:42.752Z</time></trkpt><trkpt lat="42.8245" lon="13.50895"><ele>207.0</ele><time>2026-04-04T14:33:43.752Z</time></trkpt><trkpt lat="42.8246317" lon="13.5089867"><ele>207.0</ele><time>2026-04-04T14:33:44.751Z</time></trkpt><trkpt lat="42.8247567" lon="13.5090317"><ele>207.0</ele><time>2026-04-04T14:33:45.751Z</time></trkpt><trkpt lat="42.8248833" lon="13.5090767"><ele>207.0</ele><time>2026-04-04T14:33:46.752Z</time></trkpt><trkpt lat="42.8250083" lon="13.5091267"><ele>207.0</ele><time>2026-04-04T14:33:47.751Z</time></trkpt><trkpt lat="42.8251383" lon="13.5091767"><ele>207.0</ele><time>2026-04-04T14:33:48.751Z</time></trkpt><trkpt lat="42.8252683" lon="13.5092233"><ele>207.0</ele><time>2026-04-04T14:33:49.751Z</time></trkpt><trkpt lat="42.8254017" lon="13.50927"><ele>208.5</ele><time>2026-04-04T14:33:50.752Z</time></trkpt><trkpt lat="42.82554" lon="13.5093117"><ele>210.0</ele><time>2026-04-04T14:33:51.751Z</time></trkpt><trkpt lat="42.82567" lon="13.5093533"><ele>211.5</ele><time>2026-04-04T14:33:52.751Z</time></trkpt><trkpt lat="42.8258" lon="13.5093933"><ele>213.0</ele><time>2026-04-04T14:33:53.752Z</time></trkpt><trkpt lat="42.825915" lon="13.50944"><ele>212.8</ele><time>2026-04-04T14:33:54.751Z</time></trkpt><trkpt lat="42.8260217" lon="13.5094817"><ele>212.60000000000002</ele><time>2026-04-04T14:33:55.751Z</time></trkpt><trkpt lat="42.826125" lon="13.5095217"><ele>212.39999999999998</ele><time>2026-04-04T14:33:56.752Z</time></trkpt><trkpt lat="42.8262183" lon="13.509555"><ele>212.2</ele><time>2026-04-04T14:33:57.751Z</time></trkpt><trkpt lat="42.8263133" lon="13.509585"><ele>212.0</ele><time>2026-04-04T14:33:58.751Z</time></trkpt><trkpt lat="42.826405" lon="13.509615"><ele>210.39999999999998</ele><time>2026-04-04T14:33:59.751Z</time></trkpt><trkpt lat="42.8265" lon="13.5096483"><ele>208.79999999999998</ele><time>2026-04-04T14:34:00.752Z</time></trkpt><trkpt lat="42.826605" lon="13.5096783"><ele>207.2</ele><time>2026-04-04T14:34:01.751Z</time></trkpt><trkpt lat="42.82671" lon="13.509715"><ele>205.6</ele><time>2026-04-04T14:34:02.751Z</time></trkpt><trkpt lat="42.8268217" lon="13.509775"><ele>204.0</ele><time>2026-04-04T14:34:03.751Z</time></trkpt><trkpt lat="42.82693" lon="13.5098133"><ele>203.5</ele><time>2026-04-04T14:34:04.751Z</time></trkpt><trkpt lat="42.82704" lon="13.509855"><ele>203.0</ele><time>2026-04-04T14:34:05.751Z</time></trkpt><trkpt lat="42.82718" lon="13.5098867"><ele>202.5</ele><time>2026-04-04T14:34:06.752Z</time></trkpt><trkpt lat="42.8273" lon="13.5099233"><ele>202.0</ele><time>2026-04-04T14:34:07.752Z</time></trkpt><trkpt lat="42.82741" lon="13.5099617"><ele>202.0</ele><time>2026-04-04T14:34:08.751Z</time></trkpt><trkpt lat="42.8275267" lon="13.510015"><ele>202.0</ele><time>2026-04-04T14:34:09.751Z</time></trkpt><trkpt lat="42.8276533" lon="13.510055"><ele>202.0</ele><time>2026-04-04T14:34:10.751Z</time></trkpt><trkpt lat="42.8277683" lon="13.5101017"><ele>202.0</ele><time>2026-04-04T14:34:11.751Z</time></trkpt><trkpt lat="42.8278883" lon="13.5101367"><ele>203.5</ele><time>2026-04-04T14:34:12.751Z</time></trkpt><trkpt lat="42.8280083" lon="13.5101617"><ele>205.0</ele><time>2026-04-04T14:34:13.752Z</time></trkpt><trkpt lat="42.8281217" lon="13.5102033"><ele>206.5</ele><time>2026-04-04T14:34:14.752Z</time></trkpt><trkpt lat="42.82823" lon="13.51023"><ele>208.0</ele><time>2026-04-04T14:34:15.751Z</time></trkpt><trkpt lat="42.8283367" lon="13.5102683"><ele>208.0</ele><time>2026-04-04T14:34:16.751Z</time></trkpt><trkpt lat="42.8284467" lon="13.5103017"><ele>208.0</ele><time>2026-04-04T14:34:17.752Z</time></trkpt><trkpt lat="42.82856" lon="13.5103383"><ele>208.0</ele><time>2026-04-04T14:34:18.751Z</time></trkpt><trkpt lat="42.8286683" lon="13.5103733"><ele>208.0</ele><time>2026-04-04T14:34:19.752Z</time></trkpt><trkpt lat="42.8287767" lon="13.510405"><ele>204.5</ele><time>2026-04-04T14:34:20.751Z</time></trkpt><trkpt lat="42.8288833" lon="13.5104467"><ele>201.0</ele><time>2026-04-04T14:34:21.751Z</time></trkpt><trkpt lat="42.8289817" lon="13.5104833"><ele>197.5</ele><time>2026-04-04T14:34:22.751Z</time></trkpt><trkpt lat="42.829095" lon="13.51051"><ele>194.0</ele><time>2026-04-04T14:34:23.751Z</time></trkpt><trkpt lat="42.829215" lon="13.510545"><ele>195.75</ele><time>2026-04-04T14:34:24.752Z</time></trkpt><trkpt lat="42.8293267" lon="13.5105867"><ele>197.5</ele><time>2026-04-04T14:34:25.752Z</time></trkpt><trkpt lat="42.8294433" lon="13.51063"><ele>199.25</ele><time>2026-04-04T14:34:26.752Z</time></trkpt><trkpt lat="42.82956" lon="13.5106767"><ele>201.0</ele><time>2026-04-04T14:34:27.751Z</time></trkpt><trkpt lat="42.8296783" lon="13.5107283"><ele>201.0</ele><time>2026-04-04T14:34:28.751Z</time></trkpt><trkpt lat="42.8297917" lon="13.51079"><ele>201.0</ele><time>2026-04-04T14:34:29.751Z</time></trkpt><trkpt lat="42.829895" lon="13.51087"><ele>201.0</ele><time>2026-04-04T14:34:30.751Z</time></trkpt><trkpt lat="42.82999" lon="13.5109633"><ele>201.0</ele><time>2026-04-04T14:34:31.752Z</time></trkpt><trkpt lat="42.830065" lon="13.511065"><ele>201.0</ele><time>2026-04-04T14:34:32.751Z</time></trkpt><trkpt lat="42.8301183" lon="13.5111933"><ele>201.0</ele><time>2026-04-04T14:34:33.751Z</time></trkpt><trkpt lat="42.8301517" lon="13.5113417"><ele>201.0</ele><time>2026-04-04T14:34:34.752Z</time></trkpt><trkpt lat="42.8301683" lon="13.511505"><ele>201.0</ele><time>2026-04-04T14:34:35.752Z</time></trkpt><trkpt lat="42.83018" lon="13.5116683"><ele>200.25</ele><time>2026-04-04T14:34:36.751Z</time></trkpt><trkpt lat="42.83019" lon="13.51185"><ele>199.5</ele><time>2026-04-04T14:34:37.752Z</time></trkpt><trkpt lat="42.8302067" lon="13.51203"><ele>198.75</ele><time>2026-04-04T14:34:38.752Z</time></trkpt><trkpt lat="42.8302217" lon="13.5122333"><ele>198.0</ele><time>2026-04-04T14:34:39.751Z</time></trkpt><trkpt lat="42.8302367" lon="13.5124267"><ele>198.0</ele><time>2026-04-04T14:34:40.752Z</time></trkpt><trkpt lat="42.8302633" lon="13.5126117"><ele>198.0</ele><time>2026-04-04T14:34:41.752Z</time></trkpt><trkpt lat="42.8302833" lon="13.5127933"><ele>198.0</ele><time>2026-04-04T14:34:42.751Z</time></trkpt><trkpt lat="42.830315" lon="13.512975"><ele>198.0</ele><time>2026-04-04T14:34:43.752Z</time></trkpt><trkpt lat="42.8303467" lon="13.5131533"><ele>198.0</ele><time>2026-04-04T14:34:44.751Z</time></trkpt><trkpt lat="42.8303883" lon="13.5133267"><ele>198.0</ele><time>2026-04-04T14:34:45.751Z</time></trkpt><trkpt lat="42.83043" lon="13.5135067"><ele>198.0</ele><time>2026-04-04T14:34:46.751Z</time></trkpt><trkpt lat="42.8304783" lon="13.51369"><ele>198.0</ele><time>2026-04-04T14:34:47.751Z</time></trkpt><trkpt lat="42.8305367" lon="13.513865"><ele>199.25</ele><time>2026-04-04T14:34:48.752Z</time></trkpt><trkpt lat="42.8305917" lon="13.51405"><ele>200.5</ele><time>2026-04-04T14:34:49.751Z</time></trkpt><trkpt lat="42.83064" lon="13.5142317"><ele>201.75</ele><time>2026-04-04T14:34:50.751Z</time></trkpt><trkpt lat="42.8306917" lon="13.5144167"><ele>203.0</ele><time>2026-04-04T14:34:51.751Z</time></trkpt><trkpt lat="42.8307433" lon="13.5146017"><ele>204.75</ele><time>2026-04-04T14:34:52.751Z</time></trkpt><trkpt lat="42.8308067" lon="13.5147767"><ele>206.5</ele><time>2026-04-04T14:34:53.751Z</time></trkpt><trkpt lat="42.830865" lon="13.5149533"><ele>208.25</ele><time>2026-04-04T14:34:54.752Z</time></trkpt><trkpt lat="42.830925" lon="13.51512"><ele>210.0</ele><time>2026-04-04T14:34:55.751Z</time></trkpt><trkpt lat="42.8309817" lon="13.5152817"><ele>207.25</ele><time>2026-04-04T14:34:56.752Z</time></trkpt><trkpt lat="42.831035" lon="13.5154483"><ele>204.5</ele><time>2026-04-04T14:34:57.751Z</time></trkpt><trkpt lat="42.83111" lon="13.515595"><ele>201.75</ele><time>2026-04-04T14:34:58.752Z</time></trkpt><trkpt lat="42.8311933" lon="13.5157383"><ele>199.0</ele><time>2026-04-04T14:34:59.751Z</time></trkpt><trkpt lat="42.8312783" lon="13.5158483"><ele>199.0</ele><time>2026-04-04T14:35:00.752Z</time></trkpt><trkpt lat="42.8313667" lon="13.5159433"><ele>199.0</ele><time>2026-04-04T14:35:01.751Z</time></trkpt><trkpt lat="42.8314667" lon="13.5160333"><ele>199.0</ele><time>2026-04-04T14:35:02.75Z</time></trkpt><trkpt lat="42.8315767" lon="13.5161183"><ele>199.0</ele><time>2026-04-04T14:35:03.75Z</time></trkpt><trkpt lat="42.8316967" lon="13.51622"><ele>200.66666666666666</ele><time>2026-04-04T14:35:04.751Z</time></trkpt><trkpt lat="42.831945" lon="13.5164517"><ele>202.33333333333331</ele><time>2026-04-04T14:35:06.751Z</time></trkpt><trkpt lat="42.8320617" lon="13.5165733"><ele>204.0</ele><time>2026-04-04T14:35:07.751Z</time></trkpt><trkpt lat="42.8321783" lon="13.5167133"><ele>204.0</ele><time>2026-04-04T14:35:08.751Z</time></trkpt><trkpt lat="42.8323067" lon="13.5168483"><ele>204.0</ele><time>2026-04-04T14:35:09.75Z</time></trkpt><trkpt lat="42.8324417" lon="13.516985"><ele>204.0</ele><time>2026-04-04T14:35:10.751Z</time></trkpt><trkpt lat="42.832565" lon="13.51711"><ele>206.75</ele><time>2026-04-04T14:35:11.75Z</time></trkpt><trkpt lat="42.83269" lon="13.51723"><ele>209.5</ele><time>2026-04-04T14:35:12.751Z</time></trkpt><trkpt lat="42.8328133" lon="13.51734"><ele>212.25</ele><time>2026-04-04T14:35:13.751Z</time></trkpt><trkpt lat="42.8329417" lon="13.517425"><ele>215.0</ele><time>2026-04-04T14:35:14.75Z</time></trkpt><trkpt lat="42.83307" lon="13.5174967"><ele>215.0</ele><time>2026-04-04T14:35:15.751Z</time></trkpt><trkpt lat="42.8332033" lon="13.5175733"><ele>215.0</ele><time>2026-04-04T14:35:16.75Z</time></trkpt><trkpt lat="42.83334" lon="13.517645"><ele>215.0</ele><time>2026-04-04T14:35:17.75Z</time></trkpt><trkpt lat="42.8334767" lon="13.5177067"><ele>215.0</ele><time>2026-04-04T14:35:18.75Z</time></trkpt><trkpt lat="42.8336017" lon="13.51777"><ele>213.0</ele><time>2026-04-04T14:35:19.751Z</time></trkpt><trkpt lat="42.8337317" lon="13.51783"><ele>211.0</ele><time>2026-04-04T14:35:20.75Z</time></trkpt><trkpt lat="42.8338633" lon="13.5178917"><ele>209.0</ele><time>2026-04-04T14:35:21.75Z</time></trkpt><trkpt lat="42.8339883" lon="13.5179617"><ele>207.0</ele><time>2026-04-04T14:35:22.751Z</time></trkpt><trkpt lat="42.834115" lon="13.5180367"><ele>209.0</ele><time>2026-04-04T14:35:23.75Z</time></trkpt><trkpt lat="42.8342333" lon="13.51811"><ele>211.0</ele><time>2026-04-04T14:35:24.75Z</time></trkpt><trkpt lat="42.834345" lon="13.51821"><ele>213.0</ele><time>2026-04-04T14:35:25.75Z</time></trkpt><trkpt lat="42.83456" lon="13.518445"><ele>213.0</ele><time>2026-04-04T14:35:27.75Z</time></trkpt><trkpt lat="42.8346767" lon="13.5185633"><ele>213.0</ele><time>2026-04-04T14:35:28.751Z</time></trkpt><trkpt lat="42.8347783" lon="13.518685"><ele>213.0</ele><time>2026-04-04T14:35:29.75Z</time></trkpt><trkpt lat="42.8348717" lon="13.51882"><ele>213.0</ele><time>2026-04-04T14:35:30.75Z</time></trkpt><trkpt lat="42.8349533" lon="13.5189767"><ele>212.75</ele><time>2026-04-04T14:35:31.75Z</time></trkpt><trkpt lat="42.8350483" lon="13.51912"><ele>212.5</ele><time>2026-04-04T14:35:32.75Z</time></trkpt><trkpt lat="42.8351583" lon="13.5192567"><ele>212.25</ele><time>2026-04-04T14:35:33.75Z</time></trkpt><trkpt lat="42.8352667" lon="13.51938"><ele>212.0</ele><time>2026-04-04T14:35:34.75Z</time></trkpt><trkpt lat="42.8353767" lon="13.5195117"><ele>217.5</ele><time>2026-04-04T14:35:35.751Z</time></trkpt><trkpt lat="42.8354833" lon="13.519645"><ele>223.0</ele><time>2026-04-04T14:35:36.75Z</time></trkpt><trkpt lat="42.8355867" lon="13.5197783"><ele>228.5</ele><time>2026-04-04T14:35:37.75Z</time></trkpt><trkpt lat="42.8356933" lon="13.5199117"><ele>234.0</ele><time>2026-04-04T14:35:38.75Z</time></trkpt><trkpt lat="42.8357983" lon="13.520045"><ele>234.0</ele><time>2026-04-04T14:35:39.751Z</time></trkpt><trkpt lat="42.835905" lon="13.5201783"><ele>234.0</ele><time>2026-04-04T14:35:40.75Z</time></trkpt><trkpt lat="42.8361567" lon="13.5199983"><ele>234.0</ele><time>2026-04-04T14:35:41.751Z</time></trkpt><trkpt lat="42.83635" lon="13.5199083"><ele>230.0</ele><time>2026-04-04T14:35:42.751Z</time></trkpt><trkpt lat="42.8365167" lon="13.51984"><ele>226.0</ele><time>2026-04-04T14:35:43.75Z</time></trkpt><trkpt lat="42.8366567" lon="13.5198283"><ele>222.0</ele><time>2026-04-04T14:35:44.75Z</time></trkpt><trkpt lat="42.836795" lon="13.5198517"><ele>218.75</ele><time>2026-04-04T14:35:45.75Z</time></trkpt><trkpt lat="42.83691" lon="13.5199467"><ele>215.5</ele><time>2026-04-04T14:35:46.75Z</time></trkpt><trkpt lat="42.8369967" lon="13.5200667"><ele>212.25</ele><time>2026-04-04T14:35:47.751Z</time></trkpt><trkpt lat="42.83708" lon="13.520205"><ele>209.0</ele><time>2026-04-04T14:35:48.75Z</time></trkpt><trkpt lat="42.8371783" lon="13.520335"><ele>208.0</ele><time>2026-04-04T14:35:49.75Z</time></trkpt><trkpt lat="42.8372867" lon="13.5204583"><ele>207.0</ele><time>2026-04-04T14:35:50.751Z</time></trkpt><trkpt lat="42.837425" lon="13.5205317"><ele>206.0</ele><time>2026-04-04T14:35:51.75Z</time></trkpt><trkpt lat="42.8375533" lon="13.52059"><ele>205.0</ele><time>2026-04-04T14:35:52.75Z</time></trkpt><trkpt lat="42.83768" lon="13.5206333"><ele>205.0</ele><time>2026-04-04T14:35:53.751Z</time></trkpt><trkpt lat="42.8377967" lon="13.5206883"><ele>205.0</ele><time>2026-04-04T14:35:54.75Z</time></trkpt><trkpt lat="42.8378933" lon="13.520735"><ele>205.0</ele><time>2026-04-04T14:35:55.75Z</time></trkpt><trkpt lat="42.8379733" lon="13.52082"><ele>205.0</ele><time>2026-04-04T14:35:56.751Z</time></trkpt><trkpt lat="42.8380267" lon="13.52095"><ele>205.0</ele><time>2026-04-04T14:35:57.75Z</time></trkpt><trkpt lat="42.838055" lon="13.5211183"><ele>205.25</ele><time>2026-04-04T14:35:58.751Z</time></trkpt><trkpt lat="42.8380767" lon="13.521295"><ele>205.5</ele><time>2026-04-04T14:35:59.75Z</time></trkpt><trkpt lat="42.83812" lon="13.521485"><ele>205.75</ele><time>2026-04-04T14:36:00.751Z</time></trkpt><trkpt lat="42.83818" lon="13.52168"><ele>206.0</ele><time>2026-04-04T14:36:01.75Z</time></trkpt><trkpt lat="42.8382717" lon="13.5218483"><ele>206.0</ele><time>2026-04-04T14:36:02.75Z</time></trkpt><trkpt lat="42.83838" lon="13.5220083"><ele>206.0</ele><time>2026-04-04T14:36:03.751Z</time></trkpt><trkpt lat="42.8384967" lon="13.5221683"><ele>206.0</ele><time>2026-04-04T14:36:04.751Z</time></trkpt><trkpt lat="42.838615" lon="13.52232"><ele>204.75</ele><time>2026-04-04T14:36:05.751Z</time></trkpt><trkpt lat="42.8387317" lon="13.5224683"><ele>203.5</ele><time>2026-04-04T14:36:06.75Z</time></trkpt><trkpt lat="42.83883" lon="13.5226167"><ele>202.25</ele><time>2026-04-04T14:36:07.751Z</time></trkpt><trkpt lat="42.8389267" lon="13.5227567"><ele>201.0</ele><time>2026-04-04T14:36:08.75Z</time></trkpt><trkpt lat="42.8390367" lon="13.522865"><ele>200.75</ele><time>2026-04-04T14:36:09.751Z</time></trkpt><trkpt lat="42.83915" lon="13.522965"><ele>200.5</ele><time>2026-04-04T14:36:10.751Z</time></trkpt><trkpt lat="42.839275" lon="13.523025"><ele>200.25</ele><time>2026-04-04T14:36:11.75Z</time></trkpt><trkpt lat="42.83941" lon="13.5230333"><ele>200.0</ele><time>2026-04-04T14:36:12.751Z</time></trkpt><trkpt lat="42.8395567" lon="13.5230317"><ele>200.0</ele><time>2026-04-04T14:36:13.75Z</time></trkpt><trkpt lat="42.8396967" lon="13.52303"><ele>200.0</ele><time>2026-04-04T14:36:14.75Z</time></trkpt><trkpt lat="42.8398433" lon="13.5230283"><ele>200.0</ele><time>2026-04-04T14:36:15.75Z</time></trkpt><trkpt lat="42.8400033" lon="13.5230333"><ele>200.0</ele><time>2026-04-04T14:36:16.75Z</time></trkpt><trkpt lat="42.8401617" lon="13.5230417"><ele>201.0</ele><time>2026-04-04T14:36:17.751Z</time></trkpt><trkpt lat="42.8403267" lon="13.523045"><ele>202.0</ele><time>2026-04-04T14:36:18.75Z</time></trkpt><trkpt lat="42.8404867" lon="13.5230583"><ele>203.0</ele><time>2026-04-04T14:36:19.75Z</time></trkpt><trkpt lat="42.8406367" lon="13.5230533"><ele>203.0</ele><time>2026-04-04T14:36:20.75Z</time></trkpt><trkpt lat="42.84078" lon="13.523065"><ele>203.0</ele><time>2026-04-04T14:36:21.751Z</time></trkpt><trkpt lat="42.8409233" lon="13.5230967"><ele>203.0</ele><time>2026-04-04T14:36:22.75Z</time></trkpt><trkpt lat="42.841055" lon="13.52314"><ele>203.0</ele><time>2026-04-04T14:36:23.75Z</time></trkpt><trkpt lat="42.84119" lon="13.5232267"><ele>202.0</ele><time>2026-04-04T14:36:24.75Z</time></trkpt><trkpt lat="42.8413167" lon="13.52332"><ele>201.0</ele><time>2026-04-04T14:36:25.75Z</time></trkpt><trkpt lat="42.841435" lon="13.5234433"><ele>200.0</ele><time>2026-04-04T14:36:26.75Z</time></trkpt><trkpt lat="42.8415383" lon="13.5236033"><ele>199.0</ele><time>2026-04-04T14:36:27.751Z</time></trkpt><trkpt lat="42.8416167" lon="13.52378"><ele>199.0</ele><time>2026-04-04T14:36:28.75Z</time></trkpt><trkpt lat="42.8416833" lon="13.523965"><ele>199.0</ele><time>2026-04-04T14:36:29.75Z</time></trkpt><trkpt lat="42.8417483" lon="13.5241367"><ele>199.0</ele><time>2026-04-04T14:36:30.75Z</time></trkpt><trkpt lat="42.8418233" lon="13.5243133"><ele>199.0</ele><time>2026-04-04T14:36:31.75Z</time></trkpt><trkpt lat="42.8419167" lon="13.5244583"><ele>198.33333333333331</ele><time>2026-04-04T14:36:32.75Z</time></trkpt><trkpt lat="42.8420483" lon="13.5245683"><ele>197.66666666666669</ele><time>2026-04-04T14:36:33.75Z</time></trkpt><trkpt lat="42.8421967" lon="13.524655"><ele>197.0</ele><time>2026-04-04T14:36:34.751Z</time></trkpt><trkpt lat="42.8423417" lon="13.52473"><ele>197.0</ele><time>2026-04-04T14:36:35.751Z</time></trkpt><trkpt lat="42.8424983" lon="13.5248117"><ele>197.0</ele><time>2026-04-04T14:36:36.751Z</time></trkpt><trkpt lat="42.8426383" lon="13.5249"><ele>197.0</ele><time>2026-04-04T14:36:37.75Z</time></trkpt><trkpt lat="42.8427683" lon="13.5250133"><ele>198.0</ele><time>2026-04-04T14:36:38.751Z</time></trkpt><trkpt lat="42.8429067" lon="13.5251367"><ele>199.0</ele><time>2026-04-04T14:36:39.751Z</time></trkpt><trkpt lat="42.8430333" lon="13.5252717"><ele>200.0</ele><time>2026-04-04T14:36:40.75Z</time></trkpt><trkpt lat="42.84316" lon="13.5253967"><ele>200.0</ele><time>2026-04-04T14:36:41.75Z</time></trkpt><trkpt lat="42.84328" lon="13.5255217"><ele>200.0</ele><time>2026-04-04T14:36:42.75Z</time></trkpt><trkpt lat="42.8434083" lon="13.5256483"><ele>200.0</ele><time>2026-04-04T14:36:43.75Z</time></trkpt><trkpt lat="42.8435283" lon="13.5257633"><ele>194.66666666666669</ele><time>2026-04-04T14:36:44.751Z</time></trkpt><trkpt lat="42.8436583" lon="13.5258767"><ele>189.33333333333334</ele><time>2026-04-04T14:36:45.75Z</time></trkpt><trkpt lat="42.8437883" lon="13.5259883"><ele>184.0</ele><time>2026-04-04T14:36:46.751Z</time></trkpt><trkpt lat="42.8439233" lon="13.5260917"><ele>184.0</ele><time>2026-04-04T14:36:47.75Z</time></trkpt><trkpt lat="42.8440517" lon="13.5262"><ele>184.0</ele><time>2026-04-04T14:36:48.75Z</time></trkpt><trkpt lat="42.84418" lon="13.5262933"><ele>184.0</ele><time>2026-04-04T14:36:49.751Z</time></trkpt><trkpt lat="42.8443033" lon="13.5263933"><ele>184.0</ele><time>2026-04-04T14:36:50.751Z</time></trkpt><trkpt lat="42.8444367" lon="13.5264917"><ele>184.33333333333334</ele><time>2026-04-04T14:36:51.751Z</time></trkpt><trkpt lat="42.8445733" lon="13.5265867"><ele>184.66666666666666</ele><time>2026-04-04T14:36:52.75Z</time></trkpt><trkpt lat="42.8447117" lon="13.5266867"><ele>185.0</ele><time>2026-04-04T14:36:53.75Z</time></trkpt><trkpt lat="42.8448417" lon="13.5267817"><ele>185.0</ele><time>2026-04-04T14:36:54.751Z</time></trkpt><trkpt lat="42.8449683" lon="13.526875"><ele>185.0</ele><time>2026-04-04T14:36:55.75Z</time></trkpt><trkpt lat="42.845095" lon="13.5269717"><ele>185.0</ele><time>2026-04-04T14:36:56.75Z</time></trkpt><trkpt lat="42.845215" lon="13.5270817"><ele>185.0</ele><time>2026-04-04T14:36:57.75Z</time></trkpt><trkpt lat="42.8453267" lon="13.5271967"><ele>183.75</ele><time>2026-04-04T14:36:58.75Z</time></trkpt><trkpt lat="42.8454533" lon="13.527325"><ele>182.5</ele><time>2026-04-04T14:36:59.75Z</time></trkpt><trkpt lat="42.84556" lon="13.52746"><ele>181.25</ele><time>2026-04-04T14:37:00.75Z</time></trkpt><trkpt lat="42.8456367" lon="13.5276283"><ele>180.0</ele><time>2026-04-04T14:37:01.75Z</time></trkpt><trkpt lat="42.8457167" lon="13.5278033"><ele>180.0</ele><time>2026-04-04T14:37:02.75Z</time></trkpt><trkpt lat="42.8458183" lon="13.52797"><ele>180.0</ele><time>2026-04-04T14:37:03.75Z</time></trkpt><trkpt lat="42.84594" lon="13.5281133"><ele>180.0</ele><time>2026-04-04T14:37:04.751Z</time></trkpt><trkpt lat="42.8460717" lon="13.5282517"><ele>180.0</ele><time>2026-04-04T14:37:05.75Z</time></trkpt><trkpt lat="42.8462133" lon="13.5283733"><ele>180.0</ele><time>2026-04-04T14:37:06.75Z</time></trkpt><trkpt lat="42.8463617" lon="13.5284783"><ele>180.0</ele><time>2026-04-04T14:37:07.75Z</time></trkpt><trkpt lat="42.8465" lon="13.52858"><ele>180.0</ele><time>2026-04-04T14:37:08.751Z</time></trkpt><trkpt lat="42.846635" lon="13.5286783"><ele>180.0</ele><time>2026-04-04T14:37:09.751Z</time></trkpt><trkpt lat="42.846765" lon="13.52878"><ele>180.0</ele><time>2026-04-04T14:37:10.75Z</time></trkpt><trkpt lat="42.8468983" lon="13.5288917"><ele>180.0</ele><time>2026-04-04T14:37:11.75Z</time></trkpt><trkpt lat="42.8470233" lon="13.5289933"><ele>180.0</ele><time>2026-04-04T14:37:12.751Z</time></trkpt><trkpt lat="42.847145" lon="13.5291"><ele>180.0</ele><time>2026-04-04T14:37:13.75Z</time></trkpt><trkpt lat="42.84727" lon="13.529225"><ele>180.0</ele><time>2026-04-04T14:37:14.75Z</time></trkpt><trkpt lat="42.8473967" lon="13.52935"><ele>180.0</ele><time>2026-04-04T14:37:15.751Z</time></trkpt><trkpt lat="42.8475283" lon="13.529465"><ele>180.0</ele><time>2026-04-04T14:37:16.751Z</time></trkpt><trkpt lat="42.8476533" lon="13.5295717"><ele>180.0</ele><time>2026-04-04T14:37:17.751Z</time></trkpt><trkpt lat="42.84779" lon="13.5296667"><ele>184.0</ele><time>2026-04-04T14:37:18.75Z</time></trkpt><trkpt lat="42.8479317" lon="13.529755"><ele>188.0</ele><time>2026-04-04T14:37:19.751Z</time></trkpt><trkpt lat="42.848075" lon="13.5298367"><ele>192.0</ele><time>2026-04-04T14:37:20.75Z</time></trkpt><trkpt lat="42.8482183" lon="13.5299117"><ele>192.0</ele><time>2026-04-04T14:37:21.75Z</time></trkpt><trkpt lat="42.8483667" lon="13.52998"><ele>192.0</ele><time>2026-04-04T14:37:22.75Z</time></trkpt><trkpt lat="42.84852" lon="13.5300417"><ele>192.0</ele><time>2026-04-04T14:37:23.751Z</time></trkpt><trkpt lat="42.848665" lon="13.5300983"><ele>190.0</ele><time>2026-04-04T14:37:24.75Z</time></trkpt><trkpt lat="42.8488117" lon="13.53016"><ele>188.0</ele><time>2026-04-04T14:37:25.75Z</time></trkpt><trkpt lat="42.8489483" lon="13.5302333"><ele>186.0</ele><time>2026-04-04T14:37:26.751Z</time></trkpt><trkpt lat="42.84907" lon="13.5303233"><ele>184.0</ele><time>2026-04-04T14:37:27.75Z</time></trkpt><trkpt lat="42.849195" lon="13.530435"><ele>183.25</ele><time>2026-04-04T14:37:28.75Z</time></trkpt><trkpt lat="42.849305" lon="13.5305517"><ele>182.5</ele><time>2026-04-04T14:37:29.75Z</time></trkpt><trkpt lat="42.849405" lon="13.5306867"><ele>181.75</ele><time>2026-04-04T14:37:30.75Z</time></trkpt><trkpt lat="42.849485" lon="13.5308417"><ele>181.0</ele><time>2026-04-04T14:37:31.751Z</time></trkpt><trkpt lat="42.8495483" lon="13.5310167"><ele>181.0</ele><time>2026-04-04T14:37:32.751Z</time></trkpt><trkpt lat="42.84963" lon="13.531205"><ele>181.0</ele><time>2026-04-04T14:37:33.75Z</time></trkpt><trkpt lat="42.8496917" lon="13.53141"><ele>181.0</ele><time>2026-04-04T14:37:34.75Z</time></trkpt><trkpt lat="42.8497567" lon="13.531615"><ele>183.33333333333334</ele><time>2026-04-04T14:37:35.751Z</time></trkpt><trkpt lat="42.8498017" lon="13.5318267"><ele>185.66666666666666</ele><time>2026-04-04T14:37:36.75Z</time></trkpt><trkpt lat="42.84984" lon="13.5320417"><ele>188.0</ele><time>2026-04-04T14:37:37.751Z</time></trkpt><trkpt lat="42.8498633" lon="13.53227"><ele>188.33333333333331</ele><time>2026-04-04T14:37:38.751Z</time></trkpt><trkpt lat="42.8498867" lon="13.5324833"><ele>188.66666666666666</ele><time>2026-04-04T14:37:39.751Z</time></trkpt><trkpt lat="42.8499033" lon="13.5326967"><ele>189.0</ele><time>2026-04-04T14:37:40.75Z</time></trkpt><trkpt lat="42.8499167" lon="13.5329183"><ele>189.0</ele><time>2026-04-04T14:37:41.751Z</time></trkpt><trkpt lat="42.849925" lon="13.53314"><ele>189.0</ele><time>2026-04-04T14:37:42.75Z</time></trkpt><trkpt lat="42.8499267" lon="13.5333617"><ele>189.0</ele><time>2026-04-04T14:37:43.75Z</time></trkpt><trkpt lat="42.8499217" lon="13.5335817"><ele>187.0</ele><time>2026-04-04T14:37:44.75Z</time></trkpt><trkpt lat="42.8499233" lon="13.533805"><ele>185.0</ele><time>2026-04-04T14:37:45.75Z</time></trkpt><trkpt lat="42.8499233" lon="13.5340183"><ele>183.0</ele><time>2026-04-04T14:37:46.75Z</time></trkpt><trkpt lat="42.84992" lon="13.5342333"><ele>183.0</ele><time>2026-04-04T14:37:47.75Z</time></trkpt><trkpt lat="42.8499117" lon="13.534445"><ele>183.0</ele><time>2026-04-04T14:37:48.75Z</time></trkpt><trkpt lat="42.8498967" lon="13.5346567"><ele>183.0</ele><time>2026-04-04T14:37:49.751Z</time></trkpt><trkpt lat="42.8498733" lon="13.5348667"><ele>183.0</ele><time>2026-04-04T14:37:50.75Z</time></trkpt><trkpt lat="42.8498583" lon="13.5350817"><ele>183.0</ele><time>2026-04-04T14:37:51.751Z</time></trkpt><trkpt lat="42.849835" lon="13.5353017"><ele>183.0</ele><time>2026-04-04T14:37:52.751Z</time></trkpt><trkpt lat="42.849815" lon="13.53552"><ele>183.0</ele><time>2026-04-04T14:37:53.75Z</time></trkpt><trkpt lat="42.8497433" lon="13.5359833"><ele>183.0</ele><time>2026-04-04T14:37:55.75Z</time></trkpt><trkpt lat="42.849705" lon="13.536205"><ele>182.0</ele><time>2026-04-04T14:37:56.75Z</time></trkpt><trkpt lat="42.8496767" lon="13.5364283"><ele>181.0</ele><time>2026-04-04T14:37:57.75Z</time></trkpt><trkpt lat="42.84965" lon="13.5366517"><ele>180.0</ele><time>2026-04-04T14:37:58.75Z</time></trkpt><trkpt lat="42.8496183" lon="13.5368783"><ele>179.66666666666666</ele><time>2026-04-04T14:37:59.75Z</time></trkpt><trkpt lat="42.84959" lon="13.5371117"><ele>179.33333333333331</ele><time>2026-04-04T14:38:00.75Z</time></trkpt><trkpt lat="42.8495733" lon="13.53733"><ele>179.0</ele><time>2026-04-04T14:38:01.75Z</time></trkpt><trkpt lat="42.849545" lon="13.5375467"><ele>179.0</ele><time>2026-04-04T14:38:02.751Z</time></trkpt><trkpt lat="42.8495133" lon="13.5377567"><ele>179.0</ele><time>2026-04-04T14:38:03.751Z</time></trkpt><trkpt lat="42.8494833" lon="13.5379633"><ele>179.0</ele><time>2026-04-04T14:38:04.751Z</time></trkpt><trkpt lat="42.8494483" lon="13.5381633"><ele>179.0</ele><time>2026-04-04T14:38:05.75Z</time></trkpt><trkpt lat="42.8494183" lon="13.5383617"><ele>179.0</ele><time>2026-04-04T14:38:06.75Z</time></trkpt><trkpt lat="42.8493867" lon="13.5385667"><ele>179.0</ele><time>2026-04-04T14:38:07.75Z</time></trkpt><trkpt lat="42.8493617" lon="13.5387733"><ele>179.66666666666666</ele><time>2026-04-04T14:38:08.75Z</time></trkpt><trkpt lat="42.849345" lon="13.53898"><ele>180.33333333333334</ele><time>2026-04-04T14:38:09.75Z</time></trkpt><trkpt lat="42.8493317" lon="13.5391917"><ele>181.0</ele><time>2026-04-04T14:38:10.75Z</time></trkpt><trkpt lat="42.849325" lon="13.539405"><ele>181.0</ele><time>2026-04-04T14:38:11.75Z</time></trkpt><trkpt lat="42.8493283" lon="13.539625"><ele>181.0</ele><time>2026-04-04T14:38:12.75Z</time></trkpt><trkpt lat="42.8493117" lon="13.53983"><ele>181.0</ele><time>2026-04-04T14:38:13.751Z</time></trkpt><trkpt lat="42.8493183" lon="13.5400367"><ele>181.0</ele><time>2026-04-04T14:38:14.75Z</time></trkpt><trkpt lat="42.849335" lon="13.5402383"><ele>181.0</ele><time>2026-04-04T14:38:15.75Z</time></trkpt><trkpt lat="42.8493617" lon="13.54044"><ele>181.0</ele><time>2026-04-04T14:38:16.751Z</time></trkpt><trkpt lat="42.8493683" lon="13.54064"><ele>181.0</ele><time>2026-04-04T14:38:17.751Z</time></trkpt><trkpt lat="42.8493633" lon="13.5408467"><ele>181.33333333333334</ele><time>2026-04-04T14:38:18.75Z</time></trkpt><trkpt lat="42.8493317" lon="13.5410433"><ele>181.66666666666666</ele><time>2026-04-04T14:38:19.751Z</time></trkpt><trkpt lat="42.8492933" lon="13.541245"><ele>182.0</ele><time>2026-04-04T14:38:20.75Z</time></trkpt><trkpt lat="42.849235" lon="13.5414383"><ele>182.0</ele><time>2026-04-04T14:38:21.75Z</time></trkpt><trkpt lat="42.8491633" lon="13.541615"><ele>182.0</ele><time>2026-04-04T14:38:22.751Z</time></trkpt><trkpt lat="42.8490883" lon="13.5418"><ele>182.0</ele><time>2026-04-04T14:38:23.75Z</time></trkpt><trkpt lat="42.8490167" lon="13.54198"><ele>181.0</ele><time>2026-04-04T14:38:24.75Z</time></trkpt><trkpt lat="42.8489567" lon="13.5421683"><ele>180.0</ele><time>2026-04-04T14:38:25.751Z</time></trkpt><trkpt lat="42.848915" lon="13.5423533"><ele>179.0</ele><time>2026-04-04T14:38:26.751Z</time></trkpt><trkpt lat="42.8488917" lon="13.5425517"><ele>178.0</ele><time>2026-04-04T14:38:27.751Z</time></trkpt><trkpt lat="42.8488783" lon="13.542755"><ele>175.66666666666669</ele><time>2026-04-04T14:38:28.75Z</time></trkpt><trkpt lat="42.8488833" lon="13.5429567"><ele>173.33333333333334</ele><time>2026-04-04T14:38:29.75Z</time></trkpt><trkpt lat="42.8489017" lon="13.5431717"><ele>171.0</ele><time>2026-04-04T14:38:30.751Z</time></trkpt><trkpt lat="42.8489267" lon="13.54338"><ele>171.0</ele><time>2026-04-04T14:38:31.751Z</time></trkpt><trkpt lat="42.84897" lon="13.5435817"><ele>171.0</ele><time>2026-04-04T14:38:32.75Z</time></trkpt><trkpt lat="42.849015" lon="13.5437817"><ele>171.0</ele><time>2026-04-04T14:38:33.75Z</time></trkpt><trkpt lat="42.8490717" lon="13.54399"><ele>171.75</ele><time>2026-04-04T14:38:34.751Z</time></trkpt><trkpt lat="42.8491267" lon="13.544185"><ele>172.5</ele><time>2026-04-04T14:38:35.75Z</time></trkpt><trkpt lat="42.8491833" lon="13.5443767"><ele>173.25</ele><time>2026-04-04T14:38:36.75Z</time></trkpt><trkpt lat="42.849235" lon="13.5445567"><ele>174.0</ele><time>2026-04-04T14:38:37.751Z</time></trkpt><trkpt lat="42.849285" lon="13.544745"><ele>167.66666666666666</ele><time>2026-04-04T14:38:38.751Z</time></trkpt><trkpt lat="42.8493417" lon="13.5449317"><ele>161.33333333333331</ele><time>2026-04-04T14:38:39.751Z</time></trkpt><trkpt lat="42.8494067" lon="13.545115"><ele>155.0</ele><time>2026-04-04T14:38:40.75Z</time></trkpt><trkpt lat="42.8494783" lon="13.5452983"><ele>156.25</ele><time>2026-04-04T14:38:41.75Z</time></trkpt><trkpt lat="42.84954" lon="13.5454767"><ele>157.5</ele><time>2026-04-04T14:38:42.75Z</time></trkpt><trkpt lat="42.8495917" lon="13.5456667"><ele>158.75</ele><time>2026-04-04T14:38:43.75Z</time></trkpt><trkpt lat="42.8496533" lon="13.5458567"><ele>160.0</ele><time>2026-04-04T14:38:44.75Z</time></trkpt><trkpt lat="42.849685" lon="13.5460567"><ele>159.25</ele><time>2026-04-04T14:38:45.75Z</time></trkpt><trkpt lat="42.8497" lon="13.5462583"><ele>158.5</ele><time>2026-04-04T14:38:46.751Z</time></trkpt><trkpt lat="42.8497117" lon="13.5464567"><ele>157.75</ele><time>2026-04-04T14:38:47.751Z</time></trkpt><trkpt lat="42.8497217" lon="13.5466533"><ele>157.0</ele><time>2026-04-04T14:38:48.75Z</time></trkpt><trkpt lat="42.8497367" lon="13.546855"><ele>158.0</ele><time>2026-04-04T14:38:49.75Z</time></trkpt><trkpt lat="42.8497533" lon="13.5470617"><ele>159.0</ele><time>2026-04-04T14:38:50.75Z</time></trkpt><trkpt lat="42.849775" lon="13.54727"><ele>160.0</ele><time>2026-04-04T14:38:51.75Z</time></trkpt><trkpt lat="42.84979" lon="13.5474733"><ele>160.0</ele><time>2026-04-04T14:38:52.75Z</time></trkpt><trkpt lat="42.84981" lon="13.54767"><ele>160.0</ele><time>2026-04-04T14:38:53.751Z</time></trkpt><trkpt lat="42.8498183" lon="13.54787"><ele>160.0</ele><time>2026-04-04T14:38:54.75Z</time></trkpt><trkpt lat="42.84983" lon="13.54804"><ele>160.0</ele><time>2026-04-04T14:38:55.75Z</time></trkpt><trkpt lat="42.84985" lon="13.5481917"><ele>161.25</ele><time>2026-04-04T14:38:56.751Z</time></trkpt><trkpt lat="42.8498883" lon="13.5483633"><ele>162.5</ele><time>2026-04-04T14:38:57.751Z</time></trkpt><trkpt lat="42.8499717" lon="13.548515"><ele>163.75</ele><time>2026-04-04T14:38:58.75Z</time></trkpt><trkpt lat="42.85008" lon="13.5486517"><ele>165.0</ele><time>2026-04-04T14:38:59.75Z</time></trkpt><trkpt lat="42.8501983" lon="13.5487667"><ele>165.0</ele><time>2026-04-04T14:39:00.751Z</time></trkpt><trkpt lat="42.850325" lon="13.54887"><ele>165.0</ele><time>2026-04-04T14:39:01.751Z</time></trkpt><trkpt lat="42.8504433" lon="13.5489667"><ele>165.0</ele><time>2026-04-04T14:39:02.75Z</time></trkpt><trkpt lat="42.850555" lon="13.54908"><ele>165.0</ele><time>2026-04-04T14:39:03.751Z</time></trkpt><trkpt lat="42.850645" lon="13.5492117"><ele>165.0</ele><time>2026-04-04T14:39:04.75Z</time></trkpt><trkpt lat="42.8507267" lon="13.5493583"><ele>165.0</ele><time>2026-04-04T14:39:05.75Z</time></trkpt><trkpt lat="42.8507917" lon="13.549525"><ele>165.0</ele><time>2026-04-04T14:39:06.75Z</time></trkpt><trkpt lat="42.8508233" lon="13.5497183"><ele>165.0</ele><time>2026-04-04T14:39:07.751Z</time></trkpt><trkpt lat="42.8508533" lon="13.54992"><ele>165.0</ele><time>2026-04-04T14:39:08.75Z</time></trkpt><trkpt lat="42.8508867" lon="13.5501167"><ele>165.0</ele><time>2026-04-04T14:39:09.751Z</time></trkpt><trkpt lat="42.85093" lon="13.55032"><ele>165.0</ele><time>2026-04-04T14:39:10.75Z</time></trkpt><trkpt lat="42.8509733" lon="13.55052"><ele>165.0</ele><time>2026-04-04T14:39:11.751Z</time></trkpt><trkpt lat="42.8510083" lon="13.5507083"><ele>165.0</ele><time>2026-04-04T14:39:12.75Z</time></trkpt><trkpt lat="42.8510383" lon="13.5509017"><ele>165.0</ele><time>2026-04-04T14:39:13.751Z</time></trkpt><trkpt lat="42.8510817" lon="13.5510867"><ele>165.0</ele><time>2026-04-04T14:39:14.751Z</time></trkpt><trkpt lat="42.8511217" lon="13.5512783"><ele>165.25</ele><time>2026-04-04T14:39:15.75Z</time></trkpt><trkpt lat="42.85116" lon="13.55147"><ele>165.5</ele><time>2026-04-04T14:39:16.75Z</time></trkpt><trkpt lat="42.8511967" lon="13.55167"><ele>165.75</ele><time>2026-04-04T14:39:17.75Z</time></trkpt><trkpt lat="42.851255" lon="13.551855"><ele>166.0</ele><time>2026-04-04T14:39:18.751Z</time></trkpt><trkpt lat="42.8513367" lon="13.5520333"><ele>168.25</ele><time>2026-04-04T14:39:19.751Z</time></trkpt><trkpt lat="42.85143" lon="13.5521717"><ele>170.5</ele><time>2026-04-04T14:39:20.75Z</time></trkpt><trkpt lat="42.8515317" lon="13.5522917"><ele>172.75</ele><time>2026-04-04T14:39:21.751Z</time></trkpt><trkpt lat="42.8516383" lon="13.5524183"><ele>175.0</ele><time>2026-04-04T14:39:22.75Z</time></trkpt><trkpt lat="42.8517283" lon="13.5525617"><ele>175.0</ele><time>2026-04-04T14:39:23.751Z</time></trkpt><trkpt lat="42.8517817" lon="13.5527283"><ele>175.0</ele><time>2026-04-04T14:39:24.75Z</time></trkpt><trkpt lat="42.8517983" lon="13.5529167"><ele>175.0</ele><time>2026-04-04T14:39:25.75Z</time></trkpt><trkpt lat="42.851795" lon="13.5531"><ele>175.0</ele><time>2026-04-04T14:39:26.751Z</time></trkpt><trkpt lat="42.851795" lon="13.5532983"><ele>171.33333333333334</ele><time>2026-04-04T14:39:27.75Z</time></trkpt><trkpt lat="42.8518033" lon="13.5535017"><ele>167.66666666666666</ele><time>2026-04-04T14:39:28.75Z</time></trkpt><trkpt lat="42.8518267" lon="13.5536967"><ele>164.0</ele><time>2026-04-04T14:39:29.751Z</time></trkpt><trkpt lat="42.85187" lon="13.5539017"><ele>164.0</ele><time>2026-04-04T14:39:30.75Z</time></trkpt><trkpt lat="42.8519233" lon="13.5540967"><ele>164.0</ele><time>2026-04-04T14:39:31.75Z</time></trkpt><trkpt lat="42.8519967" lon="13.5542717"><ele>164.0</ele><time>2026-04-04T14:39:32.75Z</time></trkpt><trkpt lat="42.85207" lon="13.5544383"><ele>164.0</ele><time>2026-04-04T14:39:33.751Z</time></trkpt><trkpt lat="42.8521567" lon="13.5545967"><ele>165.75</ele><time>2026-04-04T14:39:34.75Z</time></trkpt><trkpt lat="42.8522283" lon="13.55477"><ele>167.5</ele><time>2026-04-04T14:39:35.75Z</time></trkpt><trkpt lat="42.8523083" lon="13.5549367"><ele>169.25</ele><time>2026-04-04T14:39:36.75Z</time></trkpt><trkpt lat="42.85239" lon="13.5551"><ele>171.0</ele><time>2026-04-04T14:39:37.75Z</time></trkpt><trkpt lat="42.85247" lon="13.55526"><ele>173.0</ele><time>2026-04-04T14:39:38.751Z</time></trkpt><trkpt lat="42.8525533" lon="13.555425"><ele>175.0</ele><time>2026-04-04T14:39:39.75Z</time></trkpt><trkpt lat="42.8526267" lon="13.5555933"><ele>177.0</ele><time>2026-04-04T14:39:40.75Z</time></trkpt><trkpt lat="42.8526983" lon="13.5557633"><ele>179.0</ele><time>2026-04-04T14:39:41.75Z</time></trkpt><trkpt lat="42.85278" lon="13.5559233"><ele>176.25</ele><time>2026-04-04T14:39:42.751Z</time></trkpt><trkpt lat="42.85285" lon="13.5560933"><ele>173.5</ele><time>2026-04-04T14:39:43.75Z</time></trkpt><trkpt lat="42.8529283" lon="13.5562617"><ele>170.75</ele><time>2026-04-04T14:39:44.75Z</time></trkpt><trkpt lat="42.8530117" lon="13.5564283"><ele>168.0</ele><time>2026-04-04T14:39:45.751Z</time></trkpt><trkpt lat="42.8530883" lon="13.5565867"><ele>168.0</ele><time>2026-04-04T14:39:46.751Z</time></trkpt><trkpt lat="42.8531633" lon="13.55676"><ele>168.0</ele><time>2026-04-04T14:39:47.751Z</time></trkpt><trkpt lat="42.8532333" lon="13.5569267"><ele>168.0</ele><time>2026-04-04T14:39:48.75Z</time></trkpt><trkpt lat="42.8533067" lon="13.5571017"><ele>168.0</ele><time>2026-04-04T14:39:49.751Z</time></trkpt><trkpt lat="42.85337" lon="13.5572817"><ele>169.5</ele><time>2026-04-04T14:39:50.75Z</time></trkpt><trkpt lat="42.8534167" lon="13.557465"><ele>171.0</ele><time>2026-04-04T14:39:51.75Z</time></trkpt><trkpt lat="42.8534433" lon="13.5576433"><ele>172.5</ele><time>2026-04-04T14:39:52.75Z</time></trkpt><trkpt lat="42.8534683" lon="13.55783"><ele>174.0</ele><time>2026-04-04T14:39:53.751Z</time></trkpt><trkpt lat="42.8534917" lon="13.558025"><ele>169.75</ele><time>2026-04-04T14:39:54.75Z</time></trkpt><trkpt lat="42.8535167" lon="13.55822"><ele>165.5</ele><time>2026-04-04T14:39:55.751Z</time></trkpt><trkpt lat="42.85355" lon="13.5584117"><ele>161.25</ele><time>2026-04-04T14:39:56.75Z</time></trkpt><trkpt lat="42.8535717" lon="13.5586"><ele>157.0</ele><time>2026-04-04T14:39:57.751Z</time></trkpt><trkpt lat="42.853595" lon="13.5587783"><ele>157.0</ele><time>2026-04-04T14:39:58.751Z</time></trkpt><trkpt lat="42.8536317" lon="13.558965"><ele>157.0</ele><time>2026-04-04T14:39:59.751Z</time></trkpt><trkpt lat="42.8536667" lon="13.5591417"><ele>157.0</ele><time>2026-04-04T14:40:00.751Z</time></trkpt><trkpt lat="42.8537167" lon="13.5593217"><ele>157.0</ele><time>2026-04-04T14:40:01.75Z</time></trkpt><trkpt lat="42.8537867" lon="13.559495"><ele>158.0</ele><time>2026-04-04T14:40:02.75Z</time></trkpt><trkpt lat="42.853865" lon="13.55966"><ele>159.0</ele><time>2026-04-04T14:40:03.751Z</time></trkpt><trkpt lat="42.853955" lon="13.5598067"><ele>160.0</ele><time>2026-04-04T14:40:04.75Z</time></trkpt><trkpt lat="42.854045" lon="13.5599417"><ele>161.0</ele><time>2026-04-04T14:40:05.751Z</time></trkpt><trkpt lat="42.85415" lon="13.5600583"><ele>161.0</ele><time>2026-04-04T14:40:06.751Z</time></trkpt><trkpt lat="42.8542467" lon="13.5601867"><ele>161.0</ele><time>2026-04-04T14:40:07.75Z</time></trkpt><trkpt lat="42.8543683" lon="13.5602933"><ele>161.0</ele><time>2026-04-04T14:40:08.751Z</time></trkpt><trkpt lat="42.8544867" lon="13.5603967"><ele>161.0</ele><time>2026-04-04T14:40:09.75Z</time></trkpt><trkpt lat="42.8546067" lon="13.5604817"><ele>159.5</ele><time>2026-04-04T14:40:10.75Z</time></trkpt><trkpt lat="42.8547483" lon="13.56056"><ele>158.0</ele><time>2026-04-04T14:40:11.75Z</time></trkpt><trkpt lat="42.85488" lon="13.5606217"><ele>156.5</ele><time>2026-04-04T14:40:12.75Z</time></trkpt><trkpt lat="42.85502" lon="13.560675"><ele>155.0</ele><time>2026-04-04T14:40:13.75Z</time></trkpt><trkpt lat="42.8551617" lon="13.5607333"><ele>152.5</ele><time>2026-04-04T14:40:14.75Z</time></trkpt><trkpt lat="42.8553017" lon="13.5608067"><ele>150.0</ele><time>2026-04-04T14:40:15.751Z</time></trkpt><trkpt lat="42.8554367" lon="13.560865"><ele>147.5</ele><time>2026-04-04T14:40:16.75Z</time></trkpt><trkpt lat="42.8555633" lon="13.5609233"><ele>145.0</ele><time>2026-04-04T14:40:17.751Z</time></trkpt><trkpt lat="42.855695" lon="13.56098"><ele>145.0</ele><time>2026-04-04T14:40:18.751Z</time></trkpt><trkpt lat="42.8558267" lon="13.56105"><ele>145.0</ele><time>2026-04-04T14:40:19.751Z</time></trkpt><trkpt lat="42.8559567" lon="13.5611083"><ele>145.0</ele><time>2026-04-04T14:40:20.751Z</time></trkpt><trkpt lat="42.8560883" lon="13.5611767"><ele>145.0</ele><time>2026-04-04T14:40:21.75Z</time></trkpt><trkpt lat="42.8562217" lon="13.5612383"><ele>147.0</ele><time>2026-04-04T14:40:22.75Z</time></trkpt><trkpt lat="42.8563633" lon="13.5613033"><ele>149.0</ele><time>2026-04-04T14:40:23.749Z</time></trkpt><trkpt lat="42.8565067" lon="13.5613667"><ele>151.0</ele><time>2026-04-04T14:40:24.749Z</time></trkpt><trkpt lat="42.8566367" lon="13.5614267"><ele>153.0</ele><time>2026-04-04T14:40:25.749Z</time></trkpt><trkpt lat="42.8567733" lon="13.5614917"><ele>154.25</ele><time>2026-04-04T14:40:26.75Z</time></trkpt><trkpt lat="42.856915" lon="13.5615583"><ele>155.5</ele><time>2026-04-04T14:40:27.749Z</time></trkpt><trkpt lat="42.8570433" lon="13.5616217"><ele>156.75</ele><time>2026-04-04T14:40:28.75Z</time></trkpt><trkpt lat="42.8571833" lon="13.5616817"><ele>158.0</ele><time>2026-04-04T14:40:29.749Z</time></trkpt><trkpt lat="42.8573217" lon="13.5617383"><ele>158.0</ele><time>2026-04-04T14:40:30.749Z</time></trkpt><trkpt lat="42.8574533" lon="13.561805"><ele>158.0</ele><time>2026-04-04T14:40:31.749Z</time></trkpt><trkpt lat="42.8575917" lon="13.56187"><ele>158.0</ele><time>2026-04-04T14:40:32.749Z</time></trkpt><trkpt lat="42.8577233" lon="13.5619433"><ele>158.0</ele><time>2026-04-04T14:40:33.75Z</time></trkpt><trkpt lat="42.85786" lon="13.5620033"><ele>158.66666666666666</ele><time>2026-04-04T14:40:34.75Z</time></trkpt><trkpt lat="42.858005" lon="13.5620783"><ele>159.33333333333334</ele><time>2026-04-04T14:40:35.749Z</time></trkpt><trkpt lat="42.8581417" lon="13.5621533"><ele>160.0</ele><time>2026-04-04T14:40:36.75Z</time></trkpt><trkpt lat="42.858275" lon="13.5622383"><ele>160.0</ele><time>2026-04-04T14:40:37.749Z</time></trkpt><trkpt lat="42.8583967" lon="13.5623283"><ele>160.0</ele><time>2026-04-04T14:40:38.749Z</time></trkpt><trkpt lat="42.8585" lon="13.5624067"><ele>160.0</ele><time>2026-04-04T14:40:39.749Z</time></trkpt><trkpt lat="42.8585967" lon="13.5624883"><ele>160.0</ele><time>2026-04-04T14:40:40.749Z</time></trkpt><trkpt lat="42.8586783" lon="13.562565"><ele>161.0</ele><time>2026-04-04T14:40:41.749Z</time></trkpt><trkpt lat="42.858755" lon="13.5626317"><ele>162.0</ele><time>2026-04-04T14:40:42.75Z</time></trkpt><trkpt lat="42.8588133" lon="13.5626933"><ele>163.0</ele><time>2026-04-04T14:40:43.749Z</time></trkpt><trkpt lat="42.8588733" lon="13.56276"><ele>164.0</ele><time>2026-04-04T14:40:44.75Z</time></trkpt><trkpt lat="42.85897" lon="13.5628583"><ele>165.0</ele><time>2026-04-04T14:40:46.749Z</time></trkpt><trkpt lat="42.8590633" lon="13.5629733"><ele>165.0</ele><time>2026-04-04T14:40:48.749Z</time></trkpt><trkpt lat="42.8591117" lon="13.56303"><ele>165.0</ele><time>2026-04-04T14:40:49.75Z</time></trkpt><trkpt lat="42.8592033" lon="13.5631433"><ele>165.0</ele><time>2026-04-04T14:40:51.749Z</time></trkpt><trkpt lat="42.8592567" lon="13.5632083"><ele>165.0</ele><time>2026-04-04T14:40:52.749Z</time></trkpt><trkpt lat="42.85932" lon="13.5632867"><ele>165.0</ele><time>2026-04-04T14:40:53.75Z</time></trkpt><trkpt lat="42.8593867" lon="13.5633833"><ele>165.0</ele><time>2026-04-04T14:40:54.749Z</time></trkpt><trkpt lat="42.85946" lon="13.5634833"><ele>165.4</ele><time>2026-04-04T14:40:55.749Z</time></trkpt><trkpt lat="42.859535" lon="13.5635917"><ele>165.8</ele><time>2026-04-04T14:40:56.75Z</time></trkpt><trkpt lat="42.8596033" lon="13.5636983"><ele>166.2</ele><time>2026-04-04T14:40:57.749Z</time></trkpt><trkpt lat="42.8596767" lon="13.5638083"><ele>166.6</ele><time>2026-04-04T14:40:58.749Z</time></trkpt><trkpt lat="42.8597517" lon="13.5639267"><ele>167.0</ele><time>2026-04-04T14:40:59.75Z</time></trkpt><trkpt lat="42.85983" lon="13.5640467"><ele>167.0</ele><time>2026-04-04T14:41:00.75Z</time></trkpt><trkpt lat="42.8599217" lon="13.5641717"><ele>167.0</ele><time>2026-04-04T14:41:01.749Z</time></trkpt><trkpt lat="42.8600083" lon="13.564305"><ele>167.0</ele><time>2026-04-04T14:41:02.749Z</time></trkpt><trkpt lat="42.8600867" lon="13.56444"><ele>167.0</ele><time>2026-04-04T14:41:03.75Z</time></trkpt><trkpt lat="42.860165" lon="13.56457"><ele>167.0</ele><time>2026-04-04T14:41:04.749Z</time></trkpt><trkpt lat="42.8602383" lon="13.5646833"><ele>167.0</ele><time>2026-04-04T14:41:05.75Z</time></trkpt><trkpt lat="42.860315" lon="13.56481"><ele>167.0</ele><time>2026-04-04T14:41:06.749Z</time></trkpt><trkpt lat="42.8603983" lon="13.5649383"><ele>167.0</ele><time>2026-04-04T14:41:07.749Z</time></trkpt><trkpt lat="42.8604767" lon="13.5650683"><ele>167.0</ele><time>2026-04-04T14:41:08.749Z</time></trkpt><trkpt lat="42.860565" lon="13.5652"><ele>167.0</ele><time>2026-04-04T14:41:09.75Z</time></trkpt><trkpt lat="42.8606467" lon="13.5653283"><ele>167.0</ele><time>2026-04-04T14:41:10.75Z</time></trkpt><trkpt lat="42.8607317" lon="13.5654717"><ele>167.0</ele><time>2026-04-04T14:41:11.749Z</time></trkpt><trkpt lat="42.8608133" lon="13.5656017"><ele>167.0</ele><time>2026-04-04T14:41:12.75Z</time></trkpt><trkpt lat="42.860905" lon="13.5657317"><ele>167.0</ele><time>2026-04-04T14:41:13.75Z</time></trkpt><trkpt lat="42.8609883" lon="13.5658683"><ele>167.0</ele><time>2026-04-04T14:41:14.749Z</time></trkpt><trkpt lat="42.861075" lon="13.566015"><ele>167.0</ele><time>2026-04-04T14:41:15.749Z</time></trkpt><trkpt lat="42.8611617" lon="13.56615"><ele>171.25</ele><time>2026-04-04T14:41:16.75Z</time></trkpt><trkpt lat="42.861235" lon="13.5663033"><ele>175.5</ele><time>2026-04-04T14:41:17.75Z</time></trkpt><trkpt lat="42.8612883" lon="13.5664683"><ele>179.75</ele><time>2026-04-04T14:41:18.749Z</time></trkpt><trkpt lat="42.861335" lon="13.5666417"><ele>184.0</ele><time>2026-04-04T14:41:19.75Z</time></trkpt><trkpt lat="42.8613583" lon="13.56683"><ele>184.0</ele><time>2026-04-04T14:41:20.75Z</time></trkpt><trkpt lat="42.8613817" lon="13.5670117"><ele>184.0</ele><time>2026-04-04T14:41:21.749Z</time></trkpt><trkpt lat="42.8613817" lon="13.56719"><ele>184.0</ele><time>2026-04-04T14:41:22.749Z</time></trkpt><trkpt lat="42.86138" lon="13.5673667"><ele>184.0</ele><time>2026-04-04T14:41:23.75Z</time></trkpt><trkpt lat="42.8613767" lon="13.5675317"><ele>181.25</ele><time>2026-04-04T14:41:24.749Z</time></trkpt><trkpt lat="42.86136" lon="13.5677033"><ele>178.5</ele><time>2026-04-04T14:41:25.749Z</time></trkpt><trkpt lat="42.86133" lon="13.5678833"><ele>175.75</ele><time>2026-04-04T14:41:26.749Z</time></trkpt><trkpt lat="42.8613033" lon="13.5680717"><ele>173.0</ele><time>2026-04-04T14:41:27.75Z</time></trkpt><trkpt lat="42.8612767" lon="13.56828"><ele>171.33333333333331</ele><time>2026-04-04T14:41:28.749Z</time></trkpt><trkpt lat="42.86125" lon="13.5684867"><ele>169.66666666666666</ele><time>2026-04-04T14:41:29.749Z</time></trkpt><trkpt lat="42.8612283" lon="13.5686883"><ele>168.0</ele><time>2026-04-04T14:41:30.749Z</time></trkpt><trkpt lat="42.8612067" lon="13.5688917"><ele>171.33333333333334</ele><time>2026-04-04T14:41:31.749Z</time></trkpt><trkpt lat="42.8611817" lon="13.5691017"><ele>174.66666666666669</ele><time>2026-04-04T14:41:32.749Z</time></trkpt><trkpt lat="42.8611717" lon="13.56932"><ele>178.0</ele><time>2026-04-04T14:41:33.749Z</time></trkpt><trkpt lat="42.861155" lon="13.5695417"><ele>181.33333333333334</ele><time>2026-04-04T14:41:34.749Z</time></trkpt><trkpt lat="42.8611467" lon="13.5697533"><ele>184.66666666666666</ele><time>2026-04-04T14:41:35.75Z</time></trkpt><trkpt lat="42.86113" lon="13.5699567"><ele>188.0</ele><time>2026-04-04T14:41:36.75Z</time></trkpt><trkpt lat="42.8611133" lon="13.570175"><ele>187.66666666666666</ele><time>2026-04-04T14:41:37.75Z</time></trkpt><trkpt lat="42.861095" lon="13.5704"><ele>187.33333333333334</ele><time>2026-04-04T14:41:38.75Z</time></trkpt><trkpt lat="42.861085" lon="13.57062"><ele>187.0</ele><time>2026-04-04T14:41:39.749Z</time></trkpt><trkpt lat="42.8610817" lon="13.5708433"><ele>187.0</ele><time>2026-04-04T14:41:40.749Z</time></trkpt><trkpt lat="42.8610833" lon="13.57106"><ele>187.0</ele><time>2026-04-04T14:41:41.75Z</time></trkpt><trkpt lat="42.861085" lon="13.5712667"><ele>187.0</ele><time>2026-04-04T14:41:42.749Z</time></trkpt><trkpt lat="42.8610917" lon="13.57148"><ele>186.0</ele><time>2026-04-04T14:41:43.749Z</time></trkpt><trkpt lat="42.8610867" lon="13.5716967"><ele>185.0</ele><time>2026-04-04T14:41:44.749Z</time></trkpt><trkpt lat="42.86109" lon="13.57191"><ele>184.0</ele><time>2026-04-04T14:41:45.749Z</time></trkpt><trkpt lat="42.8610883" lon="13.5721333"><ele>179.66666666666669</ele><time>2026-04-04T14:41:46.749Z</time></trkpt><trkpt lat="42.86109" lon="13.5723533"><ele>175.33333333333334</ele><time>2026-04-04T14:41:47.749Z</time></trkpt><trkpt lat="42.8610967" lon="13.5725733"><ele>171.0</ele><time>2026-04-04T14:41:48.75Z</time></trkpt><trkpt lat="42.86111" lon="13.5727833"><ele>168.0</ele><time>2026-04-04T14:41:49.75Z</time></trkpt><trkpt lat="42.86111" lon="13.5730033"><ele>165.0</ele><time>2026-04-04T14:41:50.75Z</time></trkpt><trkpt lat="42.86112" lon="13.57322"><ele>162.0</ele><time>2026-04-04T14:41:51.749Z</time></trkpt><trkpt lat="42.86114" lon="13.57341"><ele>162.0</ele><time>2026-04-04T14:41:52.75Z</time></trkpt><trkpt lat="42.8611583" lon="13.5736"><ele>162.0</ele><time>2026-04-04T14:41:53.749Z</time></trkpt><trkpt lat="42.8611683" lon="13.5737983"><ele>162.0</ele><time>2026-04-04T14:41:54.75Z</time></trkpt><trkpt lat="42.8611783" lon="13.5740033"><ele>162.0</ele><time>2026-04-04T14:41:55.749Z</time></trkpt><trkpt lat="42.8611833" lon="13.5742"><ele>163.75</ele><time>2026-04-04T14:41:56.749Z</time></trkpt><trkpt lat="42.861185" lon="13.574405"><ele>165.5</ele><time>2026-04-04T14:41:57.749Z</time></trkpt><trkpt lat="42.8611833" lon="13.5746117"><ele>167.25</ele><time>2026-04-04T14:41:58.749Z</time></trkpt><trkpt lat="42.86118" lon="13.5748083"><ele>169.0</ele><time>2026-04-04T14:41:59.749Z</time></trkpt><trkpt lat="42.8611667" lon="13.5750167"><ele>169.5</ele><time>2026-04-04T14:42:00.749Z</time></trkpt><trkpt lat="42.8611517" lon="13.5752067"><ele>170.0</ele><time>2026-04-04T14:42:01.75Z</time></trkpt><trkpt lat="42.861145" lon="13.575395"><ele>170.5</ele><time>2026-04-04T14:42:02.75Z</time></trkpt><trkpt lat="42.8611233" lon="13.5755867"><ele>171.0</ele><time>2026-04-04T14:42:03.749Z</time></trkpt><trkpt lat="42.861105" lon="13.5757717"><ele>169.5</ele><time>2026-04-04T14:42:04.75Z</time></trkpt><trkpt lat="42.8610833" lon="13.5759567"><ele>168.0</ele><time>2026-04-04T14:42:05.749Z</time></trkpt><trkpt lat="42.861065" lon="13.57613"><ele>166.5</ele><time>2026-04-04T14:42:06.749Z</time></trkpt><trkpt lat="42.8610533" lon="13.5762917"><ele>165.0</ele><time>2026-04-04T14:42:07.749Z</time></trkpt><trkpt lat="42.8610467" lon="13.57645"><ele>164.6</ele><time>2026-04-04T14:42:08.749Z</time></trkpt><trkpt lat="42.8610283" lon="13.5766083"><ele>164.2</ele><time>2026-04-04T14:42:09.749Z</time></trkpt><trkpt lat="42.8610183" lon="13.5767567"><ele>163.8</ele><time>2026-04-04T14:42:10.75Z</time></trkpt><trkpt lat="42.86101" lon="13.5768933"><ele>163.4</ele><time>2026-04-04T14:42:11.749Z</time></trkpt><trkpt lat="42.8610067" lon="13.57702"><ele>163.0</ele><time>2026-04-04T14:42:12.75Z</time></trkpt><trkpt lat="42.8610067" lon="13.5771367"><ele>164.66666666666669</ele><time>2026-04-04T14:42:13.749Z</time></trkpt><trkpt lat="42.8609967" lon="13.5772417"><ele>166.33333333333334</ele><time>2026-04-04T14:42:14.749Z</time></trkpt><trkpt lat="42.8609767" lon="13.577335"><ele>168.0</ele><time>2026-04-04T14:42:15.749Z</time></trkpt><trkpt lat="42.86095" lon="13.5774383"><ele>169.66666666666666</ele><time>2026-04-04T14:42:16.749Z</time></trkpt><trkpt lat="42.8609367" lon="13.5775633"><ele>171.33333333333331</ele><time>2026-04-04T14:42:17.75Z</time></trkpt><trkpt lat="42.8609383" lon="13.5777067"><ele>173.0</ele><time>2026-04-04T14:42:18.75Z</time></trkpt><trkpt lat="42.8609267" lon="13.577845"><ele>169.5</ele><time>2026-04-04T14:42:19.749Z</time></trkpt><trkpt lat="42.860925" lon="13.5779667"><ele>166.0</ele><time>2026-04-04T14:42:20.749Z</time></trkpt><trkpt lat="42.8609117" lon="13.578065"><ele>162.5</ele><time>2026-04-04T14:42:21.749Z</time></trkpt><trkpt lat="42.8608733" lon="13.5781933"><ele>159.0</ele><time>2026-04-04T14:42:23.75Z</time></trkpt><trkpt lat="42.8608767" lon="13.578345"><ele>155.5</ele><time>2026-04-04T14:43:09.75Z</time></trkpt><trkpt lat="42.8608817" lon="13.5784317"><ele>152.0</ele><time>2026-04-04T14:43:10.75Z</time></trkpt><trkpt lat="42.8608783" lon="13.57854"><ele>152.0</ele><time>2026-04-04T14:43:11.749Z</time></trkpt><trkpt lat="42.8608667" lon="13.578665"><ele>152.0</ele><time>2026-04-04T14:43:12.75Z</time></trkpt><trkpt lat="42.8608517" lon="13.5788017"><ele>152.0</ele><time>2026-04-04T14:43:13.749Z</time></trkpt><trkpt lat="42.86085" lon="13.578945"><ele>152.0</ele><time>2026-04-04T14:43:14.749Z</time></trkpt><trkpt lat="42.8608517" lon="13.5790917"><ele>152.0</ele><time>2026-04-04T14:43:15.749Z</time></trkpt><trkpt lat="42.860855" lon="13.5792367"><ele>152.5</ele><time>2026-04-04T14:43:16.75Z</time></trkpt><trkpt lat="42.8608567" lon="13.579395"><ele>153.0</ele><time>2026-04-04T14:43:17.749Z</time></trkpt><trkpt lat="42.86086" lon="13.579555"><ele>153.5</ele><time>2026-04-04T14:43:18.75Z</time></trkpt><trkpt lat="42.8608633" lon="13.5797267"><ele>154.0</ele><time>2026-04-04T14:43:19.749Z</time></trkpt><trkpt lat="42.8608767" lon="13.5798967"><ele>154.0</ele><time>2026-04-04T14:43:20.749Z</time></trkpt><trkpt lat="42.8608967" lon="13.5800783"><ele>154.0</ele><time>2026-04-04T14:43:21.749Z</time></trkpt><trkpt lat="42.8609133" lon="13.580255"><ele>154.0</ele><time>2026-04-04T14:43:22.75Z</time></trkpt><trkpt lat="42.860945" lon="13.5804367"><ele>154.0</ele><time>2026-04-04T14:43:23.75Z</time></trkpt><trkpt lat="42.8609717" lon="13.5806217"><ele>153.0</ele><time>2026-04-04T14:43:24.75Z</time></trkpt><trkpt lat="42.8609983" lon="13.580815"><ele>152.0</ele><time>2026-04-04T14:43:25.749Z</time></trkpt><trkpt lat="42.8610217" lon="13.58102"><ele>151.0</ele><time>2026-04-04T14:43:26.749Z</time></trkpt><trkpt lat="42.861045" lon="13.58123"><ele>148.66666666666669</ele><time>2026-04-04T14:43:27.75Z</time></trkpt><trkpt lat="42.861075" lon="13.5814367"><ele>146.33333333333334</ele><time>2026-04-04T14:43:28.75Z</time></trkpt><trkpt lat="42.8611083" lon="13.58164"><ele>144.0</ele><time>2026-04-04T14:43:29.749Z</time></trkpt><trkpt lat="42.86114" lon="13.5818433"><ele>142.5</ele><time>2026-04-04T14:43:30.749Z</time></trkpt><trkpt lat="42.8611633" lon="13.58204"><ele>141.0</ele><time>2026-04-04T14:43:31.75Z</time></trkpt><trkpt lat="42.8611917" lon="13.5822333"><ele>139.5</ele><time>2026-04-04T14:43:32.75Z</time></trkpt><trkpt lat="42.8612217" lon="13.58243"><ele>138.0</ele><time>2026-04-04T14:43:33.75Z</time></trkpt><trkpt lat="42.8612533" lon="13.5826333"><ele>138.0</ele><time>2026-04-04T14:43:34.75Z</time></trkpt><trkpt lat="42.86128" lon="13.58284"><ele>138.0</ele><time>2026-04-04T14:43:35.749Z</time></trkpt><trkpt lat="42.8613133" lon="13.5830417"><ele>138.0</ele><time>2026-04-04T14:43:36.749Z</time></trkpt><trkpt lat="42.86134" lon="13.5832317"><ele>138.0</ele><time>2026-04-04T14:43:37.749Z</time></trkpt><trkpt lat="42.8613717" lon="13.5834333"><ele>136.75</ele><time>2026-04-04T14:43:38.749Z</time></trkpt><trkpt lat="42.8613967" lon="13.5836267"><ele>135.5</ele><time>2026-04-04T14:43:39.749Z</time></trkpt><trkpt lat="42.8614233" lon="13.583815"><ele>134.25</ele><time>2026-04-04T14:43:40.75Z</time></trkpt><trkpt lat="42.8614533" lon="13.5840083"><ele>133.0</ele><time>2026-04-04T14:43:41.75Z</time></trkpt><trkpt lat="42.861475" lon="13.5841917"><ele>133.0</ele><time>2026-04-04T14:43:42.749Z</time></trkpt><trkpt lat="42.861505" lon="13.5843817"><ele>133.0</ele><time>2026-04-04T14:43:43.75Z</time></trkpt><trkpt lat="42.8615367" lon="13.5845733"><ele>133.0</ele><time>2026-04-04T14:43:44.749Z</time></trkpt><trkpt lat="42.8615617" lon="13.5847667"><ele>133.0</ele><time>2026-04-04T14:43:45.75Z</time></trkpt><trkpt lat="42.8615883" lon="13.58496"><ele>137.25</ele><time>2026-04-04T14:43:46.75Z</time></trkpt><trkpt lat="42.86161" lon="13.5851583"><ele>141.5</ele><time>2026-04-04T14:43:47.75Z</time></trkpt><trkpt lat="42.8616417" lon="13.5853517"><ele>145.75</ele><time>2026-04-04T14:43:48.75Z</time></trkpt><trkpt lat="42.8616633" lon="13.5855567"><ele>150.0</ele><time>2026-04-04T14:43:49.749Z</time></trkpt><trkpt lat="42.8616817" lon="13.58577"><ele>151.5</ele><time>2026-04-04T14:43:50.749Z</time></trkpt><trkpt lat="42.861695" lon="13.5859717"><ele>153.0</ele><time>2026-04-04T14:43:51.75Z</time></trkpt><trkpt lat="42.8617067" lon="13.58617"><ele>154.5</ele><time>2026-04-04T14:43:52.749Z</time></trkpt><trkpt lat="42.8617267" lon="13.5863733"><ele>156.0</ele><time>2026-04-04T14:43:53.75Z</time></trkpt><trkpt lat="42.861745" lon="13.5865783"><ele>156.33333333333334</ele><time>2026-04-04T14:43:54.749Z</time></trkpt><trkpt lat="42.8617617" lon="13.5867883"><ele>156.66666666666669</ele><time>2026-04-04T14:43:55.749Z</time></trkpt><trkpt lat="42.8617867" lon="13.5869983"><ele>157.0</ele><time>2026-04-04T14:43:56.75Z</time></trkpt><trkpt lat="42.8618017" lon="13.5872033"><ele>167.33333333333334</ele><time>2026-04-04T14:43:57.749Z</time></trkpt><trkpt lat="42.8618183" lon="13.5874017"><ele>177.66666666666666</ele><time>2026-04-04T14:43:58.749Z</time></trkpt><trkpt lat="42.8618433" lon="13.5876017"><ele>188.0</ele><time>2026-04-04T14:43:59.75Z</time></trkpt><trkpt lat="42.8618683" lon="13.587815"><ele>187.0</ele><time>2026-04-04T14:44:00.75Z</time></trkpt><trkpt lat="42.8618733" lon="13.588015"><ele>186.0</ele><time>2026-04-04T14:44:01.75Z</time></trkpt><trkpt lat="42.86189" lon="13.5882483"><ele>185.0</ele><time>2026-04-04T14:44:02.749Z</time></trkpt><trkpt lat="42.861905" lon="13.5884683"><ele>185.0</ele><time>2026-04-04T14:44:03.75Z</time></trkpt><trkpt lat="42.8619017" lon="13.5886717"><ele>185.0</ele><time>2026-04-04T14:44:04.749Z</time></trkpt><trkpt lat="42.86197" lon="13.5888433"><ele>185.0</ele><time>2026-04-04T14:44:05.75Z</time></trkpt><trkpt lat="42.862035" lon="13.5890283"><ele>185.0</ele><time>2026-04-04T14:44:06.75Z</time></trkpt><trkpt lat="42.8620833" lon="13.5892083"><ele>183.75</ele><time>2026-04-04T14:44:07.749Z</time></trkpt><trkpt lat="42.8621183" lon="13.5893783"><ele>182.5</ele><time>2026-04-04T14:44:08.75Z</time></trkpt><trkpt lat="42.8621583" lon="13.58957"><ele>181.25</ele><time>2026-04-04T14:44:09.75Z</time></trkpt><trkpt lat="42.862205" lon="13.589755"><ele>180.0</ele><time>2026-04-04T14:44:10.749Z</time></trkpt><trkpt lat="42.8622567" lon="13.5899467"><ele>179.0</ele><time>2026-04-04T14:44:11.749Z</time></trkpt><trkpt lat="42.862295" lon="13.5901417"><ele>178.0</ele><time>2026-04-04T14:44:12.749Z</time></trkpt><trkpt lat="42.8623433" lon="13.590325"><ele>177.0</ele><time>2026-04-04T14:44:13.749Z</time></trkpt><trkpt lat="42.8623933" lon="13.5905117"><ele>176.0</ele><time>2026-04-04T14:44:14.749Z</time></trkpt><trkpt lat="42.86243" lon="13.5907017"><ele>172.66666666666666</ele><time>2026-04-04T14:44:15.75Z</time></trkpt><trkpt lat="42.8624633" lon="13.5909133"><ele>169.33333333333334</ele><time>2026-04-04T14:44:16.75Z</time></trkpt><trkpt lat="42.86249" lon="13.5911183"><ele>166.0</ele><time>2026-04-04T14:44:17.749Z</time></trkpt><trkpt lat="42.86252" lon="13.5913117"><ele>163.5</ele><time>2026-04-04T14:44:18.749Z</time></trkpt><trkpt lat="42.8625517" lon="13.5914933"><ele>161.0</ele><time>2026-04-04T14:44:19.749Z</time></trkpt><trkpt lat="42.86258" lon="13.591665"><ele>158.5</ele><time>2026-04-04T14:44:20.749Z</time></trkpt><trkpt lat="42.8626083" lon="13.5918367"><ele>156.0</ele><time>2026-04-04T14:44:21.749Z</time></trkpt><trkpt lat="42.8626333" lon="13.5920083"><ele>164.5</ele><time>2026-04-04T14:44:22.75Z</time></trkpt><trkpt lat="42.8626433" lon="13.592195"><ele>173.0</ele><time>2026-04-04T14:44:23.749Z</time></trkpt><trkpt lat="42.8626533" lon="13.59239"><ele>181.5</ele><time>2026-04-04T14:44:24.749Z</time></trkpt><trkpt lat="42.862645" lon="13.5925917"><ele>190.0</ele><time>2026-04-04T14:44:25.749Z</time></trkpt><trkpt lat="42.8626217" lon="13.592785"><ele>180.75</ele><time>2026-04-04T14:44:26.75Z</time></trkpt><trkpt lat="42.8625933" lon="13.5929767"><ele>171.5</ele><time>2026-04-04T14:44:27.749Z</time></trkpt><trkpt lat="42.86257" lon="13.5931567"><ele>162.25</ele><time>2026-04-04T14:44:28.749Z</time></trkpt><trkpt lat="42.862525" lon="13.5933283"><ele>153.0</ele><time>2026-04-04T14:44:29.75Z</time></trkpt><trkpt lat="42.862475" lon="13.5934933"><ele>153.0</ele><time>2026-04-04T14:44:30.749Z</time></trkpt><trkpt lat="42.8624117" lon="13.5936583"><ele>153.0</ele><time>2026-04-04T14:44:31.749Z</time></trkpt><trkpt lat="42.8623467" lon="13.5938233"><ele>153.0</ele><time>2026-04-04T14:44:32.75Z</time></trkpt><trkpt lat="42.862265" lon="13.5939833"><ele>153.0</ele><time>2026-04-04T14:44:33.749Z</time></trkpt><trkpt lat="42.8621833" lon="13.5941467"><ele>155.5</ele><time>2026-04-04T14:44:34.749Z</time></trkpt><trkpt lat="42.86209" lon="13.5942883"><ele>158.0</ele><time>2026-04-04T14:44:35.749Z</time></trkpt><trkpt lat="42.8619983" lon="13.5944183"><ele>160.5</ele><time>2026-04-04T14:44:36.749Z</time></trkpt><trkpt lat="42.8619217" lon="13.5945317"><ele>163.0</ele><time>2026-04-04T14:44:37.749Z</time></trkpt><trkpt lat="42.8618383" lon="13.59462"><ele>161.4</ele><time>2026-04-04T14:44:38.749Z</time></trkpt><trkpt lat="42.8617617" lon="13.5947033"><ele>159.8</ele><time>2026-04-04T14:44:39.75Z</time></trkpt><trkpt lat="42.86169" lon="13.5947783"><ele>158.2</ele><time>2026-04-04T14:44:40.75Z</time></trkpt><trkpt lat="42.8616183" lon="13.5948517"><ele>156.6</ele><time>2026-04-04T14:44:41.749Z</time></trkpt><trkpt lat="42.8615517" lon="13.5949283"><ele>155.0</ele><time>2026-04-04T14:44:42.749Z</time></trkpt><trkpt lat="42.8614717" lon="13.595005"><ele>155.0</ele><time>2026-04-04T14:44:43.749Z</time></trkpt><trkpt lat="42.8613817" lon="13.59509"><ele>155.0</ele><time>2026-04-04T14:44:44.75Z</time></trkpt><trkpt lat="42.8612917" lon="13.595175"><ele>155.0</ele><time>2026-04-04T14:44:45.749Z</time></trkpt><trkpt lat="42.8612" lon="13.595265"><ele>155.0</ele><time>2026-04-04T14:44:46.749Z</time></trkpt><trkpt lat="42.8611067" lon="13.5953667"><ele>153.5</ele><time>2026-04-04T14:44:47.75Z</time></trkpt><trkpt lat="42.861015" lon="13.5954633"><ele>152.0</ele><time>2026-04-04T14:44:48.749Z</time></trkpt><trkpt lat="42.860915" lon="13.59556"><ele>150.5</ele><time>2026-04-04T14:44:49.749Z</time></trkpt><trkpt lat="42.8608067" lon="13.5956517"><ele>149.0</ele><time>2026-04-04T14:44:50.749Z</time></trkpt><trkpt lat="42.8607067" lon="13.595735"><ele>149.0</ele><time>2026-04-04T14:44:51.749Z</time></trkpt><trkpt lat="42.8606167" lon="13.5958133"><ele>149.0</ele><time>2026-04-04T14:44:52.749Z</time></trkpt><trkpt lat="42.8605217" lon="13.595885"><ele>149.0</ele><time>2026-04-04T14:44:53.749Z</time></trkpt><trkpt lat="42.860435" lon="13.5959517"><ele>149.0</ele><time>2026-04-04T14:44:54.749Z</time></trkpt><trkpt lat="42.8603467" lon="13.5960183"><ele>149.0</ele><time>2026-04-04T14:44:55.75Z</time></trkpt><trkpt lat="42.8602633" lon="13.5960867"><ele>149.0</ele><time>2026-04-04T14:44:56.75Z</time></trkpt><trkpt lat="42.860185" lon="13.5961533"><ele>149.0</ele><time>2026-04-04T14:44:57.748Z</time></trkpt><trkpt lat="42.8601017" lon="13.5962333"><ele>149.0</ele><time>2026-04-04T14:44:58.749Z</time></trkpt><trkpt lat="42.860015" lon="13.596315"><ele>149.0</ele><time>2026-04-04T14:44:59.748Z</time></trkpt><trkpt lat="42.8599267" lon="13.59641"><ele>149.0</ele><time>2026-04-04T14:45:00.749Z</time></trkpt><trkpt lat="42.8598283" lon="13.5965033"><ele>149.75</ele><time>2026-04-04T14:45:01.749Z</time></trkpt><trkpt lat="42.8597417" lon="13.5966133"><ele>150.5</ele><time>2026-04-04T14:45:02.749Z</time></trkpt><trkpt lat="42.8596617" lon="13.5967533"><ele>151.25</ele><time>2026-04-04T14:45:03.749Z</time></trkpt><trkpt lat="42.8596017" lon="13.596905"><ele>152.0</ele><time>2026-04-04T14:45:04.748Z</time></trkpt><trkpt lat="42.859555" lon="13.5970617"><ele>153.75</ele><time>2026-04-04T14:45:05.748Z</time></trkpt><trkpt lat="42.8595067" lon="13.5972233"><ele>155.5</ele><time>2026-04-04T14:45:06.749Z</time></trkpt><trkpt lat="42.85945" lon="13.597375"><ele>157.25</ele><time>2026-04-04T14:45:07.748Z</time></trkpt><trkpt lat="42.8593833" lon="13.5975283"><ele>159.0</ele><time>2026-04-04T14:45:08.748Z</time></trkpt><trkpt lat="42.859325" lon="13.597665"><ele>157.2</ele><time>2026-04-04T14:45:09.748Z</time></trkpt><trkpt lat="42.8592617" lon="13.5977933"><ele>155.4</ele><time>2026-04-04T14:45:10.748Z</time></trkpt><trkpt lat="42.8591933" lon="13.5979167"><ele>153.6</ele><time>2026-04-04T14:45:11.748Z</time></trkpt><trkpt lat="42.8591217" lon="13.598025"><ele>151.8</ele><time>2026-04-04T14:45:12.749Z</time></trkpt><trkpt lat="42.8590383" lon="13.5981267"><ele>150.0</ele><time>2026-04-04T14:45:13.749Z</time></trkpt><trkpt lat="42.85896" lon="13.59823"><ele>148.5</ele><time>2026-04-04T14:45:14.748Z</time></trkpt><trkpt lat="42.85888" lon="13.5983183"><ele>147.0</ele><time>2026-04-04T14:45:15.748Z</time></trkpt><trkpt lat="42.8587817" lon="13.598405"><ele>145.5</ele><time>2026-04-04T14:45:16.749Z</time></trkpt><trkpt lat="42.85867" lon="13.5984983"><ele>144.0</ele><time>2026-04-04T14:45:17.749Z</time></trkpt><trkpt lat="42.858545" lon="13.5985683"><ele>144.75</ele><time>2026-04-04T14:45:18.749Z</time></trkpt><trkpt lat="42.8584167" lon="13.5986167"><ele>145.5</ele><time>2026-04-04T14:45:19.748Z</time></trkpt><trkpt lat="42.8582867" lon="13.598655"><ele>146.25</ele><time>2026-04-04T14:45:20.749Z</time></trkpt><trkpt lat="42.85815" lon="13.5986867"><ele>147.0</ele><time>2026-04-04T14:45:21.749Z</time></trkpt><trkpt lat="42.8580083" lon="13.598715"><ele>147.0</ele><time>2026-04-04T14:45:22.748Z</time></trkpt><trkpt lat="42.8578583" lon="13.59874"><ele>147.0</ele><time>2026-04-04T14:45:23.748Z</time></trkpt><trkpt lat="42.8577083" lon="13.5987517"><ele>147.0</ele><time>2026-04-04T14:45:24.748Z</time></trkpt><trkpt lat="42.8575583" lon="13.5987833"><ele>147.0</ele><time>2026-04-04T14:45:25.748Z</time></trkpt><trkpt lat="42.8574167" lon="13.5988267"><ele>147.0</ele><time>2026-04-04T14:45:26.748Z</time></trkpt><trkpt lat="42.85728" lon="13.5989017"><ele>147.0</ele><time>2026-04-04T14:45:27.749Z</time></trkpt><trkpt lat="42.8571433" lon="13.599"><ele>147.0</ele><time>2026-04-04T14:45:28.748Z</time></trkpt><trkpt lat="42.857015" lon="13.5991083"><ele>147.0</ele><time>2026-04-04T14:45:29.748Z</time></trkpt><trkpt lat="42.8568833" lon="13.5992267"><ele>147.0</ele><time>2026-04-04T14:45:30.748Z</time></trkpt><trkpt lat="42.8567633" lon="13.5993533"><ele>147.0</ele><time>2026-04-04T14:45:31.749Z</time></trkpt><trkpt lat="42.85663" lon="13.59948"><ele>148.0</ele><time>2026-04-04T14:45:32.749Z</time></trkpt><trkpt lat="42.8564983" lon="13.5996017"><ele>149.0</ele><time>2026-04-04T14:45:33.749Z</time></trkpt><trkpt lat="42.85637" lon="13.5997217"><ele>150.0</ele><time>2026-04-04T14:45:34.748Z</time></trkpt><trkpt lat="42.856245" lon="13.5998433"><ele>150.0</ele><time>2026-04-04T14:45:35.749Z</time></trkpt><trkpt lat="42.8561233" lon="13.59996"><ele>150.0</ele><time>2026-04-04T14:45:36.748Z</time></trkpt><trkpt lat="42.8559983" lon="13.60008"><ele>150.0</ele><time>2026-04-04T14:45:37.748Z</time></trkpt><trkpt lat="42.855875" lon="13.6002033"><ele>149.0</ele><time>2026-04-04T14:45:38.748Z</time></trkpt><trkpt lat="42.8557567" lon="13.60034"><ele>148.0</ele><time>2026-04-04T14:45:39.748Z</time></trkpt><trkpt lat="42.855645" lon="13.60048"><ele>147.0</ele><time>2026-04-04T14:45:40.749Z</time></trkpt><trkpt lat="42.85555" lon="13.6006317"><ele>147.0</ele><time>2026-04-04T14:45:41.748Z</time></trkpt><trkpt lat="42.8554517" lon="13.600795"><ele>147.0</ele><time>2026-04-04T14:45:42.749Z</time></trkpt><trkpt lat="42.855365" lon="13.60097"><ele>147.0</ele><time>2026-04-04T14:45:43.748Z</time></trkpt><trkpt lat="42.8552683" lon="13.6011433"><ele>149.33333333333334</ele><time>2026-04-04T14:45:44.748Z</time></trkpt><trkpt lat="42.855175" lon="13.6013067"><ele>151.66666666666669</ele><time>2026-04-04T14:45:45.749Z</time></trkpt><trkpt lat="42.85508" lon="13.60148"><ele>154.0</ele><time>2026-04-04T14:45:46.748Z</time></trkpt><trkpt lat="42.8549833" lon="13.6016533"><ele>152.66666666666669</ele><time>2026-04-04T14:45:47.748Z</time></trkpt><trkpt lat="42.8548867" lon="13.6018233"><ele>151.33333333333334</ele><time>2026-04-04T14:45:48.749Z</time></trkpt><trkpt lat="42.8548" lon="13.601995"><ele>150.0</ele><time>2026-04-04T14:45:49.749Z</time></trkpt><trkpt lat="42.85471" lon="13.6021633"><ele>150.0</ele><time>2026-04-04T14:45:50.748Z</time></trkpt><trkpt lat="42.8546217" lon="13.6023217"><ele>150.0</ele><time>2026-04-04T14:45:51.748Z</time></trkpt><trkpt lat="42.8545317" lon="13.6024983"><ele>150.0</ele><time>2026-04-04T14:45:52.748Z</time></trkpt><trkpt lat="42.8544267" lon="13.60266"><ele>150.0</ele><time>2026-04-04T14:45:53.748Z</time></trkpt><trkpt lat="42.8543417" lon="13.6028283"><ele>150.0</ele><time>2026-04-04T14:45:54.749Z</time></trkpt><trkpt lat="42.854255" lon="13.603"><ele>150.0</ele><time>2026-04-04T14:45:55.748Z</time></trkpt><trkpt lat="42.8541617" lon="13.603165"><ele>149.25</ele><time>2026-04-04T14:45:56.748Z</time></trkpt><trkpt lat="42.854075" lon="13.603325"><ele>148.5</ele><time>2026-04-04T14:45:57.749Z</time></trkpt><trkpt lat="42.8539833" lon="13.6034767"><ele>147.75</ele><time>2026-04-04T14:45:58.749Z</time></trkpt><trkpt lat="42.8538967" lon="13.60363"><ele>147.0</ele><time>2026-04-04T14:45:59.749Z</time></trkpt><trkpt lat="42.853815" lon="13.6037733"><ele>150.25</ele><time>2026-04-04T14:46:00.748Z</time></trkpt><trkpt lat="42.8537383" lon="13.603915"><ele>153.5</ele><time>2026-04-04T14:46:01.748Z</time></trkpt><trkpt lat="42.8536567" lon="13.60406"><ele>156.75</ele><time>2026-04-04T14:46:02.748Z</time></trkpt><trkpt lat="42.8535767" lon="13.6042017"><ele>160.0</ele><time>2026-04-04T14:46:03.749Z</time></trkpt><trkpt lat="42.8534917" lon="13.6043417"><ele>157.25</ele><time>2026-04-04T14:46:04.749Z</time></trkpt><trkpt lat="42.853405" lon="13.604475"><ele>154.5</ele><time>2026-04-04T14:46:05.749Z</time></trkpt><trkpt lat="42.8533083" lon="13.604605"><ele>151.75</ele><time>2026-04-04T14:46:06.748Z</time></trkpt><trkpt lat="42.85322" lon="13.6047467"><ele>149.0</ele><time>2026-04-04T14:46:07.748Z</time></trkpt><trkpt lat="42.85312" lon="13.6048817"><ele>149.0</ele><time>2026-04-04T14:46:08.748Z</time></trkpt><trkpt lat="42.8530117" lon="13.6050233"><ele>149.0</ele><time>2026-04-04T14:46:09.748Z</time></trkpt><trkpt lat="42.85291" lon="13.6051633"><ele>149.0</ele><time>2026-04-04T14:46:10.748Z</time></trkpt><trkpt lat="42.8528017" lon="13.6053083"><ele>149.0</ele><time>2026-04-04T14:46:11.749Z</time></trkpt><trkpt lat="42.8526783" lon="13.60544"><ele>147.33333333333331</ele><time>2026-04-04T14:46:12.748Z</time></trkpt><trkpt lat="42.8525733" lon="13.60558"><ele>145.66666666666666</ele><time>2026-04-04T14:46:13.748Z</time></trkpt><trkpt lat="42.8524733" lon="13.6057333"><ele>144.0</ele><time>2026-04-04T14:46:14.749Z</time></trkpt><trkpt lat="42.85238" lon="13.6058983"><ele>144.0</ele><time>2026-04-04T14:46:15.748Z</time></trkpt><trkpt lat="42.8522933" lon="13.60608"><ele>144.0</ele><time>2026-04-04T14:46:16.749Z</time></trkpt><trkpt lat="42.85222" lon="13.6062717"><ele>144.0</ele><time>2026-04-04T14:46:17.749Z</time></trkpt><trkpt lat="42.8521517" lon="13.60648"><ele>142.33333333333334</ele><time>2026-04-04T14:46:18.749Z</time></trkpt><trkpt lat="42.8520883" lon="13.606695"><ele>140.66666666666669</ele><time>2026-04-04T14:46:19.749Z</time></trkpt><trkpt lat="42.852025" lon="13.6069117"><ele>139.0</ele><time>2026-04-04T14:46:20.748Z</time></trkpt><trkpt lat="42.8519633" lon="13.6071283"><ele>135.5</ele><time>2026-04-04T14:46:21.748Z</time></trkpt><trkpt lat="42.8518967" lon="13.607345"><ele>132.0</ele><time>2026-04-04T14:46:22.748Z</time></trkpt><trkpt lat="42.8517683" lon="13.6077583"><ele>130.66666666666666</ele><time>2026-04-04T14:46:24.749Z</time></trkpt><trkpt lat="42.851705" lon="13.6079583"><ele>129.33333333333331</ele><time>2026-04-04T14:46:25.748Z</time></trkpt><trkpt lat="42.8516483" lon="13.6081583"><ele>128.0</ele><time>2026-04-04T14:46:26.748Z</time></trkpt><trkpt lat="42.8515983" lon="13.6083567"><ele>128.0</ele><time>2026-04-04T14:46:27.748Z</time></trkpt><trkpt lat="42.8515433" lon="13.608545"><ele>128.0</ele><time>2026-04-04T14:46:28.748Z</time></trkpt><trkpt lat="42.8514833" lon="13.60874"><ele>128.0</ele><time>2026-04-04T14:46:29.748Z</time></trkpt><trkpt lat="42.8514317" lon="13.60894"><ele>128.5</ele><time>2026-04-04T14:46:30.749Z</time></trkpt><trkpt lat="42.85138" lon="13.6091283"><ele>129.0</ele><time>2026-04-04T14:46:31.749Z</time></trkpt><trkpt lat="42.8513267" lon="13.609315"><ele>129.5</ele><time>2026-04-04T14:46:32.748Z</time></trkpt><trkpt lat="42.8512783" lon="13.609495"><ele>130.0</ele><time>2026-04-04T14:46:33.748Z</time></trkpt><trkpt lat="42.8512233" lon="13.609675"><ele>131.0</ele><time>2026-04-04T14:46:34.748Z</time></trkpt><trkpt lat="42.8511667" lon="13.6098467"><ele>132.0</ele><time>2026-04-04T14:46:35.748Z</time></trkpt><trkpt lat="42.85111" lon="13.61001"><ele>133.0</ele><time>2026-04-04T14:46:36.749Z</time></trkpt><trkpt lat="42.8510617" lon="13.61017"><ele>134.0</ele><time>2026-04-04T14:46:37.748Z</time></trkpt><trkpt lat="42.8510133" lon="13.6103367"><ele>134.25</ele><time>2026-04-04T14:46:38.749Z</time></trkpt><trkpt lat="42.850965" lon="13.61051"><ele>134.5</ele><time>2026-04-04T14:46:39.749Z</time></trkpt><trkpt lat="42.8509183" lon="13.61068"><ele>134.75</ele><time>2026-04-04T14:46:40.748Z</time></trkpt><trkpt lat="42.8508683" lon="13.6108383"><ele>135.0</ele><time>2026-04-04T14:46:41.749Z</time></trkpt><trkpt lat="42.8508233" lon="13.6110017"><ele>132.5</ele><time>2026-04-04T14:46:42.748Z</time></trkpt><trkpt lat="42.85078" lon="13.611165"><ele>130.0</ele><time>2026-04-04T14:46:43.748Z</time></trkpt><trkpt lat="42.85074" lon="13.6113283"><ele>127.5</ele><time>2026-04-04T14:46:44.749Z</time></trkpt><trkpt lat="42.850705" lon="13.611485"><ele>125.0</ele><time>2026-04-04T14:46:45.748Z</time></trkpt><trkpt lat="42.8506767" lon="13.6116233"><ele>124.99999999999999</ele><time>2026-04-04T14:46:46.749Z</time></trkpt><trkpt lat="42.8506517" lon="13.611735"><ele>125.0</ele><time>2026-04-04T14:46:47.748Z</time></trkpt><trkpt lat="42.8506117" lon="13.6118533"><ele>125.0</ele><time>2026-04-04T14:46:49.748Z</time></trkpt><trkpt lat="42.8505617" lon="13.6119417"><ele>125.0</ele><time>2026-04-04T14:47:05.748Z</time></trkpt><trkpt lat="42.85053" lon="13.61204"><ele>124.99999999999999</ele><time>2026-04-04T14:47:06.748Z</time></trkpt><trkpt lat="42.8505133" lon="13.6121617"><ele>125.0</ele><time>2026-04-04T14:47:07.748Z</time></trkpt><trkpt lat="42.8505117" lon="13.6123083"><ele>125.25</ele><time>2026-04-04T14:47:08.748Z</time></trkpt><trkpt lat="42.85051" lon="13.6124783"><ele>125.5</ele><time>2026-04-04T14:47:09.748Z</time></trkpt><trkpt lat="42.850505" lon="13.6126583"><ele>125.75</ele><time>2026-04-04T14:47:10.748Z</time></trkpt><trkpt lat="42.8504867" lon="13.6128467"><ele>126.0</ele><time>2026-04-04T14:47:11.748Z</time></trkpt><trkpt lat="42.8504767" lon="13.61304"><ele>126.25</ele><time>2026-04-04T14:47:12.749Z</time></trkpt><trkpt lat="42.8504717" lon="13.61323"><ele>126.5</ele><time>2026-04-04T14:47:13.748Z</time></trkpt><trkpt lat="42.850465" lon="13.61342"><ele>126.75</ele><time>2026-04-04T14:47:14.748Z</time></trkpt><trkpt lat="42.850465" lon="13.6136017"><ele>127.0</ele><time>2026-04-04T14:47:15.749Z</time></trkpt><trkpt lat="42.8504533" lon="13.6137867"><ele>127.0</ele><time>2026-04-04T14:47:16.748Z</time></trkpt><trkpt lat="42.8504533" lon="13.6139633"><ele>127.0</ele><time>2026-04-04T14:47:17.748Z</time></trkpt><trkpt lat="42.8504433" lon="13.6141467"><ele>127.0</ele><time>2026-04-04T14:47:18.748Z</time></trkpt><trkpt lat="42.85044" lon="13.6143217"><ele>127.0</ele><time>2026-04-04T14:47:19.748Z</time></trkpt><trkpt lat="42.850435" lon="13.6144917"><ele>126.25</ele><time>2026-04-04T14:47:20.748Z</time></trkpt><trkpt lat="42.8504267" lon="13.6146583"><ele>125.5</ele><time>2026-04-04T14:47:21.749Z</time></trkpt><trkpt lat="42.850425" lon="13.614835"><ele>124.75</ele><time>2026-04-04T14:47:22.748Z</time></trkpt><trkpt lat="42.8504283" lon="13.6150067"><ele>124.0</ele><time>2026-04-04T14:47:23.749Z</time></trkpt><trkpt lat="42.8504217" lon="13.6151717"><ele>123.5</ele><time>2026-04-04T14:47:24.748Z</time></trkpt><trkpt lat="42.8504183" lon="13.6153333"><ele>123.0</ele><time>2026-04-04T14:47:25.748Z</time></trkpt><trkpt lat="42.8504167" lon="13.6155"><ele>122.5</ele><time>2026-04-04T14:47:26.748Z</time></trkpt><trkpt lat="42.8504117" lon="13.61566"><ele>122.0</ele><time>2026-04-04T14:47:27.748Z</time></trkpt><trkpt lat="42.8504083" lon="13.6158067"><ele>122.0</ele><time>2026-04-04T14:47:28.749Z</time></trkpt><trkpt lat="42.8504067" lon="13.6159617"><ele>122.0</ele><time>2026-04-04T14:47:29.748Z</time></trkpt><trkpt lat="42.8503917" lon="13.61613"><ele>122.0</ele><time>2026-04-04T14:47:30.748Z</time></trkpt><trkpt lat="42.8503883" lon="13.6162967"><ele>122.0</ele><time>2026-04-04T14:47:31.748Z</time></trkpt><trkpt lat="42.8503817" lon="13.6164667"><ele>122.0</ele><time>2026-04-04T14:47:32.749Z</time></trkpt><trkpt lat="42.8503767" lon="13.616645"><ele>122.0</ele><time>2026-04-04T14:47:33.749Z</time></trkpt><trkpt lat="42.8503667" lon="13.6168217"><ele>122.0</ele><time>2026-04-04T14:47:34.748Z</time></trkpt><trkpt lat="42.8503583" lon="13.6169967"><ele>122.0</ele><time>2026-04-04T14:47:35.748Z</time></trkpt><trkpt lat="42.8503433" lon="13.6171633"><ele>121.8</ele><time>2026-04-04T14:47:36.748Z</time></trkpt><trkpt lat="42.850335" lon="13.6172983"><ele>121.6</ele><time>2026-04-04T14:47:37.748Z</time></trkpt><trkpt lat="42.8503417" lon="13.617415"><ele>121.39999999999999</ele><time>2026-04-04T14:47:38.748Z</time></trkpt><trkpt lat="42.8503483" lon="13.617515"><ele>121.19999999999999</ele><time>2026-04-04T14:47:39.749Z</time></trkpt><trkpt lat="42.850335" lon="13.617665"><ele>121.0</ele><time>2026-04-04T14:47:41.748Z</time></trkpt><trkpt lat="42.8503283" lon="13.6177833"><ele>120.83333333333334</ele><time>2026-04-04T14:47:43.748Z</time></trkpt><trkpt lat="42.8503283" lon="13.6178733"><ele>120.66666666666667</ele><time>2026-04-04T14:47:44.748Z</time></trkpt><trkpt lat="42.8503217" lon="13.6179617"><ele>120.5</ele><time>2026-04-04T14:47:45.748Z</time></trkpt><trkpt lat="42.85032" lon="13.6180683"><ele>120.33333333333334</ele><time>2026-04-04T14:47:46.749Z</time></trkpt><trkpt lat="42.8503267" lon="13.6181833"><ele>120.16666666666667</ele><time>2026-04-04T14:47:47.748Z</time></trkpt><trkpt lat="42.8503333" lon="13.6183067"><ele>120.0</ele><time>2026-04-04T14:47:48.749Z</time></trkpt><trkpt lat="42.8503317" lon="13.618435"><ele>120.0</ele><time>2026-04-04T14:47:49.749Z</time></trkpt><trkpt lat="42.8503283" lon="13.6185817"><ele>120.0</ele><time>2026-04-04T14:47:50.748Z</time></trkpt><trkpt lat="42.850315" lon="13.618745"><ele>120.0</ele><time>2026-04-04T14:47:51.748Z</time></trkpt><trkpt lat="42.8503" lon="13.6189117"><ele>120.0</ele><time>2026-04-04T14:47:52.749Z</time></trkpt><trkpt lat="42.8502833" lon="13.6190917"><ele>120.66666666666666</ele><time>2026-04-04T14:47:53.748Z</time></trkpt><trkpt lat="42.8502733" lon="13.6193"><ele>121.33333333333333</ele><time>2026-04-04T14:47:54.749Z</time></trkpt><trkpt lat="42.8502667" lon="13.6195033"><ele>122.0</ele><time>2026-04-04T14:47:55.748Z</time></trkpt><trkpt lat="42.8502567" lon="13.61972"><ele>123.0</ele><time>2026-04-04T14:47:56.748Z</time></trkpt><trkpt lat="42.8502433" lon="13.6199433"><ele>124.0</ele><time>2026-04-04T14:47:57.748Z</time></trkpt><trkpt lat="42.8502367" lon="13.6201683"><ele>125.0</ele><time>2026-04-04T14:47:58.748Z</time></trkpt><trkpt lat="42.8502383" lon="13.6203817"><ele>125.66666666666666</ele><time>2026-04-04T14:47:59.749Z</time></trkpt><trkpt lat="42.850225" lon="13.62059"><ele>126.33333333333334</ele><time>2026-04-04T14:48:00.748Z</time></trkpt><trkpt lat="42.8502167" lon="13.6208"><ele>127.0</ele><time>2026-04-04T14:48:01.748Z</time></trkpt><trkpt lat="42.850215" lon="13.6209983"><ele>125.25</ele><time>2026-04-04T14:48:02.748Z</time></trkpt><trkpt lat="42.8502117" lon="13.6212"><ele>123.5</ele><time>2026-04-04T14:48:03.749Z</time></trkpt><trkpt lat="42.8502067" lon="13.6213933"><ele>121.75</ele><time>2026-04-04T14:48:04.748Z</time></trkpt><trkpt lat="42.8502" lon="13.6215883"><ele>120.0</ele><time>2026-04-04T14:48:05.748Z</time></trkpt><trkpt lat="42.8501933" lon="13.6217767"><ele>120.0</ele><time>2026-04-04T14:48:06.749Z</time></trkpt><trkpt lat="42.85019" lon="13.6219633"><ele>120.0</ele><time>2026-04-04T14:48:07.749Z</time></trkpt><trkpt lat="42.850185" lon="13.6221417"><ele>120.0</ele><time>2026-04-04T14:48:08.748Z</time></trkpt><trkpt lat="42.8501767" lon="13.6223067"><ele>120.0</ele><time>2026-04-04T14:48:09.749Z</time></trkpt><trkpt lat="42.85017" lon="13.6224567"><ele>119.6</ele><time>2026-04-04T14:48:10.749Z</time></trkpt><trkpt lat="42.85017" lon="13.6226017"><ele>119.2</ele><time>2026-04-04T14:48:11.748Z</time></trkpt><trkpt lat="42.8501633" lon="13.6227483"><ele>118.80000000000001</ele><time>2026-04-04T14:48:12.748Z</time></trkpt><trkpt lat="42.8501583" lon="13.622885"><ele>118.4</ele><time>2026-04-04T14:48:13.749Z</time></trkpt><trkpt lat="42.850145" lon="13.62302"><ele>118.0</ele><time>2026-04-04T14:48:14.748Z</time></trkpt><trkpt lat="42.8501317" lon="13.62315"><ele>118.4</ele><time>2026-04-04T14:48:15.748Z</time></trkpt><trkpt lat="42.8501067" lon="13.623265"><ele>118.80000000000001</ele><time>2026-04-04T14:48:16.748Z</time></trkpt><trkpt lat="42.8501033" lon="13.6233783"><ele>119.2</ele><time>2026-04-04T14:48:17.748Z</time></trkpt><trkpt lat="42.8501117" lon="13.6235183"><ele>119.6</ele><time>2026-04-04T14:48:18.749Z</time></trkpt><trkpt lat="42.8501317" lon="13.6236683"><ele>120.0</ele><time>2026-04-04T14:48:19.748Z</time></trkpt><trkpt lat="42.85015" lon="13.623835"><ele>120.0</ele><time>2026-04-04T14:48:20.749Z</time></trkpt><trkpt lat="42.8501533" lon="13.6240133"><ele>120.0</ele><time>2026-04-04T14:48:21.749Z</time></trkpt><trkpt lat="42.8501533" lon="13.6241967"><ele>120.0</ele><time>2026-04-04T14:48:22.748Z</time></trkpt><trkpt lat="42.8501483" lon="13.6243883"><ele>120.0</ele><time>2026-04-04T14:48:23.749Z</time></trkpt><trkpt lat="42.8501483" lon="13.6245867"><ele>119.33333333333334</ele><time>2026-04-04T14:48:24.748Z</time></trkpt><trkpt lat="42.85014" lon="13.6247833"><ele>118.66666666666667</ele><time>2026-04-04T14:48:25.748Z</time></trkpt><trkpt lat="42.8501283" lon="13.6249817"><ele>118.0</ele><time>2026-04-04T14:48:26.748Z</time></trkpt><trkpt lat="42.8501183" lon="13.62535"><ele>117.0</ele><time>2026-04-04T14:48:28.748Z</time></trkpt><trkpt lat="42.8501117" lon="13.6255183"><ele>116.0</ele><time>2026-04-04T14:48:29.748Z</time></trkpt><trkpt lat="42.8501117" lon="13.6256833"><ele>115.0</ele><time>2026-04-04T14:48:30.748Z</time></trkpt><trkpt lat="42.8501183" lon="13.62584"><ele>114.0</ele><time>2026-04-04T14:48:31.749Z</time></trkpt><trkpt lat="42.8501183" lon="13.62599"><ele>114.0</ele><time>2026-04-04T14:48:32.748Z</time></trkpt><trkpt lat="42.8501233" lon="13.6261283"><ele>114.0</ele><time>2026-04-04T14:48:33.749Z</time></trkpt><trkpt lat="42.8501267" lon="13.6262533"><ele>114.0</ele><time>2026-04-04T14:48:34.749Z</time></trkpt><trkpt lat="42.85012" lon="13.6263617"><ele>114.0</ele><time>2026-04-04T14:48:35.749Z</time></trkpt><trkpt lat="42.850105" lon="13.6264517"><ele>114.0</ele><time>2026-04-04T14:48:36.749Z</time></trkpt><trkpt lat="42.8501017" lon="13.6265383"><ele>114.0</ele><time>2026-04-04T14:48:37.748Z</time></trkpt><trkpt lat="42.8501083" lon="13.62669"><ele>114.25</ele><time>2026-04-04T14:48:39.749Z</time></trkpt><trkpt lat="42.850105" lon="13.6268117"><ele>114.5</ele><time>2026-04-04T14:48:41.748Z</time></trkpt><trkpt lat="42.85011" lon="13.6269033"><ele>114.75</ele><time>2026-04-04T14:48:54.749Z</time></trkpt><trkpt lat="42.8500983" lon="13.62713"><ele>115.0</ele><time>2026-04-04T14:48:56.747Z</time></trkpt><trkpt lat="42.8500883" lon="13.627305"><ele>115.33333333333334</ele><time>2026-04-04T14:48:57.748Z</time></trkpt><trkpt lat="42.8500817" lon="13.6274933"><ele>115.66666666666666</ele><time>2026-04-04T14:48:58.747Z</time></trkpt><trkpt lat="42.850065" lon="13.6277"><ele>116.0</ele><time>2026-04-04T14:48:59.747Z</time></trkpt><trkpt lat="42.8500517" lon="13.6279217"><ele>115.0</ele><time>2026-04-04T14:49:00.748Z</time></trkpt><trkpt lat="42.850035" lon="13.6281267"><ele>114.0</ele><time>2026-04-04T14:49:01.748Z</time></trkpt><trkpt lat="42.850025" lon="13.62834"><ele>113.0</ele><time>2026-04-04T14:49:02.748Z</time></trkpt><trkpt lat="42.8500133" lon="13.6285367"><ele>112.5</ele><time>2026-04-04T14:49:03.747Z</time></trkpt><trkpt lat="42.8499933" lon="13.628725"><ele>112.0</ele><time>2026-04-04T14:49:04.747Z</time></trkpt><trkpt lat="42.84998" lon="13.6289017"><ele>111.5</ele><time>2026-04-04T14:49:05.747Z</time></trkpt><trkpt lat="42.8499817" lon="13.629085"><ele>111.0</ele><time>2026-04-04T14:49:06.747Z</time></trkpt><trkpt lat="42.8499783" lon="13.6292583"><ele>111.0</ele><time>2026-04-04T14:49:07.747Z</time></trkpt><trkpt lat="42.849965" lon="13.6294383"><ele>111.0</ele><time>2026-04-04T14:49:08.748Z</time></trkpt><trkpt lat="42.8499567" lon="13.6296033"><ele>111.0</ele><time>2026-04-04T14:49:09.747Z</time></trkpt><trkpt lat="42.84995" lon="13.6297767"><ele>111.0</ele><time>2026-04-04T14:49:10.747Z</time></trkpt><trkpt lat="42.849945" lon="13.6299483"><ele>111.0</ele><time>2026-04-04T14:49:11.747Z</time></trkpt><trkpt lat="42.8499417" lon="13.6301217"><ele>111.0</ele><time>2026-04-04T14:49:12.748Z</time></trkpt><trkpt lat="42.8499433" lon="13.6302967"><ele>111.0</ele><time>2026-04-04T14:49:13.747Z</time></trkpt><trkpt lat="42.8499433" lon="13.6304767"><ele>111.0</ele><time>2026-04-04T14:49:14.748Z</time></trkpt><trkpt lat="42.8499517" lon="13.6306533"><ele>111.0</ele><time>2026-04-04T14:49:15.747Z</time></trkpt><trkpt lat="42.8499433" lon="13.6308167"><ele>111.0</ele><time>2026-04-04T14:49:16.747Z</time></trkpt><trkpt lat="42.8499367" lon="13.6309833"><ele>111.0</ele><time>2026-04-04T14:49:17.747Z</time></trkpt><trkpt lat="42.8499367" lon="13.6311617"><ele>111.0</ele><time>2026-04-04T14:49:18.747Z</time></trkpt><trkpt lat="42.8499383" lon="13.6313467"><ele>110.0</ele><time>2026-04-04T14:49:19.747Z</time></trkpt><trkpt lat="42.8499317" lon="13.63153"><ele>109.0</ele><time>2026-04-04T14:49:20.748Z</time></trkpt><trkpt lat="42.8499217" lon="13.6316933"><ele>108.0</ele><time>2026-04-04T14:49:21.747Z</time></trkpt><trkpt lat="42.84991" lon="13.631865"><ele>107.0</ele><time>2026-04-04T14:49:22.747Z</time></trkpt><trkpt lat="42.8499" lon="13.6320383"><ele>106.75</ele><time>2026-04-04T14:49:23.747Z</time></trkpt><trkpt lat="42.8498917" lon="13.6322167"><ele>106.5</ele><time>2026-04-04T14:49:24.747Z</time></trkpt><trkpt lat="42.8498883" lon="13.6323833"><ele>106.25</ele><time>2026-04-04T14:49:25.748Z</time></trkpt><trkpt lat="42.84989" lon="13.63255"><ele>106.0</ele><time>2026-04-04T14:49:26.747Z</time></trkpt><trkpt lat="42.8498783" lon="13.6327117"><ele>106.0</ele><time>2026-04-04T14:49:27.748Z</time></trkpt><trkpt lat="42.8498783" lon="13.6328817"><ele>106.0</ele><time>2026-04-04T14:49:28.747Z</time></trkpt><trkpt lat="42.8498617" lon="13.6330417"><ele>106.0</ele><time>2026-04-04T14:49:29.747Z</time></trkpt><trkpt lat="42.849835" lon="13.63319"><ele>106.0</ele><time>2026-04-04T14:49:30.748Z</time></trkpt><trkpt lat="42.8498033" lon="13.6333283"><ele>106.0</ele><time>2026-04-04T14:49:31.747Z</time></trkpt><trkpt lat="42.84977" lon="13.63347"><ele>106.0</ele><time>2026-04-04T14:49:32.748Z</time></trkpt><trkpt lat="42.84973" lon="13.6336283"><ele>106.0</ele><time>2026-04-04T14:49:33.747Z</time></trkpt><trkpt lat="42.8496783" lon="13.63379"><ele>106.0</ele><time>2026-04-04T14:49:34.747Z</time></trkpt><trkpt lat="42.8496217" lon="13.6339583"><ele>105.75</ele><time>2026-04-04T14:49:35.748Z</time></trkpt><trkpt lat="42.8495617" lon="13.6341333"><ele>105.5</ele><time>2026-04-04T14:49:36.747Z</time></trkpt><trkpt lat="42.849495" lon="13.6343133"><ele>105.25</ele><time>2026-04-04T14:49:37.747Z</time></trkpt><trkpt lat="42.849425" lon="13.634495"><ele>105.0</ele><time>2026-04-04T14:49:38.747Z</time></trkpt><trkpt lat="42.849365" lon="13.63469"><ele>104.75</ele><time>2026-04-04T14:49:39.747Z</time></trkpt><trkpt lat="42.8493133" lon="13.6348783"><ele>104.5</ele><time>2026-04-04T14:49:40.747Z</time></trkpt><trkpt lat="42.8492667" lon="13.6350683"><ele>104.25</ele><time>2026-04-04T14:49:41.747Z</time></trkpt><trkpt lat="42.849225" lon="13.635265"><ele>104.0</ele><time>2026-04-04T14:49:42.747Z</time></trkpt><trkpt lat="42.849205" lon="13.6354583"><ele>102.0</ele><time>2026-04-04T14:49:43.748Z</time></trkpt><trkpt lat="42.8492117" lon="13.6356583"><ele>100.0</ele><time>2026-04-04T14:49:44.748Z</time></trkpt><trkpt lat="42.8492383" lon="13.6358583"><ele>98.0</ele><time>2026-04-04T14:49:45.748Z</time></trkpt><trkpt lat="42.8492917" lon="13.6360583"><ele>97.5</ele><time>2026-04-04T14:49:46.748Z</time></trkpt><trkpt lat="42.8493633" lon="13.6362283"><ele>97.0</ele><time>2026-04-04T14:49:47.747Z</time></trkpt><trkpt lat="42.8494567" lon="13.6363933"><ele>96.5</ele><time>2026-04-04T14:49:48.748Z</time></trkpt><trkpt lat="42.8495633" lon="13.6365417"><ele>96.0</ele><time>2026-04-04T14:49:49.748Z</time></trkpt><trkpt lat="42.8496867" lon="13.636665"><ele>96.0</ele><time>2026-04-04T14:49:50.747Z</time></trkpt><trkpt lat="42.849825" lon="13.63676"><ele>96.0</ele><time>2026-04-04T14:49:51.748Z</time></trkpt><trkpt lat="42.8499717" lon="13.63684"><ele>96.0</ele><time>2026-04-04T14:49:52.747Z</time></trkpt><trkpt lat="42.85011" lon="13.636915"><ele>95.0</ele><time>2026-04-04T14:49:53.747Z</time></trkpt><trkpt lat="42.8502483" lon="13.636985"><ele>94.0</ele><time>2026-04-04T14:49:54.747Z</time></trkpt><trkpt lat="42.85039" lon="13.6370617"><ele>93.0</ele><time>2026-04-04T14:49:55.747Z</time></trkpt><trkpt lat="42.8505283" lon="13.6371317"><ele>92.0</ele><time>2026-04-04T14:49:56.747Z</time></trkpt><trkpt lat="42.8506667" lon="13.637205"><ele>92.0</ele><time>2026-04-04T14:49:57.748Z</time></trkpt><trkpt lat="42.8508033" lon="13.6372867"><ele>92.0</ele><time>2026-04-04T14:49:58.747Z</time></trkpt><trkpt lat="42.8509333" lon="13.6373933"><ele>92.0</ele><time>2026-04-04T14:49:59.748Z</time></trkpt><trkpt lat="42.8510533" lon="13.637505"><ele>92.0</ele><time>2026-04-04T14:50:00.747Z</time></trkpt><trkpt lat="42.8511733" lon="13.6376233"><ele>93.25</ele><time>2026-04-04T14:50:01.747Z</time></trkpt><trkpt lat="42.8512867" lon="13.637745"><ele>94.5</ele><time>2026-04-04T14:50:02.747Z</time></trkpt><trkpt lat="42.8513883" lon="13.6378717"><ele>95.75</ele><time>2026-04-04T14:50:03.748Z</time></trkpt><trkpt lat="42.8514983" lon="13.638005"><ele>97.0</ele><time>2026-04-04T14:50:04.747Z</time></trkpt><trkpt lat="42.8516017" lon="13.6381317"><ele>97.0</ele><time>2026-04-04T14:50:05.747Z</time></trkpt><trkpt lat="42.8517133" lon="13.63825"><ele>97.0</ele><time>2026-04-04T14:50:06.747Z</time></trkpt><trkpt lat="42.8518167" lon="13.6383583"><ele>97.0</ele><time>2026-04-04T14:50:07.748Z</time></trkpt><trkpt lat="42.8519133" lon="13.6384683"><ele>97.0</ele><time>2026-04-04T14:50:08.747Z</time></trkpt><trkpt lat="42.8520083" lon="13.6385833"><ele>96.0</ele><time>2026-04-04T14:50:09.747Z</time></trkpt><trkpt lat="42.8521" lon="13.638675"><ele>95.0</ele><time>2026-04-04T14:50:10.748Z</time></trkpt><trkpt lat="42.8521867" lon="13.63877"><ele>94.0</ele><time>2026-04-04T14:50:11.747Z</time></trkpt><trkpt lat="42.8522733" lon="13.6388533"><ele>93.0</ele><time>2026-04-04T14:50:12.747Z</time></trkpt><trkpt lat="42.8523383" lon="13.6389333"><ele>92.0</ele><time>2026-04-04T14:50:13.748Z</time></trkpt><trkpt lat="42.8524017" lon="13.639005"><ele>92.0</ele><time>2026-04-04T14:50:14.747Z</time></trkpt><trkpt lat="42.85247" lon="13.6390683"><ele>92.0</ele><time>2026-04-04T14:50:15.747Z</time></trkpt><trkpt lat="42.8525417" lon="13.63914"><ele>92.0</ele><time>2026-04-04T14:50:16.747Z</time></trkpt><trkpt lat="42.8526667" lon="13.6392867"><ele>92.0</ele><time>2026-04-04T14:50:18.748Z</time></trkpt><trkpt lat="42.852725" lon="13.6393567"><ele>92.0</ele><time>2026-04-04T14:50:19.747Z</time></trkpt><trkpt lat="42.8527783" lon="13.6394167"><ele>91.8</ele><time>2026-04-04T14:50:20.747Z</time></trkpt><trkpt lat="42.8528633" lon="13.6395217"><ele>91.6</ele><time>2026-04-04T14:50:22.747Z</time></trkpt><trkpt lat="42.8529417" lon="13.6396167"><ele>91.39999999999999</ele><time>2026-04-04T14:50:24.747Z</time></trkpt><trkpt lat="42.8530367" lon="13.6397283"><ele>91.19999999999999</ele><time>2026-04-04T14:50:26.747Z</time></trkpt><trkpt lat="42.8530867" lon="13.6398017"><ele>91.0</ele><time>2026-04-04T14:50:27.747Z</time></trkpt><trkpt lat="42.8531417" lon="13.6398817"><ele>91.0</ele><time>2026-04-04T14:50:28.748Z</time></trkpt><trkpt lat="42.8532017" lon="13.6399717"><ele>91.0</ele><time>2026-04-04T14:50:29.747Z</time></trkpt><trkpt lat="42.85327" lon="13.640075"><ele>91.0</ele><time>2026-04-04T14:50:30.748Z</time></trkpt><trkpt lat="42.8533283" lon="13.64018"><ele>91.0</ele><time>2026-04-04T14:50:31.747Z</time></trkpt><trkpt lat="42.8533817" lon="13.6402933"><ele>91.0</ele><time>2026-04-04T14:50:32.747Z</time></trkpt><trkpt lat="42.85344" lon="13.6404167"><ele>95.75</ele><time>2026-04-04T14:50:33.747Z</time></trkpt><trkpt lat="42.8534967" lon="13.6405617"><ele>100.5</ele><time>2026-04-04T14:50:34.747Z</time></trkpt><trkpt lat="42.853545" lon="13.640705"><ele>105.25</ele><time>2026-04-04T14:50:35.747Z</time></trkpt><trkpt lat="42.85359" lon="13.6408517"><ele>110.0</ele><time>2026-04-04T14:50:36.747Z</time></trkpt><trkpt lat="42.85362" lon="13.6410117"><ele>109.75</ele><time>2026-04-04T14:50:37.747Z</time></trkpt><trkpt lat="42.85363" lon="13.6411867"><ele>109.5</ele><time>2026-04-04T14:50:38.747Z</time></trkpt><trkpt lat="42.853635" lon="13.6413633"><ele>109.25</ele><time>2026-04-04T14:50:39.747Z</time></trkpt><trkpt lat="42.8536133" lon="13.6415433"><ele>109.0</ele><time>2026-04-04T14:50:40.747Z</time></trkpt><trkpt lat="42.8535867" lon="13.6417283"><ele>109.0</ele><time>2026-04-04T14:50:41.748Z</time></trkpt><trkpt lat="42.8535317" lon="13.6419133"><ele>109.0</ele><time>2026-04-04T14:50:42.748Z</time></trkpt><trkpt lat="42.8534767" lon="13.642095"><ele>109.0</ele><time>2026-04-04T14:50:43.748Z</time></trkpt><trkpt lat="42.8534167" lon="13.642275"><ele>109.0</ele><time>2026-04-04T14:50:44.748Z</time></trkpt><trkpt lat="42.85337" lon="13.6424633"><ele>109.0</ele><time>2026-04-04T14:50:45.748Z</time></trkpt><trkpt lat="42.8533133" lon="13.6426567"><ele>109.0</ele><time>2026-04-04T14:50:46.747Z</time></trkpt><trkpt lat="42.85326" lon="13.6428517"><ele>109.0</ele><time>2026-04-04T14:50:47.747Z</time></trkpt><trkpt lat="42.853205" lon="13.6430433"><ele>109.0</ele><time>2026-04-04T14:50:48.747Z</time></trkpt><trkpt lat="42.8531533" lon="13.64323"><ele>109.0</ele><time>2026-04-04T14:50:49.747Z</time></trkpt><trkpt lat="42.853095" lon="13.6434183"><ele>109.0</ele><time>2026-04-04T14:50:50.747Z</time></trkpt><trkpt lat="42.8530433" lon="13.6436"><ele>109.0</ele><time>2026-04-04T14:50:51.747Z</time></trkpt><trkpt lat="42.8529967" lon="13.64379"><ele>113.0</ele><time>2026-04-04T14:50:52.748Z</time></trkpt><trkpt lat="42.8529433" lon="13.64398"><ele>117.0</ele><time>2026-04-04T14:50:53.748Z</time></trkpt><trkpt lat="42.85289" lon="13.6441667"><ele>121.0</ele><time>2026-04-04T14:50:54.747Z</time></trkpt><trkpt lat="42.8528433" lon="13.6443467"><ele>125.0</ele><time>2026-04-04T14:50:55.747Z</time></trkpt><trkpt lat="42.8527967" lon="13.644535"><ele>127.0</ele><time>2026-04-04T14:50:56.747Z</time></trkpt><trkpt lat="42.85276" lon="13.64473"><ele>129.0</ele><time>2026-04-04T14:50:57.748Z</time></trkpt><trkpt lat="42.8527283" lon="13.6449333"><ele>131.0</ele><time>2026-04-04T14:50:58.748Z</time></trkpt><trkpt lat="42.8527117" lon="13.6451317"><ele>133.0</ele><time>2026-04-04T14:50:59.747Z</time></trkpt><trkpt lat="42.8527017" lon="13.6453283"><ele>133.5</ele><time>2026-04-04T14:51:00.748Z</time></trkpt><trkpt lat="42.852695" lon="13.6455367"><ele>134.0</ele><time>2026-04-04T14:51:01.747Z</time></trkpt><trkpt lat="42.85269" lon="13.6457333"><ele>134.5</ele><time>2026-04-04T14:51:02.747Z</time></trkpt><trkpt lat="42.85269" lon="13.6459267"><ele>135.0</ele><time>2026-04-04T14:51:03.748Z</time></trkpt><trkpt lat="42.8526867" lon="13.6461283"><ele>133.5</ele><time>2026-04-04T14:51:04.747Z</time></trkpt><trkpt lat="42.8526733" lon="13.6463117"><ele>132.0</ele><time>2026-04-04T14:51:05.747Z</time></trkpt><trkpt lat="42.8526383" lon="13.6465"><ele>130.5</ele><time>2026-04-04T14:51:06.747Z</time></trkpt><trkpt lat="42.8525983" lon="13.6466733"><ele>129.0</ele><time>2026-04-04T14:51:07.747Z</time></trkpt><trkpt lat="42.8525583" lon="13.64684"><ele>120.5</ele><time>2026-04-04T14:51:08.747Z</time></trkpt><trkpt lat="42.8525317" lon="13.6470283"><ele>112.0</ele><time>2026-04-04T14:51:09.747Z</time></trkpt><trkpt lat="42.8525317" lon="13.647225"><ele>103.5</ele><time>2026-04-04T14:51:10.747Z</time></trkpt><trkpt lat="42.8525517" lon="13.64744"><ele>95.0</ele><time>2026-04-04T14:51:11.748Z</time></trkpt><trkpt lat="42.8525767" lon="13.6476733"><ele>93.0</ele><time>2026-04-04T14:51:12.747Z</time></trkpt><trkpt lat="42.8526183" lon="13.647895"><ele>91.0</ele><time>2026-04-04T14:51:13.747Z</time></trkpt><trkpt lat="42.8526617" lon="13.6481117"><ele>89.0</ele><time>2026-04-04T14:51:14.747Z</time></trkpt><trkpt lat="42.8527067" lon="13.6483317"><ele>96.33333333333334</ele><time>2026-04-04T14:51:15.748Z</time></trkpt><trkpt lat="42.8527583" lon="13.6485417"><ele>103.66666666666667</ele><time>2026-04-04T14:51:16.748Z</time></trkpt><trkpt lat="42.852815" lon="13.6487517"><ele>111.0</ele><time>2026-04-04T14:51:17.748Z</time></trkpt><trkpt lat="42.852865" lon="13.6489567"><ele>111.0</ele><time>2026-04-04T14:51:18.747Z</time></trkpt><trkpt lat="42.8529233" lon="13.6491583"><ele>111.0</ele><time>2026-04-04T14:51:19.747Z</time></trkpt><trkpt lat="42.85299" lon="13.6493567"><ele>111.0</ele><time>2026-04-04T14:51:20.747Z</time></trkpt><trkpt lat="42.8530567" lon="13.6495483"><ele>106.0</ele><time>2026-04-04T14:51:21.748Z</time></trkpt><trkpt lat="42.8531133" lon="13.6497383"><ele>101.0</ele><time>2026-04-04T14:51:22.747Z</time></trkpt><trkpt lat="42.853165" lon="13.6499367"><ele>96.0</ele><time>2026-04-04T14:51:23.748Z</time></trkpt><trkpt lat="42.8532217" lon="13.6501417"><ele>93.33333333333333</ele><time>2026-04-04T14:51:24.747Z</time></trkpt><trkpt lat="42.8532817" lon="13.65035"><ele>90.66666666666666</ele><time>2026-04-04T14:51:25.747Z</time></trkpt><trkpt lat="42.85333" lon="13.6505583"><ele>88.0</ele><time>2026-04-04T14:51:26.747Z</time></trkpt><trkpt lat="42.8533833" lon="13.6507717"><ele>88.0</ele><time>2026-04-04T14:51:27.747Z</time></trkpt><trkpt lat="42.8534383" lon="13.6509833"><ele>88.0</ele><time>2026-04-04T14:51:28.747Z</time></trkpt><trkpt lat="42.8534833" lon="13.6511967"><ele>88.0</ele><time>2026-04-04T14:51:29.747Z</time></trkpt><trkpt lat="42.85352" lon="13.6514217"><ele>87.33333333333333</ele><time>2026-04-04T14:51:30.747Z</time></trkpt><trkpt lat="42.8535817" lon="13.6516233"><ele>86.66666666666667</ele><time>2026-04-04T14:51:31.748Z</time></trkpt><trkpt lat="42.8536283" lon="13.6518267"><ele>86.0</ele><time>2026-04-04T14:51:32.748Z</time></trkpt><trkpt lat="42.853675" lon="13.65204"><ele>90.66666666666667</ele><time>2026-04-04T14:51:33.748Z</time></trkpt><trkpt lat="42.8537017" lon="13.6522467"><ele>95.33333333333334</ele><time>2026-04-04T14:51:34.747Z</time></trkpt><trkpt lat="42.8537083" lon="13.6524717"><ele>100.0</ele><time>2026-04-04T14:51:35.747Z</time></trkpt><trkpt lat="42.853735" lon="13.6526683"><ele>100.66666666666667</ele><time>2026-04-04T14:51:36.748Z</time></trkpt><trkpt lat="42.8537517" lon="13.65287"><ele>101.33333333333334</ele><time>2026-04-04T14:51:37.748Z</time></trkpt><trkpt lat="42.853785" lon="13.653085"><ele>102.0</ele><time>2026-04-04T14:51:38.748Z</time></trkpt><trkpt lat="42.8538383" lon="13.6532817"><ele>102.0</ele><time>2026-04-04T14:51:39.748Z</time></trkpt><trkpt lat="42.8538867" lon="13.6534617"><ele>102.0</ele><time>2026-04-04T14:51:40.748Z</time></trkpt><trkpt lat="42.8539283" lon="13.6536267"><ele>102.0</ele><time>2026-04-04T14:51:41.747Z</time></trkpt><trkpt lat="42.8539467" lon="13.6537967"><ele>102.0</ele><time>2026-04-04T14:51:42.747Z</time></trkpt><trkpt lat="42.85394" lon="13.6539767"><ele>103.0</ele><time>2026-04-04T14:51:43.748Z</time></trkpt><trkpt lat="42.8539133" lon="13.6541767"><ele>104.0</ele><time>2026-04-04T14:51:44.747Z</time></trkpt><trkpt lat="42.8538667" lon="13.6543783"><ele>105.0</ele><time>2026-04-04T14:51:45.747Z</time></trkpt><trkpt lat="42.85382" lon="13.6545917"><ele>106.66666666666666</ele><time>2026-04-04T14:51:46.747Z</time></trkpt><trkpt lat="42.8537767" lon="13.6548083"><ele>108.33333333333333</ele><time>2026-04-04T14:51:47.747Z</time></trkpt><trkpt lat="42.853755" lon="13.6550217"><ele>110.0</ele><time>2026-04-04T14:51:48.747Z</time></trkpt><trkpt lat="42.853735" lon="13.65524"><ele>110.66666666666666</ele><time>2026-04-04T14:51:49.747Z</time></trkpt><trkpt lat="42.8537183" lon="13.6554617"><ele>111.33333333333334</ele><time>2026-04-04T14:51:50.748Z</time></trkpt><trkpt lat="42.8536883" lon="13.655685"><ele>112.0</ele><time>2026-04-04T14:51:51.748Z</time></trkpt><trkpt lat="42.8536317" lon="13.6558983"><ele>112.0</ele><time>2026-04-04T14:51:52.747Z</time></trkpt><trkpt lat="42.85357" lon="13.656085"><ele>112.0</ele><time>2026-04-04T14:51:53.747Z</time></trkpt><trkpt lat="42.853505" lon="13.65626"><ele>112.0</ele><time>2026-04-04T14:51:54.747Z</time></trkpt><trkpt lat="42.8534617" lon="13.6564567"><ele>112.0</ele><time>2026-04-04T14:51:55.748Z</time></trkpt><trkpt lat="42.85345" lon="13.6566667"><ele>110.66666666666667</ele><time>2026-04-04T14:51:56.747Z</time></trkpt><trkpt lat="42.8534483" lon="13.6568833"><ele>109.33333333333334</ele><time>2026-04-04T14:51:57.747Z</time></trkpt><trkpt lat="42.8534517" lon="13.6571"><ele>108.0</ele><time>2026-04-04T14:51:58.748Z</time></trkpt><trkpt lat="42.85346" lon="13.6573233"><ele>108.0</ele><time>2026-04-04T14:51:59.747Z</time></trkpt><trkpt lat="42.8534683" lon="13.6575467"><ele>108.0</ele><time>2026-04-04T14:52:00.747Z</time></trkpt><trkpt lat="42.85349" lon="13.65775"><ele>108.0</ele><time>2026-04-04T14:52:01.748Z</time></trkpt><trkpt lat="42.8534967" lon="13.65797"><ele>107.33333333333334</ele><time>2026-04-04T14:52:02.747Z</time></trkpt><trkpt lat="42.8535183" lon="13.6581867"><ele>106.66666666666667</ele><time>2026-04-04T14:52:03.747Z</time></trkpt><trkpt lat="42.8535267" lon="13.6584"><ele>106.0</ele><time>2026-04-04T14:52:04.748Z</time></trkpt><trkpt lat="42.85356" lon="13.6586017"><ele>104.0</ele><time>2026-04-04T14:52:05.747Z</time></trkpt><trkpt lat="42.8535983" lon="13.6588"><ele>102.0</ele><time>2026-04-04T14:52:06.747Z</time></trkpt><trkpt lat="42.85365" lon="13.6590017"><ele>100.0</ele><time>2026-04-04T14:52:07.747Z</time></trkpt><trkpt lat="42.8537233" lon="13.6592017"><ele>100.0</ele><time>2026-04-04T14:52:08.747Z</time></trkpt><trkpt lat="42.8538083" lon="13.6593933"><ele>100.0</ele><time>2026-04-04T14:52:09.747Z</time></trkpt><trkpt lat="42.8538833" lon="13.65956"><ele>100.0</ele><time>2026-04-04T14:52:10.747Z</time></trkpt><trkpt lat="42.8539517" lon="13.6597383"><ele>97.0</ele><time>2026-04-04T14:52:11.748Z</time></trkpt><trkpt lat="42.854" lon="13.6599383"><ele>94.0</ele><time>2026-04-04T14:52:12.747Z</time></trkpt><trkpt lat="42.8540383" lon="13.6601433"><ele>91.0</ele><time>2026-04-04T14:52:13.747Z</time></trkpt><trkpt lat="42.8540733" lon="13.660345"><ele>90.0</ele><time>2026-04-04T14:52:14.748Z</time></trkpt><trkpt lat="42.854095" lon="13.6605483"><ele>89.0</ele><time>2026-04-04T14:52:15.747Z</time></trkpt><trkpt lat="42.85411" lon="13.6607517"><ele>88.0</ele><time>2026-04-04T14:52:16.747Z</time></trkpt><trkpt lat="42.854145" lon="13.66096"><ele>88.33333333333333</ele><time>2026-04-04T14:52:17.747Z</time></trkpt><trkpt lat="42.8541883" lon="13.6611617"><ele>88.66666666666667</ele><time>2026-04-04T14:52:18.747Z</time></trkpt><trkpt lat="42.854235" lon="13.66136"><ele>89.0</ele><time>2026-04-04T14:52:19.747Z</time></trkpt><trkpt lat="42.8543" lon="13.661565"><ele>89.0</ele><time>2026-04-04T14:52:20.747Z</time></trkpt><trkpt lat="42.8543617" lon="13.661765"><ele>89.0</ele><time>2026-04-04T14:52:21.747Z</time></trkpt><trkpt lat="42.8544333" lon="13.661955"><ele>89.0</ele><time>2026-04-04T14:52:22.748Z</time></trkpt><trkpt lat="42.8544967" lon="13.6621383"><ele>88.33333333333334</ele><time>2026-04-04T14:52:23.748Z</time></trkpt><trkpt lat="42.8545667" lon="13.6623333"><ele>87.66666666666667</ele><time>2026-04-04T14:52:24.747Z</time></trkpt><trkpt lat="42.8546333" lon="13.66252"><ele>87.0</ele><time>2026-04-04T14:52:25.748Z</time></trkpt><trkpt lat="42.8547083" lon="13.6626983"><ele>86.25</ele><time>2026-04-04T14:52:26.748Z</time></trkpt><trkpt lat="42.8547933" lon="13.6628633"><ele>85.5</ele><time>2026-04-04T14:52:27.747Z</time></trkpt><trkpt lat="42.854885" lon="13.6630167"><ele>84.75</ele><time>2026-04-04T14:52:28.748Z</time></trkpt><trkpt lat="42.8549717" lon="13.6631617"><ele>84.0</ele><time>2026-04-04T14:52:29.747Z</time></trkpt><trkpt lat="42.855055" lon="13.6633117"><ele>84.0</ele><time>2026-04-04T14:52:30.747Z</time></trkpt><trkpt lat="42.8551183" lon="13.6634867"><ele>84.0</ele><time>2026-04-04T14:52:31.747Z</time></trkpt><trkpt lat="42.85515" lon="13.6636667"><ele>84.0</ele><time>2026-04-04T14:52:32.747Z</time></trkpt><trkpt lat="42.8551567" lon="13.6638533"><ele>84.0</ele><time>2026-04-04T14:52:33.747Z</time></trkpt><trkpt lat="42.855155" lon="13.6640433"><ele>84.5</ele><time>2026-04-04T14:52:34.746Z</time></trkpt><trkpt lat="42.855155" lon="13.6642467"><ele>85.0</ele><time>2026-04-04T14:52:35.747Z</time></trkpt><trkpt lat="42.8551517" lon="13.6644433"><ele>85.5</ele><time>2026-04-04T14:52:36.746Z</time></trkpt><trkpt lat="42.8551533" lon="13.6646417"><ele>86.0</ele><time>2026-04-04T14:52:37.747Z</time></trkpt><trkpt lat="42.8551617" lon="13.6648417"><ele>86.0</ele><time>2026-04-04T14:52:38.747Z</time></trkpt><trkpt lat="42.85516" lon="13.6650467"><ele>86.0</ele><time>2026-04-04T14:52:39.747Z</time></trkpt><trkpt lat="42.8551683" lon="13.6652417"><ele>86.0</ele><time>2026-04-04T14:52:40.747Z</time></trkpt><trkpt lat="42.855175" lon="13.6654217"><ele>86.0</ele><time>2026-04-04T14:52:41.746Z</time></trkpt><trkpt lat="42.85519" lon="13.665605"><ele>86.0</ele><time>2026-04-04T14:52:42.746Z</time></trkpt><trkpt lat="42.8552167" lon="13.6657933"><ele>86.0</ele><time>2026-04-04T14:52:43.746Z</time></trkpt><trkpt lat="42.8552583" lon="13.6659767"><ele>86.0</ele><time>2026-04-04T14:52:44.746Z</time></trkpt><trkpt lat="42.8553217" lon="13.66615"><ele>86.0</ele><time>2026-04-04T14:52:45.746Z</time></trkpt><trkpt lat="42.85538" lon="13.6663267"><ele>86.0</ele><time>2026-04-04T14:52:46.746Z</time></trkpt><trkpt lat="42.8554367" lon="13.6665033"><ele>86.0</ele><time>2026-04-04T14:52:47.747Z</time></trkpt><trkpt lat="42.8554933" lon="13.666685"><ele>86.0</ele><time>2026-04-04T14:52:48.746Z</time></trkpt><trkpt lat="42.8555417" lon="13.66687"><ele>86.0</ele><time>2026-04-04T14:52:49.747Z</time></trkpt><trkpt lat="42.8555867" lon="13.6670567"><ele>85.75</ele><time>2026-04-04T14:52:50.746Z</time></trkpt><trkpt lat="42.855605" lon="13.66726"><ele>85.5</ele><time>2026-04-04T14:52:51.747Z</time></trkpt><trkpt lat="42.8556317" lon="13.6674583"><ele>85.25</ele><time>2026-04-04T14:52:52.746Z</time></trkpt><trkpt lat="42.855665" lon="13.6676583"><ele>85.0</ele><time>2026-04-04T14:52:53.746Z</time></trkpt><trkpt lat="42.8556967" lon="13.667855"><ele>84.5</ele><time>2026-04-04T14:52:54.747Z</time></trkpt><trkpt lat="42.8557433" lon="13.6680367"><ele>84.0</ele><time>2026-04-04T14:52:55.746Z</time></trkpt><trkpt lat="42.8558017" lon="13.6682217"><ele>83.5</ele><time>2026-04-04T14:52:56.746Z</time></trkpt><trkpt lat="42.85584" lon="13.6684217"><ele>83.0</ele><time>2026-04-04T14:52:57.746Z</time></trkpt><trkpt lat="42.8558533" lon="13.66862"><ele>82.5</ele><time>2026-04-04T14:52:58.746Z</time></trkpt><trkpt lat="42.8558533" lon="13.6688167"><ele>82.0</ele><time>2026-04-04T14:52:59.746Z</time></trkpt><trkpt lat="42.8558283" lon="13.669005"><ele>81.5</ele><time>2026-04-04T14:53:00.747Z</time></trkpt><trkpt lat="42.8558" lon="13.66921"><ele>81.0</ele><time>2026-04-04T14:53:01.746Z</time></trkpt><trkpt lat="42.8557667" lon="13.6694117"><ele>81.0</ele><time>2026-04-04T14:53:02.746Z</time></trkpt><trkpt lat="42.8557417" lon="13.669605"><ele>81.0</ele><time>2026-04-04T14:53:03.746Z</time></trkpt><trkpt lat="42.8557233" lon="13.6697967"><ele>81.0</ele><time>2026-04-04T14:53:04.746Z</time></trkpt><trkpt lat="42.85572" lon="13.6699967"><ele>81.0</ele><time>2026-04-04T14:53:05.746Z</time></trkpt><trkpt lat="42.8557233" lon="13.6701917"><ele>81.33333333333333</ele><time>2026-04-04T14:53:06.746Z</time></trkpt><trkpt lat="42.855725" lon="13.6703983"><ele>81.66666666666666</ele><time>2026-04-04T14:53:07.747Z</time></trkpt><trkpt lat="42.85573" lon="13.6706183"><ele>82.0</ele><time>2026-04-04T14:53:08.747Z</time></trkpt><trkpt lat="42.8557283" lon="13.6708217"><ele>82.0</ele><time>2026-04-04T14:53:09.747Z</time></trkpt><trkpt lat="42.8557217" lon="13.6710233"><ele>82.0</ele><time>2026-04-04T14:53:10.746Z</time></trkpt><trkpt lat="42.8557133" lon="13.6712183"><ele>82.0</ele><time>2026-04-04T14:53:11.747Z</time></trkpt><trkpt lat="42.8557" lon="13.6714033"><ele>82.0</ele><time>2026-04-04T14:53:12.746Z</time></trkpt><trkpt lat="42.8556783" lon="13.67159"><ele>81.5</ele><time>2026-04-04T14:53:13.746Z</time></trkpt><trkpt lat="42.8556567" lon="13.6717667"><ele>81.0</ele><time>2026-04-04T14:53:14.746Z</time></trkpt><trkpt lat="42.85562" lon="13.6719517"><ele>80.5</ele><time>2026-04-04T14:53:15.746Z</time></trkpt><trkpt lat="42.855565" lon="13.6721317"><ele>80.0</ele><time>2026-04-04T14:53:16.746Z</time></trkpt><trkpt lat="42.8555033" lon="13.67231"><ele>80.0</ele><time>2026-04-04T14:53:17.747Z</time></trkpt><trkpt lat="42.8554433" lon="13.672485"><ele>80.0</ele><time>2026-04-04T14:53:18.747Z</time></trkpt><trkpt lat="42.8553517" lon="13.6726383"><ele>80.0</ele><time>2026-04-04T14:53:19.746Z</time></trkpt><trkpt lat="42.8552517" lon="13.6727733"><ele>80.0</ele><time>2026-04-04T14:53:20.747Z</time></trkpt><trkpt lat="42.85514" lon="13.6728967"><ele>79.0</ele><time>2026-04-04T14:53:21.746Z</time></trkpt><trkpt lat="42.8550167" lon="13.673025"><ele>78.0</ele><time>2026-04-04T14:53:22.746Z</time></trkpt><trkpt lat="42.8548933" lon="13.6731617"><ele>77.0</ele><time>2026-04-04T14:53:23.746Z</time></trkpt><trkpt lat="42.8547883" lon="13.6733067"><ele>77.0</ele><time>2026-04-04T14:53:24.747Z</time></trkpt><trkpt lat="42.854685" lon="13.6734667"><ele>77.0</ele><time>2026-04-04T14:53:25.747Z</time></trkpt><trkpt lat="42.854585" lon="13.6736267"><ele>77.0</ele><time>2026-04-04T14:53:26.746Z</time></trkpt><trkpt lat="42.854495" lon="13.6737983"><ele>77.5</ele><time>2026-04-04T14:53:27.746Z</time></trkpt><trkpt lat="42.8544167" lon="13.6739733"><ele>78.0</ele><time>2026-04-04T14:53:28.747Z</time></trkpt><trkpt lat="42.8543367" lon="13.6741383"><ele>78.5</ele><time>2026-04-04T14:53:29.746Z</time></trkpt><trkpt lat="42.8542733" lon="13.674295"><ele>79.0</ele><time>2026-04-04T14:53:30.747Z</time></trkpt><trkpt lat="42.8542133" lon="13.6744483"><ele>80.0</ele><time>2026-04-04T14:53:31.747Z</time></trkpt><trkpt lat="42.8541833" lon="13.67461"><ele>81.0</ele><time>2026-04-04T14:53:32.746Z</time></trkpt><trkpt lat="42.8541683" lon="13.674785"><ele>82.0</ele><time>2026-04-04T14:53:33.746Z</time></trkpt><trkpt lat="42.854175" lon="13.6749867"><ele>83.0</ele><time>2026-04-04T14:53:34.747Z</time></trkpt><trkpt lat="42.8541833" lon="13.6751883"><ele>83.33333333333334</ele><time>2026-04-04T14:53:35.746Z</time></trkpt><trkpt lat="42.8541917" lon="13.6753867"><ele>83.66666666666667</ele><time>2026-04-04T14:53:36.746Z</time></trkpt><trkpt lat="42.8541983" lon="13.67559"><ele>84.0</ele><time>2026-04-04T14:53:37.747Z</time></trkpt><trkpt lat="42.8542067" lon="13.6758033"><ele>84.0</ele><time>2026-04-04T14:53:38.746Z</time></trkpt><trkpt lat="42.854215" lon="13.6760217"><ele>84.0</ele><time>2026-04-04T14:53:39.747Z</time></trkpt><trkpt lat="42.8542267" lon="13.6762367"><ele>84.0</ele><time>2026-04-04T14:53:40.747Z</time></trkpt><trkpt lat="42.8542433" lon="13.6764567"><ele>82.66666666666667</ele><time>2026-04-04T14:53:41.747Z</time></trkpt><trkpt lat="42.8542633" lon="13.6766783"><ele>81.33333333333334</ele><time>2026-04-04T14:53:42.746Z</time></trkpt><trkpt lat="42.8542817" lon="13.676895"><ele>80.0</ele><time>2026-04-04T14:53:43.747Z</time></trkpt><trkpt lat="42.8542967" lon="13.6771117"><ele>79.66666666666667</ele><time>2026-04-04T14:53:44.747Z</time></trkpt><trkpt lat="42.85431" lon="13.6773267"><ele>79.33333333333333</ele><time>2026-04-04T14:53:45.746Z</time></trkpt><trkpt lat="42.8543283" lon="13.6775483"><ele>79.0</ele><time>2026-04-04T14:53:46.746Z</time></trkpt><trkpt lat="42.8543483" lon="13.6777683"><ele>80.0</ele><time>2026-04-04T14:53:47.746Z</time></trkpt><trkpt lat="42.8543633" lon="13.677985"><ele>81.0</ele><time>2026-04-04T14:53:48.746Z</time></trkpt><trkpt lat="42.8543767" lon="13.67821"><ele>82.0</ele><time>2026-04-04T14:53:49.747Z</time></trkpt><trkpt lat="42.8543917" lon="13.678435"><ele>81.33333333333333</ele><time>2026-04-04T14:53:50.746Z</time></trkpt><trkpt lat="42.8544117" lon="13.6786583"><ele>80.66666666666667</ele><time>2026-04-04T14:53:51.747Z</time></trkpt><trkpt lat="42.85444" lon="13.6788817"><ele>80.0</ele><time>2026-04-04T14:53:52.746Z</time></trkpt><trkpt lat="42.8544567" lon="13.6791083"><ele>80.0</ele><time>2026-04-04T14:53:53.746Z</time></trkpt><trkpt lat="42.85448" lon="13.6793217"><ele>80.0</ele><time>2026-04-04T14:53:54.747Z</time></trkpt><trkpt lat="42.8545017" lon="13.6795383"><ele>80.0</ele><time>2026-04-04T14:53:55.746Z</time></trkpt><trkpt lat="42.8545233" lon="13.6797483"><ele>79.66666666666667</ele><time>2026-04-04T14:53:56.747Z</time></trkpt><trkpt lat="42.8545367" lon="13.6799717"><ele>79.33333333333333</ele><time>2026-04-04T14:53:57.746Z</time></trkpt><trkpt lat="42.854535" lon="13.6801883"><ele>79.0</ele><time>2026-04-04T14:53:58.746Z</time></trkpt><trkpt lat="42.8545217" lon="13.6804067"><ele>79.0</ele><time>2026-04-04T14:53:59.746Z</time></trkpt><trkpt lat="42.8544967" lon="13.6806167"><ele>79.0</ele><time>2026-04-04T14:54:00.746Z</time></trkpt><trkpt lat="42.8544717" lon="13.6808133"><ele>79.0</ele><time>2026-04-04T14:54:01.746Z</time></trkpt><trkpt lat="42.8544467" lon="13.6809933"><ele>79.0</ele><time>2026-04-04T14:54:02.746Z</time></trkpt><trkpt lat="42.85443" lon="13.6811883"><ele>78.75</ele><time>2026-04-04T14:54:03.746Z</time></trkpt><trkpt lat="42.8544267" lon="13.68139"><ele>78.5</ele><time>2026-04-04T14:54:04.746Z</time></trkpt><trkpt lat="42.8544383" lon="13.6815967"><ele>78.25</ele><time>2026-04-04T14:54:05.747Z</time></trkpt><trkpt lat="42.8544617" lon="13.6817967"><ele>78.0</ele><time>2026-04-04T14:54:06.746Z</time></trkpt><trkpt lat="42.8544967" lon="13.68198"><ele>78.5</ele><time>2026-04-04T14:54:07.746Z</time></trkpt><trkpt lat="42.8545367" lon="13.6821533"><ele>79.0</ele><time>2026-04-04T14:54:08.747Z</time></trkpt><trkpt lat="42.854565" lon="13.6823383"><ele>79.5</ele><time>2026-04-04T14:54:09.747Z</time></trkpt><trkpt lat="42.8545867" lon="13.682535"><ele>80.0</ele><time>2026-04-04T14:54:10.746Z</time></trkpt><trkpt lat="42.8546133" lon="13.6827433"><ele>79.66666666666667</ele><time>2026-04-04T14:54:11.747Z</time></trkpt><trkpt lat="42.85465" lon="13.68296"><ele>79.33333333333333</ele><time>2026-04-04T14:54:12.746Z</time></trkpt><trkpt lat="42.8546783" lon="13.6831683"><ele>79.0</ele><time>2026-04-04T14:54:13.747Z</time></trkpt><trkpt lat="42.8547083" lon="13.6833833"><ele>79.0</ele><time>2026-04-04T14:54:14.747Z</time></trkpt><trkpt lat="42.8547467" lon="13.6835867"><ele>79.0</ele><time>2026-04-04T14:54:15.747Z</time></trkpt><trkpt lat="42.8547783" lon="13.68379"><ele>79.0</ele><time>2026-04-04T14:54:16.746Z</time></trkpt><trkpt lat="42.8548133" lon="13.683995"><ele>79.0</ele><time>2026-04-04T14:54:17.746Z</time></trkpt><trkpt lat="42.8548517" lon="13.684195"><ele>79.0</ele><time>2026-04-04T14:54:18.746Z</time></trkpt><trkpt lat="42.8548867" lon="13.6844033"><ele>79.0</ele><time>2026-04-04T14:54:19.746Z</time></trkpt><trkpt lat="42.8549233" lon="13.6846017"><ele>78.33333333333333</ele><time>2026-04-04T14:54:20.746Z</time></trkpt><trkpt lat="42.8549533" lon="13.684795"><ele>77.66666666666667</ele><time>2026-04-04T14:54:21.747Z</time></trkpt><trkpt lat="42.854985" lon="13.684995"><ele>77.0</ele><time>2026-04-04T14:54:22.747Z</time></trkpt><trkpt lat="42.8550233" lon="13.6852067"><ele>76.66666666666667</ele><time>2026-04-04T14:54:23.747Z</time></trkpt><trkpt lat="42.85506" lon="13.685405"><ele>76.33333333333333</ele><time>2026-04-04T14:54:24.747Z</time></trkpt><trkpt lat="42.855095" lon="13.6856117"><ele>76.0</ele><time>2026-04-04T14:54:25.747Z</time></trkpt><trkpt lat="42.8551217" lon="13.6858133"><ele>76.33333333333333</ele><time>2026-04-04T14:54:26.746Z</time></trkpt><trkpt lat="42.8551567" lon="13.6860233"><ele>76.66666666666667</ele><time>2026-04-04T14:54:27.746Z</time></trkpt><trkpt lat="42.855195" lon="13.6862283"><ele>77.0</ele><time>2026-04-04T14:54:28.747Z</time></trkpt><trkpt lat="42.8552383" lon="13.6864333"><ele>77.0</ele><time>2026-04-04T14:54:29.746Z</time></trkpt><trkpt lat="42.8552683" lon="13.6866467"><ele>77.0</ele><time>2026-04-04T14:54:30.746Z</time></trkpt><trkpt lat="42.8553017" lon="13.6868567"><ele>77.0</ele><time>2026-04-04T14:54:31.746Z</time></trkpt><trkpt lat="42.85534" lon="13.687065"><ele>76.33333333333334</ele><time>2026-04-04T14:54:32.746Z</time></trkpt><trkpt lat="42.8553817" lon="13.6872717"><ele>75.66666666666667</ele><time>2026-04-04T14:54:33.747Z</time></trkpt><trkpt lat="42.8554233" lon="13.68748"><ele>75.0</ele><time>2026-04-04T14:54:34.747Z</time></trkpt><trkpt lat="42.8554717" lon="13.6876833"><ele>75.0</ele><time>2026-04-04T14:54:35.746Z</time></trkpt><trkpt lat="42.8555267" lon="13.68789"><ele>75.0</ele><time>2026-04-04T14:54:36.746Z</time></trkpt><trkpt lat="42.8555783" lon="13.6881033"><ele>75.0</ele><time>2026-04-04T14:54:37.746Z</time></trkpt><trkpt lat="42.855645" lon="13.688305"><ele>75.0</ele><time>2026-04-04T14:54:38.747Z</time></trkpt><trkpt lat="42.8557117" lon="13.688515"><ele>75.0</ele><time>2026-04-04T14:54:39.747Z</time></trkpt><trkpt lat="42.8557683" lon="13.688715"><ele>75.0</ele><time>2026-04-04T14:54:40.747Z</time></trkpt><trkpt lat="42.8558367" lon="13.6889217"><ele>75.33333333333333</ele><time>2026-04-04T14:54:41.746Z</time></trkpt><trkpt lat="42.8559" lon="13.6891267"><ele>75.66666666666666</ele><time>2026-04-04T14:54:42.746Z</time></trkpt><trkpt lat="42.8559633" lon="13.689325"><ele>76.0</ele><time>2026-04-04T14:54:43.747Z</time></trkpt><trkpt lat="42.8560233" lon="13.6895217"><ele>76.33333333333333</ele><time>2026-04-04T14:54:44.747Z</time></trkpt><trkpt lat="42.8560867" lon="13.6897117"><ele>76.66666666666667</ele><time>2026-04-04T14:54:45.746Z</time></trkpt><trkpt lat="42.8561533" lon="13.6899033"><ele>77.0</ele><time>2026-04-04T14:54:46.746Z</time></trkpt><trkpt lat="42.8562133" lon="13.6900983"><ele>77.0</ele><time>2026-04-04T14:54:47.747Z</time></trkpt><trkpt lat="42.8562767" lon="13.6902867"><ele>77.0</ele><time>2026-04-04T14:54:48.746Z</time></trkpt><trkpt lat="42.85634" lon="13.6904733"><ele>77.0</ele><time>2026-04-04T14:54:49.746Z</time></trkpt><trkpt lat="42.856405" lon="13.69067"><ele>77.0</ele><time>2026-04-04T14:54:50.746Z</time></trkpt><trkpt lat="42.8564633" lon="13.69086"><ele>77.0</ele><time>2026-04-04T14:54:51.746Z</time></trkpt><trkpt lat="42.85652" lon="13.6910567"><ele>77.0</ele><time>2026-04-04T14:54:52.746Z</time></trkpt><trkpt lat="42.8565833" lon="13.6912517"><ele>77.0</ele><time>2026-04-04T14:54:53.746Z</time></trkpt><trkpt lat="42.8566467" lon="13.6914467"><ele>77.0</ele><time>2026-04-04T14:54:54.746Z</time></trkpt><trkpt lat="42.8567067" lon="13.6916433"><ele>77.0</ele><time>2026-04-04T14:54:55.747Z</time></trkpt><trkpt lat="42.856765" lon="13.6918417"><ele>77.33333333333334</ele><time>2026-04-04T14:54:56.747Z</time></trkpt><trkpt lat="42.85683" lon="13.6920417"><ele>77.66666666666667</ele><time>2026-04-04T14:54:57.746Z</time></trkpt><trkpt lat="42.8568917" lon="13.6922383"><ele>78.0</ele><time>2026-04-04T14:54:58.746Z</time></trkpt><trkpt lat="42.8569567" lon="13.6924383"><ele>78.0</ele><time>2026-04-04T14:54:59.747Z</time></trkpt><trkpt lat="42.857015" lon="13.69263"><ele>78.0</ele><time>2026-04-04T14:55:00.747Z</time></trkpt><trkpt lat="42.8570733" lon="13.6928117"><ele>78.0</ele><time>2026-04-04T14:55:01.747Z</time></trkpt><trkpt lat="42.8571417" lon="13.69301"><ele>78.66666666666667</ele><time>2026-04-04T14:55:02.747Z</time></trkpt><trkpt lat="42.85721" lon="13.693215"><ele>79.33333333333334</ele><time>2026-04-04T14:55:03.746Z</time></trkpt><trkpt lat="42.8572733" lon="13.693415"><ele>80.0</ele><time>2026-04-04T14:55:04.747Z</time></trkpt><trkpt lat="42.8573283" lon="13.6936133"><ele>80.33333333333334</ele><time>2026-04-04T14:55:05.747Z</time></trkpt><trkpt lat="42.85739" lon="13.69381"><ele>80.66666666666667</ele><time>2026-04-04T14:55:06.746Z</time></trkpt><trkpt lat="42.8574533" lon="13.6940067"><ele>81.0</ele><time>2026-04-04T14:55:07.747Z</time></trkpt><trkpt lat="42.8575167" lon="13.6942033"><ele>81.0</ele><time>2026-04-04T14:55:08.747Z</time></trkpt><trkpt lat="42.8575817" lon="13.6943983"><ele>81.0</ele><time>2026-04-04T14:55:09.746Z</time></trkpt><trkpt lat="42.8576417" lon="13.6945867"><ele>81.0</ele><time>2026-04-04T14:55:10.747Z</time></trkpt><trkpt lat="42.8577133" lon="13.6947867"><ele>80.0</ele><time>2026-04-04T14:55:11.746Z</time></trkpt><trkpt lat="42.857775" lon="13.6949767"><ele>79.0</ele><time>2026-04-04T14:55:12.747Z</time></trkpt><trkpt lat="42.85789" lon="13.69535"><ele>78.0</ele><time>2026-04-04T14:55:14.746Z</time></trkpt><trkpt lat="42.85795" lon="13.6955367"><ele>76.0</ele><time>2026-04-04T14:55:15.746Z</time></trkpt><trkpt lat="42.858015" lon="13.6957217"><ele>74.0</ele><time>2026-04-04T14:55:16.746Z</time></trkpt><trkpt lat="42.8580833" lon="13.6959183"><ele>72.0</ele><time>2026-04-04T14:55:17.746Z</time></trkpt><trkpt lat="42.8581417" lon="13.69611"><ele>70.66666666666667</ele><time>2026-04-04T14:55:18.746Z</time></trkpt><trkpt lat="42.8581967" lon="13.6963133"><ele>69.33333333333334</ele><time>2026-04-04T14:55:19.746Z</time></trkpt><trkpt lat="42.858255" lon="13.696515"><ele>68.0</ele><time>2026-04-04T14:55:20.746Z</time></trkpt><trkpt lat="42.8583067" lon="13.69672"><ele>68.0</ele><time>2026-04-04T14:55:21.746Z</time></trkpt><trkpt lat="42.858355" lon="13.6969183"><ele>68.0</ele><time>2026-04-04T14:55:22.746Z</time></trkpt><trkpt lat="42.85841" lon="13.6971217"><ele>68.0</ele><time>2026-04-04T14:55:23.747Z</time></trkpt><trkpt lat="42.85847" lon="13.6973183"><ele>68.0</ele><time>2026-04-04T14:55:24.747Z</time></trkpt><trkpt lat="42.85853" lon="13.69751"><ele>68.0</ele><time>2026-04-04T14:55:25.746Z</time></trkpt><trkpt lat="42.8585833" lon="13.6977033"><ele>68.0</ele><time>2026-04-04T14:55:26.746Z</time></trkpt><trkpt lat="42.8586383" lon="13.6978967"><ele>67.33333333333334</ele><time>2026-04-04T14:55:27.746Z</time></trkpt><trkpt lat="42.8586933" lon="13.69809"><ele>66.66666666666667</ele><time>2026-04-04T14:55:28.747Z</time></trkpt><trkpt lat="42.85874" lon="13.698285"><ele>66.0</ele><time>2026-04-04T14:55:29.746Z</time></trkpt><trkpt lat="42.8587783" lon="13.69848"><ele>66.5</ele><time>2026-04-04T14:55:30.746Z</time></trkpt><trkpt lat="42.8588117" lon="13.6986583"><ele>67.0</ele><time>2026-04-04T14:55:31.747Z</time></trkpt><trkpt lat="42.8588317" lon="13.698835"><ele>67.5</ele><time>2026-04-04T14:55:32.746Z</time></trkpt><trkpt lat="42.8588467" lon="13.6990083"><ele>68.0</ele><time>2026-04-04T14:55:33.747Z</time></trkpt><trkpt lat="42.8588217" lon="13.69939"><ele>69.0</ele><time>2026-04-04T14:55:35.746Z</time></trkpt><trkpt lat="42.8587967" lon="13.699595"><ele>70.0</ele><time>2026-04-04T14:55:36.747Z</time></trkpt><trkpt lat="42.858765" lon="13.6997883"><ele>71.0</ele><time>2026-04-04T14:55:37.746Z</time></trkpt><trkpt lat="42.858735" lon="13.700005"><ele>71.0</ele><time>2026-04-04T14:55:38.747Z</time></trkpt><trkpt lat="42.8586967" lon="13.7002167"><ele>71.0</ele><time>2026-04-04T14:55:39.747Z</time></trkpt><trkpt lat="42.8586667" lon="13.7004317"><ele>71.0</ele><time>2026-04-04T14:55:40.746Z</time></trkpt><trkpt lat="42.858645" lon="13.70064"><ele>72.25</ele><time>2026-04-04T14:55:41.747Z</time></trkpt><trkpt lat="42.8586267" lon="13.7008417"><ele>73.5</ele><time>2026-04-04T14:55:42.747Z</time></trkpt><trkpt lat="42.858605" lon="13.7010317"><ele>74.75</ele><time>2026-04-04T14:55:43.746Z</time></trkpt><trkpt lat="42.85859" lon="13.7012217"><ele>76.0</ele><time>2026-04-04T14:55:44.746Z</time></trkpt><trkpt lat="42.8585883" lon="13.7014117"><ele>76.33333333333333</ele><time>2026-04-04T14:55:45.746Z</time></trkpt><trkpt lat="42.8586083" lon="13.7016233"><ele>76.66666666666667</ele><time>2026-04-04T14:55:46.747Z</time></trkpt><trkpt lat="42.8586433" lon="13.701835"><ele>77.0</ele><time>2026-04-04T14:55:47.746Z</time></trkpt><trkpt lat="42.8586783" lon="13.7020517"><ele>77.0</ele><time>2026-04-04T14:55:48.746Z</time></trkpt><trkpt lat="42.8587083" lon="13.7022683"><ele>77.0</ele><time>2026-04-04T14:55:49.746Z</time></trkpt><trkpt lat="42.8587317" lon="13.7024867"><ele>77.0</ele><time>2026-04-04T14:55:50.747Z</time></trkpt><trkpt lat="42.8587583" lon="13.7027033"><ele>77.0</ele><time>2026-04-04T14:55:51.746Z</time></trkpt><trkpt lat="42.8587833" lon="13.702925"><ele>77.0</ele><time>2026-04-04T14:55:52.747Z</time></trkpt><trkpt lat="42.8588" lon="13.7031383"><ele>77.0</ele><time>2026-04-04T14:55:53.747Z</time></trkpt><trkpt lat="42.8588033" lon="13.70336"><ele>77.0</ele><time>2026-04-04T14:55:54.746Z</time></trkpt><trkpt lat="42.858805" lon="13.70358"><ele>77.0</ele><time>2026-04-04T14:55:55.747Z</time></trkpt><trkpt lat="42.85881" lon="13.7038"><ele>77.0</ele><time>2026-04-04T14:55:56.746Z</time></trkpt><trkpt lat="42.858825" lon="13.704015"><ele>76.66666666666667</ele><time>2026-04-04T14:55:57.747Z</time></trkpt><trkpt lat="42.85883" lon="13.7042317"><ele>76.33333333333333</ele><time>2026-04-04T14:55:58.746Z</time></trkpt><trkpt lat="42.8588317" lon="13.704455"><ele>76.0</ele><time>2026-04-04T14:55:59.747Z</time></trkpt><trkpt lat="42.8588317" lon="13.7046833"><ele>75.33333333333333</ele><time>2026-04-04T14:56:00.746Z</time></trkpt><trkpt lat="42.85883" lon="13.7049"><ele>74.66666666666667</ele><time>2026-04-04T14:56:01.746Z</time></trkpt><trkpt lat="42.8588433" lon="13.70512"><ele>74.0</ele><time>2026-04-04T14:56:02.747Z</time></trkpt><trkpt lat="42.8588433" lon="13.705325"><ele>74.0</ele><time>2026-04-04T14:56:03.746Z</time></trkpt><trkpt lat="42.8588483" lon="13.7055283"><ele>74.0</ele><time>2026-04-04T14:56:04.746Z</time></trkpt><trkpt lat="42.85886" lon="13.7057217"><ele>74.0</ele><time>2026-04-04T14:56:05.746Z</time></trkpt><trkpt lat="42.85887" lon="13.70593"><ele>74.0</ele><time>2026-04-04T14:56:06.747Z</time></trkpt><trkpt lat="42.8588933" lon="13.7061283"><ele>74.0</ele><time>2026-04-04T14:56:07.746Z</time></trkpt><trkpt lat="42.8589267" lon="13.7063333"><ele>74.0</ele><time>2026-04-04T14:56:08.747Z</time></trkpt><trkpt lat="42.8589467" lon="13.7065483"><ele>74.0</ele><time>2026-04-04T14:56:09.746Z</time></trkpt><trkpt lat="42.8589717" lon="13.7067533"><ele>72.66666666666667</ele><time>2026-04-04T14:56:10.746Z</time></trkpt><trkpt lat="42.8590017" lon="13.7069517"><ele>71.33333333333333</ele><time>2026-04-04T14:56:11.746Z</time></trkpt><trkpt lat="42.8590267" lon="13.7071617"><ele>70.0</ele><time>2026-04-04T14:56:12.747Z</time></trkpt><trkpt lat="42.8590583" lon="13.7073617"><ele>70.0</ele><time>2026-04-04T14:56:13.747Z</time></trkpt><trkpt lat="42.8590883" lon="13.7075583"><ele>70.0</ele><time>2026-04-04T14:56:14.747Z</time></trkpt><trkpt lat="42.8591283" lon="13.7077533"><ele>70.0</ele><time>2026-04-04T14:56:15.747Z</time></trkpt><trkpt lat="42.859155" lon="13.7079583"><ele>70.0</ele><time>2026-04-04T14:56:16.747Z</time></trkpt><trkpt lat="42.8591783" lon="13.708155"><ele>70.0</ele><time>2026-04-04T14:56:17.747Z</time></trkpt><trkpt lat="42.859205" lon="13.7083633"><ele>70.0</ele><time>2026-04-04T14:56:18.746Z</time></trkpt><trkpt lat="42.85924" lon="13.7085567"><ele>70.0</ele><time>2026-04-04T14:56:19.746Z</time></trkpt><trkpt lat="42.8592867" lon="13.7087533"><ele>70.25</ele><time>2026-04-04T14:56:20.746Z</time></trkpt><trkpt lat="42.859335" lon="13.7089417"><ele>70.5</ele><time>2026-04-04T14:56:21.747Z</time></trkpt><trkpt lat="42.8593983" lon="13.7091283"><ele>70.75</ele><time>2026-04-04T14:56:22.746Z</time></trkpt><trkpt lat="42.859465" lon="13.7093083"><ele>71.0</ele><time>2026-04-04T14:56:23.747Z</time></trkpt><trkpt lat="42.85953" lon="13.7094833"><ele>71.0</ele><time>2026-04-04T14:56:24.747Z</time></trkpt><trkpt lat="42.8596" lon="13.7096583"><ele>71.0</ele><time>2026-04-04T14:56:25.746Z</time></trkpt><trkpt lat="42.8596683" lon="13.7098283"><ele>71.0</ele><time>2026-04-04T14:56:26.747Z</time></trkpt><trkpt lat="42.8597367" lon="13.710005"><ele>71.0</ele><time>2026-04-04T14:56:27.745Z</time></trkpt><trkpt lat="42.8597967" lon="13.7101883"><ele>70.75</ele><time>2026-04-04T14:56:28.745Z</time></trkpt><trkpt lat="42.85986" lon="13.710365"><ele>70.5</ele><time>2026-04-04T14:56:29.746Z</time></trkpt><trkpt lat="42.8599167" lon="13.71055"><ele>70.25</ele><time>2026-04-04T14:56:30.746Z</time></trkpt><trkpt lat="42.85997" lon="13.710735"><ele>70.0</ele><time>2026-04-04T14:56:31.746Z</time></trkpt><trkpt lat="42.86002" lon="13.710915"><ele>70.0</ele><time>2026-04-04T14:56:32.746Z</time></trkpt><trkpt lat="42.8600633" lon="13.711095"><ele>70.0</ele><time>2026-04-04T14:56:33.745Z</time></trkpt><trkpt lat="42.8600933" lon="13.711275"><ele>70.0</ele><time>2026-04-04T14:56:34.745Z</time></trkpt><trkpt lat="42.8601267" lon="13.7114567"><ele>70.0</ele><time>2026-04-04T14:56:35.745Z</time></trkpt><trkpt lat="42.860165" lon="13.7116417"><ele>71.0</ele><time>2026-04-04T14:56:36.746Z</time></trkpt><trkpt lat="42.8601983" lon="13.7118283"><ele>72.0</ele><time>2026-04-04T14:56:37.745Z</time></trkpt><trkpt lat="42.8602317" lon="13.7120067"><ele>73.0</ele><time>2026-04-04T14:56:38.745Z</time></trkpt><trkpt lat="42.86027" lon="13.7121883"><ele>74.0</ele><time>2026-04-04T14:56:39.745Z</time></trkpt><trkpt lat="42.8603083" lon="13.71237"><ele>74.0</ele><time>2026-04-04T14:56:40.746Z</time></trkpt><trkpt lat="42.8603583" lon="13.7125567"><ele>74.0</ele><time>2026-04-04T14:56:41.746Z</time></trkpt><trkpt lat="42.8604117" lon="13.7127383"><ele>74.0</ele><time>2026-04-04T14:56:42.745Z</time></trkpt><trkpt lat="42.8604733" lon="13.7129183"><ele>74.0</ele><time>2026-04-04T14:56:43.746Z</time></trkpt><trkpt lat="42.8605467" lon="13.713095"><ele>73.75</ele><time>2026-04-04T14:56:44.746Z</time></trkpt><trkpt lat="42.8606117" lon="13.7132617"><ele>73.5</ele><time>2026-04-04T14:56:45.745Z</time></trkpt><trkpt lat="42.86068" lon="13.7134267"><ele>73.25</ele><time>2026-04-04T14:56:46.745Z</time></trkpt><trkpt lat="42.8607517" lon="13.7135933"><ele>73.0</ele><time>2026-04-04T14:56:47.746Z</time></trkpt><trkpt lat="42.8608233" lon="13.7137533"><ele>73.0</ele><time>2026-04-04T14:56:48.745Z</time></trkpt><trkpt lat="42.8609017" lon="13.7138967"><ele>73.0</ele><time>2026-04-04T14:56:49.746Z</time></trkpt><trkpt lat="42.8609833" lon="13.7140367"><ele>73.0</ele><time>2026-04-04T14:56:50.745Z</time></trkpt><trkpt lat="42.8610633" lon="13.7141733"><ele>73.0</ele><time>2026-04-04T14:56:51.745Z</time></trkpt><trkpt lat="42.8611383" lon="13.71432"><ele>73.25</ele><time>2026-04-04T14:56:52.745Z</time></trkpt><trkpt lat="42.861195" lon="13.7144733"><ele>73.5</ele><time>2026-04-04T14:56:53.746Z</time></trkpt><trkpt lat="42.8612367" lon="13.7146367"><ele>73.75</ele><time>2026-04-04T14:56:54.745Z</time></trkpt><trkpt lat="42.861255" lon="13.7148183"><ele>74.0</ele><time>2026-04-04T14:56:55.745Z</time></trkpt><trkpt lat="42.8612517" lon="13.7149883"><ele>74.0</ele><time>2026-04-04T14:56:56.746Z</time></trkpt><trkpt lat="42.8612617" lon="13.7151467"><ele>74.0</ele><time>2026-04-04T14:56:57.745Z</time></trkpt><trkpt lat="42.86127" lon="13.7152883"><ele>74.0</ele><time>2026-04-04T14:56:58.745Z</time></trkpt><trkpt lat="42.8612783" lon="13.71542"><ele>74.0</ele><time>2026-04-04T14:56:59.746Z</time></trkpt><trkpt lat="42.8612917" lon="13.71555"><ele>74.0</ele><time>2026-04-04T14:57:00.745Z</time></trkpt><trkpt lat="42.8613167" lon="13.71566"><ele>73.8</ele><time>2026-04-04T14:57:01.745Z</time></trkpt><trkpt lat="42.8613317" lon="13.7157833"><ele>73.60000000000001</ele><time>2026-04-04T14:57:02.746Z</time></trkpt><trkpt lat="42.8613533" lon="13.7159083"><ele>73.4</ele><time>2026-04-04T14:57:03.745Z</time></trkpt><trkpt lat="42.86138" lon="13.7160283"><ele>73.2</ele><time>2026-04-04T14:57:04.745Z</time></trkpt><trkpt lat="42.8613933" lon="13.7161533"><ele>73.0</ele><time>2026-04-04T14:57:05.745Z</time></trkpt><trkpt lat="42.8614117" lon="13.7162717"><ele>73.0</ele><time>2026-04-04T14:57:06.746Z</time></trkpt><trkpt lat="42.8614467" lon="13.716375"><ele>73.0</ele><time>2026-04-04T14:57:07.745Z</time></trkpt><trkpt lat="42.8614717" lon="13.71647"><ele>73.0</ele><time>2026-04-04T14:57:08.746Z</time></trkpt><trkpt lat="42.8615133" lon="13.716565"><ele>73.0</ele><time>2026-04-04T14:57:09.745Z</time></trkpt><trkpt lat="42.8615567" lon="13.71668"><ele>73.0</ele><time>2026-04-04T14:57:10.746Z</time></trkpt><trkpt lat="42.86159" lon="13.7168183"><ele>73.0</ele><time>2026-04-04T14:57:11.746Z</time></trkpt><trkpt lat="42.8616433" lon="13.71696"><ele>73.25</ele><time>2026-04-04T14:57:12.745Z</time></trkpt><trkpt lat="42.8616867" lon="13.7171083"><ele>73.5</ele><time>2026-04-04T14:57:13.746Z</time></trkpt><trkpt lat="42.8617383" lon="13.717265"><ele>73.75</ele><time>2026-04-04T14:57:14.745Z</time></trkpt><trkpt lat="42.8618033" lon="13.7174017"><ele>74.0</ele><time>2026-04-04T14:57:15.746Z</time></trkpt><trkpt lat="42.8618733" lon="13.7175433"><ele>74.0</ele><time>2026-04-04T14:57:16.746Z</time></trkpt><trkpt lat="42.8619483" lon="13.7176817"><ele>74.0</ele><time>2026-04-04T14:57:17.745Z</time></trkpt><trkpt lat="42.8620217" lon="13.71782"><ele>74.0</ele><time>2026-04-04T14:57:18.746Z</time></trkpt><trkpt lat="42.8620933" lon="13.717955"><ele>74.0</ele><time>2026-04-04T14:57:19.746Z</time></trkpt><trkpt lat="42.8621717" lon="13.718085"><ele>73.25</ele><time>2026-04-04T14:57:20.746Z</time></trkpt><trkpt lat="42.8622467" lon="13.7182067"><ele>72.5</ele><time>2026-04-04T14:57:21.746Z</time></trkpt><trkpt lat="42.862325" lon="13.71834"><ele>71.75</ele><time>2026-04-04T14:57:22.746Z</time></trkpt><trkpt lat="42.8624" lon="13.7184633"><ele>71.0</ele><time>2026-04-04T14:57:23.746Z</time></trkpt><trkpt lat="42.8624717" lon="13.71859"><ele>71.0</ele><time>2026-04-04T14:57:24.746Z</time></trkpt><trkpt lat="42.8625483" lon="13.71871"><ele>71.0</ele><time>2026-04-04T14:57:25.745Z</time></trkpt><trkpt lat="42.8626233" lon="13.7188367"><ele>71.0</ele><time>2026-04-04T14:57:26.745Z</time></trkpt><trkpt lat="42.8626983" lon="13.7189583"><ele>71.0</ele><time>2026-04-04T14:57:27.745Z</time></trkpt><trkpt lat="42.8627767" lon="13.7190983"><ele>71.75</ele><time>2026-04-04T14:57:28.746Z</time></trkpt><trkpt lat="42.86285" lon="13.7192233"><ele>72.5</ele><time>2026-04-04T14:57:29.746Z</time></trkpt><trkpt lat="42.8629133" lon="13.71936"><ele>73.25</ele><time>2026-04-04T14:57:30.746Z</time></trkpt><trkpt lat="42.86298" lon="13.7194983"><ele>74.0</ele><time>2026-04-04T14:57:31.745Z</time></trkpt><trkpt lat="42.8630467" lon="13.719635"><ele>74.0</ele><time>2026-04-04T14:57:32.746Z</time></trkpt><trkpt lat="42.8631067" lon="13.7197767"><ele>74.0</ele><time>2026-04-04T14:57:33.745Z</time></trkpt><trkpt lat="42.863165" lon="13.71993"><ele>74.0</ele><time>2026-04-04T14:57:34.745Z</time></trkpt><trkpt lat="42.8632117" lon="13.7200883"><ele>74.0</ele><time>2026-04-04T14:57:35.746Z</time></trkpt><trkpt lat="42.86325" lon="13.7202433"><ele>74.0</ele><time>2026-04-04T14:57:36.745Z</time></trkpt><trkpt lat="42.86328" lon="13.7204017"><ele>74.0</ele><time>2026-04-04T14:57:37.745Z</time></trkpt><trkpt lat="42.8633" lon="13.7205617"><ele>74.0</ele><time>2026-04-04T14:57:38.746Z</time></trkpt><trkpt lat="42.863315" lon="13.7207317"><ele>74.0</ele><time>2026-04-04T14:57:39.746Z</time></trkpt><trkpt lat="42.8633333" lon="13.7209067"><ele>73.5</ele><time>2026-04-04T14:57:40.745Z</time></trkpt><trkpt lat="42.863365" lon="13.7210817"><ele>73.0</ele><time>2026-04-04T14:57:41.746Z</time></trkpt><trkpt lat="42.863395" lon="13.7212533"><ele>72.5</ele><time>2026-04-04T14:57:42.745Z</time></trkpt><trkpt lat="42.863445" lon="13.721425"><ele>72.0</ele><time>2026-04-04T14:57:43.745Z</time></trkpt><trkpt lat="42.8634933" lon="13.7215967"><ele>71.5</ele><time>2026-04-04T14:57:44.745Z</time></trkpt><trkpt lat="42.86355" lon="13.7217633"><ele>71.0</ele><time>2026-04-04T14:57:45.745Z</time></trkpt><trkpt lat="42.8636117" lon="13.7219233"><ele>70.5</ele><time>2026-04-04T14:57:46.745Z</time></trkpt><trkpt lat="42.8636867" lon="13.7220667"><ele>70.0</ele><time>2026-04-04T14:57:47.746Z</time></trkpt><trkpt lat="42.8637717" lon="13.7222083"><ele>70.0</ele><time>2026-04-04T14:57:48.745Z</time></trkpt><trkpt lat="42.8638683" lon="13.722345"><ele>70.0</ele><time>2026-04-04T14:57:49.745Z</time></trkpt><trkpt lat="42.8639517" lon="13.7224783"><ele>70.0</ele><time>2026-04-04T14:57:50.745Z</time></trkpt><trkpt lat="42.8640383" lon="13.7226117"><ele>70.0</ele><time>2026-04-04T14:57:51.746Z</time></trkpt><trkpt lat="42.864125" lon="13.7227433"><ele>70.75</ele><time>2026-04-04T14:57:52.745Z</time></trkpt><trkpt lat="42.864215" lon="13.7228783"><ele>71.5</ele><time>2026-04-04T14:57:53.745Z</time></trkpt><trkpt lat="42.8642983" lon="13.7230133"><ele>72.25</ele><time>2026-04-04T14:57:54.745Z</time></trkpt><trkpt lat="42.8643917" lon="13.72315"><ele>73.0</ele><time>2026-04-04T14:57:55.745Z</time></trkpt><trkpt lat="42.86448" lon="13.7232917"><ele>73.0</ele><time>2026-04-04T14:57:56.745Z</time></trkpt><trkpt lat="42.8645583" lon="13.7234367"><ele>73.0</ele><time>2026-04-04T14:57:57.745Z</time></trkpt><trkpt lat="42.864635" lon="13.723575"><ele>73.0</ele><time>2026-04-04T14:57:58.746Z</time></trkpt><trkpt lat="42.8647117" lon="13.723705"><ele>73.0</ele><time>2026-04-04T14:57:59.745Z</time></trkpt><trkpt lat="42.8647833" lon="13.7238183"><ele>71.2</ele><time>2026-04-04T14:58:00.745Z</time></trkpt><trkpt lat="42.86485" lon="13.72393"><ele>69.4</ele><time>2026-04-04T14:58:01.745Z</time></trkpt><trkpt lat="42.8649183" lon="13.724025"><ele>67.60000000000001</ele><time>2026-04-04T14:58:02.746Z</time></trkpt><trkpt lat="42.8649717" lon="13.7241217"><ele>65.8</ele><time>2026-04-04T14:58:03.745Z</time></trkpt><trkpt lat="42.8650133" lon="13.72422"><ele>64.0</ele><time>2026-04-04T14:58:04.745Z</time></trkpt><trkpt lat="42.865045" lon="13.7243317"><ele>63.49999999999999</ele><time>2026-04-04T14:58:05.745Z</time></trkpt><trkpt lat="42.865065" lon="13.724445"><ele>63.0</ele><time>2026-04-04T14:58:06.745Z</time></trkpt><trkpt lat="42.8650617" lon="13.72456"><ele>62.5</ele><time>2026-04-04T14:58:07.746Z</time></trkpt><trkpt lat="42.8650833" lon="13.7246483"><ele>62.0</ele><time>2026-04-04T14:58:08.745Z</time></trkpt><trkpt lat="42.86517" lon="13.7247067"><ele>61.49999999999999</ele><time>2026-04-04T14:58:10.745Z</time></trkpt><trkpt lat="42.865235" lon="13.7246767"><ele>61.0</ele><time>2026-04-04T14:58:11.746Z</time></trkpt><trkpt lat="42.8653117" lon="13.7246067"><ele>61.0</ele><time>2026-04-04T14:58:12.746Z</time></trkpt><trkpt lat="42.8653967" lon="13.7245233"><ele>60.99999999999999</ele><time>2026-04-04T14:58:13.745Z</time></trkpt><trkpt lat="42.865485" lon="13.724465"><ele>60.99999999999999</ele><time>2026-04-04T14:58:14.745Z</time></trkpt><trkpt lat="42.8655683" lon="13.7244567"><ele>61.0</ele><time>2026-04-04T14:58:15.745Z</time></trkpt><trkpt lat="42.8656483" lon="13.72448"><ele>61.0</ele><time>2026-04-04T14:58:16.745Z</time></trkpt><trkpt lat="42.86573" lon="13.7245183"><ele>61.0</ele><time>2026-04-04T14:58:17.745Z</time></trkpt><trkpt lat="42.8658233" lon="13.724545"><ele>60.99999999999999</ele><time>2026-04-04T14:58:18.745Z</time></trkpt><trkpt lat="42.865935" lon="13.7245617"><ele>60.99999999999999</ele><time>2026-04-04T14:58:19.746Z</time></trkpt><trkpt lat="42.8660517" lon="13.724575"><ele>61.0</ele><time>2026-04-04T14:58:20.745Z</time></trkpt><trkpt lat="42.8661633" lon="13.7245917"><ele>61.0</ele><time>2026-04-04T14:58:21.746Z</time></trkpt><trkpt lat="42.866275" lon="13.7246033"><ele>61.25</ele><time>2026-04-04T14:58:22.745Z</time></trkpt><trkpt lat="42.8663883" lon="13.724615"><ele>61.5</ele><time>2026-04-04T14:58:23.745Z</time></trkpt><trkpt lat="42.866495" lon="13.72464"><ele>61.75</ele><time>2026-04-04T14:58:24.745Z</time></trkpt><trkpt lat="42.866605" lon="13.7246767"><ele>62.0</ele><time>2026-04-04T14:58:25.745Z</time></trkpt><trkpt lat="42.866715" lon="13.7247267"><ele>61.400000000000006</ele><time>2026-04-04T14:58:26.745Z</time></trkpt><trkpt lat="42.8668233" lon="13.7248"><ele>60.800000000000004</ele><time>2026-04-04T14:58:27.745Z</time></trkpt><trkpt lat="42.86693" lon="13.724865"><ele>60.2</ele><time>2026-04-04T14:58:28.746Z</time></trkpt><trkpt lat="42.8670267" lon="13.7249317"><ele>59.6</ele><time>2026-04-04T14:58:29.745Z</time></trkpt><trkpt lat="42.86712" lon="13.7249883"><ele>59.0</ele><time>2026-04-04T14:58:30.745Z</time></trkpt><trkpt lat="42.867215" lon="13.7250133"><ele>59.0</ele><time>2026-04-04T14:58:31.746Z</time></trkpt><trkpt lat="42.8673117" lon="13.72502"><ele>59.00000000000001</ele><time>2026-04-04T14:58:32.745Z</time></trkpt><trkpt lat="42.86742" lon="13.7249967"><ele>59.00000000000001</ele><time>2026-04-04T14:58:33.746Z</time></trkpt><trkpt lat="42.86753" lon="13.724965"><ele>59.0</ele><time>2026-04-04T14:58:34.745Z</time></trkpt><trkpt lat="42.8676417" lon="13.724905"><ele>59.0</ele><time>2026-04-04T14:58:35.746Z</time></trkpt><trkpt lat="42.8677567" lon="13.7248367"><ele>59.0</ele><time>2026-04-04T14:58:36.745Z</time></trkpt><trkpt lat="42.8678767" lon="13.72477"><ele>59.0</ele><time>2026-04-04T14:58:37.746Z</time></trkpt><trkpt lat="42.868" lon="13.724705"><ele>59.0</ele><time>2026-04-04T14:58:38.745Z</time></trkpt><trkpt lat="42.8681233" lon="13.7246267"><ele>59.0</ele><time>2026-04-04T14:58:39.745Z</time></trkpt><trkpt lat="42.8682467" lon="13.7245483"><ele>59.0</ele><time>2026-04-04T14:58:40.746Z</time></trkpt><trkpt lat="42.86837" lon="13.7244617"><ele>59.0</ele><time>2026-04-04T14:58:41.745Z</time></trkpt><trkpt lat="42.8684933" lon="13.724385"><ele>59.0</ele><time>2026-04-04T14:58:42.746Z</time></trkpt><trkpt lat="42.86862" lon="13.7243117"><ele>59.0</ele><time>2026-04-04T14:58:43.745Z</time></trkpt><trkpt lat="42.8687383" lon="13.7242533"><ele>59.25</ele><time>2026-04-04T14:58:44.745Z</time></trkpt><trkpt lat="42.8688633" lon="13.7241917"><ele>59.5</ele><time>2026-04-04T14:58:45.745Z</time></trkpt><trkpt lat="42.8689833" lon="13.7241167"><ele>59.75</ele><time>2026-04-04T14:58:46.746Z</time></trkpt><trkpt lat="42.8690983" lon="13.72403"><ele>60.0</ele><time>2026-04-04T14:58:47.746Z</time></trkpt><trkpt lat="42.8692217" lon="13.7239467"><ele>61.25</ele><time>2026-04-04T14:58:48.746Z</time></trkpt><trkpt lat="42.8693433" lon="13.7238567"><ele>62.5</ele><time>2026-04-04T14:58:49.745Z</time></trkpt><trkpt lat="42.869465" lon="13.7237567"><ele>63.75</ele><time>2026-04-04T14:58:50.746Z</time></trkpt><trkpt lat="42.86957" lon="13.7236533"><ele>65.0</ele><time>2026-04-04T14:58:51.745Z</time></trkpt><trkpt lat="42.8696883" lon="13.7235567"><ele>65.0</ele><time>2026-04-04T14:58:52.745Z</time></trkpt><trkpt lat="42.8697933" lon="13.7234917"><ele>65.0</ele><time>2026-04-04T14:58:53.745Z</time></trkpt><trkpt lat="42.86991" lon="13.7234533"><ele>65.0</ele><time>2026-04-04T14:58:54.745Z</time></trkpt><trkpt lat="42.8700367" lon="13.723445"><ele>65.0</ele><time>2026-04-04T14:58:55.745Z</time></trkpt><trkpt lat="42.87015" lon="13.72346"><ele>66.5</ele><time>2026-04-04T14:58:56.745Z</time></trkpt><trkpt lat="42.8702733" lon="13.7234583"><ele>68.0</ele><time>2026-04-04T14:58:57.746Z</time></trkpt><trkpt lat="42.8703917" lon="13.7234317"><ele>69.5</ele><time>2026-04-04T14:58:58.745Z</time></trkpt><trkpt lat="42.8705017" lon="13.7233533"><ele>71.0</ele><time>2026-04-04T14:58:59.746Z</time></trkpt><trkpt lat="42.8705967" lon="13.7232367"><ele>71.0</ele><time>2026-04-04T14:59:00.745Z</time></trkpt><trkpt lat="42.8706917" lon="13.7231183"><ele>71.0</ele><time>2026-04-04T14:59:01.745Z</time></trkpt><trkpt lat="42.8708017" lon="13.72301"><ele>71.0</ele><time>2026-04-04T14:59:02.745Z</time></trkpt><trkpt lat="42.8709167" lon="13.72293"><ele>71.0</ele><time>2026-04-04T14:59:03.746Z</time></trkpt><trkpt lat="42.8710517" lon="13.7228583"><ele>72.0</ele><time>2026-04-04T14:59:04.745Z</time></trkpt><trkpt lat="42.87119" lon="13.7228083"><ele>73.0</ele><time>2026-04-04T14:59:05.745Z</time></trkpt><trkpt lat="42.87133" lon="13.7227767"><ele>74.0</ele><time>2026-04-04T14:59:06.745Z</time></trkpt><trkpt lat="42.87147" lon="13.7227567"><ele>75.0</ele><time>2026-04-04T14:59:07.745Z</time></trkpt><trkpt lat="42.871605" lon="13.722745"><ele>75.0</ele><time>2026-04-04T14:59:08.745Z</time></trkpt><trkpt lat="42.8717417" lon="13.7227333"><ele>75.0</ele><time>2026-04-04T14:59:09.745Z</time></trkpt><trkpt lat="42.8718783" lon="13.7226933"><ele>75.0</ele><time>2026-04-04T14:59:10.745Z</time></trkpt><trkpt lat="42.8720117" lon="13.7226017"><ele>75.0</ele><time>2026-04-04T14:59:11.746Z</time></trkpt><trkpt lat="42.8721383" lon="13.7224883"><ele>75.0</ele><time>2026-04-04T14:59:12.746Z</time></trkpt><trkpt lat="42.8722617" lon="13.72235"><ele>75.0</ele><time>2026-04-04T14:59:13.745Z</time></trkpt><trkpt lat="42.8723783" lon="13.7222233"><ele>75.0</ele><time>2026-04-04T14:59:14.745Z</time></trkpt><trkpt lat="42.8724917" lon="13.722105"><ele>75.0</ele><time>2026-04-04T14:59:15.745Z</time></trkpt><trkpt lat="42.8725983" lon="13.7219833"><ele>75.0</ele><time>2026-04-04T14:59:16.745Z</time></trkpt><trkpt lat="42.8727117" lon="13.7218583"><ele>75.0</ele><time>2026-04-04T14:59:17.745Z</time></trkpt><trkpt lat="42.872825" lon="13.7217367"><ele>75.0</ele><time>2026-04-04T14:59:18.745Z</time></trkpt><trkpt lat="42.8729467" lon="13.721625"><ele>75.0</ele><time>2026-04-04T14:59:19.745Z</time></trkpt><trkpt lat="42.873065" lon="13.721525"><ele>75.0</ele><time>2026-04-04T14:59:20.745Z</time></trkpt><trkpt lat="42.8731933" lon="13.721425"><ele>75.0</ele><time>2026-04-04T14:59:21.745Z</time></trkpt><trkpt lat="42.8733233" lon="13.7213417"><ele>75.0</ele><time>2026-04-04T14:59:22.745Z</time></trkpt><trkpt lat="42.87345" lon="13.7212783"><ele>75.0</ele><time>2026-04-04T14:59:23.746Z</time></trkpt><trkpt lat="42.87357" lon="13.7212133"><ele>75.0</ele><time>2026-04-04T14:59:24.746Z</time></trkpt><trkpt lat="42.8736733" lon="13.721135"><ele>75.0</ele><time>2026-04-04T14:59:25.745Z</time></trkpt><trkpt lat="42.8737583" lon="13.721045"><ele>75.0</ele><time>2026-04-04T14:59:26.746Z</time></trkpt><trkpt lat="42.873825" lon="13.72093"><ele>73.0</ele><time>2026-04-04T14:59:27.746Z</time></trkpt><trkpt lat="42.8738767" lon="13.72078"><ele>71.0</ele><time>2026-04-04T14:59:28.746Z</time></trkpt><trkpt lat="42.87391" lon="13.720615"><ele>69.0</ele><time>2026-04-04T14:59:29.745Z</time></trkpt><trkpt lat="42.8739367" lon="13.7204283"><ele>67.0</ele><time>2026-04-04T14:59:30.745Z</time></trkpt><trkpt lat="42.8739733" lon="13.7202317"><ele>66.75</ele><time>2026-04-04T14:59:31.745Z</time></trkpt><trkpt lat="42.87401" lon="13.7200417"><ele>66.5</ele><time>2026-04-04T14:59:32.745Z</time></trkpt><trkpt lat="42.8740433" lon="13.7198467"><ele>66.25</ele><time>2026-04-04T14:59:33.745Z</time></trkpt><trkpt lat="42.8740733" lon="13.7196583"><ele>66.0</ele><time>2026-04-04T14:59:34.745Z</time></trkpt><trkpt lat="42.8741033" lon="13.7194767"><ele>66.39999999999999</ele><time>2026-04-04T14:59:35.746Z</time></trkpt><trkpt lat="42.8741233" lon="13.7193267"><ele>66.8</ele><time>2026-04-04T14:59:36.746Z</time></trkpt><trkpt lat="42.8741617" lon="13.7192067"><ele>67.19999999999999</ele><time>2026-04-04T14:59:37.745Z</time></trkpt><trkpt lat="42.87422" lon="13.7191217"><ele>67.6</ele><time>2026-04-04T14:59:38.746Z</time></trkpt><trkpt lat="42.874285" lon="13.7190633"><ele>68.0</ele><time>2026-04-04T14:59:39.745Z</time></trkpt><trkpt lat="42.8743783" lon="13.7190483"><ele>69.5</ele><time>2026-04-04T14:59:40.745Z</time></trkpt><trkpt lat="42.8744783" lon="13.719065"><ele>71.0</ele><time>2026-04-04T14:59:41.746Z</time></trkpt><trkpt lat="42.8745917" lon="13.7191117"><ele>72.5</ele><time>2026-04-04T14:59:42.745Z</time></trkpt><trkpt lat="42.87471" lon="13.7191467"><ele>74.0</ele><time>2026-04-04T14:59:43.745Z</time></trkpt><trkpt lat="42.874835" lon="13.7191517"><ele>74.0</ele><time>2026-04-04T14:59:44.745Z</time></trkpt><trkpt lat="42.8749617" lon="13.7191283"><ele>74.0</ele><time>2026-04-04T14:59:45.745Z</time></trkpt><trkpt lat="42.87507" lon="13.71909"><ele>74.0</ele><time>2026-04-04T14:59:46.745Z</time></trkpt><trkpt lat="42.8751633" lon="13.71906"><ele>74.0</ele><time>2026-04-04T14:59:47.745Z</time></trkpt><trkpt lat="42.8752433" lon="13.7190583"><ele>74.0</ele><time>2026-04-04T14:59:48.745Z</time></trkpt><trkpt lat="42.8753117" lon="13.7190917"><ele>75.4</ele><time>2026-04-04T14:59:49.745Z</time></trkpt><trkpt lat="42.8753567" lon="13.7191667"><ele>76.80000000000001</ele><time>2026-04-04T14:59:50.746Z</time></trkpt><trkpt lat="42.8753967" lon="13.7192817"><ele>78.19999999999999</ele><time>2026-04-04T14:59:51.745Z</time></trkpt><trkpt lat="42.8754333" lon="13.7194217"><ele>79.6</ele><time>2026-04-04T14:59:52.745Z</time></trkpt><trkpt lat="42.8754867" lon="13.71956"><ele>81.0</ele><time>2026-04-04T14:59:53.745Z</time></trkpt><trkpt lat="42.87556" lon="13.7196733"><ele>81.0</ele><time>2026-04-04T14:59:54.746Z</time></trkpt><trkpt lat="42.8756633" lon="13.71978"><ele>81.0</ele><time>2026-04-04T14:59:55.746Z</time></trkpt><trkpt lat="42.8757933" lon="13.71985"><ele>81.0</ele><time>2026-04-04T14:59:56.745Z</time></trkpt><trkpt lat="42.8759283" lon="13.7199067"><ele>81.0</ele><time>2026-04-04T14:59:57.745Z</time></trkpt><trkpt lat="42.8760633" lon="13.7199333"><ele>80.5</ele><time>2026-04-04T14:59:58.745Z</time></trkpt><trkpt lat="42.8761767" lon="13.71993"><ele>80.0</ele><time>2026-04-04T14:59:59.745Z</time></trkpt><trkpt lat="42.8762933" lon="13.7198767"><ele>79.5</ele><time>2026-04-04T15:00:00.745Z</time></trkpt><trkpt lat="42.8764033" lon="13.719785"><ele>79.0</ele><time>2026-04-04T15:00:01.745Z</time></trkpt><trkpt lat="42.8765117" lon="13.7196933"><ele>79.0</ele><time>2026-04-04T15:00:02.745Z</time></trkpt><trkpt lat="42.8766317" lon="13.719585"><ele>79.0</ele><time>2026-04-04T15:00:03.746Z</time></trkpt><trkpt lat="42.876755" lon="13.7194767"><ele>79.0</ele><time>2026-04-04T15:00:04.745Z</time></trkpt><trkpt lat="42.8768683" lon="13.7193767"><ele>79.0</ele><time>2026-04-04T15:00:05.745Z</time></trkpt><trkpt lat="42.8769733" lon="13.719295"><ele>83.5</ele><time>2026-04-04T15:00:06.745Z</time></trkpt><trkpt lat="42.8770883" lon="13.7192217"><ele>88.0</ele><time>2026-04-04T15:00:07.745Z</time></trkpt><trkpt lat="42.8772167" lon="13.7191767"><ele>92.5</ele><time>2026-04-04T15:00:08.745Z</time></trkpt><trkpt lat="42.8773467" lon="13.719155"><ele>97.0</ele><time>2026-04-04T15:00:09.746Z</time></trkpt><trkpt lat="42.8774867" lon="13.71914"><ele>96.5</ele><time>2026-04-04T15:00:10.746Z</time></trkpt><trkpt lat="42.8776267" lon="13.719115"><ele>96.0</ele><time>2026-04-04T15:00:11.745Z</time></trkpt><trkpt lat="42.87776" lon="13.7190883"><ele>95.5</ele><time>2026-04-04T15:00:12.746Z</time></trkpt><trkpt lat="42.8778967" lon="13.7190467"><ele>95.0</ele><time>2026-04-04T15:00:13.745Z</time></trkpt><trkpt lat="42.8780167" lon="13.7189967"><ele>95.0</ele><time>2026-04-04T15:00:14.745Z</time></trkpt><trkpt lat="42.8781467" lon="13.718945"><ele>95.0</ele><time>2026-04-04T15:00:15.745Z</time></trkpt><trkpt lat="42.8782767" lon="13.7189033"><ele>95.0</ele><time>2026-04-04T15:00:16.745Z</time></trkpt><trkpt lat="42.8784067" lon="13.7188683"><ele>95.0</ele><time>2026-04-04T15:00:17.746Z</time></trkpt><trkpt lat="42.8785217" lon="13.7188217"><ele>93.75</ele><time>2026-04-04T15:00:18.746Z</time></trkpt><trkpt lat="42.8786317" lon="13.7187633"><ele>92.5</ele><time>2026-04-04T15:00:19.745Z</time></trkpt><trkpt lat="42.8787483" lon="13.7186867"><ele>91.25</ele><time>2026-04-04T15:00:20.745Z</time></trkpt><trkpt lat="42.87885" lon="13.718605"><ele>90.0</ele><time>2026-04-04T15:00:21.745Z</time></trkpt><trkpt lat="42.8789583" lon="13.71851"><ele>91.5</ele><time>2026-04-04T15:00:22.745Z</time></trkpt><trkpt lat="42.8790733" lon="13.7184017"><ele>93.0</ele><time>2026-04-04T15:00:23.744Z</time></trkpt><trkpt lat="42.8791867" lon="13.7182917"><ele>94.5</ele><time>2026-04-04T15:00:24.744Z</time></trkpt><trkpt lat="42.8792983" lon="13.718185"><ele>96.0</ele><time>2026-04-04T15:00:25.745Z</time></trkpt><trkpt lat="42.87941" lon="13.718085"><ele>96.0</ele><time>2026-04-04T15:00:26.744Z</time></trkpt><trkpt lat="42.8795183" lon="13.7179833"><ele>96.0</ele><time>2026-04-04T15:00:27.745Z</time></trkpt><trkpt lat="42.8796333" lon="13.7178767"><ele>96.0</ele><time>2026-04-04T15:00:28.744Z</time></trkpt><trkpt lat="42.879755" lon="13.7177783"><ele>96.0</ele><time>2026-04-04T15:00:29.745Z</time></trkpt><trkpt lat="42.87988" lon="13.7176883"><ele>99.5</ele><time>2026-04-04T15:00:30.745Z</time></trkpt><trkpt lat="42.8800083" lon="13.7175917"><ele>103.0</ele><time>2026-04-04T15:00:31.744Z</time></trkpt><trkpt lat="42.8801267" lon="13.71751"><ele>106.5</ele><time>2026-04-04T15:00:32.744Z</time></trkpt><trkpt lat="42.880255" lon="13.71743"><ele>110.0</ele><time>2026-04-04T15:00:33.744Z</time></trkpt><trkpt lat="42.880385" lon="13.7173467"><ele>110.0</ele><time>2026-04-04T15:00:34.744Z</time></trkpt><trkpt lat="42.8805183" lon="13.7172583"><ele>110.0</ele><time>2026-04-04T15:00:35.744Z</time></trkpt><trkpt lat="42.8806567" lon="13.71716"><ele>110.0</ele><time>2026-04-04T15:00:36.744Z</time></trkpt><trkpt lat="42.8807983" lon="13.7170717"><ele>107.0</ele><time>2026-04-04T15:00:37.744Z</time></trkpt><trkpt lat="42.8809367" lon="13.71698"><ele>104.0</ele><time>2026-04-04T15:00:38.744Z</time></trkpt><trkpt lat="42.8810733" lon="13.7169033"><ele>101.0</ele><time>2026-04-04T15:00:39.744Z</time></trkpt><trkpt lat="42.8812083" lon="13.7168133"><ele>106.75</ele><time>2026-04-04T15:00:40.744Z</time></trkpt><trkpt lat="42.88134" lon="13.7167217"><ele>112.5</ele><time>2026-04-04T15:00:41.744Z</time></trkpt><trkpt lat="42.8814767" lon="13.7166433"><ele>118.25</ele><time>2026-04-04T15:00:42.745Z</time></trkpt><trkpt lat="42.8816067" lon="13.7165733"><ele>124.0</ele><time>2026-04-04T15:00:43.744Z</time></trkpt><trkpt lat="42.8817367" lon="13.7165133"><ele>123.0</ele><time>2026-04-04T15:00:44.744Z</time></trkpt><trkpt lat="42.8818733" lon="13.7164483"><ele>122.0</ele><time>2026-04-04T15:00:45.744Z</time></trkpt><trkpt lat="42.88202" lon="13.7164033"><ele>121.0</ele><time>2026-04-04T15:00:46.744Z</time></trkpt><trkpt lat="42.882165" lon="13.7163583"><ele>120.0</ele><time>2026-04-04T15:00:47.744Z</time></trkpt><trkpt lat="42.8823033" lon="13.71632"><ele>120.0</ele><time>2026-04-04T15:00:48.744Z</time></trkpt><trkpt lat="42.8824467" lon="13.7162683"><ele>120.0</ele><time>2026-04-04T15:00:49.744Z</time></trkpt><trkpt lat="42.882575" lon="13.7162267"><ele>120.0</ele><time>2026-04-04T15:00:50.744Z</time></trkpt><trkpt lat="42.882715" lon="13.7161767"><ele>120.0</ele><time>2026-04-04T15:00:51.744Z</time></trkpt><trkpt lat="42.88285" lon="13.71612"><ele>122.75</ele><time>2026-04-04T15:00:52.744Z</time></trkpt><trkpt lat="42.8829867" lon="13.71605"><ele>125.5</ele><time>2026-04-04T15:00:53.745Z</time></trkpt><trkpt lat="42.8831133" lon="13.7159583"><ele>128.25</ele><time>2026-04-04T15:00:54.744Z</time></trkpt><trkpt lat="42.8832367" lon="13.715855"><ele>131.0</ele><time>2026-04-04T15:00:55.744Z</time></trkpt><trkpt lat="42.88336" lon="13.7157317"><ele>128.5</ele><time>2026-04-04T15:00:56.744Z</time></trkpt><trkpt lat="42.8834667" lon="13.7156017"><ele>126.0</ele><time>2026-04-04T15:00:57.744Z</time></trkpt><trkpt lat="42.88357" lon="13.71548"><ele>123.5</ele><time>2026-04-04T15:00:58.745Z</time></trkpt><trkpt lat="42.883675" lon="13.71536"><ele>121.0</ele><time>2026-04-04T15:00:59.744Z</time></trkpt><trkpt lat="42.88378" lon="13.7152433"><ele>123.5</ele><time>2026-04-04T15:01:00.745Z</time></trkpt><trkpt lat="42.8838983" lon="13.715145"><ele>126.0</ele><time>2026-04-04T15:01:01.744Z</time></trkpt><trkpt lat="42.8840217" lon="13.715065"><ele>128.5</ele><time>2026-04-04T15:01:02.744Z</time></trkpt><trkpt lat="42.8841467" lon="13.71499"><ele>131.0</ele><time>2026-04-04T15:01:03.745Z</time></trkpt><trkpt lat="42.8842667" lon="13.71492"><ele>131.0</ele><time>2026-04-04T15:01:04.744Z</time></trkpt><trkpt lat="42.8843733" lon="13.7148383"><ele>131.0</ele><time>2026-04-04T15:01:05.745Z</time></trkpt><trkpt lat="42.8844817" lon="13.71476"><ele>131.0</ele><time>2026-04-04T15:01:06.744Z</time></trkpt><trkpt lat="42.8845817" lon="13.7146783"><ele>131.0</ele><time>2026-04-04T15:01:07.744Z</time></trkpt><trkpt lat="42.8847" lon="13.7145917"><ele>131.0</ele><time>2026-04-04T15:01:08.744Z</time></trkpt><trkpt lat="42.8848117" lon="13.7145133"><ele>131.0</ele><time>2026-04-04T15:01:09.744Z</time></trkpt><trkpt lat="42.884925" lon="13.7144367"><ele>131.0</ele><time>2026-04-04T15:01:10.744Z</time></trkpt><trkpt lat="42.8850567" lon="13.714385"><ele>131.0</ele><time>2026-04-04T15:01:11.744Z</time></trkpt><trkpt lat="42.8851917" lon="13.7143433"><ele>134.0</ele><time>2026-04-04T15:01:12.745Z</time></trkpt><trkpt lat="42.88531" lon="13.714315"><ele>137.0</ele><time>2026-04-04T15:01:13.744Z</time></trkpt><trkpt lat="42.88542" lon="13.7142717"><ele>140.0</ele><time>2026-04-04T15:01:14.744Z</time></trkpt><trkpt lat="42.8855317" lon="13.7142183"><ele>143.0</ele><time>2026-04-04T15:01:15.744Z</time></trkpt><trkpt lat="42.8856483" lon="13.71414"><ele>143.0</ele><time>2026-04-04T15:01:16.744Z</time></trkpt><trkpt lat="42.88577" lon="13.7140383"><ele>143.0</ele><time>2026-04-04T15:01:17.744Z</time></trkpt><trkpt lat="42.8858833" lon="13.7139367"><ele>143.0</ele><time>2026-04-04T15:01:18.745Z</time></trkpt><trkpt lat="42.8859983" lon="13.71384"><ele>143.0</ele><time>2026-04-04T15:01:19.744Z</time></trkpt><trkpt lat="42.886115" lon="13.71376"><ele>144.25</ele><time>2026-04-04T15:01:20.745Z</time></trkpt><trkpt lat="42.8862417" lon="13.7137017"><ele>145.5</ele><time>2026-04-04T15:01:21.744Z</time></trkpt><trkpt lat="42.886375" lon="13.713655"><ele>146.75</ele><time>2026-04-04T15:01:22.745Z</time></trkpt><trkpt lat="42.886515" lon="13.713615"><ele>148.0</ele><time>2026-04-04T15:01:23.745Z</time></trkpt><trkpt lat="42.886645" lon="13.7135717"><ele>147.0</ele><time>2026-04-04T15:01:24.744Z</time></trkpt><trkpt lat="42.88678" lon="13.7135117"><ele>146.0</ele><time>2026-04-04T15:01:25.745Z</time></trkpt><trkpt lat="42.8869217" lon="13.7134617"><ele>145.0</ele><time>2026-04-04T15:01:26.745Z</time></trkpt><trkpt lat="42.8870633" lon="13.7134083"><ele>144.0</ele><time>2026-04-04T15:01:27.744Z</time></trkpt><trkpt lat="42.8871983" lon="13.7133617"><ele>144.0</ele><time>2026-04-04T15:01:28.744Z</time></trkpt><trkpt lat="42.887335" lon="13.7133117"><ele>144.0</ele><time>2026-04-04T15:01:29.744Z</time></trkpt><trkpt lat="42.8874717" lon="13.7132633"><ele>144.0</ele><time>2026-04-04T15:01:30.745Z</time></trkpt><trkpt lat="42.8876" lon="13.713215"><ele>144.0</ele><time>2026-04-04T15:01:31.745Z</time></trkpt><trkpt lat="42.8877233" lon="13.7131667"><ele>142.75</ele><time>2026-04-04T15:01:32.744Z</time></trkpt><trkpt lat="42.8878467" lon="13.7131133"><ele>141.5</ele><time>2026-04-04T15:01:33.744Z</time></trkpt><trkpt lat="42.8879667" lon="13.713055"><ele>140.25</ele><time>2026-04-04T15:01:34.744Z</time></trkpt><trkpt lat="42.8880967" lon="13.71299"><ele>139.0</ele><time>2026-04-04T15:01:35.744Z</time></trkpt><trkpt lat="42.8882333" lon="13.712925"><ele>139.0</ele><time>2026-04-04T15:01:36.745Z</time></trkpt><trkpt lat="42.8883617" lon="13.7128617"><ele>139.0</ele><time>2026-04-04T15:01:37.745Z</time></trkpt><trkpt lat="42.88849" lon="13.7127967"><ele>139.0</ele><time>2026-04-04T15:01:38.744Z</time></trkpt><trkpt lat="42.8886233" lon="13.7127417"><ele>139.0</ele><time>2026-04-04T15:01:39.744Z</time></trkpt><trkpt lat="42.88875" lon="13.7127017"><ele>138.25</ele><time>2026-04-04T15:01:40.745Z</time></trkpt><trkpt lat="42.8888783" lon="13.7127017"><ele>137.5</ele><time>2026-04-04T15:01:41.745Z</time></trkpt><trkpt lat="42.8890033" lon="13.7127333"><ele>136.75</ele><time>2026-04-04T15:01:42.744Z</time></trkpt><trkpt lat="42.8891367" lon="13.7127867"><ele>136.0</ele><time>2026-04-04T15:01:43.744Z</time></trkpt><trkpt lat="42.8892717" lon="13.71284"><ele>135.25</ele><time>2026-04-04T15:01:44.745Z</time></trkpt><trkpt lat="42.8894033" lon="13.7128867"><ele>134.5</ele><time>2026-04-04T15:01:45.745Z</time></trkpt><trkpt lat="42.889535" lon="13.7128967"><ele>133.75</ele><time>2026-04-04T15:01:46.745Z</time></trkpt><trkpt lat="42.889675" lon="13.712885"><ele>133.0</ele><time>2026-04-04T15:01:47.745Z</time></trkpt><trkpt lat="42.8898133" lon="13.712825"><ele>133.0</ele><time>2026-04-04T15:01:48.745Z</time></trkpt><trkpt lat="42.8899517" lon="13.7127483"><ele>133.0</ele><time>2026-04-04T15:01:49.744Z</time></trkpt><trkpt lat="42.8900883" lon="13.7126667"><ele>133.0</ele><time>2026-04-04T15:01:50.744Z</time></trkpt><trkpt lat="42.89023" lon="13.71258"><ele>137.66666666666669</ele><time>2026-04-04T15:01:51.744Z</time></trkpt><trkpt lat="42.8903667" lon="13.7124883"><ele>142.33333333333334</ele><time>2026-04-04T15:01:52.744Z</time></trkpt><trkpt lat="42.8905033" lon="13.7123983"><ele>147.0</ele><time>2026-04-04T15:01:53.744Z</time></trkpt><trkpt lat="42.89065" lon="13.7123017"><ele>147.0</ele><time>2026-04-04T15:01:54.744Z</time></trkpt><trkpt lat="42.89079" lon="13.712215"><ele>147.0</ele><time>2026-04-04T15:01:55.744Z</time></trkpt><trkpt lat="42.890925" lon="13.7121233"><ele>147.0</ele><time>2026-04-04T15:01:56.745Z</time></trkpt><trkpt lat="42.89107" lon="13.7120383"><ele>144.33333333333334</ele><time>2026-04-04T15:01:57.745Z</time></trkpt><trkpt lat="42.89121" lon="13.7119517"><ele>141.66666666666669</ele><time>2026-04-04T15:01:58.744Z</time></trkpt><trkpt lat="42.8913533" lon="13.7118667"><ele>139.0</ele><time>2026-04-04T15:01:59.745Z</time></trkpt><trkpt lat="42.8914983" lon="13.7117817"><ele>141.0</ele><time>2026-04-04T15:02:00.744Z</time></trkpt><trkpt lat="42.8916433" lon="13.7116983"><ele>143.0</ele><time>2026-04-04T15:02:01.744Z</time></trkpt><trkpt lat="42.891775" lon="13.7116167"><ele>145.0</ele><time>2026-04-04T15:02:02.744Z</time></trkpt><trkpt lat="42.8918933" lon="13.7115367"><ele>147.0</ele><time>2026-04-04T15:02:03.744Z</time></trkpt><trkpt lat="42.891985" lon="13.7114467"><ele>147.0</ele><time>2026-04-04T15:02:04.744Z</time></trkpt><trkpt lat="42.8920633" lon="13.71131"><ele>147.0</ele><time>2026-04-04T15:02:05.744Z</time></trkpt><trkpt lat="42.8921367" lon="13.7111517"><ele>147.0</ele><time>2026-04-04T15:02:06.744Z</time></trkpt><trkpt lat="42.8922017" lon="13.7109817"><ele>147.0</ele><time>2026-04-04T15:02:07.744Z</time></trkpt><trkpt lat="42.8922617" lon="13.710805"><ele>149.75</ele><time>2026-04-04T15:02:08.744Z</time></trkpt><trkpt lat="42.8923367" lon="13.71064"><ele>152.5</ele><time>2026-04-04T15:02:09.744Z</time></trkpt><trkpt lat="42.8924167" lon="13.7104767"><ele>155.25</ele><time>2026-04-04T15:02:10.744Z</time></trkpt><trkpt lat="42.8925083" lon="13.71034"><ele>158.0</ele><time>2026-04-04T15:02:11.744Z</time></trkpt><trkpt lat="42.8926033" lon="13.7102117"><ele>158.0</ele><time>2026-04-04T15:02:12.745Z</time></trkpt><trkpt lat="42.8927117" lon="13.7100983"><ele>158.0</ele><time>2026-04-04T15:02:13.745Z</time></trkpt><trkpt lat="42.89281" lon="13.7099983"><ele>158.0</ele><time>2026-04-04T15:02:14.745Z</time></trkpt><trkpt lat="42.8929317" lon="13.7099367"><ele>158.0</ele><time>2026-04-04T15:02:15.744Z</time></trkpt><trkpt lat="42.8930683" lon="13.7098933"><ele>158.0</ele><time>2026-04-04T15:02:16.744Z</time></trkpt><trkpt lat="42.893215" lon="13.7098767"><ele>158.0</ele><time>2026-04-04T15:02:17.745Z</time></trkpt><trkpt lat="42.8933533" lon="13.7098683"><ele>158.0</ele><time>2026-04-04T15:02:18.744Z</time></trkpt><trkpt lat="42.8935033" lon="13.70985"><ele>158.0</ele><time>2026-04-04T15:02:19.744Z</time></trkpt><trkpt lat="42.8936667" lon="13.7098367"><ele>159.0</ele><time>2026-04-04T15:02:20.744Z</time></trkpt><trkpt lat="42.89382" lon="13.70982"><ele>160.0</ele><time>2026-04-04T15:02:21.745Z</time></trkpt><trkpt lat="42.8939667" lon="13.7098117"><ele>161.0</ele><time>2026-04-04T15:02:22.744Z</time></trkpt><trkpt lat="42.894105" lon="13.7097967"><ele>162.0</ele><time>2026-04-04T15:02:23.744Z</time></trkpt><trkpt lat="42.8942467" lon="13.7097817"><ele>162.5</ele><time>2026-04-04T15:02:24.744Z</time></trkpt><trkpt lat="42.8943817" lon="13.7097617"><ele>163.0</ele><time>2026-04-04T15:02:25.745Z</time></trkpt><trkpt lat="42.89452" lon="13.70974"><ele>163.5</ele><time>2026-04-04T15:02:26.744Z</time></trkpt><trkpt lat="42.8946567" lon="13.709705"><ele>164.0</ele><time>2026-04-04T15:02:27.744Z</time></trkpt><trkpt lat="42.8947967" lon="13.7096533"><ele>164.0</ele><time>2026-04-04T15:02:28.744Z</time></trkpt><trkpt lat="42.89494" lon="13.70958"><ele>164.0</ele><time>2026-04-04T15:02:29.744Z</time></trkpt><trkpt lat="42.8950817" lon="13.709505"><ele>164.0</ele><time>2026-04-04T15:02:30.744Z</time></trkpt><trkpt lat="42.8952217" lon="13.7094183"><ele>166.0</ele><time>2026-04-04T15:02:31.744Z</time></trkpt><trkpt lat="42.8953517" lon="13.709325"><ele>168.0</ele><time>2026-04-04T15:02:32.744Z</time></trkpt><trkpt lat="42.8954767" lon="13.7092383"><ele>170.0</ele><time>2026-04-04T15:02:33.744Z</time></trkpt><trkpt lat="42.8955983" lon="13.7091417"><ele>172.0</ele><time>2026-04-04T15:02:34.745Z</time></trkpt><trkpt lat="42.8957183" lon="13.70905"><ele>172.0</ele><time>2026-04-04T15:02:35.744Z</time></trkpt><trkpt lat="42.89583" lon="13.7089767"><ele>172.0</ele><time>2026-04-04T15:02:36.745Z</time></trkpt><trkpt lat="42.895925" lon="13.7089417"><ele>172.0</ele><time>2026-04-04T15:02:37.745Z</time></trkpt><trkpt lat="42.8960233" lon="13.7089283"><ele>172.0</ele><time>2026-04-04T15:02:38.744Z</time></trkpt><trkpt lat="42.89611" lon="13.708965"><ele>172.0</ele><time>2026-04-04T15:02:39.744Z</time></trkpt><trkpt lat="42.896175" lon="13.7090517"><ele>173.25</ele><time>2026-04-04T15:02:40.744Z</time></trkpt><trkpt lat="42.89622" lon="13.709185"><ele>174.5</ele><time>2026-04-04T15:02:41.744Z</time></trkpt><trkpt lat="42.89626" lon="13.7093417"><ele>175.75</ele><time>2026-04-04T15:02:42.744Z</time></trkpt><trkpt lat="42.8963017" lon="13.7095067"><ele>177.0</ele><time>2026-04-04T15:02:43.744Z</time></trkpt><trkpt lat="42.896365" lon="13.7096617"><ele>177.0</ele><time>2026-04-04T15:02:44.745Z</time></trkpt><trkpt lat="42.89644" lon="13.7097967"><ele>177.0</ele><time>2026-04-04T15:02:45.745Z</time></trkpt><trkpt lat="42.8965417" lon="13.7098883"><ele>177.0</ele><time>2026-04-04T15:02:46.745Z</time></trkpt><trkpt lat="42.89666" lon="13.7099517"><ele>177.0</ele><time>2026-04-04T15:02:47.744Z</time></trkpt><trkpt lat="42.8967917" lon="13.7099767"><ele>178.75</ele><time>2026-04-04T15:02:48.744Z</time></trkpt><trkpt lat="42.8969283" lon="13.7099933"><ele>180.5</ele><time>2026-04-04T15:02:49.745Z</time></trkpt><trkpt lat="42.8970683" lon="13.7100017"><ele>182.25</ele><time>2026-04-04T15:02:50.744Z</time></trkpt><trkpt lat="42.8972167" lon="13.7100133"><ele>184.0</ele><time>2026-04-04T15:02:51.745Z</time></trkpt><trkpt lat="42.8973567" lon="13.710015"><ele>184.0</ele><time>2026-04-04T15:02:52.744Z</time></trkpt><trkpt lat="42.8974933" lon="13.7099983"><ele>184.0</ele><time>2026-04-04T15:02:53.744Z</time></trkpt><trkpt lat="42.8976167" lon="13.709955"><ele>184.0</ele><time>2026-04-04T15:02:54.744Z</time></trkpt><trkpt lat="42.8977417" lon="13.7098817"><ele>184.0</ele><time>2026-04-04T15:02:55.745Z</time></trkpt><trkpt lat="42.89786" lon="13.7097833"><ele>181.66666666666669</ele><time>2026-04-04T15:02:56.744Z</time></trkpt><trkpt lat="42.897985" lon="13.709675"><ele>179.33333333333334</ele><time>2026-04-04T15:02:57.745Z</time></trkpt><trkpt lat="42.8981167" lon="13.7095667"><ele>177.0</ele><time>2026-04-04T15:02:58.745Z</time></trkpt><trkpt lat="42.89825" lon="13.7094633"><ele>180.33333333333334</ele><time>2026-04-04T15:02:59.744Z</time></trkpt><trkpt lat="42.8983917" lon="13.7093733"><ele>183.66666666666669</ele><time>2026-04-04T15:03:00.744Z</time></trkpt><trkpt lat="42.8985267" lon="13.709295"><ele>187.0</ele><time>2026-04-04T15:03:01.745Z</time></trkpt><trkpt lat="42.8986683" lon="13.709225"><ele>187.0</ele><time>2026-04-04T15:03:02.745Z</time></trkpt><trkpt lat="42.8988017" lon="13.7091667"><ele>187.0</ele><time>2026-04-04T15:03:03.744Z</time></trkpt><trkpt lat="42.898935" lon="13.70914"><ele>187.0</ele><time>2026-04-04T15:03:04.744Z</time></trkpt><trkpt lat="42.89907" lon="13.709125"><ele>187.0</ele><time>2026-04-04T15:03:05.744Z</time></trkpt><trkpt lat="42.89921" lon="13.709135"><ele>188.0</ele><time>2026-04-04T15:03:06.744Z</time></trkpt><trkpt lat="42.8993433" lon="13.7091633"><ele>189.0</ele><time>2026-04-04T15:03:07.744Z</time></trkpt><trkpt lat="42.8994717" lon="13.70921"><ele>190.0</ele><time>2026-04-04T15:03:08.744Z</time></trkpt><trkpt lat="42.8995967" lon="13.7092633"><ele>191.0</ele><time>2026-04-04T15:03:09.744Z</time></trkpt><trkpt lat="42.8997283" lon="13.70932"><ele>191.0</ele><time>2026-04-04T15:03:10.744Z</time></trkpt><trkpt lat="42.8998667" lon="13.7093633"><ele>191.0</ele><time>2026-04-04T15:03:11.745Z</time></trkpt><trkpt lat="42.900015" lon="13.7093833"><ele>191.0</ele><time>2026-04-04T15:03:12.744Z</time></trkpt><trkpt lat="42.9001717" lon="13.70939"><ele>191.0</ele><time>2026-04-04T15:03:13.744Z</time></trkpt><trkpt lat="42.9003217" lon="13.709385"><ele>191.33333333333331</ele><time>2026-04-04T15:03:14.745Z</time></trkpt><trkpt lat="42.90047" lon="13.7093717"><ele>191.66666666666666</ele><time>2026-04-04T15:03:15.744Z</time></trkpt><trkpt lat="42.90062" lon="13.7093467"><ele>192.0</ele><time>2026-04-04T15:03:16.744Z</time></trkpt><trkpt lat="42.9007683" lon="13.709315"><ele>192.0</ele><time>2026-04-04T15:03:17.745Z</time></trkpt><trkpt lat="42.9009067" lon="13.7092567"><ele>192.0</ele><time>2026-04-04T15:03:18.744Z</time></trkpt><trkpt lat="42.90103" lon="13.7091717"><ele>192.0</ele><time>2026-04-04T15:03:19.744Z</time></trkpt><trkpt lat="42.9011417" lon="13.7090583"><ele>192.0</ele><time>2026-04-04T15:03:20.744Z</time></trkpt><trkpt lat="42.9012433" lon="13.7089267"><ele>193.25</ele><time>2026-04-04T15:03:21.744Z</time></trkpt><trkpt lat="42.90133" lon="13.7087817"><ele>194.5</ele><time>2026-04-04T15:03:22.744Z</time></trkpt><trkpt lat="42.9014317" lon="13.7086517"><ele>195.75</ele><time>2026-04-04T15:03:23.744Z</time></trkpt><trkpt lat="42.9015417" lon="13.70852"><ele>197.0</ele><time>2026-04-04T15:03:24.745Z</time></trkpt><trkpt lat="42.9016633" lon="13.70841"><ele>194.33333333333334</ele><time>2026-04-04T15:03:25.744Z</time></trkpt><trkpt lat="42.9017933" lon="13.708315"><ele>191.66666666666669</ele><time>2026-04-04T15:03:26.744Z</time></trkpt><trkpt lat="42.9019283" lon="13.70824"><ele>189.0</ele><time>2026-04-04T15:03:27.744Z</time></trkpt><trkpt lat="42.9020833" lon="13.7081717"><ele>189.0</ele><time>2026-04-04T15:03:28.745Z</time></trkpt><trkpt lat="42.902235" lon="13.7081067"><ele>189.0</ele><time>2026-04-04T15:03:29.744Z</time></trkpt><trkpt lat="42.9023817" lon="13.7080467"><ele>189.0</ele><time>2026-04-04T15:03:30.745Z</time></trkpt><trkpt lat="42.9025117" lon="13.7079733"><ele>189.75</ele><time>2026-04-04T15:03:31.744Z</time></trkpt><trkpt lat="42.9026333" lon="13.7078867"><ele>190.5</ele><time>2026-04-04T15:03:32.744Z</time></trkpt><trkpt lat="42.9027667" lon="13.7078017"><ele>191.25</ele><time>2026-04-04T15:03:33.744Z</time></trkpt><trkpt lat="42.9029083" lon="13.7077167"><ele>192.0</ele><time>2026-04-04T15:03:34.744Z</time></trkpt><trkpt lat="42.9030483" lon="13.7076383"><ele>192.0</ele><time>2026-04-04T15:03:35.744Z</time></trkpt><trkpt lat="42.9031883" lon="13.707555"><ele>192.0</ele><time>2026-04-04T15:03:36.744Z</time></trkpt><trkpt lat="42.903325" lon="13.707475"><ele>192.0</ele><time>2026-04-04T15:03:37.744Z</time></trkpt><trkpt lat="42.90346" lon="13.7074"><ele>192.0</ele><time>2026-04-04T15:03:38.744Z</time></trkpt><trkpt lat="42.9035967" lon="13.7073467"><ele>191.25</ele><time>2026-04-04T15:03:39.745Z</time></trkpt><trkpt lat="42.9037217" lon="13.70728"><ele>190.5</ele><time>2026-04-04T15:03:40.745Z</time></trkpt><trkpt lat="42.90385" lon="13.707215"><ele>189.75</ele><time>2026-04-04T15:03:41.744Z</time></trkpt><trkpt lat="42.90399" lon="13.7071733"><ele>189.0</ele><time>2026-04-04T15:03:42.745Z</time></trkpt><trkpt lat="42.9041317" lon="13.70713"><ele>188.5</ele><time>2026-04-04T15:03:43.744Z</time></trkpt><trkpt lat="42.90427" lon="13.7070983"><ele>188.0</ele><time>2026-04-04T15:03:44.744Z</time></trkpt><trkpt lat="42.9044183" lon="13.7070667"><ele>187.5</ele><time>2026-04-04T15:03:45.744Z</time></trkpt><trkpt lat="42.9045667" lon="13.7070367"><ele>187.0</ele><time>2026-04-04T15:03:46.744Z</time></trkpt><trkpt lat="42.904715" lon="13.7070117"><ele>187.0</ele><time>2026-04-04T15:03:47.745Z</time></trkpt><trkpt lat="42.9048633" lon="13.7069917"><ele>187.0</ele><time>2026-04-04T15:03:48.744Z</time></trkpt><trkpt lat="42.9049967" lon="13.706975"><ele>187.0</ele><time>2026-04-04T15:03:49.744Z</time></trkpt><trkpt lat="42.9051433" lon="13.7069633"><ele>187.0</ele><time>2026-04-04T15:03:50.744Z</time></trkpt><trkpt lat="42.9052767" lon="13.706945"><ele>186.75</ele><time>2026-04-04T15:03:51.745Z</time></trkpt><trkpt lat="42.905395" lon="13.7069117"><ele>186.5</ele><time>2026-04-04T15:03:52.744Z</time></trkpt><trkpt lat="42.9054967" lon="13.70684"><ele>186.25</ele><time>2026-04-04T15:03:53.744Z</time></trkpt><trkpt lat="42.9055967" lon="13.7067467"><ele>186.0</ele><time>2026-04-04T15:03:54.744Z</time></trkpt><trkpt lat="42.90571" lon="13.70663"><ele>185.66666666666666</ele><time>2026-04-04T15:03:55.745Z</time></trkpt><trkpt lat="42.90583" lon="13.7065083"><ele>185.33333333333331</ele><time>2026-04-04T15:03:56.744Z</time></trkpt><trkpt lat="42.9059617" lon="13.7063967"><ele>185.0</ele><time>2026-04-04T15:03:57.745Z</time></trkpt><trkpt lat="42.9060967" lon="13.706285"><ele>185.0</ele><time>2026-04-04T15:03:58.744Z</time></trkpt><trkpt lat="42.906235" lon="13.706175"><ele>185.0</ele><time>2026-04-04T15:03:59.745Z</time></trkpt><trkpt lat="42.9063717" lon="13.70607"><ele>185.0</ele><time>2026-04-04T15:04:00.744Z</time></trkpt><trkpt lat="42.9065183" lon="13.705965"><ele>187.33333333333331</ele><time>2026-04-04T15:04:01.745Z</time></trkpt><trkpt lat="42.9066617" lon="13.705865"><ele>189.66666666666666</ele><time>2026-04-04T15:04:02.744Z</time></trkpt><trkpt lat="42.906805" lon="13.705765"><ele>192.0</ele><time>2026-04-04T15:04:03.745Z</time></trkpt><trkpt lat="42.9069483" lon="13.7056633"><ele>192.0</ele><time>2026-04-04T15:04:04.745Z</time></trkpt><trkpt lat="42.9070917" lon="13.7055683"><ele>192.0</ele><time>2026-04-04T15:04:05.744Z</time></trkpt><trkpt lat="42.9072417" lon="13.705475"><ele>192.0</ele><time>2026-04-04T15:04:06.745Z</time></trkpt><trkpt lat="42.907385" lon="13.7053817"><ele>192.0</ele><time>2026-04-04T15:04:07.744Z</time></trkpt><trkpt lat="42.9075317" lon="13.7052983"><ele>192.0</ele><time>2026-04-04T15:04:08.744Z</time></trkpt><trkpt lat="42.9076817" lon="13.70521"><ele>192.0</ele><time>2026-04-04T15:04:09.744Z</time></trkpt><trkpt lat="42.9078317" lon="13.705125"><ele>194.33333333333331</ele><time>2026-04-04T15:04:10.744Z</time></trkpt><trkpt lat="42.9079833" lon="13.7050383"><ele>196.66666666666666</ele><time>2026-04-04T15:04:11.745Z</time></trkpt><trkpt lat="42.9081317" lon="13.7049617"><ele>199.0</ele><time>2026-04-04T15:04:12.744Z</time></trkpt><trkpt lat="42.90828" lon="13.7048833"><ele>197.0</ele><time>2026-04-04T15:04:13.745Z</time></trkpt><trkpt lat="42.90843" lon="13.704805"><ele>195.0</ele><time>2026-04-04T15:04:14.745Z</time></trkpt><trkpt lat="42.9085733" lon="13.70472"><ele>193.0</ele><time>2026-04-04T15:04:15.745Z</time></trkpt><trkpt lat="42.9087133" lon="13.70464"><ele>193.0</ele><time>2026-04-04T15:04:16.744Z</time></trkpt><trkpt lat="42.9088533" lon="13.7045533"><ele>193.0</ele><time>2026-04-04T15:04:17.744Z</time></trkpt><trkpt lat="42.9089983" lon="13.7044817"><ele>193.0</ele><time>2026-04-04T15:04:18.745Z</time></trkpt><trkpt lat="42.9091333" lon="13.7044133"><ele>195.75</ele><time>2026-04-04T15:04:19.744Z</time></trkpt><trkpt lat="42.9092567" lon="13.7043417"><ele>198.5</ele><time>2026-04-04T15:04:20.745Z</time></trkpt><trkpt lat="42.909375" lon="13.7042683"><ele>201.25</ele><time>2026-04-04T15:04:21.745Z</time></trkpt><trkpt lat="42.90949" lon="13.7041833"><ele>204.0</ele><time>2026-04-04T15:04:22.744Z</time></trkpt><trkpt lat="42.9096083" lon="13.7040867"><ele>204.0</ele><time>2026-04-04T15:04:23.744Z</time></trkpt><trkpt lat="42.90984" lon="13.7038583"><ele>204.0</ele><time>2026-04-04T15:04:25.745Z</time></trkpt><trkpt lat="42.9099667" lon="13.7037367"><ele>204.0</ele><time>2026-04-04T15:04:26.744Z</time></trkpt><trkpt lat="42.9101083" lon="13.7036167"><ele>202.0</ele><time>2026-04-04T15:04:27.744Z</time></trkpt><trkpt lat="42.9102367" lon="13.7034883"><ele>200.0</ele><time>2026-04-04T15:04:28.744Z</time></trkpt><trkpt lat="42.910365" lon="13.7033633"><ele>198.0</ele><time>2026-04-04T15:04:29.745Z</time></trkpt><trkpt lat="42.9104883" lon="13.7032333"><ele>198.0</ele><time>2026-04-04T15:04:30.744Z</time></trkpt><trkpt lat="42.9106067" lon="13.7031083"><ele>198.0</ele><time>2026-04-04T15:04:31.744Z</time></trkpt><trkpt lat="42.910725" lon="13.7029867"><ele>198.0</ele><time>2026-04-04T15:04:32.744Z</time></trkpt><trkpt lat="42.910845" lon="13.7028717"><ele>198.0</ele><time>2026-04-04T15:04:33.744Z</time></trkpt><trkpt lat="42.9109633" lon="13.7027583"><ele>200.75</ele><time>2026-04-04T15:04:34.745Z</time></trkpt><trkpt lat="42.9110983" lon="13.7026767"><ele>203.5</ele><time>2026-04-04T15:04:35.744Z</time></trkpt><trkpt lat="42.9112417" lon="13.7026217"><ele>206.25</ele><time>2026-04-04T15:04:36.745Z</time></trkpt><trkpt lat="42.9113833" lon="13.702575"><ele>209.0</ele><time>2026-04-04T15:04:37.745Z</time></trkpt><trkpt lat="42.911515" lon="13.7025233"><ele>209.0</ele><time>2026-04-04T15:04:38.744Z</time></trkpt><trkpt lat="42.9116367" lon="13.70245"><ele>209.0</ele><time>2026-04-04T15:04:39.743Z</time></trkpt><trkpt lat="42.911745" lon="13.702365"><ele>209.0</ele><time>2026-04-04T15:04:40.744Z</time></trkpt><trkpt lat="42.91184" lon="13.7022617"><ele>209.0</ele><time>2026-04-04T15:04:41.744Z</time></trkpt><trkpt lat="42.91193" lon="13.7021267"><ele>209.75</ele><time>2026-04-04T15:04:42.744Z</time></trkpt><trkpt lat="42.9120183" lon="13.7019983"><ele>210.5</ele><time>2026-04-04T15:04:43.744Z</time></trkpt><trkpt lat="42.9121117" lon="13.70187"><ele>211.25</ele><time>2026-04-04T15:04:44.744Z</time></trkpt><trkpt lat="42.9122067" lon="13.701745"><ele>212.0</ele><time>2026-04-04T15:04:45.743Z</time></trkpt><trkpt lat="42.9123083" lon="13.7016283"><ele>212.0</ele><time>2026-04-04T15:04:46.743Z</time></trkpt><trkpt lat="42.9123933" lon="13.7015133"><ele>212.0</ele><time>2026-04-04T15:04:47.743Z</time></trkpt><trkpt lat="42.912495" lon="13.7014067"><ele>212.0</ele><time>2026-04-04T15:04:48.743Z</time></trkpt><trkpt lat="42.9126067" lon="13.701305"><ele>212.0</ele><time>2026-04-04T15:04:49.743Z</time></trkpt><trkpt lat="42.9127383" lon="13.7012133"><ele>211.5</ele><time>2026-04-04T15:04:50.744Z</time></trkpt><trkpt lat="42.9128667" lon="13.7011283"><ele>211.0</ele><time>2026-04-04T15:04:51.743Z</time></trkpt><trkpt lat="42.9129983" lon="13.7010533"><ele>210.5</ele><time>2026-04-04T15:04:52.743Z</time></trkpt><trkpt lat="42.913135" lon="13.7009917"><ele>210.0</ele><time>2026-04-04T15:04:53.743Z</time></trkpt><trkpt lat="42.9132767" lon="13.70094"><ele>210.75</ele><time>2026-04-04T15:04:54.743Z</time></trkpt><trkpt lat="42.9134217" lon="13.700905"><ele>211.5</ele><time>2026-04-04T15:04:55.743Z</time></trkpt><trkpt lat="42.9135683" lon="13.7008783"><ele>212.25</ele><time>2026-04-04T15:04:56.743Z</time></trkpt><trkpt lat="42.913715" lon="13.7008617"><ele>213.0</ele><time>2026-04-04T15:04:57.743Z</time></trkpt><trkpt lat="42.9138583" lon="13.7008617"><ele>213.0</ele><time>2026-04-04T15:04:58.743Z</time></trkpt><trkpt lat="42.91399" lon="13.70088"><ele>213.0</ele><time>2026-04-04T15:04:59.743Z</time></trkpt><trkpt lat="42.9140933" lon="13.7009067"><ele>213.0</ele><time>2026-04-04T15:05:00.743Z</time></trkpt><trkpt lat="42.914185" lon="13.70096"><ele>213.0</ele><time>2026-04-04T15:05:01.743Z</time></trkpt><trkpt lat="42.91426" lon="13.70104"><ele>213.0</ele><time>2026-04-04T15:05:02.743Z</time></trkpt><trkpt lat="42.9143133" lon="13.701145"><ele>211.0</ele><time>2026-04-04T15:05:03.743Z</time></trkpt><trkpt lat="42.914345" lon="13.7012883"><ele>209.0</ele><time>2026-04-04T15:05:04.743Z</time></trkpt><trkpt lat="42.9143767" lon="13.701445"><ele>207.0</ele><time>2026-04-04T15:05:05.743Z</time></trkpt><trkpt lat="42.9144083" lon="13.7016333"><ele>205.0</ele><time>2026-04-04T15:05:06.743Z</time></trkpt><trkpt lat="42.9144467" lon="13.7018317"><ele>206.66666666666666</ele><time>2026-04-04T15:05:07.743Z</time></trkpt><trkpt lat="42.91449" lon="13.7020233"><ele>208.33333333333331</ele><time>2026-04-04T15:05:08.743Z</time></trkpt><trkpt lat="42.9145283" lon="13.7022283"><ele>210.0</ele><time>2026-04-04T15:05:09.743Z</time></trkpt><trkpt lat="42.9145617" lon="13.702425"><ele>210.0</ele><time>2026-04-04T15:05:10.743Z</time></trkpt><trkpt lat="42.9146" lon="13.7026133"><ele>210.0</ele><time>2026-04-04T15:05:11.744Z</time></trkpt><trkpt lat="42.914645" lon="13.7027967"><ele>210.0</ele><time>2026-04-04T15:05:12.743Z</time></trkpt><trkpt lat="42.9146867" lon="13.7029783"><ele>210.0</ele><time>2026-04-04T15:05:13.744Z</time></trkpt><trkpt lat="42.9147283" lon="13.7031517"><ele>210.6</ele><time>2026-04-04T15:05:14.744Z</time></trkpt><trkpt lat="42.9147717" lon="13.7033"><ele>211.2</ele><time>2026-04-04T15:05:15.744Z</time></trkpt><trkpt lat="42.914825" lon="13.7034267"><ele>211.8</ele><time>2026-04-04T15:05:16.743Z</time></trkpt><trkpt lat="42.9148967" lon="13.7035267"><ele>212.4</ele><time>2026-04-04T15:05:17.744Z</time></trkpt><trkpt lat="42.9149933" lon="13.7036"><ele>213.0</ele><time>2026-04-04T15:05:18.744Z</time></trkpt><trkpt lat="42.9151017" lon="13.70364"><ele>216.25</ele><time>2026-04-04T15:05:19.744Z</time></trkpt><trkpt lat="42.9152117" lon="13.7036517"><ele>219.5</ele><time>2026-04-04T15:05:20.744Z</time></trkpt><trkpt lat="42.9153317" lon="13.7036617"><ele>222.75</ele><time>2026-04-04T15:05:21.744Z</time></trkpt><trkpt lat="42.9154533" lon="13.70365"><ele>226.0</ele><time>2026-04-04T15:05:22.743Z</time></trkpt><trkpt lat="42.9155817" lon="13.7036167"><ele>226.0</ele><time>2026-04-04T15:05:23.743Z</time></trkpt><trkpt lat="42.915715" lon="13.7035917"><ele>226.0</ele><time>2026-04-04T15:05:24.743Z</time></trkpt><trkpt lat="42.9158533" lon="13.70357"><ele>226.0</ele><time>2026-04-04T15:05:25.743Z</time></trkpt><trkpt lat="42.9159883" lon="13.70354"><ele>226.0</ele><time>2026-04-04T15:05:26.743Z</time></trkpt><trkpt lat="42.9161217" lon="13.7035117"><ele>226.0</ele><time>2026-04-04T15:05:27.743Z</time></trkpt><trkpt lat="42.9162383" lon="13.7034833"><ele>226.00000000000003</ele><time>2026-04-04T15:05:28.743Z</time></trkpt><trkpt lat="42.9163383" lon="13.70347"><ele>226.00000000000003</ele><time>2026-04-04T15:05:29.743Z</time></trkpt><trkpt lat="42.9164367" lon="13.703485"><ele>226.0</ele><time>2026-04-04T15:05:30.744Z</time></trkpt><trkpt lat="42.9165233" lon="13.703525"><ele>226.0</ele><time>2026-04-04T15:05:31.743Z</time></trkpt><trkpt lat="42.9166083" lon="13.7035917"><ele>226.0</ele><time>2026-04-04T15:05:32.743Z</time></trkpt><trkpt lat="42.9166833" lon="13.7036833"><ele>226.0</ele><time>2026-04-04T15:05:33.743Z</time></trkpt><trkpt lat="42.916755" lon="13.7038117"><ele>226.0</ele><time>2026-04-04T15:05:34.743Z</time></trkpt><trkpt lat="42.9168117" lon="13.703975"><ele>226.0</ele><time>2026-04-04T15:05:35.743Z</time></trkpt><trkpt lat="42.916865" lon="13.70415"><ele>225.0</ele><time>2026-04-04T15:05:36.744Z</time></trkpt><trkpt lat="42.916925" lon="13.7043267"><ele>224.0</ele><time>2026-04-04T15:05:37.743Z</time></trkpt><trkpt lat="42.91699" lon="13.704505"><ele>223.0</ele><time>2026-04-04T15:05:38.743Z</time></trkpt><trkpt lat="42.91706" lon="13.704665"><ele>222.0</ele><time>2026-04-04T15:05:39.743Z</time></trkpt><trkpt lat="42.9171333" lon="13.7048017"><ele>222.0</ele><time>2026-04-04T15:05:40.743Z</time></trkpt><trkpt lat="42.9172183" lon="13.7049"><ele>222.0</ele><time>2026-04-04T15:05:41.744Z</time></trkpt><trkpt lat="42.9173317" lon="13.7049767"><ele>222.0</ele><time>2026-04-04T15:05:42.744Z</time></trkpt><trkpt lat="42.9174467" lon="13.70502"><ele>222.0</ele><time>2026-04-04T15:05:43.744Z</time></trkpt><trkpt lat="42.9175683" lon="13.7050333"><ele>223.0</ele><time>2026-04-04T15:05:44.743Z</time></trkpt><trkpt lat="42.9176917" lon="13.70502"><ele>224.0</ele><time>2026-04-04T15:05:45.744Z</time></trkpt><trkpt lat="42.9178283" lon="13.7049933"><ele>225.0</ele><time>2026-04-04T15:05:46.743Z</time></trkpt><trkpt lat="42.917965" lon="13.7049617"><ele>226.0</ele><time>2026-04-04T15:05:47.744Z</time></trkpt><trkpt lat="42.9181017" lon="13.7049367"><ele>226.0</ele><time>2026-04-04T15:05:48.743Z</time></trkpt><trkpt lat="42.9182333" lon="13.7049083"><ele>226.0</ele><time>2026-04-04T15:05:49.743Z</time></trkpt><trkpt lat="42.91837" lon="13.70488"><ele>226.0</ele><time>2026-04-04T15:05:50.744Z</time></trkpt><trkpt lat="42.9184983" lon="13.70486"><ele>226.0</ele><time>2026-04-04T15:05:51.744Z</time></trkpt><trkpt lat="42.918635" lon="13.7048367"><ele>225.75</ele><time>2026-04-04T15:05:52.744Z</time></trkpt><trkpt lat="42.9187667" lon="13.7048133"><ele>225.5</ele><time>2026-04-04T15:05:53.744Z</time></trkpt><trkpt lat="42.9188967" lon="13.7047833"><ele>225.25</ele><time>2026-04-04T15:05:54.743Z</time></trkpt><trkpt lat="42.9190317" lon="13.7047383"><ele>225.0</ele><time>2026-04-04T15:05:55.743Z</time></trkpt><trkpt lat="42.91916" lon="13.7046667"><ele>224.75</ele><time>2026-04-04T15:05:56.743Z</time></trkpt><trkpt lat="42.919275" lon="13.7045667"><ele>224.5</ele><time>2026-04-04T15:05:57.744Z</time></trkpt><trkpt lat="42.9193817" lon="13.70444"><ele>224.25</ele><time>2026-04-04T15:05:58.743Z</time></trkpt><trkpt lat="42.9194867" lon="13.7043183"><ele>224.0</ele><time>2026-04-04T15:05:59.743Z</time></trkpt><trkpt lat="42.9195833" lon="13.7042133"><ele>225.0</ele><time>2026-04-04T15:06:00.743Z</time></trkpt><trkpt lat="42.9196717" lon="13.704135"><ele>225.99999999999997</ele><time>2026-04-04T15:06:01.743Z</time></trkpt><trkpt lat="42.919755" lon="13.7040817"><ele>226.99999999999997</ele><time>2026-04-04T15:06:02.743Z</time></trkpt><trkpt lat="42.9198583" lon="13.7040467"><ele>228.0</ele><time>2026-04-04T15:06:03.743Z</time></trkpt><trkpt lat="42.9199717" lon="13.7040467"><ele>229.0</ele><time>2026-04-04T15:06:04.743Z</time></trkpt><trkpt lat="42.920085" lon="13.7040483"><ele>229.0</ele><time>2026-04-04T15:06:05.743Z</time></trkpt><trkpt lat="42.9202083" lon="13.7040567"><ele>229.0</ele><time>2026-04-04T15:06:06.743Z</time></trkpt><trkpt lat="42.920345" lon="13.704065"><ele>229.0</ele><time>2026-04-04T15:06:07.743Z</time></trkpt><trkpt lat="42.9204833" lon="13.704045"><ele>229.0</ele><time>2026-04-04T15:06:08.743Z</time></trkpt><trkpt lat="42.9206133" lon="13.7039917"><ele>229.0</ele><time>2026-04-04T15:06:09.744Z</time></trkpt><trkpt lat="42.9207467" lon="13.7039367"><ele>229.0</ele><time>2026-04-04T15:06:10.743Z</time></trkpt><trkpt lat="42.9208783" lon="13.7038667"><ele>229.0</ele><time>2026-04-04T15:06:11.744Z</time></trkpt><trkpt lat="42.9210083" lon="13.7037883"><ele>229.0</ele><time>2026-04-04T15:06:12.743Z</time></trkpt><trkpt lat="42.92114" lon="13.703715"><ele>228.75</ele><time>2026-04-04T15:06:13.743Z</time></trkpt><trkpt lat="42.9212683" lon="13.7036583"><ele>228.5</ele><time>2026-04-04T15:06:14.743Z</time></trkpt><trkpt lat="42.9213917" lon="13.7035883"><ele>228.25</ele><time>2026-04-04T15:06:15.743Z</time></trkpt><trkpt lat="42.92152" lon="13.7035233"><ele>228.0</ele><time>2026-04-04T15:06:16.743Z</time></trkpt><trkpt lat="42.9216433" lon="13.7034567"><ele>230.5</ele><time>2026-04-04T15:06:17.743Z</time></trkpt><trkpt lat="42.92176" lon="13.7033683"><ele>233.0</ele><time>2026-04-04T15:06:18.744Z</time></trkpt><trkpt lat="42.9218817" lon="13.70328"><ele>235.5</ele><time>2026-04-04T15:06:19.744Z</time></trkpt><trkpt lat="42.9220033" lon="13.703185"><ele>238.0</ele><time>2026-04-04T15:06:20.744Z</time></trkpt><trkpt lat="42.92212" lon="13.703085"><ele>238.0</ele><time>2026-04-04T15:06:21.743Z</time></trkpt><trkpt lat="42.9222283" lon="13.70299"><ele>238.0</ele><time>2026-04-04T15:06:22.743Z</time></trkpt><trkpt lat="42.9223433" lon="13.7028983"><ele>238.0</ele><time>2026-04-04T15:06:23.743Z</time></trkpt><trkpt lat="42.92246" lon="13.7028133"><ele>238.0</ele><time>2026-04-04T15:06:24.743Z</time></trkpt><trkpt lat="42.9225733" lon="13.7027383"><ele>239.5</ele><time>2026-04-04T15:06:25.744Z</time></trkpt><trkpt lat="42.9226933" lon="13.7026633"><ele>241.0</ele><time>2026-04-04T15:06:26.744Z</time></trkpt><trkpt lat="42.9228117" lon="13.7025983"><ele>242.5</ele><time>2026-04-04T15:06:27.743Z</time></trkpt><trkpt lat="42.922935" lon="13.7025317"><ele>244.0</ele><time>2026-04-04T15:06:28.744Z</time></trkpt><trkpt lat="42.92305" lon="13.7024667"><ele>244.0</ele><time>2026-04-04T15:06:29.744Z</time></trkpt><trkpt lat="42.9231633" lon="13.7023917"><ele>244.0</ele><time>2026-04-04T15:06:30.743Z</time></trkpt><trkpt lat="42.923275" lon="13.702315"><ele>244.0</ele><time>2026-04-04T15:06:31.743Z</time></trkpt><trkpt lat="42.9233967" lon="13.7022483"><ele>244.0</ele><time>2026-04-04T15:06:32.744Z</time></trkpt><trkpt lat="42.9235133" lon="13.7022"><ele>243.75</ele><time>2026-04-04T15:06:33.743Z</time></trkpt><trkpt lat="42.92362" lon="13.7021683"><ele>243.5</ele><time>2026-04-04T15:06:34.743Z</time></trkpt><trkpt lat="42.9237467" lon="13.7021667"><ele>243.25</ele><time>2026-04-04T15:06:35.743Z</time></trkpt><trkpt lat="42.9238683" lon="13.7021967"><ele>243.0</ele><time>2026-04-04T15:06:36.743Z</time></trkpt><trkpt lat="42.9239833" lon="13.70225"><ele>243.0</ele><time>2026-04-04T15:06:37.743Z</time></trkpt><trkpt lat="42.9241083" lon="13.7023233"><ele>243.0</ele><time>2026-04-04T15:06:38.744Z</time></trkpt><trkpt lat="42.9242333" lon="13.7024017"><ele>243.0</ele><time>2026-04-04T15:06:39.744Z</time></trkpt><trkpt lat="42.9243617" lon="13.7024767"><ele>243.0</ele><time>2026-04-04T15:06:40.743Z</time></trkpt><trkpt lat="42.9244883" lon="13.7025633"><ele>244.75</ele><time>2026-04-04T15:06:41.743Z</time></trkpt><trkpt lat="42.9246167" lon="13.70264"><ele>246.5</ele><time>2026-04-04T15:06:42.744Z</time></trkpt><trkpt lat="42.9247417" lon="13.7027317"><ele>248.25</ele><time>2026-04-04T15:06:43.743Z</time></trkpt><trkpt lat="42.924855" lon="13.7028233"><ele>250.0</ele><time>2026-04-04T15:06:44.744Z</time></trkpt><trkpt lat="42.9249683" lon="13.7029317"><ele>253.25</ele><time>2026-04-04T15:06:45.743Z</time></trkpt><trkpt lat="42.9250867" lon="13.7030283"><ele>256.5</ele><time>2026-04-04T15:06:46.743Z</time></trkpt><trkpt lat="42.9252" lon="13.7031217"><ele>259.75</ele><time>2026-04-04T15:06:47.743Z</time></trkpt><trkpt lat="42.9253083" lon="13.7032183"><ele>263.0</ele><time>2026-04-04T15:06:48.743Z</time></trkpt><trkpt lat="42.9254217" lon="13.70331"><ele>263.0</ele><time>2026-04-04T15:06:49.744Z</time></trkpt><trkpt lat="42.9255183" lon="13.703405"><ele>263.0</ele><time>2026-04-04T15:06:50.743Z</time></trkpt><trkpt lat="42.9256283" lon="13.703495"><ele>263.0</ele><time>2026-04-04T15:06:51.744Z</time></trkpt><trkpt lat="42.925745" lon="13.703575"><ele>263.0</ele><time>2026-04-04T15:06:52.743Z</time></trkpt><trkpt lat="42.9258517" lon="13.7036583"><ele>261.75</ele><time>2026-04-04T15:06:53.743Z</time></trkpt><trkpt lat="42.9259683" lon="13.7037483"><ele>260.5</ele><time>2026-04-04T15:06:54.743Z</time></trkpt><trkpt lat="42.9260833" lon="13.703825"><ele>259.25</ele><time>2026-04-04T15:06:55.743Z</time></trkpt><trkpt lat="42.9262017" lon="13.703895"><ele>258.0</ele><time>2026-04-04T15:06:56.743Z</time></trkpt><trkpt lat="42.9263167" lon="13.7039717"><ele>258.0</ele><time>2026-04-04T15:06:57.744Z</time></trkpt><trkpt lat="42.92643" lon="13.7040517"><ele>258.0</ele><time>2026-04-04T15:06:58.744Z</time></trkpt><trkpt lat="42.92655" lon="13.704135"><ele>258.0</ele><time>2026-04-04T15:06:59.743Z</time></trkpt><trkpt lat="42.9266533" lon="13.70422"><ele>258.0</ele><time>2026-04-04T15:07:00.743Z</time></trkpt><trkpt lat="42.926755" lon="13.7042983"><ele>258.5</ele><time>2026-04-04T15:07:01.744Z</time></trkpt><trkpt lat="42.92686" lon="13.704375"><ele>259.0</ele><time>2026-04-04T15:07:02.743Z</time></trkpt><trkpt lat="42.92697" lon="13.7044367"><ele>259.5</ele><time>2026-04-04T15:07:03.743Z</time></trkpt><trkpt lat="42.9270883" lon="13.7044633"><ele>260.0</ele><time>2026-04-04T15:07:04.744Z</time></trkpt><trkpt lat="42.9272067" lon="13.7044617"><ele>260.0</ele><time>2026-04-04T15:07:05.743Z</time></trkpt><trkpt lat="42.9273367" lon="13.704435"><ele>260.0</ele><time>2026-04-04T15:07:06.744Z</time></trkpt><trkpt lat="42.92746" lon="13.7043967"><ele>260.0</ele><time>2026-04-04T15:07:07.743Z</time></trkpt><trkpt lat="42.927585" lon="13.7043533"><ele>260.0</ele><time>2026-04-04T15:07:08.744Z</time></trkpt><trkpt lat="42.927705" lon="13.7042983"><ele>258.25</ele><time>2026-04-04T15:07:09.743Z</time></trkpt><trkpt lat="42.9278233" lon="13.70424"><ele>256.5</ele><time>2026-04-04T15:07:10.743Z</time></trkpt><trkpt lat="42.9279383" lon="13.7041783"><ele>254.75</ele><time>2026-04-04T15:07:11.743Z</time></trkpt><trkpt lat="42.928045" lon="13.7041233"><ele>253.0</ele><time>2026-04-04T15:07:12.744Z</time></trkpt><trkpt lat="42.9281583" lon="13.7040567"><ele>253.0</ele><time>2026-04-04T15:07:13.744Z</time></trkpt><trkpt lat="42.9282633" lon="13.7039833"><ele>253.0</ele><time>2026-04-04T15:07:14.743Z</time></trkpt><trkpt lat="42.928355" lon="13.703895"><ele>253.0</ele><time>2026-04-04T15:07:15.744Z</time></trkpt><trkpt lat="42.9284283" lon="13.7037833"><ele>253.0</ele><time>2026-04-04T15:07:16.744Z</time></trkpt><trkpt lat="42.928495" lon="13.70365"><ele>252.75</ele><time>2026-04-04T15:07:17.743Z</time></trkpt><trkpt lat="42.9285433" lon="13.7035083"><ele>252.5</ele><time>2026-04-04T15:07:18.743Z</time></trkpt><trkpt lat="42.9286067" lon="13.7033633"><ele>252.25</ele><time>2026-04-04T15:07:19.743Z</time></trkpt><trkpt lat="42.92866" lon="13.703215"><ele>252.0</ele><time>2026-04-04T15:07:20.744Z</time></trkpt><trkpt lat="42.92872" lon="13.7030667"><ele>252.0</ele><time>2026-04-04T15:07:21.743Z</time></trkpt><trkpt lat="42.9287833" lon="13.7029233"><ele>252.0</ele><time>2026-04-04T15:07:22.744Z</time></trkpt><trkpt lat="42.9288517" lon="13.702785"><ele>252.0</ele><time>2026-04-04T15:07:23.743Z</time></trkpt><trkpt lat="42.9289367" lon="13.7026667"><ele>252.0</ele><time>2026-04-04T15:07:24.743Z</time></trkpt><trkpt lat="42.9290417" lon="13.7025933"><ele>253.5</ele><time>2026-04-04T15:07:25.743Z</time></trkpt><trkpt lat="42.9291567" lon="13.7025133"><ele>255.0</ele><time>2026-04-04T15:07:26.743Z</time></trkpt><trkpt lat="42.9292767" lon="13.7024483"><ele>256.5</ele><time>2026-04-04T15:07:27.743Z</time></trkpt><trkpt lat="42.9294033" lon="13.7023733"><ele>258.0</ele><time>2026-04-04T15:07:28.744Z</time></trkpt><trkpt lat="42.9295317" lon="13.7022933"><ele>258.0</ele><time>2026-04-04T15:07:29.744Z</time></trkpt><trkpt lat="42.92965" lon="13.7022183"><ele>258.0</ele><time>2026-04-04T15:07:30.744Z</time></trkpt><trkpt lat="42.92977" lon="13.7021483"><ele>258.0</ele><time>2026-04-04T15:07:31.743Z</time></trkpt><trkpt lat="42.92989" lon="13.7020817"><ele>258.0</ele><time>2026-04-04T15:07:32.744Z</time></trkpt><trkpt lat="42.93001" lon="13.7019967"><ele>262.3333333333333</ele><time>2026-04-04T15:07:33.743Z</time></trkpt><trkpt lat="42.9302233" lon="13.7017967"><ele>266.66666666666663</ele><time>2026-04-04T15:07:35.743Z</time></trkpt><trkpt lat="42.9303233" lon="13.701665"><ele>271.0</ele><time>2026-04-04T15:07:36.744Z</time></trkpt><trkpt lat="42.9304183" lon="13.7015367"><ele>271.0</ele><time>2026-04-04T15:07:37.744Z</time></trkpt><trkpt lat="42.9304917" lon="13.7014017"><ele>271.0</ele><time>2026-04-04T15:07:38.743Z</time></trkpt><trkpt lat="42.9305667" lon="13.701255"><ele>271.0</ele><time>2026-04-04T15:07:39.743Z</time></trkpt><trkpt lat="42.9306367" lon="13.7011117"><ele>271.0</ele><time>2026-04-04T15:07:40.743Z</time></trkpt><trkpt lat="42.9307167" lon="13.7009817"><ele>269.75</ele><time>2026-04-04T15:07:41.744Z</time></trkpt><trkpt lat="42.9308" lon="13.7008683"><ele>268.5</ele><time>2026-04-04T15:07:42.743Z</time></trkpt><trkpt lat="42.9308967" lon="13.70077"><ele>267.25</ele><time>2026-04-04T15:07:43.743Z</time></trkpt><trkpt lat="42.9309983" lon="13.7006733"><ele>266.0</ele><time>2026-04-04T15:07:44.744Z</time></trkpt><trkpt lat="42.93111" lon="13.7005917"><ele>269.25</ele><time>2026-04-04T15:07:45.744Z</time></trkpt><trkpt lat="42.931215" lon="13.7004867"><ele>272.5</ele><time>2026-04-04T15:07:46.743Z</time></trkpt><trkpt lat="42.93132" lon="13.7003633"><ele>275.75</ele><time>2026-04-04T15:07:47.744Z</time></trkpt><trkpt lat="42.9314183" lon="13.7002417"><ele>279.0</ele><time>2026-04-04T15:07:48.744Z</time></trkpt><trkpt lat="42.931505" lon="13.70011"><ele>279.0</ele><time>2026-04-04T15:07:49.743Z</time></trkpt><trkpt lat="42.9315917" lon="13.6999733"><ele>279.0</ele><time>2026-04-04T15:07:50.743Z</time></trkpt><trkpt lat="42.9316683" lon="13.6998333"><ele>279.0</ele><time>2026-04-04T15:07:51.743Z</time></trkpt><trkpt lat="42.9317433" lon="13.6997033"><ele>279.0</ele><time>2026-04-04T15:07:52.743Z</time></trkpt><trkpt lat="42.9318183" lon="13.6995867"><ele>279.4</ele><time>2026-04-04T15:07:53.743Z</time></trkpt><trkpt lat="42.9318917" lon="13.69947"><ele>279.79999999999995</ele><time>2026-04-04T15:07:54.744Z</time></trkpt><trkpt lat="42.9319717" lon="13.6993767"><ele>280.20000000000005</ele><time>2026-04-04T15:07:55.744Z</time></trkpt><trkpt lat="42.9320633" lon="13.6992933"><ele>280.6</ele><time>2026-04-04T15:07:56.743Z</time></trkpt><trkpt lat="42.9321633" lon="13.69923"><ele>281.0</ele><time>2026-04-04T15:07:57.743Z</time></trkpt><trkpt lat="42.9322583" lon="13.6991683"><ele>281.0</ele><time>2026-04-04T15:07:58.743Z</time></trkpt><trkpt lat="42.9323617" lon="13.6991383"><ele>281.0</ele><time>2026-04-04T15:07:59.743Z</time></trkpt><trkpt lat="42.93248" lon="13.6991167"><ele>281.0</ele><time>2026-04-04T15:08:00.744Z</time></trkpt><trkpt lat="42.9325967" lon="13.6991183"><ele>281.0</ele><time>2026-04-04T15:08:01.744Z</time></trkpt><trkpt lat="42.9327133" lon="13.69912"><ele>282.25</ele><time>2026-04-04T15:08:02.744Z</time></trkpt><trkpt lat="42.9328433" lon="13.699115"><ele>283.5</ele><time>2026-04-04T15:08:03.743Z</time></trkpt><trkpt lat="42.93297" lon="13.6991117"><ele>284.75</ele><time>2026-04-04T15:08:04.743Z</time></trkpt><trkpt lat="42.9331017" lon="13.6991017"><ele>286.0</ele><time>2026-04-04T15:08:05.743Z</time></trkpt><trkpt lat="42.9332333" lon="13.6991"><ele>286.0</ele><time>2026-04-04T15:08:06.744Z</time></trkpt><trkpt lat="42.93336" lon="13.6990833"><ele>286.0</ele><time>2026-04-04T15:08:07.744Z</time></trkpt><trkpt lat="42.9334767" lon="13.6990717"><ele>286.0</ele><time>2026-04-04T15:08:08.743Z</time></trkpt><trkpt lat="42.9335983" lon="13.6990633"><ele>286.0</ele><time>2026-04-04T15:08:09.744Z</time></trkpt><trkpt lat="42.9337117" lon="13.6990483"><ele>287.0</ele><time>2026-04-04T15:08:10.744Z</time></trkpt><trkpt lat="42.9338033" lon="13.69905"><ele>288.0</ele><time>2026-04-04T15:08:11.744Z</time></trkpt><trkpt lat="42.9338717" lon="13.6990617"><ele>289.0</ele><time>2026-04-04T15:08:12.743Z</time></trkpt><trkpt lat="42.9339283" lon="13.6991"><ele>290.0</ele><time>2026-04-04T15:08:13.743Z</time></trkpt><trkpt lat="42.9340117" lon="13.6992283"><ele>291.0</ele><time>2026-04-04T15:08:15.744Z</time></trkpt><trkpt lat="42.93405" lon="13.6993017"><ele>292.0</ele><time>2026-04-04T15:08:16.743Z</time></trkpt><trkpt lat="42.9341033" lon="13.6994167"><ele>293.5</ele><time>2026-04-04T15:08:18.744Z</time></trkpt><trkpt lat="42.9341467" lon="13.6995483"><ele>295.0</ele><time>2026-04-04T15:08:20.744Z</time></trkpt><trkpt lat="42.9341367" lon="13.6996717"><ele>296.5</ele><time>2026-04-04T15:08:22.743Z</time></trkpt><trkpt lat="42.9340233" lon="13.6997517"><ele>298.0</ele><time>2026-04-04T15:08:24.743Z</time></trkpt><trkpt lat="42.93383" lon="13.6998267"><ele>298.0</ele><time>2026-04-04T15:08:26.743Z</time></trkpt><trkpt lat="42.9337167" lon="13.6998817"><ele>298.0</ele><time>2026-04-04T15:08:27.744Z</time></trkpt><trkpt lat="42.933605" lon="13.699945"><ele>298.0</ele><time>2026-04-04T15:08:28.744Z</time></trkpt><trkpt lat="42.9335067" lon="13.700005"><ele>298.0</ele><time>2026-04-04T15:08:29.743Z</time></trkpt><trkpt lat="42.9333983" lon="13.7000667"><ele>297.25</ele><time>2026-04-04T15:08:30.744Z</time></trkpt><trkpt lat="42.9332967" lon="13.70011"><ele>296.5</ele><time>2026-04-04T15:08:31.744Z</time></trkpt><trkpt lat="42.93318" lon="13.70016"><ele>295.75</ele><time>2026-04-04T15:08:32.744Z</time></trkpt><trkpt lat="42.9330533" lon="13.7002117"><ele>295.0</ele><time>2026-04-04T15:08:33.743Z</time></trkpt><trkpt lat="42.932925" lon="13.700265"><ele>295.6</ele><time>2026-04-04T15:08:34.743Z</time></trkpt><trkpt lat="42.9328183" lon="13.7003183"><ele>296.2</ele><time>2026-04-04T15:08:35.743Z</time></trkpt><trkpt lat="42.9327017" lon="13.7003567"><ele>296.8</ele><time>2026-04-04T15:08:36.744Z</time></trkpt><trkpt lat="42.9326033" lon="13.7004217"><ele>297.4</ele><time>2026-04-04T15:08:37.743Z</time></trkpt><trkpt lat="42.9325233" lon="13.70048"><ele>298.0</ele><time>2026-04-04T15:08:38.743Z</time></trkpt><trkpt lat="42.93245" lon="13.70056"><ele>298.0</ele><time>2026-04-04T15:08:39.743Z</time></trkpt><trkpt lat="42.9323733" lon="13.7006633"><ele>298.0</ele><time>2026-04-04T15:08:40.743Z</time></trkpt><trkpt lat="42.9322917" lon="13.7007833"><ele>298.0</ele><time>2026-04-04T15:08:41.743Z</time></trkpt><trkpt lat="42.9322133" lon="13.7009067"><ele>298.0</ele><time>2026-04-04T15:08:42.743Z</time></trkpt><trkpt lat="42.9321367" lon="13.7010267"><ele>298.8</ele><time>2026-04-04T15:08:43.743Z</time></trkpt><trkpt lat="42.9320617" lon="13.7011383"><ele>299.6</ele><time>2026-04-04T15:08:44.743Z</time></trkpt><trkpt lat="42.9319917" lon="13.7012567"><ele>300.4</ele><time>2026-04-04T15:08:45.743Z</time></trkpt><trkpt lat="42.9319317" lon="13.7013867"><ele>301.2</ele><time>2026-04-04T15:08:46.744Z</time></trkpt><trkpt lat="42.9318917" lon="13.7015217"><ele>302.0</ele><time>2026-04-04T15:08:47.744Z</time></trkpt><trkpt lat="42.9318783" lon="13.701655"><ele>302.0</ele><time>2026-04-04T15:08:48.743Z</time></trkpt><trkpt lat="42.9318833" lon="13.70179"><ele>302.0</ele><time>2026-04-04T15:08:49.743Z</time></trkpt><trkpt lat="42.93191" lon="13.7019283"><ele>302.0</ele><time>2026-04-04T15:08:50.744Z</time></trkpt><trkpt lat="42.93196" lon="13.70206"><ele>302.0</ele><time>2026-04-04T15:08:51.743Z</time></trkpt><trkpt lat="42.932025" lon="13.7021633"><ele>302.0</ele><time>2026-04-04T15:08:52.743Z</time></trkpt><trkpt lat="42.9320983" lon="13.7022383"><ele>301.4</ele><time>2026-04-04T15:08:53.743Z</time></trkpt><trkpt lat="42.9321767" lon="13.7023033"><ele>300.79999999999995</ele><time>2026-04-04T15:08:54.743Z</time></trkpt><trkpt lat="42.932265" lon="13.70235"><ele>300.2</ele><time>2026-04-04T15:08:55.743Z</time></trkpt><trkpt lat="42.93235" lon="13.7023833"><ele>299.59999999999997</ele><time>2026-04-04T15:08:56.743Z</time></trkpt><trkpt lat="42.9324483" lon="13.7023917"><ele>299.0</ele><time>2026-04-04T15:08:57.743Z</time></trkpt><trkpt lat="42.93254" lon="13.7024"><ele>299.8</ele><time>2026-04-04T15:08:58.743Z</time></trkpt><trkpt lat="42.932635" lon="13.7023983"><ele>300.59999999999997</ele><time>2026-04-04T15:08:59.743Z</time></trkpt><trkpt lat="42.9327317" lon="13.702415"><ele>301.4</ele><time>2026-04-04T15:09:00.743Z</time></trkpt><trkpt lat="42.9328367" lon="13.70242"><ele>302.2</ele><time>2026-04-04T15:09:01.743Z</time></trkpt><trkpt lat="42.9329383" lon="13.7024183"><ele>303.0</ele><time>2026-04-04T15:09:02.743Z</time></trkpt><trkpt lat="42.933045" lon="13.702415"><ele>303.0</ele><time>2026-04-04T15:09:03.744Z</time></trkpt><trkpt lat="42.9331517" lon="13.7024233"><ele>303.0</ele><time>2026-04-04T15:09:04.743Z</time></trkpt><trkpt lat="42.9332583" lon="13.7024367"><ele>303.0</ele><time>2026-04-04T15:09:05.743Z</time></trkpt><trkpt lat="42.9333683" lon="13.70244"><ele>303.0</ele><time>2026-04-04T15:09:06.744Z</time></trkpt><trkpt lat="42.93347" lon="13.702445"><ele>303.0</ele><time>2026-04-04T15:09:07.743Z</time></trkpt><trkpt lat="42.9335817" lon="13.7024367"><ele>303.8</ele><time>2026-04-04T15:09:08.743Z</time></trkpt><trkpt lat="42.9336883" lon="13.7024367"><ele>304.6</ele><time>2026-04-04T15:09:09.744Z</time></trkpt><trkpt lat="42.933785" lon="13.7024467"><ele>305.4</ele><time>2026-04-04T15:09:10.744Z</time></trkpt><trkpt lat="42.9338917" lon="13.7024483"><ele>306.2</ele><time>2026-04-04T15:09:11.744Z</time></trkpt><trkpt lat="42.9340067" lon="13.70244"><ele>307.0</ele><time>2026-04-04T15:09:12.744Z</time></trkpt><trkpt lat="42.9341233" lon="13.7024267"><ele>307.0</ele><time>2026-04-04T15:09:13.743Z</time></trkpt><trkpt lat="42.9342433" lon="13.7024183"><ele>307.0</ele><time>2026-04-04T15:09:14.743Z</time></trkpt><trkpt lat="42.9343583" lon="13.70241"><ele>307.0</ele><time>2026-04-04T15:09:15.743Z</time></trkpt><trkpt lat="42.934485" lon="13.7023833"><ele>307.0</ele><time>2026-04-04T15:09:16.743Z</time></trkpt><trkpt lat="42.9345983" lon="13.702355"><ele>307.0</ele><time>2026-04-04T15:09:17.743Z</time></trkpt><trkpt lat="42.934725" lon="13.7023233"><ele>307.0</ele><time>2026-04-04T15:09:18.744Z</time></trkpt><trkpt lat="42.9348533" lon="13.7022767"><ele>307.0</ele><time>2026-04-04T15:09:19.743Z</time></trkpt><trkpt lat="42.9349733" lon="13.7022183"><ele>307.0</ele><time>2026-04-04T15:09:20.744Z</time></trkpt><trkpt lat="42.93509" lon="13.7021733"><ele>306.2</ele><time>2026-04-04T15:09:21.743Z</time></trkpt><trkpt lat="42.9352033" lon="13.7021317"><ele>305.4</ele><time>2026-04-04T15:09:22.744Z</time></trkpt><trkpt lat="42.9353033" lon="13.702075"><ele>304.6</ele><time>2026-04-04T15:09:23.744Z</time></trkpt><trkpt lat="42.9354033" lon="13.7020233"><ele>303.8</ele><time>2026-04-04T15:09:24.743Z</time></trkpt><trkpt lat="42.9355133" lon="13.7019733"><ele>303.0</ele><time>2026-04-04T15:09:25.744Z</time></trkpt><trkpt lat="42.935615" lon="13.70191"><ele>304.0</ele><time>2026-04-04T15:09:26.743Z</time></trkpt><trkpt lat="42.93572" lon="13.7018667"><ele>305.0</ele><time>2026-04-04T15:09:27.743Z</time></trkpt><trkpt lat="42.93584" lon="13.70182"><ele>306.0</ele><time>2026-04-04T15:09:28.744Z</time></trkpt><trkpt lat="42.9359583" lon="13.7017683"><ele>307.0</ele><time>2026-04-04T15:09:29.743Z</time></trkpt><trkpt lat="42.93607" lon="13.701715"><ele>307.0</ele><time>2026-04-04T15:09:30.743Z</time></trkpt><trkpt lat="42.9361733" lon="13.7016633"><ele>307.0</ele><time>2026-04-04T15:09:31.743Z</time></trkpt><trkpt lat="42.93625" lon="13.7016183"><ele>307.0</ele><time>2026-04-04T15:09:32.744Z</time></trkpt><trkpt lat="42.9363217" lon="13.70158"><ele>307.0</ele><time>2026-04-04T15:09:33.743Z</time></trkpt><trkpt lat="42.9364133" lon="13.7015333"><ele>307.0</ele><time>2026-04-04T15:09:35.743Z</time></trkpt><trkpt lat="42.93649" lon="13.7015233"><ele>307.0</ele><time>2026-04-04T15:09:37.744Z</time></trkpt><trkpt lat="42.9365417" lon="13.7016433"><ele>306.99999999999994</ele><time>2026-04-04T15:09:39.744Z</time></trkpt><trkpt lat="42.9365583" lon="13.7017567"><ele>307.0</ele><time>2026-04-04T15:09:40.743Z</time></trkpt><trkpt lat="42.9365717" lon="13.7018667"><ele>307.0</ele><time>2026-04-04T15:09:41.742Z</time></trkpt><trkpt lat="42.93659" lon="13.7019583"><ele>307.0</ele><time>2026-04-04T15:09:42.742Z</time></trkpt><trkpt lat="42.9366167" lon="13.7020417"><ele>307.0</ele><time>2026-04-04T15:09:43.742Z</time></trkpt><trkpt lat="42.93665" lon="13.7021333"><ele>306.99999999999994</ele><time>2026-04-04T15:09:44.742Z</time></trkpt><trkpt lat="42.9366767" lon="13.7022233"><ele>307.0</ele><time>2026-04-04T15:09:45.743Z</time></trkpt><trkpt lat="42.9367" lon="13.7023167"><ele>305.5</ele><time>2026-04-04T15:09:46.742Z</time></trkpt><trkpt lat="42.9367183" lon="13.7024083"><ele>304.0</ele><time>2026-04-04T15:09:47.742Z</time></trkpt><trkpt lat="42.9367367" lon="13.702495"><ele>302.5</ele><time>2026-04-04T15:09:48.742Z</time></trkpt><trkpt lat="42.93677" lon="13.70265"><ele>301.0</ele><time>2026-04-04T15:09:50.742Z</time></trkpt><trkpt lat="42.9368183" lon="13.7027783"><ele>299.5</ele><time>2026-04-04T15:09:52.742Z</time></trkpt><trkpt lat="42.936855" lon="13.7028767"><ele>298.0</ele><time>2026-04-04T15:09:54.742Z</time></trkpt><trkpt lat="42.9368733" lon="13.70301"><ele>294.6</ele><time>2026-04-04T15:09:57.743Z</time></trkpt><trkpt lat="42.9369267" lon="13.70308"><ele>291.20000000000005</ele><time>2026-04-04T15:09:59.742Z</time></trkpt><trkpt lat="42.937055" lon="13.703095"><ele>287.8</ele><time>2026-04-04T15:10:01.742Z</time></trkpt><trkpt lat="42.93715" lon="13.70307"><ele>284.40000000000003</ele><time>2026-04-04T15:10:02.742Z</time></trkpt><trkpt lat="42.9372533" lon="13.7030267"><ele>281.0</ele><time>2026-04-04T15:10:03.743Z</time></trkpt><trkpt lat="42.9373617" lon="13.7029683"><ele>281.0</ele><time>2026-04-04T15:10:04.742Z</time></trkpt><trkpt lat="42.9374817" lon="13.7029083"><ele>281.0</ele><time>2026-04-04T15:10:05.743Z</time></trkpt><trkpt lat="42.9376017" lon="13.702855"><ele>281.0</ele><time>2026-04-04T15:10:06.742Z</time></trkpt><trkpt lat="42.93773" lon="13.7028067"><ele>281.0</ele><time>2026-04-04T15:10:07.743Z</time></trkpt><trkpt lat="42.9378517" lon="13.7027517"><ele>282.5</ele><time>2026-04-04T15:10:08.742Z</time></trkpt><trkpt lat="42.9379717" lon="13.7027017"><ele>284.0</ele><time>2026-04-04T15:10:09.742Z</time></trkpt><trkpt lat="42.9381" lon="13.70265"><ele>285.5</ele><time>2026-04-04T15:10:10.742Z</time></trkpt><trkpt lat="42.9382267" lon="13.7026"><ele>287.0</ele><time>2026-04-04T15:10:11.742Z</time></trkpt><trkpt lat="42.9383567" lon="13.7025417"><ele>285.5</ele><time>2026-04-04T15:10:12.742Z</time></trkpt><trkpt lat="42.9384833" lon="13.702475"><ele>284.0</ele><time>2026-04-04T15:10:13.743Z</time></trkpt><trkpt lat="42.93861" lon="13.7024233"><ele>282.5</ele><time>2026-04-04T15:10:14.742Z</time></trkpt><trkpt lat="42.93875" lon="13.7023683"><ele>281.0</ele><time>2026-04-04T15:10:15.743Z</time></trkpt><trkpt lat="42.9388917" lon="13.702345"><ele>281.0</ele><time>2026-04-04T15:10:16.743Z</time></trkpt><trkpt lat="42.9390317" lon="13.7023167"><ele>281.0</ele><time>2026-04-04T15:10:17.742Z</time></trkpt><trkpt lat="42.93917" lon="13.7022833"><ele>281.0</ele><time>2026-04-04T15:10:18.743Z</time></trkpt><trkpt lat="42.9393017" lon="13.7022467"><ele>281.0</ele><time>2026-04-04T15:10:19.742Z</time></trkpt><trkpt lat="42.9394333" lon="13.702215"><ele>279.5</ele><time>2026-04-04T15:10:20.742Z</time></trkpt><trkpt lat="42.9395617" lon="13.7021917"><ele>278.0</ele><time>2026-04-04T15:10:21.742Z</time></trkpt><trkpt lat="42.9396867" lon="13.7021767"><ele>276.5</ele><time>2026-04-04T15:10:22.742Z</time></trkpt><trkpt lat="42.9398" lon="13.7021633"><ele>275.0</ele><time>2026-04-04T15:10:23.742Z</time></trkpt><trkpt lat="42.9399117" lon="13.7021567"><ele>275.0</ele><time>2026-04-04T15:10:24.742Z</time></trkpt><trkpt lat="42.9400183" lon="13.7021483"><ele>275.0</ele><time>2026-04-04T15:10:25.742Z</time></trkpt><trkpt lat="42.9401117" lon="13.70214"><ele>275.0</ele><time>2026-04-04T15:10:26.742Z</time></trkpt><trkpt lat="42.9402017" lon="13.7021333"><ele>275.0</ele><time>2026-04-04T15:10:27.742Z</time></trkpt><trkpt lat="42.94028" lon="13.70213"><ele>275.0</ele><time>2026-04-04T15:10:28.743Z</time></trkpt><trkpt lat="42.9403467" lon="13.7021317"><ele>275.0</ele><time>2026-04-04T15:10:29.742Z</time></trkpt><trkpt lat="42.940455" lon="13.7021283"><ele>273.5</ele><time>2026-04-04T15:10:31.742Z</time></trkpt><trkpt lat="42.94053" lon="13.7021183"><ele>272.0</ele><time>2026-04-04T15:10:33.742Z</time></trkpt><trkpt lat="42.9405933" lon="13.702075"><ele>270.5</ele><time>2026-04-04T15:10:50.742Z</time></trkpt><trkpt lat="42.94053" lon="13.7020383"><ele>269.0</ele><time>2026-04-04T15:10:58.743Z</time></trkpt><trkpt lat="42.94044" lon="13.7020367"><ele>267.5</ele><time>2026-04-04T15:11:00.742Z</time></trkpt><trkpt lat="42.94037" lon="13.70204"><ele>266.0</ele><time>2026-04-04T15:11:01.742Z</time></trkpt><trkpt lat="42.940275" lon="13.7020517"><ele>266.0</ele><time>2026-04-04T15:11:02.742Z</time></trkpt><trkpt lat="42.94016" lon="13.7020567"><ele>266.0</ele><time>2026-04-04T15:11:03.743Z</time></trkpt><trkpt lat="42.9400417" lon="13.7020633"><ele>266.0</ele><time>2026-04-04T15:11:04.743Z</time></trkpt><trkpt lat="42.9399017" lon="13.702085"><ele>266.0</ele><time>2026-04-04T15:11:05.742Z</time></trkpt><trkpt lat="42.9397483" lon="13.702105"><ele>269.0</ele><time>2026-04-04T15:11:06.743Z</time></trkpt><trkpt lat="42.93959" lon="13.70213"><ele>272.0</ele><time>2026-04-04T15:11:07.742Z</time></trkpt><trkpt lat="42.9394383" lon="13.7021533"><ele>275.0</ele><time>2026-04-04T15:11:08.742Z</time></trkpt><trkpt lat="42.9392917" lon="13.70218"><ele>276.5</ele><time>2026-04-04T15:11:09.743Z</time></trkpt><trkpt lat="42.9391583" lon="13.7021883"><ele>278.0</ele><time>2026-04-04T15:11:10.742Z</time></trkpt><trkpt lat="42.9390367" lon="13.7022217"><ele>279.5</ele><time>2026-04-04T15:11:11.743Z</time></trkpt><trkpt lat="42.9389267" lon="13.7022533"><ele>281.0</ele><time>2026-04-04T15:11:12.743Z</time></trkpt><trkpt lat="42.93881" lon="13.7022833"><ele>281.0</ele><time>2026-04-04T15:11:13.742Z</time></trkpt><trkpt lat="42.9386983" lon="13.7023167"><ele>281.0</ele><time>2026-04-04T15:11:14.742Z</time></trkpt><trkpt lat="42.9385883" lon="13.702345"><ele>281.0</ele><time>2026-04-04T15:11:15.742Z</time></trkpt><trkpt lat="42.938495" lon="13.7023733"><ele>281.0</ele><time>2026-04-04T15:11:16.742Z</time></trkpt><trkpt lat="42.938415" lon="13.702405"><ele>281.0</ele><time>2026-04-04T15:11:17.742Z</time></trkpt><trkpt lat="42.938345" lon="13.7024433"><ele>282.2</ele><time>2026-04-04T15:11:18.743Z</time></trkpt><trkpt lat="42.9382767" lon="13.70246"><ele>283.40000000000003</ele><time>2026-04-04T15:11:19.742Z</time></trkpt><trkpt lat="42.93816" lon="13.7024533"><ele>284.6</ele><time>2026-04-04T15:11:21.742Z</time></trkpt><trkpt lat="42.9380683" lon="13.7023317"><ele>285.8</ele><time>2026-04-04T15:11:23.742Z</time></trkpt><trkpt lat="42.938035" lon="13.7022317"><ele>287.0</ele><time>2026-04-04T15:11:24.742Z</time></trkpt><trkpt lat="42.9380017" lon="13.7021317"><ele>287.0</ele><time>2026-04-04T15:11:25.742Z</time></trkpt><trkpt lat="42.9379667" lon="13.7020233"><ele>287.0</ele><time>2026-04-04T15:11:26.743Z</time></trkpt><trkpt lat="42.93793" lon="13.7019083"><ele>287.0</ele><time>2026-04-04T15:11:27.743Z</time></trkpt><trkpt lat="42.93788" lon="13.7017867"><ele>287.0</ele><time>2026-04-04T15:11:28.743Z</time></trkpt><trkpt lat="42.937835" lon="13.7016633"><ele>287.0</ele><time>2026-04-04T15:11:29.742Z</time></trkpt><trkpt lat="42.9377917" lon="13.7015367"><ele>288.75</ele><time>2026-04-04T15:11:30.742Z</time></trkpt><trkpt lat="42.9377533" lon="13.7014067"><ele>290.5</ele><time>2026-04-04T15:11:31.743Z</time></trkpt><trkpt lat="42.9377033" lon="13.70127"><ele>292.25</ele><time>2026-04-04T15:11:32.742Z</time></trkpt><trkpt lat="42.9376483" lon="13.7011133"><ele>294.0</ele><time>2026-04-04T15:11:33.742Z</time></trkpt><trkpt lat="42.937595" lon="13.7009567"><ele>298.25</ele><time>2026-04-04T15:11:34.743Z</time></trkpt><trkpt lat="42.9375467" lon="13.7007917"><ele>302.5</ele><time>2026-04-04T15:11:35.742Z</time></trkpt><trkpt lat="42.9375" lon="13.7006333"><ele>306.75</ele><time>2026-04-04T15:11:36.742Z</time></trkpt><trkpt lat="42.9374533" lon="13.7004817"><ele>311.0</ele><time>2026-04-04T15:11:37.742Z</time></trkpt><trkpt lat="42.9374017" lon="13.7002833"><ele>313.0</ele><time>2026-04-04T15:11:38.742Z</time></trkpt><trkpt lat="42.9373517" lon="13.70006"><ele>315.0</ele><time>2026-04-04T15:11:39.743Z</time></trkpt><trkpt lat="42.9373017" lon="13.6998433"><ele>317.0</ele><time>2026-04-04T15:11:40.743Z</time></trkpt><trkpt lat="42.9372583" lon="13.6996783"><ele>317.0</ele><time>2026-04-04T15:11:41.742Z</time></trkpt><trkpt lat="42.9372267" lon="13.69956"><ele>317.0</ele><time>2026-04-04T15:11:42.742Z</time></trkpt><trkpt lat="42.9372367" lon="13.6994683"><ele>317.0</ele><time>2026-04-04T15:11:43.743Z</time></trkpt><trkpt lat="42.9372483" lon="13.699335"><ele>317.0</ele><time>2026-04-04T15:11:45.742Z</time></trkpt><trkpt lat="42.9372983" lon="13.6992617"><ele>317.0</ele><time>2026-04-04T15:11:47.743Z</time></trkpt><trkpt lat="42.9373767" lon="13.6992517"><ele>317.0</ele><time>2026-04-04T15:11:49.742Z</time></trkpt><trkpt lat="42.937335" lon="13.699185"><ele>318.2</ele><time>2026-04-04T15:11:54.742Z</time></trkpt><trkpt lat="42.9372533" lon="13.699075"><ele>319.4</ele><time>2026-04-04T15:11:56.743Z</time></trkpt><trkpt lat="42.9372333" lon="13.6989833"><ele>320.59999999999997</ele><time>2026-04-04T15:11:57.742Z</time></trkpt><trkpt lat="42.93724" lon="13.698855"><ele>321.79999999999995</ele><time>2026-04-04T15:11:58.742Z</time></trkpt><trkpt lat="42.9372767" lon="13.6986317"><ele>323.0</ele><time>2026-04-04T15:12:00.742Z</time></trkpt><trkpt lat="42.9373233" lon="13.6985133"><ele>323.2</ele><time>2026-04-04T15:12:02.743Z</time></trkpt><trkpt lat="42.9374317" lon="13.6984017"><ele>323.4</ele><time>2026-04-04T15:12:04.743Z</time></trkpt><trkpt lat="42.9374983" lon="13.6983283"><ele>323.59999999999997</ele><time>2026-04-04T15:12:05.743Z</time></trkpt><trkpt lat="42.9375833" lon="13.69825"><ele>323.79999999999995</ele><time>2026-04-04T15:12:06.743Z</time></trkpt><trkpt lat="42.93767" lon="13.698165"><ele>324.0</ele><time>2026-04-04T15:12:07.743Z</time></trkpt><trkpt lat="42.9377533" lon="13.6980683"><ele>325.5</ele><time>2026-04-04T15:12:08.743Z</time></trkpt><trkpt lat="42.9378467" lon="13.6979783"><ele>327.0</ele><time>2026-04-04T15:12:09.742Z</time></trkpt><trkpt lat="42.9379583" lon="13.6978967"><ele>328.5</ele><time>2026-04-04T15:12:10.743Z</time></trkpt><trkpt lat="42.9380567" lon="13.6978133"><ele>330.0</ele><time>2026-04-04T15:12:11.743Z</time></trkpt><trkpt lat="42.9381633" lon="13.6977283"><ele>331.5</ele><time>2026-04-04T15:12:12.742Z</time></trkpt><trkpt lat="42.9382817" lon="13.697665"><ele>333.0</ele><time>2026-04-04T15:12:13.742Z</time></trkpt><trkpt lat="42.938415" lon="13.6976267"><ele>334.5</ele><time>2026-04-04T15:12:14.742Z</time></trkpt><trkpt lat="42.9385583" lon="13.6975967"><ele>336.0</ele><time>2026-04-04T15:12:15.742Z</time></trkpt><trkpt lat="42.9387033" lon="13.6975767"><ele>337.75</ele><time>2026-04-04T15:12:16.742Z</time></trkpt><trkpt lat="42.9388417" lon="13.69755"><ele>339.5</ele><time>2026-04-04T15:12:17.743Z</time></trkpt><trkpt lat="42.9389583" lon="13.6975067"><ele>341.25</ele><time>2026-04-04T15:12:18.742Z</time></trkpt><trkpt lat="42.9390783" lon="13.69746"><ele>343.0</ele><time>2026-04-04T15:12:19.743Z</time></trkpt><trkpt lat="42.9391917" lon="13.6974017"><ele>341.5</ele><time>2026-04-04T15:12:20.743Z</time></trkpt><trkpt lat="42.9393033" lon="13.6973483"><ele>340.0</ele><time>2026-04-04T15:12:21.743Z</time></trkpt><trkpt lat="42.9394117" lon="13.6972983"><ele>338.5</ele><time>2026-04-04T15:12:22.743Z</time></trkpt><trkpt lat="42.9395233" lon="13.6972367"><ele>337.0</ele><time>2026-04-04T15:12:23.742Z</time></trkpt><trkpt lat="42.9396317" lon="13.6971833"><ele>337.0</ele><time>2026-04-04T15:12:24.743Z</time></trkpt><trkpt lat="42.9397383" lon="13.6971333"><ele>337.0</ele><time>2026-04-04T15:12:25.743Z</time></trkpt><trkpt lat="42.93985" lon="13.69707"><ele>337.0</ele><time>2026-04-04T15:12:26.742Z</time></trkpt><trkpt lat="42.9399617" lon="13.6970133"><ele>337.0</ele><time>2026-04-04T15:12:27.742Z</time></trkpt><trkpt lat="42.94005" lon="13.69696"><ele>337.0</ele><time>2026-04-04T15:12:28.743Z</time></trkpt><trkpt lat="42.9401483" lon="13.6969417"><ele>337.75</ele><time>2026-04-04T15:12:29.742Z</time></trkpt><trkpt lat="42.9402317" lon="13.69697"><ele>338.5</ele><time>2026-04-04T15:12:30.743Z</time></trkpt><trkpt lat="42.9403317" lon="13.6970383"><ele>339.25</ele><time>2026-04-04T15:12:31.742Z</time></trkpt><trkpt lat="42.940445" lon="13.6971133"><ele>340.0</ele><time>2026-04-04T15:12:32.742Z</time></trkpt><trkpt lat="42.9405733" lon="13.6971867"><ele>340.0</ele><time>2026-04-04T15:12:33.742Z</time></trkpt><trkpt lat="42.9407017" lon="13.6972483"><ele>340.0</ele><time>2026-04-04T15:12:34.743Z</time></trkpt><trkpt lat="42.9408267" lon="13.697325"><ele>340.0</ele><time>2026-04-04T15:12:35.743Z</time></trkpt><trkpt lat="42.9409533" lon="13.6973917"><ele>340.0</ele><time>2026-04-04T15:12:36.743Z</time></trkpt><trkpt lat="42.941085" lon="13.6974283"><ele>341.5</ele><time>2026-04-04T15:12:37.743Z</time></trkpt><trkpt lat="42.9412167" lon="13.6974417"><ele>343.0</ele><time>2026-04-04T15:12:38.742Z</time></trkpt><trkpt lat="42.94135" lon="13.6974533"><ele>344.5</ele><time>2026-04-04T15:12:39.742Z</time></trkpt><trkpt lat="42.9414817" lon="13.69746"><ele>346.0</ele><time>2026-04-04T15:12:40.743Z</time></trkpt><trkpt lat="42.9416167" lon="13.6974517"><ele>347.0</ele><time>2026-04-04T15:12:41.742Z</time></trkpt><trkpt lat="42.94175" lon="13.69741"><ele>348.0</ele><time>2026-04-04T15:12:42.742Z</time></trkpt><trkpt lat="42.9418883" lon="13.69736"><ele>349.0</ele><time>2026-04-04T15:12:43.743Z</time></trkpt><trkpt lat="42.9420317" lon="13.6973033"><ele>350.0</ele><time>2026-04-04T15:12:44.743Z</time></trkpt><trkpt lat="42.94218" lon="13.6972533"><ele>350.0</ele><time>2026-04-04T15:12:45.743Z</time></trkpt><trkpt lat="42.9423267" lon="13.6972183"><ele>350.0</ele><time>2026-04-04T15:12:46.742Z</time></trkpt><trkpt lat="42.94247" lon="13.69717"><ele>350.0</ele><time>2026-04-04T15:12:47.743Z</time></trkpt><trkpt lat="42.9426017" lon="13.6971117"><ele>350.0</ele><time>2026-04-04T15:12:48.742Z</time></trkpt><trkpt lat="42.942725" lon="13.697045"><ele>351.0</ele><time>2026-04-04T15:12:49.742Z</time></trkpt><trkpt lat="42.9428467" lon="13.6969667"><ele>352.0</ele><time>2026-04-04T15:12:50.742Z</time></trkpt><trkpt lat="42.9429817" lon="13.6968883"><ele>353.0</ele><time>2026-04-04T15:12:51.742Z</time></trkpt><trkpt lat="42.943115" lon="13.6968017"><ele>354.0</ele><time>2026-04-04T15:12:52.742Z</time></trkpt><trkpt lat="42.9432417" lon="13.6967033"><ele>357.75</ele><time>2026-04-04T15:12:53.742Z</time></trkpt><trkpt lat="42.9433733" lon="13.696605"><ele>361.5</ele><time>2026-04-04T15:12:54.742Z</time></trkpt><trkpt lat="42.943505" lon="13.6965317"><ele>365.25</ele><time>2026-04-04T15:12:55.742Z</time></trkpt><trkpt lat="42.943655" lon="13.6964717"><ele>369.0</ele><time>2026-04-04T15:12:56.742Z</time></trkpt><trkpt lat="42.9438083" lon="13.6964483"><ele>369.6666666666667</ele><time>2026-04-04T15:12:57.742Z</time></trkpt><trkpt lat="42.9439583" lon="13.69644"><ele>370.33333333333337</ele><time>2026-04-04T15:12:58.743Z</time></trkpt><trkpt lat="42.9441117" lon="13.6964383"><ele>371.0</ele><time>2026-04-04T15:12:59.743Z</time></trkpt><trkpt lat="42.9442617" lon="13.69643"><ele>373.25</ele><time>2026-04-04T15:13:00.742Z</time></trkpt><trkpt lat="42.9444033" lon="13.696415"><ele>375.5</ele><time>2026-04-04T15:13:01.742Z</time></trkpt><trkpt lat="42.9445267" lon="13.6964117"><ele>377.75</ele><time>2026-04-04T15:13:02.742Z</time></trkpt><trkpt lat="42.944645" lon="13.69641"><ele>380.0</ele><time>2026-04-04T15:13:03.742Z</time></trkpt><trkpt lat="42.9447567" lon="13.69642"><ele>380.0</ele><time>2026-04-04T15:13:04.742Z</time></trkpt><trkpt lat="42.9448533" lon="13.6964467"><ele>380.0</ele><time>2026-04-04T15:13:05.742Z</time></trkpt><trkpt lat="42.94495" lon="13.696515"><ele>380.0</ele><time>2026-04-04T15:13:06.743Z</time></trkpt><trkpt lat="42.9450517" lon="13.6966067"><ele>380.0</ele><time>2026-04-04T15:13:07.743Z</time></trkpt><trkpt lat="42.945145" lon="13.69672"><ele>379.0</ele><time>2026-04-04T15:13:08.742Z</time></trkpt><trkpt lat="42.9452233" lon="13.6968333"><ele>378.0</ele><time>2026-04-04T15:13:09.743Z</time></trkpt><trkpt lat="42.9453017" lon="13.6969333"><ele>377.0</ele><time>2026-04-04T15:13:10.742Z</time></trkpt><trkpt lat="42.9453783" lon="13.69704"><ele>376.0</ele><time>2026-04-04T15:13:11.743Z</time></trkpt><trkpt lat="42.94546" lon="13.6971617"><ele>376.0</ele><time>2026-04-04T15:13:12.743Z</time></trkpt><trkpt lat="42.9455333" lon="13.6972867"><ele>376.0</ele><time>2026-04-04T15:13:13.742Z</time></trkpt><trkpt lat="42.94561" lon="13.697425"><ele>376.0</ele><time>2026-04-04T15:13:14.742Z</time></trkpt><trkpt lat="42.9456833" lon="13.69757"><ele>376.0</ele><time>2026-04-04T15:13:15.742Z</time></trkpt><trkpt lat="42.9457483" lon="13.697725"><ele>374.75</ele><time>2026-04-04T15:13:16.743Z</time></trkpt><trkpt lat="42.9458083" lon="13.6978833"><ele>373.5</ele><time>2026-04-04T15:13:17.743Z</time></trkpt><trkpt lat="42.9458667" lon="13.6980483"><ele>372.25</ele><time>2026-04-04T15:13:18.743Z</time></trkpt><trkpt lat="42.94593" lon="13.6982083"><ele>371.0</ele><time>2026-04-04T15:13:19.742Z</time></trkpt><trkpt lat="42.946" lon="13.698375"><ele>368.0</ele><time>2026-04-04T15:13:20.743Z</time></trkpt><trkpt lat="42.9460633" lon="13.6985367"><ele>365.0</ele><time>2026-04-04T15:13:21.743Z</time></trkpt><trkpt lat="42.9461283" lon="13.698705"><ele>362.0</ele><time>2026-04-04T15:13:22.742Z</time></trkpt><trkpt lat="42.9461983" lon="13.6988767"><ele>359.0</ele><time>2026-04-04T15:13:23.743Z</time></trkpt><trkpt lat="42.9462717" lon="13.6990467"><ele>359.0</ele><time>2026-04-04T15:13:24.743Z</time></trkpt><trkpt lat="42.9463433" lon="13.6992267"><ele>359.0</ele><time>2026-04-04T15:13:25.742Z</time></trkpt><trkpt lat="42.9464183" lon="13.6994"><ele>359.0</ele><time>2026-04-04T15:13:26.742Z</time></trkpt><trkpt lat="42.9464967" lon="13.6995717"><ele>359.0</ele><time>2026-04-04T15:13:27.743Z</time></trkpt><trkpt lat="42.9465733" lon="13.6997333"><ele>357.5</ele><time>2026-04-04T15:13:28.742Z</time></trkpt><trkpt lat="42.9466483" lon="13.6998933"><ele>356.0</ele><time>2026-04-04T15:13:29.743Z</time></trkpt><trkpt lat="42.9467233" lon="13.7000533"><ele>354.5</ele><time>2026-04-04T15:13:30.742Z</time></trkpt><trkpt lat="42.9468117" lon="13.7002117"><ele>353.0</ele><time>2026-04-04T15:13:31.742Z</time></trkpt><trkpt lat="42.94689" lon="13.70038"><ele>350.25</ele><time>2026-04-04T15:13:32.742Z</time></trkpt><trkpt lat="42.9469683" lon="13.7005417"><ele>347.5</ele><time>2026-04-04T15:13:33.743Z</time></trkpt><trkpt lat="42.94705" lon="13.7007067"><ele>344.75</ele><time>2026-04-04T15:13:34.742Z</time></trkpt><trkpt lat="42.9471317" lon="13.7008717"><ele>342.0</ele><time>2026-04-04T15:13:35.742Z</time></trkpt><trkpt lat="42.947215" lon="13.7010317"><ele>341.0</ele><time>2026-04-04T15:13:36.742Z</time></trkpt><trkpt lat="42.9472917" lon="13.7011817"><ele>340.0</ele><time>2026-04-04T15:13:37.742Z</time></trkpt><trkpt lat="42.9473633" lon="13.70133"><ele>339.0</ele><time>2026-04-04T15:13:38.742Z</time></trkpt><trkpt lat="42.9474367" lon="13.7014717"><ele>338.0</ele><time>2026-04-04T15:13:39.742Z</time></trkpt><trkpt lat="42.9475067" lon="13.701605"><ele>338.5</ele><time>2026-04-04T15:13:40.742Z</time></trkpt><trkpt lat="42.9475833" lon="13.7017133"><ele>339.0</ele><time>2026-04-04T15:13:41.742Z</time></trkpt><trkpt lat="42.947685" lon="13.7018"><ele>339.5</ele><time>2026-04-04T15:13:42.743Z</time></trkpt><trkpt lat="42.9478033" lon="13.7018717"><ele>340.0</ele><time>2026-04-04T15:13:43.743Z</time></trkpt><trkpt lat="42.9479317" lon="13.70192"><ele>340.0</ele><time>2026-04-04T15:13:44.742Z</time></trkpt><trkpt lat="42.9480617" lon="13.70194"><ele>340.0</ele><time>2026-04-04T15:13:45.743Z</time></trkpt><trkpt lat="42.9481767" lon="13.7019433"><ele>340.0</ele><time>2026-04-04T15:13:46.742Z</time></trkpt><trkpt lat="42.948285" lon="13.7019417"><ele>340.0</ele><time>2026-04-04T15:13:47.743Z</time></trkpt><trkpt lat="42.9483917" lon="13.701955"><ele>337.6</ele><time>2026-04-04T15:13:48.742Z</time></trkpt><trkpt lat="42.9484917" lon="13.701975"><ele>335.2</ele><time>2026-04-04T15:13:49.743Z</time></trkpt><trkpt lat="42.9485883" lon="13.702005"><ele>332.79999999999995</ele><time>2026-04-04T15:13:50.743Z</time></trkpt><trkpt lat="42.9486883" lon="13.7020633"><ele>330.4</ele><time>2026-04-04T15:13:51.742Z</time></trkpt><trkpt lat="42.9487967" lon="13.7021333"><ele>328.0</ele><time>2026-04-04T15:13:52.743Z</time></trkpt><trkpt lat="42.9489033" lon="13.7022267"><ele>328.0</ele><time>2026-04-04T15:13:53.742Z</time></trkpt><trkpt lat="42.9490233" lon="13.7023383"><ele>328.0</ele><time>2026-04-04T15:13:54.743Z</time></trkpt><trkpt lat="42.9491483" lon="13.7024667"><ele>328.0</ele><time>2026-04-04T15:13:55.742Z</time></trkpt><trkpt lat="42.94929" lon="13.7025917"><ele>328.75</ele><time>2026-04-04T15:13:56.742Z</time></trkpt><trkpt lat="42.9494267" lon="13.7027017"><ele>329.5</ele><time>2026-04-04T15:13:57.742Z</time></trkpt><trkpt lat="42.9495617" lon="13.7027933"><ele>330.25</ele><time>2026-04-04T15:13:58.742Z</time></trkpt><trkpt lat="42.949685" lon="13.7028783"><ele>331.0</ele><time>2026-04-04T15:13:59.742Z</time></trkpt><trkpt lat="42.94981" lon="13.7029533"><ele>331.0</ele><time>2026-04-04T15:14:00.743Z</time></trkpt><trkpt lat="42.9499417" lon="13.70303"><ele>331.0</ele><time>2026-04-04T15:14:01.742Z</time></trkpt><trkpt lat="42.9500617" lon="13.7030883"><ele>331.0</ele><time>2026-04-04T15:14:02.743Z</time></trkpt><trkpt lat="42.9501667" lon="13.7031367"><ele>331.0</ele><time>2026-04-04T15:14:03.742Z</time></trkpt><trkpt lat="42.950265" lon="13.7031783"><ele>330.20000000000005</ele><time>2026-04-04T15:14:04.742Z</time></trkpt><trkpt lat="42.95036" lon="13.7032117"><ele>329.40000000000003</ele><time>2026-04-04T15:14:05.742Z</time></trkpt><trkpt lat="42.95044" lon="13.7032683"><ele>328.6</ele><time>2026-04-04T15:14:06.742Z</time></trkpt><trkpt lat="42.95051" lon="13.703325"><ele>327.8</ele><time>2026-04-04T15:14:07.742Z</time></trkpt><trkpt lat="42.9505983" lon="13.7034"><ele>327.0</ele><time>2026-04-04T15:14:09.742Z</time></trkpt><trkpt lat="42.9507117" lon="13.70337"><ele>327.0</ele><time>2026-04-04T15:14:11.742Z</time></trkpt><trkpt lat="42.950785" lon="13.7033267"><ele>327.0</ele><time>2026-04-04T15:14:12.742Z</time></trkpt><trkpt lat="42.9508683" lon="13.7032733"><ele>327.0</ele><time>2026-04-04T15:14:13.742Z</time></trkpt><trkpt lat="42.950965" lon="13.703205"><ele>327.0</ele><time>2026-04-04T15:14:14.742Z</time></trkpt><trkpt lat="42.951055" lon="13.703125"><ele>327.0</ele><time>2026-04-04T15:14:15.742Z</time></trkpt><trkpt lat="42.951135" lon="13.703045"><ele>326.8333333333333</ele><time>2026-04-04T15:14:16.742Z</time></trkpt><trkpt lat="42.9512133" lon="13.7029383"><ele>326.6666666666667</ele><time>2026-04-04T15:14:17.742Z</time></trkpt><trkpt lat="42.9512933" lon="13.702845"><ele>326.5</ele><time>2026-04-04T15:14:18.743Z</time></trkpt><trkpt lat="42.9513667" lon="13.702765"><ele>326.33333333333337</ele><time>2026-04-04T15:14:19.742Z</time></trkpt><trkpt lat="42.9514217" lon="13.7026983"><ele>326.1666666666667</ele><time>2026-04-04T15:14:20.742Z</time></trkpt><trkpt lat="42.9514667" lon="13.702635"><ele>326.0</ele><time>2026-04-04T15:14:21.742Z</time></trkpt><trkpt lat="42.951535" lon="13.702495"><ele>326.0</ele><time>2026-04-04T15:14:23.742Z</time></trkpt><trkpt lat="42.9515667" lon="13.7024"><ele>326.0</ele><time>2026-04-04T15:14:24.742Z</time></trkpt><trkpt lat="42.9516017" lon="13.7023"><ele>326.0</ele><time>2026-04-04T15:14:25.743Z</time></trkpt><trkpt lat="42.9516333" lon="13.7021833"><ele>326.0</ele><time>2026-04-04T15:14:26.743Z</time></trkpt><trkpt lat="42.9516633" lon="13.7020483"><ele>326.0</ele><time>2026-04-04T15:14:27.742Z</time></trkpt><trkpt lat="42.95169" lon="13.7019117"><ele>325.4</ele><time>2026-04-04T15:14:28.743Z</time></trkpt><trkpt lat="42.9517117" lon="13.7017817"><ele>324.8</ele><time>2026-04-04T15:14:29.742Z</time></trkpt><trkpt lat="42.9517267" lon="13.701655"><ele>324.2</ele><time>2026-04-04T15:14:30.742Z</time></trkpt><trkpt lat="42.9517333" lon="13.7015367"><ele>323.59999999999997</ele><time>2026-04-04T15:14:31.742Z</time></trkpt><trkpt lat="42.951745" lon="13.701415"><ele>323.0</ele><time>2026-04-04T15:14:32.743Z</time></trkpt><trkpt lat="42.9517567" lon="13.70129"><ele>323.0</ele><time>2026-04-04T15:14:33.742Z</time></trkpt><trkpt lat="42.9517717" lon="13.7011567"><ele>323.0</ele><time>2026-04-04T15:14:34.743Z</time></trkpt><trkpt lat="42.9518033" lon="13.7010133"><ele>323.0</ele><time>2026-04-04T15:14:35.741Z</time></trkpt><trkpt lat="42.9518483" lon="13.70086"><ele>323.0</ele><time>2026-04-04T15:14:36.742Z</time></trkpt><trkpt lat="42.9519017" lon="13.700715"><ele>323.0</ele><time>2026-04-04T15:14:37.742Z</time></trkpt><trkpt lat="42.951945" lon="13.7005867"><ele>321.33333333333337</ele><time>2026-04-04T15:14:38.741Z</time></trkpt><trkpt lat="42.9519817" lon="13.7004833"><ele>319.6666666666667</ele><time>2026-04-04T15:14:39.742Z</time></trkpt><trkpt lat="42.9520283" lon="13.7004017"><ele>318.0</ele><time>2026-04-04T15:14:40.741Z</time></trkpt><trkpt lat="42.9520967" lon="13.7003483"><ele>316.3333333333333</ele><time>2026-04-04T15:14:41.741Z</time></trkpt><trkpt lat="42.9521867" lon="13.7003183"><ele>314.66666666666663</ele><time>2026-04-04T15:14:42.741Z</time></trkpt><trkpt lat="42.9522883" lon="13.70029"><ele>313.0</ele><time>2026-04-04T15:14:43.742Z</time></trkpt><trkpt lat="42.9523933" lon="13.7002467"><ele>312.2</ele><time>2026-04-04T15:14:44.741Z</time></trkpt><trkpt lat="42.9524867" lon="13.7001867"><ele>311.4</ele><time>2026-04-04T15:14:45.741Z</time></trkpt><trkpt lat="42.95256" lon="13.7001283"><ele>310.59999999999997</ele><time>2026-04-04T15:14:46.741Z</time></trkpt><trkpt lat="42.9526233" lon="13.7000467"><ele>309.8</ele><time>2026-04-04T15:14:47.741Z</time></trkpt><trkpt lat="42.95267" lon="13.6999483"><ele>309.0</ele><time>2026-04-04T15:14:48.741Z</time></trkpt><trkpt lat="42.9527133" lon="13.6998217"><ele>309.0</ele><time>2026-04-04T15:14:49.742Z</time></trkpt><trkpt lat="42.9527583" lon="13.69964"><ele>309.0</ele><time>2026-04-04T15:14:50.741Z</time></trkpt><trkpt lat="42.95281" lon="13.699435"><ele>309.0</ele><time>2026-04-04T15:14:51.742Z</time></trkpt><trkpt lat="42.9528667" lon="13.6992567"><ele>309.0</ele><time>2026-04-04T15:14:52.742Z</time></trkpt><trkpt lat="42.9529267" lon="13.6991017"><ele>306.8</ele><time>2026-04-04T15:14:53.742Z</time></trkpt><trkpt lat="42.9529833" lon="13.6989617"><ele>304.59999999999997</ele><time>2026-04-04T15:14:54.742Z</time></trkpt><trkpt lat="42.9530267" lon="13.6988383"><ele>302.4</ele><time>2026-04-04T15:14:55.741Z</time></trkpt><trkpt lat="42.9530733" lon="13.6987183"><ele>300.2</ele><time>2026-04-04T15:14:56.742Z</time></trkpt><trkpt lat="42.953115" lon="13.6985933"><ele>298.0</ele><time>2026-04-04T15:14:57.741Z</time></trkpt><trkpt lat="42.953155" lon="13.6984633"><ele>295.5</ele><time>2026-04-04T15:14:58.741Z</time></trkpt><trkpt lat="42.9531983" lon="13.6983433"><ele>293.0</ele><time>2026-04-04T15:14:59.741Z</time></trkpt><trkpt lat="42.9532417" lon="13.69823"><ele>290.5</ele><time>2026-04-04T15:15:00.741Z</time></trkpt><trkpt lat="42.953295" lon="13.6981383"><ele>288.0</ele><time>2026-04-04T15:15:01.741Z</time></trkpt><trkpt lat="42.9533433" lon="13.6980567"><ele>285.5</ele><time>2026-04-04T15:15:02.742Z</time></trkpt><trkpt lat="42.9534" lon="13.6980033"><ele>283.0</ele><time>2026-04-04T15:15:03.741Z</time></trkpt><trkpt lat="42.953475" lon="13.69796"><ele>281.75</ele><time>2026-04-04T15:15:04.742Z</time></trkpt><trkpt lat="42.953555" lon="13.6979217"><ele>280.5</ele><time>2026-04-04T15:15:05.742Z</time></trkpt><trkpt lat="42.9536517" lon="13.6979017"><ele>279.25</ele><time>2026-04-04T15:15:06.741Z</time></trkpt><trkpt lat="42.9537967" lon="13.697885"><ele>278.0</ele><time>2026-04-04T15:15:07.742Z</time></trkpt><trkpt lat="42.953975" lon="13.6978517"><ele>278.0</ele><time>2026-04-04T15:15:08.742Z</time></trkpt><trkpt lat="42.95416" lon="13.69782"><ele>278.0</ele><time>2026-04-04T15:15:09.742Z</time></trkpt><trkpt lat="42.9543317" lon="13.697775"><ele>278.0</ele><time>2026-04-04T15:15:10.742Z</time></trkpt><trkpt lat="42.9544933" lon="13.6977283"><ele>270.6666666666667</ele><time>2026-04-04T15:15:11.741Z</time></trkpt><trkpt lat="42.95464" lon="13.69768"><ele>263.3333333333333</ele><time>2026-04-04T15:15:12.741Z</time></trkpt><trkpt lat="42.9547867" lon="13.6976133"><ele>256.0</ele><time>2026-04-04T15:15:13.741Z</time></trkpt><trkpt lat="42.9549333" lon="13.697545"><ele>253.5</ele><time>2026-04-04T15:15:14.741Z</time></trkpt><trkpt lat="42.9550633" lon="13.6974583"><ele>251.0</ele><time>2026-04-04T15:15:15.742Z</time></trkpt><trkpt lat="42.9551867" lon="13.69735"><ele>248.5</ele><time>2026-04-04T15:15:16.741Z</time></trkpt><trkpt lat="42.9552933" lon="13.6972367"><ele>246.0</ele><time>2026-04-04T15:15:17.741Z</time></trkpt><trkpt lat="42.9553917" lon="13.6971233"><ele>246.0</ele><time>2026-04-04T15:15:18.742Z</time></trkpt><trkpt lat="42.9554867" lon="13.69702"><ele>246.0</ele><time>2026-04-04T15:15:19.741Z</time></trkpt><trkpt lat="42.9555817" lon="13.6969317"><ele>246.0</ele><time>2026-04-04T15:15:20.742Z</time></trkpt><trkpt lat="42.955685" lon="13.6968683"><ele>246.0</ele><time>2026-04-04T15:15:21.741Z</time></trkpt><trkpt lat="42.9557817" lon="13.696825"><ele>246.83333333333334</ele><time>2026-04-04T15:15:22.741Z</time></trkpt><trkpt lat="42.9558483" lon="13.696795"><ele>247.66666666666669</ele><time>2026-04-04T15:15:23.741Z</time></trkpt><trkpt lat="42.9559183" lon="13.6967683"><ele>248.5</ele><time>2026-04-04T15:15:24.741Z</time></trkpt><trkpt lat="42.95603" lon="13.696725"><ele>249.33333333333334</ele><time>2026-04-04T15:15:26.741Z</time></trkpt><trkpt lat="42.95613" lon="13.696655"><ele>250.16666666666669</ele><time>2026-04-04T15:15:28.741Z</time></trkpt><trkpt lat="42.95619" lon="13.6966083"><ele>251.0</ele><time>2026-04-04T15:15:29.741Z</time></trkpt><trkpt lat="42.9562667" lon="13.69656"><ele>249.33333333333334</ele><time>2026-04-04T15:15:30.742Z</time></trkpt><trkpt lat="42.956345" lon="13.6965167"><ele>247.66666666666669</ele><time>2026-04-04T15:15:31.742Z</time></trkpt><trkpt lat="42.9564217" lon="13.6964683"><ele>246.0</ele><time>2026-04-04T15:15:32.742Z</time></trkpt><trkpt lat="42.9565" lon="13.6964283"><ele>244.33333333333331</ele><time>2026-04-04T15:15:33.741Z</time></trkpt><trkpt lat="42.956605" lon="13.696385"><ele>242.66666666666666</ele><time>2026-04-04T15:15:35.741Z</time></trkpt><trkpt lat="42.9566683" lon="13.6964183"><ele>241.0</ele><time>2026-04-04T15:15:37.741Z</time></trkpt><trkpt lat="42.9567267" lon="13.6965033"><ele>238.20000000000002</ele><time>2026-04-04T15:15:39.742Z</time></trkpt><trkpt lat="42.9567783" lon="13.69663"><ele>235.40000000000003</ele><time>2026-04-04T15:15:41.742Z</time></trkpt><trkpt lat="42.956815" lon="13.6967217"><ele>232.6</ele><time>2026-04-04T15:15:42.742Z</time></trkpt><trkpt lat="42.95686" lon="13.6968383"><ele>229.8</ele><time>2026-04-04T15:15:43.741Z</time></trkpt><trkpt lat="42.956905" lon="13.6969683"><ele>227.0</ele><time>2026-04-04T15:15:44.741Z</time></trkpt><trkpt lat="42.9569483" lon="13.697095"><ele>225.83333333333334</ele><time>2026-04-04T15:15:45.741Z</time></trkpt><trkpt lat="42.956985" lon="13.6972017"><ele>224.66666666666669</ele><time>2026-04-04T15:15:46.741Z</time></trkpt><trkpt lat="42.957015" lon="13.69731"><ele>223.5</ele><time>2026-04-04T15:15:47.741Z</time></trkpt><trkpt lat="42.9570417" lon="13.6974183"><ele>222.33333333333331</ele><time>2026-04-04T15:15:48.742Z</time></trkpt><trkpt lat="42.9570683" lon="13.6975267"><ele>221.16666666666666</ele><time>2026-04-04T15:15:49.741Z</time></trkpt><trkpt lat="42.9570883" lon="13.69764"><ele>220.0</ele><time>2026-04-04T15:15:50.741Z</time></trkpt><trkpt lat="42.9571" lon="13.6977583"><ele>219.75</ele><time>2026-04-04T15:15:51.741Z</time></trkpt><trkpt lat="42.9571" lon="13.6979067"><ele>219.5</ele><time>2026-04-04T15:15:52.741Z</time></trkpt><trkpt lat="42.9570983" lon="13.69807"><ele>219.25</ele><time>2026-04-04T15:15:53.741Z</time></trkpt><trkpt lat="42.957105" lon="13.698255"><ele>219.0</ele><time>2026-04-04T15:15:54.742Z</time></trkpt><trkpt lat="42.9571183" lon="13.698475"><ele>219.33333333333331</ele><time>2026-04-04T15:15:55.741Z</time></trkpt><trkpt lat="42.9571483" lon="13.6987217"><ele>219.66666666666666</ele><time>2026-04-04T15:15:56.741Z</time></trkpt><trkpt lat="42.957175" lon="13.698965"><ele>220.0</ele><time>2026-04-04T15:15:57.742Z</time></trkpt><trkpt lat="42.9571933" lon="13.6991917"><ele>220.0</ele><time>2026-04-04T15:15:58.741Z</time></trkpt><trkpt lat="42.9572083" lon="13.6993833"><ele>220.0</ele><time>2026-04-04T15:15:59.741Z</time></trkpt><trkpt lat="42.9572317" lon="13.6995533"><ele>220.0</ele><time>2026-04-04T15:16:00.741Z</time></trkpt><trkpt lat="42.957265" lon="13.699715"><ele>220.0</ele><time>2026-04-04T15:16:01.741Z</time></trkpt><trkpt lat="42.9572933" lon="13.6998767"><ele>220.0</ele><time>2026-04-04T15:16:02.742Z</time></trkpt><trkpt lat="42.95731" lon="13.7000567"><ele>220.0</ele><time>2026-04-04T15:16:03.741Z</time></trkpt><trkpt lat="42.9573183" lon="13.7002567"><ele>220.0</ele><time>2026-04-04T15:16:04.741Z</time></trkpt><trkpt lat="42.957315" lon="13.7004683"><ele>220.0</ele><time>2026-04-04T15:16:05.742Z</time></trkpt><trkpt lat="42.9573067" lon="13.7006583"><ele>220.4</ele><time>2026-04-04T15:16:06.741Z</time></trkpt><trkpt lat="42.9572933" lon="13.7008233"><ele>220.8</ele><time>2026-04-04T15:16:07.741Z</time></trkpt><trkpt lat="42.9572833" lon="13.700975"><ele>221.2</ele><time>2026-04-04T15:16:08.741Z</time></trkpt><trkpt lat="42.9572867" lon="13.701115"><ele>221.6</ele><time>2026-04-04T15:16:09.742Z</time></trkpt><trkpt lat="42.9573017" lon="13.7012533"><ele>222.0</ele><time>2026-04-04T15:16:10.741Z</time></trkpt><trkpt lat="42.9573383" lon="13.7013717"><ele>221.2</ele><time>2026-04-04T15:16:11.741Z</time></trkpt><trkpt lat="42.95739" lon="13.701465"><ele>220.39999999999998</ele><time>2026-04-04T15:16:12.741Z</time></trkpt><trkpt lat="42.957465" lon="13.7015417"><ele>219.60000000000002</ele><time>2026-04-04T15:16:13.742Z</time></trkpt><trkpt lat="42.95754" lon="13.7016167"><ele>218.8</ele><time>2026-04-04T15:16:14.742Z</time></trkpt><trkpt lat="42.957625" lon="13.701675"><ele>218.0</ele><time>2026-04-04T15:16:15.742Z</time></trkpt><trkpt lat="42.9577233" lon="13.7017367"><ele>218.0</ele><time>2026-04-04T15:16:16.741Z</time></trkpt><trkpt lat="42.957825" lon="13.7018067"><ele>218.0</ele><time>2026-04-04T15:16:17.741Z</time></trkpt><trkpt lat="42.9579267" lon="13.7018783"><ele>218.0</ele><time>2026-04-04T15:16:18.741Z</time></trkpt><trkpt lat="42.958025" lon="13.7019533"><ele>218.0</ele><time>2026-04-04T15:16:19.741Z</time></trkpt><trkpt lat="42.9581083" lon="13.7020283"><ele>218.0</ele><time>2026-04-04T15:16:20.741Z</time></trkpt><trkpt lat="42.9581917" lon="13.702105"><ele>218.60000000000002</ele><time>2026-04-04T15:16:21.741Z</time></trkpt><trkpt lat="42.9582667" lon="13.7021833"><ele>219.20000000000002</ele><time>2026-04-04T15:16:22.741Z</time></trkpt><trkpt lat="42.9583633" lon="13.7022517"><ele>219.8</ele><time>2026-04-04T15:16:23.741Z</time></trkpt><trkpt lat="42.9584583" lon="13.70232"><ele>220.4</ele><time>2026-04-04T15:16:24.741Z</time></trkpt><trkpt lat="42.9585583" lon="13.702385"><ele>221.0</ele><time>2026-04-04T15:16:25.741Z</time></trkpt><trkpt lat="42.9586567" lon="13.7024517"><ele>221.0</ele><time>2026-04-04T15:16:26.742Z</time></trkpt><trkpt lat="42.95876" lon="13.7025133"><ele>221.00000000000003</ele><time>2026-04-04T15:16:27.741Z</time></trkpt><trkpt lat="42.9588583" lon="13.7025867"><ele>221.00000000000003</ele><time>2026-04-04T15:16:28.741Z</time></trkpt><trkpt lat="42.9589567" lon="13.702655"><ele>221.0</ele><time>2026-04-04T15:16:29.742Z</time></trkpt><trkpt lat="42.9590467" lon="13.7027233"><ele>221.0</ele><time>2026-04-04T15:16:30.741Z</time></trkpt><trkpt lat="42.9591283" lon="13.7027833"><ele>221.00000000000003</ele><time>2026-04-04T15:16:31.741Z</time></trkpt><trkpt lat="42.9592017" lon="13.7028383"><ele>221.0</ele><time>2026-04-04T15:16:32.741Z</time></trkpt><trkpt lat="42.9592683" lon="13.702895"><ele>221.0</ele><time>2026-04-04T15:16:33.741Z</time></trkpt><trkpt lat="42.95931" lon="13.7029717"><ele>221.0</ele><time>2026-04-04T15:16:34.741Z</time></trkpt><trkpt lat="42.9593467" lon="13.703075"><ele>221.00000000000003</ele><time>2026-04-04T15:16:35.742Z</time></trkpt><trkpt lat="42.9593683" lon="13.7031933"><ele>221.0</ele><time>2026-04-04T15:16:36.742Z</time></trkpt><trkpt lat="42.9593833" lon="13.7032983"><ele>221.00000000000003</ele><time>2026-04-04T15:16:37.741Z</time></trkpt><trkpt lat="42.959385" lon="13.7033933"><ele>221.0</ele><time>2026-04-04T15:16:38.742Z</time></trkpt><trkpt lat="42.9593767" lon="13.7034883"><ele>221.0</ele><time>2026-04-04T15:16:39.741Z</time></trkpt><trkpt lat="42.959375" lon="13.703595"><ele>221.0</ele><time>2026-04-04T15:16:40.741Z</time></trkpt><trkpt lat="42.95936" lon="13.7037283"><ele>221.00000000000003</ele><time>2026-04-04T15:16:41.741Z</time></trkpt><trkpt lat="42.959345" lon="13.70387"><ele>221.0</ele><time>2026-04-04T15:16:42.741Z</time></trkpt><trkpt lat="42.95932" lon="13.7040117"><ele>220.66666666666669</ele><time>2026-04-04T15:16:43.742Z</time></trkpt><trkpt lat="42.9592933" lon="13.704135"><ele>220.33333333333334</ele><time>2026-04-04T15:16:44.741Z</time></trkpt><trkpt lat="42.9592717" lon="13.7042567"><ele>220.0</ele><time>2026-04-04T15:16:45.741Z</time></trkpt><trkpt lat="42.9592667" lon="13.704355"><ele>219.66666666666669</ele><time>2026-04-04T15:16:46.742Z</time></trkpt><trkpt lat="42.9592833" lon="13.7044617"><ele>219.33333333333334</ele><time>2026-04-04T15:16:47.741Z</time></trkpt><trkpt lat="42.9593217" lon="13.7045533"><ele>219.0</ele><time>2026-04-04T15:16:48.742Z</time></trkpt><trkpt lat="42.9593767" lon="13.7046317"><ele>218.6</ele><time>2026-04-04T15:16:49.742Z</time></trkpt><trkpt lat="42.9594467" lon="13.7047033"><ele>218.2</ele><time>2026-04-04T15:16:50.742Z</time></trkpt><trkpt lat="42.9595333" lon="13.7047817"><ele>217.79999999999998</ele><time>2026-04-04T15:16:51.741Z</time></trkpt><trkpt lat="42.9596283" lon="13.7048633"><ele>217.39999999999998</ele><time>2026-04-04T15:16:52.741Z</time></trkpt><trkpt lat="42.9597333" lon="13.7049567"><ele>217.0</ele><time>2026-04-04T15:16:53.742Z</time></trkpt><trkpt lat="42.9598267" lon="13.7050583"><ele>216.99999999999997</ele><time>2026-04-04T15:16:54.741Z</time></trkpt><trkpt lat="42.9599067" lon="13.705145"><ele>217.0</ele><time>2026-04-04T15:16:55.741Z</time></trkpt><trkpt lat="42.95994" lon="13.70522"><ele>217.0</ele><time>2026-04-04T15:16:56.742Z</time></trkpt><trkpt lat="42.959945" lon="13.7053433"><ele>217.0</ele><time>2026-04-04T15:16:58.742Z</time></trkpt><trkpt lat="42.9599117" lon="13.7054233"><ele>216.99999999999997</ele><time>2026-04-04T15:16:59.741Z</time></trkpt><trkpt lat="42.9598483" lon="13.705505"><ele>217.0</ele><time>2026-04-04T15:17:00.741Z</time></trkpt><trkpt lat="42.959755" lon="13.7055867"><ele>215.75</ele><time>2026-04-04T15:17:01.741Z</time></trkpt><trkpt lat="42.959625" lon="13.7056567"><ele>214.5</ele><time>2026-04-04T15:17:02.741Z</time></trkpt><trkpt lat="42.95949" lon="13.7057183"><ele>213.25</ele><time>2026-04-04T15:17:03.741Z</time></trkpt><trkpt lat="42.959365" lon="13.7057717"><ele>212.0</ele><time>2026-04-04T15:17:04.741Z</time></trkpt><trkpt lat="42.9592417" lon="13.7058283"><ele>213.75</ele><time>2026-04-04T15:17:05.741Z</time></trkpt><trkpt lat="42.9591317" lon="13.70589"><ele>215.5</ele><time>2026-04-04T15:17:06.741Z</time></trkpt><trkpt lat="42.959015" lon="13.705955"><ele>217.25</ele><time>2026-04-04T15:17:07.742Z</time></trkpt><trkpt lat="42.9589083" lon="13.7060117"><ele>219.0</ele><time>2026-04-04T15:17:08.741Z</time></trkpt><trkpt lat="42.9588133" lon="13.7060717"><ele>217.75</ele><time>2026-04-04T15:17:09.741Z</time></trkpt><trkpt lat="42.95871" lon="13.7061383"><ele>216.5</ele><time>2026-04-04T15:17:10.742Z</time></trkpt><trkpt lat="42.95861" lon="13.7062117"><ele>215.25</ele><time>2026-04-04T15:17:11.741Z</time></trkpt><trkpt lat="42.958505" lon="13.70628"><ele>214.0</ele><time>2026-04-04T15:17:12.742Z</time></trkpt><trkpt lat="42.9584017" lon="13.7063467"><ele>215.2</ele><time>2026-04-04T15:17:13.741Z</time></trkpt><trkpt lat="42.9583" lon="13.7064067"><ele>216.39999999999998</ele><time>2026-04-04T15:17:14.741Z</time></trkpt><trkpt lat="42.9582033" lon="13.7064533"><ele>217.6</ele><time>2026-04-04T15:17:15.741Z</time></trkpt><trkpt lat="42.95811" lon="13.7064967"><ele>218.8</ele><time>2026-04-04T15:17:16.741Z</time></trkpt><trkpt lat="42.9580133" lon="13.7065317"><ele>220.0</ele><time>2026-04-04T15:17:17.741Z</time></trkpt><trkpt lat="42.9579167" lon="13.7065633"><ele>219.99999999999997</ele><time>2026-04-04T15:17:18.742Z</time></trkpt><trkpt lat="42.9578267" lon="13.7065917"><ele>220.0</ele><time>2026-04-04T15:17:19.741Z</time></trkpt><trkpt lat="42.957745" lon="13.7066233"><ele>220.0</ele><time>2026-04-04T15:17:20.741Z</time></trkpt><trkpt lat="42.9576683" lon="13.7066583"><ele>220.0</ele><time>2026-04-04T15:17:21.742Z</time></trkpt><trkpt lat="42.957595" lon="13.7067033"><ele>219.99999999999997</ele><time>2026-04-04T15:17:22.742Z</time></trkpt><trkpt lat="42.9575217" lon="13.7067533"><ele>220.0</ele><time>2026-04-04T15:17:23.742Z</time></trkpt><trkpt lat="42.957455" lon="13.7068217"><ele>219.49999999999997</ele><time>2026-04-04T15:17:24.741Z</time></trkpt><trkpt lat="42.95739" lon="13.7068783"><ele>219.0</ele><time>2026-04-04T15:17:25.741Z</time></trkpt><trkpt lat="42.9573267" lon="13.706935"><ele>218.5</ele><time>2026-04-04T15:17:26.742Z</time></trkpt><trkpt lat="42.9572683" lon="13.7069867"><ele>218.0</ele><time>2026-04-04T15:17:27.741Z</time></trkpt><trkpt lat="42.957185" lon="13.7070617"><ele>217.49999999999997</ele><time>2026-04-04T15:17:29.741Z</time></trkpt><trkpt lat="42.9571933" lon="13.7071683"><ele>217.0</ele><time>2026-04-04T15:17:33.741Z</time></trkpt><trkpt lat="42.9572967" lon="13.7072633"><ele>217.0</ele><time>2026-04-04T15:17:35.742Z</time></trkpt><trkpt lat="42.9573717" lon="13.7073367"><ele>217.0</ele><time>2026-04-04T15:17:36.741Z</time></trkpt><trkpt lat="42.9574733" lon="13.7074133"><ele>217.0</ele><time>2026-04-04T15:17:37.742Z</time></trkpt><trkpt lat="42.957595" lon="13.7074983"><ele>217.0</ele><time>2026-04-04T15:17:38.742Z</time></trkpt><trkpt lat="42.95772" lon="13.7075783"><ele>215.75</ele><time>2026-04-04T15:17:39.742Z</time></trkpt><trkpt lat="42.95784" lon="13.7076617"><ele>214.5</ele><time>2026-04-04T15:17:40.742Z</time></trkpt><trkpt lat="42.9579633" lon="13.7077433"><ele>213.25</ele><time>2026-04-04T15:17:41.742Z</time></trkpt><trkpt lat="42.9580883" lon="13.7078283"><ele>212.0</ele><time>2026-04-04T15:17:42.741Z</time></trkpt><trkpt lat="42.9582083" lon="13.7079233"><ele>210.0</ele><time>2026-04-04T15:17:43.742Z</time></trkpt><trkpt lat="42.958325" lon="13.7080183"><ele>208.0</ele><time>2026-04-04T15:17:44.741Z</time></trkpt><trkpt lat="42.9584433" lon="13.708115"><ele>206.0</ele><time>2026-04-04T15:17:45.741Z</time></trkpt><trkpt lat="42.958565" lon="13.7082267"><ele>204.0</ele><time>2026-04-04T15:17:46.742Z</time></trkpt><trkpt lat="42.9586717" lon="13.7083467"><ele>203.25</ele><time>2026-04-04T15:17:47.742Z</time></trkpt><trkpt lat="42.9587817" lon="13.7084717"><ele>202.5</ele><time>2026-04-04T15:17:48.742Z</time></trkpt><trkpt lat="42.9588933" lon="13.708595"><ele>201.75</ele><time>2026-04-04T15:17:49.742Z</time></trkpt><trkpt lat="42.9590033" lon="13.70871"><ele>201.0</ele><time>2026-04-04T15:17:50.741Z</time></trkpt><trkpt lat="42.959115" lon="13.7088233"><ele>198.0</ele><time>2026-04-04T15:17:51.741Z</time></trkpt><trkpt lat="42.9592267" lon="13.7089433"><ele>195.0</ele><time>2026-04-04T15:17:52.741Z</time></trkpt><trkpt lat="42.95934" lon="13.709065"><ele>192.0</ele><time>2026-04-04T15:17:53.742Z</time></trkpt><trkpt lat="42.9594517" lon="13.7091783"><ele>189.0</ele><time>2026-04-04T15:17:54.741Z</time></trkpt><trkpt lat="42.95956" lon="13.7092867"><ele>189.0</ele><time>2026-04-04T15:17:55.741Z</time></trkpt><trkpt lat="42.95967" lon="13.7094017"><ele>189.0</ele><time>2026-04-04T15:17:56.742Z</time></trkpt><trkpt lat="42.959785" lon="13.7095117"><ele>189.0</ele><time>2026-04-04T15:17:57.741Z</time></trkpt><trkpt lat="42.9598917" lon="13.709625"><ele>189.0</ele><time>2026-04-04T15:17:58.741Z</time></trkpt><trkpt lat="42.96" lon="13.7097367"><ele>186.25</ele><time>2026-04-04T15:17:59.741Z</time></trkpt><trkpt lat="42.9601017" lon="13.7098533"><ele>183.5</ele><time>2026-04-04T15:18:00.742Z</time></trkpt><trkpt lat="42.9602" lon="13.7099667"><ele>180.75</ele><time>2026-04-04T15:18:01.741Z</time></trkpt><trkpt lat="42.9603017" lon="13.7100817"><ele>178.0</ele><time>2026-04-04T15:18:02.741Z</time></trkpt><trkpt lat="42.9604" lon="13.710195"><ele>177.25</ele><time>2026-04-04T15:18:03.741Z</time></trkpt><trkpt lat="42.9605" lon="13.7103133"><ele>176.5</ele><time>2026-04-04T15:18:04.742Z</time></trkpt><trkpt lat="42.9606033" lon="13.710435"><ele>175.75</ele><time>2026-04-04T15:18:05.742Z</time></trkpt><trkpt lat="42.9607133" lon="13.7105583"><ele>175.0</ele><time>2026-04-04T15:18:06.741Z</time></trkpt><trkpt lat="42.9608167" lon="13.7106817"><ele>174.5</ele><time>2026-04-04T15:18:07.742Z</time></trkpt><trkpt lat="42.9609317" lon="13.7108"><ele>174.0</ele><time>2026-04-04T15:18:08.741Z</time></trkpt><trkpt lat="42.9610517" lon="13.7109033"><ele>173.5</ele><time>2026-04-04T15:18:09.741Z</time></trkpt><trkpt lat="42.96119" lon="13.7109967"><ele>173.0</ele><time>2026-04-04T15:18:10.742Z</time></trkpt><trkpt lat="42.9613383" lon="13.71107"><ele>172.33333333333331</ele><time>2026-04-04T15:18:11.741Z</time></trkpt><trkpt lat="42.9615017" lon="13.7111317"><ele>171.66666666666666</ele><time>2026-04-04T15:18:12.742Z</time></trkpt><trkpt lat="42.961675" lon="13.7111733"><ele>171.0</ele><time>2026-04-04T15:18:13.741Z</time></trkpt><trkpt lat="42.96184" lon="13.7112067"><ele>169.75</ele><time>2026-04-04T15:18:14.741Z</time></trkpt><trkpt lat="42.9619967" lon="13.71122"><ele>168.5</ele><time>2026-04-04T15:18:15.742Z</time></trkpt><trkpt lat="42.962145" lon="13.7112267"><ele>167.25</ele><time>2026-04-04T15:18:16.741Z</time></trkpt><trkpt lat="42.9622883" lon="13.7112367"><ele>166.0</ele><time>2026-04-04T15:18:17.742Z</time></trkpt><trkpt lat="42.9624333" lon="13.711235"><ele>164.75</ele><time>2026-04-04T15:18:18.742Z</time></trkpt><trkpt lat="42.9625767" lon="13.7112467"><ele>163.5</ele><time>2026-04-04T15:18:19.742Z</time></trkpt><trkpt lat="42.9627233" lon="13.7112533"><ele>162.25</ele><time>2026-04-04T15:18:20.741Z</time></trkpt><trkpt lat="42.96287" lon="13.7112517"><ele>161.0</ele><time>2026-04-04T15:18:21.741Z</time></trkpt><trkpt lat="42.96301" lon="13.7112483"><ele>161.0</ele><time>2026-04-04T15:18:22.741Z</time></trkpt><trkpt lat="42.9631483" lon="13.7112467"><ele>161.0</ele><time>2026-04-04T15:18:23.742Z</time></trkpt><trkpt lat="42.96328" lon="13.7112383"><ele>161.0</ele><time>2026-04-04T15:18:24.741Z</time></trkpt><trkpt lat="42.9634117" lon="13.7112367"><ele>161.0</ele><time>2026-04-04T15:18:25.741Z</time></trkpt><trkpt lat="42.9635317" lon="13.711255"><ele>160.5</ele><time>2026-04-04T15:18:26.742Z</time></trkpt><trkpt lat="42.9636683" lon="13.7112683"><ele>160.0</ele><time>2026-04-04T15:18:27.741Z</time></trkpt><trkpt lat="42.96381" lon="13.7112683"><ele>159.5</ele><time>2026-04-04T15:18:28.741Z</time></trkpt><trkpt lat="42.96396" lon="13.711265"><ele>159.0</ele><time>2026-04-04T15:18:29.741Z</time></trkpt><trkpt lat="42.9641067" lon="13.7112683"><ele>157.75</ele><time>2026-04-04T15:18:30.742Z</time></trkpt><trkpt lat="42.9642517" lon="13.7112567"><ele>156.5</ele><time>2026-04-04T15:18:31.741Z</time></trkpt><trkpt lat="42.9643883" lon="13.7112267"><ele>155.25</ele><time>2026-04-04T15:18:32.742Z</time></trkpt><trkpt lat="42.9645367" lon="13.7111833"><ele>154.0</ele><time>2026-04-04T15:18:33.741Z</time></trkpt><trkpt lat="42.9646633" lon="13.7111067"><ele>153.25</ele><time>2026-04-04T15:18:34.741Z</time></trkpt><trkpt lat="42.9647867" lon="13.71103"><ele>152.5</ele><time>2026-04-04T15:18:35.742Z</time></trkpt><trkpt lat="42.96492" lon="13.710935"><ele>151.75</ele><time>2026-04-04T15:18:36.741Z</time></trkpt><trkpt lat="42.9650467" lon="13.7108417"><ele>151.0</ele><time>2026-04-04T15:18:37.741Z</time></trkpt><trkpt lat="42.965165" lon="13.71076"><ele>149.0</ele><time>2026-04-04T15:18:38.741Z</time></trkpt><trkpt lat="42.9652817" lon="13.710695"><ele>147.0</ele><time>2026-04-04T15:18:39.742Z</time></trkpt><trkpt lat="42.9654117" lon="13.7106567"><ele>145.0</ele><time>2026-04-04T15:18:40.741Z</time></trkpt><trkpt lat="42.9655483" lon="13.710645"><ele>143.0</ele><time>2026-04-04T15:18:41.741Z</time></trkpt><trkpt lat="42.9656917" lon="13.7106617"><ele>143.0</ele><time>2026-04-04T15:18:42.741Z</time></trkpt><trkpt lat="42.9658383" lon="13.710705"><ele>143.0</ele><time>2026-04-04T15:18:43.741Z</time></trkpt><trkpt lat="42.965995" lon="13.710755"><ele>143.0</ele><time>2026-04-04T15:18:44.742Z</time></trkpt><trkpt lat="42.9661433" lon="13.710825"><ele>140.33333333333331</ele><time>2026-04-04T15:18:45.741Z</time></trkpt><trkpt lat="42.9663933" lon="13.7109717"><ele>137.66666666666666</ele><time>2026-04-04T15:18:47.741Z</time></trkpt><trkpt lat="42.9665083" lon="13.71107"><ele>135.0</ele><time>2026-04-04T15:18:48.742Z</time></trkpt><trkpt lat="42.9666167" lon="13.71118"><ele>133.75</ele><time>2026-04-04T15:18:49.741Z</time></trkpt><trkpt lat="42.9667083" lon="13.7113"><ele>132.5</ele><time>2026-04-04T15:18:50.742Z</time></trkpt><trkpt lat="42.9667917" lon="13.7114217"><ele>131.25</ele><time>2026-04-04T15:18:51.741Z</time></trkpt><trkpt lat="42.9668633" lon="13.7115533"><ele>130.0</ele><time>2026-04-04T15:18:52.741Z</time></trkpt><trkpt lat="42.96694" lon="13.7116917"><ele>130.0</ele><time>2026-04-04T15:18:53.741Z</time></trkpt><trkpt lat="42.96702" lon="13.7118433"><ele>130.0</ele><time>2026-04-04T15:18:54.741Z</time></trkpt><trkpt lat="42.9670917" lon="13.7120033"><ele>130.0</ele><time>2026-04-04T15:18:55.741Z</time></trkpt><trkpt lat="42.9671617" lon="13.71218"><ele>130.0</ele><time>2026-04-04T15:18:56.742Z</time></trkpt><trkpt lat="42.9672233" lon="13.712375"><ele>130.0</ele><time>2026-04-04T15:18:57.741Z</time></trkpt><trkpt lat="42.9672867" lon="13.7125917"><ele>130.0</ele><time>2026-04-04T15:18:58.741Z</time></trkpt><trkpt lat="42.9673433" lon="13.712815"><ele>130.0</ele><time>2026-04-04T15:18:59.741Z</time></trkpt><trkpt lat="42.9673917" lon="13.7130567"><ele>129.66666666666669</ele><time>2026-04-04T15:19:00.742Z</time></trkpt><trkpt lat="42.96744" lon="13.7133"><ele>129.33333333333334</ele><time>2026-04-04T15:19:01.741Z</time></trkpt><trkpt lat="42.9674917" lon="13.7135383"><ele>129.0</ele><time>2026-04-04T15:19:02.742Z</time></trkpt><trkpt lat="42.96755" lon="13.7137633"><ele>129.0</ele><time>2026-04-04T15:19:03.741Z</time></trkpt><trkpt lat="42.9675967" lon="13.71399"><ele>129.0</ele><time>2026-04-04T15:19:04.741Z</time></trkpt><trkpt lat="42.96764" lon="13.7142017"><ele>129.0</ele><time>2026-04-04T15:19:05.741Z</time></trkpt><trkpt lat="42.9676867" lon="13.7144083"><ele>129.0</ele><time>2026-04-04T15:19:06.741Z</time></trkpt><trkpt lat="42.9677267" lon="13.714605"><ele>129.0</ele><time>2026-04-04T15:19:07.741Z</time></trkpt><trkpt lat="42.9677633" lon="13.71481"><ele>129.0</ele><time>2026-04-04T15:19:08.742Z</time></trkpt><trkpt lat="42.9678033" lon="13.71501"><ele>129.0</ele><time>2026-04-04T15:19:09.741Z</time></trkpt><trkpt lat="42.967845" lon="13.7152083"><ele>129.0</ele><time>2026-04-04T15:19:10.742Z</time></trkpt><trkpt lat="42.9678833" lon="13.715405"><ele>129.0</ele><time>2026-04-04T15:19:11.742Z</time></trkpt><trkpt lat="42.9679317" lon="13.7156033"><ele>128.66666666666666</ele><time>2026-04-04T15:19:12.742Z</time></trkpt><trkpt lat="42.9679717" lon="13.7158067"><ele>128.33333333333331</ele><time>2026-04-04T15:19:13.741Z</time></trkpt><trkpt lat="42.968015" lon="13.7160133"><ele>128.0</ele><time>2026-04-04T15:19:14.742Z</time></trkpt><trkpt lat="42.9680583" lon="13.7162067"><ele>127.75</ele><time>2026-04-04T15:19:15.742Z</time></trkpt><trkpt lat="42.9681017" lon="13.716395"><ele>127.5</ele><time>2026-04-04T15:19:16.742Z</time></trkpt><trkpt lat="42.9681367" lon="13.7165967"><ele>127.25</ele><time>2026-04-04T15:19:17.741Z</time></trkpt><trkpt lat="42.9681767" lon="13.7167967"><ele>127.0</ele><time>2026-04-04T15:19:18.742Z</time></trkpt><trkpt lat="42.9682183" lon="13.7169983"><ele>126.66666666666667</ele><time>2026-04-04T15:19:19.742Z</time></trkpt><trkpt lat="42.9682617" lon="13.7172033"><ele>126.33333333333334</ele><time>2026-04-04T15:19:20.741Z</time></trkpt><trkpt lat="42.9683067" lon="13.7174083"><ele>126.0</ele><time>2026-04-04T15:19:21.742Z</time></trkpt><trkpt lat="42.9683483" lon="13.7176133"><ele>125.33333333333334</ele><time>2026-04-04T15:19:22.741Z</time></trkpt><trkpt lat="42.9683883" lon="13.717815"><ele>124.66666666666667</ele><time>2026-04-04T15:19:23.742Z</time></trkpt><trkpt lat="42.968435" lon="13.7180167"><ele>124.0</ele><time>2026-04-04T15:19:24.741Z</time></trkpt><trkpt lat="42.968475" lon="13.7182183"><ele>124.0</ele><time>2026-04-04T15:19:25.741Z</time></trkpt><trkpt lat="42.9685183" lon="13.7184233"><ele>124.0</ele><time>2026-04-04T15:19:26.741Z</time></trkpt><trkpt lat="42.96856" lon="13.718625"><ele>124.0</ele><time>2026-04-04T15:19:27.741Z</time></trkpt><trkpt lat="42.968605" lon="13.718825"><ele>124.0</ele><time>2026-04-04T15:19:28.741Z</time></trkpt><trkpt lat="42.9686467" lon="13.7190217"><ele>124.0</ele><time>2026-04-04T15:19:29.741Z</time></trkpt><trkpt lat="42.96869" lon="13.7192167"><ele>124.0</ele><time>2026-04-04T15:19:30.742Z</time></trkpt><trkpt lat="42.9687367" lon="13.7194217"><ele>124.0</ele><time>2026-04-04T15:19:31.741Z</time></trkpt><trkpt lat="42.9687867" lon="13.7196317"><ele>124.0</ele><time>2026-04-04T15:19:32.741Z</time></trkpt><trkpt lat="42.9688267" lon="13.719845"><ele>124.0</ele><time>2026-04-04T15:19:33.742Z</time></trkpt><trkpt lat="42.968875" lon="13.7200633"><ele>123.66666666666667</ele><time>2026-04-04T15:19:34.742Z</time></trkpt><trkpt lat="42.96892" lon="13.720285"><ele>123.33333333333334</ele><time>2026-04-04T15:19:35.741Z</time></trkpt><trkpt lat="42.9689617" lon="13.7204967"><ele>123.0</ele><time>2026-04-04T15:19:36.741Z</time></trkpt><trkpt lat="42.969005" lon="13.7207033"><ele>123.0</ele><time>2026-04-04T15:19:37.742Z</time></trkpt><trkpt lat="42.9690517" lon="13.7209133"><ele>123.0</ele><time>2026-04-04T15:19:38.741Z</time></trkpt><trkpt lat="42.96909" lon="13.7211267"><ele>123.0</ele><time>2026-04-04T15:19:39.741Z</time></trkpt><trkpt lat="42.9691367" lon="13.7213217"><ele>122.75</ele><time>2026-04-04T15:19:40.742Z</time></trkpt><trkpt lat="42.9691717" lon="13.7215117"><ele>122.5</ele><time>2026-04-04T15:19:41.742Z</time></trkpt><trkpt lat="42.9692117" lon="13.7216983"><ele>122.25</ele><time>2026-04-04T15:19:42.742Z</time></trkpt><trkpt lat="42.9692483" lon="13.7218833"><ele>122.0</ele><time>2026-04-04T15:19:43.742Z</time></trkpt><trkpt lat="42.969295" lon="13.7220883"><ele>121.66666666666666</ele><time>2026-04-04T15:19:44.742Z</time></trkpt><trkpt lat="42.9693367" lon="13.7223033"><ele>121.33333333333334</ele><time>2026-04-04T15:19:45.742Z</time></trkpt><trkpt lat="42.9693783" lon="13.7225217"><ele>121.0</ele><time>2026-04-04T15:19:46.741Z</time></trkpt><trkpt lat="42.9694167" lon="13.7227417"><ele>120.66666666666667</ele><time>2026-04-04T15:19:47.742Z</time></trkpt><trkpt lat="42.9694467" lon="13.72296"><ele>120.33333333333334</ele><time>2026-04-04T15:19:48.742Z</time></trkpt><trkpt lat="42.9694833" lon="13.7231617"><ele>120.0</ele><time>2026-04-04T15:19:49.741Z</time></trkpt><trkpt lat="42.969525" lon="13.7233733"><ele>119.33333333333334</ele><time>2026-04-04T15:19:50.741Z</time></trkpt><trkpt lat="42.9695533" lon="13.7235967"><ele>118.66666666666667</ele><time>2026-04-04T15:19:51.741Z</time></trkpt><trkpt lat="42.969585" lon="13.7237983"><ele>118.0</ele><time>2026-04-04T15:19:52.741Z</time></trkpt><trkpt lat="42.9696133" lon="13.7240017"><ele>118.0</ele><time>2026-04-04T15:19:53.741Z</time></trkpt><trkpt lat="42.9696467" lon="13.7242033"><ele>118.0</ele><time>2026-04-04T15:19:54.742Z</time></trkpt><trkpt lat="42.96968" lon="13.7244117"><ele>118.0</ele><time>2026-04-04T15:19:55.741Z</time></trkpt><trkpt lat="42.9697083" lon="13.7246217"><ele>117.66666666666667</ele><time>2026-04-04T15:19:56.741Z</time></trkpt><trkpt lat="42.9697383" lon="13.72483"><ele>117.33333333333334</ele><time>2026-04-04T15:19:57.742Z</time></trkpt><trkpt lat="42.9697767" lon="13.7250383"><ele>117.0</ele><time>2026-04-04T15:19:58.742Z</time></trkpt><trkpt lat="42.9698183" lon="13.7252517"><ele>117.0</ele><time>2026-04-04T15:19:59.741Z</time></trkpt><trkpt lat="42.9698467" lon="13.7254733"><ele>117.0</ele><time>2026-04-04T15:20:00.742Z</time></trkpt><trkpt lat="42.9698817" lon="13.7256883"><ele>117.0</ele><time>2026-04-04T15:20:01.74Z</time></trkpt><trkpt lat="42.969915" lon="13.7259083"><ele>116.66666666666666</ele><time>2026-04-04T15:20:02.74Z</time></trkpt><trkpt lat="42.969945" lon="13.726135"><ele>116.33333333333333</ele><time>2026-04-04T15:20:03.74Z</time></trkpt><trkpt lat="42.9699733" lon="13.7263517"><ele>116.0</ele><time>2026-04-04T15:20:04.74Z</time></trkpt><trkpt lat="42.9699983" lon="13.7265733"><ele>116.0</ele><time>2026-04-04T15:20:05.741Z</time></trkpt><trkpt lat="42.9700217" lon="13.72679"><ele>116.0</ele><time>2026-04-04T15:20:06.741Z</time></trkpt><trkpt lat="42.970045" lon="13.7270017"><ele>116.0</ele><time>2026-04-04T15:20:07.741Z</time></trkpt><trkpt lat="42.9700667" lon="13.7272183"><ele>114.66666666666666</ele><time>2026-04-04T15:20:08.741Z</time></trkpt><trkpt lat="42.9700983" lon="13.7274517"><ele>113.33333333333334</ele><time>2026-04-04T15:20:09.741Z</time></trkpt><trkpt lat="42.9701383" lon="13.7277183"><ele>112.0</ele><time>2026-04-04T15:20:10.741Z</time></trkpt><trkpt lat="42.9701783" lon="13.7279917"><ele>112.0</ele><time>2026-04-04T15:20:11.74Z</time></trkpt><trkpt lat="42.9702133" lon="13.72826"><ele>112.0</ele><time>2026-04-04T15:20:12.74Z</time></trkpt><trkpt lat="42.970235" lon="13.72851"><ele>112.0</ele><time>2026-04-04T15:20:13.74Z</time></trkpt><trkpt lat="42.97027" lon="13.7287567"><ele>112.0</ele><time>2026-04-04T15:20:14.741Z</time></trkpt><trkpt lat="42.9703033" lon="13.72902"><ele>112.0</ele><time>2026-04-04T15:20:15.741Z</time></trkpt><trkpt lat="42.9703283" lon="13.7292717"><ele>112.0</ele><time>2026-04-04T15:20:16.74Z</time></trkpt><trkpt lat="42.9703567" lon="13.7295017"><ele>111.66666666666667</ele><time>2026-04-04T15:20:17.74Z</time></trkpt><trkpt lat="42.9703733" lon="13.72974"><ele>111.33333333333334</ele><time>2026-04-04T15:20:18.741Z</time></trkpt><trkpt lat="42.9704033" lon="13.7299917"><ele>111.0</ele><time>2026-04-04T15:20:19.74Z</time></trkpt><trkpt lat="42.970435" lon="13.7302467"><ele>111.0</ele><time>2026-04-04T15:20:20.74Z</time></trkpt><trkpt lat="42.9704633" lon="13.7304917"><ele>111.0</ele><time>2026-04-04T15:20:21.741Z</time></trkpt><trkpt lat="42.97048" lon="13.7307283"><ele>111.0</ele><time>2026-04-04T15:20:22.741Z</time></trkpt><trkpt lat="42.9705017" lon="13.730945"><ele>111.0</ele><time>2026-04-04T15:20:23.74Z</time></trkpt><trkpt lat="42.9705217" lon="13.7311433"><ele>111.0</ele><time>2026-04-04T15:20:24.74Z</time></trkpt><trkpt lat="42.970545" lon="13.7313417"><ele>111.0</ele><time>2026-04-04T15:20:25.741Z</time></trkpt><trkpt lat="42.9705767" lon="13.73155"><ele>111.0</ele><time>2026-04-04T15:20:26.741Z</time></trkpt><trkpt lat="42.9706017" lon="13.7317883"><ele>110.66666666666666</ele><time>2026-04-04T15:20:27.741Z</time></trkpt><trkpt lat="42.9706333" lon="13.7320233"><ele>110.33333333333333</ele><time>2026-04-04T15:20:28.74Z</time></trkpt><trkpt lat="42.9706633" lon="13.7322483"><ele>110.0</ele><time>2026-04-04T15:20:29.74Z</time></trkpt><trkpt lat="42.9706933" lon="13.7324667"><ele>110.0</ele><time>2026-04-04T15:20:30.74Z</time></trkpt><trkpt lat="42.9707233" lon="13.73269"><ele>110.0</ele><time>2026-04-04T15:20:31.741Z</time></trkpt><trkpt lat="42.97075" lon="13.7329217"><ele>110.0</ele><time>2026-04-04T15:20:32.741Z</time></trkpt><trkpt lat="42.9707767" lon="13.7331417"><ele>110.0</ele><time>2026-04-04T15:20:33.74Z</time></trkpt><trkpt lat="42.970795" lon="13.733355"><ele>110.0</ele><time>2026-04-04T15:20:34.741Z</time></trkpt><trkpt lat="42.9708117" lon="13.73356"><ele>110.0</ele><time>2026-04-04T15:20:35.74Z</time></trkpt><trkpt lat="42.9708133" lon="13.7337467"><ele>110.0</ele><time>2026-04-04T15:20:36.741Z</time></trkpt><trkpt lat="42.9708133" lon="13.7339183"><ele>110.0</ele><time>2026-04-04T15:20:37.741Z</time></trkpt><trkpt lat="42.9708233" lon="13.7341133"><ele>110.0</ele><time>2026-04-04T15:20:38.74Z</time></trkpt><trkpt lat="42.9708133" lon="13.734325"><ele>110.0</ele><time>2026-04-04T15:20:39.74Z</time></trkpt><trkpt lat="42.9708167" lon="13.7345517"><ele>110.0</ele><time>2026-04-04T15:20:40.74Z</time></trkpt><trkpt lat="42.9708183" lon="13.7347867"><ele>110.0</ele><time>2026-04-04T15:20:41.74Z</time></trkpt><trkpt lat="42.9708117" lon="13.7350367"><ele>110.0</ele><time>2026-04-04T15:20:42.74Z</time></trkpt><trkpt lat="42.9708" lon="13.7353217"><ele>109.33333333333333</ele><time>2026-04-04T15:20:43.741Z</time></trkpt><trkpt lat="42.9708117" lon="13.7355817"><ele>108.66666666666666</ele><time>2026-04-04T15:20:44.741Z</time></trkpt><trkpt lat="42.9708133" lon="13.7358083"><ele>108.0</ele><time>2026-04-04T15:20:45.74Z</time></trkpt><trkpt lat="42.9708183" lon="13.7360083"><ele>107.75</ele><time>2026-04-04T15:20:46.741Z</time></trkpt><trkpt lat="42.970805" lon="13.73621"><ele>107.5</ele><time>2026-04-04T15:20:47.741Z</time></trkpt><trkpt lat="42.9707933" lon="13.7364017"><ele>107.25</ele><time>2026-04-04T15:20:48.74Z</time></trkpt><trkpt lat="42.9707933" lon="13.7366017"><ele>107.0</ele><time>2026-04-04T15:20:49.741Z</time></trkpt><trkpt lat="42.9707967" lon="13.7368"><ele>107.66666666666666</ele><time>2026-04-04T15:20:50.74Z</time></trkpt><trkpt lat="42.9707983" lon="13.7370167"><ele>108.33333333333334</ele><time>2026-04-04T15:20:51.74Z</time></trkpt><trkpt lat="42.9708033" lon="13.7372283"><ele>109.0</ele><time>2026-04-04T15:20:52.74Z</time></trkpt><trkpt lat="42.970815" lon="13.7374467"><ele>109.0</ele><time>2026-04-04T15:20:53.74Z</time></trkpt><trkpt lat="42.97082" lon="13.7376517"><ele>109.0</ele><time>2026-04-04T15:20:54.74Z</time></trkpt><trkpt lat="42.9708217" lon="13.7378433"><ele>109.0</ele><time>2026-04-04T15:20:55.74Z</time></trkpt><trkpt lat="42.9708183" lon="13.7380167"><ele>109.0</ele><time>2026-04-04T15:20:56.74Z</time></trkpt><trkpt lat="42.9708133" lon="13.738195"><ele>108.5</ele><time>2026-04-04T15:20:57.74Z</time></trkpt><trkpt lat="42.9708233" lon="13.7383867"><ele>108.0</ele><time>2026-04-04T15:20:58.74Z</time></trkpt><trkpt lat="42.970835" lon="13.73859"><ele>107.5</ele><time>2026-04-04T15:20:59.74Z</time></trkpt><trkpt lat="42.97085" lon="13.7387883"><ele>107.0</ele><time>2026-04-04T15:21:00.74Z</time></trkpt><trkpt lat="42.9708767" lon="13.7390367"><ele>105.66666666666666</ele><time>2026-04-04T15:21:01.741Z</time></trkpt><trkpt lat="42.9709" lon="13.73928"><ele>104.33333333333334</ele><time>2026-04-04T15:21:02.74Z</time></trkpt><trkpt lat="42.9709217" lon="13.739505"><ele>103.0</ele><time>2026-04-04T15:21:03.74Z</time></trkpt><trkpt lat="42.9709433" lon="13.7397117"><ele>102.75</ele><time>2026-04-04T15:21:04.74Z</time></trkpt><trkpt lat="42.9709617" lon="13.7399117"><ele>102.5</ele><time>2026-04-04T15:21:05.74Z</time></trkpt><trkpt lat="42.9709733" lon="13.7400967"><ele>102.25</ele><time>2026-04-04T15:21:06.741Z</time></trkpt><trkpt lat="42.970995" lon="13.7402717"><ele>102.0</ele><time>2026-04-04T15:21:07.741Z</time></trkpt><trkpt lat="42.971005" lon="13.7404567"><ele>102.0</ele><time>2026-04-04T15:21:08.74Z</time></trkpt><trkpt lat="42.9710233" lon="13.7406317"><ele>102.0</ele><time>2026-04-04T15:21:09.74Z</time></trkpt><trkpt lat="42.9710383" lon="13.7408017"><ele>102.0</ele><time>2026-04-04T15:21:10.741Z</time></trkpt><trkpt lat="42.9710533" lon="13.7409483"><ele>102.0</ele><time>2026-04-04T15:21:11.741Z</time></trkpt><trkpt lat="42.97106" lon="13.7410783"><ele>102.0</ele><time>2026-04-04T15:21:12.74Z</time></trkpt><trkpt lat="42.9710567" lon="13.7411883"><ele>102.0</ele><time>2026-04-04T15:21:13.74Z</time></trkpt><trkpt lat="42.9710483" lon="13.7412983"><ele>102.0</ele><time>2026-04-04T15:21:14.74Z</time></trkpt><trkpt lat="42.97103" lon="13.74142"><ele>102.0</ele><time>2026-04-04T15:21:15.74Z</time></trkpt><trkpt lat="42.9710117" lon="13.7415717"><ele>102.0</ele><time>2026-04-04T15:21:16.74Z</time></trkpt><trkpt lat="42.9709867" lon="13.7417583"><ele>101.33333333333334</ele><time>2026-04-04T15:21:17.741Z</time></trkpt><trkpt lat="42.9709617" lon="13.742"><ele>100.66666666666667</ele><time>2026-04-04T15:21:18.74Z</time></trkpt><trkpt lat="42.970935" lon="13.7423"><ele>100.0</ele><time>2026-04-04T15:21:19.74Z</time></trkpt><trkpt lat="42.9709067" lon="13.742605"><ele>100.0</ele><time>2026-04-04T15:21:20.741Z</time></trkpt><trkpt lat="42.9708667" lon="13.74287"><ele>100.0</ele><time>2026-04-04T15:21:21.741Z</time></trkpt><trkpt lat="42.9708267" lon="13.7431033"><ele>100.0</ele><time>2026-04-04T15:21:22.74Z</time></trkpt><trkpt lat="42.9707917" lon="13.7433233"><ele>100.0</ele><time>2026-04-04T15:21:23.74Z</time></trkpt><trkpt lat="42.97076" lon="13.743535"><ele>100.0</ele><time>2026-04-04T15:21:24.74Z</time></trkpt><trkpt lat="42.9707383" lon="13.74375"><ele>100.0</ele><time>2026-04-04T15:21:25.741Z</time></trkpt><trkpt lat="42.9707167" lon="13.7439583"><ele>99.75</ele><time>2026-04-04T15:21:26.74Z</time></trkpt><trkpt lat="42.9706917" lon="13.7441517"><ele>99.5</ele><time>2026-04-04T15:21:27.74Z</time></trkpt><trkpt lat="42.9706717" lon="13.7443467"><ele>99.25</ele><time>2026-04-04T15:21:28.741Z</time></trkpt><trkpt lat="42.970655" lon="13.7445483"><ele>99.0</ele><time>2026-04-04T15:21:29.74Z</time></trkpt><trkpt lat="42.9706367" lon="13.7447417"><ele>98.66666666666666</ele><time>2026-04-04T15:21:30.74Z</time></trkpt><trkpt lat="42.9706367" lon="13.7449433"><ele>98.33333333333333</ele><time>2026-04-04T15:21:31.741Z</time></trkpt><trkpt lat="42.9706233" lon="13.7451717"><ele>98.0</ele><time>2026-04-04T15:21:32.74Z</time></trkpt><trkpt lat="42.9706117" lon="13.745425"><ele>98.0</ele><time>2026-04-04T15:21:33.741Z</time></trkpt><trkpt lat="42.9706033" lon="13.7456517"><ele>98.0</ele><time>2026-04-04T15:21:34.74Z</time></trkpt><trkpt lat="42.9705867" lon="13.745855"><ele>98.0</ele><time>2026-04-04T15:21:35.74Z</time></trkpt><trkpt lat="42.970565" lon="13.7460567"><ele>98.0</ele><time>2026-04-04T15:21:36.74Z</time></trkpt><trkpt lat="42.9705383" lon="13.7462667"><ele>98.0</ele><time>2026-04-04T15:21:37.741Z</time></trkpt><trkpt lat="42.9705217" lon="13.746445"><ele>98.0</ele><time>2026-04-04T15:21:38.74Z</time></trkpt><trkpt lat="42.97051" lon="13.7466083"><ele>98.0</ele><time>2026-04-04T15:21:39.74Z</time></trkpt><trkpt lat="42.97049" lon="13.74678"><ele>98.0</ele><time>2026-04-04T15:21:40.74Z</time></trkpt><trkpt lat="42.970485" lon="13.7470017"><ele>98.0</ele><time>2026-04-04T15:21:41.741Z</time></trkpt><trkpt lat="42.9704633" lon="13.7472317"><ele>98.0</ele><time>2026-04-04T15:21:42.74Z</time></trkpt><trkpt lat="42.970445" lon="13.7474683"><ele>98.0</ele><time>2026-04-04T15:21:43.741Z</time></trkpt><trkpt lat="42.970435" lon="13.7476733"><ele>98.0</ele><time>2026-04-04T15:21:44.741Z</time></trkpt><trkpt lat="42.9704317" lon="13.747885"><ele>98.0</ele><time>2026-04-04T15:21:45.74Z</time></trkpt><trkpt lat="42.97043" lon="13.7480817"><ele>98.0</ele><time>2026-04-04T15:21:46.741Z</time></trkpt><trkpt lat="42.97042" lon="13.7482733"><ele>97.33333333333333</ele><time>2026-04-04T15:21:47.74Z</time></trkpt><trkpt lat="42.9703967" lon="13.7484567"><ele>96.66666666666666</ele><time>2026-04-04T15:21:48.74Z</time></trkpt><trkpt lat="42.97039" lon="13.7486967"><ele>96.0</ele><time>2026-04-04T15:21:49.74Z</time></trkpt><trkpt lat="42.9703967" lon="13.7489817"><ele>95.66666666666667</ele><time>2026-04-04T15:21:50.74Z</time></trkpt><trkpt lat="42.9703867" lon="13.74929"><ele>95.33333333333334</ele><time>2026-04-04T15:21:51.74Z</time></trkpt><trkpt lat="42.9703817" lon="13.749575"><ele>95.0</ele><time>2026-04-04T15:21:52.74Z</time></trkpt><trkpt lat="42.9703617" lon="13.7498217"><ele>95.0</ele><time>2026-04-04T15:21:53.74Z</time></trkpt><trkpt lat="42.9703433" lon="13.7500267"><ele>95.0</ele><time>2026-04-04T15:21:54.741Z</time></trkpt><trkpt lat="42.9703367" lon="13.7502433"><ele>95.0</ele><time>2026-04-04T15:21:55.74Z</time></trkpt><trkpt lat="42.9703283" lon="13.7504483"><ele>95.0</ele><time>2026-04-04T15:21:56.741Z</time></trkpt><trkpt lat="42.9703267" lon="13.7506533"><ele>95.0</ele><time>2026-04-04T15:21:57.74Z</time></trkpt><trkpt lat="42.97032" lon="13.7508467"><ele>95.0</ele><time>2026-04-04T15:21:58.74Z</time></trkpt><trkpt lat="42.9703133" lon="13.7510567"><ele>95.0</ele><time>2026-04-04T15:21:59.74Z</time></trkpt><trkpt lat="42.9703017" lon="13.7512583"><ele>94.33333333333334</ele><time>2026-04-04T15:22:00.741Z</time></trkpt><trkpt lat="42.9703" lon="13.75147"><ele>93.66666666666667</ele><time>2026-04-04T15:22:01.741Z</time></trkpt><trkpt lat="42.9702917" lon="13.7516867"><ele>93.0</ele><time>2026-04-04T15:22:02.741Z</time></trkpt><trkpt lat="42.970275" lon="13.7519083"><ele>92.66666666666667</ele><time>2026-04-04T15:22:03.74Z</time></trkpt><trkpt lat="42.9702483" lon="13.7521267"><ele>92.33333333333334</ele><time>2026-04-04T15:22:04.741Z</time></trkpt><trkpt lat="42.9702333" lon="13.752335"><ele>92.0</ele><time>2026-04-04T15:22:05.74Z</time></trkpt><trkpt lat="42.97023" lon="13.7525717"><ele>91.66666666666667</ele><time>2026-04-04T15:22:06.741Z</time></trkpt><trkpt lat="42.97023" lon="13.7528433"><ele>91.33333333333333</ele><time>2026-04-04T15:22:07.741Z</time></trkpt><trkpt lat="42.9702067" lon="13.7531633"><ele>91.0</ele><time>2026-04-04T15:22:08.741Z</time></trkpt><trkpt lat="42.9701733" lon="13.7535083"><ele>91.0</ele><time>2026-04-04T15:22:09.74Z</time></trkpt><trkpt lat="42.970135" lon="13.753855"><ele>91.0</ele><time>2026-04-04T15:22:10.74Z</time></trkpt><trkpt lat="42.9700983" lon="13.75416"><ele>90.33333333333333</ele><time>2026-04-04T15:22:11.741Z</time></trkpt><trkpt lat="42.970065" lon="13.7544317"><ele>89.66666666666667</ele><time>2026-04-04T15:22:12.741Z</time></trkpt><trkpt lat="42.97006" lon="13.75469"><ele>89.0</ele><time>2026-04-04T15:22:13.74Z</time></trkpt><trkpt lat="42.9700533" lon="13.7549467"><ele>89.0</ele><time>2026-04-04T15:22:14.74Z</time></trkpt><trkpt lat="42.9700317" lon="13.7552233"><ele>89.0</ele><time>2026-04-04T15:22:15.74Z</time></trkpt><trkpt lat="42.9699983" lon="13.75555"><ele>89.0</ele><time>2026-04-04T15:22:16.74Z</time></trkpt><trkpt lat="42.969975" lon="13.7558683"><ele>89.33333333333334</ele><time>2026-04-04T15:22:17.741Z</time></trkpt><trkpt lat="42.9699433" lon="13.7561367"><ele>89.66666666666667</ele><time>2026-04-04T15:22:18.74Z</time></trkpt><trkpt lat="42.9699133" lon="13.7563533"><ele>90.0</ele><time>2026-04-04T15:22:19.74Z</time></trkpt><trkpt lat="42.9698933" lon="13.7565083"><ele>90.0</ele><time>2026-04-04T15:22:20.74Z</time></trkpt><trkpt lat="42.9698667" lon="13.7566167"><ele>90.0</ele><time>2026-04-04T15:22:21.741Z</time></trkpt><trkpt lat="42.9698233" lon="13.75671"><ele>90.0</ele><time>2026-04-04T15:22:23.74Z</time></trkpt><trkpt lat="42.969775" lon="13.7567733"><ele>90.0</ele><time>2026-04-04T15:22:27.74Z</time></trkpt><trkpt lat="42.9696833" lon="13.7567717"><ele>90.0</ele><time>2026-04-04T15:22:30.74Z</time></trkpt><trkpt lat="42.9695583" lon="13.7567733"><ele>90.0</ele><time>2026-04-04T15:22:32.74Z</time></trkpt><trkpt lat="42.969485" lon="13.7568067"><ele>89.83333333333333</ele><time>2026-04-04T15:22:34.74Z</time></trkpt><trkpt lat="42.969545" lon="13.75687"><ele>89.66666666666667</ele><time>2026-04-04T15:22:38.74Z</time></trkpt><trkpt lat="42.9696183" lon="13.756885"><ele>89.5</ele><time>2026-04-04T15:22:47.74Z</time></trkpt><trkpt lat="42.969715" lon="13.7569233"><ele>89.33333333333334</ele><time>2026-04-04T15:22:49.74Z</time></trkpt><trkpt lat="42.9698217" lon="13.7569983"><ele>89.16666666666667</ele><time>2026-04-04T15:22:51.741Z</time></trkpt><trkpt lat="42.969875" lon="13.7570583"><ele>89.0</ele><time>2026-04-04T15:22:52.74Z</time></trkpt><trkpt lat="42.9699167" lon="13.75714"><ele>89.0</ele><time>2026-04-04T15:22:53.741Z</time></trkpt><trkpt lat="42.9699517" lon="13.7572367"><ele>89.0</ele><time>2026-04-04T15:22:54.74Z</time></trkpt><trkpt lat="42.9699783" lon="13.757345"><ele>89.0</ele><time>2026-04-04T15:22:55.741Z</time></trkpt><trkpt lat="42.9699883" lon="13.75746"><ele>89.0</ele><time>2026-04-04T15:22:56.74Z</time></trkpt><trkpt lat="42.9699933" lon="13.75757"><ele>89.0</ele><time>2026-04-04T15:22:57.741Z</time></trkpt><trkpt lat="42.9699983" lon="13.7576867"><ele>89.0</ele><time>2026-04-04T15:22:58.74Z</time></trkpt><trkpt lat="42.97001" lon="13.7578033"><ele>88.4</ele><time>2026-04-04T15:22:59.74Z</time></trkpt><trkpt lat="42.9700367" lon="13.7579167"><ele>87.80000000000001</ele><time>2026-04-04T15:23:00.74Z</time></trkpt><trkpt lat="42.9700633" lon="13.7580483"><ele>87.19999999999999</ele><time>2026-04-04T15:23:01.74Z</time></trkpt><trkpt lat="42.9700917" lon="13.758175"><ele>86.6</ele><time>2026-04-04T15:23:02.74Z</time></trkpt><trkpt lat="42.9701167" lon="13.7583067"><ele>86.0</ele><time>2026-04-04T15:23:03.741Z</time></trkpt><trkpt lat="42.970135" lon="13.758435"><ele>86.0</ele><time>2026-04-04T15:23:04.741Z</time></trkpt><trkpt lat="42.9701533" lon="13.758565"><ele>86.0</ele><time>2026-04-04T15:23:05.74Z</time></trkpt><trkpt lat="42.9701817" lon="13.7586967"><ele>86.0</ele><time>2026-04-04T15:23:06.741Z</time></trkpt><trkpt lat="42.9702083" lon="13.7588333"><ele>86.0</ele><time>2026-04-04T15:23:07.741Z</time></trkpt><trkpt lat="42.9702367" lon="13.7589617"><ele>86.0</ele><time>2026-04-04T15:23:08.741Z</time></trkpt><trkpt lat="42.970265" lon="13.759095"><ele>86.0</ele><time>2026-04-04T15:23:09.74Z</time></trkpt><trkpt lat="42.9703" lon="13.7592433"><ele>86.0</ele><time>2026-04-04T15:23:10.74Z</time></trkpt><trkpt lat="42.9703317" lon="13.75939"><ele>86.0</ele><time>2026-04-04T15:23:11.74Z</time></trkpt><trkpt lat="42.9703683" lon="13.7595317"><ele>86.0</ele><time>2026-04-04T15:23:12.74Z</time></trkpt><trkpt lat="42.9704033" lon="13.7596833"><ele>86.0</ele><time>2026-04-04T15:23:13.741Z</time></trkpt><trkpt lat="42.97044" lon="13.75984"><ele>86.0</ele><time>2026-04-04T15:23:14.741Z</time></trkpt><trkpt lat="42.9704717" lon="13.76001"><ele>86.0</ele><time>2026-04-04T15:23:15.74Z</time></trkpt><trkpt lat="42.9705067" lon="13.7601717"><ele>86.0</ele><time>2026-04-04T15:23:16.74Z</time></trkpt><trkpt lat="42.97054" lon="13.7603283"><ele>86.0</ele><time>2026-04-04T15:23:17.74Z</time></trkpt><trkpt lat="42.9705733" lon="13.76049"><ele>86.0</ele><time>2026-04-04T15:23:18.74Z</time></trkpt><trkpt lat="42.9706083" lon="13.7606517"><ele>86.0</ele><time>2026-04-04T15:23:19.74Z</time></trkpt><trkpt lat="42.9706367" lon="13.76081"><ele>86.0</ele><time>2026-04-04T15:23:20.741Z</time></trkpt><trkpt lat="42.9706683" lon="13.7609817"><ele>85.75</ele><time>2026-04-04T15:23:21.741Z</time></trkpt><trkpt lat="42.9707033" lon="13.7611567"><ele>85.5</ele><time>2026-04-04T15:23:22.74Z</time></trkpt><trkpt lat="42.9707433" lon="13.7613233"><ele>85.25</ele><time>2026-04-04T15:23:23.741Z</time></trkpt><trkpt lat="42.97078" lon="13.7614917"><ele>85.0</ele><time>2026-04-04T15:23:24.74Z</time></trkpt><trkpt lat="42.97082" lon="13.7616617"><ele>84.5</ele><time>2026-04-04T15:23:25.74Z</time></trkpt><trkpt lat="42.9708583" lon="13.7618467"><ele>84.0</ele><time>2026-04-04T15:23:26.74Z</time></trkpt><trkpt lat="42.9709" lon="13.7620267"><ele>83.5</ele><time>2026-04-04T15:23:27.74Z</time></trkpt><trkpt lat="42.9709317" lon="13.762205"><ele>83.0</ele><time>2026-04-04T15:23:28.74Z</time></trkpt><trkpt lat="42.9709717" lon="13.7623817"><ele>82.75</ele><time>2026-04-04T15:23:29.741Z</time></trkpt><trkpt lat="42.9710067" lon="13.7625583"><ele>82.5</ele><time>2026-04-04T15:23:30.74Z</time></trkpt><trkpt lat="42.97104" lon="13.7627383"><ele>82.25</ele><time>2026-04-04T15:23:31.74Z</time></trkpt><trkpt lat="42.9710767" lon="13.7629067"><ele>82.0</ele><time>2026-04-04T15:23:32.741Z</time></trkpt><trkpt lat="42.9711183" lon="13.76309"><ele>82.0</ele><time>2026-04-04T15:23:33.74Z</time></trkpt><trkpt lat="42.9711567" lon="13.763265"><ele>82.0</ele><time>2026-04-04T15:23:34.74Z</time></trkpt><trkpt lat="42.97119" lon="13.76345"><ele>82.0</ele><time>2026-04-04T15:23:35.74Z</time></trkpt><trkpt lat="42.9712367" lon="13.76363"><ele>82.0</ele><time>2026-04-04T15:23:36.74Z</time></trkpt><trkpt lat="42.971275" lon="13.76382"><ele>82.0</ele><time>2026-04-04T15:23:37.741Z</time></trkpt><trkpt lat="42.9713083" lon="13.7639983"><ele>82.0</ele><time>2026-04-04T15:23:38.74Z</time></trkpt><trkpt lat="42.9713483" lon="13.7641783"><ele>82.0</ele><time>2026-04-04T15:23:39.74Z</time></trkpt><trkpt lat="42.97139" lon="13.7643617"><ele>82.0</ele><time>2026-04-04T15:23:40.74Z</time></trkpt><trkpt lat="42.9714283" lon="13.7645467"><ele>82.0</ele><time>2026-04-04T15:23:41.741Z</time></trkpt><trkpt lat="42.971465" lon="13.7647267"><ele>82.0</ele><time>2026-04-04T15:23:42.741Z</time></trkpt><trkpt lat="42.971505" lon="13.7649033"><ele>82.0</ele><time>2026-04-04T15:23:43.741Z</time></trkpt><trkpt lat="42.9715467" lon="13.76507"><ele>82.0</ele><time>2026-04-04T15:23:44.741Z</time></trkpt><trkpt lat="42.97158" lon="13.765235"><ele>82.0</ele><time>2026-04-04T15:23:45.741Z</time></trkpt><trkpt lat="42.9716183" lon="13.7653967"><ele>82.0</ele><time>2026-04-04T15:23:46.741Z</time></trkpt><trkpt lat="42.9716517" lon="13.7655667"><ele>82.0</ele><time>2026-04-04T15:23:47.74Z</time></trkpt><trkpt lat="42.9716783" lon="13.7657417"><ele>82.0</ele><time>2026-04-04T15:23:48.74Z</time></trkpt><trkpt lat="42.971715" lon="13.76593"><ele>81.0</ele><time>2026-04-04T15:23:49.741Z</time></trkpt><trkpt lat="42.9717417" lon="13.76611"><ele>80.0</ele><time>2026-04-04T15:23:50.74Z</time></trkpt><trkpt lat="42.9717733" lon="13.7662933"><ele>79.0</ele><time>2026-04-04T15:23:51.74Z</time></trkpt><trkpt lat="42.971845" lon="13.7666517"><ele>79.0</ele><time>2026-04-04T15:23:53.74Z</time></trkpt><trkpt lat="42.97188" lon="13.7668383"><ele>79.0</ele><time>2026-04-04T15:23:54.741Z</time></trkpt><trkpt lat="42.9719033" lon="13.767015"><ele>79.0</ele><time>2026-04-04T15:23:55.741Z</time></trkpt><trkpt lat="42.97193" lon="13.7671833"><ele>79.0</ele><time>2026-04-04T15:23:56.74Z</time></trkpt><trkpt lat="42.9719567" lon="13.7673533"><ele>79.0</ele><time>2026-04-04T15:23:57.74Z</time></trkpt><trkpt lat="42.9719867" lon="13.7675483"><ele>79.0</ele><time>2026-04-04T15:23:58.74Z</time></trkpt><trkpt lat="42.97202" lon="13.7677433"><ele>79.0</ele><time>2026-04-04T15:23:59.74Z</time></trkpt><trkpt lat="42.9720467" lon="13.76794"><ele>79.0</ele><time>2026-04-04T15:24:00.74Z</time></trkpt><trkpt lat="42.9720683" lon="13.7681283"><ele>79.0</ele><time>2026-04-04T15:24:01.74Z</time></trkpt><trkpt lat="42.9720933" lon="13.76832"><ele>79.0</ele><time>2026-04-04T15:24:02.741Z</time></trkpt><trkpt lat="42.9721183" lon="13.7685083"><ele>79.0</ele><time>2026-04-04T15:24:03.74Z</time></trkpt><trkpt lat="42.9721433" lon="13.768695"><ele>79.0</ele><time>2026-04-04T15:24:04.741Z</time></trkpt><trkpt lat="42.9721583" lon="13.76889"><ele>79.0</ele><time>2026-04-04T15:24:05.74Z</time></trkpt><trkpt lat="42.9721817" lon="13.76908"><ele>79.0</ele><time>2026-04-04T15:24:06.74Z</time></trkpt><trkpt lat="42.9721983" lon="13.769255"><ele>79.0</ele><time>2026-04-04T15:24:07.74Z</time></trkpt><trkpt lat="42.9722183" lon="13.7694383"><ele>79.0</ele><time>2026-04-04T15:24:08.74Z</time></trkpt><trkpt lat="42.97224" lon="13.7696083"><ele>78.75</ele><time>2026-04-04T15:24:09.74Z</time></trkpt><trkpt lat="42.97228" lon="13.76978"><ele>78.5</ele><time>2026-04-04T15:24:10.741Z</time></trkpt><trkpt lat="42.97231" lon="13.769945"><ele>78.25</ele><time>2026-04-04T15:24:11.74Z</time></trkpt><trkpt lat="42.9723567" lon="13.7701267"><ele>78.0</ele><time>2026-04-04T15:24:12.74Z</time></trkpt><trkpt lat="42.9723867" lon="13.7703133"><ele>77.5</ele><time>2026-04-04T15:24:13.741Z</time></trkpt><trkpt lat="42.972425" lon="13.7704883"><ele>77.0</ele><time>2026-04-04T15:24:14.74Z</time></trkpt><trkpt lat="42.9724667" lon="13.7706683"><ele>76.5</ele><time>2026-04-04T15:24:15.741Z</time></trkpt><trkpt lat="42.9725183" lon="13.77084"><ele>76.0</ele><time>2026-04-04T15:24:16.74Z</time></trkpt><trkpt lat="42.9725683" lon="13.7710033"><ele>75.75</ele><time>2026-04-04T15:24:17.74Z</time></trkpt><trkpt lat="42.9726133" lon="13.77118"><ele>75.5</ele><time>2026-04-04T15:24:18.74Z</time></trkpt><trkpt lat="42.9726567" lon="13.7713533"><ele>75.25</ele><time>2026-04-04T15:24:19.741Z</time></trkpt><trkpt lat="42.9727" lon="13.77153"><ele>75.0</ele><time>2026-04-04T15:24:20.74Z</time></trkpt><trkpt lat="42.97275" lon="13.7717033"><ele>75.25</ele><time>2026-04-04T15:24:21.741Z</time></trkpt><trkpt lat="42.97279" lon="13.7718783"><ele>75.5</ele><time>2026-04-04T15:24:22.741Z</time></trkpt><trkpt lat="42.97283" lon="13.77206"><ele>75.75</ele><time>2026-04-04T15:24:23.74Z</time></trkpt><trkpt lat="42.9728683" lon="13.7722483"><ele>76.0</ele><time>2026-04-04T15:24:24.74Z</time></trkpt><trkpt lat="42.97291" lon="13.7724367"><ele>76.0</ele><time>2026-04-04T15:24:25.741Z</time></trkpt><trkpt lat="42.9729467" lon="13.7726267"><ele>76.0</ele><time>2026-04-04T15:24:26.74Z</time></trkpt><trkpt lat="42.9729783" lon="13.7728117"><ele>76.0</ele><time>2026-04-04T15:24:27.74Z</time></trkpt><trkpt lat="42.9730133" lon="13.7729983"><ele>76.0</ele><time>2026-04-04T15:24:28.741Z</time></trkpt><trkpt lat="42.97305" lon="13.77318"><ele>76.0</ele><time>2026-04-04T15:24:29.741Z</time></trkpt><trkpt lat="42.9730867" lon="13.7733583"><ele>76.0</ele><time>2026-04-04T15:24:30.74Z</time></trkpt><trkpt lat="42.9731283" lon="13.77354"><ele>76.0</ele><time>2026-04-04T15:24:31.741Z</time></trkpt><trkpt lat="42.973165" lon="13.7737083"><ele>76.0</ele><time>2026-04-04T15:24:32.74Z</time></trkpt><trkpt lat="42.9731983" lon="13.7738717"><ele>76.0</ele><time>2026-04-04T15:24:33.74Z</time></trkpt><trkpt lat="42.9732233" lon="13.7740383"><ele>76.0</ele><time>2026-04-04T15:24:34.741Z</time></trkpt><trkpt lat="42.973255" lon="13.7741883"><ele>76.0</ele><time>2026-04-04T15:24:35.741Z</time></trkpt><trkpt lat="42.9732883" lon="13.7743317"><ele>76.0</ele><time>2026-04-04T15:24:36.74Z</time></trkpt><trkpt lat="42.9733233" lon="13.7744717"><ele>76.0</ele><time>2026-04-04T15:24:37.741Z</time></trkpt><trkpt lat="42.9733517" lon="13.7746083"><ele>76.0</ele><time>2026-04-04T15:24:38.74Z</time></trkpt><trkpt lat="42.9733767" lon="13.7747333"><ele>76.0</ele><time>2026-04-04T15:24:39.74Z</time></trkpt><trkpt lat="42.9733933" lon="13.7748367"><ele>76.0</ele><time>2026-04-04T15:24:40.741Z</time></trkpt><trkpt lat="42.9734017" lon="13.7749267"><ele>76.0</ele><time>2026-04-04T15:24:41.74Z</time></trkpt><trkpt lat="42.9734167" lon="13.7750783"><ele>75.6</ele><time>2026-04-04T15:24:43.74Z</time></trkpt><trkpt lat="42.9734517" lon="13.77524"><ele>75.19999999999999</ele><time>2026-04-04T15:24:45.74Z</time></trkpt><trkpt lat="42.9734833" lon="13.7753517"><ele>74.80000000000001</ele><time>2026-04-04T15:24:46.74Z</time></trkpt><trkpt lat="42.97352" lon="13.77548"><ele>74.4</ele><time>2026-04-04T15:24:47.741Z</time></trkpt><trkpt lat="42.9735517" lon="13.775595"><ele>74.0</ele><time>2026-04-04T15:24:48.741Z</time></trkpt><trkpt lat="42.9735717" lon="13.7756983"><ele>74.0</ele><time>2026-04-04T15:24:49.741Z</time></trkpt><trkpt lat="42.9736017" lon="13.7757983"><ele>74.0</ele><time>2026-04-04T15:24:50.74Z</time></trkpt><trkpt lat="42.97363" lon="13.7758833"><ele>74.0</ele><time>2026-04-04T15:24:51.74Z</time></trkpt><trkpt lat="42.9736533" lon="13.775975"><ele>74.0</ele><time>2026-04-04T15:24:52.74Z</time></trkpt><trkpt lat="42.9736733" lon="13.7760583"><ele>74.0</ele><time>2026-04-04T15:24:53.74Z</time></trkpt><trkpt lat="42.9737267" lon="13.77621"><ele>74.0</ele><time>2026-04-04T15:24:55.741Z</time></trkpt><trkpt lat="42.97376" lon="13.7762833"><ele>74.0</ele><time>2026-04-04T15:24:56.741Z</time></trkpt><trkpt lat="42.9737917" lon="13.7763683"><ele>74.0</ele><time>2026-04-04T15:24:57.74Z</time></trkpt><trkpt lat="42.9738183" lon="13.7764683"><ele>74.0</ele><time>2026-04-04T15:24:58.74Z</time></trkpt><trkpt lat="42.973845" lon="13.776575"><ele>74.0</ele><time>2026-04-04T15:24:59.74Z</time></trkpt><trkpt lat="42.9738783" lon="13.77668"><ele>74.0</ele><time>2026-04-04T15:25:00.74Z</time></trkpt><trkpt lat="42.9739133" lon="13.776795"><ele>74.0</ele><time>2026-04-04T15:25:01.74Z</time></trkpt><trkpt lat="42.973945" lon="13.77691"><ele>74.0</ele><time>2026-04-04T15:25:02.74Z</time></trkpt><trkpt lat="42.9739733" lon="13.7770233"><ele>74.0</ele><time>2026-04-04T15:25:03.741Z</time></trkpt><trkpt lat="42.9740017" lon="13.777135"><ele>74.0</ele><time>2026-04-04T15:25:04.741Z</time></trkpt><trkpt lat="42.9740333" lon="13.7772417"><ele>74.0</ele><time>2026-04-04T15:25:05.74Z</time></trkpt><trkpt lat="42.97407" lon="13.7773483"><ele>74.0</ele><time>2026-04-04T15:25:06.741Z</time></trkpt><trkpt lat="42.974105" lon="13.777455"><ele>74.0</ele><time>2026-04-04T15:25:07.74Z</time></trkpt><trkpt lat="42.9741383" lon="13.777565"><ele>74.0</ele><time>2026-04-04T15:25:08.74Z</time></trkpt><trkpt lat="42.9741767" lon="13.7776767"><ele>74.0</ele><time>2026-04-04T15:25:09.74Z</time></trkpt><trkpt lat="42.97422" lon="13.7778033"><ele>74.0</ele><time>2026-04-04T15:25:10.74Z</time></trkpt><trkpt lat="42.97427" lon="13.77793"><ele>74.0</ele><time>2026-04-04T15:25:11.74Z</time></trkpt><trkpt lat="42.97432" lon="13.77808"><ele>74.0</ele><time>2026-04-04T15:25:12.74Z</time></trkpt><trkpt lat="42.9743817" lon="13.7782467"><ele>73.25</ele><time>2026-04-04T15:25:13.74Z</time></trkpt><trkpt lat="42.9744383" lon="13.7784117"><ele>72.5</ele><time>2026-04-04T15:25:14.74Z</time></trkpt><trkpt lat="42.9744967" lon="13.7785767"><ele>71.75</ele><time>2026-04-04T15:25:15.74Z</time></trkpt><trkpt lat="42.9745567" lon="13.7787483"><ele>71.0</ele><time>2026-04-04T15:25:16.74Z</time></trkpt><trkpt lat="42.9746167" lon="13.778925"><ele>71.0</ele><time>2026-04-04T15:25:17.74Z</time></trkpt><trkpt lat="42.9746767" lon="13.7791217"><ele>71.0</ele><time>2026-04-04T15:25:18.74Z</time></trkpt><trkpt lat="42.9747333" lon="13.7793233"><ele>71.0</ele><time>2026-04-04T15:25:19.74Z</time></trkpt><trkpt lat="42.9747933" lon="13.7795083"><ele>71.0</ele><time>2026-04-04T15:25:20.74Z</time></trkpt><trkpt lat="42.974855" lon="13.779685"><ele>71.0</ele><time>2026-04-04T15:25:21.74Z</time></trkpt><trkpt lat="42.97491" lon="13.779855"><ele>71.0</ele><time>2026-04-04T15:25:22.74Z</time></trkpt><trkpt lat="42.9749617" lon="13.7800233"><ele>71.0</ele><time>2026-04-04T15:25:23.741Z</time></trkpt><trkpt lat="42.9750083" lon="13.7801967"><ele>70.5</ele><time>2026-04-04T15:25:24.74Z</time></trkpt><trkpt lat="42.9750567" lon="13.7803733"><ele>70.0</ele><time>2026-04-04T15:25:25.741Z</time></trkpt><trkpt lat="42.9750983" lon="13.780545"><ele>69.5</ele><time>2026-04-04T15:25:26.74Z</time></trkpt><trkpt lat="42.975135" lon="13.78071"><ele>69.0</ele><time>2026-04-04T15:25:27.74Z</time></trkpt><trkpt lat="42.97518" lon="13.7808683"><ele>68.75</ele><time>2026-04-04T15:25:28.741Z</time></trkpt><trkpt lat="42.9752167" lon="13.781045"><ele>68.5</ele><time>2026-04-04T15:25:29.741Z</time></trkpt><trkpt lat="42.9752617" lon="13.7812183"><ele>68.25</ele><time>2026-04-04T15:25:30.741Z</time></trkpt><trkpt lat="42.975305" lon="13.7814067"><ele>68.0</ele><time>2026-04-04T15:25:31.74Z</time></trkpt><trkpt lat="42.9753417" lon="13.78159"><ele>68.0</ele><time>2026-04-04T15:25:32.74Z</time></trkpt><trkpt lat="42.9753867" lon="13.7817617"><ele>68.0</ele><time>2026-04-04T15:25:33.741Z</time></trkpt><trkpt lat="42.97542" lon="13.7819367"><ele>68.0</ele><time>2026-04-04T15:25:34.741Z</time></trkpt><trkpt lat="42.9754567" lon="13.7821117"><ele>68.0</ele><time>2026-04-04T15:25:35.74Z</time></trkpt><trkpt lat="42.9755" lon="13.7822817"><ele>67.75</ele><time>2026-04-04T15:25:36.741Z</time></trkpt><trkpt lat="42.975535" lon="13.7824583"><ele>67.5</ele><time>2026-04-04T15:25:37.74Z</time></trkpt><trkpt lat="42.9755717" lon="13.7826367"><ele>67.25</ele><time>2026-04-04T15:25:38.741Z</time></trkpt><trkpt lat="42.9756167" lon="13.7828217"><ele>67.0</ele><time>2026-04-04T15:25:39.741Z</time></trkpt><trkpt lat="42.97566" lon="13.783"><ele>67.0</ele><time>2026-04-04T15:25:40.74Z</time></trkpt><trkpt lat="42.97571" lon="13.7831733"><ele>67.0</ele><time>2026-04-04T15:25:41.74Z</time></trkpt><trkpt lat="42.9757683" lon="13.7833483"><ele>67.0</ele><time>2026-04-04T15:25:42.74Z</time></trkpt><trkpt lat="42.975825" lon="13.7835"><ele>67.0</ele><time>2026-04-04T15:25:43.74Z</time></trkpt><trkpt lat="42.97589" lon="13.78364"><ele>66.5</ele><time>2026-04-04T15:25:44.74Z</time></trkpt><trkpt lat="42.975955" lon="13.7837933"><ele>66.0</ele><time>2026-04-04T15:25:45.74Z</time></trkpt><trkpt lat="42.976015" lon="13.7839517"><ele>65.5</ele><time>2026-04-04T15:25:46.741Z</time></trkpt><trkpt lat="42.976075" lon="13.7841033"><ele>65.0</ele><time>2026-04-04T15:25:47.74Z</time></trkpt><trkpt lat="42.976135" lon="13.7842533"><ele>65.25</ele><time>2026-04-04T15:25:48.739Z</time></trkpt><trkpt lat="42.9761767" lon="13.78441"><ele>65.5</ele><time>2026-04-04T15:25:49.74Z</time></trkpt><trkpt lat="42.976215" lon="13.784575"><ele>65.75</ele><time>2026-04-04T15:25:50.739Z</time></trkpt><trkpt lat="42.976245" lon="13.7847433"><ele>66.0</ele><time>2026-04-04T15:25:51.74Z</time></trkpt><trkpt lat="42.9762717" lon="13.7849167"><ele>66.0</ele><time>2026-04-04T15:25:52.739Z</time></trkpt><trkpt lat="42.9762883" lon="13.7850983"><ele>66.0</ele><time>2026-04-04T15:25:53.74Z</time></trkpt><trkpt lat="42.9763167" lon="13.7852817"><ele>66.0</ele><time>2026-04-04T15:25:54.74Z</time></trkpt><trkpt lat="42.97634" lon="13.78546"><ele>66.0</ele><time>2026-04-04T15:25:55.739Z</time></trkpt><trkpt lat="42.976365" lon="13.785635"><ele>65.75</ele><time>2026-04-04T15:25:56.739Z</time></trkpt><trkpt lat="42.9763917" lon="13.7857983"><ele>65.5</ele><time>2026-04-04T15:25:57.74Z</time></trkpt><trkpt lat="42.9764117" lon="13.7859567"><ele>65.25</ele><time>2026-04-04T15:25:58.739Z</time></trkpt><trkpt lat="42.9764317" lon="13.786115"><ele>65.0</ele><time>2026-04-04T15:25:59.74Z</time></trkpt><trkpt lat="42.97646" lon="13.7862767"><ele>64.5</ele><time>2026-04-04T15:26:00.74Z</time></trkpt><trkpt lat="42.9764883" lon="13.7864467"><ele>64.0</ele><time>2026-04-04T15:26:01.739Z</time></trkpt><trkpt lat="42.9765183" lon="13.7866083"><ele>63.5</ele><time>2026-04-04T15:26:02.739Z</time></trkpt><trkpt lat="42.9765433" lon="13.78677"><ele>63.0</ele><time>2026-04-04T15:26:03.74Z</time></trkpt><trkpt lat="42.97658" lon="13.7869283"><ele>63.0</ele><time>2026-04-04T15:26:04.739Z</time></trkpt><trkpt lat="42.9766167" lon="13.787095"><ele>63.0</ele><time>2026-04-04T15:26:05.739Z</time></trkpt><trkpt lat="42.9766517" lon="13.7872467"><ele>63.0</ele><time>2026-04-04T15:26:06.74Z</time></trkpt><trkpt lat="42.9766917" lon="13.7873983"><ele>63.0</ele><time>2026-04-04T15:26:07.74Z</time></trkpt><trkpt lat="42.9767367" lon="13.78755"><ele>62.75</ele><time>2026-04-04T15:26:08.739Z</time></trkpt><trkpt lat="42.97678" lon="13.7877067"><ele>62.5</ele><time>2026-04-04T15:26:09.739Z</time></trkpt><trkpt lat="42.9768217" lon="13.7878717"><ele>62.25</ele><time>2026-04-04T15:26:10.739Z</time></trkpt><trkpt lat="42.9768717" lon="13.7880333"><ele>62.0</ele><time>2026-04-04T15:26:11.739Z</time></trkpt><trkpt lat="42.97691" lon="13.7882017"><ele>62.0</ele><time>2026-04-04T15:26:12.739Z</time></trkpt><trkpt lat="42.9769467" lon="13.7883833"><ele>62.0</ele><time>2026-04-04T15:26:13.739Z</time></trkpt><trkpt lat="42.976975" lon="13.7885517"><ele>62.0</ele><time>2026-04-04T15:26:14.739Z</time></trkpt><trkpt lat="42.9770067" lon="13.7887233"><ele>62.0</ele><time>2026-04-04T15:26:15.739Z</time></trkpt><trkpt lat="42.97704" lon="13.7889"><ele>61.75</ele><time>2026-04-04T15:26:16.739Z</time></trkpt><trkpt lat="42.9770717" lon="13.789085"><ele>61.5</ele><time>2026-04-04T15:26:17.739Z</time></trkpt><trkpt lat="42.977105" lon="13.7892667"><ele>61.25</ele><time>2026-04-04T15:26:18.74Z</time></trkpt><trkpt lat="42.9771283" lon="13.7894467"><ele>61.0</ele><time>2026-04-04T15:26:19.739Z</time></trkpt><trkpt lat="42.9771533" lon="13.7896233"><ele>61.0</ele><time>2026-04-04T15:26:20.739Z</time></trkpt><trkpt lat="42.9771833" lon="13.78979"><ele>61.0</ele><time>2026-04-04T15:26:21.74Z</time></trkpt><trkpt lat="42.9772167" lon="13.789955"><ele>61.0</ele><time>2026-04-04T15:26:22.74Z</time></trkpt><trkpt lat="42.9772517" lon="13.7901167"><ele>61.0</ele><time>2026-04-04T15:26:23.74Z</time></trkpt><trkpt lat="42.9772767" lon="13.7902583"><ele>61.0</ele><time>2026-04-04T15:26:24.739Z</time></trkpt><trkpt lat="42.9772967" lon="13.7903933"><ele>60.99999999999999</ele><time>2026-04-04T15:26:25.739Z</time></trkpt><trkpt lat="42.9773067" lon="13.79052"><ele>60.99999999999999</ele><time>2026-04-04T15:26:26.739Z</time></trkpt><trkpt lat="42.9773067" lon="13.7906367"><ele>61.0</ele><time>2026-04-04T15:26:27.739Z</time></trkpt><trkpt lat="42.9773133" lon="13.7907283"><ele>61.0</ele><time>2026-04-04T15:26:28.739Z</time></trkpt><trkpt lat="42.977275" lon="13.79086"><ele>61.0</ele><time>2026-04-04T15:26:30.74Z</time></trkpt><trkpt lat="42.97716" lon="13.7909117"><ele>60.99999999999999</ele><time>2026-04-04T15:26:32.74Z</time></trkpt><trkpt lat="42.977075" lon="13.7909317"><ele>60.99999999999999</ele><time>2026-04-04T15:26:33.74Z</time></trkpt><trkpt lat="42.9769733" lon="13.7909767"><ele>61.0</ele><time>2026-04-04T15:26:34.739Z</time></trkpt><trkpt lat="42.97685" lon="13.7910267"><ele>61.0</ele><time>2026-04-04T15:26:35.739Z</time></trkpt><trkpt lat="42.97672" lon="13.7910667"><ele>61.199999999999996</ele><time>2026-04-04T15:26:36.74Z</time></trkpt><trkpt lat="42.9766017" lon="13.7910967"><ele>61.39999999999999</ele><time>2026-04-04T15:26:37.739Z</time></trkpt><trkpt lat="42.9764983" lon="13.7911317"><ele>61.6</ele><time>2026-04-04T15:26:38.739Z</time></trkpt><trkpt lat="42.9764017" lon="13.79116"><ele>61.8</ele><time>2026-04-04T15:26:39.74Z</time></trkpt><trkpt lat="42.9763183" lon="13.79118"><ele>62.0</ele><time>2026-04-04T15:26:40.739Z</time></trkpt><trkpt lat="42.9762517" lon="13.791195"><ele>62.0</ele><time>2026-04-04T15:26:41.74Z</time></trkpt><trkpt lat="42.9761433" lon="13.791185"><ele>62.0</ele><time>2026-04-04T15:26:43.739Z</time></trkpt><trkpt lat="42.9760567" lon="13.7911633"><ele>62.0</ele><time>2026-04-04T15:26:45.739Z</time></trkpt><trkpt lat="42.9759583" lon="13.7911383"><ele>62.0</ele><time>2026-04-04T15:26:47.74Z</time></trkpt><trkpt lat="42.9758433" lon="13.7911033"><ele>62.0</ele><time>2026-04-04T15:26:49.739Z</time></trkpt><trkpt lat="42.9757617" lon="13.7911183"><ele>65.25</ele><time>2026-04-04T15:26:51.739Z</time></trkpt><trkpt lat="42.9755483" lon="13.79131"><ele>68.5</ele><time>2026-04-04T15:26:54.739Z</time></trkpt><trkpt lat="42.9754533" lon="13.791375"><ele>71.75</ele><time>2026-04-04T15:26:55.739Z</time></trkpt><trkpt lat="42.975385" lon="13.7914233"><ele>75.0</ele><time>2026-04-04T15:26:56.74Z</time></trkpt><trkpt lat="42.9753367" lon="13.7914967"><ele>75.0</ele><time>2026-04-04T15:26:58.74Z</time></trkpt><trkpt lat="42.9753517" lon="13.7915833"><ele>75.0</ele><time>2026-04-04T15:27:00.739Z</time></trkpt><trkpt lat="42.9754" lon="13.79169"><ele>75.0</ele><time>2026-04-04T15:27:02.739Z</time></trkpt><trkpt lat="42.9754533" lon="13.7918283"><ele>75.0</ele><time>2026-04-04T15:27:04.74Z</time></trkpt><trkpt lat="42.9755067" lon="13.7919517"><ele>75.0</ele><time>2026-04-04T15:27:06.739Z</time></trkpt><trkpt lat="42.9755517" lon="13.792035"><ele>75.0</ele><time>2026-04-04T15:27:08.74Z</time></trkpt><trkpt lat="42.9755133" lon="13.7919667"><ele>75.0</ele><time>2026-04-04T15:27:47.74Z</time></trkpt><trkpt lat="42.9754667" lon="13.7919033"><ele>75.0</ele><time>2026-04-04T15:27:53.739Z</time></trkpt><trkpt lat="42.975435" lon="13.7918017"><ele>75.0</ele><time>2026-04-04T15:27:57.739Z</time></trkpt><trkpt lat="42.975395" lon="13.79171"><ele>75.0</ele><time>2026-04-04T15:28:01.74Z</time></trkpt><trkpt lat="42.9753617" lon="13.791615"><ele>75.0</ele><time>2026-04-04T15:28:04.739Z</time></trkpt><trkpt lat="42.9753483" lon="13.7914933"><ele>75.0</ele><time>2026-04-04T15:28:07.739Z</time></trkpt><trkpt lat="42.9753883" lon="13.791405"><ele>75.0</ele><time>2026-04-04T15:28:10.739Z</time></trkpt><trkpt lat="42.9754867" lon="13.79135"><ele>75.0</ele><time>2026-04-04T15:28:12.739Z</time></trkpt><trkpt lat="42.9755433" lon="13.791305"><ele>75.0</ele><time>2026-04-04T15:28:13.739Z</time></trkpt><trkpt lat="42.9755983" lon="13.7912617"><ele>75.0</ele><time>2026-04-04T15:28:14.739Z</time></trkpt><trkpt lat="42.9756967" lon="13.7911783"><ele>75.0</ele><time>2026-04-04T15:28:16.739Z</time></trkpt><trkpt lat="42.9757783" lon="13.79112"><ele>75.0</ele><time>2026-04-04T15:28:18.739Z</time></trkpt><trkpt lat="42.9758517" lon="13.7910833"><ele>75.0</ele><time>2026-04-04T15:28:21.739Z</time></trkpt><trkpt lat="42.97591" lon="13.7911167"><ele>75.0</ele><time>2026-04-04T15:28:24.739Z</time></trkpt><trkpt lat="42.9759983" lon="13.7911517"><ele>75.0</ele><time>2026-04-04T15:28:27.739Z</time></trkpt><trkpt lat="42.9760933" lon="13.7912267"><ele>75.0</ele><time>2026-04-04T15:28:29.739Z</time></trkpt><trkpt lat="42.9761433" lon="13.7912883"><ele>75.0</ele><time>2026-04-04T15:28:30.739Z</time></trkpt><trkpt lat="42.9762267" lon="13.7914217"><ele>72.8</ele><time>2026-04-04T15:28:32.739Z</time></trkpt><trkpt lat="42.9762683" lon="13.7914967"><ele>70.6</ele><time>2026-04-04T15:28:33.739Z</time></trkpt><trkpt lat="42.97631" lon="13.7915883"><ele>68.4</ele><time>2026-04-04T15:28:34.739Z</time></trkpt><trkpt lat="42.976355" lon="13.7917017"><ele>66.2</ele><time>2026-04-04T15:28:35.74Z</time></trkpt><trkpt lat="42.9764" lon="13.7918217"><ele>64.0</ele><time>2026-04-04T15:28:36.739Z</time></trkpt><trkpt lat="42.97646" lon="13.7919467"><ele>64.0</ele><time>2026-04-04T15:28:37.74Z</time></trkpt><trkpt lat="42.9765183" lon="13.79208"><ele>64.0</ele><time>2026-04-04T15:28:38.74Z</time></trkpt><trkpt lat="42.9765733" lon="13.79221"><ele>64.0</ele><time>2026-04-04T15:28:39.74Z</time></trkpt><trkpt lat="42.976635" lon="13.7923333"><ele>64.0</ele><time>2026-04-04T15:28:40.739Z</time></trkpt><trkpt lat="42.9766983" lon="13.7924583"><ele>64.0</ele><time>2026-04-04T15:28:41.74Z</time></trkpt><trkpt lat="42.9767567" lon="13.7925867"><ele>62.75</ele><time>2026-04-04T15:28:42.74Z</time></trkpt><trkpt lat="42.9768183" lon="13.79273"><ele>61.5</ele><time>2026-04-04T15:28:43.74Z</time></trkpt><trkpt lat="42.9768783" lon="13.79288"><ele>60.25</ele><time>2026-04-04T15:28:44.74Z</time></trkpt><trkpt lat="42.9769383" lon="13.7930333"><ele>59.0</ele><time>2026-04-04T15:28:45.74Z</time></trkpt><trkpt lat="42.9769967" lon="13.7931933"><ele>59.0</ele><time>2026-04-04T15:28:46.74Z</time></trkpt><trkpt lat="42.97706" lon="13.7933617"><ele>59.0</ele><time>2026-04-04T15:28:47.739Z</time></trkpt><trkpt lat="42.9771267" lon="13.7935267"><ele>59.0</ele><time>2026-04-04T15:28:48.739Z</time></trkpt><trkpt lat="42.977195" lon="13.7936767"><ele>59.0</ele><time>2026-04-04T15:28:49.739Z</time></trkpt><trkpt lat="42.97726" lon="13.793795"><ele>58.833333333333336</ele><time>2026-04-04T15:28:50.739Z</time></trkpt><trkpt lat="42.9773167" lon="13.79388"><ele>58.66666666666667</ele><time>2026-04-04T15:28:51.739Z</time></trkpt><trkpt lat="42.977375" lon="13.7939517"><ele>58.5</ele><time>2026-04-04T15:28:52.739Z</time></trkpt><trkpt lat="42.9774283" lon="13.794025"><ele>58.33333333333333</ele><time>2026-04-04T15:28:53.739Z</time></trkpt><trkpt lat="42.97748" lon="13.7940983"><ele>58.166666666666664</ele><time>2026-04-04T15:28:54.739Z</time></trkpt><trkpt lat="42.9775267" lon="13.7941733"><ele>58.0</ele><time>2026-04-04T15:28:55.739Z</time></trkpt><trkpt lat="42.9775733" lon="13.79426"><ele>57.75</ele><time>2026-04-04T15:28:56.739Z</time></trkpt><trkpt lat="42.9776383" lon="13.7943767"><ele>57.5</ele><time>2026-04-04T15:28:57.739Z</time></trkpt><trkpt lat="42.977715" lon="13.7945083"><ele>57.25</ele><time>2026-04-04T15:28:58.739Z</time></trkpt><trkpt lat="42.9778033" lon="13.7946683"><ele>57.0</ele><time>2026-04-04T15:28:59.74Z</time></trkpt><trkpt lat="42.9778833" lon="13.7948467"><ele>57.0</ele><time>2026-04-04T15:29:00.739Z</time></trkpt><trkpt lat="42.9779483" lon="13.7950383"><ele>57.0</ele><time>2026-04-04T15:29:01.739Z</time></trkpt><trkpt lat="42.9780083" lon="13.7952317"><ele>57.0</ele><time>2026-04-04T15:29:02.739Z</time></trkpt><trkpt lat="42.9780583" lon="13.7954467"><ele>57.33333333333333</ele><time>2026-04-04T15:29:03.739Z</time></trkpt><trkpt lat="42.9780967" lon="13.7956617"><ele>57.666666666666664</ele><time>2026-04-04T15:29:04.739Z</time></trkpt><trkpt lat="42.9781333" lon="13.7958733"><ele>58.0</ele><time>2026-04-04T15:29:05.739Z</time></trkpt><trkpt lat="42.9781633" lon="13.7960767"><ele>58.0</ele><time>2026-04-04T15:29:06.739Z</time></trkpt><trkpt lat="42.9781867" lon="13.7962667"><ele>58.0</ele><time>2026-04-04T15:29:07.739Z</time></trkpt><trkpt lat="42.9782033" lon="13.7964483"><ele>58.0</ele><time>2026-04-04T15:29:08.739Z</time></trkpt><trkpt lat="42.9782383" lon="13.7966333"><ele>58.0</ele><time>2026-04-04T15:29:09.74Z</time></trkpt><trkpt lat="42.9782717" lon="13.7968283"><ele>56.0</ele><time>2026-04-04T15:29:10.739Z</time></trkpt><trkpt lat="42.978395" lon="13.7972833"><ele>54.0</ele><time>2026-04-04T15:29:12.739Z</time></trkpt><trkpt lat="42.978455" lon="13.797515"><ele>54.0</ele><time>2026-04-04T15:29:13.739Z</time></trkpt><trkpt lat="42.9785133" lon="13.7977333"><ele>54.0</ele><time>2026-04-04T15:29:14.739Z</time></trkpt><trkpt lat="42.9785767" lon="13.7979367"><ele>54.0</ele><time>2026-04-04T15:29:15.74Z</time></trkpt><trkpt lat="42.978635" lon="13.7981167"><ele>54.0</ele><time>2026-04-04T15:29:16.739Z</time></trkpt><trkpt lat="42.9786767" lon="13.798295"><ele>54.0</ele><time>2026-04-04T15:29:17.739Z</time></trkpt><trkpt lat="42.9787167" lon="13.7985017"><ele>54.0</ele><time>2026-04-04T15:29:18.739Z</time></trkpt><trkpt lat="42.97875" lon="13.7987133"><ele>54.0</ele><time>2026-04-04T15:29:19.74Z</time></trkpt><trkpt lat="42.97878" lon="13.7989317"><ele>54.0</ele><time>2026-04-04T15:29:20.74Z</time></trkpt><trkpt lat="42.978815" lon="13.7991467"><ele>54.0</ele><time>2026-04-04T15:29:21.739Z</time></trkpt><trkpt lat="42.9788483" lon="13.79937"><ele>54.33333333333333</ele><time>2026-04-04T15:29:22.74Z</time></trkpt><trkpt lat="42.9788817" lon="13.799595"><ele>54.666666666666664</ele><time>2026-04-04T15:29:23.739Z</time></trkpt><trkpt lat="42.9789233" lon="13.79981"><ele>55.0</ele><time>2026-04-04T15:29:24.739Z</time></trkpt><trkpt lat="42.9789683" lon="13.8000083"><ele>55.25</ele><time>2026-04-04T15:29:25.739Z</time></trkpt><trkpt lat="42.9790067" lon="13.8002117"><ele>55.5</ele><time>2026-04-04T15:29:26.739Z</time></trkpt><trkpt lat="42.9790283" lon="13.8004017"><ele>55.75</ele><time>2026-04-04T15:29:27.74Z</time></trkpt><trkpt lat="42.9790533" lon="13.8005983"><ele>56.0</ele><time>2026-04-04T15:29:28.74Z</time></trkpt><trkpt lat="42.97908" lon="13.800795"><ele>56.5</ele><time>2026-04-04T15:29:29.739Z</time></trkpt><trkpt lat="42.9791083" lon="13.8010017"><ele>57.0</ele><time>2026-04-04T15:29:30.739Z</time></trkpt><trkpt lat="42.979135" lon="13.8012033"><ele>57.5</ele><time>2026-04-04T15:29:31.739Z</time></trkpt><trkpt lat="42.9791667" lon="13.8013933"><ele>58.0</ele><time>2026-04-04T15:29:32.739Z</time></trkpt><trkpt lat="42.9791983" lon="13.8015717"><ele>56.75</ele><time>2026-04-04T15:29:33.739Z</time></trkpt><trkpt lat="42.9792367" lon="13.8017533"><ele>55.5</ele><time>2026-04-04T15:29:34.739Z</time></trkpt><trkpt lat="42.9792633" lon="13.8019317"><ele>54.25</ele><time>2026-04-04T15:29:35.739Z</time></trkpt><trkpt lat="42.9792883" lon="13.8021017"><ele>53.0</ele><time>2026-04-04T15:29:36.739Z</time></trkpt><trkpt lat="42.9793267" lon="13.8022817"><ele>53.0</ele><time>2026-04-04T15:29:37.74Z</time></trkpt><trkpt lat="42.9793733" lon="13.8024683"><ele>53.0</ele><time>2026-04-04T15:29:38.739Z</time></trkpt><trkpt lat="42.9794117" lon="13.8026467"><ele>53.0</ele><time>2026-04-04T15:29:39.739Z</time></trkpt><trkpt lat="42.9794333" lon="13.8028133"><ele>53.0</ele><time>2026-04-04T15:29:40.74Z</time></trkpt><trkpt lat="42.979465" lon="13.8029783"><ele>52.75</ele><time>2026-04-04T15:29:41.739Z</time></trkpt><trkpt lat="42.9794967" lon="13.8031467"><ele>52.5</ele><time>2026-04-04T15:29:42.739Z</time></trkpt><trkpt lat="42.9795283" lon="13.803315"><ele>52.25</ele><time>2026-04-04T15:29:43.739Z</time></trkpt><trkpt lat="42.9795583" lon="13.8034933"><ele>52.0</ele><time>2026-04-04T15:29:44.739Z</time></trkpt><trkpt lat="42.979585" lon="13.8036783"><ele>51.75</ele><time>2026-04-04T15:29:45.739Z</time></trkpt><trkpt lat="42.979615" lon="13.8038683"><ele>51.5</ele><time>2026-04-04T15:29:46.739Z</time></trkpt><trkpt lat="42.97965" lon="13.804065"><ele>51.25</ele><time>2026-04-04T15:29:47.74Z</time></trkpt><trkpt lat="42.97968" lon="13.804255"><ele>51.0</ele><time>2026-04-04T15:29:48.74Z</time></trkpt><trkpt lat="42.979715" lon="13.8044417"><ele>50.75</ele><time>2026-04-04T15:29:49.739Z</time></trkpt><trkpt lat="42.9797483" lon="13.80464"><ele>50.5</ele><time>2026-04-04T15:29:50.739Z</time></trkpt><trkpt lat="42.9797833" lon="13.8048367"><ele>50.25</ele><time>2026-04-04T15:29:51.739Z</time></trkpt><trkpt lat="42.9798067" lon="13.80502"><ele>50.0</ele><time>2026-04-04T15:29:52.739Z</time></trkpt><trkpt lat="42.979835" lon="13.805195"><ele>50.0</ele><time>2026-04-04T15:29:53.739Z</time></trkpt><trkpt lat="42.979865" lon="13.805355"><ele>50.0</ele><time>2026-04-04T15:29:54.739Z</time></trkpt><trkpt lat="42.9798817" lon="13.8055317"><ele>50.0</ele><time>2026-04-04T15:29:55.739Z</time></trkpt><trkpt lat="42.9798967" lon="13.8056967"><ele>50.0</ele><time>2026-04-04T15:29:56.739Z</time></trkpt><trkpt lat="42.979905" lon="13.8058733"><ele>50.0</ele><time>2026-04-04T15:29:57.74Z</time></trkpt><trkpt lat="42.9799167" lon="13.8060483"><ele>50.0</ele><time>2026-04-04T15:29:58.74Z</time></trkpt><trkpt lat="42.9799217" lon="13.80624"><ele>50.0</ele><time>2026-04-04T15:29:59.739Z</time></trkpt><trkpt lat="42.9799317" lon="13.806445"><ele>50.0</ele><time>2026-04-04T15:30:00.739Z</time></trkpt><trkpt lat="42.9799517" lon="13.806645"><ele>49.5</ele><time>2026-04-04T15:30:01.739Z</time></trkpt><trkpt lat="42.97997" lon="13.8068367"><ele>49.0</ele><time>2026-04-04T15:30:02.74Z</time></trkpt><trkpt lat="42.979985" lon="13.8070433"><ele>48.5</ele><time>2026-04-04T15:30:03.739Z</time></trkpt><trkpt lat="42.9799967" lon="13.807225"><ele>48.0</ele><time>2026-04-04T15:30:04.739Z</time></trkpt><trkpt lat="42.9800067" lon="13.807415"><ele>48.0</ele><time>2026-04-04T15:30:05.74Z</time></trkpt><trkpt lat="42.9800133" lon="13.8076017"><ele>48.0</ele><time>2026-04-04T15:30:06.74Z</time></trkpt><trkpt lat="42.9800117" lon="13.807805"><ele>48.0</ele><time>2026-04-04T15:30:07.739Z</time></trkpt><trkpt lat="42.9799967" lon="13.8080117"><ele>48.0</ele><time>2026-04-04T15:30:08.74Z</time></trkpt><trkpt lat="42.9799717" lon="13.8082117"><ele>48.0</ele><time>2026-04-04T15:30:09.739Z</time></trkpt><trkpt lat="42.9799583" lon="13.8084183"><ele>48.0</ele><time>2026-04-04T15:30:10.739Z</time></trkpt><trkpt lat="42.9799433" lon="13.8086283"><ele>48.0</ele><time>2026-04-04T15:30:11.739Z</time></trkpt><trkpt lat="42.9799217" lon="13.8088417"><ele>47.666666666666664</ele><time>2026-04-04T15:30:12.74Z</time></trkpt><trkpt lat="42.9799017" lon="13.8090567"><ele>47.33333333333333</ele><time>2026-04-04T15:30:13.74Z</time></trkpt><trkpt lat="42.9798883" lon="13.8092733"><ele>47.0</ele><time>2026-04-04T15:30:14.739Z</time></trkpt><trkpt lat="42.9798717" lon="13.80948"><ele>47.0</ele><time>2026-04-04T15:30:15.739Z</time></trkpt><trkpt lat="42.9798517" lon="13.8097033"><ele>47.0</ele><time>2026-04-04T15:30:16.739Z</time></trkpt><trkpt lat="42.9798367" lon="13.8099133"><ele>47.0</ele><time>2026-04-04T15:30:17.739Z</time></trkpt><trkpt lat="42.9798017" lon="13.8101117"><ele>46.5</ele><time>2026-04-04T15:30:18.739Z</time></trkpt><trkpt lat="42.9797817" lon="13.8102917"><ele>46.0</ele><time>2026-04-04T15:30:19.739Z</time></trkpt><trkpt lat="42.9797617" lon="13.810485"><ele>45.5</ele><time>2026-04-04T15:30:20.739Z</time></trkpt><trkpt lat="42.9797383" lon="13.8106733"><ele>45.0</ele><time>2026-04-04T15:30:21.74Z</time></trkpt><trkpt lat="42.9797233" lon="13.8108617"><ele>45.0</ele><time>2026-04-04T15:30:22.739Z</time></trkpt><trkpt lat="42.9797083" lon="13.8110467"><ele>45.0</ele><time>2026-04-04T15:30:23.739Z</time></trkpt><trkpt lat="42.979685" lon="13.811245"><ele>45.0</ele><time>2026-04-04T15:30:24.74Z</time></trkpt><trkpt lat="42.9796717" lon="13.8114483"><ele>45.0</ele><time>2026-04-04T15:30:25.739Z</time></trkpt><trkpt lat="42.9796433" lon="13.81166"><ele>44.666666666666664</ele><time>2026-04-04T15:30:26.74Z</time></trkpt><trkpt lat="42.9796133" lon="13.811865"><ele>44.33333333333333</ele><time>2026-04-04T15:30:27.739Z</time></trkpt><trkpt lat="42.9795817" lon="13.8120733"><ele>44.0</ele><time>2026-04-04T15:30:28.74Z</time></trkpt><trkpt lat="42.9795533" lon="13.8122833"><ele>44.0</ele><time>2026-04-04T15:30:29.74Z</time></trkpt><trkpt lat="42.979535" lon="13.8124883"><ele>44.0</ele><time>2026-04-04T15:30:30.739Z</time></trkpt><trkpt lat="42.979515" lon="13.8126917"><ele>44.0</ele><time>2026-04-04T15:30:31.739Z</time></trkpt><trkpt lat="42.9794967" lon="13.8129033"><ele>44.0</ele><time>2026-04-04T15:30:32.739Z</time></trkpt><trkpt lat="42.979495" lon="13.81311"><ele>44.0</ele><time>2026-04-04T15:30:33.74Z</time></trkpt><trkpt lat="42.97949" lon="13.81332"><ele>44.0</ele><time>2026-04-04T15:30:34.74Z</time></trkpt><trkpt lat="42.97948" lon="13.8135233"><ele>44.33333333333333</ele><time>2026-04-04T15:30:35.74Z</time></trkpt><trkpt lat="42.9794683" lon="13.813735"><ele>44.666666666666664</ele><time>2026-04-04T15:30:36.739Z</time></trkpt><trkpt lat="42.9794583" lon="13.813945"><ele>45.0</ele><time>2026-04-04T15:30:37.739Z</time></trkpt><trkpt lat="42.9794483" lon="13.8141383"><ele>44.333333333333336</ele><time>2026-04-04T15:30:38.739Z</time></trkpt><trkpt lat="42.97943" lon="13.8143417"><ele>43.66666666666667</ele><time>2026-04-04T15:30:39.739Z</time></trkpt><trkpt lat="42.979415" lon="13.814545"><ele>43.0</ele><time>2026-04-04T15:30:40.74Z</time></trkpt><trkpt lat="42.97939" lon="13.8147483"><ele>43.0</ele><time>2026-04-04T15:30:41.739Z</time></trkpt><trkpt lat="42.97936" lon="13.8149783"><ele>43.0</ele><time>2026-04-04T15:30:42.739Z</time></trkpt><trkpt lat="42.9793467" lon="13.8151983"><ele>43.0</ele><time>2026-04-04T15:30:43.739Z</time></trkpt><trkpt lat="42.9793367" lon="13.815415"><ele>42.75</ele><time>2026-04-04T15:30:44.739Z</time></trkpt><trkpt lat="42.9793333" lon="13.815625"><ele>42.5</ele><time>2026-04-04T15:30:45.739Z</time></trkpt><trkpt lat="42.9793317" lon="13.8158217"><ele>42.25</ele><time>2026-04-04T15:30:46.74Z</time></trkpt><trkpt lat="42.9793567" lon="13.8160133"><ele>42.0</ele><time>2026-04-04T15:30:47.739Z</time></trkpt><trkpt lat="42.9794067" lon="13.81621"><ele>41.666666666666664</ele><time>2026-04-04T15:30:48.74Z</time></trkpt><trkpt lat="42.9794467" lon="13.81642"><ele>41.33333333333333</ele><time>2026-04-04T15:30:49.74Z</time></trkpt><trkpt lat="42.9794967" lon="13.8166433"><ele>41.0</ele><time>2026-04-04T15:30:50.739Z</time></trkpt><trkpt lat="42.97954" lon="13.8168733"><ele>41.0</ele><time>2026-04-04T15:30:51.74Z</time></trkpt><trkpt lat="42.97958" lon="13.8170883"><ele>41.0</ele><time>2026-04-04T15:30:52.739Z</time></trkpt><trkpt lat="42.9796067" lon="13.817305"><ele>41.0</ele><time>2026-04-04T15:30:53.739Z</time></trkpt><trkpt lat="42.9796317" lon="13.8174983"><ele>40.5</ele><time>2026-04-04T15:30:54.74Z</time></trkpt><trkpt lat="42.9796467" lon="13.8176833"><ele>40.0</ele><time>2026-04-04T15:30:55.739Z</time></trkpt><trkpt lat="42.97967" lon="13.8178683"><ele>39.5</ele><time>2026-04-04T15:30:56.739Z</time></trkpt><trkpt lat="42.979695" lon="13.818055"><ele>39.0</ele><time>2026-04-04T15:30:57.74Z</time></trkpt><trkpt lat="42.9797233" lon="13.8182617"><ele>39.0</ele><time>2026-04-04T15:30:58.74Z</time></trkpt><trkpt lat="42.9797567" lon="13.81847"><ele>39.0</ele><time>2026-04-04T15:30:59.74Z</time></trkpt><trkpt lat="42.9798" lon="13.81869"><ele>39.0</ele><time>2026-04-04T15:31:00.739Z</time></trkpt><trkpt lat="42.9798433" lon="13.8189117"><ele>39.0</ele><time>2026-04-04T15:31:01.739Z</time></trkpt><trkpt lat="42.97988" lon="13.8191283"><ele>39.0</ele><time>2026-04-04T15:31:02.739Z</time></trkpt><trkpt lat="42.979915" lon="13.8193383"><ele>39.0</ele><time>2026-04-04T15:31:03.74Z</time></trkpt><trkpt lat="42.9799483" lon="13.8195617"><ele>39.0</ele><time>2026-04-04T15:31:04.739Z</time></trkpt><trkpt lat="42.9799817" lon="13.8197733"><ele>39.0</ele><time>2026-04-04T15:31:05.739Z</time></trkpt><trkpt lat="42.9800117" lon="13.8199933"><ele>39.0</ele><time>2026-04-04T15:31:06.739Z</time></trkpt><trkpt lat="42.9800367" lon="13.8202067"><ele>38.333333333333336</ele><time>2026-04-04T15:31:07.738Z</time></trkpt><trkpt lat="42.98007" lon="13.82042"><ele>37.66666666666667</ele><time>2026-04-04T15:31:08.738Z</time></trkpt><trkpt lat="42.980105" lon="13.8206317"><ele>37.0</ele><time>2026-04-04T15:31:09.739Z</time></trkpt><trkpt lat="42.9801417" lon="13.8208517"><ele>37.0</ele><time>2026-04-04T15:31:10.739Z</time></trkpt><trkpt lat="42.980175" lon="13.8210617"><ele>37.0</ele><time>2026-04-04T15:31:11.738Z</time></trkpt><trkpt lat="42.9802117" lon="13.82127"><ele>37.0</ele><time>2026-04-04T15:31:12.738Z</time></trkpt><trkpt lat="42.980245" lon="13.82148"><ele>37.0</ele><time>2026-04-04T15:31:13.738Z</time></trkpt><trkpt lat="42.980275" lon="13.8216833"><ele>37.0</ele><time>2026-04-04T15:31:14.739Z</time></trkpt><trkpt lat="42.9803" lon="13.821885"><ele>37.0</ele><time>2026-04-04T15:31:15.738Z</time></trkpt><trkpt lat="42.9803283" lon="13.8220933"><ele>37.0</ele><time>2026-04-04T15:31:16.738Z</time></trkpt><trkpt lat="42.9803583" lon="13.822305"><ele>37.0</ele><time>2026-04-04T15:31:17.738Z</time></trkpt><trkpt lat="42.9803883" lon="13.82251"><ele>37.0</ele><time>2026-04-04T15:31:18.739Z</time></trkpt><trkpt lat="42.9804217" lon="13.8227167"><ele>37.0</ele><time>2026-04-04T15:31:19.739Z</time></trkpt><trkpt lat="42.980455" lon="13.8229133"><ele>37.0</ele><time>2026-04-04T15:31:20.738Z</time></trkpt><trkpt lat="42.98048" lon="13.8231183"><ele>37.0</ele><time>2026-04-04T15:31:21.738Z</time></trkpt><trkpt lat="42.98049" lon="13.8233117"><ele>37.0</ele><time>2026-04-04T15:31:22.738Z</time></trkpt><trkpt lat="42.9804933" lon="13.8235"><ele>36.66666666666667</ele><time>2026-04-04T15:31:23.738Z</time></trkpt><trkpt lat="42.9804917" lon="13.8237"><ele>36.333333333333336</ele><time>2026-04-04T15:31:24.739Z</time></trkpt><trkpt lat="42.9804833" lon="13.823915"><ele>36.0</ele><time>2026-04-04T15:31:25.739Z</time></trkpt><trkpt lat="42.980465" lon="13.824125"><ele>36.0</ele><time>2026-04-04T15:31:26.738Z</time></trkpt><trkpt lat="42.98044" lon="13.8243333"><ele>36.0</ele><time>2026-04-04T15:31:27.738Z</time></trkpt><trkpt lat="42.9804217" lon="13.82454"><ele>36.0</ele><time>2026-04-04T15:31:28.738Z</time></trkpt><trkpt lat="42.9803917" lon="13.824745"><ele>36.0</ele><time>2026-04-04T15:31:29.739Z</time></trkpt><trkpt lat="42.9803633" lon="13.8249533"><ele>36.0</ele><time>2026-04-04T15:31:30.738Z</time></trkpt><trkpt lat="42.9803233" lon="13.8251583"><ele>36.0</ele><time>2026-04-04T15:31:31.738Z</time></trkpt><trkpt lat="42.9802733" lon="13.8253667"><ele>35.75</ele><time>2026-04-04T15:31:32.739Z</time></trkpt><trkpt lat="42.9802367" lon="13.82556"><ele>35.5</ele><time>2026-04-04T15:31:33.738Z</time></trkpt><trkpt lat="42.9801917" lon="13.8257433"><ele>35.25</ele><time>2026-04-04T15:31:34.739Z</time></trkpt><trkpt lat="42.980155" lon="13.825925"><ele>35.0</ele><time>2026-04-04T15:31:35.739Z</time></trkpt><trkpt lat="42.9801217" lon="13.826095"><ele>34.75</ele><time>2026-04-04T15:31:36.738Z</time></trkpt><trkpt lat="42.9800833" lon="13.8262583"><ele>34.5</ele><time>2026-04-04T15:31:37.738Z</time></trkpt><trkpt lat="42.98005" lon="13.8264083"><ele>34.25</ele><time>2026-04-04T15:31:38.738Z</time></trkpt><trkpt lat="42.9800133" lon="13.82656"><ele>34.0</ele><time>2026-04-04T15:31:39.738Z</time></trkpt><trkpt lat="42.9799783" lon="13.8267067"><ele>33.5</ele><time>2026-04-04T15:31:40.738Z</time></trkpt><trkpt lat="42.97994" lon="13.8268483"><ele>33.0</ele><time>2026-04-04T15:31:41.738Z</time></trkpt><trkpt lat="42.9798967" lon="13.8269983"><ele>32.5</ele><time>2026-04-04T15:31:42.739Z</time></trkpt><trkpt lat="42.9798433" lon="13.8271467"><ele>32.0</ele><time>2026-04-04T15:31:43.738Z</time></trkpt><trkpt lat="42.9798017" lon="13.8272883"><ele>32.0</ele><time>2026-04-04T15:31:44.739Z</time></trkpt><trkpt lat="42.9797567" lon="13.8274417"><ele>32.0</ele><time>2026-04-04T15:31:45.739Z</time></trkpt><trkpt lat="42.9797067" lon="13.82762"><ele>32.0</ele><time>2026-04-04T15:31:46.738Z</time></trkpt><trkpt lat="42.9796467" lon="13.8278167"><ele>32.0</ele><time>2026-04-04T15:31:47.738Z</time></trkpt><trkpt lat="42.9795833" lon="13.8280283"><ele>32.0</ele><time>2026-04-04T15:31:48.738Z</time></trkpt><trkpt lat="42.9795383" lon="13.8282383"><ele>32.0</ele><time>2026-04-04T15:31:49.738Z</time></trkpt><trkpt lat="42.9794833" lon="13.8284517"><ele>32.0</ele><time>2026-04-04T15:31:50.738Z</time></trkpt><trkpt lat="42.979435" lon="13.8286783"><ele>32.33333333333333</ele><time>2026-04-04T15:31:51.739Z</time></trkpt><trkpt lat="42.9794017" lon="13.8289117"><ele>32.666666666666664</ele><time>2026-04-04T15:31:52.738Z</time></trkpt><trkpt lat="42.9793467" lon="13.8291383"><ele>33.0</ele><time>2026-04-04T15:31:53.738Z</time></trkpt><trkpt lat="42.9793033" lon="13.829365"><ele>33.0</ele><time>2026-04-04T15:31:54.738Z</time></trkpt><trkpt lat="42.9792567" lon="13.8295883"><ele>33.0</ele><time>2026-04-04T15:31:55.739Z</time></trkpt><trkpt lat="42.9792283" lon="13.8298083"><ele>33.0</ele><time>2026-04-04T15:31:56.738Z</time></trkpt><trkpt lat="42.9791883" lon="13.8300283"><ele>31.666666666666664</ele><time>2026-04-04T15:31:57.738Z</time></trkpt><trkpt lat="42.9791467" lon="13.8302533"><ele>30.333333333333332</ele><time>2026-04-04T15:31:58.738Z</time></trkpt><trkpt lat="42.979105" lon="13.8304783"><ele>29.0</ele><time>2026-04-04T15:31:59.738Z</time></trkpt><trkpt lat="42.97907" lon="13.8307067"><ele>29.0</ele><time>2026-04-04T15:32:00.739Z</time></trkpt><trkpt lat="42.9790217" lon="13.8309433"><ele>29.0</ele><time>2026-04-04T15:32:01.739Z</time></trkpt><trkpt lat="42.9789833" lon="13.83117"><ele>29.0</ele><time>2026-04-04T15:32:02.739Z</time></trkpt><trkpt lat="42.9789433" lon="13.8314033"><ele>29.0</ele><time>2026-04-04T15:32:03.739Z</time></trkpt><trkpt lat="42.9789017" lon="13.8316383"><ele>29.0</ele><time>2026-04-04T15:32:04.738Z</time></trkpt><trkpt lat="42.9788533" lon="13.8318667"><ele>29.0</ele><time>2026-04-04T15:32:05.738Z</time></trkpt><trkpt lat="42.9788083" lon="13.8320917"><ele>29.333333333333332</ele><time>2026-04-04T15:32:06.739Z</time></trkpt><trkpt lat="42.9787633" lon="13.83232"><ele>29.666666666666664</ele><time>2026-04-04T15:32:07.739Z</time></trkpt><trkpt lat="42.9787083" lon="13.8325433"><ele>30.0</ele><time>2026-04-04T15:32:08.739Z</time></trkpt><trkpt lat="42.9786633" lon="13.8327583"><ele>29.333333333333336</ele><time>2026-04-04T15:32:09.738Z</time></trkpt><trkpt lat="42.9786217" lon="13.8329733"><ele>28.666666666666668</ele><time>2026-04-04T15:32:10.739Z</time></trkpt><trkpt lat="42.978575" lon="13.8331983"><ele>28.0</ele><time>2026-04-04T15:32:11.738Z</time></trkpt><trkpt lat="42.97854" lon="13.8334083"><ele>27.666666666666668</ele><time>2026-04-04T15:32:12.738Z</time></trkpt><trkpt lat="42.9784883" lon="13.8336167"><ele>27.333333333333336</ele><time>2026-04-04T15:32:13.738Z</time></trkpt><trkpt lat="42.97844" lon="13.8338283"><ele>27.0</ele><time>2026-04-04T15:32:14.739Z</time></trkpt><trkpt lat="42.9783933" lon="13.83404"><ele>27.0</ele><time>2026-04-04T15:32:15.738Z</time></trkpt><trkpt lat="42.97834" lon="13.8342567"><ele>27.0</ele><time>2026-04-04T15:32:16.738Z</time></trkpt><trkpt lat="42.9782917" lon="13.83446"><ele>27.0</ele><time>2026-04-04T15:32:17.739Z</time></trkpt><trkpt lat="42.9782483" lon="13.8346667"><ele>27.0</ele><time>2026-04-04T15:32:18.738Z</time></trkpt><trkpt lat="42.9782017" lon="13.834885"><ele>27.0</ele><time>2026-04-04T15:32:19.739Z</time></trkpt><trkpt lat="42.9781167" lon="13.835295"><ele>26.666666666666664</ele><time>2026-04-04T15:32:21.738Z</time></trkpt><trkpt lat="42.97807" lon="13.835495"><ele>26.333333333333332</ele><time>2026-04-04T15:32:22.738Z</time></trkpt><trkpt lat="42.9780267" lon="13.8356867"><ele>26.0</ele><time>2026-04-04T15:32:23.739Z</time></trkpt><trkpt lat="42.977995" lon="13.8358867"><ele>25.666666666666664</ele><time>2026-04-04T15:32:24.739Z</time></trkpt><trkpt lat="42.9779467" lon="13.8361"><ele>25.333333333333336</ele><time>2026-04-04T15:32:25.738Z</time></trkpt><trkpt lat="42.9779" lon="13.836305"><ele>25.0</ele><time>2026-04-04T15:32:26.739Z</time></trkpt><trkpt lat="42.9778533" lon="13.8365183"><ele>25.0</ele><time>2026-04-04T15:32:27.739Z</time></trkpt><trkpt lat="42.9778117" lon="13.8367467"><ele>25.0</ele><time>2026-04-04T15:32:28.738Z</time></trkpt><trkpt lat="42.977765" lon="13.8369783"><ele>25.0</ele><time>2026-04-04T15:32:29.738Z</time></trkpt><trkpt lat="42.9777283" lon="13.8372083"><ele>24.666666666666668</ele><time>2026-04-04T15:32:30.738Z</time></trkpt><trkpt lat="42.9776833" lon="13.837445"><ele>24.333333333333336</ele><time>2026-04-04T15:32:31.738Z</time></trkpt><trkpt lat="42.977655" lon="13.8376733"><ele>24.0</ele><time>2026-04-04T15:32:32.739Z</time></trkpt><trkpt lat="42.977615" lon="13.8379017"><ele>24.0</ele><time>2026-04-04T15:32:33.738Z</time></trkpt><trkpt lat="42.97757" lon="13.838135"><ele>24.0</ele><time>2026-04-04T15:32:34.739Z</time></trkpt><trkpt lat="42.9775267" lon="13.8383783"><ele>24.0</ele><time>2026-04-04T15:32:35.738Z</time></trkpt><trkpt lat="42.9774883" lon="13.838615"><ele>24.0</ele><time>2026-04-04T15:32:36.739Z</time></trkpt><trkpt lat="42.9774517" lon="13.83884"><ele>24.0</ele><time>2026-04-04T15:32:37.738Z</time></trkpt><trkpt lat="42.97742" lon="13.8390683"><ele>24.0</ele><time>2026-04-04T15:32:38.739Z</time></trkpt><trkpt lat="42.9773833" lon="13.8392917"><ele>23.5</ele><time>2026-04-04T15:32:39.738Z</time></trkpt><trkpt lat="42.9773533" lon="13.8395183"><ele>23.0</ele><time>2026-04-04T15:32:40.738Z</time></trkpt><trkpt lat="42.977275" lon="13.83999"><ele>22.666666666666668</ele><time>2026-04-04T15:32:42.739Z</time></trkpt><trkpt lat="42.9772533" lon="13.8402267"><ele>22.333333333333332</ele><time>2026-04-04T15:32:43.738Z</time></trkpt><trkpt lat="42.97722" lon="13.8404683"><ele>22.0</ele><time>2026-04-04T15:32:44.738Z</time></trkpt><trkpt lat="42.9771883" lon="13.8407117"><ele>22.0</ele><time>2026-04-04T15:32:45.739Z</time></trkpt><trkpt lat="42.9771583" lon="13.8409567"><ele>22.0</ele><time>2026-04-04T15:32:46.739Z</time></trkpt><trkpt lat="42.9771267" lon="13.8412017"><ele>22.0</ele><time>2026-04-04T15:32:47.738Z</time></trkpt><trkpt lat="42.9771" lon="13.84145"><ele>22.0</ele><time>2026-04-04T15:32:48.738Z</time></trkpt><trkpt lat="42.9770767" lon="13.84167"><ele>22.0</ele><time>2026-04-04T15:32:49.739Z</time></trkpt><trkpt lat="42.9770483" lon="13.8418967"><ele>22.0</ele><time>2026-04-04T15:32:50.739Z</time></trkpt><trkpt lat="42.9770317" lon="13.8421283"><ele>22.0</ele><time>2026-04-04T15:32:51.738Z</time></trkpt><trkpt lat="42.9770067" lon="13.842355"><ele>22.0</ele><time>2026-04-04T15:32:52.739Z</time></trkpt><trkpt lat="42.9769833" lon="13.8425817"><ele>22.0</ele><time>2026-04-04T15:32:53.738Z</time></trkpt><trkpt lat="42.976965" lon="13.8428083"><ele>22.0</ele><time>2026-04-04T15:32:54.738Z</time></trkpt><trkpt lat="42.9769383" lon="13.84303"><ele>22.0</ele><time>2026-04-04T15:32:55.739Z</time></trkpt><trkpt lat="42.9769083" lon="13.8432433"><ele>22.0</ele><time>2026-04-04T15:32:56.738Z</time></trkpt><trkpt lat="42.97688" lon="13.8434667"><ele>22.0</ele><time>2026-04-04T15:32:57.738Z</time></trkpt><trkpt lat="42.9768583" lon="13.843675"><ele>22.0</ele><time>2026-04-04T15:32:58.738Z</time></trkpt><trkpt lat="42.9768333" lon="13.84389"><ele>22.0</ele><time>2026-04-04T15:32:59.738Z</time></trkpt><trkpt lat="42.9768133" lon="13.8441067"><ele>21.666666666666664</ele><time>2026-04-04T15:33:00.738Z</time></trkpt><trkpt lat="42.976785" lon="13.8443083"><ele>21.333333333333332</ele><time>2026-04-04T15:33:01.739Z</time></trkpt><trkpt lat="42.9767517" lon="13.844515"><ele>21.0</ele><time>2026-04-04T15:33:02.739Z</time></trkpt><trkpt lat="42.9767317" lon="13.844715"><ele>21.0</ele><time>2026-04-04T15:33:03.738Z</time></trkpt><trkpt lat="42.9767133" lon="13.8449267"><ele>21.0</ele><time>2026-04-04T15:33:04.739Z</time></trkpt><trkpt lat="42.976735" lon="13.84516"><ele>21.0</ele><time>2026-04-04T15:33:05.738Z</time></trkpt><trkpt lat="42.976765" lon="13.8453933"><ele>20.666666666666668</ele><time>2026-04-04T15:33:06.739Z</time></trkpt><trkpt lat="42.9767933" lon="13.8456183"><ele>20.333333333333336</ele><time>2026-04-04T15:33:07.739Z</time></trkpt><trkpt lat="42.97683" lon="13.8458383"><ele>20.0</ele><time>2026-04-04T15:33:08.738Z</time></trkpt><trkpt lat="42.9768533" lon="13.8460533"><ele>19.666666666666668</ele><time>2026-04-04T15:33:09.738Z</time></trkpt><trkpt lat="42.97688" lon="13.8462667"><ele>19.333333333333332</ele><time>2026-04-04T15:33:10.738Z</time></trkpt><trkpt lat="42.976905" lon="13.84648"><ele>19.0</ele><time>2026-04-04T15:33:11.739Z</time></trkpt><trkpt lat="42.9769333" lon="13.8466983"><ele>19.0</ele><time>2026-04-04T15:33:12.738Z</time></trkpt><trkpt lat="42.976965" lon="13.8469183"><ele>19.0</ele><time>2026-04-04T15:33:13.739Z</time></trkpt><trkpt lat="42.97699" lon="13.8471483"><ele>19.0</ele><time>2026-04-04T15:33:14.738Z</time></trkpt><trkpt lat="42.97701" lon="13.8473783"><ele>19.0</ele><time>2026-04-04T15:33:15.739Z</time></trkpt><trkpt lat="42.9770283" lon="13.8476117"><ele>19.0</ele><time>2026-04-04T15:33:16.739Z</time></trkpt><trkpt lat="42.97705" lon="13.84784"><ele>19.0</ele><time>2026-04-04T15:33:17.738Z</time></trkpt><trkpt lat="42.9770833" lon="13.8480733"><ele>19.333333333333332</ele><time>2026-04-04T15:33:18.739Z</time></trkpt><trkpt lat="42.977115" lon="13.8483"><ele>19.666666666666668</ele><time>2026-04-04T15:33:19.739Z</time></trkpt><trkpt lat="42.97714" lon="13.84852"><ele>20.0</ele><time>2026-04-04T15:33:20.738Z</time></trkpt><trkpt lat="42.9771517" lon="13.8487467"><ele>20.0</ele><time>2026-04-04T15:33:21.739Z</time></trkpt><trkpt lat="42.9771733" lon="13.8489583"><ele>20.0</ele><time>2026-04-04T15:33:22.738Z</time></trkpt><trkpt lat="42.977185" lon="13.84917"><ele>20.0</ele><time>2026-04-04T15:33:23.738Z</time></trkpt><trkpt lat="42.9772017" lon="13.8493817"><ele>20.0</ele><time>2026-04-04T15:33:24.739Z</time></trkpt><trkpt lat="42.9772283" lon="13.8495817"><ele>20.0</ele><time>2026-04-04T15:33:25.738Z</time></trkpt><trkpt lat="42.9772467" lon="13.8497783"><ele>20.0</ele><time>2026-04-04T15:33:26.738Z</time></trkpt><trkpt lat="42.9772717" lon="13.849975"><ele>20.0</ele><time>2026-04-04T15:33:27.739Z</time></trkpt><trkpt lat="42.977295" lon="13.8501683"><ele>19.5</ele><time>2026-04-04T15:33:28.738Z</time></trkpt><trkpt lat="42.9773117" lon="13.8503583"><ele>19.0</ele><time>2026-04-04T15:33:29.738Z</time></trkpt><trkpt lat="42.9773217" lon="13.8505417"><ele>18.5</ele><time>2026-04-04T15:33:30.738Z</time></trkpt><trkpt lat="42.9773233" lon="13.8507283"><ele>18.0</ele><time>2026-04-04T15:33:31.738Z</time></trkpt><trkpt lat="42.97734" lon="13.85092"><ele>18.0</ele><time>2026-04-04T15:33:32.738Z</time></trkpt><trkpt lat="42.977355" lon="13.8511133"><ele>18.0</ele><time>2026-04-04T15:33:33.738Z</time></trkpt><trkpt lat="42.977365" lon="13.8513033"><ele>18.0</ele><time>2026-04-04T15:33:34.739Z</time></trkpt><trkpt lat="42.9773783" lon="13.8515033"><ele>18.0</ele><time>2026-04-04T15:33:35.738Z</time></trkpt><trkpt lat="42.9773817" lon="13.85171"><ele>17.75</ele><time>2026-04-04T15:33:36.738Z</time></trkpt><trkpt lat="42.9773933" lon="13.8519117"><ele>17.5</ele><time>2026-04-04T15:33:37.739Z</time></trkpt><trkpt lat="42.977405" lon="13.8521133"><ele>17.25</ele><time>2026-04-04T15:33:38.739Z</time></trkpt><trkpt lat="42.9774333" lon="13.8523117"><ele>17.0</ele><time>2026-04-04T15:33:39.738Z</time></trkpt><trkpt lat="42.9774533" lon="13.8524983"><ele>17.0</ele><time>2026-04-04T15:33:40.739Z</time></trkpt><trkpt lat="42.977475" lon="13.8527"><ele>17.0</ele><time>2026-04-04T15:33:41.738Z</time></trkpt><trkpt lat="42.9774967" lon="13.8529"><ele>17.0</ele><time>2026-04-04T15:33:42.738Z</time></trkpt><trkpt lat="42.9775133" lon="13.8530967"><ele>17.0</ele><time>2026-04-04T15:33:43.738Z</time></trkpt><trkpt lat="42.9775333" lon="13.8532867"><ele>16.0</ele><time>2026-04-04T15:33:44.738Z</time></trkpt><trkpt lat="42.9775467" lon="13.8534817"><ele>15.0</ele><time>2026-04-04T15:33:45.738Z</time></trkpt><trkpt lat="42.9775633" lon="13.8536733"><ele>14.0</ele><time>2026-04-04T15:33:46.739Z</time></trkpt><trkpt lat="42.9775817" lon="13.8538667"><ele>13.0</ele><time>2026-04-04T15:33:47.738Z</time></trkpt><trkpt lat="42.9776017" lon="13.8540617"><ele>13.0</ele><time>2026-04-04T15:33:48.738Z</time></trkpt><trkpt lat="42.9776183" lon="13.8542583"><ele>13.0</ele><time>2026-04-04T15:33:49.739Z</time></trkpt><trkpt lat="42.977635" lon="13.854445"><ele>13.0</ele><time>2026-04-04T15:33:50.738Z</time></trkpt><trkpt lat="42.977645" lon="13.854625"><ele>13.0</ele><time>2026-04-04T15:33:51.738Z</time></trkpt><trkpt lat="42.9776683" lon="13.8547883"><ele>13.0</ele><time>2026-04-04T15:33:52.738Z</time></trkpt><trkpt lat="42.97769" lon="13.8549383"><ele>13.0</ele><time>2026-04-04T15:33:53.738Z</time></trkpt><trkpt lat="42.97772" lon="13.855075"><ele>13.0</ele><time>2026-04-04T15:33:54.738Z</time></trkpt><trkpt lat="42.9777567" lon="13.8551733"><ele>13.0</ele><time>2026-04-04T15:33:55.738Z</time></trkpt><trkpt lat="42.97784" lon="13.855275"><ele>13.0</ele><time>2026-04-04T15:33:57.739Z</time></trkpt><trkpt lat="42.9779083" lon="13.8553167"><ele>12.333333333333332</ele><time>2026-04-04T15:33:58.739Z</time></trkpt><trkpt lat="42.97801" lon="13.8553867"><ele>11.666666666666666</ele><time>2026-04-04T15:33:59.739Z</time></trkpt><trkpt lat="42.9781583" lon="13.8555"><ele>11.0</ele><time>2026-04-04T15:34:00.739Z</time></trkpt><trkpt lat="42.9783283" lon="13.855625"><ele>11.25</ele><time>2026-04-04T15:34:01.739Z</time></trkpt><trkpt lat="42.9784833" lon="13.8557367"><ele>11.5</ele><time>2026-04-04T15:34:02.739Z</time></trkpt><trkpt lat="42.97859" lon="13.855825"><ele>11.75</ele><time>2026-04-04T15:34:03.739Z</time></trkpt><trkpt lat="42.9786733" lon="13.8558833"><ele>12.0</ele><time>2026-04-04T15:34:04.738Z</time></trkpt><trkpt lat="42.978735" lon="13.8559317"><ele>12.2</ele><time>2026-04-04T15:34:05.738Z</time></trkpt><trkpt lat="42.978765" lon="13.8560267"><ele>12.399999999999999</ele><time>2026-04-04T15:34:07.738Z</time></trkpt><trkpt lat="42.978745" lon="13.85614"><ele>12.600000000000001</ele><time>2026-04-04T15:34:09.738Z</time></trkpt><trkpt lat="42.9786983" lon="13.85622"><ele>12.8</ele><time>2026-04-04T15:34:10.738Z</time></trkpt><trkpt lat="42.9786333" lon="13.856335"><ele>13.0</ele><time>2026-04-04T15:34:11.738Z</time></trkpt><trkpt lat="42.97854" lon="13.856505"><ele>13.0</ele><time>2026-04-04T15:34:12.739Z</time></trkpt><trkpt lat="42.9784217" lon="13.8567433"><ele>13.0</ele><time>2026-04-04T15:34:13.738Z</time></trkpt><trkpt lat="42.9782917" lon="13.8569983"><ele>13.0</ele><time>2026-04-04T15:34:14.738Z</time></trkpt><trkpt lat="42.9781717" lon="13.8572433"><ele>12.333333333333332</ele><time>2026-04-04T15:34:15.739Z</time></trkpt><trkpt lat="42.97805" lon="13.8574733"><ele>11.666666666666666</ele><time>2026-04-04T15:34:16.738Z</time></trkpt><trkpt lat="42.9779417" lon="13.8576917"><ele>11.0</ele><time>2026-04-04T15:34:17.739Z</time></trkpt><trkpt lat="42.9778483" lon="13.8579017"><ele>11.0</ele><time>2026-04-04T15:34:18.738Z</time></trkpt><trkpt lat="42.9777617" lon="13.858105"><ele>11.0</ele><time>2026-04-04T15:34:19.738Z</time></trkpt><trkpt lat="42.9776767" lon="13.85832"><ele>11.0</ele><time>2026-04-04T15:34:20.739Z</time></trkpt><trkpt lat="42.9776117" lon="13.858535"><ele>10.666666666666666</ele><time>2026-04-04T15:34:21.738Z</time></trkpt><trkpt lat="42.977555" lon="13.8587483"><ele>10.333333333333334</ele><time>2026-04-04T15:34:22.739Z</time></trkpt><trkpt lat="42.977515" lon="13.8589717"><ele>10.0</ele><time>2026-04-04T15:34:23.739Z</time></trkpt><trkpt lat="42.9774883" lon="13.859185"><ele>9.666666666666668</ele><time>2026-04-04T15:34:24.738Z</time></trkpt><trkpt lat="42.977465" lon="13.8593983"><ele>9.333333333333334</ele><time>2026-04-04T15:34:25.738Z</time></trkpt><trkpt lat="42.9774483" lon="13.859625"><ele>9.0</ele><time>2026-04-04T15:34:26.738Z</time></trkpt><trkpt lat="42.9774583" lon="13.8598567"><ele>9.0</ele><time>2026-04-04T15:34:27.738Z</time></trkpt><trkpt lat="42.9774683" lon="13.8600833"><ele>9.0</ele><time>2026-04-04T15:34:28.738Z</time></trkpt><trkpt lat="42.97749" lon="13.8602983"><ele>9.0</ele><time>2026-04-04T15:34:29.739Z</time></trkpt><trkpt lat="42.9775183" lon="13.860515"><ele>9.0</ele><time>2026-04-04T15:34:30.739Z</time></trkpt><trkpt lat="42.97755" lon="13.8607267"><ele>9.0</ele><time>2026-04-04T15:34:31.739Z</time></trkpt><trkpt lat="42.9775733" lon="13.8609367"><ele>9.0</ele><time>2026-04-04T15:34:32.738Z</time></trkpt><trkpt lat="42.977595" lon="13.8611483"><ele>9.0</ele><time>2026-04-04T15:34:33.738Z</time></trkpt><trkpt lat="42.977615" lon="13.8613667"><ele>9.0</ele><time>2026-04-04T15:34:34.738Z</time></trkpt><trkpt lat="42.9776367" lon="13.8615817"><ele>9.0</ele><time>2026-04-04T15:34:35.739Z</time></trkpt><trkpt lat="42.9776483" lon="13.8617883"><ele>9.0</ele><time>2026-04-04T15:34:36.739Z</time></trkpt><trkpt lat="42.97766" lon="13.861985"><ele>9.0</ele><time>2026-04-04T15:34:37.739Z</time></trkpt><trkpt lat="42.9776717" lon="13.8621633"><ele>9.0</ele><time>2026-04-04T15:34:38.739Z</time></trkpt><trkpt lat="42.977685" lon="13.8623233"><ele>9.0</ele><time>2026-04-04T15:34:39.738Z</time></trkpt><trkpt lat="42.9776833" lon="13.8624617"><ele>9.0</ele><time>2026-04-04T15:34:40.738Z</time></trkpt><trkpt lat="42.97768" lon="13.8625933"><ele>9.0</ele><time>2026-04-04T15:34:41.739Z</time></trkpt><trkpt lat="42.97768" lon="13.8626983"><ele>9.0</ele><time>2026-04-04T15:34:42.738Z</time></trkpt><trkpt lat="42.97768" lon="13.8628083"><ele>9.0</ele><time>2026-04-04T15:34:43.738Z</time></trkpt><trkpt lat="42.9776883" lon="13.862925"><ele>9.0</ele><time>2026-04-04T15:34:44.738Z</time></trkpt><trkpt lat="42.977695" lon="13.863055"><ele>9.0</ele><time>2026-04-04T15:34:45.738Z</time></trkpt><trkpt lat="42.9777033" lon="13.8631917"><ele>9.0</ele><time>2026-04-04T15:34:46.738Z</time></trkpt><trkpt lat="42.9777217" lon="13.8633483"><ele>9.0</ele><time>2026-04-04T15:34:47.738Z</time></trkpt><trkpt lat="42.97776" lon="13.86372"><ele>9.0</ele><time>2026-04-04T15:34:49.738Z</time></trkpt><trkpt lat="42.97779" lon="13.86393"><ele>9.0</ele><time>2026-04-04T15:34:50.738Z</time></trkpt><trkpt lat="42.9778233" lon="13.86413"><ele>9.0</ele><time>2026-04-04T15:34:51.738Z</time></trkpt><trkpt lat="42.97786" lon="13.8643383"><ele>9.0</ele><time>2026-04-04T15:34:52.738Z</time></trkpt><trkpt lat="42.977885" lon="13.8645733"><ele>8.333333333333334</ele><time>2026-04-04T15:34:53.738Z</time></trkpt><trkpt lat="42.9779233" lon="13.8648233"><ele>7.666666666666667</ele><time>2026-04-04T15:34:54.738Z</time></trkpt><trkpt lat="42.977975" lon="13.8650817"><ele>7.0</ele><time>2026-04-04T15:34:55.738Z</time></trkpt><trkpt lat="42.97802" lon="13.86534"><ele>7.0</ele><time>2026-04-04T15:34:56.738Z</time></trkpt><trkpt lat="42.97807" lon="13.865605"><ele>7.0</ele><time>2026-04-04T15:34:57.738Z</time></trkpt><trkpt lat="42.9781183" lon="13.8658583"><ele>7.0</ele><time>2026-04-04T15:34:58.738Z</time></trkpt><trkpt lat="42.9781667" lon="13.8661033"><ele>6.333333333333334</ele><time>2026-04-04T15:34:59.738Z</time></trkpt><trkpt lat="42.9782183" lon="13.8663567"><ele>5.666666666666667</ele><time>2026-04-04T15:35:00.738Z</time></trkpt><trkpt lat="42.9782717" lon="13.8665983"><ele>5.0</ele><time>2026-04-04T15:35:01.739Z</time></trkpt><trkpt lat="42.97832" lon="13.86684"><ele>4.666666666666667</ele><time>2026-04-04T15:35:02.739Z</time></trkpt><trkpt lat="42.9783667" lon="13.86707"><ele>4.333333333333333</ele><time>2026-04-04T15:35:03.739Z</time></trkpt><trkpt lat="42.97842" lon="13.8672917"><ele>4.0</ele><time>2026-04-04T15:35:04.738Z</time></trkpt><trkpt lat="42.9784667" lon="13.8675067"><ele>4.0</ele><time>2026-04-04T15:35:05.739Z</time></trkpt><trkpt lat="42.9785133" lon="13.8677133"><ele>4.0</ele><time>2026-04-04T15:35:06.738Z</time></trkpt><trkpt lat="42.9785633" lon="13.8679033"><ele>4.0</ele><time>2026-04-04T15:35:07.739Z</time></trkpt><trkpt lat="42.978615" lon="13.8680817"><ele>4.0</ele><time>2026-04-04T15:35:08.738Z</time></trkpt><trkpt lat="42.9786733" lon="13.8682467"><ele>4.0</ele><time>2026-04-04T15:35:09.739Z</time></trkpt><trkpt lat="42.97875" lon="13.868395"><ele>4.0</ele><time>2026-04-04T15:35:10.738Z</time></trkpt><trkpt lat="42.97884" lon="13.8685217"><ele>4.0</ele><time>2026-04-04T15:35:11.739Z</time></trkpt><trkpt lat="42.9789467" lon="13.8686283"><ele>4.0</ele><time>2026-04-04T15:35:12.739Z</time></trkpt><trkpt lat="42.97907" lon="13.8687117"><ele>3.75</ele><time>2026-04-04T15:35:13.739Z</time></trkpt><trkpt lat="42.9792017" lon="13.86879"><ele>3.5</ele><time>2026-04-04T15:35:14.738Z</time></trkpt><trkpt lat="42.9793167" lon="13.8688667"><ele>3.25</ele><time>2026-04-04T15:35:15.739Z</time></trkpt><trkpt lat="42.9794283" lon="13.8689433"><ele>3.0</ele><time>2026-04-04T15:35:16.739Z</time></trkpt><trkpt lat="42.97952" lon="13.8690383"><ele>3.0</ele><time>2026-04-04T15:35:17.739Z</time></trkpt><trkpt lat="42.9795917" lon="13.86914"><ele>3.0</ele><time>2026-04-04T15:35:18.738Z</time></trkpt><trkpt lat="42.9796433" lon="13.8692733"><ele>3.0</ele><time>2026-04-04T15:35:19.739Z</time></trkpt><trkpt lat="42.9796867" lon="13.8694233"><ele>3.0</ele><time>2026-04-04T15:35:20.738Z</time></trkpt><trkpt lat="42.9797133" lon="13.86955"><ele>3.0</ele><time>2026-04-04T15:35:21.739Z</time></trkpt><trkpt lat="42.979725" lon="13.8696467"><ele>3.4</ele><time>2026-04-04T15:35:22.738Z</time></trkpt><trkpt lat="42.979705" lon="13.869745"><ele>3.8</ele><time>2026-04-04T15:35:23.739Z</time></trkpt><trkpt lat="42.9796667" lon="13.869825"><ele>4.2</ele><time>2026-04-04T15:35:24.738Z</time></trkpt><trkpt lat="42.9796033" lon="13.8699067"><ele>4.6</ele><time>2026-04-04T15:35:25.738Z</time></trkpt><trkpt lat="42.9795117" lon="13.8699817"><ele>5.0</ele><time>2026-04-04T15:35:26.738Z</time></trkpt><trkpt lat="42.979385" lon="13.8700367"><ele>5.0</ele><time>2026-04-04T15:35:27.739Z</time></trkpt><trkpt lat="42.97921" lon="13.8700817"><ele>5.0</ele><time>2026-04-04T15:35:28.739Z</time></trkpt><trkpt lat="42.978995" lon="13.8701333"><ele>5.0</ele><time>2026-04-04T15:35:29.738Z</time></trkpt><trkpt lat="42.97876" lon="13.8701883"><ele>5.0</ele><time>2026-04-04T15:35:30.739Z</time></trkpt><trkpt lat="42.97853" lon="13.8702467"><ele>5.0</ele><time>2026-04-04T15:35:31.738Z</time></trkpt><trkpt lat="42.9783283" lon="13.8702933"><ele>5.0</ele><time>2026-04-04T15:35:32.738Z</time></trkpt><trkpt lat="42.9781467" lon="13.8703383"><ele>5.0</ele><time>2026-04-04T15:35:33.739Z</time></trkpt><trkpt lat="42.9779733" lon="13.870375"><ele>5.0</ele><time>2026-04-04T15:35:34.739Z</time></trkpt><trkpt lat="42.9778167" lon="13.8704133"><ele>5.0</ele><time>2026-04-04T15:35:35.738Z</time></trkpt><trkpt lat="42.97767" lon="13.8704417"><ele>5.0</ele><time>2026-04-04T15:35:36.738Z</time></trkpt><trkpt lat="42.9775367" lon="13.8704667"><ele>5.0</ele><time>2026-04-04T15:35:37.739Z</time></trkpt><trkpt lat="42.9774133" lon="13.8704983"><ele>5.0</ele><time>2026-04-04T15:35:38.738Z</time></trkpt><trkpt lat="42.977295" lon="13.8705167"><ele>5.0</ele><time>2026-04-04T15:35:39.739Z</time></trkpt><trkpt lat="42.9771767" lon="13.8705417"><ele>5.166666666666667</ele><time>2026-04-04T15:35:40.739Z</time></trkpt><trkpt lat="42.97707" lon="13.8705667"><ele>5.333333333333334</ele><time>2026-04-04T15:35:41.739Z</time></trkpt><trkpt lat="42.9769733" lon="13.870585"><ele>5.5</ele><time>2026-04-04T15:35:42.738Z</time></trkpt><trkpt lat="42.97689" lon="13.8706033"><ele>5.666666666666667</ele><time>2026-04-04T15:35:43.738Z</time></trkpt><trkpt lat="42.9768267" lon="13.8706067"><ele>5.833333333333333</ele><time>2026-04-04T15:35:44.739Z</time></trkpt><trkpt lat="42.9767533" lon="13.8705733"><ele>6.0</ele><time>2026-04-04T15:35:46.738Z</time></trkpt><trkpt lat="42.9767183" lon="13.8704667"><ele>6.0</ele><time>2026-04-04T15:35:48.739Z</time></trkpt><trkpt lat="42.97669" lon="13.870295"><ele>6.0</ele><time>2026-04-04T15:35:50.739Z</time></trkpt><trkpt lat="42.9766833" lon="13.8702067"><ele>6.0</ele><time>2026-04-04T15:35:51.738Z</time></trkpt><trkpt lat="42.9766967" lon="13.87006"><ele>6.0</ele><time>2026-04-04T15:35:53.739Z</time></trkpt><trkpt lat="42.976745" lon="13.87"><ele>6.0</ele><time>2026-04-04T15:35:55.738Z</time></trkpt><trkpt lat="42.9768283" lon="13.8699867"><ele>6.142857142857142</ele><time>2026-04-04T15:35:58.738Z</time></trkpt><trkpt lat="42.9768933" lon="13.86995"><ele>6.285714285714286</ele><time>2026-04-04T15:36:01.739Z</time></trkpt><trkpt lat="42.9769717" lon="13.8699333"><ele>6.428571428571429</ele><time>2026-04-04T15:36:05.738Z</time></trkpt><trkpt lat="42.9770383" lon="13.8699117"><ele>6.571428571428571</ele><time>2026-04-04T15:36:09.739Z</time></trkpt><trkpt lat="42.9771067" lon="13.8698667"><ele>6.714285714285714</ele><time>2026-04-04T15:36:30.737Z</time></trkpt><trkpt lat="42.9770483" lon="13.8699133"><ele>6.857142857142857</ele><time>2026-04-04T15:36:34.737Z</time></trkpt><trkpt lat="42.9769717" lon="13.869905"><ele>7.0</ele><time>2026-04-04T15:36:37.737Z</time></trkpt><trkpt lat="42.976905" lon="13.8698817"><ele>7.0</ele><time>2026-04-04T15:36:41.737Z</time></trkpt></trkseg></trk></gpx>